<?xml version="1.0" encoding="UTF-8" standalone="no" ?>
<gpx xmlns="http://www.topografix.com/GPX/1/1" xmlns:xsi="http://www.w3.org/2001/XMLSchema-instance" xsi:schemaLocation="http://www.topografix.com/GPX/1/1 http://www.topografix.com/GPX/1/1/gpx.xsd" version="1.1" creator="VisuGPX - https://www.visugpx.com">
  <metadata>
    <name>7 juillet 2018</name>
    <desc><![CDATA[Réalisation en solo, du vent depuis Chambon.
Température chaude.
]]></desc>
  </metadata>
  <trk>
    <name><![CDATA[7 juil. 2018 3:40:06 PM]]></name>
    <trkseg>
      <trkpt lat="46.31121" lon="2.75386">
        <ele>413.11</ele>
        <time>2018-07-07T13:40:08.000Z</time>
      </trkpt>
      <trkpt lat="46.31117" lon="2.75409">
        <ele>411.56</ele>
        <time>2018-07-07T13:40:15.000Z</time>
      </trkpt>
      <trkpt lat="46.31115" lon="2.75393">
        <ele>417.73</ele>
        <time>2018-07-07T13:40:25.000Z</time>
      </trkpt>
      <trkpt lat="46.31136" lon="2.7542">
        <ele>442.05</ele>
        <time>2018-07-07T13:40:36.000Z</time>
      </trkpt>
      <trkpt lat="46.3115" lon="2.75431">
        <ele>461.11</ele>
        <time>2018-07-07T13:40:37.000Z</time>
      </trkpt>
      <trkpt lat="46.31097" lon="2.75354">
        <ele>354.62</ele>
        <time>2018-07-07T13:40:39.000Z</time>
      </trkpt>
      <trkpt lat="46.31225" lon="2.75553">
        <ele>660.39</ele>
        <time>2018-07-07T13:40:51.000Z</time>
      </trkpt>
      <trkpt lat="46.30987" lon="2.75337">
        <ele>310.48</ele>
        <time>2018-07-07T13:40:54.000Z</time>
      </trkpt>
      <trkpt lat="46.31028" lon="2.75373">
        <ele>374.54</ele>
        <time>2018-07-07T13:40:55.000Z</time>
      </trkpt>
      <trkpt lat="46.31056" lon="2.75391">
        <ele>407.19</ele>
        <time>2018-07-07T13:40:56.000Z</time>
      </trkpt>
      <trkpt lat="46.31099" lon="2.75399">
        <ele>448.16</ele>
        <time>2018-07-07T13:40:57.000Z</time>
      </trkpt>
      <trkpt lat="46.31088" lon="2.75399">
        <ele>430.11</ele>
        <time>2018-07-07T13:40:58.000Z</time>
      </trkpt>
      <trkpt lat="46.31099" lon="2.75403">
        <ele>447.19</ele>
        <time>2018-07-07T13:40:59.000Z</time>
      </trkpt>
      <trkpt lat="46.31093" lon="2.75389">
        <ele>421.97</ele>
        <time>2018-07-07T13:41:02.000Z</time>
      </trkpt>
      <trkpt lat="46.31108" lon="2.75359">
        <ele>376.29</ele>
        <time>2018-07-07T13:41:07.000Z</time>
      </trkpt>
      <trkpt lat="46.31065" lon="2.7538">
        <ele>423.99</ele>
        <time>2018-07-07T13:41:08.000Z</time>
      </trkpt>
      <trkpt lat="46.31078" lon="2.7537">
        <ele>417.69</ele>
        <time>2018-07-07T13:41:09.000Z</time>
      </trkpt>
      <trkpt lat="46.31061" lon="2.75371">
        <ele>430.68</ele>
        <time>2018-07-07T13:41:11.000Z</time>
      </trkpt>
      <trkpt lat="46.31054" lon="2.7538">
        <ele>413.59</ele>
        <time>2018-07-07T13:41:12.000Z</time>
      </trkpt>
      <trkpt lat="46.31062" lon="2.75396">
        <ele>420.82</ele>
        <time>2018-07-07T13:41:13.000Z</time>
      </trkpt>
      <trkpt lat="46.31049" lon="2.75384">
        <ele>433.51</ele>
        <time>2018-07-07T13:41:14.000Z</time>
      </trkpt>
      <trkpt lat="46.31041" lon="2.7541">
        <ele>416.23</ele>
        <time>2018-07-07T13:41:15.000Z</time>
      </trkpt>
      <trkpt lat="46.31059" lon="2.75421">
        <ele>420.5</ele>
        <time>2018-07-07T13:41:17.000Z</time>
      </trkpt>
      <trkpt lat="46.31058" lon="2.75402">
        <ele>411.47</ele>
        <time>2018-07-07T13:41:18.000Z</time>
      </trkpt>
      <trkpt lat="46.31055" lon="2.75415">
        <ele>404.25</ele>
        <time>2018-07-07T13:41:21.000Z</time>
      </trkpt>
      <trkpt lat="46.31046" lon="2.75412">
        <ele>396.05</ele>
        <time>2018-07-07T13:41:22.000Z</time>
      </trkpt>
      <trkpt lat="46.3103" lon="2.75426">
        <ele>389.62</ele>
        <time>2018-07-07T13:41:23.000Z</time>
      </trkpt>
      <trkpt lat="46.31013" lon="2.75443">
        <ele>396.88</ele>
        <time>2018-07-07T13:41:26.000Z</time>
      </trkpt>
      <trkpt lat="46.30999" lon="2.75428">
        <ele>394.26</ele>
        <time>2018-07-07T13:41:29.000Z</time>
      </trkpt>
      <trkpt lat="46.30986" lon="2.75421">
        <ele>396.18</ele>
        <time>2018-07-07T13:41:33.000Z</time>
      </trkpt>
      <trkpt lat="46.31016" lon="2.75433">
        <ele>438.48</ele>
        <time>2018-07-07T13:41:34.000Z</time>
      </trkpt>
      <trkpt lat="46.30979" lon="2.75408">
        <ele>410.13</ele>
        <time>2018-07-07T13:41:35.000Z</time>
      </trkpt>
      <trkpt lat="46.30968" lon="2.754">
        <ele>451.19</ele>
        <time>2018-07-07T13:41:41.000Z</time>
      </trkpt>
      <trkpt lat="46.30944" lon="2.75387">
        <ele>440.42</ele>
        <time>2018-07-07T13:41:43.000Z</time>
      </trkpt>
      <trkpt lat="46.3093" lon="2.75386">
        <ele>427.69</ele>
        <time>2018-07-07T13:41:44.000Z</time>
      </trkpt>
      <trkpt lat="46.30895" lon="2.75359">
        <ele>398.63</ele>
        <time>2018-07-07T13:41:45.000Z</time>
      </trkpt>
      <trkpt lat="46.30886" lon="2.75366">
        <ele>402.1</ele>
        <time>2018-07-07T13:41:46.000Z</time>
      </trkpt>
      <trkpt lat="46.30865" lon="2.75374">
        <ele>408.7</ele>
        <time>2018-07-07T13:41:49.000Z</time>
      </trkpt>
      <trkpt lat="46.30885" lon="2.7538">
        <ele>419.65</ele>
        <time>2018-07-07T13:41:49.896Z</time>
      </trkpt>
      <trkpt lat="46.3089" lon="2.754">
        <ele>410.52</ele>
        <time>2018-07-07T13:41:51.000Z</time>
      </trkpt>
      <trkpt lat="46.30906" lon="2.75411">
        <ele>421.25</ele>
        <time>2018-07-07T13:41:52.000Z</time>
      </trkpt>
      <trkpt lat="46.309" lon="2.75426">
        <ele>434.98</ele>
        <time>2018-07-07T13:41:55.000Z</time>
      </trkpt>
      <trkpt lat="46.30902" lon="2.75451">
        <ele>434.14</ele>
        <time>2018-07-07T13:41:57.000Z</time>
      </trkpt>
      <trkpt lat="46.30902" lon="2.75473">
        <ele>431.85</ele>
        <time>2018-07-07T13:41:59.000Z</time>
      </trkpt>
      <trkpt lat="46.309" lon="2.75493">
        <ele>425.98</ele>
        <time>2018-07-07T13:42:01.000Z</time>
      </trkpt>
      <trkpt lat="46.30899" lon="2.75516">
        <ele>422.09</ele>
        <time>2018-07-07T13:42:03.000Z</time>
      </trkpt>
      <trkpt lat="46.30899" lon="2.75543">
        <ele>418.69</ele>
        <time>2018-07-07T13:42:05.000Z</time>
      </trkpt>
      <trkpt lat="46.30899" lon="2.75558">
        <ele>416.51</ele>
        <time>2018-07-07T13:42:06.000Z</time>
      </trkpt>
      <trkpt lat="46.309" lon="2.75573">
        <ele>414.64</ele>
        <time>2018-07-07T13:42:07.000Z</time>
      </trkpt>
      <trkpt lat="46.30901" lon="2.75589">
        <ele>412.89</ele>
        <time>2018-07-07T13:42:08.000Z</time>
      </trkpt>
      <trkpt lat="46.30902" lon="2.75605">
        <ele>410.92</ele>
        <time>2018-07-07T13:42:09.000Z</time>
      </trkpt>
      <trkpt lat="46.30903" lon="2.75621">
        <ele>409.45</ele>
        <time>2018-07-07T13:42:10.000Z</time>
      </trkpt>
      <trkpt lat="46.30903" lon="2.75638">
        <ele>407.48</ele>
        <time>2018-07-07T13:42:11.000Z</time>
      </trkpt>
      <trkpt lat="46.30905" lon="2.75671">
        <ele>404.4</ele>
        <time>2018-07-07T13:42:13.000Z</time>
      </trkpt>
      <trkpt lat="46.30905" lon="2.75689">
        <ele>402.61</ele>
        <time>2018-07-07T13:42:14.000Z</time>
      </trkpt>
      <trkpt lat="46.30906" lon="2.75706">
        <ele>401.85</ele>
        <time>2018-07-07T13:42:15.000Z</time>
      </trkpt>
      <trkpt lat="46.30907" lon="2.75723">
        <ele>401.43</ele>
        <time>2018-07-07T13:42:16.000Z</time>
      </trkpt>
      <trkpt lat="46.30908" lon="2.7574">
        <ele>400.67</ele>
        <time>2018-07-07T13:42:17.000Z</time>
      </trkpt>
      <trkpt lat="46.30909" lon="2.75758">
        <ele>399.04</ele>
        <time>2018-07-07T13:42:18.000Z</time>
      </trkpt>
      <trkpt lat="46.3091" lon="2.75775">
        <ele>397.61</ele>
        <time>2018-07-07T13:42:19.000Z</time>
      </trkpt>
      <trkpt lat="46.3091" lon="2.75793">
        <ele>395.84</ele>
        <time>2018-07-07T13:42:20.000Z</time>
      </trkpt>
      <trkpt lat="46.30908" lon="2.75811">
        <ele>394.01</ele>
        <time>2018-07-07T13:42:21.000Z</time>
      </trkpt>
      <trkpt lat="46.30905" lon="2.75827">
        <ele>392.27</ele>
        <time>2018-07-07T13:42:22.000Z</time>
      </trkpt>
      <trkpt lat="46.30893" lon="2.75856">
        <ele>388.63</ele>
        <time>2018-07-07T13:42:24.000Z</time>
      </trkpt>
      <trkpt lat="46.30886" lon="2.75871">
        <ele>386.59</ele>
        <time>2018-07-07T13:42:25.000Z</time>
      </trkpt>
      <trkpt lat="46.30878" lon="2.75883">
        <ele>386.22</ele>
        <time>2018-07-07T13:42:26.000Z</time>
      </trkpt>
      <trkpt lat="46.30863" lon="2.75891">
        <ele>385.67</ele>
        <time>2018-07-07T13:42:27.000Z</time>
      </trkpt>
      <trkpt lat="46.30842" lon="2.75911">
        <ele>383.09</ele>
        <time>2018-07-07T13:42:29.000Z</time>
      </trkpt>
      <trkpt lat="46.30832" lon="2.75921">
        <ele>381.5</ele>
        <time>2018-07-07T13:42:30.000Z</time>
      </trkpt>
      <trkpt lat="46.30824" lon="2.75933">
        <ele>380.19</ele>
        <time>2018-07-07T13:42:31.000Z</time>
      </trkpt>
      <trkpt lat="46.30814" lon="2.75959">
        <ele>379.09</ele>
        <time>2018-07-07T13:42:33.000Z</time>
      </trkpt>
      <trkpt lat="46.30813" lon="2.75973">
        <ele>379.3</ele>
        <time>2018-07-07T13:42:34.000Z</time>
      </trkpt>
      <trkpt lat="46.30819" lon="2.75987">
        <ele>379.37</ele>
        <time>2018-07-07T13:42:35.000Z</time>
      </trkpt>
      <trkpt lat="46.3083" lon="2.76015">
        <ele>379.79</ele>
        <time>2018-07-07T13:42:37.000Z</time>
      </trkpt>
      <trkpt lat="46.3084" lon="2.76038">
        <ele>379.83</ele>
        <time>2018-07-07T13:42:39.000Z</time>
      </trkpt>
      <trkpt lat="46.30845" lon="2.76055">
        <ele>379.74</ele>
        <time>2018-07-07T13:42:41.000Z</time>
      </trkpt>
      <trkpt lat="46.30848" lon="2.76073">
        <ele>379.78</ele>
        <time>2018-07-07T13:42:43.000Z</time>
      </trkpt>
      <trkpt lat="46.30851" lon="2.7609">
        <ele>380.23</ele>
        <time>2018-07-07T13:42:45.000Z</time>
      </trkpt>
      <trkpt lat="46.30853" lon="2.76104">
        <ele>381.87</ele>
        <time>2018-07-07T13:42:47.000Z</time>
      </trkpt>
      <trkpt lat="46.30855" lon="2.76119">
        <ele>382.16</ele>
        <time>2018-07-07T13:42:49.000Z</time>
      </trkpt>
      <trkpt lat="46.30859" lon="2.76133">
        <ele>381.77</ele>
        <time>2018-07-07T13:42:51.000Z</time>
      </trkpt>
      <trkpt lat="46.30864" lon="2.76144">
        <ele>382.64</ele>
        <time>2018-07-07T13:42:53.000Z</time>
      </trkpt>
      <trkpt lat="46.30875" lon="2.76155">
        <ele>383.82</ele>
        <time>2018-07-07T13:42:56.000Z</time>
      </trkpt>
      <trkpt lat="46.30887" lon="2.7616">
        <ele>385.91</ele>
        <time>2018-07-07T13:42:59.000Z</time>
      </trkpt>
      <trkpt lat="46.30899" lon="2.76158">
        <ele>386.32</ele>
        <time>2018-07-07T13:43:02.000Z</time>
      </trkpt>
      <trkpt lat="46.30911" lon="2.76156">
        <ele>387.22</ele>
        <time>2018-07-07T13:43:05.000Z</time>
      </trkpt>
      <trkpt lat="46.30921" lon="2.76162">
        <ele>387.96</ele>
        <time>2018-07-07T13:43:08.000Z</time>
      </trkpt>
      <trkpt lat="46.30928" lon="2.76175">
        <ele>388.77</ele>
        <time>2018-07-07T13:43:10.000Z</time>
      </trkpt>
      <trkpt lat="46.3093" lon="2.76191">
        <ele>389.64</ele>
        <time>2018-07-07T13:43:12.000Z</time>
      </trkpt>
      <trkpt lat="46.30929" lon="2.76206">
        <ele>389.81</ele>
        <time>2018-07-07T13:43:14.000Z</time>
      </trkpt>
      <trkpt lat="46.30927" lon="2.76223">
        <ele>389.09</ele>
        <time>2018-07-07T13:43:16.000Z</time>
      </trkpt>
      <trkpt lat="46.30924" lon="2.76242">
        <ele>387.67</ele>
        <time>2018-07-07T13:43:18.000Z</time>
      </trkpt>
      <trkpt lat="46.30918" lon="2.76255">
        <ele>387.2</ele>
        <time>2018-07-07T13:43:20.000Z</time>
      </trkpt>
      <trkpt lat="46.30909" lon="2.76265">
        <ele>385.84</ele>
        <time>2018-07-07T13:43:22.000Z</time>
      </trkpt>
      <trkpt lat="46.30897" lon="2.76264">
        <ele>385.94</ele>
        <time>2018-07-07T13:43:24.000Z</time>
      </trkpt>
      <trkpt lat="46.30886" lon="2.76259">
        <ele>387.53</ele>
        <time>2018-07-07T13:43:26.000Z</time>
      </trkpt>
      <trkpt lat="46.30873" lon="2.76258">
        <ele>389.11</ele>
        <time>2018-07-07T13:43:28.000Z</time>
      </trkpt>
      <trkpt lat="46.30862" lon="2.76262">
        <ele>390.84</ele>
        <time>2018-07-07T13:43:30.000Z</time>
      </trkpt>
      <trkpt lat="46.30857" lon="2.76273">
        <ele>392.1</ele>
        <time>2018-07-07T13:43:32.000Z</time>
      </trkpt>
      <trkpt lat="46.30854" lon="2.7629">
        <ele>392.81</ele>
        <time>2018-07-07T13:43:34.000Z</time>
      </trkpt>
      <trkpt lat="46.30853" lon="2.76308">
        <ele>393.77</ele>
        <time>2018-07-07T13:43:36.000Z</time>
      </trkpt>
      <trkpt lat="46.30852" lon="2.76328">
        <ele>394.81</ele>
        <time>2018-07-07T13:43:38.000Z</time>
      </trkpt>
      <trkpt lat="46.30849" lon="2.76346">
        <ele>395.42</ele>
        <time>2018-07-07T13:43:40.000Z</time>
      </trkpt>
      <trkpt lat="46.30848" lon="2.76362">
        <ele>396.28</ele>
        <time>2018-07-07T13:43:42.000Z</time>
      </trkpt>
      <trkpt lat="46.30847" lon="2.76377">
        <ele>397.67</ele>
        <time>2018-07-07T13:43:44.000Z</time>
      </trkpt>
      <trkpt lat="46.30848" lon="2.76395">
        <ele>400.16</ele>
        <time>2018-07-07T13:43:47.000Z</time>
      </trkpt>
      <trkpt lat="46.30846" lon="2.76408">
        <ele>401.32</ele>
        <time>2018-07-07T13:43:49.000Z</time>
      </trkpt>
      <trkpt lat="46.30845" lon="2.76422">
        <ele>401.99</ele>
        <time>2018-07-07T13:43:51.000Z</time>
      </trkpt>
      <trkpt lat="46.30843" lon="2.76441">
        <ele>402.84</ele>
        <time>2018-07-07T13:43:54.000Z</time>
      </trkpt>
      <trkpt lat="46.3084" lon="2.76455">
        <ele>403.49</ele>
        <time>2018-07-07T13:43:56.000Z</time>
      </trkpt>
      <trkpt lat="46.3084" lon="2.76469">
        <ele>404.33</ele>
        <time>2018-07-07T13:43:58.000Z</time>
      </trkpt>
      <trkpt lat="46.30839" lon="2.76483">
        <ele>405.43</ele>
        <time>2018-07-07T13:44:00.000Z</time>
      </trkpt>
      <trkpt lat="46.30838" lon="2.76497">
        <ele>406.38</ele>
        <time>2018-07-07T13:44:02.000Z</time>
      </trkpt>
      <trkpt lat="46.30838" lon="2.76512">
        <ele>407.41</ele>
        <time>2018-07-07T13:44:04.000Z</time>
      </trkpt>
      <trkpt lat="46.30838" lon="2.76527">
        <ele>408.3</ele>
        <time>2018-07-07T13:44:06.000Z</time>
      </trkpt>
      <trkpt lat="46.30841" lon="2.7654">
        <ele>408.99</ele>
        <time>2018-07-07T13:44:08.000Z</time>
      </trkpt>
      <trkpt lat="46.30843" lon="2.76553">
        <ele>409.87</ele>
        <time>2018-07-07T13:44:10.000Z</time>
      </trkpt>
      <trkpt lat="46.30845" lon="2.76567">
        <ele>411.26</ele>
        <time>2018-07-07T13:44:12.000Z</time>
      </trkpt>
      <trkpt lat="46.30845" lon="2.76584">
        <ele>412.12</ele>
        <time>2018-07-07T13:44:15.000Z</time>
      </trkpt>
      <trkpt lat="46.30843" lon="2.76602">
        <ele>413.4</ele>
        <time>2018-07-07T13:44:18.000Z</time>
      </trkpt>
      <trkpt lat="46.30834" lon="2.76613">
        <ele>415.54</ele>
        <time>2018-07-07T13:44:21.000Z</time>
      </trkpt>
      <trkpt lat="46.30829" lon="2.76625">
        <ele>416.22</ele>
        <time>2018-07-07T13:44:23.000Z</time>
      </trkpt>
      <trkpt lat="46.30821" lon="2.76639">
        <ele>417.63</ele>
        <time>2018-07-07T13:44:26.000Z</time>
      </trkpt>
      <trkpt lat="46.30816" lon="2.76653">
        <ele>418.32</ele>
        <time>2018-07-07T13:44:28.000Z</time>
      </trkpt>
      <trkpt lat="46.30813" lon="2.76668">
        <ele>419.05</ele>
        <time>2018-07-07T13:44:30.000Z</time>
      </trkpt>
      <trkpt lat="46.3081" lon="2.76684">
        <ele>419.98</ele>
        <time>2018-07-07T13:44:32.000Z</time>
      </trkpt>
      <trkpt lat="46.30808" lon="2.76703">
        <ele>420.84</ele>
        <time>2018-07-07T13:44:34.000Z</time>
      </trkpt>
      <trkpt lat="46.30804" lon="2.76722">
        <ele>420.94</ele>
        <time>2018-07-07T13:44:36.000Z</time>
      </trkpt>
      <trkpt lat="46.30803" lon="2.7674">
        <ele>421.05</ele>
        <time>2018-07-07T13:44:38.000Z</time>
      </trkpt>
      <trkpt lat="46.30801" lon="2.76758">
        <ele>421.09</ele>
        <time>2018-07-07T13:44:40.000Z</time>
      </trkpt>
      <trkpt lat="46.308" lon="2.76779">
        <ele>421.28</ele>
        <time>2018-07-07T13:44:42.000Z</time>
      </trkpt>
      <trkpt lat="46.30799" lon="2.76799">
        <ele>421.68</ele>
        <time>2018-07-07T13:44:44.000Z</time>
      </trkpt>
      <trkpt lat="46.30796" lon="2.76818">
        <ele>421.89</ele>
        <time>2018-07-07T13:44:46.000Z</time>
      </trkpt>
      <trkpt lat="46.30793" lon="2.76836">
        <ele>421.93</ele>
        <time>2018-07-07T13:44:48.000Z</time>
      </trkpt>
      <trkpt lat="46.30791" lon="2.76852">
        <ele>422.17</ele>
        <time>2018-07-07T13:44:50.000Z</time>
      </trkpt>
      <trkpt lat="46.30789" lon="2.76869">
        <ele>422.4</ele>
        <time>2018-07-07T13:44:52.000Z</time>
      </trkpt>
      <trkpt lat="46.30786" lon="2.76887">
        <ele>422.75</ele>
        <time>2018-07-07T13:44:54.000Z</time>
      </trkpt>
      <trkpt lat="46.30783" lon="2.76904">
        <ele>423.35</ele>
        <time>2018-07-07T13:44:56.000Z</time>
      </trkpt>
      <trkpt lat="46.30779" lon="2.76922">
        <ele>423.88</ele>
        <time>2018-07-07T13:44:58.000Z</time>
      </trkpt>
      <trkpt lat="46.30773" lon="2.76937">
        <ele>424.46</ele>
        <time>2018-07-07T13:45:00.000Z</time>
      </trkpt>
      <trkpt lat="46.30769" lon="2.76953">
        <ele>424.72</ele>
        <time>2018-07-07T13:45:02.000Z</time>
      </trkpt>
      <trkpt lat="46.30765" lon="2.7697">
        <ele>425.08</ele>
        <time>2018-07-07T13:45:04.000Z</time>
      </trkpt>
      <trkpt lat="46.30761" lon="2.76988">
        <ele>425.14</ele>
        <time>2018-07-07T13:45:06.000Z</time>
      </trkpt>
      <trkpt lat="46.30758" lon="2.77009">
        <ele>425.66</ele>
        <time>2018-07-07T13:45:08.000Z</time>
      </trkpt>
      <trkpt lat="46.30756" lon="2.7703">
        <ele>426.01</ele>
        <time>2018-07-07T13:45:10.000Z</time>
      </trkpt>
      <trkpt lat="46.30754" lon="2.77051">
        <ele>425.91</ele>
        <time>2018-07-07T13:45:12.000Z</time>
      </trkpt>
      <trkpt lat="46.30752" lon="2.77072">
        <ele>425.83</ele>
        <time>2018-07-07T13:45:14.000Z</time>
      </trkpt>
      <trkpt lat="46.30751" lon="2.77093">
        <ele>425.88</ele>
        <time>2018-07-07T13:45:16.000Z</time>
      </trkpt>
      <trkpt lat="46.3075" lon="2.77113">
        <ele>426.07</ele>
        <time>2018-07-07T13:45:18.000Z</time>
      </trkpt>
      <trkpt lat="46.30748" lon="2.77134">
        <ele>426.03</ele>
        <time>2018-07-07T13:45:20.000Z</time>
      </trkpt>
      <trkpt lat="46.30747" lon="2.77154">
        <ele>426.32</ele>
        <time>2018-07-07T13:45:22.000Z</time>
      </trkpt>
      <trkpt lat="46.30744" lon="2.77174">
        <ele>426.69</ele>
        <time>2018-07-07T13:45:24.000Z</time>
      </trkpt>
      <trkpt lat="46.30742" lon="2.77192">
        <ele>427.46</ele>
        <time>2018-07-07T13:45:26.000Z</time>
      </trkpt>
      <trkpt lat="46.30737" lon="2.7721">
        <ele>428.47</ele>
        <time>2018-07-07T13:45:28.000Z</time>
      </trkpt>
      <trkpt lat="46.30734" lon="2.77228">
        <ele>429.28</ele>
        <time>2018-07-07T13:45:30.000Z</time>
      </trkpt>
      <trkpt lat="46.30734" lon="2.77245">
        <ele>429.92</ele>
        <time>2018-07-07T13:45:32.000Z</time>
      </trkpt>
      <trkpt lat="46.30732" lon="2.77263">
        <ele>430.59</ele>
        <time>2018-07-07T13:45:34.000Z</time>
      </trkpt>
      <trkpt lat="46.3073" lon="2.77281">
        <ele>430.88</ele>
        <time>2018-07-07T13:45:36.000Z</time>
      </trkpt>
      <trkpt lat="46.30729" lon="2.77299">
        <ele>431.51</ele>
        <time>2018-07-07T13:45:38.000Z</time>
      </trkpt>
      <trkpt lat="46.3073" lon="2.7732">
        <ele>432.25</ele>
        <time>2018-07-07T13:45:40.000Z</time>
      </trkpt>
      <trkpt lat="46.30731" lon="2.77339">
        <ele>432.76</ele>
        <time>2018-07-07T13:45:42.000Z</time>
      </trkpt>
      <trkpt lat="46.30732" lon="2.77359">
        <ele>433.47</ele>
        <time>2018-07-07T13:45:44.000Z</time>
      </trkpt>
      <trkpt lat="46.30732" lon="2.77379">
        <ele>433.93</ele>
        <time>2018-07-07T13:45:46.000Z</time>
      </trkpt>
      <trkpt lat="46.30729" lon="2.77398">
        <ele>434.83</ele>
        <time>2018-07-07T13:45:48.000Z</time>
      </trkpt>
      <trkpt lat="46.30725" lon="2.77417">
        <ele>435.3</ele>
        <time>2018-07-07T13:45:50.000Z</time>
      </trkpt>
      <trkpt lat="46.30718" lon="2.77433">
        <ele>436.39</ele>
        <time>2018-07-07T13:45:52.000Z</time>
      </trkpt>
      <trkpt lat="46.3071" lon="2.77449">
        <ele>436.97</ele>
        <time>2018-07-07T13:45:54.000Z</time>
      </trkpt>
      <trkpt lat="46.30703" lon="2.77464">
        <ele>437.49</ele>
        <time>2018-07-07T13:45:56.000Z</time>
      </trkpt>
      <trkpt lat="46.30697" lon="2.7748">
        <ele>437.96</ele>
        <time>2018-07-07T13:45:58.000Z</time>
      </trkpt>
      <trkpt lat="46.30692" lon="2.77497">
        <ele>438.65</ele>
        <time>2018-07-07T13:46:00.000Z</time>
      </trkpt>
      <trkpt lat="46.30685" lon="2.77515">
        <ele>439.07</ele>
        <time>2018-07-07T13:46:02.000Z</time>
      </trkpt>
      <trkpt lat="46.30678" lon="2.77532">
        <ele>439</ele>
        <time>2018-07-07T13:46:04.000Z</time>
      </trkpt>
      <trkpt lat="46.30669" lon="2.77547">
        <ele>438.55</ele>
        <time>2018-07-07T13:46:06.000Z</time>
      </trkpt>
      <trkpt lat="46.30658" lon="2.77561">
        <ele>438.47</ele>
        <time>2018-07-07T13:46:08.000Z</time>
      </trkpt>
      <trkpt lat="46.30646" lon="2.77575">
        <ele>438.32</ele>
        <time>2018-07-07T13:46:10.000Z</time>
      </trkpt>
      <trkpt lat="46.30634" lon="2.77589">
        <ele>437.82</ele>
        <time>2018-07-07T13:46:12.000Z</time>
      </trkpt>
      <trkpt lat="46.30622" lon="2.77602">
        <ele>436.86</ele>
        <time>2018-07-07T13:46:14.000Z</time>
      </trkpt>
      <trkpt lat="46.3061" lon="2.77613">
        <ele>436.64</ele>
        <time>2018-07-07T13:46:16.000Z</time>
      </trkpt>
      <trkpt lat="46.30597" lon="2.77625">
        <ele>436.61</ele>
        <time>2018-07-07T13:46:18.000Z</time>
      </trkpt>
      <trkpt lat="46.30585" lon="2.77636">
        <ele>436.53</ele>
        <time>2018-07-07T13:46:20.000Z</time>
      </trkpt>
      <trkpt lat="46.30573" lon="2.77648">
        <ele>436.46</ele>
        <time>2018-07-07T13:46:22.000Z</time>
      </trkpt>
      <trkpt lat="46.30562" lon="2.7766">
        <ele>436.16</ele>
        <time>2018-07-07T13:46:24.000Z</time>
      </trkpt>
      <trkpt lat="46.3055" lon="2.77671">
        <ele>435.87</ele>
        <time>2018-07-07T13:46:26.000Z</time>
      </trkpt>
      <trkpt lat="46.30539" lon="2.77683">
        <ele>435.88</ele>
        <time>2018-07-07T13:46:28.000Z</time>
      </trkpt>
      <trkpt lat="46.30528" lon="2.77695">
        <ele>436.2</ele>
        <time>2018-07-07T13:46:30.000Z</time>
      </trkpt>
      <trkpt lat="46.3052" lon="2.7771">
        <ele>436.62</ele>
        <time>2018-07-07T13:46:32.000Z</time>
      </trkpt>
      <trkpt lat="46.30514" lon="2.77727">
        <ele>437.05</ele>
        <time>2018-07-07T13:46:34.000Z</time>
      </trkpt>
      <trkpt lat="46.30508" lon="2.77745">
        <ele>437.64</ele>
        <time>2018-07-07T13:46:36.000Z</time>
      </trkpt>
      <trkpt lat="46.30502" lon="2.77763">
        <ele>437.83</ele>
        <time>2018-07-07T13:46:38.000Z</time>
      </trkpt>
      <trkpt lat="46.30495" lon="2.77781">
        <ele>438.02</ele>
        <time>2018-07-07T13:46:40.000Z</time>
      </trkpt>
      <trkpt lat="46.3049" lon="2.77799">
        <ele>438.23</ele>
        <time>2018-07-07T13:46:42.000Z</time>
      </trkpt>
      <trkpt lat="46.30484" lon="2.77816">
        <ele>438.6</ele>
        <time>2018-07-07T13:46:44.000Z</time>
      </trkpt>
      <trkpt lat="46.30477" lon="2.77832">
        <ele>438.89</ele>
        <time>2018-07-07T13:46:46.000Z</time>
      </trkpt>
      <trkpt lat="46.30469" lon="2.77848">
        <ele>439.01</ele>
        <time>2018-07-07T13:46:48.000Z</time>
      </trkpt>
      <trkpt lat="46.30461" lon="2.77864">
        <ele>439.18</ele>
        <time>2018-07-07T13:46:50.000Z</time>
      </trkpt>
      <trkpt lat="46.30452" lon="2.77878">
        <ele>439.43</ele>
        <time>2018-07-07T13:46:52.000Z</time>
      </trkpt>
      <trkpt lat="46.30443" lon="2.77892">
        <ele>439.94</ele>
        <time>2018-07-07T13:46:54.000Z</time>
      </trkpt>
      <trkpt lat="46.30435" lon="2.77905">
        <ele>440.49</ele>
        <time>2018-07-07T13:46:56.000Z</time>
      </trkpt>
      <trkpt lat="46.30427" lon="2.77918">
        <ele>441.16</ele>
        <time>2018-07-07T13:46:58.000Z</time>
      </trkpt>
      <trkpt lat="46.30418" lon="2.77929">
        <ele>441.75</ele>
        <time>2018-07-07T13:47:00.000Z</time>
      </trkpt>
      <trkpt lat="46.30409" lon="2.77942">
        <ele>442.01</ele>
        <time>2018-07-07T13:47:02.000Z</time>
      </trkpt>
      <trkpt lat="46.30401" lon="2.77956">
        <ele>442.39</ele>
        <time>2018-07-07T13:47:04.000Z</time>
      </trkpt>
      <trkpt lat="46.30394" lon="2.77969">
        <ele>442.57</ele>
        <time>2018-07-07T13:47:06.000Z</time>
      </trkpt>
      <trkpt lat="46.30387" lon="2.77984">
        <ele>442.61</ele>
        <time>2018-07-07T13:47:08.000Z</time>
      </trkpt>
      <trkpt lat="46.30379" lon="2.77998">
        <ele>442.49</ele>
        <time>2018-07-07T13:47:10.000Z</time>
      </trkpt>
      <trkpt lat="46.30371" lon="2.78012">
        <ele>442.35</ele>
        <time>2018-07-07T13:47:12.000Z</time>
      </trkpt>
      <trkpt lat="46.30363" lon="2.78025">
        <ele>442.37</ele>
        <time>2018-07-07T13:47:14.000Z</time>
      </trkpt>
      <trkpt lat="46.30354" lon="2.78038">
        <ele>442.02</ele>
        <time>2018-07-07T13:47:16.000Z</time>
      </trkpt>
      <trkpt lat="46.30345" lon="2.78053">
        <ele>442.09</ele>
        <time>2018-07-07T13:47:18.000Z</time>
      </trkpt>
      <trkpt lat="46.30337" lon="2.78067">
        <ele>442.03</ele>
        <time>2018-07-07T13:47:20.000Z</time>
      </trkpt>
      <trkpt lat="46.30329" lon="2.78082">
        <ele>441.65</ele>
        <time>2018-07-07T13:47:22.000Z</time>
      </trkpt>
      <trkpt lat="46.3032" lon="2.78095">
        <ele>441.09</ele>
        <time>2018-07-07T13:47:24.000Z</time>
      </trkpt>
      <trkpt lat="46.30312" lon="2.7811">
        <ele>441.03</ele>
        <time>2018-07-07T13:47:26.000Z</time>
      </trkpt>
      <trkpt lat="46.30306" lon="2.78126">
        <ele>440.76</ele>
        <time>2018-07-07T13:47:28.000Z</time>
      </trkpt>
      <trkpt lat="46.303" lon="2.78143">
        <ele>440.65</ele>
        <time>2018-07-07T13:47:30.000Z</time>
      </trkpt>
      <trkpt lat="46.30296" lon="2.78161">
        <ele>440.82</ele>
        <time>2018-07-07T13:47:32.000Z</time>
      </trkpt>
      <trkpt lat="46.3029" lon="2.78179">
        <ele>440.65</ele>
        <time>2018-07-07T13:47:34.000Z</time>
      </trkpt>
      <trkpt lat="46.30282" lon="2.78193">
        <ele>440.72</ele>
        <time>2018-07-07T13:47:36.000Z</time>
      </trkpt>
      <trkpt lat="46.30271" lon="2.78203">
        <ele>440.63</ele>
        <time>2018-07-07T13:47:38.000Z</time>
      </trkpt>
      <trkpt lat="46.30257" lon="2.78206">
        <ele>440.85</ele>
        <time>2018-07-07T13:47:40.000Z</time>
      </trkpt>
      <trkpt lat="46.30243" lon="2.78202">
        <ele>441.07</ele>
        <time>2018-07-07T13:47:42.000Z</time>
      </trkpt>
      <trkpt lat="46.30231" lon="2.78195">
        <ele>441.5</ele>
        <time>2018-07-07T13:47:44.000Z</time>
      </trkpt>
      <trkpt lat="46.3022" lon="2.78187">
        <ele>442.47</ele>
        <time>2018-07-07T13:47:46.000Z</time>
      </trkpt>
      <trkpt lat="46.30208" lon="2.78182">
        <ele>442.94</ele>
        <time>2018-07-07T13:47:48.000Z</time>
      </trkpt>
      <trkpt lat="46.30196" lon="2.78179">
        <ele>443.32</ele>
        <time>2018-07-07T13:47:50.000Z</time>
      </trkpt>
      <trkpt lat="46.30182" lon="2.78176">
        <ele>444.04</ele>
        <time>2018-07-07T13:47:52.000Z</time>
      </trkpt>
      <trkpt lat="46.30165" lon="2.78175">
        <ele>444.87</ele>
        <time>2018-07-07T13:47:54.000Z</time>
      </trkpt>
      <trkpt lat="46.3015" lon="2.78174">
        <ele>445.47</ele>
        <time>2018-07-07T13:47:56.000Z</time>
      </trkpt>
      <trkpt lat="46.30137" lon="2.78168">
        <ele>446.16</ele>
        <time>2018-07-07T13:47:58.000Z</time>
      </trkpt>
      <trkpt lat="46.30128" lon="2.78154">
        <ele>446.76</ele>
        <time>2018-07-07T13:48:00.000Z</time>
      </trkpt>
      <trkpt lat="46.30121" lon="2.78136">
        <ele>448.76</ele>
        <time>2018-07-07T13:48:02.000Z</time>
      </trkpt>
      <trkpt lat="46.30114" lon="2.78117">
        <ele>449.43</ele>
        <time>2018-07-07T13:48:04.000Z</time>
      </trkpt>
      <trkpt lat="46.30108" lon="2.78099">
        <ele>449.63</ele>
        <time>2018-07-07T13:48:06.000Z</time>
      </trkpt>
      <trkpt lat="46.30103" lon="2.78082">
        <ele>450.01</ele>
        <time>2018-07-07T13:48:08.000Z</time>
      </trkpt>
      <trkpt lat="46.30096" lon="2.78065">
        <ele>449.72</ele>
        <time>2018-07-07T13:48:10.000Z</time>
      </trkpt>
      <trkpt lat="46.30088" lon="2.78047">
        <ele>449.1</ele>
        <time>2018-07-07T13:48:12.000Z</time>
      </trkpt>
      <trkpt lat="46.30081" lon="2.78028">
        <ele>448.31</ele>
        <time>2018-07-07T13:48:14.000Z</time>
      </trkpt>
      <trkpt lat="46.30074" lon="2.78009">
        <ele>447.85</ele>
        <time>2018-07-07T13:48:16.000Z</time>
      </trkpt>
      <trkpt lat="46.30069" lon="2.77989">
        <ele>447.14</ele>
        <time>2018-07-07T13:48:18.000Z</time>
      </trkpt>
      <trkpt lat="46.30064" lon="2.77967">
        <ele>447.17</ele>
        <time>2018-07-07T13:48:20.000Z</time>
      </trkpt>
      <trkpt lat="46.30059" lon="2.77944">
        <ele>447.7</ele>
        <time>2018-07-07T13:48:22.000Z</time>
      </trkpt>
      <trkpt lat="46.30053" lon="2.77924">
        <ele>448.74</ele>
        <time>2018-07-07T13:48:24.000Z</time>
      </trkpt>
      <trkpt lat="46.30046" lon="2.77904">
        <ele>449.06</ele>
        <time>2018-07-07T13:48:26.000Z</time>
      </trkpt>
      <trkpt lat="46.3004" lon="2.77882">
        <ele>448.71</ele>
        <time>2018-07-07T13:48:28.000Z</time>
      </trkpt>
      <trkpt lat="46.30032" lon="2.7786">
        <ele>448.41</ele>
        <time>2018-07-07T13:48:30.000Z</time>
      </trkpt>
      <trkpt lat="46.30024" lon="2.77838">
        <ele>448.21</ele>
        <time>2018-07-07T13:48:32.000Z</time>
      </trkpt>
      <trkpt lat="46.30016" lon="2.77817">
        <ele>447.33</ele>
        <time>2018-07-07T13:48:34.000Z</time>
      </trkpt>
      <trkpt lat="46.30008" lon="2.77795">
        <ele>446.62</ele>
        <time>2018-07-07T13:48:36.000Z</time>
      </trkpt>
      <trkpt lat="46.30005" lon="2.77783">
        <ele>446.32</ele>
        <time>2018-07-07T13:48:37.000Z</time>
      </trkpt>
      <trkpt lat="46.29997" lon="2.7776">
        <ele>446.39</ele>
        <time>2018-07-07T13:48:39.000Z</time>
      </trkpt>
      <trkpt lat="46.29989" lon="2.77737">
        <ele>446.43</ele>
        <time>2018-07-07T13:48:41.000Z</time>
      </trkpt>
      <trkpt lat="46.29981" lon="2.77716">
        <ele>446.3</ele>
        <time>2018-07-07T13:48:43.000Z</time>
      </trkpt>
      <trkpt lat="46.29973" lon="2.77694">
        <ele>446.11</ele>
        <time>2018-07-07T13:48:45.000Z</time>
      </trkpt>
      <trkpt lat="46.29966" lon="2.77672">
        <ele>445.86</ele>
        <time>2018-07-07T13:48:47.000Z</time>
      </trkpt>
      <trkpt lat="46.29957" lon="2.77651">
        <ele>445.48</ele>
        <time>2018-07-07T13:48:49.000Z</time>
      </trkpt>
      <trkpt lat="46.29949" lon="2.77629">
        <ele>445.48</ele>
        <time>2018-07-07T13:48:51.000Z</time>
      </trkpt>
      <trkpt lat="46.29943" lon="2.77607">
        <ele>445.14</ele>
        <time>2018-07-07T13:48:53.000Z</time>
      </trkpt>
      <trkpt lat="46.29935" lon="2.77585">
        <ele>444.78</ele>
        <time>2018-07-07T13:48:55.000Z</time>
      </trkpt>
      <trkpt lat="46.29928" lon="2.77562">
        <ele>444.82</ele>
        <time>2018-07-07T13:48:57.000Z</time>
      </trkpt>
      <trkpt lat="46.29921" lon="2.7754">
        <ele>444.85</ele>
        <time>2018-07-07T13:48:59.000Z</time>
      </trkpt>
      <trkpt lat="46.29914" lon="2.77517">
        <ele>444.27</ele>
        <time>2018-07-07T13:49:01.000Z</time>
      </trkpt>
      <trkpt lat="46.29907" lon="2.77496">
        <ele>443.77</ele>
        <time>2018-07-07T13:49:03.000Z</time>
      </trkpt>
      <trkpt lat="46.29903" lon="2.77483">
        <ele>443.5</ele>
        <time>2018-07-07T13:49:04.000Z</time>
      </trkpt>
      <trkpt lat="46.29898" lon="2.7746">
        <ele>442.9</ele>
        <time>2018-07-07T13:49:06.000Z</time>
      </trkpt>
      <trkpt lat="46.29894" lon="2.77436">
        <ele>442.73</ele>
        <time>2018-07-07T13:49:08.000Z</time>
      </trkpt>
      <trkpt lat="46.29892" lon="2.77423">
        <ele>442.72</ele>
        <time>2018-07-07T13:49:09.000Z</time>
      </trkpt>
      <trkpt lat="46.29889" lon="2.7741">
        <ele>442.53</ele>
        <time>2018-07-07T13:49:10.000Z</time>
      </trkpt>
      <trkpt lat="46.29886" lon="2.77396">
        <ele>442.53</ele>
        <time>2018-07-07T13:49:11.000Z</time>
      </trkpt>
      <trkpt lat="46.29882" lon="2.77371">
        <ele>442.92</ele>
        <time>2018-07-07T13:49:13.000Z</time>
      </trkpt>
      <trkpt lat="46.29876" lon="2.77346">
        <ele>443.73</ele>
        <time>2018-07-07T13:49:15.000Z</time>
      </trkpt>
      <trkpt lat="46.2987" lon="2.77322">
        <ele>444.06</ele>
        <time>2018-07-07T13:49:17.000Z</time>
      </trkpt>
      <trkpt lat="46.29865" lon="2.773">
        <ele>444.63</ele>
        <time>2018-07-07T13:49:19.000Z</time>
      </trkpt>
      <trkpt lat="46.2986" lon="2.77279">
        <ele>445.24</ele>
        <time>2018-07-07T13:49:21.000Z</time>
      </trkpt>
      <trkpt lat="46.29855" lon="2.77257">
        <ele>445.74</ele>
        <time>2018-07-07T13:49:23.000Z</time>
      </trkpt>
      <trkpt lat="46.2985" lon="2.77236">
        <ele>446.33</ele>
        <time>2018-07-07T13:49:25.000Z</time>
      </trkpt>
      <trkpt lat="46.29844" lon="2.77214">
        <ele>446.93</ele>
        <time>2018-07-07T13:49:27.000Z</time>
      </trkpt>
      <trkpt lat="46.29839" lon="2.77192">
        <ele>447.44</ele>
        <time>2018-07-07T13:49:29.000Z</time>
      </trkpt>
      <trkpt lat="46.29835" lon="2.77171">
        <ele>447.89</ele>
        <time>2018-07-07T13:49:31.000Z</time>
      </trkpt>
      <trkpt lat="46.2983" lon="2.77151">
        <ele>448.27</ele>
        <time>2018-07-07T13:49:33.000Z</time>
      </trkpt>
      <trkpt lat="46.29825" lon="2.77129">
        <ele>448.46</ele>
        <time>2018-07-07T13:49:35.000Z</time>
      </trkpt>
      <trkpt lat="46.29821" lon="2.77107">
        <ele>448.51</ele>
        <time>2018-07-07T13:49:37.000Z</time>
      </trkpt>
      <trkpt lat="46.29816" lon="2.77084">
        <ele>447.85</ele>
        <time>2018-07-07T13:49:39.000Z</time>
      </trkpt>
      <trkpt lat="46.2981" lon="2.77062">
        <ele>447.34</ele>
        <time>2018-07-07T13:49:41.000Z</time>
      </trkpt>
      <trkpt lat="46.29804" lon="2.77039">
        <ele>446.5</ele>
        <time>2018-07-07T13:49:43.000Z</time>
      </trkpt>
      <trkpt lat="46.29799" lon="2.77017">
        <ele>445.96</ele>
        <time>2018-07-07T13:49:45.000Z</time>
      </trkpt>
      <trkpt lat="46.29794" lon="2.76994">
        <ele>445.42</ele>
        <time>2018-07-07T13:49:47.000Z</time>
      </trkpt>
      <trkpt lat="46.29789" lon="2.7697">
        <ele>445.25</ele>
        <time>2018-07-07T13:49:49.000Z</time>
      </trkpt>
      <trkpt lat="46.29782" lon="2.76946">
        <ele>445.01</ele>
        <time>2018-07-07T13:49:51.000Z</time>
      </trkpt>
      <trkpt lat="46.29774" lon="2.76922">
        <ele>444.75</ele>
        <time>2018-07-07T13:49:53.000Z</time>
      </trkpt>
      <trkpt lat="46.2977" lon="2.76909">
        <ele>444.29</ele>
        <time>2018-07-07T13:49:54.000Z</time>
      </trkpt>
      <trkpt lat="46.29765" lon="2.76897">
        <ele>444.02</ele>
        <time>2018-07-07T13:49:55.000Z</time>
      </trkpt>
      <trkpt lat="46.29761" lon="2.76884">
        <ele>443.57</ele>
        <time>2018-07-07T13:49:56.000Z</time>
      </trkpt>
      <trkpt lat="46.29756" lon="2.76872">
        <ele>443.09</ele>
        <time>2018-07-07T13:49:57.000Z</time>
      </trkpt>
      <trkpt lat="46.29752" lon="2.76858">
        <ele>442.59</ele>
        <time>2018-07-07T13:49:58.000Z</time>
      </trkpt>
      <trkpt lat="46.29747" lon="2.76845">
        <ele>442.25</ele>
        <time>2018-07-07T13:49:59.000Z</time>
      </trkpt>
      <trkpt lat="46.29743" lon="2.76832">
        <ele>441.94</ele>
        <time>2018-07-07T13:50:00.000Z</time>
      </trkpt>
      <trkpt lat="46.29739" lon="2.76819">
        <ele>441.45</ele>
        <time>2018-07-07T13:50:01.000Z</time>
      </trkpt>
      <trkpt lat="46.29734" lon="2.76806">
        <ele>440.88</ele>
        <time>2018-07-07T13:50:02.000Z</time>
      </trkpt>
      <trkpt lat="46.2973" lon="2.76794">
        <ele>440.36</ele>
        <time>2018-07-07T13:50:03.000Z</time>
      </trkpt>
      <trkpt lat="46.29725" lon="2.76781">
        <ele>440.1</ele>
        <time>2018-07-07T13:50:04.000Z</time>
      </trkpt>
      <trkpt lat="46.2972" lon="2.76768">
        <ele>439.75</ele>
        <time>2018-07-07T13:50:05.000Z</time>
      </trkpt>
      <trkpt lat="46.29714" lon="2.76755">
        <ele>439.29</ele>
        <time>2018-07-07T13:50:06.000Z</time>
      </trkpt>
      <trkpt lat="46.2971" lon="2.76742">
        <ele>438.97</ele>
        <time>2018-07-07T13:50:07.000Z</time>
      </trkpt>
      <trkpt lat="46.29705" lon="2.76729">
        <ele>438.78</ele>
        <time>2018-07-07T13:50:08.000Z</time>
      </trkpt>
      <trkpt lat="46.29699" lon="2.76715">
        <ele>438.5</ele>
        <time>2018-07-07T13:50:09.000Z</time>
      </trkpt>
      <trkpt lat="46.29694" lon="2.76702">
        <ele>438.14</ele>
        <time>2018-07-07T13:50:10.000Z</time>
      </trkpt>
      <trkpt lat="46.29687" lon="2.7669">
        <ele>438.13</ele>
        <time>2018-07-07T13:50:11.000Z</time>
      </trkpt>
      <trkpt lat="46.2968" lon="2.76678">
        <ele>438.08</ele>
        <time>2018-07-07T13:50:12.000Z</time>
      </trkpt>
      <trkpt lat="46.29672" lon="2.76667">
        <ele>438.21</ele>
        <time>2018-07-07T13:50:13.000Z</time>
      </trkpt>
      <trkpt lat="46.29663" lon="2.76657">
        <ele>438.28</ele>
        <time>2018-07-07T13:50:14.000Z</time>
      </trkpt>
      <trkpt lat="46.29655" lon="2.76647">
        <ele>438.27</ele>
        <time>2018-07-07T13:50:15.000Z</time>
      </trkpt>
      <trkpt lat="46.29646" lon="2.76637">
        <ele>438.17</ele>
        <time>2018-07-07T13:50:16.000Z</time>
      </trkpt>
      <trkpt lat="46.29638" lon="2.76626">
        <ele>438.19</ele>
        <time>2018-07-07T13:50:17.000Z</time>
      </trkpt>
      <trkpt lat="46.29629" lon="2.76616">
        <ele>438.13</ele>
        <time>2018-07-07T13:50:18.000Z</time>
      </trkpt>
      <trkpt lat="46.2962" lon="2.76605">
        <ele>437.98</ele>
        <time>2018-07-07T13:50:19.000Z</time>
      </trkpt>
      <trkpt lat="46.2961" lon="2.76594">
        <ele>437.73</ele>
        <time>2018-07-07T13:50:20.000Z</time>
      </trkpt>
      <trkpt lat="46.29601" lon="2.76583">
        <ele>437.51</ele>
        <time>2018-07-07T13:50:21.000Z</time>
      </trkpt>
      <trkpt lat="46.29592" lon="2.76571">
        <ele>437.16</ele>
        <time>2018-07-07T13:50:22.000Z</time>
      </trkpt>
      <trkpt lat="46.29583" lon="2.7656">
        <ele>436.87</ele>
        <time>2018-07-07T13:50:23.000Z</time>
      </trkpt>
      <trkpt lat="46.29573" lon="2.76549">
        <ele>436.66</ele>
        <time>2018-07-07T13:50:24.000Z</time>
      </trkpt>
      <trkpt lat="46.29564" lon="2.76538">
        <ele>436.38</ele>
        <time>2018-07-07T13:50:25.000Z</time>
      </trkpt>
      <trkpt lat="46.29553" lon="2.76528">
        <ele>435.77</ele>
        <time>2018-07-07T13:50:26.000Z</time>
      </trkpt>
      <trkpt lat="46.29541" lon="2.7652">
        <ele>435.24</ele>
        <time>2018-07-07T13:50:27.000Z</time>
      </trkpt>
      <trkpt lat="46.2953" lon="2.76512">
        <ele>434.71</ele>
        <time>2018-07-07T13:50:28.000Z</time>
      </trkpt>
      <trkpt lat="46.29518" lon="2.76503">
        <ele>434.11</ele>
        <time>2018-07-07T13:50:29.000Z</time>
      </trkpt>
      <trkpt lat="46.29506" lon="2.76495">
        <ele>433.56</ele>
        <time>2018-07-07T13:50:30.000Z</time>
      </trkpt>
      <trkpt lat="46.29494" lon="2.76486">
        <ele>433.14</ele>
        <time>2018-07-07T13:50:31.000Z</time>
      </trkpt>
      <trkpt lat="46.29483" lon="2.76478">
        <ele>432.39</ele>
        <time>2018-07-07T13:50:32.000Z</time>
      </trkpt>
      <trkpt lat="46.29472" lon="2.7647">
        <ele>431.5</ele>
        <time>2018-07-07T13:50:33.000Z</time>
      </trkpt>
      <trkpt lat="46.29461" lon="2.76462">
        <ele>430.94</ele>
        <time>2018-07-07T13:50:34.000Z</time>
      </trkpt>
      <trkpt lat="46.29451" lon="2.76453">
        <ele>430.63</ele>
        <time>2018-07-07T13:50:35.000Z</time>
      </trkpt>
      <trkpt lat="46.2944" lon="2.76444">
        <ele>430.3</ele>
        <time>2018-07-07T13:50:36.000Z</time>
      </trkpt>
      <trkpt lat="46.29429" lon="2.76436">
        <ele>429.93</ele>
        <time>2018-07-07T13:50:37.000Z</time>
      </trkpt>
      <trkpt lat="46.29419" lon="2.76427">
        <ele>429.94</ele>
        <time>2018-07-07T13:50:38.000Z</time>
      </trkpt>
      <trkpt lat="46.29408" lon="2.76416">
        <ele>429.87</ele>
        <time>2018-07-07T13:50:39.000Z</time>
      </trkpt>
      <trkpt lat="46.29398" lon="2.76405">
        <ele>429.75</ele>
        <time>2018-07-07T13:50:40.000Z</time>
      </trkpt>
      <trkpt lat="46.29388" lon="2.76392">
        <ele>429.7</ele>
        <time>2018-07-07T13:50:41.000Z</time>
      </trkpt>
      <trkpt lat="46.29379" lon="2.76379">
        <ele>429.45</ele>
        <time>2018-07-07T13:50:42.000Z</time>
      </trkpt>
      <trkpt lat="46.2937" lon="2.76364">
        <ele>429.41</ele>
        <time>2018-07-07T13:50:43.000Z</time>
      </trkpt>
      <trkpt lat="46.29361" lon="2.7635">
        <ele>429.38</ele>
        <time>2018-07-07T13:50:44.000Z</time>
      </trkpt>
      <trkpt lat="46.29353" lon="2.76335">
        <ele>429.09</ele>
        <time>2018-07-07T13:50:45.000Z</time>
      </trkpt>
      <trkpt lat="46.29346" lon="2.7632">
        <ele>428.45</ele>
        <time>2018-07-07T13:50:46.000Z</time>
      </trkpt>
      <trkpt lat="46.29339" lon="2.76303">
        <ele>427.75</ele>
        <time>2018-07-07T13:50:47.000Z</time>
      </trkpt>
      <trkpt lat="46.29333" lon="2.76286">
        <ele>427.07</ele>
        <time>2018-07-07T13:50:48.000Z</time>
      </trkpt>
      <trkpt lat="46.29326" lon="2.76269">
        <ele>426.31</ele>
        <time>2018-07-07T13:50:49.000Z</time>
      </trkpt>
      <trkpt lat="46.29319" lon="2.76253">
        <ele>425.57</ele>
        <time>2018-07-07T13:50:50.000Z</time>
      </trkpt>
      <trkpt lat="46.29313" lon="2.76236">
        <ele>424.76</ele>
        <time>2018-07-07T13:50:51.000Z</time>
      </trkpt>
      <trkpt lat="46.29306" lon="2.7622">
        <ele>423.97</ele>
        <time>2018-07-07T13:50:52.000Z</time>
      </trkpt>
      <trkpt lat="46.29299" lon="2.76204">
        <ele>423.29</ele>
        <time>2018-07-07T13:50:53.000Z</time>
      </trkpt>
      <trkpt lat="46.29292" lon="2.76188">
        <ele>422.86</ele>
        <time>2018-07-07T13:50:54.000Z</time>
      </trkpt>
      <trkpt lat="46.29285" lon="2.76172">
        <ele>422.23</ele>
        <time>2018-07-07T13:50:55.000Z</time>
      </trkpt>
      <trkpt lat="46.29277" lon="2.76155">
        <ele>421.62</ele>
        <time>2018-07-07T13:50:56.000Z</time>
      </trkpt>
      <trkpt lat="46.29269" lon="2.76139">
        <ele>420.78</ele>
        <time>2018-07-07T13:50:57.000Z</time>
      </trkpt>
      <trkpt lat="46.2926" lon="2.76124">
        <ele>419.46</ele>
        <time>2018-07-07T13:50:58.000Z</time>
      </trkpt>
      <trkpt lat="46.29251" lon="2.76111">
        <ele>418.54</ele>
        <time>2018-07-07T13:50:59.000Z</time>
      </trkpt>
      <trkpt lat="46.29241" lon="2.761">
        <ele>417.66</ele>
        <time>2018-07-07T13:51:00.000Z</time>
      </trkpt>
      <trkpt lat="46.29227" lon="2.76091">
        <ele>416.67</ele>
        <time>2018-07-07T13:51:01.000Z</time>
      </trkpt>
      <trkpt lat="46.29213" lon="2.76086">
        <ele>415.84</ele>
        <time>2018-07-07T13:51:02.000Z</time>
      </trkpt>
      <trkpt lat="46.29198" lon="2.76084">
        <ele>414.88</ele>
        <time>2018-07-07T13:51:03.000Z</time>
      </trkpt>
      <trkpt lat="46.29183" lon="2.76085">
        <ele>414.12</ele>
        <time>2018-07-07T13:51:04.000Z</time>
      </trkpt>
      <trkpt lat="46.29169" lon="2.76086">
        <ele>413.27</ele>
        <time>2018-07-07T13:51:05.000Z</time>
      </trkpt>
      <trkpt lat="46.29155" lon="2.76086">
        <ele>412.45</ele>
        <time>2018-07-07T13:51:06.000Z</time>
      </trkpt>
      <trkpt lat="46.29141" lon="2.76087">
        <ele>412.07</ele>
        <time>2018-07-07T13:51:07.000Z</time>
      </trkpt>
      <trkpt lat="46.29127" lon="2.76086">
        <ele>411.55</ele>
        <time>2018-07-07T13:51:08.000Z</time>
      </trkpt>
      <trkpt lat="46.29113" lon="2.76085">
        <ele>411.11</ele>
        <time>2018-07-07T13:51:09.000Z</time>
      </trkpt>
      <trkpt lat="46.291" lon="2.76083">
        <ele>410.7</ele>
        <time>2018-07-07T13:51:10.000Z</time>
      </trkpt>
      <trkpt lat="46.29087" lon="2.76079">
        <ele>410.31</ele>
        <time>2018-07-07T13:51:11.000Z</time>
      </trkpt>
      <trkpt lat="46.29076" lon="2.76074">
        <ele>410.04</ele>
        <time>2018-07-07T13:51:12.000Z</time>
      </trkpt>
      <trkpt lat="46.29065" lon="2.76065">
        <ele>409.79</ele>
        <time>2018-07-07T13:51:13.000Z</time>
      </trkpt>
      <trkpt lat="46.29044" lon="2.76044">
        <ele>409.53</ele>
        <time>2018-07-07T13:51:15.000Z</time>
      </trkpt>
      <trkpt lat="46.29034" lon="2.76034">
        <ele>409.36</ele>
        <time>2018-07-07T13:51:16.000Z</time>
      </trkpt>
      <trkpt lat="46.29024" lon="2.76026">
        <ele>409.13</ele>
        <time>2018-07-07T13:51:17.000Z</time>
      </trkpt>
      <trkpt lat="46.29014" lon="2.76018">
        <ele>409.07</ele>
        <time>2018-07-07T13:51:18.000Z</time>
      </trkpt>
      <trkpt lat="46.29003" lon="2.76011">
        <ele>408.66</ele>
        <time>2018-07-07T13:51:19.000Z</time>
      </trkpt>
      <trkpt lat="46.28992" lon="2.76004">
        <ele>408.1</ele>
        <time>2018-07-07T13:51:20.000Z</time>
      </trkpt>
      <trkpt lat="46.28981" lon="2.75995">
        <ele>407.76</ele>
        <time>2018-07-07T13:51:21.000Z</time>
      </trkpt>
      <trkpt lat="46.2897" lon="2.75987">
        <ele>407.33</ele>
        <time>2018-07-07T13:51:22.000Z</time>
      </trkpt>
      <trkpt lat="46.28959" lon="2.75978">
        <ele>406.57</ele>
        <time>2018-07-07T13:51:23.000Z</time>
      </trkpt>
      <trkpt lat="46.28949" lon="2.75968">
        <ele>405.5</ele>
        <time>2018-07-07T13:51:24.000Z</time>
      </trkpt>
      <trkpt lat="46.28941" lon="2.75958">
        <ele>404.28</ele>
        <time>2018-07-07T13:51:25.000Z</time>
      </trkpt>
      <trkpt lat="46.28933" lon="2.75947">
        <ele>402.85</ele>
        <time>2018-07-07T13:51:26.000Z</time>
      </trkpt>
      <trkpt lat="46.28925" lon="2.75934">
        <ele>401.54</ele>
        <time>2018-07-07T13:51:27.000Z</time>
      </trkpt>
      <trkpt lat="46.28919" lon="2.75921">
        <ele>400.19</ele>
        <time>2018-07-07T13:51:28.000Z</time>
      </trkpt>
      <trkpt lat="46.28913" lon="2.75907">
        <ele>399.27</ele>
        <time>2018-07-07T13:51:29.000Z</time>
      </trkpt>
      <trkpt lat="46.28908" lon="2.75892">
        <ele>398.45</ele>
        <time>2018-07-07T13:51:30.000Z</time>
      </trkpt>
      <trkpt lat="46.28904" lon="2.75877">
        <ele>397.9</ele>
        <time>2018-07-07T13:51:31.000Z</time>
      </trkpt>
      <trkpt lat="46.28901" lon="2.75862">
        <ele>397.69</ele>
        <time>2018-07-07T13:51:32.000Z</time>
      </trkpt>
      <trkpt lat="46.28898" lon="2.75847">
        <ele>397.64</ele>
        <time>2018-07-07T13:51:33.000Z</time>
      </trkpt>
      <trkpt lat="46.28896" lon="2.75832">
        <ele>397.18</ele>
        <time>2018-07-07T13:51:34.000Z</time>
      </trkpt>
      <trkpt lat="46.28894" lon="2.75818">
        <ele>396.94</ele>
        <time>2018-07-07T13:51:35.000Z</time>
      </trkpt>
      <trkpt lat="46.28892" lon="2.75803">
        <ele>396.83</ele>
        <time>2018-07-07T13:51:36.000Z</time>
      </trkpt>
      <trkpt lat="46.2889" lon="2.7579">
        <ele>396.64</ele>
        <time>2018-07-07T13:51:37.000Z</time>
      </trkpt>
      <trkpt lat="46.28888" lon="2.75777">
        <ele>396.31</ele>
        <time>2018-07-07T13:51:38.000Z</time>
      </trkpt>
      <trkpt lat="46.28885" lon="2.75752">
        <ele>396.33</ele>
        <time>2018-07-07T13:51:40.000Z</time>
      </trkpt>
      <trkpt lat="46.28881" lon="2.75728">
        <ele>396.19</ele>
        <time>2018-07-07T13:51:42.000Z</time>
      </trkpt>
      <trkpt lat="46.28877" lon="2.75705">
        <ele>396.04</ele>
        <time>2018-07-07T13:51:44.000Z</time>
      </trkpt>
      <trkpt lat="46.28871" lon="2.75686">
        <ele>395.99</ele>
        <time>2018-07-07T13:51:46.000Z</time>
      </trkpt>
      <trkpt lat="46.28866" lon="2.75668">
        <ele>395.48</ele>
        <time>2018-07-07T13:51:48.000Z</time>
      </trkpt>
      <trkpt lat="46.2886" lon="2.75653">
        <ele>394.95</ele>
        <time>2018-07-07T13:51:50.000Z</time>
      </trkpt>
      <trkpt lat="46.28854" lon="2.75639">
        <ele>394.42</ele>
        <time>2018-07-07T13:51:52.000Z</time>
      </trkpt>
      <trkpt lat="46.28849" lon="2.75626">
        <ele>394.21</ele>
        <time>2018-07-07T13:51:54.000Z</time>
      </trkpt>
      <trkpt lat="46.28844" lon="2.75611">
        <ele>394.29</ele>
        <time>2018-07-07T13:51:56.000Z</time>
      </trkpt>
      <trkpt lat="46.2884" lon="2.75594">
        <ele>394.35</ele>
        <time>2018-07-07T13:51:58.000Z</time>
      </trkpt>
      <trkpt lat="46.28838" lon="2.75577">
        <ele>394.49</ele>
        <time>2018-07-07T13:52:00.000Z</time>
      </trkpt>
      <trkpt lat="46.28837" lon="2.75561">
        <ele>394.25</ele>
        <time>2018-07-07T13:52:02.000Z</time>
      </trkpt>
      <trkpt lat="46.28836" lon="2.75546">
        <ele>394</ele>
        <time>2018-07-07T13:52:04.000Z</time>
      </trkpt>
      <trkpt lat="46.28838" lon="2.7553">
        <ele>393.98</ele>
        <time>2018-07-07T13:52:06.000Z</time>
      </trkpt>
      <trkpt lat="46.28841" lon="2.75516">
        <ele>394.06</ele>
        <time>2018-07-07T13:52:08.000Z</time>
      </trkpt>
      <trkpt lat="46.28846" lon="2.75501">
        <ele>394.25</ele>
        <time>2018-07-07T13:52:10.000Z</time>
      </trkpt>
      <trkpt lat="46.28846" lon="2.75487">
        <ele>394.53</ele>
        <time>2018-07-07T13:52:12.000Z</time>
      </trkpt>
      <trkpt lat="46.28841" lon="2.75473">
        <ele>394.8</ele>
        <time>2018-07-07T13:52:14.000Z</time>
      </trkpt>
      <trkpt lat="46.2883" lon="2.75464">
        <ele>395.06</ele>
        <time>2018-07-07T13:52:16.000Z</time>
      </trkpt>
      <trkpt lat="46.28816" lon="2.75459">
        <ele>395.28</ele>
        <time>2018-07-07T13:52:18.000Z</time>
      </trkpt>
      <trkpt lat="46.28802" lon="2.75458">
        <ele>395.24</ele>
        <time>2018-07-07T13:52:20.000Z</time>
      </trkpt>
      <trkpt lat="46.28786" lon="2.75465">
        <ele>395.43</ele>
        <time>2018-07-07T13:52:22.000Z</time>
      </trkpt>
      <trkpt lat="46.28777" lon="2.7547">
        <ele>395.55</ele>
        <time>2018-07-07T13:52:23.000Z</time>
      </trkpt>
      <trkpt lat="46.28762" lon="2.75479">
        <ele>395.77</ele>
        <time>2018-07-07T13:52:25.000Z</time>
      </trkpt>
      <trkpt lat="46.28751" lon="2.75482">
        <ele>396.17</ele>
        <time>2018-07-07T13:52:27.000Z</time>
      </trkpt>
      <trkpt lat="46.28742" lon="2.75472">
        <ele>396.02</ele>
        <time>2018-07-07T13:52:30.000Z</time>
      </trkpt>
      <trkpt lat="46.28738" lon="2.75454">
        <ele>396.48</ele>
        <time>2018-07-07T13:52:33.000Z</time>
      </trkpt>
      <trkpt lat="46.28732" lon="2.75442">
        <ele>397.25</ele>
        <time>2018-07-07T13:52:35.000Z</time>
      </trkpt>
      <trkpt lat="46.28722" lon="2.75431">
        <ele>397.71</ele>
        <time>2018-07-07T13:52:37.000Z</time>
      </trkpt>
      <trkpt lat="46.28714" lon="2.75423">
        <ele>397.79</ele>
        <time>2018-07-07T13:52:39.000Z</time>
      </trkpt>
      <trkpt lat="46.28707" lon="2.75415">
        <ele>398.32</ele>
        <time>2018-07-07T13:52:41.000Z</time>
      </trkpt>
      <trkpt lat="46.287" lon="2.75407">
        <ele>398.82</ele>
        <time>2018-07-07T13:52:43.000Z</time>
      </trkpt>
      <trkpt lat="46.28692" lon="2.75399">
        <ele>399.31</ele>
        <time>2018-07-07T13:52:45.000Z</time>
      </trkpt>
      <trkpt lat="46.28684" lon="2.7539">
        <ele>399.88</ele>
        <time>2018-07-07T13:52:47.000Z</time>
      </trkpt>
      <trkpt lat="46.28675" lon="2.7538">
        <ele>400.76</ele>
        <time>2018-07-07T13:52:49.000Z</time>
      </trkpt>
      <trkpt lat="46.28668" lon="2.7537">
        <ele>401.67</ele>
        <time>2018-07-07T13:52:51.000Z</time>
      </trkpt>
      <trkpt lat="46.28661" lon="2.75357">
        <ele>402.85</ele>
        <time>2018-07-07T13:52:54.000Z</time>
      </trkpt>
      <trkpt lat="46.28654" lon="2.75343">
        <ele>403.54</ele>
        <time>2018-07-07T13:52:57.000Z</time>
      </trkpt>
      <trkpt lat="46.2865" lon="2.75326">
        <ele>405.14</ele>
        <time>2018-07-07T13:53:00.000Z</time>
      </trkpt>
      <trkpt lat="46.2865" lon="2.75307">
        <ele>407.51</ele>
        <time>2018-07-07T13:53:03.000Z</time>
      </trkpt>
      <trkpt lat="46.2865" lon="2.75293">
        <ele>408.95</ele>
        <time>2018-07-07T13:53:05.000Z</time>
      </trkpt>
      <trkpt lat="46.2865" lon="2.75277">
        <ele>409.77</ele>
        <time>2018-07-07T13:53:07.000Z</time>
      </trkpt>
      <trkpt lat="46.2865" lon="2.75261">
        <ele>410.88</ele>
        <time>2018-07-07T13:53:09.000Z</time>
      </trkpt>
      <trkpt lat="46.2865" lon="2.75246">
        <ele>412.33</ele>
        <time>2018-07-07T13:53:11.000Z</time>
      </trkpt>
      <trkpt lat="46.28648" lon="2.75228">
        <ele>415.02</ele>
        <time>2018-07-07T13:53:14.000Z</time>
      </trkpt>
      <trkpt lat="46.28648" lon="2.75213">
        <ele>416.47</ele>
        <time>2018-07-07T13:53:16.000Z</time>
      </trkpt>
      <trkpt lat="46.28648" lon="2.75198">
        <ele>417.49</ele>
        <time>2018-07-07T13:53:18.000Z</time>
      </trkpt>
      <trkpt lat="46.28647" lon="2.75183">
        <ele>418.43</ele>
        <time>2018-07-07T13:53:20.000Z</time>
      </trkpt>
      <trkpt lat="46.28644" lon="2.75168">
        <ele>419.18</ele>
        <time>2018-07-07T13:53:22.000Z</time>
      </trkpt>
      <trkpt lat="46.28643" lon="2.75152">
        <ele>419.95</ele>
        <time>2018-07-07T13:53:24.000Z</time>
      </trkpt>
      <trkpt lat="46.28641" lon="2.75135">
        <ele>420.75</ele>
        <time>2018-07-07T13:53:26.000Z</time>
      </trkpt>
      <trkpt lat="46.2864" lon="2.75118">
        <ele>421.6</ele>
        <time>2018-07-07T13:53:28.000Z</time>
      </trkpt>
      <trkpt lat="46.28637" lon="2.75103">
        <ele>422.17</ele>
        <time>2018-07-07T13:53:30.000Z</time>
      </trkpt>
      <trkpt lat="46.28634" lon="2.75084">
        <ele>422.66</ele>
        <time>2018-07-07T13:53:32.000Z</time>
      </trkpt>
      <trkpt lat="46.28632" lon="2.75066">
        <ele>423.63</ele>
        <time>2018-07-07T13:53:34.000Z</time>
      </trkpt>
      <trkpt lat="46.28629" lon="2.7505">
        <ele>424.77</ele>
        <time>2018-07-07T13:53:36.000Z</time>
      </trkpt>
      <trkpt lat="46.28627" lon="2.75033">
        <ele>425.35</ele>
        <time>2018-07-07T13:53:38.000Z</time>
      </trkpt>
      <trkpt lat="46.28624" lon="2.75017">
        <ele>425.53</ele>
        <time>2018-07-07T13:53:40.000Z</time>
      </trkpt>
      <trkpt lat="46.28619" lon="2.75002">
        <ele>425.99</ele>
        <time>2018-07-07T13:53:42.000Z</time>
      </trkpt>
      <trkpt lat="46.28616" lon="2.74984">
        <ele>426.01</ele>
        <time>2018-07-07T13:53:44.000Z</time>
      </trkpt>
      <trkpt lat="46.28614" lon="2.74966">
        <ele>426.3</ele>
        <time>2018-07-07T13:53:46.000Z</time>
      </trkpt>
      <trkpt lat="46.28613" lon="2.74949">
        <ele>426.75</ele>
        <time>2018-07-07T13:53:48.000Z</time>
      </trkpt>
      <trkpt lat="46.28611" lon="2.74929">
        <ele>427.12</ele>
        <time>2018-07-07T13:53:50.000Z</time>
      </trkpt>
      <trkpt lat="46.28608" lon="2.74908">
        <ele>427.15</ele>
        <time>2018-07-07T13:53:52.000Z</time>
      </trkpt>
      <trkpt lat="46.28605" lon="2.74887">
        <ele>427.2</ele>
        <time>2018-07-07T13:53:54.000Z</time>
      </trkpt>
      <trkpt lat="46.28602" lon="2.74867">
        <ele>427.5</ele>
        <time>2018-07-07T13:53:56.000Z</time>
      </trkpt>
      <trkpt lat="46.286" lon="2.74845">
        <ele>427.94</ele>
        <time>2018-07-07T13:53:58.000Z</time>
      </trkpt>
      <trkpt lat="46.28598" lon="2.74824">
        <ele>428.38</ele>
        <time>2018-07-07T13:54:00.000Z</time>
      </trkpt>
      <trkpt lat="46.28593" lon="2.74804">
        <ele>428.95</ele>
        <time>2018-07-07T13:54:02.000Z</time>
      </trkpt>
      <trkpt lat="46.28589" lon="2.74784">
        <ele>429.64</ele>
        <time>2018-07-07T13:54:04.000Z</time>
      </trkpt>
      <trkpt lat="46.28585" lon="2.74764">
        <ele>430.39</ele>
        <time>2018-07-07T13:54:06.000Z</time>
      </trkpt>
      <trkpt lat="46.28581" lon="2.74743">
        <ele>431.08</ele>
        <time>2018-07-07T13:54:08.000Z</time>
      </trkpt>
      <trkpt lat="46.28577" lon="2.74722">
        <ele>431.94</ele>
        <time>2018-07-07T13:54:10.000Z</time>
      </trkpt>
      <trkpt lat="46.28574" lon="2.74701">
        <ele>432.49</ele>
        <time>2018-07-07T13:54:12.000Z</time>
      </trkpt>
      <trkpt lat="46.2857" lon="2.7468">
        <ele>432.72</ele>
        <time>2018-07-07T13:54:14.000Z</time>
      </trkpt>
      <trkpt lat="46.28568" lon="2.74658">
        <ele>433.04</ele>
        <time>2018-07-07T13:54:16.000Z</time>
      </trkpt>
      <trkpt lat="46.28566" lon="2.74636">
        <ele>433.14</ele>
        <time>2018-07-07T13:54:18.000Z</time>
      </trkpt>
      <trkpt lat="46.28564" lon="2.74617">
        <ele>433.4</ele>
        <time>2018-07-07T13:54:20.000Z</time>
      </trkpt>
      <trkpt lat="46.28567" lon="2.74596">
        <ele>433.67</ele>
        <time>2018-07-07T13:54:22.000Z</time>
      </trkpt>
      <trkpt lat="46.28571" lon="2.74574">
        <ele>434.46</ele>
        <time>2018-07-07T13:54:24.000Z</time>
      </trkpt>
      <trkpt lat="46.28575" lon="2.74551">
        <ele>435.29</ele>
        <time>2018-07-07T13:54:26.000Z</time>
      </trkpt>
      <trkpt lat="46.28574" lon="2.7453">
        <ele>435.54</ele>
        <time>2018-07-07T13:54:28.000Z</time>
      </trkpt>
      <trkpt lat="46.28572" lon="2.74509">
        <ele>436.09</ele>
        <time>2018-07-07T13:54:30.000Z</time>
      </trkpt>
      <trkpt lat="46.2857" lon="2.74486">
        <ele>436.31</ele>
        <time>2018-07-07T13:54:32.000Z</time>
      </trkpt>
      <trkpt lat="46.28562" lon="2.7447">
        <ele>436.81</ele>
        <time>2018-07-07T13:54:34.000Z</time>
      </trkpt>
      <trkpt lat="46.28546" lon="2.74458">
        <ele>437.25</ele>
        <time>2018-07-07T13:54:36.000Z</time>
      </trkpt>
      <trkpt lat="46.28534" lon="2.74442">
        <ele>437.88</ele>
        <time>2018-07-07T13:54:38.000Z</time>
      </trkpt>
      <trkpt lat="46.28528" lon="2.7442">
        <ele>438.27</ele>
        <time>2018-07-07T13:54:40.000Z</time>
      </trkpt>
      <trkpt lat="46.28526" lon="2.74407">
        <ele>438.63</ele>
        <time>2018-07-07T13:54:41.000Z</time>
      </trkpt>
      <trkpt lat="46.28525" lon="2.74393">
        <ele>438.96</ele>
        <time>2018-07-07T13:54:42.000Z</time>
      </trkpt>
      <trkpt lat="46.28524" lon="2.74377">
        <ele>439.2</ele>
        <time>2018-07-07T13:54:43.000Z</time>
      </trkpt>
      <trkpt lat="46.28523" lon="2.74364">
        <ele>439.49</ele>
        <time>2018-07-07T13:54:44.000Z</time>
      </trkpt>
      <trkpt lat="46.2852" lon="2.74349">
        <ele>439.76</ele>
        <time>2018-07-07T13:54:45.000Z</time>
      </trkpt>
      <trkpt lat="46.28516" lon="2.74334">
        <ele>439.96</ele>
        <time>2018-07-07T13:54:46.000Z</time>
      </trkpt>
      <trkpt lat="46.28513" lon="2.7432">
        <ele>440.3</ele>
        <time>2018-07-07T13:54:47.000Z</time>
      </trkpt>
      <trkpt lat="46.2851" lon="2.74304">
        <ele>440.59</ele>
        <time>2018-07-07T13:54:48.000Z</time>
      </trkpt>
      <trkpt lat="46.28507" lon="2.7429">
        <ele>440.96</ele>
        <time>2018-07-07T13:54:49.000Z</time>
      </trkpt>
      <trkpt lat="46.28502" lon="2.74275">
        <ele>441.38</ele>
        <time>2018-07-07T13:54:50.000Z</time>
      </trkpt>
      <trkpt lat="46.28497" lon="2.74262">
        <ele>441.55</ele>
        <time>2018-07-07T13:54:51.000Z</time>
      </trkpt>
      <trkpt lat="46.28493" lon="2.7425">
        <ele>441.63</ele>
        <time>2018-07-07T13:54:52.000Z</time>
      </trkpt>
      <trkpt lat="46.28488" lon="2.74238">
        <ele>441.78</ele>
        <time>2018-07-07T13:54:53.000Z</time>
      </trkpt>
      <trkpt lat="46.28481" lon="2.74226">
        <ele>441.75</ele>
        <time>2018-07-07T13:54:54.000Z</time>
      </trkpt>
      <trkpt lat="46.28473" lon="2.74216">
        <ele>441.74</ele>
        <time>2018-07-07T13:54:55.000Z</time>
      </trkpt>
      <trkpt lat="46.28465" lon="2.74206">
        <ele>441.91</ele>
        <time>2018-07-07T13:54:56.000Z</time>
      </trkpt>
      <trkpt lat="46.28457" lon="2.74196">
        <ele>441.84</ele>
        <time>2018-07-07T13:54:57.000Z</time>
      </trkpt>
      <trkpt lat="46.2845" lon="2.74186">
        <ele>441.99</ele>
        <time>2018-07-07T13:54:58.000Z</time>
      </trkpt>
      <trkpt lat="46.28442" lon="2.74178">
        <ele>442.33</ele>
        <time>2018-07-07T13:54:59.000Z</time>
      </trkpt>
      <trkpt lat="46.28433" lon="2.74171">
        <ele>442.5</ele>
        <time>2018-07-07T13:55:00.000Z</time>
      </trkpt>
      <trkpt lat="46.28424" lon="2.74165">
        <ele>442.81</ele>
        <time>2018-07-07T13:55:01.000Z</time>
      </trkpt>
      <trkpt lat="46.28415" lon="2.74158">
        <ele>443.03</ele>
        <time>2018-07-07T13:55:02.000Z</time>
      </trkpt>
      <trkpt lat="46.28405" lon="2.74151">
        <ele>443.31</ele>
        <time>2018-07-07T13:55:03.000Z</time>
      </trkpt>
      <trkpt lat="46.28396" lon="2.74144">
        <ele>443.47</ele>
        <time>2018-07-07T13:55:04.000Z</time>
      </trkpt>
      <trkpt lat="46.28387" lon="2.74137">
        <ele>443.52</ele>
        <time>2018-07-07T13:55:05.000Z</time>
      </trkpt>
      <trkpt lat="46.28376" lon="2.74131">
        <ele>443.4</ele>
        <time>2018-07-07T13:55:06.000Z</time>
      </trkpt>
      <trkpt lat="46.28365" lon="2.74125">
        <ele>443.12</ele>
        <time>2018-07-07T13:55:07.000Z</time>
      </trkpt>
      <trkpt lat="46.28355" lon="2.74119">
        <ele>442.78</ele>
        <time>2018-07-07T13:55:08.000Z</time>
      </trkpt>
      <trkpt lat="46.28346" lon="2.74113">
        <ele>442.82</ele>
        <time>2018-07-07T13:55:09.000Z</time>
      </trkpt>
      <trkpt lat="46.28335" lon="2.74109">
        <ele>442.9</ele>
        <time>2018-07-07T13:55:10.000Z</time>
      </trkpt>
      <trkpt lat="46.28326" lon="2.74106">
        <ele>442.93</ele>
        <time>2018-07-07T13:55:11.000Z</time>
      </trkpt>
      <trkpt lat="46.28317" lon="2.74105">
        <ele>443.14</ele>
        <time>2018-07-07T13:55:12.000Z</time>
      </trkpt>
      <trkpt lat="46.28308" lon="2.74106">
        <ele>443.3</ele>
        <time>2018-07-07T13:55:13.000Z</time>
      </trkpt>
      <trkpt lat="46.28293" lon="2.74114">
        <ele>443.43</ele>
        <time>2018-07-07T13:55:15.000Z</time>
      </trkpt>
      <trkpt lat="46.28275" lon="2.74122">
        <ele>443.27</ele>
        <time>2018-07-07T13:55:17.000Z</time>
      </trkpt>
      <trkpt lat="46.28265" lon="2.74126">
        <ele>442.99</ele>
        <time>2018-07-07T13:55:18.000Z</time>
      </trkpt>
      <trkpt lat="46.28256" lon="2.74128">
        <ele>442.54</ele>
        <time>2018-07-07T13:55:19.000Z</time>
      </trkpt>
      <trkpt lat="46.2824" lon="2.74132">
        <ele>441.29</ele>
        <time>2018-07-07T13:55:21.000Z</time>
      </trkpt>
      <trkpt lat="46.28224" lon="2.74137">
        <ele>440.35</ele>
        <time>2018-07-07T13:55:23.000Z</time>
      </trkpt>
      <trkpt lat="46.28207" lon="2.74141">
        <ele>439.08</ele>
        <time>2018-07-07T13:55:25.000Z</time>
      </trkpt>
      <trkpt lat="46.28198" lon="2.74144">
        <ele>438.29</ele>
        <time>2018-07-07T13:55:26.000Z</time>
      </trkpt>
      <trkpt lat="46.28189" lon="2.74146">
        <ele>437.56</ele>
        <time>2018-07-07T13:55:27.000Z</time>
      </trkpt>
      <trkpt lat="46.28172" lon="2.74152">
        <ele>435.67</ele>
        <time>2018-07-07T13:55:29.000Z</time>
      </trkpt>
      <trkpt lat="46.28156" lon="2.74157">
        <ele>434.7</ele>
        <time>2018-07-07T13:55:31.000Z</time>
      </trkpt>
      <trkpt lat="46.2814" lon="2.74164">
        <ele>434.28</ele>
        <time>2018-07-07T13:55:33.000Z</time>
      </trkpt>
      <trkpt lat="46.28124" lon="2.74171">
        <ele>433.98</ele>
        <time>2018-07-07T13:55:35.000Z</time>
      </trkpt>
      <trkpt lat="46.2811" lon="2.74177">
        <ele>433.57</ele>
        <time>2018-07-07T13:55:37.000Z</time>
      </trkpt>
      <trkpt lat="46.28096" lon="2.74183">
        <ele>433.36</ele>
        <time>2018-07-07T13:55:39.000Z</time>
      </trkpt>
      <trkpt lat="46.28081" lon="2.74187">
        <ele>433.5</ele>
        <time>2018-07-07T13:55:41.000Z</time>
      </trkpt>
      <trkpt lat="46.28066" lon="2.74192">
        <ele>433.77</ele>
        <time>2018-07-07T13:55:43.000Z</time>
      </trkpt>
      <trkpt lat="46.28053" lon="2.74197">
        <ele>434.31</ele>
        <time>2018-07-07T13:55:45.000Z</time>
      </trkpt>
      <trkpt lat="46.28039" lon="2.74202">
        <ele>434.49</ele>
        <time>2018-07-07T13:55:47.000Z</time>
      </trkpt>
      <trkpt lat="46.28024" lon="2.74207">
        <ele>434.69</ele>
        <time>2018-07-07T13:55:49.000Z</time>
      </trkpt>
      <trkpt lat="46.28011" lon="2.74211">
        <ele>435.29</ele>
        <time>2018-07-07T13:55:51.000Z</time>
      </trkpt>
      <trkpt lat="46.28" lon="2.74215">
        <ele>435.93</ele>
        <time>2018-07-07T13:55:53.000Z</time>
      </trkpt>
      <trkpt lat="46.27989" lon="2.7422">
        <ele>436.13</ele>
        <time>2018-07-07T13:55:55.000Z</time>
      </trkpt>
      <trkpt lat="46.27978" lon="2.74223">
        <ele>436.14</ele>
        <time>2018-07-07T13:55:57.000Z</time>
      </trkpt>
      <trkpt lat="46.27968" lon="2.74228">
        <ele>435.95</ele>
        <time>2018-07-07T13:55:59.000Z</time>
      </trkpt>
      <trkpt lat="46.27958" lon="2.74231">
        <ele>435.96</ele>
        <time>2018-07-07T13:56:01.000Z</time>
      </trkpt>
      <trkpt lat="46.27947" lon="2.74234">
        <ele>436.29</ele>
        <time>2018-07-07T13:56:03.000Z</time>
      </trkpt>
      <trkpt lat="46.27936" lon="2.74237">
        <ele>436.8</ele>
        <time>2018-07-07T13:56:05.000Z</time>
      </trkpt>
      <trkpt lat="46.27927" lon="2.74241">
        <ele>437.29</ele>
        <time>2018-07-07T13:56:07.000Z</time>
      </trkpt>
      <trkpt lat="46.27916" lon="2.74244">
        <ele>437.88</ele>
        <time>2018-07-07T13:56:09.000Z</time>
      </trkpt>
      <trkpt lat="46.27905" lon="2.74247">
        <ele>438.48</ele>
        <time>2018-07-07T13:56:11.000Z</time>
      </trkpt>
      <trkpt lat="46.27895" lon="2.74251">
        <ele>438.63</ele>
        <time>2018-07-07T13:56:13.000Z</time>
      </trkpt>
      <trkpt lat="46.27885" lon="2.74255">
        <ele>438.78</ele>
        <time>2018-07-07T13:56:15.000Z</time>
      </trkpt>
      <trkpt lat="46.27876" lon="2.74259">
        <ele>439.1</ele>
        <time>2018-07-07T13:56:17.000Z</time>
      </trkpt>
      <trkpt lat="46.27865" lon="2.74264">
        <ele>439.44</ele>
        <time>2018-07-07T13:56:20.000Z</time>
      </trkpt>
      <trkpt lat="46.27855" lon="2.74271">
        <ele>439.82</ele>
        <time>2018-07-07T13:56:23.000Z</time>
      </trkpt>
      <trkpt lat="46.27845" lon="2.74276">
        <ele>440.35</ele>
        <time>2018-07-07T13:56:26.000Z</time>
      </trkpt>
      <trkpt lat="46.27833" lon="2.74279">
        <ele>440.75</ele>
        <time>2018-07-07T13:56:29.000Z</time>
      </trkpt>
      <trkpt lat="46.27824" lon="2.7428">
        <ele>441.17</ele>
        <time>2018-07-07T13:56:31.000Z</time>
      </trkpt>
      <trkpt lat="46.27811" lon="2.74284">
        <ele>442.06</ele>
        <time>2018-07-07T13:56:34.000Z</time>
      </trkpt>
      <trkpt lat="46.27801" lon="2.74288">
        <ele>442.8</ele>
        <time>2018-07-07T13:56:36.000Z</time>
      </trkpt>
      <trkpt lat="46.27792" lon="2.7429">
        <ele>443.43</ele>
        <time>2018-07-07T13:56:38.000Z</time>
      </trkpt>
      <trkpt lat="46.27781" lon="2.74292">
        <ele>443.6</ele>
        <time>2018-07-07T13:56:40.000Z</time>
      </trkpt>
      <trkpt lat="46.2777" lon="2.74304">
        <ele>444.46</ele>
        <time>2018-07-07T13:56:43.000Z</time>
      </trkpt>
      <trkpt lat="46.27762" lon="2.74314">
        <ele>445.42</ele>
        <time>2018-07-07T13:56:45.000Z</time>
      </trkpt>
      <trkpt lat="46.27755" lon="2.74326">
        <ele>446.72</ele>
        <time>2018-07-07T13:56:47.000Z</time>
      </trkpt>
      <trkpt lat="46.27748" lon="2.74342">
        <ele>449.81</ele>
        <time>2018-07-07T13:56:50.000Z</time>
      </trkpt>
      <trkpt lat="46.27739" lon="2.74352">
        <ele>450.66</ele>
        <time>2018-07-07T13:56:52.000Z</time>
      </trkpt>
      <trkpt lat="46.27731" lon="2.74362">
        <ele>450.72</ele>
        <time>2018-07-07T13:56:54.000Z</time>
      </trkpt>
      <trkpt lat="46.27723" lon="2.74372">
        <ele>451</ele>
        <time>2018-07-07T13:56:56.000Z</time>
      </trkpt>
      <trkpt lat="46.27716" lon="2.74385">
        <ele>451.05</ele>
        <time>2018-07-07T13:56:58.000Z</time>
      </trkpt>
      <trkpt lat="46.27708" lon="2.74399">
        <ele>450.75</ele>
        <time>2018-07-07T13:57:00.000Z</time>
      </trkpt>
      <trkpt lat="46.277" lon="2.74411">
        <ele>450.85</ele>
        <time>2018-07-07T13:57:02.000Z</time>
      </trkpt>
      <trkpt lat="46.27692" lon="2.74424">
        <ele>451.1</ele>
        <time>2018-07-07T13:57:04.000Z</time>
      </trkpt>
      <trkpt lat="46.27685" lon="2.74438">
        <ele>451.36</ele>
        <time>2018-07-07T13:57:06.000Z</time>
      </trkpt>
      <trkpt lat="46.27678" lon="2.74453">
        <ele>451.77</ele>
        <time>2018-07-07T13:57:08.000Z</time>
      </trkpt>
      <trkpt lat="46.27671" lon="2.74469">
        <ele>451.51</ele>
        <time>2018-07-07T13:57:10.000Z</time>
      </trkpt>
      <trkpt lat="46.27663" lon="2.74486">
        <ele>451.01</ele>
        <time>2018-07-07T13:57:12.000Z</time>
      </trkpt>
      <trkpt lat="46.27656" lon="2.74504">
        <ele>450.68</ele>
        <time>2018-07-07T13:57:14.000Z</time>
      </trkpt>
      <trkpt lat="46.27645" lon="2.74519">
        <ele>450.48</ele>
        <time>2018-07-07T13:57:16.000Z</time>
      </trkpt>
      <trkpt lat="46.2763" lon="2.74529">
        <ele>449.9</ele>
        <time>2018-07-07T13:57:18.000Z</time>
      </trkpt>
      <trkpt lat="46.27615" lon="2.74535">
        <ele>449.89</ele>
        <time>2018-07-07T13:57:20.000Z</time>
      </trkpt>
      <trkpt lat="46.27599" lon="2.74535">
        <ele>450</ele>
        <time>2018-07-07T13:57:22.000Z</time>
      </trkpt>
      <trkpt lat="46.27582" lon="2.74533">
        <ele>449.97</ele>
        <time>2018-07-07T13:57:24.000Z</time>
      </trkpt>
      <trkpt lat="46.27572" lon="2.74532">
        <ele>449.9</ele>
        <time>2018-07-07T13:57:25.000Z</time>
      </trkpt>
      <trkpt lat="46.2756" lon="2.7453">
        <ele>449.62</ele>
        <time>2018-07-07T13:57:26.000Z</time>
      </trkpt>
      <trkpt lat="46.27549" lon="2.74529">
        <ele>449.49</ele>
        <time>2018-07-07T13:57:27.000Z</time>
      </trkpt>
      <trkpt lat="46.2754" lon="2.74527">
        <ele>449.38</ele>
        <time>2018-07-07T13:57:28.000Z</time>
      </trkpt>
      <trkpt lat="46.27529" lon="2.74525">
        <ele>449.51</ele>
        <time>2018-07-07T13:57:29.000Z</time>
      </trkpt>
      <trkpt lat="46.27517" lon="2.74523">
        <ele>449.38</ele>
        <time>2018-07-07T13:57:30.000Z</time>
      </trkpt>
      <trkpt lat="46.27506" lon="2.74521">
        <ele>449.38</ele>
        <time>2018-07-07T13:57:31.000Z</time>
      </trkpt>
      <trkpt lat="46.27494" lon="2.7452">
        <ele>449.33</ele>
        <time>2018-07-07T13:57:32.000Z</time>
      </trkpt>
      <trkpt lat="46.27483" lon="2.74519">
        <ele>448.8</ele>
        <time>2018-07-07T13:57:33.000Z</time>
      </trkpt>
      <trkpt lat="46.27472" lon="2.74517">
        <ele>448.38</ele>
        <time>2018-07-07T13:57:34.000Z</time>
      </trkpt>
      <trkpt lat="46.2746" lon="2.74517">
        <ele>448.45</ele>
        <time>2018-07-07T13:57:35.000Z</time>
      </trkpt>
      <trkpt lat="46.27448" lon="2.74516">
        <ele>448.43</ele>
        <time>2018-07-07T13:57:36.000Z</time>
      </trkpt>
      <trkpt lat="46.27436" lon="2.74514">
        <ele>448.44</ele>
        <time>2018-07-07T13:57:37.000Z</time>
      </trkpt>
      <trkpt lat="46.27425" lon="2.74513">
        <ele>448.39</ele>
        <time>2018-07-07T13:57:38.000Z</time>
      </trkpt>
      <trkpt lat="46.27413" lon="2.74511">
        <ele>448.46</ele>
        <time>2018-07-07T13:57:39.000Z</time>
      </trkpt>
      <trkpt lat="46.27403" lon="2.7451">
        <ele>448.8</ele>
        <time>2018-07-07T13:57:40.000Z</time>
      </trkpt>
      <trkpt lat="46.27393" lon="2.74508">
        <ele>449.14</ele>
        <time>2018-07-07T13:57:41.000Z</time>
      </trkpt>
      <trkpt lat="46.27376" lon="2.74503">
        <ele>449.5</ele>
        <time>2018-07-07T13:57:43.000Z</time>
      </trkpt>
      <trkpt lat="46.27367" lon="2.74502">
        <ele>449.59</ele>
        <time>2018-07-07T13:57:44.000Z</time>
      </trkpt>
      <trkpt lat="46.27353" lon="2.74506">
        <ele>450.84</ele>
        <time>2018-07-07T13:57:46.000Z</time>
      </trkpt>
      <trkpt lat="46.27338" lon="2.74514">
        <ele>451.44</ele>
        <time>2018-07-07T13:57:48.000Z</time>
      </trkpt>
      <trkpt lat="46.27327" lon="2.74526">
        <ele>451.12</ele>
        <time>2018-07-07T13:57:50.000Z</time>
      </trkpt>
      <trkpt lat="46.27315" lon="2.74536">
        <ele>449.73</ele>
        <time>2018-07-07T13:57:52.000Z</time>
      </trkpt>
      <trkpt lat="46.27305" lon="2.74543">
        <ele>448.86</ele>
        <time>2018-07-07T13:57:54.000Z</time>
      </trkpt>
      <trkpt lat="46.27293" lon="2.7455">
        <ele>448.07</ele>
        <time>2018-07-07T13:57:56.000Z</time>
      </trkpt>
      <trkpt lat="46.27282" lon="2.74556">
        <ele>447.47</ele>
        <time>2018-07-07T13:57:58.000Z</time>
      </trkpt>
      <trkpt lat="46.27271" lon="2.74562">
        <ele>447.02</ele>
        <time>2018-07-07T13:58:00.000Z</time>
      </trkpt>
      <trkpt lat="46.2726" lon="2.74568">
        <ele>446.89</ele>
        <time>2018-07-07T13:58:02.000Z</time>
      </trkpt>
      <trkpt lat="46.27249" lon="2.74573">
        <ele>447.24</ele>
        <time>2018-07-07T13:58:04.000Z</time>
      </trkpt>
      <trkpt lat="46.27238" lon="2.74577">
        <ele>447.31</ele>
        <time>2018-07-07T13:58:06.000Z</time>
      </trkpt>
      <trkpt lat="46.27227" lon="2.74582">
        <ele>447.27</ele>
        <time>2018-07-07T13:58:08.000Z</time>
      </trkpt>
      <trkpt lat="46.27214" lon="2.74588">
        <ele>447.29</ele>
        <time>2018-07-07T13:58:10.000Z</time>
      </trkpt>
      <trkpt lat="46.27201" lon="2.74592">
        <ele>447.17</ele>
        <time>2018-07-07T13:58:12.000Z</time>
      </trkpt>
      <trkpt lat="46.27187" lon="2.74597">
        <ele>446.89</ele>
        <time>2018-07-07T13:58:14.000Z</time>
      </trkpt>
      <trkpt lat="46.27171" lon="2.74603">
        <ele>446.55</ele>
        <time>2018-07-07T13:58:16.000Z</time>
      </trkpt>
      <trkpt lat="46.27157" lon="2.7461">
        <ele>446.61</ele>
        <time>2018-07-07T13:58:18.000Z</time>
      </trkpt>
      <trkpt lat="46.27142" lon="2.74619">
        <ele>446.19</ele>
        <time>2018-07-07T13:58:20.000Z</time>
      </trkpt>
      <trkpt lat="46.27133" lon="2.74624">
        <ele>445.87</ele>
        <time>2018-07-07T13:58:21.000Z</time>
      </trkpt>
      <trkpt lat="46.27124" lon="2.7463">
        <ele>445.6</ele>
        <time>2018-07-07T13:58:22.000Z</time>
      </trkpt>
      <trkpt lat="46.27116" lon="2.74635">
        <ele>445.33</ele>
        <time>2018-07-07T13:58:23.000Z</time>
      </trkpt>
      <trkpt lat="46.27107" lon="2.74641">
        <ele>445.04</ele>
        <time>2018-07-07T13:58:24.000Z</time>
      </trkpt>
      <trkpt lat="46.27098" lon="2.74647">
        <ele>444.8</ele>
        <time>2018-07-07T13:58:25.000Z</time>
      </trkpt>
      <trkpt lat="46.27089" lon="2.74653">
        <ele>444.56</ele>
        <time>2018-07-07T13:58:26.000Z</time>
      </trkpt>
      <trkpt lat="46.27079" lon="2.74659">
        <ele>444.26</ele>
        <time>2018-07-07T13:58:27.000Z</time>
      </trkpt>
      <trkpt lat="46.2707" lon="2.74665">
        <ele>444.03</ele>
        <time>2018-07-07T13:58:28.000Z</time>
      </trkpt>
      <trkpt lat="46.2706" lon="2.74672">
        <ele>443.67</ele>
        <time>2018-07-07T13:58:29.000Z</time>
      </trkpt>
      <trkpt lat="46.2705" lon="2.74678">
        <ele>443.07</ele>
        <time>2018-07-07T13:58:30.000Z</time>
      </trkpt>
      <trkpt lat="46.27041" lon="2.74684">
        <ele>442.35</ele>
        <time>2018-07-07T13:58:31.000Z</time>
      </trkpt>
      <trkpt lat="46.27031" lon="2.74691">
        <ele>441.03</ele>
        <time>2018-07-07T13:58:32.000Z</time>
      </trkpt>
      <trkpt lat="46.2702" lon="2.74697">
        <ele>440.57</ele>
        <time>2018-07-07T13:58:33.000Z</time>
      </trkpt>
      <trkpt lat="46.2701" lon="2.747">
        <ele>440.31</ele>
        <time>2018-07-07T13:58:34.000Z</time>
      </trkpt>
      <trkpt lat="46.27" lon="2.74701">
        <ele>439.73</ele>
        <time>2018-07-07T13:58:35.000Z</time>
      </trkpt>
      <trkpt lat="46.26985" lon="2.74686">
        <ele>438.66</ele>
        <time>2018-07-07T13:58:37.000Z</time>
      </trkpt>
      <trkpt lat="46.26978" lon="2.74674">
        <ele>438.01</ele>
        <time>2018-07-07T13:58:38.000Z</time>
      </trkpt>
      <trkpt lat="46.26971" lon="2.7466">
        <ele>437.41</ele>
        <time>2018-07-07T13:58:39.000Z</time>
      </trkpt>
      <trkpt lat="46.26966" lon="2.74645">
        <ele>437.04</ele>
        <time>2018-07-07T13:58:40.000Z</time>
      </trkpt>
      <trkpt lat="46.2696" lon="2.7463">
        <ele>436.63</ele>
        <time>2018-07-07T13:58:41.000Z</time>
      </trkpt>
      <trkpt lat="46.26954" lon="2.74616">
        <ele>436.34</ele>
        <time>2018-07-07T13:58:42.000Z</time>
      </trkpt>
      <trkpt lat="46.26948" lon="2.74602">
        <ele>436.11</ele>
        <time>2018-07-07T13:58:43.000Z</time>
      </trkpt>
      <trkpt lat="46.2694" lon="2.7459">
        <ele>435.78</ele>
        <time>2018-07-07T13:58:44.000Z</time>
      </trkpt>
      <trkpt lat="46.26931" lon="2.7458">
        <ele>435.11</ele>
        <time>2018-07-07T13:58:45.000Z</time>
      </trkpt>
      <trkpt lat="46.2692" lon="2.74573">
        <ele>434.86</ele>
        <time>2018-07-07T13:58:46.000Z</time>
      </trkpt>
      <trkpt lat="46.2691" lon="2.74566">
        <ele>434.84</ele>
        <time>2018-07-07T13:58:47.000Z</time>
      </trkpt>
      <trkpt lat="46.26899" lon="2.74559">
        <ele>434.97</ele>
        <time>2018-07-07T13:58:48.000Z</time>
      </trkpt>
      <trkpt lat="46.2689" lon="2.74553">
        <ele>435.09</ele>
        <time>2018-07-07T13:58:49.000Z</time>
      </trkpt>
      <trkpt lat="46.2688" lon="2.74548">
        <ele>435.2</ele>
        <time>2018-07-07T13:58:50.000Z</time>
      </trkpt>
      <trkpt lat="46.26868" lon="2.74544">
        <ele>435.12</ele>
        <time>2018-07-07T13:58:51.000Z</time>
      </trkpt>
      <trkpt lat="46.26856" lon="2.74543">
        <ele>434.82</ele>
        <time>2018-07-07T13:58:52.000Z</time>
      </trkpt>
      <trkpt lat="46.26844" lon="2.74546">
        <ele>434.68</ele>
        <time>2018-07-07T13:58:53.000Z</time>
      </trkpt>
      <trkpt lat="46.26833" lon="2.74552">
        <ele>434.55</ele>
        <time>2018-07-07T13:58:54.000Z</time>
      </trkpt>
      <trkpt lat="46.26823" lon="2.74559">
        <ele>434.13</ele>
        <time>2018-07-07T13:58:55.000Z</time>
      </trkpt>
      <trkpt lat="46.26814" lon="2.74566">
        <ele>433.47</ele>
        <time>2018-07-07T13:58:56.000Z</time>
      </trkpt>
      <trkpt lat="46.26805" lon="2.74573">
        <ele>432.58</ele>
        <time>2018-07-07T13:58:57.000Z</time>
      </trkpt>
      <trkpt lat="46.26797" lon="2.74578">
        <ele>432.39</ele>
        <time>2018-07-07T13:58:58.000Z</time>
      </trkpt>
      <trkpt lat="46.26781" lon="2.74589">
        <ele>431.91</ele>
        <time>2018-07-07T13:59:00.000Z</time>
      </trkpt>
      <trkpt lat="46.26772" lon="2.74594">
        <ele>430.63</ele>
        <time>2018-07-07T13:59:01.000Z</time>
      </trkpt>
      <trkpt lat="46.26763" lon="2.74599">
        <ele>429.34</ele>
        <time>2018-07-07T13:59:02.000Z</time>
      </trkpt>
      <trkpt lat="46.26755" lon="2.74605">
        <ele>428.51</ele>
        <time>2018-07-07T13:59:03.000Z</time>
      </trkpt>
      <trkpt lat="46.2674" lon="2.74617">
        <ele>427.06</ele>
        <time>2018-07-07T13:59:05.000Z</time>
      </trkpt>
      <trkpt lat="46.26733" lon="2.74626">
        <ele>426.56</ele>
        <time>2018-07-07T13:59:06.000Z</time>
      </trkpt>
      <trkpt lat="46.26724" lon="2.74645">
        <ele>426.48</ele>
        <time>2018-07-07T13:59:08.000Z</time>
      </trkpt>
      <trkpt lat="46.2672" lon="2.74664">
        <ele>425.9</ele>
        <time>2018-07-07T13:59:10.000Z</time>
      </trkpt>
      <trkpt lat="46.2672" lon="2.74681">
        <ele>426.17</ele>
        <time>2018-07-07T13:59:12.000Z</time>
      </trkpt>
      <trkpt lat="46.26721" lon="2.747">
        <ele>426.6</ele>
        <time>2018-07-07T13:59:14.000Z</time>
      </trkpt>
      <trkpt lat="46.26721" lon="2.74716">
        <ele>426.45</ele>
        <time>2018-07-07T13:59:16.000Z</time>
      </trkpt>
      <trkpt lat="46.26721" lon="2.74729">
        <ele>426.44</ele>
        <time>2018-07-07T13:59:18.000Z</time>
      </trkpt>
      <trkpt lat="46.2672" lon="2.74744">
        <ele>425.97</ele>
        <time>2018-07-07T13:59:20.000Z</time>
      </trkpt>
      <trkpt lat="46.2672" lon="2.74758">
        <ele>425.92</ele>
        <time>2018-07-07T13:59:22.000Z</time>
      </trkpt>
      <trkpt lat="46.26719" lon="2.74772">
        <ele>426.01</ele>
        <time>2018-07-07T13:59:24.000Z</time>
      </trkpt>
      <trkpt lat="46.26717" lon="2.74787">
        <ele>426.11</ele>
        <time>2018-07-07T13:59:26.000Z</time>
      </trkpt>
      <trkpt lat="46.26715" lon="2.748">
        <ele>426.08</ele>
        <time>2018-07-07T13:59:28.000Z</time>
      </trkpt>
      <trkpt lat="46.26713" lon="2.74818">
        <ele>426.35</ele>
        <time>2018-07-07T13:59:31.000Z</time>
      </trkpt>
      <trkpt lat="46.26708" lon="2.7483">
        <ele>426.4</ele>
        <time>2018-07-07T13:59:33.000Z</time>
      </trkpt>
      <trkpt lat="46.26703" lon="2.74841">
        <ele>426.4</ele>
        <time>2018-07-07T13:59:35.000Z</time>
      </trkpt>
      <trkpt lat="46.26698" lon="2.74853">
        <ele>426.4</ele>
        <time>2018-07-07T13:59:37.000Z</time>
      </trkpt>
      <trkpt lat="46.26689" lon="2.7486">
        <ele>426.9</ele>
        <time>2018-07-07T13:59:40.000Z</time>
      </trkpt>
      <trkpt lat="46.26677" lon="2.74861">
        <ele>427.5</ele>
        <time>2018-07-07T13:59:42.000Z</time>
      </trkpt>
      <trkpt lat="46.26667" lon="2.74864">
        <ele>427.87</ele>
        <time>2018-07-07T13:59:44.000Z</time>
      </trkpt>
      <trkpt lat="46.26656" lon="2.74873">
        <ele>427.87</ele>
        <time>2018-07-07T13:59:46.000Z</time>
      </trkpt>
      <trkpt lat="46.26646" lon="2.74882">
        <ele>428.08</ele>
        <time>2018-07-07T13:59:48.000Z</time>
      </trkpt>
      <trkpt lat="46.2664" lon="2.74894">
        <ele>428.28</ele>
        <time>2018-07-07T13:59:50.000Z</time>
      </trkpt>
      <trkpt lat="46.2665" lon="2.74908">
        <ele>429.84</ele>
        <time>2018-07-07T13:59:53.000Z</time>
      </trkpt>
      <trkpt lat="46.26661" lon="2.7492">
        <ele>430.27</ele>
        <time>2018-07-07T13:59:55.000Z</time>
      </trkpt>
      <trkpt lat="46.26674" lon="2.7493">
        <ele>430.38</ele>
        <time>2018-07-07T13:59:57.000Z</time>
      </trkpt>
      <trkpt lat="46.26687" lon="2.74937">
        <ele>430.43</ele>
        <time>2018-07-07T13:59:59.000Z</time>
      </trkpt>
      <trkpt lat="46.26697" lon="2.74942">
        <ele>430.55</ele>
        <time>2018-07-07T14:00:01.000Z</time>
      </trkpt>
      <trkpt lat="46.26708" lon="2.74946">
        <ele>431.24</ele>
        <time>2018-07-07T14:00:04.000Z</time>
      </trkpt>
      <trkpt lat="46.26718" lon="2.74955">
        <ele>432.26</ele>
        <time>2018-07-07T14:00:07.000Z</time>
      </trkpt>
      <trkpt lat="46.26725" lon="2.74967">
        <ele>433.13</ele>
        <time>2018-07-07T14:00:10.000Z</time>
      </trkpt>
      <trkpt lat="46.2673" lon="2.74979">
        <ele>433.88</ele>
        <time>2018-07-07T14:00:12.000Z</time>
      </trkpt>
      <trkpt lat="46.26734" lon="2.74991">
        <ele>434.66</ele>
        <time>2018-07-07T14:00:14.000Z</time>
      </trkpt>
      <trkpt lat="46.26739" lon="2.75007">
        <ele>435.57</ele>
        <time>2018-07-07T14:00:17.000Z</time>
      </trkpt>
      <trkpt lat="46.2674" lon="2.75022">
        <ele>436.64</ele>
        <time>2018-07-07T14:00:20.000Z</time>
      </trkpt>
      <trkpt lat="46.26739" lon="2.75037">
        <ele>438.01</ele>
        <time>2018-07-07T14:00:23.000Z</time>
      </trkpt>
      <trkpt lat="46.26736" lon="2.75056">
        <ele>438.8</ele>
        <time>2018-07-07T14:00:26.000Z</time>
      </trkpt>
      <trkpt lat="46.26735" lon="2.75074">
        <ele>439.67</ele>
        <time>2018-07-07T14:00:29.000Z</time>
      </trkpt>
      <trkpt lat="46.26733" lon="2.7509">
        <ele>440.1</ele>
        <time>2018-07-07T14:00:32.000Z</time>
      </trkpt>
      <trkpt lat="46.26732" lon="2.75108">
        <ele>439.92</ele>
        <time>2018-07-07T14:00:35.000Z</time>
      </trkpt>
      <trkpt lat="46.26732" lon="2.75125">
        <ele>440.31</ele>
        <time>2018-07-07T14:00:38.000Z</time>
      </trkpt>
      <trkpt lat="46.26732" lon="2.75142">
        <ele>441.96</ele>
        <time>2018-07-07T14:00:41.000Z</time>
      </trkpt>
      <trkpt lat="46.2673" lon="2.75156">
        <ele>442.71</ele>
        <time>2018-07-07T14:00:44.000Z</time>
      </trkpt>
      <trkpt lat="46.26726" lon="2.75172">
        <ele>443.29</ele>
        <time>2018-07-07T14:00:47.000Z</time>
      </trkpt>
      <trkpt lat="46.26724" lon="2.75189">
        <ele>445.19</ele>
        <time>2018-07-07T14:00:50.000Z</time>
      </trkpt>
      <trkpt lat="46.26722" lon="2.75206">
        <ele>447.65</ele>
        <time>2018-07-07T14:00:53.000Z</time>
      </trkpt>
      <trkpt lat="46.26722" lon="2.75219">
        <ele>448.16</ele>
        <time>2018-07-07T14:00:55.000Z</time>
      </trkpt>
      <trkpt lat="46.26723" lon="2.75232">
        <ele>448.26</ele>
        <time>2018-07-07T14:00:57.000Z</time>
      </trkpt>
      <trkpt lat="46.26722" lon="2.75248">
        <ele>449.22</ele>
        <time>2018-07-07T14:01:00.000Z</time>
      </trkpt>
      <trkpt lat="46.26719" lon="2.75263">
        <ele>450.33</ele>
        <time>2018-07-07T14:01:03.000Z</time>
      </trkpt>
      <trkpt lat="46.26712" lon="2.75276">
        <ele>451.66</ele>
        <time>2018-07-07T14:01:06.000Z</time>
      </trkpt>
      <trkpt lat="46.26706" lon="2.75288">
        <ele>452.76</ele>
        <time>2018-07-07T14:01:08.999Z</time>
      </trkpt>
      <trkpt lat="46.26697" lon="2.75302">
        <ele>453.9</ele>
        <time>2018-07-07T14:01:12.000Z</time>
      </trkpt>
      <trkpt lat="46.26687" lon="2.75314">
        <ele>454.52</ele>
        <time>2018-07-07T14:01:15.000Z</time>
      </trkpt>
      <trkpt lat="46.26676" lon="2.75324">
        <ele>456.15</ele>
        <time>2018-07-07T14:01:18.000Z</time>
      </trkpt>
      <trkpt lat="46.26667" lon="2.75328">
        <ele>458.03</ele>
        <time>2018-07-07T14:01:21.000Z</time>
      </trkpt>
      <trkpt lat="46.26656" lon="2.75334">
        <ele>459.43</ele>
        <time>2018-07-07T14:01:25.000Z</time>
      </trkpt>
      <trkpt lat="46.26645" lon="2.75337">
        <ele>460.33</ele>
        <time>2018-07-07T14:01:28.000Z</time>
      </trkpt>
      <trkpt lat="46.26635" lon="2.7534">
        <ele>461.47</ele>
        <time>2018-07-07T14:01:31.000Z</time>
      </trkpt>
      <trkpt lat="46.26624" lon="2.75347">
        <ele>462.82</ele>
        <time>2018-07-07T14:01:34.000Z</time>
      </trkpt>
      <trkpt lat="46.26614" lon="2.7536">
        <ele>464.5</ele>
        <time>2018-07-07T14:01:37.000Z</time>
      </trkpt>
      <trkpt lat="46.26605" lon="2.75373">
        <ele>466.4</ele>
        <time>2018-07-07T14:01:40.000Z</time>
      </trkpt>
      <trkpt lat="46.26596" lon="2.7538">
        <ele>467.77</ele>
        <time>2018-07-07T14:01:43.000Z</time>
      </trkpt>
      <trkpt lat="46.26586" lon="2.75383">
        <ele>469.23</ele>
        <time>2018-07-07T14:01:46.000Z</time>
      </trkpt>
      <trkpt lat="46.26576" lon="2.75382">
        <ele>470.64</ele>
        <time>2018-07-07T14:01:49.000Z</time>
      </trkpt>
      <trkpt lat="46.26566" lon="2.75376">
        <ele>471.51</ele>
        <time>2018-07-07T14:01:52.000Z</time>
      </trkpt>
      <trkpt lat="46.26554" lon="2.75371">
        <ele>472.09</ele>
        <time>2018-07-07T14:01:55.000Z</time>
      </trkpt>
      <trkpt lat="46.26545" lon="2.75366">
        <ele>472.38</ele>
        <time>2018-07-07T14:01:57.000Z</time>
      </trkpt>
      <trkpt lat="46.26536" lon="2.75359">
        <ele>472.64</ele>
        <time>2018-07-07T14:01:59.000Z</time>
      </trkpt>
      <trkpt lat="46.26527" lon="2.75351">
        <ele>473.05</ele>
        <time>2018-07-07T14:02:01.000Z</time>
      </trkpt>
      <trkpt lat="46.26518" lon="2.75344">
        <ele>473.45</ele>
        <time>2018-07-07T14:02:03.000Z</time>
      </trkpt>
      <trkpt lat="46.26507" lon="2.75332">
        <ele>474.1</ele>
        <time>2018-07-07T14:02:06.000Z</time>
      </trkpt>
      <trkpt lat="46.265" lon="2.75322">
        <ele>474.65</ele>
        <time>2018-07-07T14:02:08.000Z</time>
      </trkpt>
      <trkpt lat="46.26493" lon="2.75312">
        <ele>474.99</ele>
        <time>2018-07-07T14:02:10.000Z</time>
      </trkpt>
      <trkpt lat="46.26484" lon="2.75302">
        <ele>475.38</ele>
        <time>2018-07-07T14:02:12.000Z</time>
      </trkpt>
      <trkpt lat="46.26476" lon="2.75293">
        <ele>475.99</ele>
        <time>2018-07-07T14:02:14.000Z</time>
      </trkpt>
      <trkpt lat="46.26466" lon="2.75283">
        <ele>476.35</ele>
        <time>2018-07-07T14:02:16.000Z</time>
      </trkpt>
      <trkpt lat="46.26457" lon="2.75273">
        <ele>476.61</ele>
        <time>2018-07-07T14:02:18.000Z</time>
      </trkpt>
      <trkpt lat="46.26447" lon="2.75263">
        <ele>477.16</ele>
        <time>2018-07-07T14:02:20.000Z</time>
      </trkpt>
      <trkpt lat="46.26438" lon="2.75253">
        <ele>477.91</ele>
        <time>2018-07-07T14:02:22.000Z</time>
      </trkpt>
      <trkpt lat="46.2643" lon="2.75242">
        <ele>478.41</ele>
        <time>2018-07-07T14:02:24.000Z</time>
      </trkpt>
      <trkpt lat="46.26422" lon="2.75231">
        <ele>479.31</ele>
        <time>2018-07-07T14:02:26.000Z</time>
      </trkpt>
      <trkpt lat="46.26414" lon="2.75219">
        <ele>480</ele>
        <time>2018-07-07T14:02:28.000Z</time>
      </trkpt>
      <trkpt lat="46.26406" lon="2.75207">
        <ele>479.75</ele>
        <time>2018-07-07T14:02:30.000Z</time>
      </trkpt>
      <trkpt lat="46.26397" lon="2.75197">
        <ele>479.67</ele>
        <time>2018-07-07T14:02:32.000Z</time>
      </trkpt>
      <trkpt lat="46.26389" lon="2.75185">
        <ele>479.81</ele>
        <time>2018-07-07T14:02:34.000Z</time>
      </trkpt>
      <trkpt lat="46.26381" lon="2.75175">
        <ele>480.39</ele>
        <time>2018-07-07T14:02:36.000Z</time>
      </trkpt>
      <trkpt lat="46.26372" lon="2.75165">
        <ele>480.3</ele>
        <time>2018-07-07T14:02:38.000Z</time>
      </trkpt>
      <trkpt lat="46.26364" lon="2.75156">
        <ele>480.55</ele>
        <time>2018-07-07T14:02:40.000Z</time>
      </trkpt>
      <trkpt lat="46.26355" lon="2.75148">
        <ele>480.31</ele>
        <time>2018-07-07T14:02:42.000Z</time>
      </trkpt>
      <trkpt lat="46.26346" lon="2.75141">
        <ele>480.23</ele>
        <time>2018-07-07T14:02:44.000Z</time>
      </trkpt>
      <trkpt lat="46.26337" lon="2.75135">
        <ele>480.58</ele>
        <time>2018-07-07T14:02:46.000Z</time>
      </trkpt>
      <trkpt lat="46.26327" lon="2.75129">
        <ele>480.92</ele>
        <time>2018-07-07T14:02:48.000Z</time>
      </trkpt>
      <trkpt lat="46.26318" lon="2.75124">
        <ele>481.22</ele>
        <time>2018-07-07T14:02:50.000Z</time>
      </trkpt>
      <trkpt lat="46.26309" lon="2.75118">
        <ele>481.16</ele>
        <time>2018-07-07T14:02:52.000Z</time>
      </trkpt>
      <trkpt lat="46.263" lon="2.75113">
        <ele>481.17</ele>
        <time>2018-07-07T14:02:54.000Z</time>
      </trkpt>
      <trkpt lat="46.26289" lon="2.75106">
        <ele>482.02</ele>
        <time>2018-07-07T14:02:57.000Z</time>
      </trkpt>
      <trkpt lat="46.26278" lon="2.75097">
        <ele>482.67</ele>
        <time>2018-07-07T14:03:00.000Z</time>
      </trkpt>
      <trkpt lat="46.26269" lon="2.75092">
        <ele>483.03</ele>
        <time>2018-07-07T14:03:02.000Z</time>
      </trkpt>
      <trkpt lat="46.2626" lon="2.75087">
        <ele>483.52</ele>
        <time>2018-07-07T14:03:04.000Z</time>
      </trkpt>
      <trkpt lat="46.26252" lon="2.75082">
        <ele>484</ele>
        <time>2018-07-07T14:03:06.000Z</time>
      </trkpt>
      <trkpt lat="46.26244" lon="2.75076">
        <ele>484.28</ele>
        <time>2018-07-07T14:03:08.000Z</time>
      </trkpt>
      <trkpt lat="46.26231" lon="2.75069">
        <ele>484.78</ele>
        <time>2018-07-07T14:03:11.000Z</time>
      </trkpt>
      <trkpt lat="46.26222" lon="2.75065">
        <ele>485.12</ele>
        <time>2018-07-07T14:03:13.000Z</time>
      </trkpt>
      <trkpt lat="46.26214" lon="2.7506">
        <ele>485.58</ele>
        <time>2018-07-07T14:03:15.000Z</time>
      </trkpt>
      <trkpt lat="46.26205" lon="2.75056">
        <ele>486.02</ele>
        <time>2018-07-07T14:03:17.000Z</time>
      </trkpt>
      <trkpt lat="46.26196" lon="2.75051">
        <ele>486.61</ele>
        <time>2018-07-07T14:03:19.000Z</time>
      </trkpt>
      <trkpt lat="46.26188" lon="2.75045">
        <ele>486.74</ele>
        <time>2018-07-07T14:03:21.000Z</time>
      </trkpt>
      <trkpt lat="46.26178" lon="2.75041">
        <ele>486.47</ele>
        <time>2018-07-07T14:03:23.000Z</time>
      </trkpt>
      <trkpt lat="46.2617" lon="2.75036">
        <ele>486.47</ele>
        <time>2018-07-07T14:03:25.000Z</time>
      </trkpt>
      <trkpt lat="46.2616" lon="2.75031">
        <ele>486.55</ele>
        <time>2018-07-07T14:03:27.000Z</time>
      </trkpt>
      <trkpt lat="46.26151" lon="2.75026">
        <ele>486.63</ele>
        <time>2018-07-07T14:03:29.000Z</time>
      </trkpt>
      <trkpt lat="46.26143" lon="2.7502">
        <ele>487.04</ele>
        <time>2018-07-07T14:03:31.000Z</time>
      </trkpt>
      <trkpt lat="46.26135" lon="2.75014">
        <ele>487.3</ele>
        <time>2018-07-07T14:03:33.000Z</time>
      </trkpt>
      <trkpt lat="46.26127" lon="2.75008">
        <ele>487.55</ele>
        <time>2018-07-07T14:03:35.000Z</time>
      </trkpt>
      <trkpt lat="46.26119" lon="2.75001">
        <ele>487.87</ele>
        <time>2018-07-07T14:03:37.000Z</time>
      </trkpt>
      <trkpt lat="46.2611" lon="2.74994">
        <ele>488.08</ele>
        <time>2018-07-07T14:03:39.000Z</time>
      </trkpt>
      <trkpt lat="46.26102" lon="2.74987">
        <ele>488.07</ele>
        <time>2018-07-07T14:03:41.000Z</time>
      </trkpt>
      <trkpt lat="46.26094" lon="2.7498">
        <ele>487.76</ele>
        <time>2018-07-07T14:03:43.000Z</time>
      </trkpt>
      <trkpt lat="46.26087" lon="2.74972">
        <ele>487.95</ele>
        <time>2018-07-07T14:03:45.000Z</time>
      </trkpt>
      <trkpt lat="46.26078" lon="2.74959">
        <ele>488.38</ele>
        <time>2018-07-07T14:03:48.000Z</time>
      </trkpt>
      <trkpt lat="46.2607" lon="2.74951">
        <ele>488.61</ele>
        <time>2018-07-07T14:03:50.000Z</time>
      </trkpt>
      <trkpt lat="46.2606" lon="2.74941">
        <ele>489.02</ele>
        <time>2018-07-07T14:03:53.000Z</time>
      </trkpt>
      <trkpt lat="46.2605" lon="2.74932">
        <ele>489.63</ele>
        <time>2018-07-07T14:03:56.000Z</time>
      </trkpt>
      <trkpt lat="46.26042" lon="2.74924">
        <ele>489.91</ele>
        <time>2018-07-07T14:03:58.000Z</time>
      </trkpt>
      <trkpt lat="46.26034" lon="2.74916">
        <ele>489.95</ele>
        <time>2018-07-07T14:04:00.000Z</time>
      </trkpt>
      <trkpt lat="46.26026" lon="2.74909">
        <ele>490.14</ele>
        <time>2018-07-07T14:04:02.000Z</time>
      </trkpt>
      <trkpt lat="46.26015" lon="2.749">
        <ele>491.03</ele>
        <time>2018-07-07T14:04:05.000Z</time>
      </trkpt>
      <trkpt lat="46.26005" lon="2.74892">
        <ele>491.95</ele>
        <time>2018-07-07T14:04:08.000Z</time>
      </trkpt>
      <trkpt lat="46.25994" lon="2.74883">
        <ele>493.15</ele>
        <time>2018-07-07T14:04:11.000Z</time>
      </trkpt>
      <trkpt lat="46.25983" lon="2.74875">
        <ele>494.77</ele>
        <time>2018-07-07T14:04:14.000Z</time>
      </trkpt>
      <trkpt lat="46.25975" lon="2.74863">
        <ele>496.01</ele>
        <time>2018-07-07T14:04:17.000Z</time>
      </trkpt>
      <trkpt lat="46.25968" lon="2.74854">
        <ele>496.93</ele>
        <time>2018-07-07T14:04:19.000Z</time>
      </trkpt>
      <trkpt lat="46.25961" lon="2.74846">
        <ele>497.05</ele>
        <time>2018-07-07T14:04:21.000Z</time>
      </trkpt>
      <trkpt lat="46.25952" lon="2.74837">
        <ele>497.13</ele>
        <time>2018-07-07T14:04:23.000Z</time>
      </trkpt>
      <trkpt lat="46.25943" lon="2.74828">
        <ele>497.02</ele>
        <time>2018-07-07T14:04:25.000Z</time>
      </trkpt>
      <trkpt lat="46.25935" lon="2.7482">
        <ele>496.89</ele>
        <time>2018-07-07T14:04:27.000Z</time>
      </trkpt>
      <trkpt lat="46.25927" lon="2.74812">
        <ele>497.28</ele>
        <time>2018-07-07T14:04:29.000Z</time>
      </trkpt>
      <trkpt lat="46.2592" lon="2.74805">
        <ele>497.93</ele>
        <time>2018-07-07T14:04:31.000Z</time>
      </trkpt>
      <trkpt lat="46.25912" lon="2.74797">
        <ele>498.84</ele>
        <time>2018-07-07T14:04:33.000Z</time>
      </trkpt>
      <trkpt lat="46.25904" lon="2.7479">
        <ele>499.66</ele>
        <time>2018-07-07T14:04:35.000Z</time>
      </trkpt>
      <trkpt lat="46.25896" lon="2.74782">
        <ele>500.09</ele>
        <time>2018-07-07T14:04:37.000Z</time>
      </trkpt>
      <trkpt lat="46.25887" lon="2.74774">
        <ele>500.39</ele>
        <time>2018-07-07T14:04:39.000Z</time>
      </trkpt>
      <trkpt lat="46.2588" lon="2.74764">
        <ele>501.06</ele>
        <time>2018-07-07T14:04:41.000Z</time>
      </trkpt>
      <trkpt lat="46.25871" lon="2.74754">
        <ele>501.63</ele>
        <time>2018-07-07T14:04:43.000Z</time>
      </trkpt>
      <trkpt lat="46.2586" lon="2.74745">
        <ele>501.73</ele>
        <time>2018-07-07T14:04:45.000Z</time>
      </trkpt>
      <trkpt lat="46.2585" lon="2.74736">
        <ele>502.19</ele>
        <time>2018-07-07T14:04:47.000Z</time>
      </trkpt>
      <trkpt lat="46.25839" lon="2.74728">
        <ele>502.38</ele>
        <time>2018-07-07T14:04:49.000Z</time>
      </trkpt>
      <trkpt lat="46.25829" lon="2.74719">
        <ele>502.4</ele>
        <time>2018-07-07T14:04:51.000Z</time>
      </trkpt>
      <trkpt lat="46.25818" lon="2.74711">
        <ele>502.62</ele>
        <time>2018-07-07T14:04:53.000Z</time>
      </trkpt>
      <trkpt lat="46.25806" lon="2.74705">
        <ele>502.77</ele>
        <time>2018-07-07T14:04:55.000Z</time>
      </trkpt>
      <trkpt lat="46.25795" lon="2.74698">
        <ele>502.92</ele>
        <time>2018-07-07T14:04:57.000Z</time>
      </trkpt>
      <trkpt lat="46.25783" lon="2.74691">
        <ele>503.19</ele>
        <time>2018-07-07T14:04:59.000Z</time>
      </trkpt>
      <trkpt lat="46.25771" lon="2.74686">
        <ele>503.57</ele>
        <time>2018-07-07T14:05:01.000Z</time>
      </trkpt>
      <trkpt lat="46.25759" lon="2.74681">
        <ele>503.47</ele>
        <time>2018-07-07T14:05:03.000Z</time>
      </trkpt>
      <trkpt lat="46.25745" lon="2.74675">
        <ele>503.34</ele>
        <time>2018-07-07T14:05:05.000Z</time>
      </trkpt>
      <trkpt lat="46.25733" lon="2.74667">
        <ele>504.19</ele>
        <time>2018-07-07T14:05:07.000Z</time>
      </trkpt>
      <trkpt lat="46.25722" lon="2.7466">
        <ele>505.1</ele>
        <time>2018-07-07T14:05:09.000Z</time>
      </trkpt>
      <trkpt lat="46.25711" lon="2.74654">
        <ele>505.69</ele>
        <time>2018-07-07T14:05:11.000Z</time>
      </trkpt>
      <trkpt lat="46.257" lon="2.74646">
        <ele>506.26</ele>
        <time>2018-07-07T14:05:13.000Z</time>
      </trkpt>
      <trkpt lat="46.25689" lon="2.74635">
        <ele>506.6</ele>
        <time>2018-07-07T14:05:15.000Z</time>
      </trkpt>
      <trkpt lat="46.25677" lon="2.74623">
        <ele>506.95</ele>
        <time>2018-07-07T14:05:17.000Z</time>
      </trkpt>
      <trkpt lat="46.25665" lon="2.74608">
        <ele>507.51</ele>
        <time>2018-07-07T14:05:19.000Z</time>
      </trkpt>
      <trkpt lat="46.25651" lon="2.74592">
        <ele>507.84</ele>
        <time>2018-07-07T14:05:21.000Z</time>
      </trkpt>
      <trkpt lat="46.25637" lon="2.74575">
        <ele>507.98</ele>
        <time>2018-07-07T14:05:23.000Z</time>
      </trkpt>
      <trkpt lat="46.2563" lon="2.74567">
        <ele>508.16</ele>
        <time>2018-07-07T14:05:24.000Z</time>
      </trkpt>
      <trkpt lat="46.25623" lon="2.74558">
        <ele>508.32</ele>
        <time>2018-07-07T14:05:25.000Z</time>
      </trkpt>
      <trkpt lat="46.25615" lon="2.74548">
        <ele>508.41</ele>
        <time>2018-07-07T14:05:26.000Z</time>
      </trkpt>
      <trkpt lat="46.25608" lon="2.74539">
        <ele>508.41</ele>
        <time>2018-07-07T14:05:27.000Z</time>
      </trkpt>
      <trkpt lat="46.256" lon="2.74529">
        <ele>508.41</ele>
        <time>2018-07-07T14:05:28.000Z</time>
      </trkpt>
      <trkpt lat="46.25594" lon="2.74519">
        <ele>508.32</ele>
        <time>2018-07-07T14:05:29.000Z</time>
      </trkpt>
      <trkpt lat="46.25587" lon="2.74508">
        <ele>508.18</ele>
        <time>2018-07-07T14:05:30.000Z</time>
      </trkpt>
      <trkpt lat="46.25581" lon="2.74497">
        <ele>508.19</ele>
        <time>2018-07-07T14:05:31.000Z</time>
      </trkpt>
      <trkpt lat="46.25575" lon="2.74486">
        <ele>508.34</ele>
        <time>2018-07-07T14:05:32.000Z</time>
      </trkpt>
      <trkpt lat="46.25569" lon="2.74476">
        <ele>508.42</ele>
        <time>2018-07-07T14:05:33.000Z</time>
      </trkpt>
      <trkpt lat="46.25563" lon="2.74465">
        <ele>508.37</ele>
        <time>2018-07-07T14:05:34.000Z</time>
      </trkpt>
      <trkpt lat="46.25557" lon="2.74454">
        <ele>508.16</ele>
        <time>2018-07-07T14:05:35.000Z</time>
      </trkpt>
      <trkpt lat="46.25549" lon="2.74445">
        <ele>507.95</ele>
        <time>2018-07-07T14:05:36.000Z</time>
      </trkpt>
      <trkpt lat="46.2554" lon="2.74437">
        <ele>507.87</ele>
        <time>2018-07-07T14:05:37.000Z</time>
      </trkpt>
      <trkpt lat="46.25531" lon="2.7443">
        <ele>508</ele>
        <time>2018-07-07T14:05:38.000Z</time>
      </trkpt>
      <trkpt lat="46.25522" lon="2.74427">
        <ele>508.22</ele>
        <time>2018-07-07T14:05:39.000Z</time>
      </trkpt>
      <trkpt lat="46.25513" lon="2.74426">
        <ele>508.3</ele>
        <time>2018-07-07T14:05:40.000Z</time>
      </trkpt>
      <trkpt lat="46.25497" lon="2.74423">
        <ele>508.25</ele>
        <time>2018-07-07T14:05:42.000Z</time>
      </trkpt>
      <trkpt lat="46.25483" lon="2.74416">
        <ele>508.22</ele>
        <time>2018-07-07T14:05:44.000Z</time>
      </trkpt>
      <trkpt lat="46.2547" lon="2.74405">
        <ele>507.55</ele>
        <time>2018-07-07T14:05:46.000Z</time>
      </trkpt>
      <trkpt lat="46.25457" lon="2.74392">
        <ele>506.6</ele>
        <time>2018-07-07T14:05:48.000Z</time>
      </trkpt>
      <trkpt lat="46.25443" lon="2.74381">
        <ele>506.08</ele>
        <time>2018-07-07T14:05:50.000Z</time>
      </trkpt>
      <trkpt lat="46.25428" lon="2.74371">
        <ele>505.67</ele>
        <time>2018-07-07T14:05:52.000Z</time>
      </trkpt>
      <trkpt lat="46.25414" lon="2.74361">
        <ele>505.42</ele>
        <time>2018-07-07T14:05:54.000Z</time>
      </trkpt>
      <trkpt lat="46.25399" lon="2.74352">
        <ele>505.08</ele>
        <time>2018-07-07T14:05:56.000Z</time>
      </trkpt>
      <trkpt lat="46.25385" lon="2.74344">
        <ele>504.55</ele>
        <time>2018-07-07T14:05:58.000Z</time>
      </trkpt>
      <trkpt lat="46.2537" lon="2.74336">
        <ele>503.96</ele>
        <time>2018-07-07T14:06:00.000Z</time>
      </trkpt>
      <trkpt lat="46.25355" lon="2.74331">
        <ele>503.36</ele>
        <time>2018-07-07T14:06:02.000Z</time>
      </trkpt>
      <trkpt lat="46.25339" lon="2.74325">
        <ele>502.47</ele>
        <time>2018-07-07T14:06:04.000Z</time>
      </trkpt>
      <trkpt lat="46.25323" lon="2.74319">
        <ele>502.11</ele>
        <time>2018-07-07T14:06:06.000Z</time>
      </trkpt>
      <trkpt lat="46.25308" lon="2.74316">
        <ele>502.03</ele>
        <time>2018-07-07T14:06:08.000Z</time>
      </trkpt>
      <trkpt lat="46.25293" lon="2.74314">
        <ele>502.19</ele>
        <time>2018-07-07T14:06:10.000Z</time>
      </trkpt>
      <trkpt lat="46.25278" lon="2.74313">
        <ele>502.22</ele>
        <time>2018-07-07T14:06:12.000Z</time>
      </trkpt>
      <trkpt lat="46.25258" lon="2.74311">
        <ele>502.91</ele>
        <time>2018-07-07T14:06:15.000Z</time>
      </trkpt>
      <trkpt lat="46.25245" lon="2.7431">
        <ele>503.2</ele>
        <time>2018-07-07T14:06:17.000Z</time>
      </trkpt>
      <trkpt lat="46.2523" lon="2.74308">
        <ele>503.06</ele>
        <time>2018-07-07T14:06:19.000Z</time>
      </trkpt>
      <trkpt lat="46.25213" lon="2.74309">
        <ele>503</ele>
        <time>2018-07-07T14:06:21.000Z</time>
      </trkpt>
      <trkpt lat="46.25203" lon="2.74309">
        <ele>502.79</ele>
        <time>2018-07-07T14:06:22.000Z</time>
      </trkpt>
      <trkpt lat="46.25194" lon="2.7431">
        <ele>502.62</ele>
        <time>2018-07-07T14:06:23.000Z</time>
      </trkpt>
      <trkpt lat="46.25185" lon="2.74311">
        <ele>502.45</ele>
        <time>2018-07-07T14:06:24.000Z</time>
      </trkpt>
      <trkpt lat="46.25176" lon="2.74311">
        <ele>502.27</ele>
        <time>2018-07-07T14:06:25.000Z</time>
      </trkpt>
      <trkpt lat="46.25158" lon="2.74313">
        <ele>502.08</ele>
        <time>2018-07-07T14:06:27.000Z</time>
      </trkpt>
      <trkpt lat="46.25141" lon="2.74313">
        <ele>501.99</ele>
        <time>2018-07-07T14:06:29.000Z</time>
      </trkpt>
      <trkpt lat="46.25125" lon="2.74309">
        <ele>501.76</ele>
        <time>2018-07-07T14:06:31.000Z</time>
      </trkpt>
      <trkpt lat="46.25109" lon="2.74302">
        <ele>501.09</ele>
        <time>2018-07-07T14:06:33.000Z</time>
      </trkpt>
      <trkpt lat="46.25096" lon="2.74294">
        <ele>501.76</ele>
        <time>2018-07-07T14:06:35.000Z</time>
      </trkpt>
      <trkpt lat="46.25084" lon="2.74281">
        <ele>502.61</ele>
        <time>2018-07-07T14:06:37.000Z</time>
      </trkpt>
      <trkpt lat="46.25074" lon="2.74265">
        <ele>502.85</ele>
        <time>2018-07-07T14:06:39.000Z</time>
      </trkpt>
      <trkpt lat="46.25063" lon="2.74249">
        <ele>502.68</ele>
        <time>2018-07-07T14:06:41.000Z</time>
      </trkpt>
      <trkpt lat="46.25053" lon="2.74234">
        <ele>502.61</ele>
        <time>2018-07-07T14:06:43.000Z</time>
      </trkpt>
      <trkpt lat="46.25045" lon="2.74219">
        <ele>502.77</ele>
        <time>2018-07-07T14:06:45.000Z</time>
      </trkpt>
      <trkpt lat="46.25034" lon="2.74205">
        <ele>502.86</ele>
        <time>2018-07-07T14:06:47.000Z</time>
      </trkpt>
      <trkpt lat="46.25024" lon="2.74191">
        <ele>502.99</ele>
        <time>2018-07-07T14:06:49.000Z</time>
      </trkpt>
      <trkpt lat="46.25014" lon="2.74178">
        <ele>503.13</ele>
        <time>2018-07-07T14:06:51.000Z</time>
      </trkpt>
      <trkpt lat="46.25002" lon="2.74166">
        <ele>503.31</ele>
        <time>2018-07-07T14:06:53.000Z</time>
      </trkpt>
      <trkpt lat="46.2499" lon="2.74155">
        <ele>503.36</ele>
        <time>2018-07-07T14:06:55.000Z</time>
      </trkpt>
      <trkpt lat="46.24976" lon="2.74146">
        <ele>503.53</ele>
        <time>2018-07-07T14:06:57.000Z</time>
      </trkpt>
      <trkpt lat="46.24963" lon="2.74138">
        <ele>504</ele>
        <time>2018-07-07T14:06:59.000Z</time>
      </trkpt>
      <trkpt lat="46.24949" lon="2.74134">
        <ele>504.45</ele>
        <time>2018-07-07T14:07:01.000Z</time>
      </trkpt>
      <trkpt lat="46.24935" lon="2.74132">
        <ele>504.76</ele>
        <time>2018-07-07T14:07:03.000Z</time>
      </trkpt>
      <trkpt lat="46.24921" lon="2.74131">
        <ele>505.14</ele>
        <time>2018-07-07T14:07:05.000Z</time>
      </trkpt>
      <trkpt lat="46.24906" lon="2.74124">
        <ele>505.2</ele>
        <time>2018-07-07T14:07:07.000Z</time>
      </trkpt>
      <trkpt lat="46.24896" lon="2.74108">
        <ele>505.32</ele>
        <time>2018-07-07T14:07:09.000Z</time>
      </trkpt>
      <trkpt lat="46.24887" lon="2.7409">
        <ele>506.08</ele>
        <time>2018-07-07T14:07:11.000Z</time>
      </trkpt>
      <trkpt lat="46.24878" lon="2.74075">
        <ele>506.62</ele>
        <time>2018-07-07T14:07:13.000Z</time>
      </trkpt>
      <trkpt lat="46.2487" lon="2.7406">
        <ele>506.94</ele>
        <time>2018-07-07T14:07:15.000Z</time>
      </trkpt>
      <trkpt lat="46.2486" lon="2.74046">
        <ele>507.5</ele>
        <time>2018-07-07T14:07:17.000Z</time>
      </trkpt>
      <trkpt lat="46.24851" lon="2.74032">
        <ele>508.1</ele>
        <time>2018-07-07T14:07:19.000Z</time>
      </trkpt>
      <trkpt lat="46.24842" lon="2.7402">
        <ele>508.68</ele>
        <time>2018-07-07T14:07:21.000Z</time>
      </trkpt>
      <trkpt lat="46.24834" lon="2.74008">
        <ele>509.18</ele>
        <time>2018-07-07T14:07:23.000Z</time>
      </trkpt>
      <trkpt lat="46.24825" lon="2.73996">
        <ele>509.33</ele>
        <time>2018-07-07T14:07:25.000Z</time>
      </trkpt>
      <trkpt lat="46.24815" lon="2.73983">
        <ele>509.42</ele>
        <time>2018-07-07T14:07:27.000Z</time>
      </trkpt>
      <trkpt lat="46.24806" lon="2.73971">
        <ele>509.62</ele>
        <time>2018-07-07T14:07:29.000Z</time>
      </trkpt>
      <trkpt lat="46.24797" lon="2.7396">
        <ele>509.6</ele>
        <time>2018-07-07T14:07:31.000Z</time>
      </trkpt>
      <trkpt lat="46.24789" lon="2.73947">
        <ele>509.63</ele>
        <time>2018-07-07T14:07:33.000Z</time>
      </trkpt>
      <trkpt lat="46.24783" lon="2.73934">
        <ele>509.67</ele>
        <time>2018-07-07T14:07:35.000Z</time>
      </trkpt>
      <trkpt lat="46.24775" lon="2.7392">
        <ele>509</ele>
        <time>2018-07-07T14:07:37.000Z</time>
      </trkpt>
      <trkpt lat="46.24768" lon="2.73907">
        <ele>507.43</ele>
        <time>2018-07-07T14:07:39.000Z</time>
      </trkpt>
      <trkpt lat="46.24762" lon="2.73895">
        <ele>506.5</ele>
        <time>2018-07-07T14:07:41.000Z</time>
      </trkpt>
      <trkpt lat="46.24756" lon="2.73882">
        <ele>505.85</ele>
        <time>2018-07-07T14:07:43.000Z</time>
      </trkpt>
      <trkpt lat="46.24751" lon="2.73867">
        <ele>505.16</ele>
        <time>2018-07-07T14:07:45.000Z</time>
      </trkpt>
      <trkpt lat="46.24746" lon="2.73854">
        <ele>504.87</ele>
        <time>2018-07-07T14:07:47.000Z</time>
      </trkpt>
      <trkpt lat="46.2474" lon="2.73841">
        <ele>504.59</ele>
        <time>2018-07-07T14:07:49.000Z</time>
      </trkpt>
      <trkpt lat="46.24734" lon="2.73828">
        <ele>504.18</ele>
        <time>2018-07-07T14:07:51.000Z</time>
      </trkpt>
      <trkpt lat="46.2473" lon="2.73816">
        <ele>503.91</ele>
        <time>2018-07-07T14:07:53.000Z</time>
      </trkpt>
      <trkpt lat="46.24725" lon="2.73804">
        <ele>503.99</ele>
        <time>2018-07-07T14:07:55.000Z</time>
      </trkpt>
      <trkpt lat="46.24722" lon="2.73791">
        <ele>504.41</ele>
        <time>2018-07-07T14:07:57.000Z</time>
      </trkpt>
      <trkpt lat="46.24718" lon="2.73777">
        <ele>505.11</ele>
        <time>2018-07-07T14:07:59.000Z</time>
      </trkpt>
      <trkpt lat="46.24715" lon="2.73762">
        <ele>505.59</ele>
        <time>2018-07-07T14:08:01.000Z</time>
      </trkpt>
      <trkpt lat="46.24711" lon="2.73748">
        <ele>505.51</ele>
        <time>2018-07-07T14:08:03.000Z</time>
      </trkpt>
      <trkpt lat="46.24706" lon="2.73733">
        <ele>505.2</ele>
        <time>2018-07-07T14:08:05.000Z</time>
      </trkpt>
      <trkpt lat="46.24702" lon="2.73718">
        <ele>505.12</ele>
        <time>2018-07-07T14:08:07.000Z</time>
      </trkpt>
      <trkpt lat="46.24698" lon="2.73702">
        <ele>504.58</ele>
        <time>2018-07-07T14:08:09.000Z</time>
      </trkpt>
      <trkpt lat="46.24692" lon="2.73686">
        <ele>503.94</ele>
        <time>2018-07-07T14:08:11.000Z</time>
      </trkpt>
      <trkpt lat="46.24686" lon="2.73671">
        <ele>504.28</ele>
        <time>2018-07-07T14:08:13.000Z</time>
      </trkpt>
      <trkpt lat="46.24681" lon="2.73657">
        <ele>505.22</ele>
        <time>2018-07-07T14:08:15.000Z</time>
      </trkpt>
      <trkpt lat="46.24675" lon="2.73646">
        <ele>506.12</ele>
        <time>2018-07-07T14:08:17.000Z</time>
      </trkpt>
      <trkpt lat="46.24668" lon="2.73635">
        <ele>507.05</ele>
        <time>2018-07-07T14:08:19.000Z</time>
      </trkpt>
      <trkpt lat="46.24661" lon="2.73625">
        <ele>507.84</ele>
        <time>2018-07-07T14:08:21.000Z</time>
      </trkpt>
      <trkpt lat="46.24654" lon="2.73614">
        <ele>508.37</ele>
        <time>2018-07-07T14:08:23.000Z</time>
      </trkpt>
      <trkpt lat="46.24648" lon="2.73604">
        <ele>509.19</ele>
        <time>2018-07-07T14:08:25.000Z</time>
      </trkpt>
      <trkpt lat="46.24641" lon="2.73594">
        <ele>509.83</ele>
        <time>2018-07-07T14:08:27.000Z</time>
      </trkpt>
      <trkpt lat="46.24634" lon="2.73585">
        <ele>509.97</ele>
        <time>2018-07-07T14:08:29.000Z</time>
      </trkpt>
      <trkpt lat="46.24628" lon="2.73575">
        <ele>510.06</ele>
        <time>2018-07-07T14:08:31.000Z</time>
      </trkpt>
      <trkpt lat="46.24622" lon="2.73566">
        <ele>510.19</ele>
        <time>2018-07-07T14:08:33.000Z</time>
      </trkpt>
      <trkpt lat="46.24615" lon="2.73556">
        <ele>510.24</ele>
        <time>2018-07-07T14:08:35.000Z</time>
      </trkpt>
      <trkpt lat="46.24608" lon="2.73545">
        <ele>510.38</ele>
        <time>2018-07-07T14:08:37.000Z</time>
      </trkpt>
      <trkpt lat="46.24602" lon="2.73535">
        <ele>510.77</ele>
        <time>2018-07-07T14:08:39.000Z</time>
      </trkpt>
      <trkpt lat="46.24596" lon="2.73525">
        <ele>511.64</ele>
        <time>2018-07-07T14:08:41.000Z</time>
      </trkpt>
      <trkpt lat="46.2459" lon="2.73515">
        <ele>512.1</ele>
        <time>2018-07-07T14:08:43.000Z</time>
      </trkpt>
      <trkpt lat="46.24581" lon="2.73503">
        <ele>512.94</ele>
        <time>2018-07-07T14:08:46.000Z</time>
      </trkpt>
      <trkpt lat="46.24575" lon="2.73491">
        <ele>513.33</ele>
        <time>2018-07-07T14:08:48.000Z</time>
      </trkpt>
      <trkpt lat="46.24568" lon="2.73479">
        <ele>513.47</ele>
        <time>2018-07-07T14:08:50.000Z</time>
      </trkpt>
      <trkpt lat="46.24561" lon="2.73468">
        <ele>513.59</ele>
        <time>2018-07-07T14:08:52.000Z</time>
      </trkpt>
      <trkpt lat="46.24555" lon="2.73456">
        <ele>513.72</ele>
        <time>2018-07-07T14:08:54.000Z</time>
      </trkpt>
      <trkpt lat="46.24548" lon="2.73443">
        <ele>514.03</ele>
        <time>2018-07-07T14:08:56.000Z</time>
      </trkpt>
      <trkpt lat="46.2454" lon="2.7343">
        <ele>514.12</ele>
        <time>2018-07-07T14:08:58.000Z</time>
      </trkpt>
      <trkpt lat="46.24534" lon="2.73418">
        <ele>514.21</ele>
        <time>2018-07-07T14:09:00.000Z</time>
      </trkpt>
      <trkpt lat="46.24527" lon="2.73407">
        <ele>514.4</ele>
        <time>2018-07-07T14:09:02.000Z</time>
      </trkpt>
      <trkpt lat="46.2452" lon="2.73396">
        <ele>514.24</ele>
        <time>2018-07-07T14:09:04.000Z</time>
      </trkpt>
      <trkpt lat="46.24514" lon="2.73384">
        <ele>514.19</ele>
        <time>2018-07-07T14:09:06.000Z</time>
      </trkpt>
      <trkpt lat="46.24509" lon="2.73371">
        <ele>514.61</ele>
        <time>2018-07-07T14:09:08.000Z</time>
      </trkpt>
      <trkpt lat="46.24502" lon="2.7336">
        <ele>515.15</ele>
        <time>2018-07-07T14:09:10.000Z</time>
      </trkpt>
      <trkpt lat="46.24495" lon="2.73348">
        <ele>516</ele>
        <time>2018-07-07T14:09:12.000Z</time>
      </trkpt>
      <trkpt lat="46.24488" lon="2.73337">
        <ele>516.72</ele>
        <time>2018-07-07T14:09:14.000Z</time>
      </trkpt>
      <trkpt lat="46.24481" lon="2.73325">
        <ele>517.09</ele>
        <time>2018-07-07T14:09:16.000Z</time>
      </trkpt>
      <trkpt lat="46.24474" lon="2.73313">
        <ele>517.52</ele>
        <time>2018-07-07T14:09:18.000Z</time>
      </trkpt>
      <trkpt lat="46.24467" lon="2.73302">
        <ele>517.87</ele>
        <time>2018-07-07T14:09:20.000Z</time>
      </trkpt>
      <trkpt lat="46.24459" lon="2.73289">
        <ele>517.92</ele>
        <time>2018-07-07T14:09:22.000Z</time>
      </trkpt>
      <trkpt lat="46.24452" lon="2.73277">
        <ele>517.89</ele>
        <time>2018-07-07T14:09:24.000Z</time>
      </trkpt>
      <trkpt lat="46.24445" lon="2.73265">
        <ele>518.15</ele>
        <time>2018-07-07T14:09:26.000Z</time>
      </trkpt>
      <trkpt lat="46.24438" lon="2.73252">
        <ele>518.03</ele>
        <time>2018-07-07T14:09:28.000Z</time>
      </trkpt>
      <trkpt lat="46.24431" lon="2.73239">
        <ele>517.63</ele>
        <time>2018-07-07T14:09:30.000Z</time>
      </trkpt>
      <trkpt lat="46.24423" lon="2.73228">
        <ele>517.37</ele>
        <time>2018-07-07T14:09:32.000Z</time>
      </trkpt>
      <trkpt lat="46.24416" lon="2.73216">
        <ele>517.42</ele>
        <time>2018-07-07T14:09:34.000Z</time>
      </trkpt>
      <trkpt lat="46.24411" lon="2.73206">
        <ele>517.99</ele>
        <time>2018-07-07T14:09:36.000Z</time>
      </trkpt>
      <trkpt lat="46.24405" lon="2.73195">
        <ele>518.54</ele>
        <time>2018-07-07T14:09:38.000Z</time>
      </trkpt>
      <trkpt lat="46.24397" lon="2.73179">
        <ele>518.95</ele>
        <time>2018-07-07T14:09:41.000Z</time>
      </trkpt>
      <trkpt lat="46.24392" lon="2.73169">
        <ele>519.23</ele>
        <time>2018-07-07T14:09:43.000Z</time>
      </trkpt>
      <trkpt lat="46.24386" lon="2.73158">
        <ele>519.7</ele>
        <time>2018-07-07T14:09:45.000Z</time>
      </trkpt>
      <trkpt lat="46.2438" lon="2.73147">
        <ele>520.13</ele>
        <time>2018-07-07T14:09:47.000Z</time>
      </trkpt>
      <trkpt lat="46.24374" lon="2.73136">
        <ele>520.85</ele>
        <time>2018-07-07T14:09:49.000Z</time>
      </trkpt>
      <trkpt lat="46.24369" lon="2.73125">
        <ele>521.47</ele>
        <time>2018-07-07T14:09:51.000Z</time>
      </trkpt>
      <trkpt lat="46.24365" lon="2.73113">
        <ele>521.89</ele>
        <time>2018-07-07T14:09:53.000Z</time>
      </trkpt>
      <trkpt lat="46.24359" lon="2.73098">
        <ele>522.58</ele>
        <time>2018-07-07T14:09:56.000Z</time>
      </trkpt>
      <trkpt lat="46.24352" lon="2.73083">
        <ele>523.32</ele>
        <time>2018-07-07T14:09:59.000Z</time>
      </trkpt>
      <trkpt lat="46.24344" lon="2.7307">
        <ele>524.24</ele>
        <time>2018-07-07T14:10:02.000Z</time>
      </trkpt>
      <trkpt lat="46.24336" lon="2.73059">
        <ele>525.49</ele>
        <time>2018-07-07T14:10:05.000Z</time>
      </trkpt>
      <trkpt lat="46.24327" lon="2.7305">
        <ele>526.45</ele>
        <time>2018-07-07T14:10:08.000Z</time>
      </trkpt>
      <trkpt lat="46.24318" lon="2.73039">
        <ele>527.77</ele>
        <time>2018-07-07T14:10:11.000Z</time>
      </trkpt>
      <trkpt lat="46.24309" lon="2.73027">
        <ele>528.79</ele>
        <time>2018-07-07T14:10:14.000Z</time>
      </trkpt>
      <trkpt lat="46.24302" lon="2.73014">
        <ele>529.84</ele>
        <time>2018-07-07T14:10:17.000Z</time>
      </trkpt>
      <trkpt lat="46.24292" lon="2.73004">
        <ele>530.89</ele>
        <time>2018-07-07T14:10:20.000Z</time>
      </trkpt>
      <trkpt lat="46.24282" lon="2.72997">
        <ele>531.54</ele>
        <time>2018-07-07T14:10:23.000Z</time>
      </trkpt>
      <trkpt lat="46.24273" lon="2.72988">
        <ele>532.58</ele>
        <time>2018-07-07T14:10:26.000Z</time>
      </trkpt>
      <trkpt lat="46.24264" lon="2.72981">
        <ele>532.94</ele>
        <time>2018-07-07T14:10:29.000Z</time>
      </trkpt>
      <trkpt lat="46.24254" lon="2.72975">
        <ele>532.68</ele>
        <time>2018-07-07T14:10:32.000Z</time>
      </trkpt>
      <trkpt lat="46.24242" lon="2.7297">
        <ele>532.91</ele>
        <time>2018-07-07T14:10:35.000Z</time>
      </trkpt>
      <trkpt lat="46.24232" lon="2.72969">
        <ele>533.49</ele>
        <time>2018-07-07T14:10:37.000Z</time>
      </trkpt>
      <trkpt lat="46.24218" lon="2.72971">
        <ele>534.16</ele>
        <time>2018-07-07T14:10:40.000Z</time>
      </trkpt>
      <trkpt lat="46.24206" lon="2.72969">
        <ele>535.36</ele>
        <time>2018-07-07T14:10:43.000Z</time>
      </trkpt>
      <trkpt lat="46.24197" lon="2.72968">
        <ele>536.66</ele>
        <time>2018-07-07T14:10:45.000Z</time>
      </trkpt>
      <trkpt lat="46.24186" lon="2.72967">
        <ele>538.17</ele>
        <time>2018-07-07T14:10:47.000Z</time>
      </trkpt>
      <trkpt lat="46.24175" lon="2.7297">
        <ele>540.58</ele>
        <time>2018-07-07T14:10:50.000Z</time>
      </trkpt>
      <trkpt lat="46.24162" lon="2.72973">
        <ele>542.04</ele>
        <time>2018-07-07T14:10:53.000Z</time>
      </trkpt>
      <trkpt lat="46.2415" lon="2.72979">
        <ele>543.05</ele>
        <time>2018-07-07T14:10:56.000Z</time>
      </trkpt>
      <trkpt lat="46.24141" lon="2.72981">
        <ele>543.86</ele>
        <time>2018-07-07T14:10:58.000Z</time>
      </trkpt>
      <trkpt lat="46.2413" lon="2.7298">
        <ele>544.54</ele>
        <time>2018-07-07T14:11:00.000Z</time>
      </trkpt>
      <trkpt lat="46.24121" lon="2.72975">
        <ele>545.74</ele>
        <time>2018-07-07T14:11:02.000Z</time>
      </trkpt>
      <trkpt lat="46.2411" lon="2.72965">
        <ele>546.63</ele>
        <time>2018-07-07T14:11:04.000Z</time>
      </trkpt>
      <trkpt lat="46.24101" lon="2.72953">
        <ele>546.97</ele>
        <time>2018-07-07T14:11:06.000Z</time>
      </trkpt>
      <trkpt lat="46.24095" lon="2.7294">
        <ele>547.24</ele>
        <time>2018-07-07T14:11:08.000Z</time>
      </trkpt>
      <trkpt lat="46.24091" lon="2.72928">
        <ele>547.85</ele>
        <time>2018-07-07T14:11:10.000Z</time>
      </trkpt>
      <trkpt lat="46.24086" lon="2.72915">
        <ele>548.71</ele>
        <time>2018-07-07T14:11:12.000Z</time>
      </trkpt>
      <trkpt lat="46.24081" lon="2.72902">
        <ele>549.22</ele>
        <time>2018-07-07T14:11:14.000Z</time>
      </trkpt>
      <trkpt lat="46.24077" lon="2.72889">
        <ele>549.67</ele>
        <time>2018-07-07T14:11:16.000Z</time>
      </trkpt>
      <trkpt lat="46.2407" lon="2.72873">
        <ele>550.94</ele>
        <time>2018-07-07T14:11:19.000Z</time>
      </trkpt>
      <trkpt lat="46.24062" lon="2.72858">
        <ele>551.88</ele>
        <time>2018-07-07T14:11:22.000Z</time>
      </trkpt>
      <trkpt lat="46.24053" lon="2.72843">
        <ele>553.17</ele>
        <time>2018-07-07T14:11:25.000Z</time>
      </trkpt>
      <trkpt lat="46.24045" lon="2.72835">
        <ele>553.36</ele>
        <time>2018-07-07T14:11:27.000Z</time>
      </trkpt>
      <trkpt lat="46.24038" lon="2.72827">
        <ele>553.42</ele>
        <time>2018-07-07T14:11:29.000Z</time>
      </trkpt>
      <trkpt lat="46.24025" lon="2.72818">
        <ele>553.35</ele>
        <time>2018-07-07T14:11:32.000Z</time>
      </trkpt>
      <trkpt lat="46.24016" lon="2.72814">
        <ele>553.47</ele>
        <time>2018-07-07T14:11:34.000Z</time>
      </trkpt>
      <trkpt lat="46.24007" lon="2.72809">
        <ele>553.34</ele>
        <time>2018-07-07T14:11:36.000Z</time>
      </trkpt>
      <trkpt lat="46.23998" lon="2.72804">
        <ele>553.63</ele>
        <time>2018-07-07T14:11:38.000Z</time>
      </trkpt>
      <trkpt lat="46.23986" lon="2.72797">
        <ele>554.46</ele>
        <time>2018-07-07T14:11:41.000Z</time>
      </trkpt>
      <trkpt lat="46.23975" lon="2.7279">
        <ele>555.71</ele>
        <time>2018-07-07T14:11:44.000Z</time>
      </trkpt>
      <trkpt lat="46.23964" lon="2.72782">
        <ele>556.63</ele>
        <time>2018-07-07T14:11:47.000Z</time>
      </trkpt>
      <trkpt lat="46.23952" lon="2.72776">
        <ele>557.5</ele>
        <time>2018-07-07T14:11:50.000Z</time>
      </trkpt>
      <trkpt lat="46.23943" lon="2.7277">
        <ele>558.99</ele>
        <time>2018-07-07T14:11:53.000Z</time>
      </trkpt>
      <trkpt lat="46.23932" lon="2.72763">
        <ele>559.83</ele>
        <time>2018-07-07T14:11:56.000Z</time>
      </trkpt>
      <trkpt lat="46.23921" lon="2.72757">
        <ele>560.84</ele>
        <time>2018-07-07T14:11:59.000Z</time>
      </trkpt>
      <trkpt lat="46.23912" lon="2.72752">
        <ele>561.72</ele>
        <time>2018-07-07T14:12:01.000Z</time>
      </trkpt>
      <trkpt lat="46.23903" lon="2.72747">
        <ele>562.28</ele>
        <time>2018-07-07T14:12:03.000Z</time>
      </trkpt>
      <trkpt lat="46.23895" lon="2.72741">
        <ele>562.73</ele>
        <time>2018-07-07T14:12:05.000Z</time>
      </trkpt>
      <trkpt lat="46.23884" lon="2.72732">
        <ele>563.38</ele>
        <time>2018-07-07T14:12:08.000Z</time>
      </trkpt>
      <trkpt lat="46.23874" lon="2.7272">
        <ele>563.92</ele>
        <time>2018-07-07T14:12:11.000Z</time>
      </trkpt>
      <trkpt lat="46.23869" lon="2.72708">
        <ele>564.12</ele>
        <time>2018-07-07T14:12:13.000Z</time>
      </trkpt>
      <trkpt lat="46.23862" lon="2.72691">
        <ele>564.81</ele>
        <time>2018-07-07T14:12:16.000Z</time>
      </trkpt>
      <trkpt lat="46.23857" lon="2.72679">
        <ele>565.24</ele>
        <time>2018-07-07T14:12:18.000Z</time>
      </trkpt>
      <trkpt lat="46.23852" lon="2.72665">
        <ele>565.98</ele>
        <time>2018-07-07T14:12:20.000Z</time>
      </trkpt>
      <trkpt lat="46.23847" lon="2.72651">
        <ele>566.87</ele>
        <time>2018-07-07T14:12:22.000Z</time>
      </trkpt>
      <trkpt lat="46.23841" lon="2.72634">
        <ele>567.7</ele>
        <time>2018-07-07T14:12:24.000Z</time>
      </trkpt>
      <trkpt lat="46.23834" lon="2.72618">
        <ele>568.36</ele>
        <time>2018-07-07T14:12:26.000Z</time>
      </trkpt>
      <trkpt lat="46.23825" lon="2.72604">
        <ele>569.05</ele>
        <time>2018-07-07T14:12:28.000Z</time>
      </trkpt>
      <trkpt lat="46.23815" lon="2.72591">
        <ele>569.35</ele>
        <time>2018-07-07T14:12:30.000Z</time>
      </trkpt>
      <trkpt lat="46.23803" lon="2.72579">
        <ele>568.6</ele>
        <time>2018-07-07T14:12:32.000Z</time>
      </trkpt>
      <trkpt lat="46.2379" lon="2.72565">
        <ele>567.5</ele>
        <time>2018-07-07T14:12:34.000Z</time>
      </trkpt>
      <trkpt lat="46.23776" lon="2.72551">
        <ele>566.61</ele>
        <time>2018-07-07T14:12:36.000Z</time>
      </trkpt>
      <trkpt lat="46.23763" lon="2.72537">
        <ele>566.37</ele>
        <time>2018-07-07T14:12:38.000Z</time>
      </trkpt>
      <trkpt lat="46.23751" lon="2.72523">
        <ele>566.99</ele>
        <time>2018-07-07T14:12:40.000Z</time>
      </trkpt>
      <trkpt lat="46.23736" lon="2.72511">
        <ele>567.73</ele>
        <time>2018-07-07T14:12:42.000Z</time>
      </trkpt>
      <trkpt lat="46.23719" lon="2.72503">
        <ele>567.77</ele>
        <time>2018-07-07T14:12:44.000Z</time>
      </trkpt>
      <trkpt lat="46.23703" lon="2.72497">
        <ele>567.23</ele>
        <time>2018-07-07T14:12:46.000Z</time>
      </trkpt>
      <trkpt lat="46.23686" lon="2.72492">
        <ele>566.42</ele>
        <time>2018-07-07T14:12:48.000Z</time>
      </trkpt>
      <trkpt lat="46.23671" lon="2.72486">
        <ele>565.61</ele>
        <time>2018-07-07T14:12:50.000Z</time>
      </trkpt>
      <trkpt lat="46.23655" lon="2.7248">
        <ele>565.08</ele>
        <time>2018-07-07T14:12:52.000Z</time>
      </trkpt>
      <trkpt lat="46.23639" lon="2.72474">
        <ele>564.29</ele>
        <time>2018-07-07T14:12:54.000Z</time>
      </trkpt>
      <trkpt lat="46.23624" lon="2.7247">
        <ele>563.12</ele>
        <time>2018-07-07T14:12:56.000Z</time>
      </trkpt>
      <trkpt lat="46.23608" lon="2.72466">
        <ele>562.91</ele>
        <time>2018-07-07T14:12:58.000Z</time>
      </trkpt>
      <trkpt lat="46.23594" lon="2.72462">
        <ele>563.27</ele>
        <time>2018-07-07T14:13:00.000Z</time>
      </trkpt>
      <trkpt lat="46.23579" lon="2.72459">
        <ele>563.71</ele>
        <time>2018-07-07T14:13:02.000Z</time>
      </trkpt>
      <trkpt lat="46.23565" lon="2.72457">
        <ele>563.93</ele>
        <time>2018-07-07T14:13:04.000Z</time>
      </trkpt>
      <trkpt lat="46.2355" lon="2.72457">
        <ele>564.03</ele>
        <time>2018-07-07T14:13:06.000Z</time>
      </trkpt>
      <trkpt lat="46.23535" lon="2.72458">
        <ele>563.72</ele>
        <time>2018-07-07T14:13:08.000Z</time>
      </trkpt>
      <trkpt lat="46.23522" lon="2.72459">
        <ele>564.19</ele>
        <time>2018-07-07T14:13:10.000Z</time>
      </trkpt>
      <trkpt lat="46.23508" lon="2.72459">
        <ele>564.53</ele>
        <time>2018-07-07T14:13:12.000Z</time>
      </trkpt>
      <trkpt lat="46.23497" lon="2.72458">
        <ele>564.73</ele>
        <time>2018-07-07T14:13:14.000Z</time>
      </trkpt>
      <trkpt lat="46.23485" lon="2.72459">
        <ele>565.01</ele>
        <time>2018-07-07T14:13:16.000Z</time>
      </trkpt>
      <trkpt lat="46.23476" lon="2.72458">
        <ele>565.88</ele>
        <time>2018-07-07T14:13:18.000Z</time>
      </trkpt>
      <trkpt lat="46.23463" lon="2.72458">
        <ele>566.15</ele>
        <time>2018-07-07T14:13:20.000Z</time>
      </trkpt>
      <trkpt lat="46.2345" lon="2.72459">
        <ele>566.61</ele>
        <time>2018-07-07T14:13:22.000Z</time>
      </trkpt>
      <trkpt lat="46.23436" lon="2.72461">
        <ele>567.21</ele>
        <time>2018-07-07T14:13:24.000Z</time>
      </trkpt>
      <trkpt lat="46.23422" lon="2.72463">
        <ele>567.98</ele>
        <time>2018-07-07T14:13:26.000Z</time>
      </trkpt>
      <trkpt lat="46.23407" lon="2.72463">
        <ele>568.27</ele>
        <time>2018-07-07T14:13:28.000Z</time>
      </trkpt>
      <trkpt lat="46.23393" lon="2.72465">
        <ele>568.18</ele>
        <time>2018-07-07T14:13:30.000Z</time>
      </trkpt>
      <trkpt lat="46.23378" lon="2.72466">
        <ele>568.96</ele>
        <time>2018-07-07T14:13:32.000Z</time>
      </trkpt>
      <trkpt lat="46.23364" lon="2.72468">
        <ele>570.13</ele>
        <time>2018-07-07T14:13:34.000Z</time>
      </trkpt>
      <trkpt lat="46.23348" lon="2.7247">
        <ele>571.49</ele>
        <time>2018-07-07T14:13:36.000Z</time>
      </trkpt>
      <trkpt lat="46.23332" lon="2.72471">
        <ele>572.27</ele>
        <time>2018-07-07T14:13:38.000Z</time>
      </trkpt>
      <trkpt lat="46.23318" lon="2.72472">
        <ele>572.59</ele>
        <time>2018-07-07T14:13:40.000Z</time>
      </trkpt>
      <trkpt lat="46.23303" lon="2.72472">
        <ele>572.19</ele>
        <time>2018-07-07T14:13:42.000Z</time>
      </trkpt>
      <trkpt lat="46.23288" lon="2.72473">
        <ele>571.84</ele>
        <time>2018-07-07T14:13:44.000Z</time>
      </trkpt>
      <trkpt lat="46.23273" lon="2.72473">
        <ele>571.56</ele>
        <time>2018-07-07T14:13:46.000Z</time>
      </trkpt>
      <trkpt lat="46.23257" lon="2.72473">
        <ele>571.14</ele>
        <time>2018-07-07T14:13:48.000Z</time>
      </trkpt>
      <trkpt lat="46.23241" lon="2.72474">
        <ele>570.59</ele>
        <time>2018-07-07T14:13:50.000Z</time>
      </trkpt>
      <trkpt lat="46.23225" lon="2.72475">
        <ele>569.86</ele>
        <time>2018-07-07T14:13:52.000Z</time>
      </trkpt>
      <trkpt lat="46.23208" lon="2.72474">
        <ele>568.7</ele>
        <time>2018-07-07T14:13:54.000Z</time>
      </trkpt>
      <trkpt lat="46.23191" lon="2.72474">
        <ele>567.92</ele>
        <time>2018-07-07T14:13:56.000Z</time>
      </trkpt>
      <trkpt lat="46.23174" lon="2.72473">
        <ele>566.92</ele>
        <time>2018-07-07T14:13:58.000Z</time>
      </trkpt>
      <trkpt lat="46.23157" lon="2.72473">
        <ele>565.89</ele>
        <time>2018-07-07T14:14:00.000Z</time>
      </trkpt>
      <trkpt lat="46.2314" lon="2.72474">
        <ele>564.95</ele>
        <time>2018-07-07T14:14:02.000Z</time>
      </trkpt>
      <trkpt lat="46.23123" lon="2.72475">
        <ele>564.24</ele>
        <time>2018-07-07T14:14:04.000Z</time>
      </trkpt>
      <trkpt lat="46.23108" lon="2.72476">
        <ele>563.52</ele>
        <time>2018-07-07T14:14:06.000Z</time>
      </trkpt>
      <trkpt lat="46.23093" lon="2.72478">
        <ele>563.07</ele>
        <time>2018-07-07T14:14:08.000Z</time>
      </trkpt>
      <trkpt lat="46.23078" lon="2.72477">
        <ele>562.54</ele>
        <time>2018-07-07T14:14:10.000Z</time>
      </trkpt>
      <trkpt lat="46.23062" lon="2.72472">
        <ele>562.05</ele>
        <time>2018-07-07T14:14:12.000Z</time>
      </trkpt>
      <trkpt lat="46.23047" lon="2.72463">
        <ele>561.27</ele>
        <time>2018-07-07T14:14:14.000Z</time>
      </trkpt>
      <trkpt lat="46.23034" lon="2.7245">
        <ele>561.13</ele>
        <time>2018-07-07T14:14:16.000Z</time>
      </trkpt>
      <trkpt lat="46.23024" lon="2.72435">
        <ele>561.01</ele>
        <time>2018-07-07T14:14:18.000Z</time>
      </trkpt>
      <trkpt lat="46.23014" lon="2.72418">
        <ele>560.97</ele>
        <time>2018-07-07T14:14:20.000Z</time>
      </trkpt>
      <trkpt lat="46.23005" lon="2.72402">
        <ele>561.19</ele>
        <time>2018-07-07T14:14:22.000Z</time>
      </trkpt>
      <trkpt lat="46.22996" lon="2.7239">
        <ele>561.56</ele>
        <time>2018-07-07T14:14:24.000Z</time>
      </trkpt>
      <trkpt lat="46.22986" lon="2.72387">
        <ele>562.11</ele>
        <time>2018-07-07T14:14:26.000Z</time>
      </trkpt>
      <trkpt lat="46.22976" lon="2.72395">
        <ele>563.04</ele>
        <time>2018-07-07T14:14:28.000Z</time>
      </trkpt>
      <trkpt lat="46.22966" lon="2.72404">
        <ele>563.09</ele>
        <time>2018-07-07T14:14:30.000Z</time>
      </trkpt>
      <trkpt lat="46.22956" lon="2.72414">
        <ele>562.35</ele>
        <time>2018-07-07T14:14:32.000Z</time>
      </trkpt>
      <trkpt lat="46.22948" lon="2.72425">
        <ele>562.25</ele>
        <time>2018-07-07T14:14:34.000Z</time>
      </trkpt>
      <trkpt lat="46.2294" lon="2.72437">
        <ele>562.3</ele>
        <time>2018-07-07T14:14:36.000Z</time>
      </trkpt>
      <trkpt lat="46.22932" lon="2.72447">
        <ele>562.26</ele>
        <time>2018-07-07T14:14:38.000Z</time>
      </trkpt>
      <trkpt lat="46.22923" lon="2.72458">
        <ele>562.3</ele>
        <time>2018-07-07T14:14:40.000Z</time>
      </trkpt>
      <trkpt lat="46.22915" lon="2.72469">
        <ele>562.45</ele>
        <time>2018-07-07T14:14:42.000Z</time>
      </trkpt>
      <trkpt lat="46.22905" lon="2.7248">
        <ele>562.4</ele>
        <time>2018-07-07T14:14:44.000Z</time>
      </trkpt>
      <trkpt lat="46.22897" lon="2.72492">
        <ele>562.74</ele>
        <time>2018-07-07T14:14:46.000Z</time>
      </trkpt>
      <trkpt lat="46.2289" lon="2.72504">
        <ele>563.05</ele>
        <time>2018-07-07T14:14:48.000Z</time>
      </trkpt>
      <trkpt lat="46.22881" lon="2.72515">
        <ele>563.2</ele>
        <time>2018-07-07T14:14:50.000Z</time>
      </trkpt>
      <trkpt lat="46.22872" lon="2.72528">
        <ele>563.41</ele>
        <time>2018-07-07T14:14:52.000Z</time>
      </trkpt>
      <trkpt lat="46.22863" lon="2.7254">
        <ele>563.44</ele>
        <time>2018-07-07T14:14:54.000Z</time>
      </trkpt>
      <trkpt lat="46.22855" lon="2.72552">
        <ele>563.33</ele>
        <time>2018-07-07T14:14:56.000Z</time>
      </trkpt>
      <trkpt lat="46.22846" lon="2.72564">
        <ele>563.18</ele>
        <time>2018-07-07T14:14:58.000Z</time>
      </trkpt>
      <trkpt lat="46.22837" lon="2.72574">
        <ele>562.79</ele>
        <time>2018-07-07T14:15:00.000Z</time>
      </trkpt>
      <trkpt lat="46.22829" lon="2.72586">
        <ele>562.49</ele>
        <time>2018-07-07T14:15:02.000Z</time>
      </trkpt>
      <trkpt lat="46.2282" lon="2.726">
        <ele>562.24</ele>
        <time>2018-07-07T14:15:04.000Z</time>
      </trkpt>
      <trkpt lat="46.22811" lon="2.72613">
        <ele>562.34</ele>
        <time>2018-07-07T14:15:06.000Z</time>
      </trkpt>
      <trkpt lat="46.22802" lon="2.72627">
        <ele>562.6</ele>
        <time>2018-07-07T14:15:08.000Z</time>
      </trkpt>
      <trkpt lat="46.22792" lon="2.7264">
        <ele>562.66</ele>
        <time>2018-07-07T14:15:10.000Z</time>
      </trkpt>
      <trkpt lat="46.22782" lon="2.72655">
        <ele>563</ele>
        <time>2018-07-07T14:15:12.000Z</time>
      </trkpt>
      <trkpt lat="46.22771" lon="2.72669">
        <ele>563.54</ele>
        <time>2018-07-07T14:15:14.000Z</time>
      </trkpt>
      <trkpt lat="46.2276" lon="2.72683">
        <ele>564.02</ele>
        <time>2018-07-07T14:15:16.000Z</time>
      </trkpt>
      <trkpt lat="46.22749" lon="2.72699">
        <ele>564.27</ele>
        <time>2018-07-07T14:15:18.000Z</time>
      </trkpt>
      <trkpt lat="46.22736" lon="2.72716">
        <ele>564.39</ele>
        <time>2018-07-07T14:15:20.000Z</time>
      </trkpt>
      <trkpt lat="46.22723" lon="2.72731">
        <ele>564.28</ele>
        <time>2018-07-07T14:15:22.000Z</time>
      </trkpt>
      <trkpt lat="46.22711" lon="2.72747">
        <ele>563.78</ele>
        <time>2018-07-07T14:15:24.000Z</time>
      </trkpt>
      <trkpt lat="46.227" lon="2.72757">
        <ele>563</ele>
        <time>2018-07-07T14:15:26.000Z</time>
      </trkpt>
      <trkpt lat="46.22691" lon="2.72754">
        <ele>562.01</ele>
        <time>2018-07-07T14:15:28.000Z</time>
      </trkpt>
      <trkpt lat="46.22686" lon="2.72734">
        <ele>562.02</ele>
        <time>2018-07-07T14:15:30.000Z</time>
      </trkpt>
      <trkpt lat="46.22686" lon="2.72711">
        <ele>561.44</ele>
        <time>2018-07-07T14:15:32.000Z</time>
      </trkpt>
      <trkpt lat="46.22684" lon="2.7269">
        <ele>561.07</ele>
        <time>2018-07-07T14:15:34.000Z</time>
      </trkpt>
      <trkpt lat="46.22681" lon="2.72671">
        <ele>561.04</ele>
        <time>2018-07-07T14:15:36.000Z</time>
      </trkpt>
      <trkpt lat="46.22674" lon="2.72654">
        <ele>561.1</ele>
        <time>2018-07-07T14:15:38.000Z</time>
      </trkpt>
      <trkpt lat="46.22665" lon="2.72638">
        <ele>560.72</ele>
        <time>2018-07-07T14:15:40.000Z</time>
      </trkpt>
      <trkpt lat="46.22655" lon="2.72623">
        <ele>560.35</ele>
        <time>2018-07-07T14:15:42.000Z</time>
      </trkpt>
      <trkpt lat="46.22645" lon="2.72606">
        <ele>560.24</ele>
        <time>2018-07-07T14:15:44.000Z</time>
      </trkpt>
      <trkpt lat="46.22635" lon="2.7259">
        <ele>560.36</ele>
        <time>2018-07-07T14:15:46.000Z</time>
      </trkpt>
      <trkpt lat="46.22625" lon="2.72573">
        <ele>560.41</ele>
        <time>2018-07-07T14:15:48.000Z</time>
      </trkpt>
      <trkpt lat="46.22614" lon="2.72558">
        <ele>560.29</ele>
        <time>2018-07-07T14:15:50.000Z</time>
      </trkpt>
      <trkpt lat="46.22604" lon="2.72542">
        <ele>560.04</ele>
        <time>2018-07-07T14:15:52.000Z</time>
      </trkpt>
      <trkpt lat="46.22593" lon="2.72524">
        <ele>559.58</ele>
        <time>2018-07-07T14:15:54.000Z</time>
      </trkpt>
      <trkpt lat="46.22582" lon="2.72506">
        <ele>559.42</ele>
        <time>2018-07-07T14:15:56.000Z</time>
      </trkpt>
      <trkpt lat="46.2257" lon="2.72489">
        <ele>559.22</ele>
        <time>2018-07-07T14:15:58.000Z</time>
      </trkpt>
      <trkpt lat="46.2256" lon="2.72473">
        <ele>559.26</ele>
        <time>2018-07-07T14:16:00.000Z</time>
      </trkpt>
      <trkpt lat="46.22549" lon="2.72456">
        <ele>559.43</ele>
        <time>2018-07-07T14:16:02.000Z</time>
      </trkpt>
      <trkpt lat="46.22539" lon="2.72438">
        <ele>559.46</ele>
        <time>2018-07-07T14:16:04.000Z</time>
      </trkpt>
      <trkpt lat="46.22529" lon="2.72419">
        <ele>559.41</ele>
        <time>2018-07-07T14:16:06.000Z</time>
      </trkpt>
      <trkpt lat="46.22519" lon="2.724">
        <ele>559.02</ele>
        <time>2018-07-07T14:16:08.000Z</time>
      </trkpt>
      <trkpt lat="46.22508" lon="2.72381">
        <ele>558.51</ele>
        <time>2018-07-07T14:16:10.000Z</time>
      </trkpt>
      <trkpt lat="46.22497" lon="2.72363">
        <ele>558.04</ele>
        <time>2018-07-07T14:16:12.000Z</time>
      </trkpt>
      <trkpt lat="46.22486" lon="2.72346">
        <ele>557.37</ele>
        <time>2018-07-07T14:16:14.000Z</time>
      </trkpt>
      <trkpt lat="46.22476" lon="2.72331">
        <ele>556.79</ele>
        <time>2018-07-07T14:16:16.000Z</time>
      </trkpt>
      <trkpt lat="46.22467" lon="2.72315">
        <ele>556.61</ele>
        <time>2018-07-07T14:16:18.000Z</time>
      </trkpt>
      <trkpt lat="46.22456" lon="2.72301">
        <ele>556.34</ele>
        <time>2018-07-07T14:16:20.000Z</time>
      </trkpt>
      <trkpt lat="46.22445" lon="2.72288">
        <ele>556.17</ele>
        <time>2018-07-07T14:16:22.000Z</time>
      </trkpt>
      <trkpt lat="46.22433" lon="2.72276">
        <ele>556.25</ele>
        <time>2018-07-07T14:16:24.000Z</time>
      </trkpt>
      <trkpt lat="46.22417" lon="2.72265">
        <ele>556.48</ele>
        <time>2018-07-07T14:16:26.000Z</time>
      </trkpt>
      <trkpt lat="46.22402" lon="2.72254">
        <ele>556.2</ele>
        <time>2018-07-07T14:16:28.000Z</time>
      </trkpt>
      <trkpt lat="46.22389" lon="2.72244">
        <ele>556.35</ele>
        <time>2018-07-07T14:16:30.000Z</time>
      </trkpt>
      <trkpt lat="46.22376" lon="2.72236">
        <ele>556.97</ele>
        <time>2018-07-07T14:16:32.000Z</time>
      </trkpt>
      <trkpt lat="46.22365" lon="2.72229">
        <ele>557.49</ele>
        <time>2018-07-07T14:16:34.000Z</time>
      </trkpt>
      <trkpt lat="46.22355" lon="2.72224">
        <ele>557.76</ele>
        <time>2018-07-07T14:16:36.000Z</time>
      </trkpt>
      <trkpt lat="46.22344" lon="2.72219">
        <ele>558.09</ele>
        <time>2018-07-07T14:16:38.000Z</time>
      </trkpt>
      <trkpt lat="46.22332" lon="2.72214">
        <ele>558.2</ele>
        <time>2018-07-07T14:16:40.000Z</time>
      </trkpt>
      <trkpt lat="46.22319" lon="2.7221">
        <ele>558.15</ele>
        <time>2018-07-07T14:16:42.000Z</time>
      </trkpt>
      <trkpt lat="46.22306" lon="2.72205">
        <ele>558.15</ele>
        <time>2018-07-07T14:16:44.000Z</time>
      </trkpt>
      <trkpt lat="46.22293" lon="2.722">
        <ele>558.07</ele>
        <time>2018-07-07T14:16:46.000Z</time>
      </trkpt>
      <trkpt lat="46.22279" lon="2.72196">
        <ele>558.59</ele>
        <time>2018-07-07T14:16:48.000Z</time>
      </trkpt>
      <trkpt lat="46.22266" lon="2.7219">
        <ele>558.49</ele>
        <time>2018-07-07T14:16:50.000Z</time>
      </trkpt>
      <trkpt lat="46.22253" lon="2.72184">
        <ele>558.3</ele>
        <time>2018-07-07T14:16:52.000Z</time>
      </trkpt>
      <trkpt lat="46.2224" lon="2.72178">
        <ele>558.02</ele>
        <time>2018-07-07T14:16:54.000Z</time>
      </trkpt>
      <trkpt lat="46.22227" lon="2.72172">
        <ele>558.15</ele>
        <time>2018-07-07T14:16:56.000Z</time>
      </trkpt>
      <trkpt lat="46.22215" lon="2.72166">
        <ele>558.33</ele>
        <time>2018-07-07T14:16:58.000Z</time>
      </trkpt>
      <trkpt lat="46.22201" lon="2.72161">
        <ele>558.39</ele>
        <time>2018-07-07T14:17:00.000Z</time>
      </trkpt>
      <trkpt lat="46.22188" lon="2.72157">
        <ele>558.07</ele>
        <time>2018-07-07T14:17:02.000Z</time>
      </trkpt>
      <trkpt lat="46.22176" lon="2.72152">
        <ele>557.8</ele>
        <time>2018-07-07T14:17:04.000Z</time>
      </trkpt>
      <trkpt lat="46.22165" lon="2.72148">
        <ele>558.06</ele>
        <time>2018-07-07T14:17:06.000Z</time>
      </trkpt>
      <trkpt lat="46.22155" lon="2.72143">
        <ele>558.58</ele>
        <time>2018-07-07T14:17:08.000Z</time>
      </trkpt>
      <trkpt lat="46.22146" lon="2.72135">
        <ele>559.03</ele>
        <time>2018-07-07T14:17:10.000Z</time>
      </trkpt>
      <trkpt lat="46.22137" lon="2.72125">
        <ele>559.44</ele>
        <time>2018-07-07T14:17:12.000Z</time>
      </trkpt>
      <trkpt lat="46.22127" lon="2.72115">
        <ele>560.06</ele>
        <time>2018-07-07T14:17:14.000Z</time>
      </trkpt>
      <trkpt lat="46.22118" lon="2.72105">
        <ele>560.34</ele>
        <time>2018-07-07T14:17:16.000Z</time>
      </trkpt>
      <trkpt lat="46.2211" lon="2.72096">
        <ele>560.59</ele>
        <time>2018-07-07T14:17:18.000Z</time>
      </trkpt>
      <trkpt lat="46.22101" lon="2.72086">
        <ele>560.88</ele>
        <time>2018-07-07T14:17:20.000Z</time>
      </trkpt>
      <trkpt lat="46.22093" lon="2.72078">
        <ele>561.81</ele>
        <time>2018-07-07T14:17:22.000Z</time>
      </trkpt>
      <trkpt lat="46.22085" lon="2.7207">
        <ele>562.52</ele>
        <time>2018-07-07T14:17:24.000Z</time>
      </trkpt>
      <trkpt lat="46.22076" lon="2.72062">
        <ele>563.17</ele>
        <time>2018-07-07T14:17:26.000Z</time>
      </trkpt>
      <trkpt lat="46.22068" lon="2.72055">
        <ele>563.61</ele>
        <time>2018-07-07T14:17:28.000Z</time>
      </trkpt>
      <trkpt lat="46.2206" lon="2.72047">
        <ele>564.13</ele>
        <time>2018-07-07T14:17:30.000Z</time>
      </trkpt>
      <trkpt lat="46.22052" lon="2.72039">
        <ele>564.28</ele>
        <time>2018-07-07T14:17:32.000Z</time>
      </trkpt>
      <trkpt lat="46.22044" lon="2.72031">
        <ele>564.1</ele>
        <time>2018-07-07T14:17:34.000Z</time>
      </trkpt>
      <trkpt lat="46.22036" lon="2.72024">
        <ele>563.92</ele>
        <time>2018-07-07T14:17:36.000Z</time>
      </trkpt>
      <trkpt lat="46.22026" lon="2.72013">
        <ele>563.32</ele>
        <time>2018-07-07T14:17:39.000Z</time>
      </trkpt>
      <trkpt lat="46.22015" lon="2.72005">
        <ele>563.19</ele>
        <time>2018-07-07T14:17:42.000Z</time>
      </trkpt>
      <trkpt lat="46.22004" lon="2.71998">
        <ele>563.32</ele>
        <time>2018-07-07T14:17:45.000Z</time>
      </trkpt>
      <trkpt lat="46.21993" lon="2.71989">
        <ele>563.6</ele>
        <time>2018-07-07T14:17:48.000Z</time>
      </trkpt>
      <trkpt lat="46.21985" lon="2.71982">
        <ele>564.23</ele>
        <time>2018-07-07T14:17:50.000Z</time>
      </trkpt>
      <trkpt lat="46.21974" lon="2.71973">
        <ele>566.23</ele>
        <time>2018-07-07T14:17:53.000Z</time>
      </trkpt>
      <trkpt lat="46.21964" lon="2.71966">
        <ele>568.26</ele>
        <time>2018-07-07T14:17:56.000Z</time>
      </trkpt>
      <trkpt lat="46.21953" lon="2.71955">
        <ele>569.67</ele>
        <time>2018-07-07T14:17:59.000Z</time>
      </trkpt>
      <trkpt lat="46.21942" lon="2.71947">
        <ele>570.57</ele>
        <time>2018-07-07T14:18:02.000Z</time>
      </trkpt>
      <trkpt lat="46.21929" lon="2.71947">
        <ele>571.14</ele>
        <time>2018-07-07T14:18:05.000Z</time>
      </trkpt>
      <trkpt lat="46.2192" lon="2.71951">
        <ele>571.83</ele>
        <time>2018-07-07T14:18:07.000Z</time>
      </trkpt>
      <trkpt lat="46.21909" lon="2.71955">
        <ele>572.41</ele>
        <time>2018-07-07T14:18:10.000Z</time>
      </trkpt>
      <trkpt lat="46.21899" lon="2.71956">
        <ele>572.98</ele>
        <time>2018-07-07T14:18:13.000Z</time>
      </trkpt>
      <trkpt lat="46.21889" lon="2.71959">
        <ele>573.93</ele>
        <time>2018-07-07T14:18:16.000Z</time>
      </trkpt>
      <trkpt lat="46.21875" lon="2.71962">
        <ele>574.83</ele>
        <time>2018-07-07T14:18:18.000Z</time>
      </trkpt>
      <trkpt lat="46.21866" lon="2.71965">
        <ele>575.48</ele>
        <time>2018-07-07T14:18:20.000Z</time>
      </trkpt>
      <trkpt lat="46.21856" lon="2.7197">
        <ele>576.48</ele>
        <time>2018-07-07T14:18:23.000Z</time>
      </trkpt>
      <trkpt lat="46.21845" lon="2.71975">
        <ele>576.87</ele>
        <time>2018-07-07T14:18:25.000Z</time>
      </trkpt>
      <trkpt lat="46.2183" lon="2.71979">
        <ele>577.06</ele>
        <time>2018-07-07T14:18:27.000Z</time>
      </trkpt>
      <trkpt lat="46.2182" lon="2.71986">
        <ele>576.98</ele>
        <time>2018-07-07T14:18:29.000Z</time>
      </trkpt>
      <trkpt lat="46.21802" lon="2.71987">
        <ele>574.4</ele>
        <time>2018-07-07T14:18:31.000Z</time>
      </trkpt>
      <trkpt lat="46.21788" lon="2.71992">
        <ele>573.42</ele>
        <time>2018-07-07T14:18:33.000Z</time>
      </trkpt>
      <trkpt lat="46.21779" lon="2.71999">
        <ele>574.04</ele>
        <time>2018-07-07T14:18:35.000Z</time>
      </trkpt>
      <trkpt lat="46.21768" lon="2.72003">
        <ele>574.02</ele>
        <time>2018-07-07T14:18:37.000Z</time>
      </trkpt>
      <trkpt lat="46.21756" lon="2.72005">
        <ele>573.91</ele>
        <time>2018-07-07T14:18:39.000Z</time>
      </trkpt>
      <trkpt lat="46.21744" lon="2.72004">
        <ele>574.19</ele>
        <time>2018-07-07T14:18:41.000Z</time>
      </trkpt>
      <trkpt lat="46.21735" lon="2.72001">
        <ele>574.8</ele>
        <time>2018-07-07T14:18:43.000Z</time>
      </trkpt>
      <trkpt lat="46.21727" lon="2.71994">
        <ele>575.65</ele>
        <time>2018-07-07T14:18:45.000Z</time>
      </trkpt>
      <trkpt lat="46.21718" lon="2.71981">
        <ele>576.38</ele>
        <time>2018-07-07T14:18:47.000Z</time>
      </trkpt>
      <trkpt lat="46.21708" lon="2.71966">
        <ele>576.82</ele>
        <time>2018-07-07T14:18:50.000Z</time>
      </trkpt>
      <trkpt lat="46.21698" lon="2.71954">
        <ele>577.36</ele>
        <time>2018-07-07T14:18:52.000Z</time>
      </trkpt>
      <trkpt lat="46.2169" lon="2.7194">
        <ele>579.38</ele>
        <time>2018-07-07T14:18:55.000Z</time>
      </trkpt>
      <trkpt lat="46.21684" lon="2.71923">
        <ele>580.53</ele>
        <time>2018-07-07T14:18:58.000Z</time>
      </trkpt>
      <trkpt lat="46.21676" lon="2.71915">
        <ele>580.67</ele>
        <time>2018-07-07T14:19:00.000Z</time>
      </trkpt>
      <trkpt lat="46.21666" lon="2.71906">
        <ele>580.95</ele>
        <time>2018-07-07T14:19:02.000Z</time>
      </trkpt>
      <trkpt lat="46.21656" lon="2.71897">
        <ele>581.22</ele>
        <time>2018-07-07T14:19:04.000Z</time>
      </trkpt>
      <trkpt lat="46.21647" lon="2.71888">
        <ele>581.84</ele>
        <time>2018-07-07T14:19:06.000Z</time>
      </trkpt>
      <trkpt lat="46.21636" lon="2.71877">
        <ele>583.84</ele>
        <time>2018-07-07T14:19:09.000Z</time>
      </trkpt>
      <trkpt lat="46.21623" lon="2.7187">
        <ele>585.73</ele>
        <time>2018-07-07T14:19:12.000Z</time>
      </trkpt>
      <trkpt lat="46.21614" lon="2.71862">
        <ele>587.15</ele>
        <time>2018-07-07T14:19:14.000Z</time>
      </trkpt>
      <trkpt lat="46.21606" lon="2.71849">
        <ele>588.67</ele>
        <time>2018-07-07T14:19:16.000Z</time>
      </trkpt>
      <trkpt lat="46.21599" lon="2.71838">
        <ele>589.81</ele>
        <time>2018-07-07T14:19:18.000Z</time>
      </trkpt>
      <trkpt lat="46.21594" lon="2.71823">
        <ele>590.8</ele>
        <time>2018-07-07T14:19:20.000Z</time>
      </trkpt>
      <trkpt lat="46.21589" lon="2.71809">
        <ele>591.68</ele>
        <time>2018-07-07T14:19:22.000Z</time>
      </trkpt>
      <trkpt lat="46.21583" lon="2.71794">
        <ele>593.52</ele>
        <time>2018-07-07T14:19:25.000Z</time>
      </trkpt>
      <trkpt lat="46.21577" lon="2.71778">
        <ele>594.54</ele>
        <time>2018-07-07T14:19:28.000Z</time>
      </trkpt>
      <trkpt lat="46.21569" lon="2.71768">
        <ele>595.19</ele>
        <time>2018-07-07T14:19:31.000Z</time>
      </trkpt>
      <trkpt lat="46.21562" lon="2.71755">
        <ele>595.44</ele>
        <time>2018-07-07T14:19:34.000Z</time>
      </trkpt>
      <trkpt lat="46.21557" lon="2.71742">
        <ele>596</ele>
        <time>2018-07-07T14:19:36.000Z</time>
      </trkpt>
      <trkpt lat="46.2155" lon="2.71731">
        <ele>596.73</ele>
        <time>2018-07-07T14:19:38.000Z</time>
      </trkpt>
      <trkpt lat="46.21538" lon="2.71727">
        <ele>597.86</ele>
        <time>2018-07-07T14:19:41.000Z</time>
      </trkpt>
      <trkpt lat="46.21526" lon="2.71721">
        <ele>599.89</ele>
        <time>2018-07-07T14:19:44.000Z</time>
      </trkpt>
      <trkpt lat="46.21516" lon="2.71714">
        <ele>603.01</ele>
        <time>2018-07-07T14:19:47.000Z</time>
      </trkpt>
      <trkpt lat="46.21506" lon="2.71706">
        <ele>605.1</ele>
        <time>2018-07-07T14:19:50.000Z</time>
      </trkpt>
      <trkpt lat="46.21496" lon="2.717">
        <ele>606.98</ele>
        <time>2018-07-07T14:19:53.000Z</time>
      </trkpt>
      <trkpt lat="46.21486" lon="2.71692">
        <ele>607.92</ele>
        <time>2018-07-07T14:19:56.000Z</time>
      </trkpt>
      <trkpt lat="46.21478" lon="2.71682">
        <ele>607.83</ele>
        <time>2018-07-07T14:19:58.000Z</time>
      </trkpt>
      <trkpt lat="46.2147" lon="2.71669">
        <ele>608.64</ele>
        <time>2018-07-07T14:20:01.000Z</time>
      </trkpt>
      <trkpt lat="46.21461" lon="2.71658">
        <ele>609.16</ele>
        <time>2018-07-07T14:20:03.000Z</time>
      </trkpt>
      <trkpt lat="46.2145" lon="2.71649">
        <ele>609.36</ele>
        <time>2018-07-07T14:20:05.000Z</time>
      </trkpt>
      <trkpt lat="46.21442" lon="2.71643">
        <ele>609.91</ele>
        <time>2018-07-07T14:20:07.000Z</time>
      </trkpt>
      <trkpt lat="46.21433" lon="2.71635">
        <ele>609.98</ele>
        <time>2018-07-07T14:20:09.000Z</time>
      </trkpt>
      <trkpt lat="46.21425" lon="2.71624">
        <ele>610.2</ele>
        <time>2018-07-07T14:20:11.000Z</time>
      </trkpt>
      <trkpt lat="46.21416" lon="2.71613">
        <ele>610.56</ele>
        <time>2018-07-07T14:20:13.000Z</time>
      </trkpt>
      <trkpt lat="46.21405" lon="2.71605">
        <ele>610.94</ele>
        <time>2018-07-07T14:20:15.000Z</time>
      </trkpt>
      <trkpt lat="46.21393" lon="2.71598">
        <ele>610.93</ele>
        <time>2018-07-07T14:20:17.000Z</time>
      </trkpt>
      <trkpt lat="46.21383" lon="2.71586">
        <ele>610.59</ele>
        <time>2018-07-07T14:20:19.000Z</time>
      </trkpt>
      <trkpt lat="46.21376" lon="2.71572">
        <ele>610.39</ele>
        <time>2018-07-07T14:20:21.000Z</time>
      </trkpt>
      <trkpt lat="46.21368" lon="2.7156">
        <ele>610.83</ele>
        <time>2018-07-07T14:20:23.000Z</time>
      </trkpt>
      <trkpt lat="46.21359" lon="2.71547">
        <ele>610.8</ele>
        <time>2018-07-07T14:20:25.000Z</time>
      </trkpt>
      <trkpt lat="46.21348" lon="2.71533">
        <ele>611.11</ele>
        <time>2018-07-07T14:20:27.000Z</time>
      </trkpt>
      <trkpt lat="46.21334" lon="2.71519">
        <ele>611.37</ele>
        <time>2018-07-07T14:20:29.000Z</time>
      </trkpt>
      <trkpt lat="46.21322" lon="2.71505">
        <ele>611.38</ele>
        <time>2018-07-07T14:20:31.000Z</time>
      </trkpt>
      <trkpt lat="46.21311" lon="2.7149">
        <ele>611.71</ele>
        <time>2018-07-07T14:20:33.000Z</time>
      </trkpt>
      <trkpt lat="46.21298" lon="2.71474">
        <ele>612.3</ele>
        <time>2018-07-07T14:20:35.000Z</time>
      </trkpt>
      <trkpt lat="46.21291" lon="2.71465">
        <ele>612.76</ele>
        <time>2018-07-07T14:20:35.999Z</time>
      </trkpt>
      <trkpt lat="46.21284" lon="2.71456">
        <ele>612.91</ele>
        <time>2018-07-07T14:20:36.999Z</time>
      </trkpt>
      <trkpt lat="46.21277" lon="2.71446">
        <ele>612.96</ele>
        <time>2018-07-07T14:20:38.000Z</time>
      </trkpt>
      <trkpt lat="46.21271" lon="2.71435">
        <ele>613.26</ele>
        <time>2018-07-07T14:20:39.000Z</time>
      </trkpt>
      <trkpt lat="46.21265" lon="2.71424">
        <ele>613.5</ele>
        <time>2018-07-07T14:20:40.000Z</time>
      </trkpt>
      <trkpt lat="46.21258" lon="2.71413">
        <ele>613.52</ele>
        <time>2018-07-07T14:20:41.000Z</time>
      </trkpt>
      <trkpt lat="46.21251" lon="2.71402">
        <ele>613.3</ele>
        <time>2018-07-07T14:20:42.000Z</time>
      </trkpt>
      <trkpt lat="46.21245" lon="2.7139">
        <ele>613.07</ele>
        <time>2018-07-07T14:20:43.000Z</time>
      </trkpt>
      <trkpt lat="46.21233" lon="2.71373">
        <ele>613.58</ele>
        <time>2018-07-07T14:20:45.000Z</time>
      </trkpt>
      <trkpt lat="46.21223" lon="2.71353">
        <ele>613.97</ele>
        <time>2018-07-07T14:20:47.000Z</time>
      </trkpt>
      <trkpt lat="46.21214" lon="2.7133">
        <ele>615.1</ele>
        <time>2018-07-07T14:20:49.000Z</time>
      </trkpt>
      <trkpt lat="46.21209" lon="2.71318">
        <ele>615.73</ele>
        <time>2018-07-07T14:20:50.000Z</time>
      </trkpt>
      <trkpt lat="46.21204" lon="2.71307">
        <ele>615.98</ele>
        <time>2018-07-07T14:20:51.000Z</time>
      </trkpt>
      <trkpt lat="46.21199" lon="2.71295">
        <ele>616.18</ele>
        <time>2018-07-07T14:20:52.000Z</time>
      </trkpt>
      <trkpt lat="46.2119" lon="2.71275">
        <ele>616.92</ele>
        <time>2018-07-07T14:20:54.000Z</time>
      </trkpt>
      <trkpt lat="46.21182" lon="2.71256">
        <ele>616.65</ele>
        <time>2018-07-07T14:20:56.000Z</time>
      </trkpt>
      <trkpt lat="46.21174" lon="2.71239">
        <ele>616.07</ele>
        <time>2018-07-07T14:20:58.000Z</time>
      </trkpt>
      <trkpt lat="46.21166" lon="2.71222">
        <ele>614.64</ele>
        <time>2018-07-07T14:21:00.000Z</time>
      </trkpt>
      <trkpt lat="46.21158" lon="2.71204">
        <ele>613.02</ele>
        <time>2018-07-07T14:21:02.000Z</time>
      </trkpt>
      <trkpt lat="46.21151" lon="2.71187">
        <ele>611.42</ele>
        <time>2018-07-07T14:21:04.000Z</time>
      </trkpt>
      <trkpt lat="46.21144" lon="2.71172">
        <ele>609.89</ele>
        <time>2018-07-07T14:21:06.000Z</time>
      </trkpt>
      <trkpt lat="46.21138" lon="2.71156">
        <ele>608.46</ele>
        <time>2018-07-07T14:21:08.000Z</time>
      </trkpt>
      <trkpt lat="46.21133" lon="2.71139">
        <ele>607.8</ele>
        <time>2018-07-07T14:21:10.000Z</time>
      </trkpt>
      <trkpt lat="46.21127" lon="2.71121">
        <ele>606.91</ele>
        <time>2018-07-07T14:21:12.000Z</time>
      </trkpt>
      <trkpt lat="46.21121" lon="2.71107">
        <ele>606.56</ele>
        <time>2018-07-07T14:21:14.000Z</time>
      </trkpt>
      <trkpt lat="46.21114" lon="2.71093">
        <ele>606.8</ele>
        <time>2018-07-07T14:21:16.000Z</time>
      </trkpt>
      <trkpt lat="46.21108" lon="2.71077">
        <ele>607.05</ele>
        <time>2018-07-07T14:21:18.000Z</time>
      </trkpt>
      <trkpt lat="46.21101" lon="2.71063">
        <ele>607.47</ele>
        <time>2018-07-07T14:21:20.000Z</time>
      </trkpt>
      <trkpt lat="46.21094" lon="2.71049">
        <ele>607.8</ele>
        <time>2018-07-07T14:21:22.000Z</time>
      </trkpt>
      <trkpt lat="46.21087" lon="2.71035">
        <ele>607.87</ele>
        <time>2018-07-07T14:21:24.000Z</time>
      </trkpt>
      <trkpt lat="46.21082" lon="2.71019">
        <ele>608.72</ele>
        <time>2018-07-07T14:21:26.000Z</time>
      </trkpt>
      <trkpt lat="46.21078" lon="2.70999">
        <ele>608.92</ele>
        <time>2018-07-07T14:21:28.000Z</time>
      </trkpt>
      <trkpt lat="46.21072" lon="2.70979">
        <ele>610.26</ele>
        <time>2018-07-07T14:21:30.000Z</time>
      </trkpt>
      <trkpt lat="46.21066" lon="2.70956">
        <ele>610.41</ele>
        <time>2018-07-07T14:21:32.000Z</time>
      </trkpt>
      <trkpt lat="46.21062" lon="2.70942">
        <ele>609.87</ele>
        <time>2018-07-07T14:21:33.000Z</time>
      </trkpt>
      <trkpt lat="46.21056" lon="2.7093">
        <ele>609.06</ele>
        <time>2018-07-07T14:21:34.000Z</time>
      </trkpt>
      <trkpt lat="46.21052" lon="2.70917">
        <ele>608.85</ele>
        <time>2018-07-07T14:21:35.000Z</time>
      </trkpt>
      <trkpt lat="46.21046" lon="2.70903">
        <ele>607.79</ele>
        <time>2018-07-07T14:21:36.000Z</time>
      </trkpt>
      <trkpt lat="46.2104" lon="2.70888">
        <ele>606.93</ele>
        <time>2018-07-07T14:21:37.000Z</time>
      </trkpt>
      <trkpt lat="46.21034" lon="2.70874">
        <ele>605.93</ele>
        <time>2018-07-07T14:21:38.000Z</time>
      </trkpt>
      <trkpt lat="46.21026" lon="2.70859">
        <ele>604.4</ele>
        <time>2018-07-07T14:21:39.000Z</time>
      </trkpt>
      <trkpt lat="46.21023" lon="2.70846">
        <ele>603.47</ele>
        <time>2018-07-07T14:21:40.000Z</time>
      </trkpt>
      <trkpt lat="46.21019" lon="2.70832">
        <ele>602.35</ele>
        <time>2018-07-07T14:21:41.000Z</time>
      </trkpt>
      <trkpt lat="46.21016" lon="2.70818">
        <ele>601.5</ele>
        <time>2018-07-07T14:21:42.000Z</time>
      </trkpt>
      <trkpt lat="46.21017" lon="2.70802">
        <ele>600.76</ele>
        <time>2018-07-07T14:21:43.000Z</time>
      </trkpt>
      <trkpt lat="46.21019" lon="2.70786">
        <ele>600.35</ele>
        <time>2018-07-07T14:21:44.000Z</time>
      </trkpt>
      <trkpt lat="46.21023" lon="2.70768">
        <ele>599.8</ele>
        <time>2018-07-07T14:21:45.000Z</time>
      </trkpt>
      <trkpt lat="46.21027" lon="2.70752">
        <ele>599.46</ele>
        <time>2018-07-07T14:21:46.000Z</time>
      </trkpt>
      <trkpt lat="46.2103" lon="2.70735">
        <ele>598.89</ele>
        <time>2018-07-07T14:21:47.000Z</time>
      </trkpt>
      <trkpt lat="46.21033" lon="2.70719">
        <ele>598.4</ele>
        <time>2018-07-07T14:21:48.000Z</time>
      </trkpt>
      <trkpt lat="46.21035" lon="2.70702">
        <ele>598.14</ele>
        <time>2018-07-07T14:21:49.000Z</time>
      </trkpt>
      <trkpt lat="46.21037" lon="2.70686">
        <ele>597.84</ele>
        <time>2018-07-07T14:21:50.000Z</time>
      </trkpt>
      <trkpt lat="46.21038" lon="2.7067">
        <ele>597.39</ele>
        <time>2018-07-07T14:21:51.000Z</time>
      </trkpt>
      <trkpt lat="46.21041" lon="2.70653">
        <ele>597.3</ele>
        <time>2018-07-07T14:21:52.000Z</time>
      </trkpt>
      <trkpt lat="46.21042" lon="2.70637">
        <ele>597.08</ele>
        <time>2018-07-07T14:21:53.000Z</time>
      </trkpt>
      <trkpt lat="46.21044" lon="2.70621">
        <ele>596.91</ele>
        <time>2018-07-07T14:21:54.000Z</time>
      </trkpt>
      <trkpt lat="46.21046" lon="2.70603">
        <ele>596.61</ele>
        <time>2018-07-07T14:21:55.000Z</time>
      </trkpt>
      <trkpt lat="46.21047" lon="2.70585">
        <ele>596.51</ele>
        <time>2018-07-07T14:21:56.000Z</time>
      </trkpt>
      <trkpt lat="46.21047" lon="2.70566">
        <ele>596.39</ele>
        <time>2018-07-07T14:21:57.000Z</time>
      </trkpt>
      <trkpt lat="46.21045" lon="2.70548">
        <ele>596.18</ele>
        <time>2018-07-07T14:21:58.000Z</time>
      </trkpt>
      <trkpt lat="46.21044" lon="2.7053">
        <ele>596.05</ele>
        <time>2018-07-07T14:21:59.000Z</time>
      </trkpt>
      <trkpt lat="46.21039" lon="2.70515">
        <ele>595.89</ele>
        <time>2018-07-07T14:22:00.000Z</time>
      </trkpt>
      <trkpt lat="46.21034" lon="2.70499">
        <ele>596.4</ele>
        <time>2018-07-07T14:22:01.000Z</time>
      </trkpt>
      <trkpt lat="46.21027" lon="2.70487">
        <ele>596.45</ele>
        <time>2018-07-07T14:22:02.000Z</time>
      </trkpt>
      <trkpt lat="46.21019" lon="2.70478">
        <ele>596.27</ele>
        <time>2018-07-07T14:22:03.000Z</time>
      </trkpt>
      <trkpt lat="46.21009" lon="2.70473">
        <ele>595.52</ele>
        <time>2018-07-07T14:22:04.000Z</time>
      </trkpt>
      <trkpt lat="46.20997" lon="2.70471">
        <ele>595.25</ele>
        <time>2018-07-07T14:22:05.000Z</time>
      </trkpt>
      <trkpt lat="46.20982" lon="2.7047">
        <ele>594.43</ele>
        <time>2018-07-07T14:22:06.000Z</time>
      </trkpt>
      <trkpt lat="46.20966" lon="2.7047">
        <ele>593.72</ele>
        <time>2018-07-07T14:22:07.000Z</time>
      </trkpt>
      <trkpt lat="46.20954" lon="2.70468">
        <ele>592.75</ele>
        <time>2018-07-07T14:22:08.000Z</time>
      </trkpt>
      <trkpt lat="46.20942" lon="2.70465">
        <ele>591.74</ele>
        <time>2018-07-07T14:22:09.000Z</time>
      </trkpt>
      <trkpt lat="46.20929" lon="2.70462">
        <ele>591.1</ele>
        <time>2018-07-07T14:22:10.000Z</time>
      </trkpt>
      <trkpt lat="46.20919" lon="2.70459">
        <ele>590.75</ele>
        <time>2018-07-07T14:22:11.000Z</time>
      </trkpt>
      <trkpt lat="46.20906" lon="2.70457">
        <ele>590.53</ele>
        <time>2018-07-07T14:22:12.000Z</time>
      </trkpt>
      <trkpt lat="46.20892" lon="2.70455">
        <ele>590.19</ele>
        <time>2018-07-07T14:22:13.000Z</time>
      </trkpt>
      <trkpt lat="46.20879" lon="2.70453">
        <ele>589.5</ele>
        <time>2018-07-07T14:22:14.000Z</time>
      </trkpt>
      <trkpt lat="46.20866" lon="2.70451">
        <ele>589.31</ele>
        <time>2018-07-07T14:22:15.000Z</time>
      </trkpt>
      <trkpt lat="46.20853" lon="2.7045">
        <ele>588.64</ele>
        <time>2018-07-07T14:22:16.000Z</time>
      </trkpt>
      <trkpt lat="46.20841" lon="2.70448">
        <ele>587.77</ele>
        <time>2018-07-07T14:22:17.000Z</time>
      </trkpt>
      <trkpt lat="46.20827" lon="2.70445">
        <ele>587.37</ele>
        <time>2018-07-07T14:22:18.000Z</time>
      </trkpt>
      <trkpt lat="46.20814" lon="2.7044">
        <ele>586.56</ele>
        <time>2018-07-07T14:22:19.000Z</time>
      </trkpt>
      <trkpt lat="46.20804" lon="2.70435">
        <ele>585.86</ele>
        <time>2018-07-07T14:22:20.000Z</time>
      </trkpt>
      <trkpt lat="46.20792" lon="2.70427">
        <ele>585.53</ele>
        <time>2018-07-07T14:22:21.000Z</time>
      </trkpt>
      <trkpt lat="46.20782" lon="2.70416">
        <ele>585.46</ele>
        <time>2018-07-07T14:22:22.000Z</time>
      </trkpt>
      <trkpt lat="46.20775" lon="2.70404">
        <ele>585.04</ele>
        <time>2018-07-07T14:22:23.000Z</time>
      </trkpt>
      <trkpt lat="46.20768" lon="2.7039">
        <ele>584.74</ele>
        <time>2018-07-07T14:22:24.000Z</time>
      </trkpt>
      <trkpt lat="46.20763" lon="2.70375">
        <ele>584.34</ele>
        <time>2018-07-07T14:22:25.000Z</time>
      </trkpt>
      <trkpt lat="46.20759" lon="2.70359">
        <ele>583.95</ele>
        <time>2018-07-07T14:22:26.000Z</time>
      </trkpt>
      <trkpt lat="46.20755" lon="2.70343">
        <ele>583.71</ele>
        <time>2018-07-07T14:22:27.000Z</time>
      </trkpt>
      <trkpt lat="46.20751" lon="2.70327">
        <ele>583.51</ele>
        <time>2018-07-07T14:22:28.000Z</time>
      </trkpt>
      <trkpt lat="46.20746" lon="2.70311">
        <ele>583.05</ele>
        <time>2018-07-07T14:22:29.000Z</time>
      </trkpt>
      <trkpt lat="46.2074" lon="2.70296">
        <ele>582.81</ele>
        <time>2018-07-07T14:22:30.000Z</time>
      </trkpt>
      <trkpt lat="46.20735" lon="2.70283">
        <ele>582.48</ele>
        <time>2018-07-07T14:22:31.000Z</time>
      </trkpt>
      <trkpt lat="46.20729" lon="2.70269">
        <ele>582.18</ele>
        <time>2018-07-07T14:22:32.000Z</time>
      </trkpt>
      <trkpt lat="46.20723" lon="2.70255">
        <ele>581.81</ele>
        <time>2018-07-07T14:22:33.000Z</time>
      </trkpt>
      <trkpt lat="46.20717" lon="2.70244">
        <ele>581.8</ele>
        <time>2018-07-07T14:22:34.000Z</time>
      </trkpt>
      <trkpt lat="46.20712" lon="2.70234">
        <ele>582.09</ele>
        <time>2018-07-07T14:22:35.000Z</time>
      </trkpt>
      <trkpt lat="46.20705" lon="2.70225">
        <ele>582.34</ele>
        <time>2018-07-07T14:22:36.000Z</time>
      </trkpt>
      <trkpt lat="46.20698" lon="2.70215">
        <ele>582.62</ele>
        <time>2018-07-07T14:22:37.000Z</time>
      </trkpt>
      <trkpt lat="46.20691" lon="2.70206">
        <ele>582.62</ele>
        <time>2018-07-07T14:22:38.000Z</time>
      </trkpt>
      <trkpt lat="46.20678" lon="2.70192">
        <ele>582.29</ele>
        <time>2018-07-07T14:22:40.000Z</time>
      </trkpt>
      <trkpt lat="46.20664" lon="2.7018">
        <ele>581.34</ele>
        <time>2018-07-07T14:22:42.000Z</time>
      </trkpt>
      <trkpt lat="46.20647" lon="2.7017">
        <ele>580.59</ele>
        <time>2018-07-07T14:22:44.000Z</time>
      </trkpt>
      <trkpt lat="46.20639" lon="2.70164">
        <ele>580.24</ele>
        <time>2018-07-07T14:22:45.000Z</time>
      </trkpt>
      <trkpt lat="46.20632" lon="2.70156">
        <ele>579.95</ele>
        <time>2018-07-07T14:22:46.000Z</time>
      </trkpt>
      <trkpt lat="46.20625" lon="2.70147">
        <ele>579.8</ele>
        <time>2018-07-07T14:22:47.000Z</time>
      </trkpt>
      <trkpt lat="46.20619" lon="2.70137">
        <ele>579.71</ele>
        <time>2018-07-07T14:22:48.000Z</time>
      </trkpt>
      <trkpt lat="46.20614" lon="2.70125">
        <ele>579.77</ele>
        <time>2018-07-07T14:22:49.000Z</time>
      </trkpt>
      <trkpt lat="46.20609" lon="2.70114">
        <ele>579.6</ele>
        <time>2018-07-07T14:22:50.000Z</time>
      </trkpt>
      <trkpt lat="46.20603" lon="2.70102">
        <ele>579.18</ele>
        <time>2018-07-07T14:22:51.000Z</time>
      </trkpt>
      <trkpt lat="46.20597" lon="2.7009">
        <ele>579.01</ele>
        <time>2018-07-07T14:22:52.000Z</time>
      </trkpt>
      <trkpt lat="46.2059" lon="2.70079">
        <ele>578.52</ele>
        <time>2018-07-07T14:22:53.000Z</time>
      </trkpt>
      <trkpt lat="46.20583" lon="2.70067">
        <ele>577.81</ele>
        <time>2018-07-07T14:22:54.000Z</time>
      </trkpt>
      <trkpt lat="46.20575" lon="2.70056">
        <ele>577.03</ele>
        <time>2018-07-07T14:22:55.000Z</time>
      </trkpt>
      <trkpt lat="46.20567" lon="2.70045">
        <ele>576.26</ele>
        <time>2018-07-07T14:22:56.000Z</time>
      </trkpt>
      <trkpt lat="46.20559" lon="2.70033">
        <ele>574.98</ele>
        <time>2018-07-07T14:22:57.000Z</time>
      </trkpt>
      <trkpt lat="46.20553" lon="2.7002">
        <ele>574.26</ele>
        <time>2018-07-07T14:22:58.000Z</time>
      </trkpt>
      <trkpt lat="46.20548" lon="2.70007">
        <ele>573.64</ele>
        <time>2018-07-07T14:22:59.000Z</time>
      </trkpt>
      <trkpt lat="46.20544" lon="2.69993">
        <ele>572.92</ele>
        <time>2018-07-07T14:23:00.000Z</time>
      </trkpt>
      <trkpt lat="46.20541" lon="2.6998">
        <ele>572.18</ele>
        <time>2018-07-07T14:23:01.000Z</time>
      </trkpt>
      <trkpt lat="46.20537" lon="2.69967">
        <ele>571.51</ele>
        <time>2018-07-07T14:23:02.000Z</time>
      </trkpt>
      <trkpt lat="46.20533" lon="2.69955">
        <ele>570.99</ele>
        <time>2018-07-07T14:23:03.000Z</time>
      </trkpt>
      <trkpt lat="46.20524" lon="2.69936">
        <ele>569.57</ele>
        <time>2018-07-07T14:23:05.000Z</time>
      </trkpt>
      <trkpt lat="46.20512" lon="2.69927">
        <ele>567.84</ele>
        <time>2018-07-07T14:23:07.000Z</time>
      </trkpt>
      <trkpt lat="46.20501" lon="2.69927">
        <ele>566.94</ele>
        <time>2018-07-07T14:23:08.000Z</time>
      </trkpt>
      <trkpt lat="46.20484" lon="2.69925">
        <ele>565.48</ele>
        <time>2018-07-07T14:23:10.000Z</time>
      </trkpt>
      <trkpt lat="46.20474" lon="2.69923">
        <ele>564.29</ele>
        <time>2018-07-07T14:23:11.000Z</time>
      </trkpt>
      <trkpt lat="46.20464" lon="2.6992">
        <ele>562.95</ele>
        <time>2018-07-07T14:23:12.000Z</time>
      </trkpt>
      <trkpt lat="46.20454" lon="2.69917">
        <ele>561.89</ele>
        <time>2018-07-07T14:23:13.000Z</time>
      </trkpt>
      <trkpt lat="46.20442" lon="2.69916">
        <ele>560.89</ele>
        <time>2018-07-07T14:23:14.000Z</time>
      </trkpt>
      <trkpt lat="46.20432" lon="2.69913">
        <ele>559.68</ele>
        <time>2018-07-07T14:23:15.000Z</time>
      </trkpt>
      <trkpt lat="46.20422" lon="2.69909">
        <ele>558.23</ele>
        <time>2018-07-07T14:23:16.000Z</time>
      </trkpt>
      <trkpt lat="46.20413" lon="2.69905">
        <ele>557.28</ele>
        <time>2018-07-07T14:23:17.000Z</time>
      </trkpt>
      <trkpt lat="46.20402" lon="2.69899">
        <ele>556.29</ele>
        <time>2018-07-07T14:23:18.000Z</time>
      </trkpt>
      <trkpt lat="46.20393" lon="2.69891">
        <ele>555.81</ele>
        <time>2018-07-07T14:23:19.000Z</time>
      </trkpt>
      <trkpt lat="46.20384" lon="2.69881">
        <ele>555.56</ele>
        <time>2018-07-07T14:23:20.000Z</time>
      </trkpt>
      <trkpt lat="46.20374" lon="2.69867">
        <ele>555.56</ele>
        <time>2018-07-07T14:23:21.000Z</time>
      </trkpt>
      <trkpt lat="46.20367" lon="2.69851">
        <ele>555.39</ele>
        <time>2018-07-07T14:23:22.000Z</time>
      </trkpt>
      <trkpt lat="46.2036" lon="2.69836">
        <ele>555.07</ele>
        <time>2018-07-07T14:23:23.000Z</time>
      </trkpt>
      <trkpt lat="46.20354" lon="2.6982">
        <ele>554.48</ele>
        <time>2018-07-07T14:23:24.000Z</time>
      </trkpt>
      <trkpt lat="46.20348" lon="2.69804">
        <ele>553.91</ele>
        <time>2018-07-07T14:23:25.000Z</time>
      </trkpt>
      <trkpt lat="46.2034" lon="2.6979">
        <ele>553.37</ele>
        <time>2018-07-07T14:23:26.000Z</time>
      </trkpt>
      <trkpt lat="46.20332" lon="2.69778">
        <ele>552.8</ele>
        <time>2018-07-07T14:23:27.000Z</time>
      </trkpt>
      <trkpt lat="46.20323" lon="2.69769">
        <ele>552.26</ele>
        <time>2018-07-07T14:23:28.000Z</time>
      </trkpt>
      <trkpt lat="46.20311" lon="2.69764">
        <ele>551.45</ele>
        <time>2018-07-07T14:23:29.000Z</time>
      </trkpt>
      <trkpt lat="46.20298" lon="2.69763">
        <ele>550.77</ele>
        <time>2018-07-07T14:23:30.000Z</time>
      </trkpt>
      <trkpt lat="46.20283" lon="2.69764">
        <ele>549.75</ele>
        <time>2018-07-07T14:23:31.000Z</time>
      </trkpt>
      <trkpt lat="46.20269" lon="2.69768">
        <ele>549.12</ele>
        <time>2018-07-07T14:23:32.000Z</time>
      </trkpt>
      <trkpt lat="46.20256" lon="2.69772">
        <ele>548.68</ele>
        <time>2018-07-07T14:23:33.000Z</time>
      </trkpt>
      <trkpt lat="46.20242" lon="2.69776">
        <ele>547.96</ele>
        <time>2018-07-07T14:23:34.000Z</time>
      </trkpt>
      <trkpt lat="46.20228" lon="2.69781">
        <ele>547.41</ele>
        <time>2018-07-07T14:23:35.000Z</time>
      </trkpt>
      <trkpt lat="46.20215" lon="2.69784">
        <ele>546.79</ele>
        <time>2018-07-07T14:23:36.000Z</time>
      </trkpt>
      <trkpt lat="46.202" lon="2.69787">
        <ele>545.91</ele>
        <time>2018-07-07T14:23:37.000Z</time>
      </trkpt>
      <trkpt lat="46.20186" lon="2.69791">
        <ele>545</ele>
        <time>2018-07-07T14:23:38.000Z</time>
      </trkpt>
      <trkpt lat="46.20169" lon="2.69794">
        <ele>544.33</ele>
        <time>2018-07-07T14:23:39.000Z</time>
      </trkpt>
      <trkpt lat="46.20155" lon="2.698">
        <ele>543.54</ele>
        <time>2018-07-07T14:23:40.000Z</time>
      </trkpt>
      <trkpt lat="46.20141" lon="2.69804">
        <ele>542.96</ele>
        <time>2018-07-07T14:23:41.000Z</time>
      </trkpt>
      <trkpt lat="46.20128" lon="2.69809">
        <ele>542.53</ele>
        <time>2018-07-07T14:23:42.000Z</time>
      </trkpt>
      <trkpt lat="46.20116" lon="2.69813">
        <ele>541.99</ele>
        <time>2018-07-07T14:23:43.000Z</time>
      </trkpt>
      <trkpt lat="46.20105" lon="2.69817">
        <ele>541.65</ele>
        <time>2018-07-07T14:23:44.000Z</time>
      </trkpt>
      <trkpt lat="46.20093" lon="2.69819">
        <ele>541.16</ele>
        <time>2018-07-07T14:23:45.000Z</time>
      </trkpt>
      <trkpt lat="46.20083" lon="2.69822">
        <ele>540.66</ele>
        <time>2018-07-07T14:23:46.000Z</time>
      </trkpt>
      <trkpt lat="46.20072" lon="2.69824">
        <ele>540.28</ele>
        <time>2018-07-07T14:23:47.000Z</time>
      </trkpt>
      <trkpt lat="46.20055" lon="2.69827">
        <ele>539.95</ele>
        <time>2018-07-07T14:23:49.000Z</time>
      </trkpt>
      <trkpt lat="46.20039" lon="2.69826">
        <ele>539.76</ele>
        <time>2018-07-07T14:23:51.000Z</time>
      </trkpt>
      <trkpt lat="46.20024" lon="2.69823">
        <ele>539.81</ele>
        <time>2018-07-07T14:23:53.000Z</time>
      </trkpt>
      <trkpt lat="46.2001" lon="2.6982">
        <ele>539.4</ele>
        <time>2018-07-07T14:23:55.000Z</time>
      </trkpt>
      <trkpt lat="46.19998" lon="2.69817">
        <ele>539.19</ele>
        <time>2018-07-07T14:23:57.000Z</time>
      </trkpt>
      <trkpt lat="46.19984" lon="2.69813">
        <ele>538.26</ele>
        <time>2018-07-07T14:23:59.000Z</time>
      </trkpt>
      <trkpt lat="46.1997" lon="2.69808">
        <ele>537.92</ele>
        <time>2018-07-07T14:24:01.000Z</time>
      </trkpt>
      <trkpt lat="46.19957" lon="2.69805">
        <ele>537.42</ele>
        <time>2018-07-07T14:24:03.000Z</time>
      </trkpt>
      <trkpt lat="46.19944" lon="2.69804">
        <ele>536.93</ele>
        <time>2018-07-07T14:24:05.000Z</time>
      </trkpt>
      <trkpt lat="46.19933" lon="2.69802">
        <ele>536.13</ele>
        <time>2018-07-07T14:24:07.000Z</time>
      </trkpt>
      <trkpt lat="46.1992" lon="2.698">
        <ele>534.62</ele>
        <time>2018-07-07T14:24:09.000Z</time>
      </trkpt>
      <trkpt lat="46.19906" lon="2.69797">
        <ele>533.78</ele>
        <time>2018-07-07T14:24:11.000Z</time>
      </trkpt>
      <trkpt lat="46.19894" lon="2.69794">
        <ele>533.05</ele>
        <time>2018-07-07T14:24:13.000Z</time>
      </trkpt>
      <trkpt lat="46.1988" lon="2.6979">
        <ele>532.82</ele>
        <time>2018-07-07T14:24:15.000Z</time>
      </trkpt>
      <trkpt lat="46.19867" lon="2.69788">
        <ele>533.07</ele>
        <time>2018-07-07T14:24:17.000Z</time>
      </trkpt>
      <trkpt lat="46.19852" lon="2.69786">
        <ele>532.89</ele>
        <time>2018-07-07T14:24:19.000Z</time>
      </trkpt>
      <trkpt lat="46.19838" lon="2.69783">
        <ele>532.72</ele>
        <time>2018-07-07T14:24:21.000Z</time>
      </trkpt>
      <trkpt lat="46.19823" lon="2.6978">
        <ele>532.5</ele>
        <time>2018-07-07T14:24:23.000Z</time>
      </trkpt>
      <trkpt lat="46.19807" lon="2.69776">
        <ele>532.36</ele>
        <time>2018-07-07T14:24:25.000Z</time>
      </trkpt>
      <trkpt lat="46.19791" lon="2.69772">
        <ele>532.12</ele>
        <time>2018-07-07T14:24:27.000Z</time>
      </trkpt>
      <trkpt lat="46.19774" lon="2.69769">
        <ele>531.6</ele>
        <time>2018-07-07T14:24:29.000Z</time>
      </trkpt>
      <trkpt lat="46.19756" lon="2.69766">
        <ele>530.91</ele>
        <time>2018-07-07T14:24:31.000Z</time>
      </trkpt>
      <trkpt lat="46.19747" lon="2.69765">
        <ele>530.54</ele>
        <time>2018-07-07T14:24:32.000Z</time>
      </trkpt>
      <trkpt lat="46.1973" lon="2.69762">
        <ele>529.63</ele>
        <time>2018-07-07T14:24:34.000Z</time>
      </trkpt>
      <trkpt lat="46.19721" lon="2.69761">
        <ele>529.06</ele>
        <time>2018-07-07T14:24:35.000Z</time>
      </trkpt>
      <trkpt lat="46.19712" lon="2.69759">
        <ele>528.67</ele>
        <time>2018-07-07T14:24:36.000Z</time>
      </trkpt>
      <trkpt lat="46.19703" lon="2.69756">
        <ele>528.48</ele>
        <time>2018-07-07T14:24:37.000Z</time>
      </trkpt>
      <trkpt lat="46.19692" lon="2.69755">
        <ele>528.08</ele>
        <time>2018-07-07T14:24:38.000Z</time>
      </trkpt>
      <trkpt lat="46.19681" lon="2.69752">
        <ele>527.71</ele>
        <time>2018-07-07T14:24:39.000Z</time>
      </trkpt>
      <trkpt lat="46.1967" lon="2.69749">
        <ele>527.2</ele>
        <time>2018-07-07T14:24:40.000Z</time>
      </trkpt>
      <trkpt lat="46.19659" lon="2.69747">
        <ele>526.54</ele>
        <time>2018-07-07T14:24:41.000Z</time>
      </trkpt>
      <trkpt lat="46.19648" lon="2.69745">
        <ele>525.92</ele>
        <time>2018-07-07T14:24:42.000Z</time>
      </trkpt>
      <trkpt lat="46.19637" lon="2.69743">
        <ele>525.32</ele>
        <time>2018-07-07T14:24:43.000Z</time>
      </trkpt>
      <trkpt lat="46.19626" lon="2.69741">
        <ele>524.97</ele>
        <time>2018-07-07T14:24:44.000Z</time>
      </trkpt>
      <trkpt lat="46.19614" lon="2.69739">
        <ele>524.45</ele>
        <time>2018-07-07T14:24:45.000Z</time>
      </trkpt>
      <trkpt lat="46.19604" lon="2.69737">
        <ele>523.8</ele>
        <time>2018-07-07T14:24:46.000Z</time>
      </trkpt>
      <trkpt lat="46.19592" lon="2.69735">
        <ele>523.05</ele>
        <time>2018-07-07T14:24:47.000Z</time>
      </trkpt>
      <trkpt lat="46.19581" lon="2.69732">
        <ele>522.38</ele>
        <time>2018-07-07T14:24:48.000Z</time>
      </trkpt>
      <trkpt lat="46.19569" lon="2.69729">
        <ele>521.77</ele>
        <time>2018-07-07T14:24:49.000Z</time>
      </trkpt>
      <trkpt lat="46.19557" lon="2.69727">
        <ele>521.1</ele>
        <time>2018-07-07T14:24:50.000Z</time>
      </trkpt>
      <trkpt lat="46.19545" lon="2.69726">
        <ele>520.7</ele>
        <time>2018-07-07T14:24:51.000Z</time>
      </trkpt>
      <trkpt lat="46.19533" lon="2.69725">
        <ele>520.34</ele>
        <time>2018-07-07T14:24:52.000Z</time>
      </trkpt>
      <trkpt lat="46.1952" lon="2.69724">
        <ele>520.14</ele>
        <time>2018-07-07T14:24:53.000Z</time>
      </trkpt>
      <trkpt lat="46.19508" lon="2.69725">
        <ele>519.89</ele>
        <time>2018-07-07T14:24:54.000Z</time>
      </trkpt>
      <trkpt lat="46.19495" lon="2.69728">
        <ele>519.62</ele>
        <time>2018-07-07T14:24:55.000Z</time>
      </trkpt>
      <trkpt lat="46.19483" lon="2.69733">
        <ele>519</ele>
        <time>2018-07-07T14:24:56.000Z</time>
      </trkpt>
      <trkpt lat="46.19472" lon="2.6974">
        <ele>518.48</ele>
        <time>2018-07-07T14:24:57.000Z</time>
      </trkpt>
      <trkpt lat="46.19461" lon="2.69747">
        <ele>517.98</ele>
        <time>2018-07-07T14:24:58.000Z</time>
      </trkpt>
      <trkpt lat="46.1945" lon="2.69754">
        <ele>517.26</ele>
        <time>2018-07-07T14:24:59.000Z</time>
      </trkpt>
      <trkpt lat="46.19442" lon="2.69761">
        <ele>517.22</ele>
        <time>2018-07-07T14:25:00.000Z</time>
      </trkpt>
      <trkpt lat="46.19432" lon="2.69766">
        <ele>516.76</ele>
        <time>2018-07-07T14:25:01.000Z</time>
      </trkpt>
      <trkpt lat="46.19423" lon="2.69773">
        <ele>516.52</ele>
        <time>2018-07-07T14:25:02.000Z</time>
      </trkpt>
      <trkpt lat="46.19411" lon="2.69778">
        <ele>516.02</ele>
        <time>2018-07-07T14:25:03.000Z</time>
      </trkpt>
      <trkpt lat="46.19399" lon="2.69785">
        <ele>515.37</ele>
        <time>2018-07-07T14:25:04.000Z</time>
      </trkpt>
      <trkpt lat="46.19388" lon="2.6979">
        <ele>514.63</ele>
        <time>2018-07-07T14:25:05.000Z</time>
      </trkpt>
      <trkpt lat="46.19378" lon="2.69797">
        <ele>514.01</ele>
        <time>2018-07-07T14:25:06.000Z</time>
      </trkpt>
      <trkpt lat="46.19369" lon="2.69801">
        <ele>513.59</ele>
        <time>2018-07-07T14:25:07.000Z</time>
      </trkpt>
      <trkpt lat="46.1936" lon="2.69806">
        <ele>513.24</ele>
        <time>2018-07-07T14:25:08.000Z</time>
      </trkpt>
      <trkpt lat="46.19352" lon="2.6981">
        <ele>512.85</ele>
        <time>2018-07-07T14:25:09.000Z</time>
      </trkpt>
      <trkpt lat="46.19342" lon="2.69814">
        <ele>512.37</ele>
        <time>2018-07-07T14:25:10.000Z</time>
      </trkpt>
      <trkpt lat="46.19326" lon="2.6982">
        <ele>512.01</ele>
        <time>2018-07-07T14:25:12.000Z</time>
      </trkpt>
      <trkpt lat="46.19312" lon="2.69824">
        <ele>511.71</ele>
        <time>2018-07-07T14:25:14.000Z</time>
      </trkpt>
      <trkpt lat="46.19299" lon="2.69828">
        <ele>511.53</ele>
        <time>2018-07-07T14:25:16.000Z</time>
      </trkpt>
      <trkpt lat="46.19286" lon="2.69833">
        <ele>511.28</ele>
        <time>2018-07-07T14:25:18.000Z</time>
      </trkpt>
      <trkpt lat="46.19274" lon="2.69835">
        <ele>511.52</ele>
        <time>2018-07-07T14:25:20.000Z</time>
      </trkpt>
      <trkpt lat="46.1926" lon="2.69836">
        <ele>511.97</ele>
        <time>2018-07-07T14:25:22.000Z</time>
      </trkpt>
      <trkpt lat="46.19243" lon="2.69837">
        <ele>512.28</ele>
        <time>2018-07-07T14:25:24.000Z</time>
      </trkpt>
      <trkpt lat="46.19227" lon="2.69838">
        <ele>512.53</ele>
        <time>2018-07-07T14:25:26.000Z</time>
      </trkpt>
      <trkpt lat="46.19216" lon="2.69843">
        <ele>512.99</ele>
        <time>2018-07-07T14:25:28.000Z</time>
      </trkpt>
      <trkpt lat="46.19202" lon="2.69849">
        <ele>513.37</ele>
        <time>2018-07-07T14:25:30.000Z</time>
      </trkpt>
      <trkpt lat="46.19189" lon="2.69851">
        <ele>513.77</ele>
        <time>2018-07-07T14:25:32.000Z</time>
      </trkpt>
      <trkpt lat="46.19177" lon="2.69855">
        <ele>514.15</ele>
        <time>2018-07-07T14:25:34.000Z</time>
      </trkpt>
      <trkpt lat="46.19166" lon="2.69857">
        <ele>515.23</ele>
        <time>2018-07-07T14:25:36.000Z</time>
      </trkpt>
      <trkpt lat="46.19154" lon="2.69859">
        <ele>516.61</ele>
        <time>2018-07-07T14:25:38.000Z</time>
      </trkpt>
      <trkpt lat="46.19142" lon="2.69861">
        <ele>516.83</ele>
        <time>2018-07-07T14:25:40.000Z</time>
      </trkpt>
      <trkpt lat="46.1913" lon="2.69863">
        <ele>516.99</ele>
        <time>2018-07-07T14:25:42.000Z</time>
      </trkpt>
      <trkpt lat="46.1912" lon="2.69864">
        <ele>517.28</ele>
        <time>2018-07-07T14:25:44.000Z</time>
      </trkpt>
      <trkpt lat="46.19108" lon="2.69864">
        <ele>517.61</ele>
        <time>2018-07-07T14:25:47.000Z</time>
      </trkpt>
      <trkpt lat="46.19096" lon="2.69866">
        <ele>519.41</ele>
        <time>2018-07-07T14:25:51.000Z</time>
      </trkpt>
      <trkpt lat="46.19087" lon="2.69869">
        <ele>520.13</ele>
        <time>2018-07-07T14:25:54.000Z</time>
      </trkpt>
      <trkpt lat="46.19077" lon="2.69872">
        <ele>520.39</ele>
        <time>2018-07-07T14:25:56.000Z</time>
      </trkpt>
      <trkpt lat="46.19067" lon="2.69872">
        <ele>520.44</ele>
        <time>2018-07-07T14:25:58.000Z</time>
      </trkpt>
      <trkpt lat="46.19054" lon="2.69873">
        <ele>521.61</ele>
        <time>2018-07-07T14:26:01.000Z</time>
      </trkpt>
      <trkpt lat="46.19042" lon="2.69876">
        <ele>522.44</ele>
        <time>2018-07-07T14:26:04.000Z</time>
      </trkpt>
      <trkpt lat="46.19032" lon="2.69876">
        <ele>523.31</ele>
        <time>2018-07-07T14:26:07.000Z</time>
      </trkpt>
      <trkpt lat="46.19021" lon="2.69877">
        <ele>523.79</ele>
        <time>2018-07-07T14:26:10.000Z</time>
      </trkpt>
      <trkpt lat="46.19009" lon="2.69882">
        <ele>524.27</ele>
        <time>2018-07-07T14:26:13.000Z</time>
      </trkpt>
      <trkpt lat="46.18998" lon="2.69888">
        <ele>524.66</ele>
        <time>2018-07-07T14:26:16.000Z</time>
      </trkpt>
      <trkpt lat="46.18986" lon="2.69894">
        <ele>526.07</ele>
        <time>2018-07-07T14:26:19.000Z</time>
      </trkpt>
      <trkpt lat="46.18975" lon="2.69901">
        <ele>527.65</ele>
        <time>2018-07-07T14:26:22.000Z</time>
      </trkpt>
      <trkpt lat="46.18965" lon="2.69904">
        <ele>529.39</ele>
        <time>2018-07-07T14:26:25.000Z</time>
      </trkpt>
      <trkpt lat="46.18955" lon="2.69905">
        <ele>531.31</ele>
        <time>2018-07-07T14:26:28.000Z</time>
      </trkpt>
      <trkpt lat="46.18943" lon="2.69906">
        <ele>532.51</ele>
        <time>2018-07-07T14:26:31.000Z</time>
      </trkpt>
      <trkpt lat="46.18932" lon="2.69907">
        <ele>534.26</ele>
        <time>2018-07-07T14:26:35.000Z</time>
      </trkpt>
      <trkpt lat="46.18919" lon="2.69903">
        <ele>536.66</ele>
        <time>2018-07-07T14:26:39.000Z</time>
      </trkpt>
      <trkpt lat="46.18908" lon="2.69901">
        <ele>537.39</ele>
        <time>2018-07-07T14:26:42.000Z</time>
      </trkpt>
      <trkpt lat="46.18897" lon="2.69899">
        <ele>538.11</ele>
        <time>2018-07-07T14:26:45.000Z</time>
      </trkpt>
      <trkpt lat="46.18883" lon="2.69897">
        <ele>539.78</ele>
        <time>2018-07-07T14:26:48.000Z</time>
      </trkpt>
      <trkpt lat="46.18871" lon="2.69899">
        <ele>541.65</ele>
        <time>2018-07-07T14:26:51.000Z</time>
      </trkpt>
      <trkpt lat="46.1886" lon="2.69902">
        <ele>543.07</ele>
        <time>2018-07-07T14:26:54.000Z</time>
      </trkpt>
      <trkpt lat="46.18849" lon="2.69908">
        <ele>544.8</ele>
        <time>2018-07-07T14:26:57.000Z</time>
      </trkpt>
      <trkpt lat="46.18839" lon="2.69915">
        <ele>547</ele>
        <time>2018-07-07T14:27:00.000Z</time>
      </trkpt>
      <trkpt lat="46.1883" lon="2.69925">
        <ele>548.33</ele>
        <time>2018-07-07T14:27:03.000Z</time>
      </trkpt>
      <trkpt lat="46.18821" lon="2.69935">
        <ele>549.25</ele>
        <time>2018-07-07T14:27:06.000Z</time>
      </trkpt>
      <trkpt lat="46.1881" lon="2.69944">
        <ele>549.87</ele>
        <time>2018-07-07T14:27:09.000Z</time>
      </trkpt>
      <trkpt lat="46.18799" lon="2.69952">
        <ele>550.38</ele>
        <time>2018-07-07T14:27:12.000Z</time>
      </trkpt>
      <trkpt lat="46.18789" lon="2.69964">
        <ele>551.75</ele>
        <time>2018-07-07T14:27:15.000Z</time>
      </trkpt>
      <trkpt lat="46.18778" lon="2.69975">
        <ele>553.1</ele>
        <time>2018-07-07T14:27:18.000Z</time>
      </trkpt>
      <trkpt lat="46.18768" lon="2.69984">
        <ele>554.61</ele>
        <time>2018-07-07T14:27:21.000Z</time>
      </trkpt>
      <trkpt lat="46.1876" lon="2.69994">
        <ele>556.33</ele>
        <time>2018-07-07T14:27:24.000Z</time>
      </trkpt>
      <trkpt lat="46.18751" lon="2.70006">
        <ele>557.4</ele>
        <time>2018-07-07T14:27:27.000Z</time>
      </trkpt>
      <trkpt lat="46.18745" lon="2.70015">
        <ele>557.82</ele>
        <time>2018-07-07T14:27:29.000Z</time>
      </trkpt>
      <trkpt lat="46.18735" lon="2.70027">
        <ele>558.23</ele>
        <time>2018-07-07T14:27:32.000Z</time>
      </trkpt>
      <trkpt lat="46.18726" lon="2.70038">
        <ele>559.11</ele>
        <time>2018-07-07T14:27:35.000Z</time>
      </trkpt>
      <trkpt lat="46.18719" lon="2.70045">
        <ele>559.58</ele>
        <time>2018-07-07T14:27:37.000Z</time>
      </trkpt>
      <trkpt lat="46.18708" lon="2.70056">
        <ele>560.32</ele>
        <time>2018-07-07T14:27:40.000Z</time>
      </trkpt>
      <trkpt lat="46.18698" lon="2.70064">
        <ele>560.46</ele>
        <time>2018-07-07T14:27:43.000Z</time>
      </trkpt>
      <trkpt lat="46.18691" lon="2.70075">
        <ele>561.02</ele>
        <time>2018-07-07T14:27:46.000Z</time>
      </trkpt>
      <trkpt lat="46.18683" lon="2.70089">
        <ele>562.03</ele>
        <time>2018-07-07T14:27:49.000Z</time>
      </trkpt>
      <trkpt lat="46.18674" lon="2.701">
        <ele>563.37</ele>
        <time>2018-07-07T14:27:52.000Z</time>
      </trkpt>
      <trkpt lat="46.18664" lon="2.7011">
        <ele>564.34</ele>
        <time>2018-07-07T14:27:55.000Z</time>
      </trkpt>
      <trkpt lat="46.18654" lon="2.70118">
        <ele>565.24</ele>
        <time>2018-07-07T14:27:58.000Z</time>
      </trkpt>
      <trkpt lat="46.18644" lon="2.70126">
        <ele>566.2</ele>
        <time>2018-07-07T14:28:01.000Z</time>
      </trkpt>
      <trkpt lat="46.18633" lon="2.70131">
        <ele>566.85</ele>
        <time>2018-07-07T14:28:04.000Z</time>
      </trkpt>
      <trkpt lat="46.18621" lon="2.70133">
        <ele>567.7</ele>
        <time>2018-07-07T14:28:07.000Z</time>
      </trkpt>
      <trkpt lat="46.18608" lon="2.70134">
        <ele>568.37</ele>
        <time>2018-07-07T14:28:10.000Z</time>
      </trkpt>
      <trkpt lat="46.18596" lon="2.70135">
        <ele>568.88</ele>
        <time>2018-07-07T14:28:13.000Z</time>
      </trkpt>
      <trkpt lat="46.18585" lon="2.70132">
        <ele>569.49</ele>
        <time>2018-07-07T14:28:16.000Z</time>
      </trkpt>
      <trkpt lat="46.18573" lon="2.70128">
        <ele>570.05</ele>
        <time>2018-07-07T14:28:19.000Z</time>
      </trkpt>
      <trkpt lat="46.18562" lon="2.70124">
        <ele>571.29</ele>
        <time>2018-07-07T14:28:22.000Z</time>
      </trkpt>
      <trkpt lat="46.18549" lon="2.70119">
        <ele>572.64</ele>
        <time>2018-07-07T14:28:25.000Z</time>
      </trkpt>
      <trkpt lat="46.18539" lon="2.70115">
        <ele>573.83</ele>
        <time>2018-07-07T14:28:28.000Z</time>
      </trkpt>
      <trkpt lat="46.18528" lon="2.7011">
        <ele>575.37</ele>
        <time>2018-07-07T14:28:31.000Z</time>
      </trkpt>
      <trkpt lat="46.18517" lon="2.70104">
        <ele>577</ele>
        <time>2018-07-07T14:28:34.000Z</time>
      </trkpt>
      <trkpt lat="46.18508" lon="2.70102">
        <ele>578.14</ele>
        <time>2018-07-07T14:28:36.000Z</time>
      </trkpt>
      <trkpt lat="46.18498" lon="2.70099">
        <ele>578.99</ele>
        <time>2018-07-07T14:28:38.000Z</time>
      </trkpt>
      <trkpt lat="46.18487" lon="2.70096">
        <ele>579.77</ele>
        <time>2018-07-07T14:28:40.000Z</time>
      </trkpt>
      <trkpt lat="46.18477" lon="2.70093">
        <ele>579.79</ele>
        <time>2018-07-07T14:28:42.000Z</time>
      </trkpt>
      <trkpt lat="46.18467" lon="2.70088">
        <ele>579.92</ele>
        <time>2018-07-07T14:28:44.000Z</time>
      </trkpt>
      <trkpt lat="46.18455" lon="2.70084">
        <ele>580.28</ele>
        <time>2018-07-07T14:28:47.000Z</time>
      </trkpt>
      <trkpt lat="46.18444" lon="2.70085">
        <ele>581.23</ele>
        <time>2018-07-07T14:28:50.000Z</time>
      </trkpt>
      <trkpt lat="46.18433" lon="2.70088">
        <ele>582</ele>
        <time>2018-07-07T14:28:52.000Z</time>
      </trkpt>
      <trkpt lat="46.18422" lon="2.70092">
        <ele>582.94</ele>
        <time>2018-07-07T14:28:54.000Z</time>
      </trkpt>
      <trkpt lat="46.18412" lon="2.70098">
        <ele>584.14</ele>
        <time>2018-07-07T14:28:56.000Z</time>
      </trkpt>
      <trkpt lat="46.18406" lon="2.70108">
        <ele>585.66</ele>
        <time>2018-07-07T14:28:58.000Z</time>
      </trkpt>
      <trkpt lat="46.18399" lon="2.70118">
        <ele>586.92</ele>
        <time>2018-07-07T14:29:00.000Z</time>
      </trkpt>
      <trkpt lat="46.18391" lon="2.70128">
        <ele>587.86</ele>
        <time>2018-07-07T14:29:02.000Z</time>
      </trkpt>
      <trkpt lat="46.18382" lon="2.70139">
        <ele>588.9</ele>
        <time>2018-07-07T14:29:04.000Z</time>
      </trkpt>
      <trkpt lat="46.18376" lon="2.7015">
        <ele>589.41</ele>
        <time>2018-07-07T14:29:06.000Z</time>
      </trkpt>
      <trkpt lat="46.1837" lon="2.70161">
        <ele>589.6</ele>
        <time>2018-07-07T14:29:08.000Z</time>
      </trkpt>
      <trkpt lat="46.18366" lon="2.70175">
        <ele>589.68</ele>
        <time>2018-07-07T14:29:10.000Z</time>
      </trkpt>
      <trkpt lat="46.18361" lon="2.70187">
        <ele>589.7</ele>
        <time>2018-07-07T14:29:12.000Z</time>
      </trkpt>
      <trkpt lat="46.18355" lon="2.70199">
        <ele>590.07</ele>
        <time>2018-07-07T14:29:14.000Z</time>
      </trkpt>
      <trkpt lat="46.18348" lon="2.70216">
        <ele>590.52</ele>
        <time>2018-07-07T14:29:17.000Z</time>
      </trkpt>
      <trkpt lat="46.18343" lon="2.70226">
        <ele>590.81</ele>
        <time>2018-07-07T14:29:19.000Z</time>
      </trkpt>
      <trkpt lat="46.18337" lon="2.70239">
        <ele>591.16</ele>
        <time>2018-07-07T14:29:21.000Z</time>
      </trkpt>
      <trkpt lat="46.18329" lon="2.70252">
        <ele>591.7</ele>
        <time>2018-07-07T14:29:24.000Z</time>
      </trkpt>
      <trkpt lat="46.1832" lon="2.7026">
        <ele>592.34</ele>
        <time>2018-07-07T14:29:27.000Z</time>
      </trkpt>
      <trkpt lat="46.18309" lon="2.70266">
        <ele>593.18</ele>
        <time>2018-07-07T14:29:30.000Z</time>
      </trkpt>
      <trkpt lat="46.18296" lon="2.70269">
        <ele>593.64</ele>
        <time>2018-07-07T14:29:33.000Z</time>
      </trkpt>
      <trkpt lat="46.18285" lon="2.70268">
        <ele>594.02</ele>
        <time>2018-07-07T14:29:35.000Z</time>
      </trkpt>
      <trkpt lat="46.18275" lon="2.70265">
        <ele>594.21</ele>
        <time>2018-07-07T14:29:37.000Z</time>
      </trkpt>
      <trkpt lat="46.18266" lon="2.70261">
        <ele>593.83</ele>
        <time>2018-07-07T14:29:39.000Z</time>
      </trkpt>
      <trkpt lat="46.18256" lon="2.70254">
        <ele>594.43</ele>
        <time>2018-07-07T14:29:41.000Z</time>
      </trkpt>
      <trkpt lat="46.18245" lon="2.70246">
        <ele>595.31</ele>
        <time>2018-07-07T14:29:43.000Z</time>
      </trkpt>
      <trkpt lat="46.18235" lon="2.70238">
        <ele>596.55</ele>
        <time>2018-07-07T14:29:45.000Z</time>
      </trkpt>
      <trkpt lat="46.18224" lon="2.70229">
        <ele>597.7</ele>
        <time>2018-07-07T14:29:47.000Z</time>
      </trkpt>
      <trkpt lat="46.18213" lon="2.70221">
        <ele>598.8</ele>
        <time>2018-07-07T14:29:49.000Z</time>
      </trkpt>
      <trkpt lat="46.18201" lon="2.70213">
        <ele>600.26</ele>
        <time>2018-07-07T14:29:51.000Z</time>
      </trkpt>
      <trkpt lat="46.18189" lon="2.70204">
        <ele>601.29</ele>
        <time>2018-07-07T14:29:53.000Z</time>
      </trkpt>
      <trkpt lat="46.18177" lon="2.70195">
        <ele>601.67</ele>
        <time>2018-07-07T14:29:55.000Z</time>
      </trkpt>
      <trkpt lat="46.18168" lon="2.70188">
        <ele>602.17</ele>
        <time>2018-07-07T14:29:57.000Z</time>
      </trkpt>
      <trkpt lat="46.18158" lon="2.70182">
        <ele>603.04</ele>
        <time>2018-07-07T14:29:59.000Z</time>
      </trkpt>
      <trkpt lat="46.18148" lon="2.70178">
        <ele>604.07</ele>
        <time>2018-07-07T14:30:01.000Z</time>
      </trkpt>
      <trkpt lat="46.18137" lon="2.70175">
        <ele>604.19</ele>
        <time>2018-07-07T14:30:03.000Z</time>
      </trkpt>
      <trkpt lat="46.18127" lon="2.70174">
        <ele>604.82</ele>
        <time>2018-07-07T14:30:05.000Z</time>
      </trkpt>
      <trkpt lat="46.18118" lon="2.70175">
        <ele>605.49</ele>
        <time>2018-07-07T14:30:07.000Z</time>
      </trkpt>
      <trkpt lat="46.18109" lon="2.70179">
        <ele>605.64</ele>
        <time>2018-07-07T14:30:09.000Z</time>
      </trkpt>
      <trkpt lat="46.18098" lon="2.70182">
        <ele>605.9</ele>
        <time>2018-07-07T14:30:11.000Z</time>
      </trkpt>
      <trkpt lat="46.18089" lon="2.7018">
        <ele>606.24</ele>
        <time>2018-07-07T14:30:13.000Z</time>
      </trkpt>
      <trkpt lat="46.18079" lon="2.70172">
        <ele>606.66</ele>
        <time>2018-07-07T14:30:15.000Z</time>
      </trkpt>
      <trkpt lat="46.18071" lon="2.70161">
        <ele>607.27</ele>
        <time>2018-07-07T14:30:17.000Z</time>
      </trkpt>
      <trkpt lat="46.1806" lon="2.70149">
        <ele>607.66</ele>
        <time>2018-07-07T14:30:19.000Z</time>
      </trkpt>
      <trkpt lat="46.1805" lon="2.70135">
        <ele>608.01</ele>
        <time>2018-07-07T14:30:21.000Z</time>
      </trkpt>
      <trkpt lat="46.18039" lon="2.70121">
        <ele>608.89</ele>
        <time>2018-07-07T14:30:23.000Z</time>
      </trkpt>
      <trkpt lat="46.18029" lon="2.70108">
        <ele>609.33</ele>
        <time>2018-07-07T14:30:25.000Z</time>
      </trkpt>
      <trkpt lat="46.18019" lon="2.70094">
        <ele>609.76</ele>
        <time>2018-07-07T14:30:27.000Z</time>
      </trkpt>
      <trkpt lat="46.18009" lon="2.7008">
        <ele>610.41</ele>
        <time>2018-07-07T14:30:29.000Z</time>
      </trkpt>
      <trkpt lat="46.17998" lon="2.70066">
        <ele>611.33</ele>
        <time>2018-07-07T14:30:31.000Z</time>
      </trkpt>
      <trkpt lat="46.17985" lon="2.70052">
        <ele>612.19</ele>
        <time>2018-07-07T14:30:33.000Z</time>
      </trkpt>
      <trkpt lat="46.17973" lon="2.70038">
        <ele>612.92</ele>
        <time>2018-07-07T14:30:35.000Z</time>
      </trkpt>
      <trkpt lat="46.1796" lon="2.70025">
        <ele>613.15</ele>
        <time>2018-07-07T14:30:37.000Z</time>
      </trkpt>
      <trkpt lat="46.17948" lon="2.7001">
        <ele>613.44</ele>
        <time>2018-07-07T14:30:39.000Z</time>
      </trkpt>
      <trkpt lat="46.17935" lon="2.69996">
        <ele>613.87</ele>
        <time>2018-07-07T14:30:41.000Z</time>
      </trkpt>
      <trkpt lat="46.17922" lon="2.69982">
        <ele>614.41</ele>
        <time>2018-07-07T14:30:43.000Z</time>
      </trkpt>
      <trkpt lat="46.1791" lon="2.69968">
        <ele>615.04</ele>
        <time>2018-07-07T14:30:45.000Z</time>
      </trkpt>
      <trkpt lat="46.17896" lon="2.69951">
        <ele>615.34</ele>
        <time>2018-07-07T14:30:47.000Z</time>
      </trkpt>
      <trkpt lat="46.17889" lon="2.69943">
        <ele>615.47</ele>
        <time>2018-07-07T14:30:48.000Z</time>
      </trkpt>
      <trkpt lat="46.17881" lon="2.69934">
        <ele>615.66</ele>
        <time>2018-07-07T14:30:49.000Z</time>
      </trkpt>
      <trkpt lat="46.17875" lon="2.69925">
        <ele>615.86</ele>
        <time>2018-07-07T14:30:50.000Z</time>
      </trkpt>
      <trkpt lat="46.17868" lon="2.69916">
        <ele>615.84</ele>
        <time>2018-07-07T14:30:51.000Z</time>
      </trkpt>
      <trkpt lat="46.17862" lon="2.69906">
        <ele>615.83</ele>
        <time>2018-07-07T14:30:52.000Z</time>
      </trkpt>
      <trkpt lat="46.17856" lon="2.69896">
        <ele>615.97</ele>
        <time>2018-07-07T14:30:53.000Z</time>
      </trkpt>
      <trkpt lat="46.17851" lon="2.69885">
        <ele>615.91</ele>
        <time>2018-07-07T14:30:54.000Z</time>
      </trkpt>
      <trkpt lat="46.17846" lon="2.69873">
        <ele>615.59</ele>
        <time>2018-07-07T14:30:55.000Z</time>
      </trkpt>
      <trkpt lat="46.17841" lon="2.69861">
        <ele>615.44</ele>
        <time>2018-07-07T14:30:56.000Z</time>
      </trkpt>
      <trkpt lat="46.17837" lon="2.69848">
        <ele>615.38</ele>
        <time>2018-07-07T14:30:57.000Z</time>
      </trkpt>
      <trkpt lat="46.17832" lon="2.69835">
        <ele>614.85</ele>
        <time>2018-07-07T14:30:58.000Z</time>
      </trkpt>
      <trkpt lat="46.17827" lon="2.69821">
        <ele>614.29</ele>
        <time>2018-07-07T14:30:59.000Z</time>
      </trkpt>
      <trkpt lat="46.17822" lon="2.69807">
        <ele>613.73</ele>
        <time>2018-07-07T14:31:00.000Z</time>
      </trkpt>
      <trkpt lat="46.17817" lon="2.69792">
        <ele>612.78</ele>
        <time>2018-07-07T14:31:01.000Z</time>
      </trkpt>
      <trkpt lat="46.17812" lon="2.69779">
        <ele>612.12</ele>
        <time>2018-07-07T14:31:02.000Z</time>
      </trkpt>
      <trkpt lat="46.17807" lon="2.69765">
        <ele>611.73</ele>
        <time>2018-07-07T14:31:03.000Z</time>
      </trkpt>
      <trkpt lat="46.17802" lon="2.69751">
        <ele>610.92</ele>
        <time>2018-07-07T14:31:04.000Z</time>
      </trkpt>
      <trkpt lat="46.17796" lon="2.69737">
        <ele>610.19</ele>
        <time>2018-07-07T14:31:05.000Z</time>
      </trkpt>
      <trkpt lat="46.17791" lon="2.69724">
        <ele>609.73</ele>
        <time>2018-07-07T14:31:06.000Z</time>
      </trkpt>
      <trkpt lat="46.17785" lon="2.6971">
        <ele>609.37</ele>
        <time>2018-07-07T14:31:07.000Z</time>
      </trkpt>
      <trkpt lat="46.17779" lon="2.69697">
        <ele>608.65</ele>
        <time>2018-07-07T14:31:08.000Z</time>
      </trkpt>
      <trkpt lat="46.17773" lon="2.69683">
        <ele>608.09</ele>
        <time>2018-07-07T14:31:09.000Z</time>
      </trkpt>
      <trkpt lat="46.17769" lon="2.6967">
        <ele>608.15</ele>
        <time>2018-07-07T14:31:10.000Z</time>
      </trkpt>
      <trkpt lat="46.17764" lon="2.69658">
        <ele>608.38</ele>
        <time>2018-07-07T14:31:11.000Z</time>
      </trkpt>
      <trkpt lat="46.17758" lon="2.69645">
        <ele>608.21</ele>
        <time>2018-07-07T14:31:12.000Z</time>
      </trkpt>
      <trkpt lat="46.17753" lon="2.69633">
        <ele>608.15</ele>
        <time>2018-07-07T14:31:13.000Z</time>
      </trkpt>
      <trkpt lat="46.17749" lon="2.69621">
        <ele>607.79</ele>
        <time>2018-07-07T14:31:14.000Z</time>
      </trkpt>
      <trkpt lat="46.17744" lon="2.69609">
        <ele>607.58</ele>
        <time>2018-07-07T14:31:15.000Z</time>
      </trkpt>
      <trkpt lat="46.17741" lon="2.69597">
        <ele>607.18</ele>
        <time>2018-07-07T14:31:16.000Z</time>
      </trkpt>
      <trkpt lat="46.17733" lon="2.69574">
        <ele>605.82</ele>
        <time>2018-07-07T14:31:18.000Z</time>
      </trkpt>
      <trkpt lat="46.17729" lon="2.69562">
        <ele>605.3</ele>
        <time>2018-07-07T14:31:19.000Z</time>
      </trkpt>
      <trkpt lat="46.17724" lon="2.6955">
        <ele>604.78</ele>
        <time>2018-07-07T14:31:20.000Z</time>
      </trkpt>
      <trkpt lat="46.17719" lon="2.69539">
        <ele>604.19</ele>
        <time>2018-07-07T14:31:21.000Z</time>
      </trkpt>
      <trkpt lat="46.17714" lon="2.69527">
        <ele>603.71</ele>
        <time>2018-07-07T14:31:22.000Z</time>
      </trkpt>
      <trkpt lat="46.17709" lon="2.69516">
        <ele>603.35</ele>
        <time>2018-07-07T14:31:23.000Z</time>
      </trkpt>
      <trkpt lat="46.17699" lon="2.69495">
        <ele>603.08</ele>
        <time>2018-07-07T14:31:25.000Z</time>
      </trkpt>
      <trkpt lat="46.17688" lon="2.69475">
        <ele>602.66</ele>
        <time>2018-07-07T14:31:27.000Z</time>
      </trkpt>
      <trkpt lat="46.17678" lon="2.69453">
        <ele>602.36</ele>
        <time>2018-07-07T14:31:29.000Z</time>
      </trkpt>
      <trkpt lat="46.17672" lon="2.69442">
        <ele>602.12</ele>
        <time>2018-07-07T14:31:30.000Z</time>
      </trkpt>
      <trkpt lat="46.17667" lon="2.69432">
        <ele>601.79</ele>
        <time>2018-07-07T14:31:31.000Z</time>
      </trkpt>
      <trkpt lat="46.17662" lon="2.69421">
        <ele>601.66</ele>
        <time>2018-07-07T14:31:32.000Z</time>
      </trkpt>
      <trkpt lat="46.17653" lon="2.69399">
        <ele>601.78</ele>
        <time>2018-07-07T14:31:34.000Z</time>
      </trkpt>
      <trkpt lat="46.17645" lon="2.69377">
        <ele>601.7</ele>
        <time>2018-07-07T14:31:36.000Z</time>
      </trkpt>
      <trkpt lat="46.17637" lon="2.69357">
        <ele>601.64</ele>
        <time>2018-07-07T14:31:38.000Z</time>
      </trkpt>
      <trkpt lat="46.17627" lon="2.69336">
        <ele>601.59</ele>
        <time>2018-07-07T14:31:40.000Z</time>
      </trkpt>
      <trkpt lat="46.17619" lon="2.69314">
        <ele>600.82</ele>
        <time>2018-07-07T14:31:42.000Z</time>
      </trkpt>
      <trkpt lat="46.17614" lon="2.69303">
        <ele>600.35</ele>
        <time>2018-07-07T14:31:43.000Z</time>
      </trkpt>
      <trkpt lat="46.17606" lon="2.69281">
        <ele>599.99</ele>
        <time>2018-07-07T14:31:45.000Z</time>
      </trkpt>
      <trkpt lat="46.17597" lon="2.6926">
        <ele>599.4</ele>
        <time>2018-07-07T14:31:47.000Z</time>
      </trkpt>
      <trkpt lat="46.1759" lon="2.69239">
        <ele>598.78</ele>
        <time>2018-07-07T14:31:49.000Z</time>
      </trkpt>
      <trkpt lat="46.17587" lon="2.69215">
        <ele>598.85</ele>
        <time>2018-07-07T14:31:51.000Z</time>
      </trkpt>
      <trkpt lat="46.17584" lon="2.6919">
        <ele>597.76</ele>
        <time>2018-07-07T14:31:53.000Z</time>
      </trkpt>
      <trkpt lat="46.17584" lon="2.69164">
        <ele>595.59</ele>
        <time>2018-07-07T14:31:55.000Z</time>
      </trkpt>
      <trkpt lat="46.17584" lon="2.69139">
        <ele>593.94</ele>
        <time>2018-07-07T14:31:57.000Z</time>
      </trkpt>
      <trkpt lat="46.17585" lon="2.69126">
        <ele>593.14</ele>
        <time>2018-07-07T14:31:58.000Z</time>
      </trkpt>
      <trkpt lat="46.17585" lon="2.691">
        <ele>592.6</ele>
        <time>2018-07-07T14:32:00.000Z</time>
      </trkpt>
      <trkpt lat="46.17586" lon="2.69085">
        <ele>592.53</ele>
        <time>2018-07-07T14:32:01.000Z</time>
      </trkpt>
      <trkpt lat="46.17586" lon="2.6907">
        <ele>592.48</ele>
        <time>2018-07-07T14:32:02.000Z</time>
      </trkpt>
      <trkpt lat="46.17587" lon="2.69054">
        <ele>592.18</ele>
        <time>2018-07-07T14:32:03.000Z</time>
      </trkpt>
      <trkpt lat="46.17588" lon="2.69039">
        <ele>592.07</ele>
        <time>2018-07-07T14:32:04.000Z</time>
      </trkpt>
      <trkpt lat="46.1759" lon="2.69023">
        <ele>591.72</ele>
        <time>2018-07-07T14:32:05.000Z</time>
      </trkpt>
      <trkpt lat="46.17591" lon="2.69007">
        <ele>591.46</ele>
        <time>2018-07-07T14:32:06.000Z</time>
      </trkpt>
      <trkpt lat="46.17592" lon="2.68992">
        <ele>591.09</ele>
        <time>2018-07-07T14:32:07.000Z</time>
      </trkpt>
      <trkpt lat="46.17593" lon="2.68976">
        <ele>590.54</ele>
        <time>2018-07-07T14:32:08.000Z</time>
      </trkpt>
      <trkpt lat="46.17594" lon="2.68961">
        <ele>590.06</ele>
        <time>2018-07-07T14:32:09.000Z</time>
      </trkpt>
      <trkpt lat="46.17595" lon="2.68946">
        <ele>589.73</ele>
        <time>2018-07-07T14:32:10.000Z</time>
      </trkpt>
      <trkpt lat="46.17596" lon="2.68931">
        <ele>589.37</ele>
        <time>2018-07-07T14:32:11.000Z</time>
      </trkpt>
      <trkpt lat="46.17596" lon="2.68916">
        <ele>588.93</ele>
        <time>2018-07-07T14:32:12.000Z</time>
      </trkpt>
      <trkpt lat="46.17597" lon="2.68901">
        <ele>588.72</ele>
        <time>2018-07-07T14:32:13.000Z</time>
      </trkpt>
      <trkpt lat="46.17598" lon="2.68885">
        <ele>588.41</ele>
        <time>2018-07-07T14:32:14.000Z</time>
      </trkpt>
      <trkpt lat="46.17599" lon="2.68869">
        <ele>588.09</ele>
        <time>2018-07-07T14:32:15.000Z</time>
      </trkpt>
      <trkpt lat="46.176" lon="2.68853">
        <ele>588.12</ele>
        <time>2018-07-07T14:32:16.000Z</time>
      </trkpt>
      <trkpt lat="46.176" lon="2.68837">
        <ele>588.01</ele>
        <time>2018-07-07T14:32:17.000Z</time>
      </trkpt>
      <trkpt lat="46.176" lon="2.68821">
        <ele>587.86</ele>
        <time>2018-07-07T14:32:18.000Z</time>
      </trkpt>
      <trkpt lat="46.17598" lon="2.68806">
        <ele>587.66</ele>
        <time>2018-07-07T14:32:19.000Z</time>
      </trkpt>
      <trkpt lat="46.17597" lon="2.68792">
        <ele>587.44</ele>
        <time>2018-07-07T14:32:20.000Z</time>
      </trkpt>
      <trkpt lat="46.17596" lon="2.68777">
        <ele>587.04</ele>
        <time>2018-07-07T14:32:21.000Z</time>
      </trkpt>
      <trkpt lat="46.17595" lon="2.68764">
        <ele>586.61</ele>
        <time>2018-07-07T14:32:22.000Z</time>
      </trkpt>
      <trkpt lat="46.17593" lon="2.68751">
        <ele>586.09</ele>
        <time>2018-07-07T14:32:23.000Z</time>
      </trkpt>
      <trkpt lat="46.17591" lon="2.68727">
        <ele>584.86</ele>
        <time>2018-07-07T14:32:25.000Z</time>
      </trkpt>
      <trkpt lat="46.17588" lon="2.68705">
        <ele>584.49</ele>
        <time>2018-07-07T14:32:27.000Z</time>
      </trkpt>
      <trkpt lat="46.17585" lon="2.68684">
        <ele>583.59</ele>
        <time>2018-07-07T14:32:29.000Z</time>
      </trkpt>
      <trkpt lat="46.17584" lon="2.68664">
        <ele>582.44</ele>
        <time>2018-07-07T14:32:31.000Z</time>
      </trkpt>
      <trkpt lat="46.17584" lon="2.68643">
        <ele>581.27</ele>
        <time>2018-07-07T14:32:33.000Z</time>
      </trkpt>
      <trkpt lat="46.17585" lon="2.68623">
        <ele>580.26</ele>
        <time>2018-07-07T14:32:35.000Z</time>
      </trkpt>
      <trkpt lat="46.17583" lon="2.68607">
        <ele>579.89</ele>
        <time>2018-07-07T14:32:37.000Z</time>
      </trkpt>
      <trkpt lat="46.17581" lon="2.68589">
        <ele>579.65</ele>
        <time>2018-07-07T14:32:39.000Z</time>
      </trkpt>
      <trkpt lat="46.17579" lon="2.6857">
        <ele>579.07</ele>
        <time>2018-07-07T14:32:41.000Z</time>
      </trkpt>
      <trkpt lat="46.17576" lon="2.68554">
        <ele>579.07</ele>
        <time>2018-07-07T14:32:43.000Z</time>
      </trkpt>
      <trkpt lat="46.17573" lon="2.68537">
        <ele>579.27</ele>
        <time>2018-07-07T14:32:45.000Z</time>
      </trkpt>
      <trkpt lat="46.17571" lon="2.68519">
        <ele>579.63</ele>
        <time>2018-07-07T14:32:47.000Z</time>
      </trkpt>
      <trkpt lat="46.17568" lon="2.685">
        <ele>580.02</ele>
        <time>2018-07-07T14:32:49.000Z</time>
      </trkpt>
      <trkpt lat="46.17567" lon="2.68482">
        <ele>580.35</ele>
        <time>2018-07-07T14:32:51.000Z</time>
      </trkpt>
      <trkpt lat="46.17564" lon="2.68465">
        <ele>580.23</ele>
        <time>2018-07-07T14:32:53.000Z</time>
      </trkpt>
      <trkpt lat="46.17561" lon="2.68448">
        <ele>580.25</ele>
        <time>2018-07-07T14:32:55.000Z</time>
      </trkpt>
      <trkpt lat="46.1756" lon="2.68432">
        <ele>580.87</ele>
        <time>2018-07-07T14:32:57.000Z</time>
      </trkpt>
      <trkpt lat="46.17558" lon="2.68416">
        <ele>581.34</ele>
        <time>2018-07-07T14:32:59.000Z</time>
      </trkpt>
      <trkpt lat="46.17555" lon="2.68398">
        <ele>581.59</ele>
        <time>2018-07-07T14:33:01.000Z</time>
      </trkpt>
      <trkpt lat="46.17552" lon="2.68378">
        <ele>581.67</ele>
        <time>2018-07-07T14:33:03.000Z</time>
      </trkpt>
      <trkpt lat="46.1755" lon="2.68357">
        <ele>582.15</ele>
        <time>2018-07-07T14:33:05.000Z</time>
      </trkpt>
      <trkpt lat="46.17548" lon="2.68333">
        <ele>582.08</ele>
        <time>2018-07-07T14:33:07.000Z</time>
      </trkpt>
      <trkpt lat="46.17546" lon="2.68311">
        <ele>582.26</ele>
        <time>2018-07-07T14:33:09.000Z</time>
      </trkpt>
      <trkpt lat="46.17542" lon="2.68289">
        <ele>582.09</ele>
        <time>2018-07-07T14:33:11.000Z</time>
      </trkpt>
      <trkpt lat="46.17536" lon="2.68268">
        <ele>582.03</ele>
        <time>2018-07-07T14:33:13.000Z</time>
      </trkpt>
      <trkpt lat="46.17529" lon="2.68251">
        <ele>582.2</ele>
        <time>2018-07-07T14:33:15.000Z</time>
      </trkpt>
      <trkpt lat="46.17519" lon="2.68234">
        <ele>582.31</ele>
        <time>2018-07-07T14:33:17.000Z</time>
      </trkpt>
      <trkpt lat="46.17508" lon="2.68218">
        <ele>582.37</ele>
        <time>2018-07-07T14:33:19.000Z</time>
      </trkpt>
      <trkpt lat="46.17495" lon="2.68205">
        <ele>582.77</ele>
        <time>2018-07-07T14:33:21.000Z</time>
      </trkpt>
      <trkpt lat="46.17482" lon="2.68193">
        <ele>582.87</ele>
        <time>2018-07-07T14:33:23.000Z</time>
      </trkpt>
      <trkpt lat="46.17469" lon="2.68177">
        <ele>582.56</ele>
        <time>2018-07-07T14:33:25.000Z</time>
      </trkpt>
      <trkpt lat="46.17457" lon="2.68162">
        <ele>582.51</ele>
        <time>2018-07-07T14:33:27.000Z</time>
      </trkpt>
      <trkpt lat="46.17444" lon="2.68148">
        <ele>582.83</ele>
        <time>2018-07-07T14:33:29.000Z</time>
      </trkpt>
      <trkpt lat="46.17427" lon="2.68127">
        <ele>583.61</ele>
        <time>2018-07-07T14:33:32.000Z</time>
      </trkpt>
      <trkpt lat="46.17415" lon="2.6811">
        <ele>583.7</ele>
        <time>2018-07-07T14:33:34.000Z</time>
      </trkpt>
      <trkpt lat="46.17407" lon="2.68091">
        <ele>583.79</ele>
        <time>2018-07-07T14:33:36.000Z</time>
      </trkpt>
      <trkpt lat="46.17399" lon="2.68073">
        <ele>583.67</ele>
        <time>2018-07-07T14:33:38.000Z</time>
      </trkpt>
      <trkpt lat="46.17387" lon="2.68042">
        <ele>582.96</ele>
        <time>2018-07-07T14:33:41.000Z</time>
      </trkpt>
      <trkpt lat="46.17382" lon="2.6802">
        <ele>582.82</ele>
        <time>2018-07-07T14:33:43.000Z</time>
      </trkpt>
      <trkpt lat="46.17377" lon="2.67998">
        <ele>582.63</ele>
        <time>2018-07-07T14:33:45.000Z</time>
      </trkpt>
      <trkpt lat="46.17368" lon="2.67962">
        <ele>582.06</ele>
        <time>2018-07-07T14:33:48.000Z</time>
      </trkpt>
      <trkpt lat="46.17357" lon="2.67929">
        <ele>581.21</ele>
        <time>2018-07-07T14:33:51.000Z</time>
      </trkpt>
      <trkpt lat="46.1735" lon="2.67908">
        <ele>580.65</ele>
        <time>2018-07-07T14:33:53.000Z</time>
      </trkpt>
      <trkpt lat="46.17343" lon="2.67887">
        <ele>580.52</ele>
        <time>2018-07-07T14:33:55.000Z</time>
      </trkpt>
      <trkpt lat="46.17338" lon="2.67863">
        <ele>580.37</ele>
        <time>2018-07-07T14:33:57.000Z</time>
      </trkpt>
      <trkpt lat="46.17332" lon="2.67842">
        <ele>580.37</ele>
        <time>2018-07-07T14:33:59.000Z</time>
      </trkpt>
      <trkpt lat="46.17326" lon="2.67822">
        <ele>580.4</ele>
        <time>2018-07-07T14:34:01.000Z</time>
      </trkpt>
      <trkpt lat="46.17319" lon="2.67804">
        <ele>580.66</ele>
        <time>2018-07-07T14:34:03.000Z</time>
      </trkpt>
      <trkpt lat="46.17311" lon="2.67787">
        <ele>580.99</ele>
        <time>2018-07-07T14:34:05.000Z</time>
      </trkpt>
      <trkpt lat="46.17302" lon="2.6777">
        <ele>581.36</ele>
        <time>2018-07-07T14:34:07.000Z</time>
      </trkpt>
      <trkpt lat="46.17294" lon="2.67754">
        <ele>581.6</ele>
        <time>2018-07-07T14:34:09.000Z</time>
      </trkpt>
      <trkpt lat="46.17285" lon="2.67738">
        <ele>581.6</ele>
        <time>2018-07-07T14:34:11.000Z</time>
      </trkpt>
      <trkpt lat="46.17278" lon="2.67722">
        <ele>581.63</ele>
        <time>2018-07-07T14:34:13.000Z</time>
      </trkpt>
      <trkpt lat="46.17271" lon="2.67706">
        <ele>582</ele>
        <time>2018-07-07T14:34:15.000Z</time>
      </trkpt>
      <trkpt lat="46.17267" lon="2.67686">
        <ele>582.19</ele>
        <time>2018-07-07T14:34:17.000Z</time>
      </trkpt>
      <trkpt lat="46.17262" lon="2.67668">
        <ele>582.34</ele>
        <time>2018-07-07T14:34:19.000Z</time>
      </trkpt>
      <trkpt lat="46.17258" lon="2.67651">
        <ele>582.61</ele>
        <time>2018-07-07T14:34:21.000Z</time>
      </trkpt>
      <trkpt lat="46.17253" lon="2.67635">
        <ele>583.13</ele>
        <time>2018-07-07T14:34:23.000Z</time>
      </trkpt>
      <trkpt lat="46.1725" lon="2.67617">
        <ele>584.03</ele>
        <time>2018-07-07T14:34:25.000Z</time>
      </trkpt>
      <trkpt lat="46.17247" lon="2.67599">
        <ele>584.56</ele>
        <time>2018-07-07T14:34:27.000Z</time>
      </trkpt>
      <trkpt lat="46.17244" lon="2.67579">
        <ele>584.91</ele>
        <time>2018-07-07T14:34:29.000Z</time>
      </trkpt>
      <trkpt lat="46.17241" lon="2.67558">
        <ele>585.36</ele>
        <time>2018-07-07T14:34:31.000Z</time>
      </trkpt>
      <trkpt lat="46.17239" lon="2.67534">
        <ele>585.38</ele>
        <time>2018-07-07T14:34:33.000Z</time>
      </trkpt>
      <trkpt lat="46.17235" lon="2.67512">
        <ele>585.11</ele>
        <time>2018-07-07T14:34:35.000Z</time>
      </trkpt>
      <trkpt lat="46.1723" lon="2.6749">
        <ele>584.54</ele>
        <time>2018-07-07T14:34:37.000Z</time>
      </trkpt>
      <trkpt lat="46.17226" lon="2.67468">
        <ele>584.32</ele>
        <time>2018-07-07T14:34:39.000Z</time>
      </trkpt>
      <trkpt lat="46.17222" lon="2.67448">
        <ele>584.45</ele>
        <time>2018-07-07T14:34:41.000Z</time>
      </trkpt>
      <trkpt lat="46.17217" lon="2.67426">
        <ele>584.3</ele>
        <time>2018-07-07T14:34:43.000Z</time>
      </trkpt>
      <trkpt lat="46.17214" lon="2.67402">
        <ele>584.32</ele>
        <time>2018-07-07T14:34:45.000Z</time>
      </trkpt>
      <trkpt lat="46.1721" lon="2.67377">
        <ele>584.15</ele>
        <time>2018-07-07T14:34:47.000Z</time>
      </trkpt>
      <trkpt lat="46.17207" lon="2.67364">
        <ele>584.01</ele>
        <time>2018-07-07T14:34:48.000Z</time>
      </trkpt>
      <trkpt lat="46.17204" lon="2.67352">
        <ele>584.06</ele>
        <time>2018-07-07T14:34:49.000Z</time>
      </trkpt>
      <trkpt lat="46.17201" lon="2.67339">
        <ele>584.29</ele>
        <time>2018-07-07T14:34:50.000Z</time>
      </trkpt>
      <trkpt lat="46.17198" lon="2.67326">
        <ele>584.2</ele>
        <time>2018-07-07T14:34:51.000Z</time>
      </trkpt>
      <trkpt lat="46.17195" lon="2.67312">
        <ele>584.23</ele>
        <time>2018-07-07T14:34:52.000Z</time>
      </trkpt>
      <trkpt lat="46.17192" lon="2.673">
        <ele>584.22</ele>
        <time>2018-07-07T14:34:53.000Z</time>
      </trkpt>
      <trkpt lat="46.17188" lon="2.67275">
        <ele>584.71</ele>
        <time>2018-07-07T14:34:55.000Z</time>
      </trkpt>
      <trkpt lat="46.17186" lon="2.67261">
        <ele>584.96</ele>
        <time>2018-07-07T14:34:56.000Z</time>
      </trkpt>
      <trkpt lat="46.17184" lon="2.67248">
        <ele>584.99</ele>
        <time>2018-07-07T14:34:57.000Z</time>
      </trkpt>
      <trkpt lat="46.17182" lon="2.67234">
        <ele>584.81</ele>
        <time>2018-07-07T14:34:58.000Z</time>
      </trkpt>
      <trkpt lat="46.1718" lon="2.6722">
        <ele>584.65</ele>
        <time>2018-07-07T14:34:59.000Z</time>
      </trkpt>
      <trkpt lat="46.17177" lon="2.67206">
        <ele>584.47</ele>
        <time>2018-07-07T14:35:00.000Z</time>
      </trkpt>
      <trkpt lat="46.17175" lon="2.67191">
        <ele>584.35</ele>
        <time>2018-07-07T14:35:01.000Z</time>
      </trkpt>
      <trkpt lat="46.17172" lon="2.67178">
        <ele>583.76</ele>
        <time>2018-07-07T14:35:02.000Z</time>
      </trkpt>
      <trkpt lat="46.17168" lon="2.67164">
        <ele>583.44</ele>
        <time>2018-07-07T14:35:03.000Z</time>
      </trkpt>
      <trkpt lat="46.17166" lon="2.6715">
        <ele>582.9</ele>
        <time>2018-07-07T14:35:04.000Z</time>
      </trkpt>
      <trkpt lat="46.17163" lon="2.67135">
        <ele>582.4</ele>
        <time>2018-07-07T14:35:05.000Z</time>
      </trkpt>
      <trkpt lat="46.17161" lon="2.6712">
        <ele>582.07</ele>
        <time>2018-07-07T14:35:06.000Z</time>
      </trkpt>
      <trkpt lat="46.17159" lon="2.67106">
        <ele>581.87</ele>
        <time>2018-07-07T14:35:07.000Z</time>
      </trkpt>
      <trkpt lat="46.17157" lon="2.6709">
        <ele>581.75</ele>
        <time>2018-07-07T14:35:08.000Z</time>
      </trkpt>
      <trkpt lat="46.17156" lon="2.67075">
        <ele>581.56</ele>
        <time>2018-07-07T14:35:09.000Z</time>
      </trkpt>
      <trkpt lat="46.17154" lon="2.67058">
        <ele>581.57</ele>
        <time>2018-07-07T14:35:10.000Z</time>
      </trkpt>
      <trkpt lat="46.17153" lon="2.67043">
        <ele>581.57</ele>
        <time>2018-07-07T14:35:11.000Z</time>
      </trkpt>
      <trkpt lat="46.17151" lon="2.67027">
        <ele>581.63</ele>
        <time>2018-07-07T14:35:12.000Z</time>
      </trkpt>
      <trkpt lat="46.17148" lon="2.6701">
        <ele>581.71</ele>
        <time>2018-07-07T14:35:13.000Z</time>
      </trkpt>
      <trkpt lat="46.17146" lon="2.66994">
        <ele>581.79</ele>
        <time>2018-07-07T14:35:14.000Z</time>
      </trkpt>
      <trkpt lat="46.17144" lon="2.66979">
        <ele>581.66</ele>
        <time>2018-07-07T14:35:15.000Z</time>
      </trkpt>
      <trkpt lat="46.17141" lon="2.66964">
        <ele>580.91</ele>
        <time>2018-07-07T14:35:16.000Z</time>
      </trkpt>
      <trkpt lat="46.17137" lon="2.66949">
        <ele>580.74</ele>
        <time>2018-07-07T14:35:17.000Z</time>
      </trkpt>
      <trkpt lat="46.17133" lon="2.66935">
        <ele>580.79</ele>
        <time>2018-07-07T14:35:18.000Z</time>
      </trkpt>
      <trkpt lat="46.17127" lon="2.66923">
        <ele>581.01</ele>
        <time>2018-07-07T14:35:19.000Z</time>
      </trkpt>
      <trkpt lat="46.17122" lon="2.66911">
        <ele>580.83</ele>
        <time>2018-07-07T14:35:20.000Z</time>
      </trkpt>
      <trkpt lat="46.17117" lon="2.66897">
        <ele>580.1</ele>
        <time>2018-07-07T14:35:21.000Z</time>
      </trkpt>
      <trkpt lat="46.17112" lon="2.66884">
        <ele>579.54</ele>
        <time>2018-07-07T14:35:22.000Z</time>
      </trkpt>
      <trkpt lat="46.17107" lon="2.66871">
        <ele>578.88</ele>
        <time>2018-07-07T14:35:23.000Z</time>
      </trkpt>
      <trkpt lat="46.17102" lon="2.66858">
        <ele>578.51</ele>
        <time>2018-07-07T14:35:24.000Z</time>
      </trkpt>
      <trkpt lat="46.17098" lon="2.66845">
        <ele>578.15</ele>
        <time>2018-07-07T14:35:25.000Z</time>
      </trkpt>
      <trkpt lat="46.17093" lon="2.66832">
        <ele>577.73</ele>
        <time>2018-07-07T14:35:26.000Z</time>
      </trkpt>
      <trkpt lat="46.17088" lon="2.66819">
        <ele>576.9</ele>
        <time>2018-07-07T14:35:27.000Z</time>
      </trkpt>
      <trkpt lat="46.17085" lon="2.66806">
        <ele>576.16</ele>
        <time>2018-07-07T14:35:28.000Z</time>
      </trkpt>
      <trkpt lat="46.17081" lon="2.66794">
        <ele>575.91</ele>
        <time>2018-07-07T14:35:29.000Z</time>
      </trkpt>
      <trkpt lat="46.17076" lon="2.66781">
        <ele>575.44</ele>
        <time>2018-07-07T14:35:30.000Z</time>
      </trkpt>
      <trkpt lat="46.17072" lon="2.66769">
        <ele>574.68</ele>
        <time>2018-07-07T14:35:31.000Z</time>
      </trkpt>
      <trkpt lat="46.17067" lon="2.66756">
        <ele>574.08</ele>
        <time>2018-07-07T14:35:32.000Z</time>
      </trkpt>
      <trkpt lat="46.17062" lon="2.66743">
        <ele>573.45</ele>
        <time>2018-07-07T14:35:33.000Z</time>
      </trkpt>
      <trkpt lat="46.17058" lon="2.6673">
        <ele>572.79</ele>
        <time>2018-07-07T14:35:34.000Z</time>
      </trkpt>
      <trkpt lat="46.17054" lon="2.66717">
        <ele>572.21</ele>
        <time>2018-07-07T14:35:35.000Z</time>
      </trkpt>
      <trkpt lat="46.17051" lon="2.66704">
        <ele>571.76</ele>
        <time>2018-07-07T14:35:36.000Z</time>
      </trkpt>
      <trkpt lat="46.17048" lon="2.66691">
        <ele>571.32</ele>
        <time>2018-07-07T14:35:37.000Z</time>
      </trkpt>
      <trkpt lat="46.17044" lon="2.66677">
        <ele>571.06</ele>
        <time>2018-07-07T14:35:38.000Z</time>
      </trkpt>
      <trkpt lat="46.17042" lon="2.66663">
        <ele>570.73</ele>
        <time>2018-07-07T14:35:39.000Z</time>
      </trkpt>
      <trkpt lat="46.1704" lon="2.66649">
        <ele>570.2</ele>
        <time>2018-07-07T14:35:40.000Z</time>
      </trkpt>
      <trkpt lat="46.17038" lon="2.66635">
        <ele>569.21</ele>
        <time>2018-07-07T14:35:41.000Z</time>
      </trkpt>
      <trkpt lat="46.17036" lon="2.66621">
        <ele>568.51</ele>
        <time>2018-07-07T14:35:42.000Z</time>
      </trkpt>
      <trkpt lat="46.17034" lon="2.66606">
        <ele>568.15</ele>
        <time>2018-07-07T14:35:43.000Z</time>
      </trkpt>
      <trkpt lat="46.17032" lon="2.66592">
        <ele>567.97</ele>
        <time>2018-07-07T14:35:44.000Z</time>
      </trkpt>
      <trkpt lat="46.17029" lon="2.66577">
        <ele>567.65</ele>
        <time>2018-07-07T14:35:45.000Z</time>
      </trkpt>
      <trkpt lat="46.17027" lon="2.66563">
        <ele>567.37</ele>
        <time>2018-07-07T14:35:46.000Z</time>
      </trkpt>
      <trkpt lat="46.17025" lon="2.66548">
        <ele>567.07</ele>
        <time>2018-07-07T14:35:47.000Z</time>
      </trkpt>
      <trkpt lat="46.17022" lon="2.66534">
        <ele>566.84</ele>
        <time>2018-07-07T14:35:48.000Z</time>
      </trkpt>
      <trkpt lat="46.17021" lon="2.66521">
        <ele>566.46</ele>
        <time>2018-07-07T14:35:49.000Z</time>
      </trkpt>
      <trkpt lat="46.1702" lon="2.66507">
        <ele>566.12</ele>
        <time>2018-07-07T14:35:50.000Z</time>
      </trkpt>
      <trkpt lat="46.1702" lon="2.66494">
        <ele>565.83</ele>
        <time>2018-07-07T14:35:51.000Z</time>
      </trkpt>
      <trkpt lat="46.1702" lon="2.6648">
        <ele>565.45</ele>
        <time>2018-07-07T14:35:52.000Z</time>
      </trkpt>
      <trkpt lat="46.17021" lon="2.66467">
        <ele>565.17</ele>
        <time>2018-07-07T14:35:53.000Z</time>
      </trkpt>
      <trkpt lat="46.17022" lon="2.66453">
        <ele>565.03</ele>
        <time>2018-07-07T14:35:54.000Z</time>
      </trkpt>
      <trkpt lat="46.17024" lon="2.66439">
        <ele>564.71</ele>
        <time>2018-07-07T14:35:55.000Z</time>
      </trkpt>
      <trkpt lat="46.17025" lon="2.66425">
        <ele>564.58</ele>
        <time>2018-07-07T14:35:56.000Z</time>
      </trkpt>
      <trkpt lat="46.17027" lon="2.66412">
        <ele>564.28</ele>
        <time>2018-07-07T14:35:57.000Z</time>
      </trkpt>
      <trkpt lat="46.17028" lon="2.66399">
        <ele>563.8</ele>
        <time>2018-07-07T14:35:58.000Z</time>
      </trkpt>
      <trkpt lat="46.17031" lon="2.66373">
        <ele>563.02</ele>
        <time>2018-07-07T14:36:00.000Z</time>
      </trkpt>
      <trkpt lat="46.17033" lon="2.66348">
        <ele>562.18</ele>
        <time>2018-07-07T14:36:02.000Z</time>
      </trkpt>
      <trkpt lat="46.17035" lon="2.66325">
        <ele>561.62</ele>
        <time>2018-07-07T14:36:04.000Z</time>
      </trkpt>
      <trkpt lat="46.17037" lon="2.66301">
        <ele>561.25</ele>
        <time>2018-07-07T14:36:06.000Z</time>
      </trkpt>
      <trkpt lat="46.17039" lon="2.66278">
        <ele>561</ele>
        <time>2018-07-07T14:36:08.000Z</time>
      </trkpt>
      <trkpt lat="46.17042" lon="2.66253">
        <ele>560.84</ele>
        <time>2018-07-07T14:36:10.000Z</time>
      </trkpt>
      <trkpt lat="46.17044" lon="2.66229">
        <ele>560.72</ele>
        <time>2018-07-07T14:36:12.000Z</time>
      </trkpt>
      <trkpt lat="46.17047" lon="2.66205">
        <ele>560.78</ele>
        <time>2018-07-07T14:36:14.000Z</time>
      </trkpt>
      <trkpt lat="46.17049" lon="2.66182">
        <ele>560.81</ele>
        <time>2018-07-07T14:36:16.000Z</time>
      </trkpt>
      <trkpt lat="46.1705" lon="2.66158">
        <ele>561.19</ele>
        <time>2018-07-07T14:36:18.000Z</time>
      </trkpt>
      <trkpt lat="46.17052" lon="2.66135">
        <ele>561.3</ele>
        <time>2018-07-07T14:36:20.000Z</time>
      </trkpt>
      <trkpt lat="46.17053" lon="2.66111">
        <ele>561.53</ele>
        <time>2018-07-07T14:36:22.000Z</time>
      </trkpt>
      <trkpt lat="46.17055" lon="2.66085">
        <ele>561.53</ele>
        <time>2018-07-07T14:36:24.000Z</time>
      </trkpt>
      <trkpt lat="46.17056" lon="2.6606">
        <ele>561.46</ele>
        <time>2018-07-07T14:36:26.000Z</time>
      </trkpt>
      <trkpt lat="46.17057" lon="2.66047">
        <ele>561.39</ele>
        <time>2018-07-07T14:36:27.000Z</time>
      </trkpt>
      <trkpt lat="46.17057" lon="2.66034">
        <ele>561.32</ele>
        <time>2018-07-07T14:36:28.000Z</time>
      </trkpt>
      <trkpt lat="46.17058" lon="2.6602">
        <ele>560.99</ele>
        <time>2018-07-07T14:36:29.000Z</time>
      </trkpt>
      <trkpt lat="46.17058" lon="2.66007">
        <ele>560.55</ele>
        <time>2018-07-07T14:36:30.000Z</time>
      </trkpt>
      <trkpt lat="46.17058" lon="2.65994">
        <ele>559.98</ele>
        <time>2018-07-07T14:36:31.000Z</time>
      </trkpt>
      <trkpt lat="46.17059" lon="2.6598">
        <ele>559.62</ele>
        <time>2018-07-07T14:36:32.000Z</time>
      </trkpt>
      <trkpt lat="46.17059" lon="2.65967">
        <ele>559.47</ele>
        <time>2018-07-07T14:36:33.000Z</time>
      </trkpt>
      <trkpt lat="46.1706" lon="2.65941">
        <ele>559.08</ele>
        <time>2018-07-07T14:36:35.000Z</time>
      </trkpt>
      <trkpt lat="46.17061" lon="2.65927">
        <ele>558.85</ele>
        <time>2018-07-07T14:36:36.000Z</time>
      </trkpt>
      <trkpt lat="46.17061" lon="2.65901">
        <ele>558.19</ele>
        <time>2018-07-07T14:36:38.000Z</time>
      </trkpt>
      <trkpt lat="46.17062" lon="2.65877">
        <ele>558.15</ele>
        <time>2018-07-07T14:36:40.000Z</time>
      </trkpt>
      <trkpt lat="46.17062" lon="2.6585">
        <ele>558.01</ele>
        <time>2018-07-07T14:36:42.000Z</time>
      </trkpt>
      <trkpt lat="46.17062" lon="2.65837">
        <ele>557.91</ele>
        <time>2018-07-07T14:36:43.000Z</time>
      </trkpt>
      <trkpt lat="46.17062" lon="2.65823">
        <ele>557.88</ele>
        <time>2018-07-07T14:36:44.000Z</time>
      </trkpt>
      <trkpt lat="46.17062" lon="2.65809">
        <ele>557.73</ele>
        <time>2018-07-07T14:36:45.000Z</time>
      </trkpt>
      <trkpt lat="46.17063" lon="2.65795">
        <ele>557.61</ele>
        <time>2018-07-07T14:36:46.000Z</time>
      </trkpt>
      <trkpt lat="46.17064" lon="2.65781">
        <ele>557.68</ele>
        <time>2018-07-07T14:36:47.000Z</time>
      </trkpt>
      <trkpt lat="46.17064" lon="2.65767">
        <ele>557.71</ele>
        <time>2018-07-07T14:36:48.000Z</time>
      </trkpt>
      <trkpt lat="46.17064" lon="2.65753">
        <ele>557.69</ele>
        <time>2018-07-07T14:36:49.000Z</time>
      </trkpt>
      <trkpt lat="46.17064" lon="2.65739">
        <ele>557.73</ele>
        <time>2018-07-07T14:36:50.000Z</time>
      </trkpt>
      <trkpt lat="46.17065" lon="2.65725">
        <ele>557.78</ele>
        <time>2018-07-07T14:36:51.000Z</time>
      </trkpt>
      <trkpt lat="46.17067" lon="2.6571">
        <ele>557.65</ele>
        <time>2018-07-07T14:36:52.000Z</time>
      </trkpt>
      <trkpt lat="46.17068" lon="2.65696">
        <ele>557.54</ele>
        <time>2018-07-07T14:36:53.000Z</time>
      </trkpt>
      <trkpt lat="46.17069" lon="2.65682">
        <ele>557.42</ele>
        <time>2018-07-07T14:36:54.000Z</time>
      </trkpt>
      <trkpt lat="46.17069" lon="2.65668">
        <ele>557.14</ele>
        <time>2018-07-07T14:36:55.000Z</time>
      </trkpt>
      <trkpt lat="46.1707" lon="2.65654">
        <ele>556.87</ele>
        <time>2018-07-07T14:36:56.000Z</time>
      </trkpt>
      <trkpt lat="46.17071" lon="2.6564">
        <ele>556.51</ele>
        <time>2018-07-07T14:36:57.000Z</time>
      </trkpt>
      <trkpt lat="46.17072" lon="2.65627">
        <ele>556.26</ele>
        <time>2018-07-07T14:36:58.000Z</time>
      </trkpt>
      <trkpt lat="46.17072" lon="2.65614">
        <ele>556.08</ele>
        <time>2018-07-07T14:36:59.000Z</time>
      </trkpt>
      <trkpt lat="46.17073" lon="2.65601">
        <ele>555.99</ele>
        <time>2018-07-07T14:37:00.000Z</time>
      </trkpt>
      <trkpt lat="46.17074" lon="2.65588">
        <ele>555.91</ele>
        <time>2018-07-07T14:37:01.000Z</time>
      </trkpt>
      <trkpt lat="46.17075" lon="2.65575">
        <ele>555.81</ele>
        <time>2018-07-07T14:37:02.000Z</time>
      </trkpt>
      <trkpt lat="46.17076" lon="2.65561">
        <ele>555.8</ele>
        <time>2018-07-07T14:37:03.000Z</time>
      </trkpt>
      <trkpt lat="46.17076" lon="2.65548">
        <ele>555.56</ele>
        <time>2018-07-07T14:37:04.000Z</time>
      </trkpt>
      <trkpt lat="46.17077" lon="2.65534">
        <ele>555.4</ele>
        <time>2018-07-07T14:37:05.000Z</time>
      </trkpt>
      <trkpt lat="46.17078" lon="2.65521">
        <ele>555.36</ele>
        <time>2018-07-07T14:37:06.000Z</time>
      </trkpt>
      <trkpt lat="46.17078" lon="2.65508">
        <ele>555.36</ele>
        <time>2018-07-07T14:37:07.000Z</time>
      </trkpt>
      <trkpt lat="46.17078" lon="2.65494">
        <ele>555.41</ele>
        <time>2018-07-07T14:37:08.000Z</time>
      </trkpt>
      <trkpt lat="46.17079" lon="2.65479">
        <ele>555.55</ele>
        <time>2018-07-07T14:37:09.000Z</time>
      </trkpt>
      <trkpt lat="46.1708" lon="2.65465">
        <ele>555.61</ele>
        <time>2018-07-07T14:37:10.000Z</time>
      </trkpt>
      <trkpt lat="46.17081" lon="2.6545">
        <ele>555.59</ele>
        <time>2018-07-07T14:37:11.000Z</time>
      </trkpt>
      <trkpt lat="46.17082" lon="2.65436">
        <ele>555.39</ele>
        <time>2018-07-07T14:37:12.000Z</time>
      </trkpt>
      <trkpt lat="46.17083" lon="2.65422">
        <ele>555.42</ele>
        <time>2018-07-07T14:37:13.000Z</time>
      </trkpt>
      <trkpt lat="46.17083" lon="2.65407">
        <ele>555.26</ele>
        <time>2018-07-07T14:37:14.000Z</time>
      </trkpt>
      <trkpt lat="46.17084" lon="2.65394">
        <ele>555.13</ele>
        <time>2018-07-07T14:37:15.000Z</time>
      </trkpt>
      <trkpt lat="46.17084" lon="2.6538">
        <ele>555.05</ele>
        <time>2018-07-07T14:37:16.000Z</time>
      </trkpt>
      <trkpt lat="46.17083" lon="2.65367">
        <ele>554.98</ele>
        <time>2018-07-07T14:37:17.000Z</time>
      </trkpt>
      <trkpt lat="46.17083" lon="2.65353">
        <ele>554.8</ele>
        <time>2018-07-07T14:37:18.000Z</time>
      </trkpt>
      <trkpt lat="46.17082" lon="2.6534">
        <ele>554.76</ele>
        <time>2018-07-07T14:37:19.000Z</time>
      </trkpt>
      <trkpt lat="46.1708" lon="2.65326">
        <ele>554.69</ele>
        <time>2018-07-07T14:37:20.000Z</time>
      </trkpt>
      <trkpt lat="46.17079" lon="2.65313">
        <ele>554.75</ele>
        <time>2018-07-07T14:37:21.000Z</time>
      </trkpt>
      <trkpt lat="46.17077" lon="2.653">
        <ele>554.7</ele>
        <time>2018-07-07T14:37:22.000Z</time>
      </trkpt>
      <trkpt lat="46.17074" lon="2.65286">
        <ele>554.71</ele>
        <time>2018-07-07T14:37:23.000Z</time>
      </trkpt>
      <trkpt lat="46.17072" lon="2.65274">
        <ele>554.8</ele>
        <time>2018-07-07T14:37:24.000Z</time>
      </trkpt>
      <trkpt lat="46.17069" lon="2.6526">
        <ele>554.7</ele>
        <time>2018-07-07T14:37:25.000Z</time>
      </trkpt>
      <trkpt lat="46.17066" lon="2.65248">
        <ele>554.45</ele>
        <time>2018-07-07T14:37:26.000Z</time>
      </trkpt>
      <trkpt lat="46.17063" lon="2.65235">
        <ele>554</ele>
        <time>2018-07-07T14:37:27.000Z</time>
      </trkpt>
      <trkpt lat="46.17061" lon="2.65221">
        <ele>553.65</ele>
        <time>2018-07-07T14:37:28.000Z</time>
      </trkpt>
      <trkpt lat="46.17058" lon="2.65208">
        <ele>553.33</ele>
        <time>2018-07-07T14:37:29.000Z</time>
      </trkpt>
      <trkpt lat="46.17056" lon="2.65194">
        <ele>553.11</ele>
        <time>2018-07-07T14:37:30.000Z</time>
      </trkpt>
      <trkpt lat="46.17053" lon="2.65181">
        <ele>553.03</ele>
        <time>2018-07-07T14:37:31.000Z</time>
      </trkpt>
      <trkpt lat="46.17051" lon="2.65168">
        <ele>552.9</ele>
        <time>2018-07-07T14:37:32.000Z</time>
      </trkpt>
      <trkpt lat="46.17047" lon="2.65155">
        <ele>552.73</ele>
        <time>2018-07-07T14:37:33.000Z</time>
      </trkpt>
      <trkpt lat="46.17043" lon="2.65143">
        <ele>552.73</ele>
        <time>2018-07-07T14:37:34.000Z</time>
      </trkpt>
      <trkpt lat="46.17039" lon="2.65131">
        <ele>552.67</ele>
        <time>2018-07-07T14:37:35.000Z</time>
      </trkpt>
      <trkpt lat="46.17035" lon="2.65119">
        <ele>552.43</ele>
        <time>2018-07-07T14:37:36.000Z</time>
      </trkpt>
      <trkpt lat="46.1703" lon="2.65107">
        <ele>552.45</ele>
        <time>2018-07-07T14:37:37.000Z</time>
      </trkpt>
      <trkpt lat="46.17025" lon="2.65096">
        <ele>552.55</ele>
        <time>2018-07-07T14:37:38.000Z</time>
      </trkpt>
      <trkpt lat="46.1702" lon="2.65086">
        <ele>552.51</ele>
        <time>2018-07-07T14:37:39.000Z</time>
      </trkpt>
      <trkpt lat="46.17014" lon="2.65075">
        <ele>552.62</ele>
        <time>2018-07-07T14:37:40.000Z</time>
      </trkpt>
      <trkpt lat="46.17008" lon="2.65065">
        <ele>552.69</ele>
        <time>2018-07-07T14:37:41.000Z</time>
      </trkpt>
      <trkpt lat="46.17003" lon="2.65055">
        <ele>552.73</ele>
        <time>2018-07-07T14:37:42.000Z</time>
      </trkpt>
      <trkpt lat="46.16991" lon="2.65035">
        <ele>552.95</ele>
        <time>2018-07-07T14:37:44.000Z</time>
      </trkpt>
      <trkpt lat="46.1698" lon="2.65015">
        <ele>553.17</ele>
        <time>2018-07-07T14:37:46.000Z</time>
      </trkpt>
      <trkpt lat="46.16969" lon="2.64994">
        <ele>553.15</ele>
        <time>2018-07-07T14:37:48.000Z</time>
      </trkpt>
      <trkpt lat="46.16959" lon="2.64974">
        <ele>553.16</ele>
        <time>2018-07-07T14:37:50.000Z</time>
      </trkpt>
      <trkpt lat="46.16949" lon="2.64956">
        <ele>553.48</ele>
        <time>2018-07-07T14:37:52.000Z</time>
      </trkpt>
      <trkpt lat="46.16938" lon="2.64938">
        <ele>553.49</ele>
        <time>2018-07-07T14:37:54.000Z</time>
      </trkpt>
      <trkpt lat="46.16929" lon="2.64919">
        <ele>553.83</ele>
        <time>2018-07-07T14:37:56.000Z</time>
      </trkpt>
      <trkpt lat="46.16918" lon="2.649">
        <ele>553.96</ele>
        <time>2018-07-07T14:37:58.000Z</time>
      </trkpt>
      <trkpt lat="46.16906" lon="2.64882">
        <ele>554.48</ele>
        <time>2018-07-07T14:38:00.000Z</time>
      </trkpt>
      <trkpt lat="46.16895" lon="2.64862">
        <ele>555.12</ele>
        <time>2018-07-07T14:38:02.000Z</time>
      </trkpt>
      <trkpt lat="46.16888" lon="2.64852">
        <ele>555.33</ele>
        <time>2018-07-07T14:38:03.000Z</time>
      </trkpt>
      <trkpt lat="46.16882" lon="2.64842">
        <ele>555.68</ele>
        <time>2018-07-07T14:38:04.000Z</time>
      </trkpt>
      <trkpt lat="46.16876" lon="2.64831">
        <ele>555.82</ele>
        <time>2018-07-07T14:38:05.000Z</time>
      </trkpt>
      <trkpt lat="46.1687" lon="2.64821">
        <ele>556.16</ele>
        <time>2018-07-07T14:38:06.000Z</time>
      </trkpt>
      <trkpt lat="46.16864" lon="2.64811">
        <ele>556.31</ele>
        <time>2018-07-07T14:38:07.000Z</time>
      </trkpt>
      <trkpt lat="46.16858" lon="2.64801">
        <ele>556.25</ele>
        <time>2018-07-07T14:38:08.000Z</time>
      </trkpt>
      <trkpt lat="46.16851" lon="2.64791">
        <ele>556.36</ele>
        <time>2018-07-07T14:38:09.000Z</time>
      </trkpt>
      <trkpt lat="46.16845" lon="2.6478">
        <ele>556.38</ele>
        <time>2018-07-07T14:38:10.000Z</time>
      </trkpt>
      <trkpt lat="46.16839" lon="2.6477">
        <ele>556.33</ele>
        <time>2018-07-07T14:38:11.000Z</time>
      </trkpt>
      <trkpt lat="46.16832" lon="2.6476">
        <ele>556.18</ele>
        <time>2018-07-07T14:38:12.000Z</time>
      </trkpt>
      <trkpt lat="46.16826" lon="2.64749">
        <ele>556.07</ele>
        <time>2018-07-07T14:38:13.000Z</time>
      </trkpt>
      <trkpt lat="46.1682" lon="2.64737">
        <ele>556.05</ele>
        <time>2018-07-07T14:38:14.000Z</time>
      </trkpt>
      <trkpt lat="46.16813" lon="2.64726">
        <ele>555.79</ele>
        <time>2018-07-07T14:38:15.000Z</time>
      </trkpt>
      <trkpt lat="46.16805" lon="2.64715">
        <ele>555.67</ele>
        <time>2018-07-07T14:38:16.000Z</time>
      </trkpt>
      <trkpt lat="46.16798" lon="2.64704">
        <ele>555.6</ele>
        <time>2018-07-07T14:38:17.000Z</time>
      </trkpt>
      <trkpt lat="46.16791" lon="2.64693">
        <ele>555.75</ele>
        <time>2018-07-07T14:38:18.000Z</time>
      </trkpt>
      <trkpt lat="46.16784" lon="2.64681">
        <ele>555.86</ele>
        <time>2018-07-07T14:38:19.000Z</time>
      </trkpt>
      <trkpt lat="46.16777" lon="2.64669">
        <ele>555.73</ele>
        <time>2018-07-07T14:38:20.000Z</time>
      </trkpt>
      <trkpt lat="46.16771" lon="2.64658">
        <ele>555.72</ele>
        <time>2018-07-07T14:38:21.000Z</time>
      </trkpt>
      <trkpt lat="46.16764" lon="2.64646">
        <ele>555.75</ele>
        <time>2018-07-07T14:38:22.000Z</time>
      </trkpt>
      <trkpt lat="46.16758" lon="2.64634">
        <ele>555.93</ele>
        <time>2018-07-07T14:38:23.000Z</time>
      </trkpt>
      <trkpt lat="46.16752" lon="2.64622">
        <ele>556.23</ele>
        <time>2018-07-07T14:38:24.000Z</time>
      </trkpt>
      <trkpt lat="46.16747" lon="2.6461">
        <ele>556.32</ele>
        <time>2018-07-07T14:38:25.000Z</time>
      </trkpt>
      <trkpt lat="46.16741" lon="2.64598">
        <ele>556.31</ele>
        <time>2018-07-07T14:38:26.000Z</time>
      </trkpt>
      <trkpt lat="46.16736" lon="2.64585">
        <ele>556.25</ele>
        <time>2018-07-07T14:38:27.000Z</time>
      </trkpt>
      <trkpt lat="46.1673" lon="2.64572">
        <ele>556.19</ele>
        <time>2018-07-07T14:38:28.000Z</time>
      </trkpt>
      <trkpt lat="46.16725" lon="2.64559">
        <ele>556.12</ele>
        <time>2018-07-07T14:38:29.000Z</time>
      </trkpt>
      <trkpt lat="46.16721" lon="2.64546">
        <ele>555.96</ele>
        <time>2018-07-07T14:38:30.000Z</time>
      </trkpt>
      <trkpt lat="46.16718" lon="2.64533">
        <ele>555.78</ele>
        <time>2018-07-07T14:38:31.000Z</time>
      </trkpt>
      <trkpt lat="46.16715" lon="2.6452">
        <ele>555.59</ele>
        <time>2018-07-07T14:38:32.000Z</time>
      </trkpt>
      <trkpt lat="46.16713" lon="2.64506">
        <ele>555.39</ele>
        <time>2018-07-07T14:38:33.000Z</time>
      </trkpt>
      <trkpt lat="46.1671" lon="2.64493">
        <ele>555.12</ele>
        <time>2018-07-07T14:38:34.000Z</time>
      </trkpt>
      <trkpt lat="46.16707" lon="2.6448">
        <ele>554.8</ele>
        <time>2018-07-07T14:38:35.000Z</time>
      </trkpt>
      <trkpt lat="46.16705" lon="2.64467">
        <ele>554.62</ele>
        <time>2018-07-07T14:38:36.000Z</time>
      </trkpt>
      <trkpt lat="46.16703" lon="2.64454">
        <ele>554.37</ele>
        <time>2018-07-07T14:38:37.000Z</time>
      </trkpt>
      <trkpt lat="46.167" lon="2.64441">
        <ele>554.03</ele>
        <time>2018-07-07T14:38:38.000Z</time>
      </trkpt>
      <trkpt lat="46.16695" lon="2.64418">
        <ele>553.11</ele>
        <time>2018-07-07T14:38:40.000Z</time>
      </trkpt>
      <trkpt lat="46.16689" lon="2.64395">
        <ele>552.36</ele>
        <time>2018-07-07T14:38:42.000Z</time>
      </trkpt>
      <trkpt lat="46.16682" lon="2.64373">
        <ele>551.83</ele>
        <time>2018-07-07T14:38:44.000Z</time>
      </trkpt>
      <trkpt lat="46.16673" lon="2.64353">
        <ele>551.32</ele>
        <time>2018-07-07T14:38:46.000Z</time>
      </trkpt>
      <trkpt lat="46.16663" lon="2.64334">
        <ele>550.74</ele>
        <time>2018-07-07T14:38:48.000Z</time>
      </trkpt>
      <trkpt lat="46.16653" lon="2.64316">
        <ele>550.44</ele>
        <time>2018-07-07T14:38:50.000Z</time>
      </trkpt>
      <trkpt lat="46.16642" lon="2.64299">
        <ele>550.13</ele>
        <time>2018-07-07T14:38:52.000Z</time>
      </trkpt>
      <trkpt lat="46.16631" lon="2.64282">
        <ele>549.73</ele>
        <time>2018-07-07T14:38:54.000Z</time>
      </trkpt>
      <trkpt lat="46.16621" lon="2.64265">
        <ele>549.4</ele>
        <time>2018-07-07T14:38:56.000Z</time>
      </trkpt>
      <trkpt lat="46.16613" lon="2.64247">
        <ele>549.6</ele>
        <time>2018-07-07T14:38:58.000Z</time>
      </trkpt>
      <trkpt lat="46.16608" lon="2.64228">
        <ele>549.45</ele>
        <time>2018-07-07T14:39:00.000Z</time>
      </trkpt>
      <trkpt lat="46.16607" lon="2.64207">
        <ele>549.43</ele>
        <time>2018-07-07T14:39:02.000Z</time>
      </trkpt>
      <trkpt lat="46.16608" lon="2.64187">
        <ele>549.43</ele>
        <time>2018-07-07T14:39:04.000Z</time>
      </trkpt>
      <trkpt lat="46.1661" lon="2.64166">
        <ele>549.25</ele>
        <time>2018-07-07T14:39:06.000Z</time>
      </trkpt>
      <trkpt lat="46.16614" lon="2.64147">
        <ele>549.35</ele>
        <time>2018-07-07T14:39:08.000Z</time>
      </trkpt>
      <trkpt lat="46.16618" lon="2.64131">
        <ele>549.39</ele>
        <time>2018-07-07T14:39:10.000Z</time>
      </trkpt>
      <trkpt lat="46.16623" lon="2.64116">
        <ele>549.63</ele>
        <time>2018-07-07T14:39:12.000Z</time>
      </trkpt>
      <trkpt lat="46.16626" lon="2.641">
        <ele>549.89</ele>
        <time>2018-07-07T14:39:14.000Z</time>
      </trkpt>
      <trkpt lat="46.16629" lon="2.64086">
        <ele>549.49</ele>
        <time>2018-07-07T14:39:16.000Z</time>
      </trkpt>
      <trkpt lat="46.16633" lon="2.64072">
        <ele>549.61</ele>
        <time>2018-07-07T14:39:18.000Z</time>
      </trkpt>
      <trkpt lat="46.16636" lon="2.64057">
        <ele>550.25</ele>
        <time>2018-07-07T14:39:20.000Z</time>
      </trkpt>
      <trkpt lat="46.1664" lon="2.64042">
        <ele>550.59</ele>
        <time>2018-07-07T14:39:22.000Z</time>
      </trkpt>
      <trkpt lat="46.16644" lon="2.6403">
        <ele>550.78</ele>
        <time>2018-07-07T14:39:24.000Z</time>
      </trkpt>
      <trkpt lat="46.16649" lon="2.64015">
        <ele>550.58</ele>
        <time>2018-07-07T14:39:27.000Z</time>
      </trkpt>
      <trkpt lat="46.16652" lon="2.64">
        <ele>550.05</ele>
        <time>2018-07-07T14:39:29.000Z</time>
      </trkpt>
      <trkpt lat="46.16656" lon="2.63984">
        <ele>549.4</ele>
        <time>2018-07-07T14:39:31.000Z</time>
      </trkpt>
      <trkpt lat="46.1666" lon="2.63967">
        <ele>548.86</ele>
        <time>2018-07-07T14:39:33.000Z</time>
      </trkpt>
      <trkpt lat="46.16665" lon="2.6395">
        <ele>548.45</ele>
        <time>2018-07-07T14:39:35.000Z</time>
      </trkpt>
      <trkpt lat="46.1667" lon="2.63933">
        <ele>548.22</ele>
        <time>2018-07-07T14:39:37.000Z</time>
      </trkpt>
      <trkpt lat="46.16676" lon="2.63914">
        <ele>548.48</ele>
        <time>2018-07-07T14:39:39.000Z</time>
      </trkpt>
      <trkpt lat="46.1668" lon="2.63897">
        <ele>548.53</ele>
        <time>2018-07-07T14:39:41.000Z</time>
      </trkpt>
      <trkpt lat="46.16684" lon="2.63879">
        <ele>549.15</ele>
        <time>2018-07-07T14:39:43.000Z</time>
      </trkpt>
      <trkpt lat="46.16686" lon="2.6386">
        <ele>549.38</ele>
        <time>2018-07-07T14:39:45.000Z</time>
      </trkpt>
      <trkpt lat="46.16687" lon="2.63839">
        <ele>549.55</ele>
        <time>2018-07-07T14:39:47.000Z</time>
      </trkpt>
      <trkpt lat="46.16687" lon="2.63819">
        <ele>549.76</ele>
        <time>2018-07-07T14:39:49.000Z</time>
      </trkpt>
      <trkpt lat="46.16688" lon="2.63797">
        <ele>550.12</ele>
        <time>2018-07-07T14:39:51.000Z</time>
      </trkpt>
      <trkpt lat="46.1669" lon="2.63775">
        <ele>550.42</ele>
        <time>2018-07-07T14:39:53.000Z</time>
      </trkpt>
      <trkpt lat="46.16691" lon="2.63753">
        <ele>550.36</ele>
        <time>2018-07-07T14:39:55.000Z</time>
      </trkpt>
      <trkpt lat="46.16693" lon="2.63731">
        <ele>550.33</ele>
        <time>2018-07-07T14:39:57.000Z</time>
      </trkpt>
      <trkpt lat="46.16695" lon="2.63709">
        <ele>550.3</ele>
        <time>2018-07-07T14:39:59.000Z</time>
      </trkpt>
      <trkpt lat="46.16697" lon="2.63687">
        <ele>549.85</ele>
        <time>2018-07-07T14:40:01.000Z</time>
      </trkpt>
      <trkpt lat="46.16699" lon="2.63667">
        <ele>550.07</ele>
        <time>2018-07-07T14:40:03.000Z</time>
      </trkpt>
      <trkpt lat="46.167" lon="2.63645">
        <ele>549.93</ele>
        <time>2018-07-07T14:40:05.000Z</time>
      </trkpt>
      <trkpt lat="46.16703" lon="2.63623">
        <ele>549.61</ele>
        <time>2018-07-07T14:40:07.000Z</time>
      </trkpt>
      <trkpt lat="46.16705" lon="2.63603">
        <ele>549.22</ele>
        <time>2018-07-07T14:40:09.000Z</time>
      </trkpt>
      <trkpt lat="46.16706" lon="2.63584">
        <ele>549.66</ele>
        <time>2018-07-07T14:40:11.000Z</time>
      </trkpt>
      <trkpt lat="46.16708" lon="2.63565">
        <ele>549.96</ele>
        <time>2018-07-07T14:40:13.000Z</time>
      </trkpt>
      <trkpt lat="46.1671" lon="2.63547">
        <ele>550.09</ele>
        <time>2018-07-07T14:40:15.000Z</time>
      </trkpt>
      <trkpt lat="46.16713" lon="2.63528">
        <ele>550.55</ele>
        <time>2018-07-07T14:40:17.000Z</time>
      </trkpt>
      <trkpt lat="46.16717" lon="2.63509">
        <ele>550.58</ele>
        <time>2018-07-07T14:40:19.000Z</time>
      </trkpt>
      <trkpt lat="46.16722" lon="2.63491">
        <ele>550.97</ele>
        <time>2018-07-07T14:40:21.000Z</time>
      </trkpt>
      <trkpt lat="46.16726" lon="2.63472">
        <ele>550.69</ele>
        <time>2018-07-07T14:40:23.000Z</time>
      </trkpt>
      <trkpt lat="46.16726" lon="2.63454">
        <ele>550.54</ele>
        <time>2018-07-07T14:40:25.000Z</time>
      </trkpt>
      <trkpt lat="46.16723" lon="2.63435">
        <ele>550.65</ele>
        <time>2018-07-07T14:40:27.000Z</time>
      </trkpt>
      <trkpt lat="46.16719" lon="2.63416">
        <ele>550.79</ele>
        <time>2018-07-07T14:40:29.000Z</time>
      </trkpt>
      <trkpt lat="46.1672" lon="2.63397">
        <ele>550.95</ele>
        <time>2018-07-07T14:40:31.000Z</time>
      </trkpt>
      <trkpt lat="46.16722" lon="2.63379">
        <ele>551.17</ele>
        <time>2018-07-07T14:40:33.000Z</time>
      </trkpt>
      <trkpt lat="46.16724" lon="2.6336">
        <ele>551.76</ele>
        <time>2018-07-07T14:40:35.000Z</time>
      </trkpt>
      <trkpt lat="46.16726" lon="2.63341">
        <ele>552.07</ele>
        <time>2018-07-07T14:40:37.000Z</time>
      </trkpt>
      <trkpt lat="46.16728" lon="2.63322">
        <ele>552.49</ele>
        <time>2018-07-07T14:40:39.000Z</time>
      </trkpt>
      <trkpt lat="46.16727" lon="2.63302">
        <ele>552.9</ele>
        <time>2018-07-07T14:40:41.000Z</time>
      </trkpt>
      <trkpt lat="46.16729" lon="2.63283">
        <ele>553.31</ele>
        <time>2018-07-07T14:40:43.000Z</time>
      </trkpt>
      <trkpt lat="46.16732" lon="2.63265">
        <ele>553.71</ele>
        <time>2018-07-07T14:40:44.999Z</time>
      </trkpt>
      <trkpt lat="46.16732" lon="2.63246">
        <ele>554.36</ele>
        <time>2018-07-07T14:40:47.000Z</time>
      </trkpt>
      <trkpt lat="46.16731" lon="2.6323">
        <ele>554.72</ele>
        <time>2018-07-07T14:40:49.000Z</time>
      </trkpt>
      <trkpt lat="46.16731" lon="2.63216">
        <ele>554.68</ele>
        <time>2018-07-07T14:40:51.000Z</time>
      </trkpt>
      <trkpt lat="46.1673" lon="2.632">
        <ele>555.01</ele>
        <time>2018-07-07T14:40:53.000Z</time>
      </trkpt>
      <trkpt lat="46.16731" lon="2.63186">
        <ele>555.27</ele>
        <time>2018-07-07T14:40:55.000Z</time>
      </trkpt>
      <trkpt lat="46.16732" lon="2.6317">
        <ele>555.37</ele>
        <time>2018-07-07T14:40:57.000Z</time>
      </trkpt>
      <trkpt lat="46.16736" lon="2.63152">
        <ele>555.44</ele>
        <time>2018-07-07T14:40:59.000Z</time>
      </trkpt>
      <trkpt lat="46.1674" lon="2.63133">
        <ele>555.4</ele>
        <time>2018-07-07T14:41:01.000Z</time>
      </trkpt>
      <trkpt lat="46.16747" lon="2.63114">
        <ele>555.14</ele>
        <time>2018-07-07T14:41:03.000Z</time>
      </trkpt>
      <trkpt lat="46.16755" lon="2.63093">
        <ele>554.64</ele>
        <time>2018-07-07T14:41:05.000Z</time>
      </trkpt>
      <trkpt lat="46.16759" lon="2.63082">
        <ele>554.31</ele>
        <time>2018-07-07T14:41:06.000Z</time>
      </trkpt>
      <trkpt lat="46.16767" lon="2.63061">
        <ele>554.02</ele>
        <time>2018-07-07T14:41:08.000Z</time>
      </trkpt>
      <trkpt lat="46.16774" lon="2.63038">
        <ele>554.21</ele>
        <time>2018-07-07T14:41:10.000Z</time>
      </trkpt>
      <trkpt lat="46.16779" lon="2.63025">
        <ele>554.35</ele>
        <time>2018-07-07T14:41:11.000Z</time>
      </trkpt>
      <trkpt lat="46.16784" lon="2.63011">
        <ele>554.51</ele>
        <time>2018-07-07T14:41:12.000Z</time>
      </trkpt>
      <trkpt lat="46.16789" lon="2.62998">
        <ele>554.44</ele>
        <time>2018-07-07T14:41:13.000Z</time>
      </trkpt>
      <trkpt lat="46.16792" lon="2.62985">
        <ele>554.33</ele>
        <time>2018-07-07T14:41:14.000Z</time>
      </trkpt>
      <trkpt lat="46.16795" lon="2.62969">
        <ele>553.88</ele>
        <time>2018-07-07T14:41:15.000Z</time>
      </trkpt>
      <trkpt lat="46.16799" lon="2.62955">
        <ele>553.37</ele>
        <time>2018-07-07T14:41:16.000Z</time>
      </trkpt>
      <trkpt lat="46.16803" lon="2.62941">
        <ele>552.72</ele>
        <time>2018-07-07T14:41:17.000Z</time>
      </trkpt>
      <trkpt lat="46.16806" lon="2.62929">
        <ele>552.09</ele>
        <time>2018-07-07T14:41:18.000Z</time>
      </trkpt>
      <trkpt lat="46.16809" lon="2.6291">
        <ele>550.49</ele>
        <time>2018-07-07T14:41:20.000Z</time>
      </trkpt>
      <trkpt lat="46.16803" lon="2.62894">
        <ele>550.01</ele>
        <time>2018-07-07T14:41:22.000Z</time>
      </trkpt>
      <trkpt lat="46.168" lon="2.62876">
        <ele>549.07</ele>
        <time>2018-07-07T14:41:24.000Z</time>
      </trkpt>
      <trkpt lat="46.16799" lon="2.62854">
        <ele>547.74</ele>
        <time>2018-07-07T14:41:26.000Z</time>
      </trkpt>
      <trkpt lat="46.16799" lon="2.62829">
        <ele>546.21</ele>
        <time>2018-07-07T14:41:28.000Z</time>
      </trkpt>
      <trkpt lat="46.16799" lon="2.62815">
        <ele>545.55</ele>
        <time>2018-07-07T14:41:29.000Z</time>
      </trkpt>
      <trkpt lat="46.168" lon="2.62802">
        <ele>544.88</ele>
        <time>2018-07-07T14:41:30.000Z</time>
      </trkpt>
      <trkpt lat="46.168" lon="2.62788">
        <ele>544.28</ele>
        <time>2018-07-07T14:41:31.000Z</time>
      </trkpt>
      <trkpt lat="46.168" lon="2.62773">
        <ele>543.84</ele>
        <time>2018-07-07T14:41:32.000Z</time>
      </trkpt>
      <trkpt lat="46.168" lon="2.62759">
        <ele>543.41</ele>
        <time>2018-07-07T14:41:33.000Z</time>
      </trkpt>
      <trkpt lat="46.168" lon="2.62745">
        <ele>542.85</ele>
        <time>2018-07-07T14:41:34.000Z</time>
      </trkpt>
      <trkpt lat="46.168" lon="2.62731">
        <ele>542.33</ele>
        <time>2018-07-07T14:41:35.000Z</time>
      </trkpt>
      <trkpt lat="46.168" lon="2.62717">
        <ele>541.7</ele>
        <time>2018-07-07T14:41:36.000Z</time>
      </trkpt>
      <trkpt lat="46.16801" lon="2.62703">
        <ele>541.46</ele>
        <time>2018-07-07T14:41:37.000Z</time>
      </trkpt>
      <trkpt lat="46.16801" lon="2.62689">
        <ele>541.19</ele>
        <time>2018-07-07T14:41:38.000Z</time>
      </trkpt>
      <trkpt lat="46.168" lon="2.62674">
        <ele>541.13</ele>
        <time>2018-07-07T14:41:39.000Z</time>
      </trkpt>
      <trkpt lat="46.168" lon="2.6266">
        <ele>541.21</ele>
        <time>2018-07-07T14:41:40.000Z</time>
      </trkpt>
      <trkpt lat="46.168" lon="2.62644">
        <ele>541.2</ele>
        <time>2018-07-07T14:41:41.000Z</time>
      </trkpt>
      <trkpt lat="46.168" lon="2.62629">
        <ele>541.38</ele>
        <time>2018-07-07T14:41:42.000Z</time>
      </trkpt>
      <trkpt lat="46.16799" lon="2.62613">
        <ele>541.37</ele>
        <time>2018-07-07T14:41:43.000Z</time>
      </trkpt>
      <trkpt lat="46.16799" lon="2.62597">
        <ele>541.53</ele>
        <time>2018-07-07T14:41:44.000Z</time>
      </trkpt>
      <trkpt lat="46.16798" lon="2.62582">
        <ele>541.53</ele>
        <time>2018-07-07T14:41:45.000Z</time>
      </trkpt>
      <trkpt lat="46.16798" lon="2.62567">
        <ele>541.52</ele>
        <time>2018-07-07T14:41:46.000Z</time>
      </trkpt>
      <trkpt lat="46.16797" lon="2.62552">
        <ele>541.45</ele>
        <time>2018-07-07T14:41:47.000Z</time>
      </trkpt>
      <trkpt lat="46.16796" lon="2.62537">
        <ele>541.14</ele>
        <time>2018-07-07T14:41:48.000Z</time>
      </trkpt>
      <trkpt lat="46.16795" lon="2.62521">
        <ele>540.69</ele>
        <time>2018-07-07T14:41:49.000Z</time>
      </trkpt>
      <trkpt lat="46.16793" lon="2.62505">
        <ele>540.18</ele>
        <time>2018-07-07T14:41:50.000Z</time>
      </trkpt>
      <trkpt lat="46.16792" lon="2.62489">
        <ele>539.54</ele>
        <time>2018-07-07T14:41:51.000Z</time>
      </trkpt>
      <trkpt lat="46.1679" lon="2.62473">
        <ele>538.88</ele>
        <time>2018-07-07T14:41:52.000Z</time>
      </trkpt>
      <trkpt lat="46.16788" lon="2.62458">
        <ele>538.22</ele>
        <time>2018-07-07T14:41:53.000Z</time>
      </trkpt>
      <trkpt lat="46.16786" lon="2.62443">
        <ele>537.32</ele>
        <time>2018-07-07T14:41:54.000Z</time>
      </trkpt>
      <trkpt lat="46.16784" lon="2.62428">
        <ele>536.86</ele>
        <time>2018-07-07T14:41:55.000Z</time>
      </trkpt>
      <trkpt lat="46.16782" lon="2.62413">
        <ele>536.32</ele>
        <time>2018-07-07T14:41:56.000Z</time>
      </trkpt>
      <trkpt lat="46.16781" lon="2.62398">
        <ele>535.93</ele>
        <time>2018-07-07T14:41:57.000Z</time>
      </trkpt>
      <trkpt lat="46.1678" lon="2.62383">
        <ele>535.53</ele>
        <time>2018-07-07T14:41:58.000Z</time>
      </trkpt>
      <trkpt lat="46.16779" lon="2.62367">
        <ele>535.07</ele>
        <time>2018-07-07T14:41:59.000Z</time>
      </trkpt>
      <trkpt lat="46.1678" lon="2.62352">
        <ele>535.07</ele>
        <time>2018-07-07T14:42:00.000Z</time>
      </trkpt>
      <trkpt lat="46.16779" lon="2.62336">
        <ele>534.34</ele>
        <time>2018-07-07T14:42:01.000Z</time>
      </trkpt>
      <trkpt lat="46.1678" lon="2.6232">
        <ele>533.64</ele>
        <time>2018-07-07T14:42:02.000Z</time>
      </trkpt>
      <trkpt lat="46.16781" lon="2.62305">
        <ele>533.07</ele>
        <time>2018-07-07T14:42:03.000Z</time>
      </trkpt>
      <trkpt lat="46.16782" lon="2.62289">
        <ele>532.59</ele>
        <time>2018-07-07T14:42:04.000Z</time>
      </trkpt>
      <trkpt lat="46.16784" lon="2.62273">
        <ele>532.05</ele>
        <time>2018-07-07T14:42:05.000Z</time>
      </trkpt>
      <trkpt lat="46.16786" lon="2.62258">
        <ele>531.6</ele>
        <time>2018-07-07T14:42:06.000Z</time>
      </trkpt>
      <trkpt lat="46.16788" lon="2.62242">
        <ele>531.08</ele>
        <time>2018-07-07T14:42:07.000Z</time>
      </trkpt>
      <trkpt lat="46.1679" lon="2.62227">
        <ele>530.41</ele>
        <time>2018-07-07T14:42:08.000Z</time>
      </trkpt>
      <trkpt lat="46.16792" lon="2.62212">
        <ele>530</ele>
        <time>2018-07-07T14:42:09.000Z</time>
      </trkpt>
      <trkpt lat="46.16793" lon="2.62197">
        <ele>529.61</ele>
        <time>2018-07-07T14:42:10.000Z</time>
      </trkpt>
      <trkpt lat="46.16795" lon="2.62182">
        <ele>529.2</ele>
        <time>2018-07-07T14:42:11.000Z</time>
      </trkpt>
      <trkpt lat="46.16796" lon="2.62167">
        <ele>528.59</ele>
        <time>2018-07-07T14:42:12.000Z</time>
      </trkpt>
      <trkpt lat="46.16798" lon="2.62151">
        <ele>528.03</ele>
        <time>2018-07-07T14:42:13.000Z</time>
      </trkpt>
      <trkpt lat="46.16799" lon="2.62136">
        <ele>527.72</ele>
        <time>2018-07-07T14:42:14.000Z</time>
      </trkpt>
      <trkpt lat="46.168" lon="2.62121">
        <ele>527.24</ele>
        <time>2018-07-07T14:42:15.000Z</time>
      </trkpt>
      <trkpt lat="46.16802" lon="2.62105">
        <ele>526.91</ele>
        <time>2018-07-07T14:42:16.000Z</time>
      </trkpt>
      <trkpt lat="46.16804" lon="2.62089">
        <ele>526.64</ele>
        <time>2018-07-07T14:42:17.000Z</time>
      </trkpt>
      <trkpt lat="46.16806" lon="2.62074">
        <ele>526.34</ele>
        <time>2018-07-07T14:42:18.000Z</time>
      </trkpt>
      <trkpt lat="46.16808" lon="2.62058">
        <ele>525.88</ele>
        <time>2018-07-07T14:42:19.000Z</time>
      </trkpt>
      <trkpt lat="46.16809" lon="2.62042">
        <ele>525.53</ele>
        <time>2018-07-07T14:42:20.000Z</time>
      </trkpt>
      <trkpt lat="46.16811" lon="2.62026">
        <ele>525.07</ele>
        <time>2018-07-07T14:42:21.000Z</time>
      </trkpt>
      <trkpt lat="46.16813" lon="2.6201">
        <ele>524.61</ele>
        <time>2018-07-07T14:42:22.000Z</time>
      </trkpt>
      <trkpt lat="46.16814" lon="2.61994">
        <ele>524.03</ele>
        <time>2018-07-07T14:42:23.000Z</time>
      </trkpt>
      <trkpt lat="46.16816" lon="2.61978">
        <ele>523.46</ele>
        <time>2018-07-07T14:42:24.000Z</time>
      </trkpt>
      <trkpt lat="46.16818" lon="2.61962">
        <ele>523.02</ele>
        <time>2018-07-07T14:42:25.000Z</time>
      </trkpt>
      <trkpt lat="46.16819" lon="2.61946">
        <ele>522.57</ele>
        <time>2018-07-07T14:42:26.000Z</time>
      </trkpt>
      <trkpt lat="46.16821" lon="2.6193">
        <ele>522.11</ele>
        <time>2018-07-07T14:42:27.000Z</time>
      </trkpt>
      <trkpt lat="46.16823" lon="2.61914">
        <ele>521.7</ele>
        <time>2018-07-07T14:42:28.000Z</time>
      </trkpt>
      <trkpt lat="46.16825" lon="2.61898">
        <ele>521.27</ele>
        <time>2018-07-07T14:42:29.000Z</time>
      </trkpt>
      <trkpt lat="46.16826" lon="2.61882">
        <ele>520.86</ele>
        <time>2018-07-07T14:42:30.000Z</time>
      </trkpt>
      <trkpt lat="46.16828" lon="2.61866">
        <ele>520.3</ele>
        <time>2018-07-07T14:42:31.000Z</time>
      </trkpt>
      <trkpt lat="46.16829" lon="2.6185">
        <ele>519.8</ele>
        <time>2018-07-07T14:42:32.000Z</time>
      </trkpt>
      <trkpt lat="46.16831" lon="2.61833">
        <ele>519.69</ele>
        <time>2018-07-07T14:42:33.000Z</time>
      </trkpt>
      <trkpt lat="46.16833" lon="2.61817">
        <ele>519.59</ele>
        <time>2018-07-07T14:42:34.000Z</time>
      </trkpt>
      <trkpt lat="46.16835" lon="2.618">
        <ele>519.39</ele>
        <time>2018-07-07T14:42:35.000Z</time>
      </trkpt>
      <trkpt lat="46.16837" lon="2.61784">
        <ele>519.29</ele>
        <time>2018-07-07T14:42:36.000Z</time>
      </trkpt>
      <trkpt lat="46.16838" lon="2.61768">
        <ele>518.61</ele>
        <time>2018-07-07T14:42:37.000Z</time>
      </trkpt>
      <trkpt lat="46.16839" lon="2.61753">
        <ele>518.18</ele>
        <time>2018-07-07T14:42:38.000Z</time>
      </trkpt>
      <trkpt lat="46.1684" lon="2.61737">
        <ele>517.79</ele>
        <time>2018-07-07T14:42:39.000Z</time>
      </trkpt>
      <trkpt lat="46.16842" lon="2.61722">
        <ele>517.43</ele>
        <time>2018-07-07T14:42:40.000Z</time>
      </trkpt>
      <trkpt lat="46.16843" lon="2.61707">
        <ele>517.17</ele>
        <time>2018-07-07T14:42:41.000Z</time>
      </trkpt>
      <trkpt lat="46.16844" lon="2.61691">
        <ele>516.78</ele>
        <time>2018-07-07T14:42:42.000Z</time>
      </trkpt>
      <trkpt lat="46.16845" lon="2.61677">
        <ele>516.64</ele>
        <time>2018-07-07T14:42:43.000Z</time>
      </trkpt>
      <trkpt lat="46.16847" lon="2.61662">
        <ele>516.37</ele>
        <time>2018-07-07T14:42:44.000Z</time>
      </trkpt>
      <trkpt lat="46.16847" lon="2.61648">
        <ele>515.96</ele>
        <time>2018-07-07T14:42:45.000Z</time>
      </trkpt>
      <trkpt lat="46.16848" lon="2.61634">
        <ele>515.74</ele>
        <time>2018-07-07T14:42:46.000Z</time>
      </trkpt>
      <trkpt lat="46.1685" lon="2.6162">
        <ele>515.37</ele>
        <time>2018-07-07T14:42:47.000Z</time>
      </trkpt>
      <trkpt lat="46.16851" lon="2.61607">
        <ele>515.04</ele>
        <time>2018-07-07T14:42:48.000Z</time>
      </trkpt>
      <trkpt lat="46.16853" lon="2.61593">
        <ele>514.61</ele>
        <time>2018-07-07T14:42:49.000Z</time>
      </trkpt>
      <trkpt lat="46.16855" lon="2.6158">
        <ele>514.3</ele>
        <time>2018-07-07T14:42:50.000Z</time>
      </trkpt>
      <trkpt lat="46.16858" lon="2.61566">
        <ele>513.98</ele>
        <time>2018-07-07T14:42:51.000Z</time>
      </trkpt>
      <trkpt lat="46.16861" lon="2.61553">
        <ele>513.69</ele>
        <time>2018-07-07T14:42:52.000Z</time>
      </trkpt>
      <trkpt lat="46.16864" lon="2.6154">
        <ele>513.41</ele>
        <time>2018-07-07T14:42:53.000Z</time>
      </trkpt>
      <trkpt lat="46.16868" lon="2.61527">
        <ele>513.01</ele>
        <time>2018-07-07T14:42:54.000Z</time>
      </trkpt>
      <trkpt lat="46.16872" lon="2.61515">
        <ele>512.63</ele>
        <time>2018-07-07T14:42:55.000Z</time>
      </trkpt>
      <trkpt lat="46.16876" lon="2.61503">
        <ele>512.37</ele>
        <time>2018-07-07T14:42:56.000Z</time>
      </trkpt>
      <trkpt lat="46.1688" lon="2.61491">
        <ele>512.05</ele>
        <time>2018-07-07T14:42:57.000Z</time>
      </trkpt>
      <trkpt lat="46.16885" lon="2.61478">
        <ele>511.65</ele>
        <time>2018-07-07T14:42:58.000Z</time>
      </trkpt>
      <trkpt lat="46.16889" lon="2.61466">
        <ele>511.38</ele>
        <time>2018-07-07T14:42:59.000Z</time>
      </trkpt>
      <trkpt lat="46.16894" lon="2.61455">
        <ele>511.15</ele>
        <time>2018-07-07T14:43:00.000Z</time>
      </trkpt>
      <trkpt lat="46.169" lon="2.61444">
        <ele>511.01</ele>
        <time>2018-07-07T14:43:01.000Z</time>
      </trkpt>
      <trkpt lat="46.16906" lon="2.61433">
        <ele>510.88</ele>
        <time>2018-07-07T14:43:02.000Z</time>
      </trkpt>
      <trkpt lat="46.16913" lon="2.61422">
        <ele>510.55</ele>
        <time>2018-07-07T14:43:03.000Z</time>
      </trkpt>
      <trkpt lat="46.1692" lon="2.61413">
        <ele>510.28</ele>
        <time>2018-07-07T14:43:04.000Z</time>
      </trkpt>
      <trkpt lat="46.16928" lon="2.61405">
        <ele>509.97</ele>
        <time>2018-07-07T14:43:05.000Z</time>
      </trkpt>
      <trkpt lat="46.16936" lon="2.61398">
        <ele>509.74</ele>
        <time>2018-07-07T14:43:06.000Z</time>
      </trkpt>
      <trkpt lat="46.16952" lon="2.61386">
        <ele>509.32</ele>
        <time>2018-07-07T14:43:08.000Z</time>
      </trkpt>
      <trkpt lat="46.16967" lon="2.61373">
        <ele>508.97</ele>
        <time>2018-07-07T14:43:10.000Z</time>
      </trkpt>
      <trkpt lat="46.16975" lon="2.61366">
        <ele>508.7</ele>
        <time>2018-07-07T14:43:11.000Z</time>
      </trkpt>
      <trkpt lat="46.16984" lon="2.61359">
        <ele>508.43</ele>
        <time>2018-07-07T14:43:12.000Z</time>
      </trkpt>
      <trkpt lat="46.16992" lon="2.61351">
        <ele>508.14</ele>
        <time>2018-07-07T14:43:13.000Z</time>
      </trkpt>
      <trkpt lat="46.17" lon="2.61344">
        <ele>507.9</ele>
        <time>2018-07-07T14:43:14.000Z</time>
      </trkpt>
      <trkpt lat="46.17008" lon="2.61336">
        <ele>507.78</ele>
        <time>2018-07-07T14:43:15.000Z</time>
      </trkpt>
      <trkpt lat="46.17016" lon="2.61327">
        <ele>507.55</ele>
        <time>2018-07-07T14:43:16.000Z</time>
      </trkpt>
      <trkpt lat="46.17024" lon="2.61318">
        <ele>507.3</ele>
        <time>2018-07-07T14:43:17.000Z</time>
      </trkpt>
      <trkpt lat="46.17031" lon="2.61308">
        <ele>507.09</ele>
        <time>2018-07-07T14:43:18.000Z</time>
      </trkpt>
      <trkpt lat="46.17043" lon="2.6129">
        <ele>506.75</ele>
        <time>2018-07-07T14:43:20.000Z</time>
      </trkpt>
      <trkpt lat="46.17049" lon="2.61279">
        <ele>506.53</ele>
        <time>2018-07-07T14:43:21.000Z</time>
      </trkpt>
      <trkpt lat="46.17054" lon="2.61268">
        <ele>506.27</ele>
        <time>2018-07-07T14:43:22.000Z</time>
      </trkpt>
      <trkpt lat="46.1706" lon="2.61256">
        <ele>506.05</ele>
        <time>2018-07-07T14:43:23.000Z</time>
      </trkpt>
      <trkpt lat="46.17066" lon="2.61243">
        <ele>505.81</ele>
        <time>2018-07-07T14:43:24.000Z</time>
      </trkpt>
      <trkpt lat="46.17072" lon="2.6123">
        <ele>505.59</ele>
        <time>2018-07-07T14:43:25.000Z</time>
      </trkpt>
      <trkpt lat="46.17079" lon="2.61217">
        <ele>505.33</ele>
        <time>2018-07-07T14:43:26.000Z</time>
      </trkpt>
      <trkpt lat="46.17085" lon="2.61203">
        <ele>505.08</ele>
        <time>2018-07-07T14:43:27.000Z</time>
      </trkpt>
      <trkpt lat="46.17092" lon="2.6119">
        <ele>504.79</ele>
        <time>2018-07-07T14:43:28.000Z</time>
      </trkpt>
      <trkpt lat="46.17098" lon="2.61176">
        <ele>504.57</ele>
        <time>2018-07-07T14:43:29.000Z</time>
      </trkpt>
      <trkpt lat="46.17105" lon="2.61162">
        <ele>504.3</ele>
        <time>2018-07-07T14:43:30.000Z</time>
      </trkpt>
      <trkpt lat="46.17112" lon="2.61148">
        <ele>503.85</ele>
        <time>2018-07-07T14:43:31.000Z</time>
      </trkpt>
      <trkpt lat="46.17118" lon="2.61133">
        <ele>503.5</ele>
        <time>2018-07-07T14:43:32.000Z</time>
      </trkpt>
      <trkpt lat="46.17125" lon="2.61119">
        <ele>503.28</ele>
        <time>2018-07-07T14:43:33.000Z</time>
      </trkpt>
      <trkpt lat="46.17131" lon="2.61106">
        <ele>503.12</ele>
        <time>2018-07-07T14:43:34.000Z</time>
      </trkpt>
      <trkpt lat="46.17138" lon="2.61094">
        <ele>502.98</ele>
        <time>2018-07-07T14:43:35.000Z</time>
      </trkpt>
      <trkpt lat="46.17146" lon="2.61081">
        <ele>502.63</ele>
        <time>2018-07-07T14:43:36.000Z</time>
      </trkpt>
      <trkpt lat="46.17154" lon="2.61069">
        <ele>502.35</ele>
        <time>2018-07-07T14:43:37.000Z</time>
      </trkpt>
      <trkpt lat="46.17162" lon="2.61057">
        <ele>502.13</ele>
        <time>2018-07-07T14:43:38.000Z</time>
      </trkpt>
      <trkpt lat="46.1717" lon="2.61046">
        <ele>501.77</ele>
        <time>2018-07-07T14:43:39.000Z</time>
      </trkpt>
      <trkpt lat="46.17178" lon="2.61035">
        <ele>501.53</ele>
        <time>2018-07-07T14:43:40.000Z</time>
      </trkpt>
      <trkpt lat="46.17186" lon="2.61023">
        <ele>501.26</ele>
        <time>2018-07-07T14:43:41.000Z</time>
      </trkpt>
      <trkpt lat="46.17194" lon="2.61013">
        <ele>501.08</ele>
        <time>2018-07-07T14:43:42.000Z</time>
      </trkpt>
      <trkpt lat="46.17202" lon="2.61003">
        <ele>500.8</ele>
        <time>2018-07-07T14:43:43.000Z</time>
      </trkpt>
      <trkpt lat="46.1721" lon="2.60991">
        <ele>500.54</ele>
        <time>2018-07-07T14:43:44.000Z</time>
      </trkpt>
      <trkpt lat="46.17217" lon="2.60979">
        <ele>500.17</ele>
        <time>2018-07-07T14:43:45.000Z</time>
      </trkpt>
      <trkpt lat="46.17223" lon="2.60967">
        <ele>499.86</ele>
        <time>2018-07-07T14:43:46.000Z</time>
      </trkpt>
      <trkpt lat="46.1723" lon="2.60954">
        <ele>499.62</ele>
        <time>2018-07-07T14:43:47.000Z</time>
      </trkpt>
      <trkpt lat="46.17237" lon="2.6094">
        <ele>499.4</ele>
        <time>2018-07-07T14:43:48.000Z</time>
      </trkpt>
      <trkpt lat="46.17244" lon="2.60926">
        <ele>499.09</ele>
        <time>2018-07-07T14:43:49.000Z</time>
      </trkpt>
      <trkpt lat="46.1725" lon="2.6091">
        <ele>498.73</ele>
        <time>2018-07-07T14:43:50.000Z</time>
      </trkpt>
      <trkpt lat="46.17256" lon="2.60894">
        <ele>498.4</ele>
        <time>2018-07-07T14:43:51.000Z</time>
      </trkpt>
      <trkpt lat="46.17263" lon="2.60877">
        <ele>498.06</ele>
        <time>2018-07-07T14:43:52.000Z</time>
      </trkpt>
      <trkpt lat="46.17265" lon="2.6086">
        <ele>497.71</ele>
        <time>2018-07-07T14:43:53.000Z</time>
      </trkpt>
      <trkpt lat="46.17268" lon="2.60843">
        <ele>497.32</ele>
        <time>2018-07-07T14:43:54.000Z</time>
      </trkpt>
      <trkpt lat="46.1727" lon="2.60825">
        <ele>497.01</ele>
        <time>2018-07-07T14:43:55.000Z</time>
      </trkpt>
      <trkpt lat="46.17272" lon="2.60807">
        <ele>496.82</ele>
        <time>2018-07-07T14:43:56.000Z</time>
      </trkpt>
      <trkpt lat="46.17272" lon="2.60789">
        <ele>496.5</ele>
        <time>2018-07-07T14:43:57.000Z</time>
      </trkpt>
      <trkpt lat="46.17273" lon="2.60772">
        <ele>496.22</ele>
        <time>2018-07-07T14:43:58.000Z</time>
      </trkpt>
      <trkpt lat="46.17273" lon="2.60755">
        <ele>495.98</ele>
        <time>2018-07-07T14:43:59.000Z</time>
      </trkpt>
      <trkpt lat="46.17274" lon="2.60739">
        <ele>495.78</ele>
        <time>2018-07-07T14:44:00.000Z</time>
      </trkpt>
      <trkpt lat="46.17275" lon="2.60723">
        <ele>495.76</ele>
        <time>2018-07-07T14:44:01.000Z</time>
      </trkpt>
      <trkpt lat="46.17281" lon="2.60706">
        <ele>495.62</ele>
        <time>2018-07-07T14:44:02.000Z</time>
      </trkpt>
      <trkpt lat="46.17284" lon="2.60689">
        <ele>495.44</ele>
        <time>2018-07-07T14:44:03.000Z</time>
      </trkpt>
      <trkpt lat="46.17291" lon="2.60672">
        <ele>495.34</ele>
        <time>2018-07-07T14:44:04.000Z</time>
      </trkpt>
      <trkpt lat="46.17297" lon="2.60656">
        <ele>495.34</ele>
        <time>2018-07-07T14:44:05.000Z</time>
      </trkpt>
      <trkpt lat="46.173" lon="2.60641">
        <ele>494.32</ele>
        <time>2018-07-07T14:44:06.000Z</time>
      </trkpt>
      <trkpt lat="46.17304" lon="2.60626">
        <ele>493.1</ele>
        <time>2018-07-07T14:44:07.000Z</time>
      </trkpt>
      <trkpt lat="46.1731" lon="2.6061">
        <ele>492.57</ele>
        <time>2018-07-07T14:44:08.000Z</time>
      </trkpt>
      <trkpt lat="46.17316" lon="2.60594">
        <ele>492</ele>
        <time>2018-07-07T14:44:09.000Z</time>
      </trkpt>
      <trkpt lat="46.17321" lon="2.60577">
        <ele>491.25</ele>
        <time>2018-07-07T14:44:10.000Z</time>
      </trkpt>
      <trkpt lat="46.17327" lon="2.60559">
        <ele>490.43</ele>
        <time>2018-07-07T14:44:11.000Z</time>
      </trkpt>
      <trkpt lat="46.17331" lon="2.60541">
        <ele>489.74</ele>
        <time>2018-07-07T14:44:12.000Z</time>
      </trkpt>
      <trkpt lat="46.17336" lon="2.60522">
        <ele>489.12</ele>
        <time>2018-07-07T14:44:13.000Z</time>
      </trkpt>
      <trkpt lat="46.1734" lon="2.60504">
        <ele>488.81</ele>
        <time>2018-07-07T14:44:14.000Z</time>
      </trkpt>
      <trkpt lat="46.17344" lon="2.60485">
        <ele>488.55</ele>
        <time>2018-07-07T14:44:15.000Z</time>
      </trkpt>
      <trkpt lat="46.17347" lon="2.60467">
        <ele>488.19</ele>
        <time>2018-07-07T14:44:16.000Z</time>
      </trkpt>
      <trkpt lat="46.17349" lon="2.60449">
        <ele>487.77</ele>
        <time>2018-07-07T14:44:17.000Z</time>
      </trkpt>
      <trkpt lat="46.17349" lon="2.60429">
        <ele>487.21</ele>
        <time>2018-07-07T14:44:18.000Z</time>
      </trkpt>
      <trkpt lat="46.1735" lon="2.6041">
        <ele>486.67</ele>
        <time>2018-07-07T14:44:19.000Z</time>
      </trkpt>
      <trkpt lat="46.17352" lon="2.6039">
        <ele>485.89</ele>
        <time>2018-07-07T14:44:20.000Z</time>
      </trkpt>
      <trkpt lat="46.17353" lon="2.60371">
        <ele>485.29</ele>
        <time>2018-07-07T14:44:21.000Z</time>
      </trkpt>
      <trkpt lat="46.17355" lon="2.60351">
        <ele>484.61</ele>
        <time>2018-07-07T14:44:22.000Z</time>
      </trkpt>
      <trkpt lat="46.17357" lon="2.60332">
        <ele>484.05</ele>
        <time>2018-07-07T14:44:23.000Z</time>
      </trkpt>
      <trkpt lat="46.17362" lon="2.60314">
        <ele>483.59</ele>
        <time>2018-07-07T14:44:24.000Z</time>
      </trkpt>
      <trkpt lat="46.17366" lon="2.60297">
        <ele>483.31</ele>
        <time>2018-07-07T14:44:25.000Z</time>
      </trkpt>
      <trkpt lat="46.17371" lon="2.6028">
        <ele>482.87</ele>
        <time>2018-07-07T14:44:26.000Z</time>
      </trkpt>
      <trkpt lat="46.17377" lon="2.60263">
        <ele>482.39</ele>
        <time>2018-07-07T14:44:27.000Z</time>
      </trkpt>
      <trkpt lat="46.17383" lon="2.60247">
        <ele>481.78</ele>
        <time>2018-07-07T14:44:28.000Z</time>
      </trkpt>
      <trkpt lat="46.1739" lon="2.6023">
        <ele>481</ele>
        <time>2018-07-07T14:44:29.000Z</time>
      </trkpt>
      <trkpt lat="46.17397" lon="2.60214">
        <ele>480.11</ele>
        <time>2018-07-07T14:44:30.000Z</time>
      </trkpt>
      <trkpt lat="46.17403" lon="2.60198">
        <ele>479.33</ele>
        <time>2018-07-07T14:44:31.000Z</time>
      </trkpt>
      <trkpt lat="46.17411" lon="2.60181">
        <ele>478.58</ele>
        <time>2018-07-07T14:44:32.000Z</time>
      </trkpt>
      <trkpt lat="46.17417" lon="2.60163">
        <ele>475.88</ele>
        <time>2018-07-07T14:44:33.000Z</time>
      </trkpt>
      <trkpt lat="46.17421" lon="2.60146">
        <ele>472.98</ele>
        <time>2018-07-07T14:44:34.000Z</time>
      </trkpt>
      <trkpt lat="46.17426" lon="2.60129">
        <ele>469.86</ele>
        <time>2018-07-07T14:44:35.000Z</time>
      </trkpt>
      <trkpt lat="46.17432" lon="2.60114">
        <ele>468.23</ele>
        <time>2018-07-07T14:44:36.000Z</time>
      </trkpt>
      <trkpt lat="46.17438" lon="2.60097">
        <ele>466.98</ele>
        <time>2018-07-07T14:44:37.000Z</time>
      </trkpt>
      <trkpt lat="46.17444" lon="2.60079">
        <ele>466.39</ele>
        <time>2018-07-07T14:44:38.000Z</time>
      </trkpt>
      <trkpt lat="46.17449" lon="2.6006">
        <ele>465.71</ele>
        <time>2018-07-07T14:44:39.000Z</time>
      </trkpt>
      <trkpt lat="46.17454" lon="2.60041">
        <ele>465.73</ele>
        <time>2018-07-07T14:44:40.000Z</time>
      </trkpt>
      <trkpt lat="46.17461" lon="2.60024">
        <ele>466.26</ele>
        <time>2018-07-07T14:44:41.000Z</time>
      </trkpt>
      <trkpt lat="46.17469" lon="2.60007">
        <ele>466.83</ele>
        <time>2018-07-07T14:44:42.000Z</time>
      </trkpt>
      <trkpt lat="46.17478" lon="2.59993">
        <ele>467.91</ele>
        <time>2018-07-07T14:44:43.000Z</time>
      </trkpt>
      <trkpt lat="46.17487" lon="2.59979">
        <ele>467.94</ele>
        <time>2018-07-07T14:44:44.000Z</time>
      </trkpt>
      <trkpt lat="46.17497" lon="2.59964">
        <ele>467.95</ele>
        <time>2018-07-07T14:44:45.000Z</time>
      </trkpt>
      <trkpt lat="46.17505" lon="2.59948">
        <ele>467.83</ele>
        <time>2018-07-07T14:44:46.000Z</time>
      </trkpt>
      <trkpt lat="46.17512" lon="2.59932">
        <ele>467.75</ele>
        <time>2018-07-07T14:44:47.000Z</time>
      </trkpt>
      <trkpt lat="46.17518" lon="2.59914">
        <ele>467.6</ele>
        <time>2018-07-07T14:44:48.000Z</time>
      </trkpt>
      <trkpt lat="46.17524" lon="2.59897">
        <ele>467.56</ele>
        <time>2018-07-07T14:44:49.000Z</time>
      </trkpt>
      <trkpt lat="46.1753" lon="2.59879">
        <ele>467.62</ele>
        <time>2018-07-07T14:44:50.000Z</time>
      </trkpt>
      <trkpt lat="46.17537" lon="2.59861">
        <ele>467.28</ele>
        <time>2018-07-07T14:44:51.000Z</time>
      </trkpt>
      <trkpt lat="46.17545" lon="2.59844">
        <ele>466.52</ele>
        <time>2018-07-07T14:44:52.000Z</time>
      </trkpt>
      <trkpt lat="46.17552" lon="2.59827">
        <ele>465.55</ele>
        <time>2018-07-07T14:44:53.000Z</time>
      </trkpt>
      <trkpt lat="46.17559" lon="2.59811">
        <ele>464.92</ele>
        <time>2018-07-07T14:44:54.000Z</time>
      </trkpt>
      <trkpt lat="46.17566" lon="2.59794">
        <ele>464.12</ele>
        <time>2018-07-07T14:44:55.000Z</time>
      </trkpt>
      <trkpt lat="46.17573" lon="2.59777">
        <ele>463.21</ele>
        <time>2018-07-07T14:44:56.000Z</time>
      </trkpt>
      <trkpt lat="46.17581" lon="2.5976">
        <ele>462.39</ele>
        <time>2018-07-07T14:44:57.000Z</time>
      </trkpt>
      <trkpt lat="46.17588" lon="2.59744">
        <ele>461.79</ele>
        <time>2018-07-07T14:44:58.000Z</time>
      </trkpt>
      <trkpt lat="46.17595" lon="2.59727">
        <ele>461.05</ele>
        <time>2018-07-07T14:44:59.000Z</time>
      </trkpt>
      <trkpt lat="46.17601" lon="2.5971">
        <ele>460.44</ele>
        <time>2018-07-07T14:45:00.000Z</time>
      </trkpt>
      <trkpt lat="46.17608" lon="2.59693">
        <ele>459.93</ele>
        <time>2018-07-07T14:45:01.000Z</time>
      </trkpt>
      <trkpt lat="46.17614" lon="2.59675">
        <ele>459.49</ele>
        <time>2018-07-07T14:45:02.000Z</time>
      </trkpt>
      <trkpt lat="46.17618" lon="2.59658">
        <ele>458.76</ele>
        <time>2018-07-07T14:45:03.000Z</time>
      </trkpt>
      <trkpt lat="46.17619" lon="2.5964">
        <ele>458.29</ele>
        <time>2018-07-07T14:45:04.000Z</time>
      </trkpt>
      <trkpt lat="46.17621" lon="2.59622">
        <ele>457.9</ele>
        <time>2018-07-07T14:45:05.000Z</time>
      </trkpt>
      <trkpt lat="46.17622" lon="2.59602">
        <ele>457.57</ele>
        <time>2018-07-07T14:45:06.000Z</time>
      </trkpt>
      <trkpt lat="46.17623" lon="2.59583">
        <ele>457.45</ele>
        <time>2018-07-07T14:45:07.000Z</time>
      </trkpt>
      <trkpt lat="46.17624" lon="2.59563">
        <ele>457.26</ele>
        <time>2018-07-07T14:45:08.000Z</time>
      </trkpt>
      <trkpt lat="46.17622" lon="2.59543">
        <ele>457.13</ele>
        <time>2018-07-07T14:45:09.000Z</time>
      </trkpt>
      <trkpt lat="46.17623" lon="2.59524">
        <ele>456.57</ele>
        <time>2018-07-07T14:45:10.000Z</time>
      </trkpt>
      <trkpt lat="46.17623" lon="2.59504">
        <ele>456.45</ele>
        <time>2018-07-07T14:45:11.000Z</time>
      </trkpt>
      <trkpt lat="46.17625" lon="2.59483">
        <ele>455.27</ele>
        <time>2018-07-07T14:45:12.000Z</time>
      </trkpt>
      <trkpt lat="46.17627" lon="2.59463">
        <ele>454.11</ele>
        <time>2018-07-07T14:45:13.000Z</time>
      </trkpt>
      <trkpt lat="46.17629" lon="2.59442">
        <ele>451.97</ele>
        <time>2018-07-07T14:45:14.000Z</time>
      </trkpt>
      <trkpt lat="46.17632" lon="2.59421">
        <ele>449.69</ele>
        <time>2018-07-07T14:45:15.000Z</time>
      </trkpt>
      <trkpt lat="46.17634" lon="2.59401">
        <ele>447.83</ele>
        <time>2018-07-07T14:45:16.000Z</time>
      </trkpt>
      <trkpt lat="46.17636" lon="2.59381">
        <ele>446.38</ele>
        <time>2018-07-07T14:45:17.000Z</time>
      </trkpt>
      <trkpt lat="46.17638" lon="2.59361">
        <ele>445.34</ele>
        <time>2018-07-07T14:45:18.000Z</time>
      </trkpt>
      <trkpt lat="46.17638" lon="2.59341">
        <ele>444.65</ele>
        <time>2018-07-07T14:45:19.000Z</time>
      </trkpt>
      <trkpt lat="46.17638" lon="2.5932">
        <ele>443.38</ele>
        <time>2018-07-07T14:45:20.000Z</time>
      </trkpt>
      <trkpt lat="46.17638" lon="2.59299">
        <ele>442.46</ele>
        <time>2018-07-07T14:45:21.000Z</time>
      </trkpt>
      <trkpt lat="46.17637" lon="2.59278">
        <ele>441.34</ele>
        <time>2018-07-07T14:45:22.000Z</time>
      </trkpt>
      <trkpt lat="46.17635" lon="2.59257">
        <ele>440.34</ele>
        <time>2018-07-07T14:45:23.000Z</time>
      </trkpt>
      <trkpt lat="46.17633" lon="2.59237">
        <ele>439.24</ele>
        <time>2018-07-07T14:45:24.000Z</time>
      </trkpt>
      <trkpt lat="46.17632" lon="2.59217">
        <ele>438.18</ele>
        <time>2018-07-07T14:45:25.000Z</time>
      </trkpt>
      <trkpt lat="46.17631" lon="2.59197">
        <ele>437.23</ele>
        <time>2018-07-07T14:45:26.000Z</time>
      </trkpt>
      <trkpt lat="46.17631" lon="2.59176">
        <ele>436.22</ele>
        <time>2018-07-07T14:45:27.000Z</time>
      </trkpt>
      <trkpt lat="46.17632" lon="2.59156">
        <ele>434.82</ele>
        <time>2018-07-07T14:45:28.000Z</time>
      </trkpt>
      <trkpt lat="46.17633" lon="2.59136">
        <ele>433.6</ele>
        <time>2018-07-07T14:45:29.000Z</time>
      </trkpt>
      <trkpt lat="46.17633" lon="2.59116">
        <ele>432.33</ele>
        <time>2018-07-07T14:45:30.000Z</time>
      </trkpt>
      <trkpt lat="46.17633" lon="2.59096">
        <ele>430.91</ele>
        <time>2018-07-07T14:45:31.000Z</time>
      </trkpt>
      <trkpt lat="46.1763" lon="2.59076">
        <ele>429.45</ele>
        <time>2018-07-07T14:45:32.000Z</time>
      </trkpt>
      <trkpt lat="46.17628" lon="2.59056">
        <ele>427.92</ele>
        <time>2018-07-07T14:45:33.000Z</time>
      </trkpt>
      <trkpt lat="46.17626" lon="2.59035">
        <ele>426.51</ele>
        <time>2018-07-07T14:45:34.000Z</time>
      </trkpt>
      <trkpt lat="46.17625" lon="2.59015">
        <ele>425.23</ele>
        <time>2018-07-07T14:45:35.000Z</time>
      </trkpt>
      <trkpt lat="46.17627" lon="2.58996">
        <ele>424.09</ele>
        <time>2018-07-07T14:45:36.000Z</time>
      </trkpt>
      <trkpt lat="46.17632" lon="2.58978">
        <ele>422.97</ele>
        <time>2018-07-07T14:45:37.000Z</time>
      </trkpt>
      <trkpt lat="46.17638" lon="2.58961">
        <ele>421.7</ele>
        <time>2018-07-07T14:45:38.000Z</time>
      </trkpt>
      <trkpt lat="46.17646" lon="2.58945">
        <ele>421.45</ele>
        <time>2018-07-07T14:45:39.000Z</time>
      </trkpt>
      <trkpt lat="46.17654" lon="2.58929">
        <ele>421.4</ele>
        <time>2018-07-07T14:45:40.000Z</time>
      </trkpt>
      <trkpt lat="46.17661" lon="2.58911">
        <ele>420.08</ele>
        <time>2018-07-07T14:45:41.000Z</time>
      </trkpt>
      <trkpt lat="46.17667" lon="2.58894">
        <ele>418.67</ele>
        <time>2018-07-07T14:45:42.000Z</time>
      </trkpt>
      <trkpt lat="46.17672" lon="2.58877">
        <ele>417.26</ele>
        <time>2018-07-07T14:45:43.000Z</time>
      </trkpt>
      <trkpt lat="46.17677" lon="2.5886">
        <ele>415.75</ele>
        <time>2018-07-07T14:45:44.000Z</time>
      </trkpt>
      <trkpt lat="46.17682" lon="2.58843">
        <ele>414.22</ele>
        <time>2018-07-07T14:45:45.000Z</time>
      </trkpt>
      <trkpt lat="46.17687" lon="2.58827">
        <ele>413.12</ele>
        <time>2018-07-07T14:45:46.000Z</time>
      </trkpt>
      <trkpt lat="46.17691" lon="2.58812">
        <ele>412.23</ele>
        <time>2018-07-07T14:45:47.000Z</time>
      </trkpt>
      <trkpt lat="46.17696" lon="2.58797">
        <ele>411.03</ele>
        <time>2018-07-07T14:45:48.000Z</time>
      </trkpt>
      <trkpt lat="46.17701" lon="2.58783">
        <ele>409.89</ele>
        <time>2018-07-07T14:45:49.000Z</time>
      </trkpt>
      <trkpt lat="46.17706" lon="2.58769">
        <ele>409.26</ele>
        <time>2018-07-07T14:45:50.000Z</time>
      </trkpt>
      <trkpt lat="46.17711" lon="2.58755">
        <ele>408.71</ele>
        <time>2018-07-07T14:45:51.000Z</time>
      </trkpt>
      <trkpt lat="46.17716" lon="2.58741">
        <ele>408.28</ele>
        <time>2018-07-07T14:45:52.000Z</time>
      </trkpt>
      <trkpt lat="46.17719" lon="2.58727">
        <ele>407.64</ele>
        <time>2018-07-07T14:45:53.000Z</time>
      </trkpt>
      <trkpt lat="46.1772" lon="2.58712">
        <ele>407.1</ele>
        <time>2018-07-07T14:45:54.000Z</time>
      </trkpt>
      <trkpt lat="46.17721" lon="2.58696">
        <ele>406.43</ele>
        <time>2018-07-07T14:45:55.000Z</time>
      </trkpt>
      <trkpt lat="46.1772" lon="2.5868">
        <ele>405.7</ele>
        <time>2018-07-07T14:45:56.000Z</time>
      </trkpt>
      <trkpt lat="46.17717" lon="2.58665">
        <ele>405.2</ele>
        <time>2018-07-07T14:45:57.000Z</time>
      </trkpt>
      <trkpt lat="46.17713" lon="2.5865">
        <ele>404.73</ele>
        <time>2018-07-07T14:45:58.000Z</time>
      </trkpt>
      <trkpt lat="46.17708" lon="2.58635">
        <ele>404.02</ele>
        <time>2018-07-07T14:45:59.000Z</time>
      </trkpt>
      <trkpt lat="46.17703" lon="2.5862">
        <ele>403.34</ele>
        <time>2018-07-07T14:46:00.000Z</time>
      </trkpt>
      <trkpt lat="46.17699" lon="2.58606">
        <ele>402.4</ele>
        <time>2018-07-07T14:46:01.000Z</time>
      </trkpt>
      <trkpt lat="46.17694" lon="2.5859">
        <ele>401.46</ele>
        <time>2018-07-07T14:46:02.000Z</time>
      </trkpt>
      <trkpt lat="46.17689" lon="2.58576">
        <ele>400.63</ele>
        <time>2018-07-07T14:46:03.000Z</time>
      </trkpt>
      <trkpt lat="46.17685" lon="2.5856">
        <ele>399.76</ele>
        <time>2018-07-07T14:46:04.000Z</time>
      </trkpt>
      <trkpt lat="46.1768" lon="2.58544">
        <ele>399.95</ele>
        <time>2018-07-07T14:46:05.000Z</time>
      </trkpt>
      <trkpt lat="46.17675" lon="2.58528">
        <ele>399.75</ele>
        <time>2018-07-07T14:46:06.000Z</time>
      </trkpt>
      <trkpt lat="46.1767" lon="2.58514">
        <ele>399.41</ele>
        <time>2018-07-07T14:46:07.000Z</time>
      </trkpt>
      <trkpt lat="46.17666" lon="2.58498">
        <ele>398.78</ele>
        <time>2018-07-07T14:46:08.000Z</time>
      </trkpt>
      <trkpt lat="46.17662" lon="2.58482">
        <ele>398.15</ele>
        <time>2018-07-07T14:46:09.000Z</time>
      </trkpt>
      <trkpt lat="46.17658" lon="2.58466">
        <ele>397.8</ele>
        <time>2018-07-07T14:46:10.000Z</time>
      </trkpt>
      <trkpt lat="46.17653" lon="2.58451">
        <ele>397.1</ele>
        <time>2018-07-07T14:46:11.000Z</time>
      </trkpt>
      <trkpt lat="46.1765" lon="2.58436">
        <ele>396.46</ele>
        <time>2018-07-07T14:46:12.000Z</time>
      </trkpt>
      <trkpt lat="46.17645" lon="2.5842">
        <ele>395.86</ele>
        <time>2018-07-07T14:46:13.000Z</time>
      </trkpt>
      <trkpt lat="46.17641" lon="2.58405">
        <ele>395.04</ele>
        <time>2018-07-07T14:46:14.000Z</time>
      </trkpt>
      <trkpt lat="46.17637" lon="2.58389">
        <ele>393.88</ele>
        <time>2018-07-07T14:46:15.000Z</time>
      </trkpt>
      <trkpt lat="46.17633" lon="2.58374">
        <ele>392.75</ele>
        <time>2018-07-07T14:46:16.000Z</time>
      </trkpt>
      <trkpt lat="46.17629" lon="2.58358">
        <ele>391.68</ele>
        <time>2018-07-07T14:46:17.000Z</time>
      </trkpt>
      <trkpt lat="46.17624" lon="2.58343">
        <ele>390.7</ele>
        <time>2018-07-07T14:46:18.000Z</time>
      </trkpt>
      <trkpt lat="46.17619" lon="2.58329">
        <ele>389.69</ele>
        <time>2018-07-07T14:46:19.000Z</time>
      </trkpt>
      <trkpt lat="46.17613" lon="2.58315">
        <ele>388.72</ele>
        <time>2018-07-07T14:46:20.000Z</time>
      </trkpt>
      <trkpt lat="46.17606" lon="2.58302">
        <ele>387.97</ele>
        <time>2018-07-07T14:46:21.000Z</time>
      </trkpt>
      <trkpt lat="46.17598" lon="2.5829">
        <ele>387.16</ele>
        <time>2018-07-07T14:46:22.000Z</time>
      </trkpt>
      <trkpt lat="46.17591" lon="2.58279">
        <ele>386.54</ele>
        <time>2018-07-07T14:46:23.000Z</time>
      </trkpt>
      <trkpt lat="46.17583" lon="2.58268">
        <ele>386.08</ele>
        <time>2018-07-07T14:46:24.000Z</time>
      </trkpt>
      <trkpt lat="46.17574" lon="2.58257">
        <ele>385.88</ele>
        <time>2018-07-07T14:46:25.000Z</time>
      </trkpt>
      <trkpt lat="46.17566" lon="2.58247">
        <ele>385.65</ele>
        <time>2018-07-07T14:46:26.000Z</time>
      </trkpt>
      <trkpt lat="46.17559" lon="2.58237">
        <ele>385.62</ele>
        <time>2018-07-07T14:46:27.000Z</time>
      </trkpt>
      <trkpt lat="46.17551" lon="2.58227">
        <ele>385.17</ele>
        <time>2018-07-07T14:46:28.000Z</time>
      </trkpt>
      <trkpt lat="46.17544" lon="2.58217">
        <ele>384.97</ele>
        <time>2018-07-07T14:46:29.000Z</time>
      </trkpt>
      <trkpt lat="46.17537" lon="2.58208">
        <ele>384.88</ele>
        <time>2018-07-07T14:46:30.000Z</time>
      </trkpt>
      <trkpt lat="46.1753" lon="2.58199">
        <ele>384.71</ele>
        <time>2018-07-07T14:46:31.000Z</time>
      </trkpt>
      <trkpt lat="46.17523" lon="2.5819">
        <ele>384.23</ele>
        <time>2018-07-07T14:46:32.000Z</time>
      </trkpt>
      <trkpt lat="46.17511" lon="2.58172">
        <ele>383.65</ele>
        <time>2018-07-07T14:46:34.000Z</time>
      </trkpt>
      <trkpt lat="46.17498" lon="2.58152">
        <ele>382.86</ele>
        <time>2018-07-07T14:46:36.000Z</time>
      </trkpt>
      <trkpt lat="46.17492" lon="2.58142">
        <ele>382.44</ele>
        <time>2018-07-07T14:46:37.000Z</time>
      </trkpt>
      <trkpt lat="46.17486" lon="2.58131">
        <ele>382.06</ele>
        <time>2018-07-07T14:46:38.000Z</time>
      </trkpt>
      <trkpt lat="46.17481" lon="2.58119">
        <ele>381.64</ele>
        <time>2018-07-07T14:46:39.000Z</time>
      </trkpt>
      <trkpt lat="46.17476" lon="2.58107">
        <ele>381.29</ele>
        <time>2018-07-07T14:46:40.000Z</time>
      </trkpt>
      <trkpt lat="46.17471" lon="2.58094">
        <ele>380.86</ele>
        <time>2018-07-07T14:46:41.000Z</time>
      </trkpt>
      <trkpt lat="46.17467" lon="2.58081">
        <ele>380.48</ele>
        <time>2018-07-07T14:46:42.000Z</time>
      </trkpt>
      <trkpt lat="46.17463" lon="2.58067">
        <ele>380.17</ele>
        <time>2018-07-07T14:46:43.000Z</time>
      </trkpt>
      <trkpt lat="46.1746" lon="2.58053">
        <ele>379.8</ele>
        <time>2018-07-07T14:46:44.000Z</time>
      </trkpt>
      <trkpt lat="46.17456" lon="2.5804">
        <ele>379.57</ele>
        <time>2018-07-07T14:46:45.000Z</time>
      </trkpt>
      <trkpt lat="46.17453" lon="2.58027">
        <ele>379.27</ele>
        <time>2018-07-07T14:46:46.000Z</time>
      </trkpt>
      <trkpt lat="46.17447" lon="2.58003">
        <ele>378.61</ele>
        <time>2018-07-07T14:46:48.000Z</time>
      </trkpt>
      <trkpt lat="46.17446" lon="2.57989">
        <ele>378.06</ele>
        <time>2018-07-07T14:46:49.000Z</time>
      </trkpt>
      <trkpt lat="46.17445" lon="2.57976">
        <ele>377.57</ele>
        <time>2018-07-07T14:46:50.000Z</time>
      </trkpt>
      <trkpt lat="46.17444" lon="2.57963">
        <ele>376.96</ele>
        <time>2018-07-07T14:46:51.000Z</time>
      </trkpt>
      <trkpt lat="46.17444" lon="2.57949">
        <ele>376.37</ele>
        <time>2018-07-07T14:46:52.000Z</time>
      </trkpt>
      <trkpt lat="46.17443" lon="2.57936">
        <ele>375.95</ele>
        <time>2018-07-07T14:46:53.000Z</time>
      </trkpt>
      <trkpt lat="46.17443" lon="2.57922">
        <ele>375.83</ele>
        <time>2018-07-07T14:46:54.000Z</time>
      </trkpt>
      <trkpt lat="46.17444" lon="2.57909">
        <ele>375.88</ele>
        <time>2018-07-07T14:46:55.000Z</time>
      </trkpt>
      <trkpt lat="46.17445" lon="2.57883">
        <ele>376.03</ele>
        <time>2018-07-07T14:46:57.000Z</time>
      </trkpt>
      <trkpt lat="46.17446" lon="2.57858">
        <ele>377.45</ele>
        <time>2018-07-07T14:46:59.000Z</time>
      </trkpt>
      <trkpt lat="46.17448" lon="2.57833">
        <ele>378.61</ele>
        <time>2018-07-07T14:47:01.000Z</time>
      </trkpt>
      <trkpt lat="46.17448" lon="2.5782">
        <ele>378.6</ele>
        <time>2018-07-07T14:47:02.000Z</time>
      </trkpt>
      <trkpt lat="46.17448" lon="2.57807">
        <ele>378.64</ele>
        <time>2018-07-07T14:47:03.000Z</time>
      </trkpt>
      <trkpt lat="46.1745" lon="2.57781">
        <ele>379.03</ele>
        <time>2018-07-07T14:47:05.000Z</time>
      </trkpt>
      <trkpt lat="46.17449" lon="2.57755">
        <ele>378.62</ele>
        <time>2018-07-07T14:47:07.000Z</time>
      </trkpt>
      <trkpt lat="46.17447" lon="2.5773">
        <ele>378.37</ele>
        <time>2018-07-07T14:47:09.000Z</time>
      </trkpt>
      <trkpt lat="46.17444" lon="2.57707">
        <ele>378.28</ele>
        <time>2018-07-07T14:47:11.000Z</time>
      </trkpt>
      <trkpt lat="46.17439" lon="2.57685">
        <ele>378.23</ele>
        <time>2018-07-07T14:47:13.000Z</time>
      </trkpt>
      <trkpt lat="46.17435" lon="2.57662">
        <ele>377.72</ele>
        <time>2018-07-07T14:47:15.000Z</time>
      </trkpt>
      <trkpt lat="46.17432" lon="2.5764">
        <ele>376.85</ele>
        <time>2018-07-07T14:47:17.000Z</time>
      </trkpt>
      <trkpt lat="46.17431" lon="2.57617">
        <ele>376.24</ele>
        <time>2018-07-07T14:47:19.000Z</time>
      </trkpt>
      <trkpt lat="46.17431" lon="2.57594">
        <ele>375.75</ele>
        <time>2018-07-07T14:47:21.000Z</time>
      </trkpt>
      <trkpt lat="46.17433" lon="2.5757">
        <ele>376.06</ele>
        <time>2018-07-07T14:47:23.000Z</time>
      </trkpt>
      <trkpt lat="46.17437" lon="2.57547">
        <ele>376.43</ele>
        <time>2018-07-07T14:47:25.000Z</time>
      </trkpt>
      <trkpt lat="46.1744" lon="2.57524">
        <ele>376.89</ele>
        <time>2018-07-07T14:47:27.000Z</time>
      </trkpt>
      <trkpt lat="46.17442" lon="2.57501">
        <ele>377.2</ele>
        <time>2018-07-07T14:47:29.000Z</time>
      </trkpt>
      <trkpt lat="46.17445" lon="2.57479">
        <ele>377.2</ele>
        <time>2018-07-07T14:47:31.000Z</time>
      </trkpt>
      <trkpt lat="46.17451" lon="2.57458">
        <ele>377.24</ele>
        <time>2018-07-07T14:47:33.000Z</time>
      </trkpt>
      <trkpt lat="46.17458" lon="2.57438">
        <ele>377.53</ele>
        <time>2018-07-07T14:47:35.000Z</time>
      </trkpt>
      <trkpt lat="46.17463" lon="2.57421">
        <ele>378.09</ele>
        <time>2018-07-07T14:47:37.000Z</time>
      </trkpt>
      <trkpt lat="46.17467" lon="2.57405">
        <ele>378.67</ele>
        <time>2018-07-07T14:47:39.000Z</time>
      </trkpt>
      <trkpt lat="46.17469" lon="2.57387">
        <ele>379.51</ele>
        <time>2018-07-07T14:47:41.000Z</time>
      </trkpt>
      <trkpt lat="46.17471" lon="2.5737">
        <ele>380.77</ele>
        <time>2018-07-07T14:47:43.000Z</time>
      </trkpt>
      <trkpt lat="46.17473" lon="2.57353">
        <ele>381.87</ele>
        <time>2018-07-07T14:47:45.000Z</time>
      </trkpt>
      <trkpt lat="46.17472" lon="2.57335">
        <ele>382.3</ele>
        <time>2018-07-07T14:47:47.000Z</time>
      </trkpt>
      <trkpt lat="46.17471" lon="2.57316">
        <ele>382.58</ele>
        <time>2018-07-07T14:47:49.000Z</time>
      </trkpt>
      <trkpt lat="46.17467" lon="2.57296">
        <ele>383.03</ele>
        <time>2018-07-07T14:47:51.000Z</time>
      </trkpt>
      <trkpt lat="46.17462" lon="2.57273">
        <ele>383.75</ele>
        <time>2018-07-07T14:47:53.000Z</time>
      </trkpt>
      <trkpt lat="46.17457" lon="2.57251">
        <ele>383.96</ele>
        <time>2018-07-07T14:47:55.000Z</time>
      </trkpt>
      <trkpt lat="46.17452" lon="2.57229">
        <ele>384.39</ele>
        <time>2018-07-07T14:47:57.000Z</time>
      </trkpt>
      <trkpt lat="46.17448" lon="2.57204">
        <ele>383.99</ele>
        <time>2018-07-07T14:47:59.000Z</time>
      </trkpt>
      <trkpt lat="46.17446" lon="2.57191">
        <ele>384.01</ele>
        <time>2018-07-07T14:48:00.000Z</time>
      </trkpt>
      <trkpt lat="46.17442" lon="2.57165">
        <ele>384.02</ele>
        <time>2018-07-07T14:48:02.000Z</time>
      </trkpt>
      <trkpt lat="46.1744" lon="2.5715">
        <ele>384.26</ele>
        <time>2018-07-07T14:48:03.000Z</time>
      </trkpt>
      <trkpt lat="46.17437" lon="2.57136">
        <ele>384.48</ele>
        <time>2018-07-07T14:48:04.000Z</time>
      </trkpt>
      <trkpt lat="46.17436" lon="2.57121">
        <ele>384.56</ele>
        <time>2018-07-07T14:48:05.000Z</time>
      </trkpt>
      <trkpt lat="46.17433" lon="2.57107">
        <ele>384.68</ele>
        <time>2018-07-07T14:48:06.000Z</time>
      </trkpt>
      <trkpt lat="46.17432" lon="2.57091">
        <ele>384.89</ele>
        <time>2018-07-07T14:48:07.000Z</time>
      </trkpt>
      <trkpt lat="46.17432" lon="2.57076">
        <ele>384.1</ele>
        <time>2018-07-07T14:48:08.000Z</time>
      </trkpt>
      <trkpt lat="46.17431" lon="2.57062">
        <ele>383.78</ele>
        <time>2018-07-07T14:48:09.000Z</time>
      </trkpt>
      <trkpt lat="46.1743" lon="2.57047">
        <ele>383.63</ele>
        <time>2018-07-07T14:48:10.000Z</time>
      </trkpt>
      <trkpt lat="46.1743" lon="2.57033">
        <ele>383.83</ele>
        <time>2018-07-07T14:48:11.000Z</time>
      </trkpt>
      <trkpt lat="46.17429" lon="2.5702">
        <ele>384.01</ele>
        <time>2018-07-07T14:48:12.000Z</time>
      </trkpt>
      <trkpt lat="46.17428" lon="2.57007">
        <ele>384.22</ele>
        <time>2018-07-07T14:48:13.000Z</time>
      </trkpt>
      <trkpt lat="46.17427" lon="2.56994">
        <ele>384.23</ele>
        <time>2018-07-07T14:48:14.000Z</time>
      </trkpt>
      <trkpt lat="46.17426" lon="2.56968">
        <ele>384.14</ele>
        <time>2018-07-07T14:48:16.000Z</time>
      </trkpt>
      <trkpt lat="46.17424" lon="2.56955">
        <ele>384.12</ele>
        <time>2018-07-07T14:48:17.000Z</time>
      </trkpt>
      <trkpt lat="46.17423" lon="2.56941">
        <ele>384.23</ele>
        <time>2018-07-07T14:48:18.000Z</time>
      </trkpt>
      <trkpt lat="46.17423" lon="2.56928">
        <ele>384.54</ele>
        <time>2018-07-07T14:48:19.000Z</time>
      </trkpt>
      <trkpt lat="46.17423" lon="2.56903">
        <ele>385.53</ele>
        <time>2018-07-07T14:48:21.000Z</time>
      </trkpt>
      <trkpt lat="46.17422" lon="2.5689">
        <ele>385.87</ele>
        <time>2018-07-07T14:48:22.000Z</time>
      </trkpt>
      <trkpt lat="46.17422" lon="2.56877">
        <ele>386.12</ele>
        <time>2018-07-07T14:48:23.000Z</time>
      </trkpt>
      <trkpt lat="46.17421" lon="2.56864">
        <ele>386.3</ele>
        <time>2018-07-07T14:48:24.000Z</time>
      </trkpt>
      <trkpt lat="46.17421" lon="2.5685">
        <ele>386.43</ele>
        <time>2018-07-07T14:48:25.000Z</time>
      </trkpt>
      <trkpt lat="46.17421" lon="2.56837">
        <ele>386.36</ele>
        <time>2018-07-07T14:48:26.000Z</time>
      </trkpt>
      <trkpt lat="46.1742" lon="2.56822">
        <ele>386.11</ele>
        <time>2018-07-07T14:48:27.000Z</time>
      </trkpt>
      <trkpt lat="46.17421" lon="2.56808">
        <ele>385.96</ele>
        <time>2018-07-07T14:48:28.000Z</time>
      </trkpt>
      <trkpt lat="46.1742" lon="2.56795">
        <ele>385.89</ele>
        <time>2018-07-07T14:48:29.000Z</time>
      </trkpt>
      <trkpt lat="46.17423" lon="2.5677">
        <ele>385.56</ele>
        <time>2018-07-07T14:48:31.000Z</time>
      </trkpt>
      <trkpt lat="46.17427" lon="2.56745">
        <ele>385.07</ele>
        <time>2018-07-07T14:48:33.000Z</time>
      </trkpt>
      <trkpt lat="46.17434" lon="2.56721">
        <ele>384.59</ele>
        <time>2018-07-07T14:48:35.000Z</time>
      </trkpt>
      <trkpt lat="46.17439" lon="2.56708">
        <ele>384.31</ele>
        <time>2018-07-07T14:48:36.000Z</time>
      </trkpt>
      <trkpt lat="46.17445" lon="2.56695">
        <ele>384.05</ele>
        <time>2018-07-07T14:48:37.000Z</time>
      </trkpt>
      <trkpt lat="46.17452" lon="2.56685">
        <ele>384.14</ele>
        <time>2018-07-07T14:48:38.000Z</time>
      </trkpt>
      <trkpt lat="46.17458" lon="2.56674">
        <ele>383.84</ele>
        <time>2018-07-07T14:48:39.000Z</time>
      </trkpt>
      <trkpt lat="46.17464" lon="2.56663">
        <ele>383.77</ele>
        <time>2018-07-07T14:48:40.000Z</time>
      </trkpt>
      <trkpt lat="46.17471" lon="2.56652">
        <ele>383.71</ele>
        <time>2018-07-07T14:48:41.000Z</time>
      </trkpt>
      <trkpt lat="46.17479" lon="2.5664">
        <ele>383.64</ele>
        <time>2018-07-07T14:48:42.000Z</time>
      </trkpt>
      <trkpt lat="46.17492" lon="2.56621">
        <ele>383.69</ele>
        <time>2018-07-07T14:48:44.000Z</time>
      </trkpt>
      <trkpt lat="46.17498" lon="2.56612">
        <ele>384.03</ele>
        <time>2018-07-07T14:48:45.000Z</time>
      </trkpt>
      <trkpt lat="46.17506" lon="2.56601">
        <ele>384.22</ele>
        <time>2018-07-07T14:48:46.000Z</time>
      </trkpt>
      <trkpt lat="46.17513" lon="2.56591">
        <ele>384.42</ele>
        <time>2018-07-07T14:48:47.000Z</time>
      </trkpt>
      <trkpt lat="46.1752" lon="2.5658">
        <ele>384.66</ele>
        <time>2018-07-07T14:48:48.000Z</time>
      </trkpt>
      <trkpt lat="46.1753" lon="2.56563">
        <ele>384.95</ele>
        <time>2018-07-07T14:48:50.000Z</time>
      </trkpt>
      <trkpt lat="46.1754" lon="2.56545">
        <ele>385.42</ele>
        <time>2018-07-07T14:48:52.000Z</time>
      </trkpt>
      <trkpt lat="46.1755" lon="2.56529">
        <ele>385.65</ele>
        <time>2018-07-07T14:48:54.000Z</time>
      </trkpt>
      <trkpt lat="46.17559" lon="2.56514">
        <ele>386.08</ele>
        <time>2018-07-07T14:48:56.000Z</time>
      </trkpt>
      <trkpt lat="46.17568" lon="2.56498">
        <ele>386.63</ele>
        <time>2018-07-07T14:48:58.000Z</time>
      </trkpt>
      <trkpt lat="46.17576" lon="2.56481">
        <ele>386.05</ele>
        <time>2018-07-07T14:49:00.000Z</time>
      </trkpt>
      <trkpt lat="46.17583" lon="2.56466">
        <ele>384.92</ele>
        <time>2018-07-07T14:49:02.000Z</time>
      </trkpt>
      <trkpt lat="46.17588" lon="2.56451">
        <ele>383.94</ele>
        <time>2018-07-07T14:49:04.000Z</time>
      </trkpt>
      <trkpt lat="46.17593" lon="2.56435">
        <ele>383.3</ele>
        <time>2018-07-07T14:49:06.000Z</time>
      </trkpt>
      <trkpt lat="46.17596" lon="2.56419">
        <ele>382.58</ele>
        <time>2018-07-07T14:49:08.000Z</time>
      </trkpt>
      <trkpt lat="46.17598" lon="2.56402">
        <ele>382.67</ele>
        <time>2018-07-07T14:49:10.000Z</time>
      </trkpt>
      <trkpt lat="46.176" lon="2.56386">
        <ele>382.49</ele>
        <time>2018-07-07T14:49:12.000Z</time>
      </trkpt>
      <trkpt lat="46.176" lon="2.56371">
        <ele>382.12</ele>
        <time>2018-07-07T14:49:14.000Z</time>
      </trkpt>
      <trkpt lat="46.17604" lon="2.56355">
        <ele>382.11</ele>
        <time>2018-07-07T14:49:16.000Z</time>
      </trkpt>
      <trkpt lat="46.17607" lon="2.56338">
        <ele>382.68</ele>
        <time>2018-07-07T14:49:18.000Z</time>
      </trkpt>
      <trkpt lat="46.17613" lon="2.56321">
        <ele>382.97</ele>
        <time>2018-07-07T14:49:20.000Z</time>
      </trkpt>
      <trkpt lat="46.17619" lon="2.56306">
        <ele>382.86</ele>
        <time>2018-07-07T14:49:22.000Z</time>
      </trkpt>
      <trkpt lat="46.17625" lon="2.5629">
        <ele>382.71</ele>
        <time>2018-07-07T14:49:24.000Z</time>
      </trkpt>
      <trkpt lat="46.17629" lon="2.56271">
        <ele>382.23</ele>
        <time>2018-07-07T14:49:26.000Z</time>
      </trkpt>
      <trkpt lat="46.17636" lon="2.56256">
        <ele>382.04</ele>
        <time>2018-07-07T14:49:28.000Z</time>
      </trkpt>
      <trkpt lat="46.17644" lon="2.56243">
        <ele>381.68</ele>
        <time>2018-07-07T14:49:30.000Z</time>
      </trkpt>
      <trkpt lat="46.17649" lon="2.56228">
        <ele>380.43</ele>
        <time>2018-07-07T14:49:32.000Z</time>
      </trkpt>
      <trkpt lat="46.17659" lon="2.56218">
        <ele>379.97</ele>
        <time>2018-07-07T14:49:34.000Z</time>
      </trkpt>
      <trkpt lat="46.17671" lon="2.56207">
        <ele>379.86</ele>
        <time>2018-07-07T14:49:36.000Z</time>
      </trkpt>
      <trkpt lat="46.17685" lon="2.56196">
        <ele>379.52</ele>
        <time>2018-07-07T14:49:38.000Z</time>
      </trkpt>
      <trkpt lat="46.17698" lon="2.56181">
        <ele>379.09</ele>
        <time>2018-07-07T14:49:40.000Z</time>
      </trkpt>
      <trkpt lat="46.17712" lon="2.56167">
        <ele>378.87</ele>
        <time>2018-07-07T14:49:42.000Z</time>
      </trkpt>
      <trkpt lat="46.17726" lon="2.56151">
        <ele>378.45</ele>
        <time>2018-07-07T14:49:44.000Z</time>
      </trkpt>
      <trkpt lat="46.17739" lon="2.56133">
        <ele>378.16</ele>
        <time>2018-07-07T14:49:46.000Z</time>
      </trkpt>
      <trkpt lat="46.17753" lon="2.56117">
        <ele>378.41</ele>
        <time>2018-07-07T14:49:48.000Z</time>
      </trkpt>
      <trkpt lat="46.1776" lon="2.56108">
        <ele>378.82</ele>
        <time>2018-07-07T14:49:49.000Z</time>
      </trkpt>
      <trkpt lat="46.17773" lon="2.56093">
        <ele>379.16</ele>
        <time>2018-07-07T14:49:51.000Z</time>
      </trkpt>
      <trkpt lat="46.17784" lon="2.56075">
        <ele>378.96</ele>
        <time>2018-07-07T14:49:53.000Z</time>
      </trkpt>
      <trkpt lat="46.17791" lon="2.56053">
        <ele>378.81</ele>
        <time>2018-07-07T14:49:55.000Z</time>
      </trkpt>
      <trkpt lat="46.17796" lon="2.5603">
        <ele>378.88</ele>
        <time>2018-07-07T14:49:57.000Z</time>
      </trkpt>
      <trkpt lat="46.178" lon="2.56008">
        <ele>378.76</ele>
        <time>2018-07-07T14:49:59.000Z</time>
      </trkpt>
      <trkpt lat="46.17803" lon="2.55983">
        <ele>379.1</ele>
        <time>2018-07-07T14:50:01.000Z</time>
      </trkpt>
      <trkpt lat="46.17805" lon="2.55961">
        <ele>379.68</ele>
        <time>2018-07-07T14:50:03.000Z</time>
      </trkpt>
      <trkpt lat="46.17807" lon="2.55941">
        <ele>379.85</ele>
        <time>2018-07-07T14:50:05.000Z</time>
      </trkpt>
      <trkpt lat="46.1781" lon="2.55923">
        <ele>380.69</ele>
        <time>2018-07-07T14:50:07.000Z</time>
      </trkpt>
      <trkpt lat="46.17812" lon="2.55905">
        <ele>381.36</ele>
        <time>2018-07-07T14:50:09.000Z</time>
      </trkpt>
      <trkpt lat="46.17815" lon="2.55886">
        <ele>381.45</ele>
        <time>2018-07-07T14:50:11.000Z</time>
      </trkpt>
      <trkpt lat="46.17819" lon="2.55865">
        <ele>382.07</ele>
        <time>2018-07-07T14:50:13.000Z</time>
      </trkpt>
      <trkpt lat="46.17822" lon="2.55846">
        <ele>383.22</ele>
        <time>2018-07-07T14:50:15.000Z</time>
      </trkpt>
      <trkpt lat="46.17827" lon="2.55826">
        <ele>383.82</ele>
        <time>2018-07-07T14:50:17.000Z</time>
      </trkpt>
      <trkpt lat="46.17832" lon="2.55804">
        <ele>384.05</ele>
        <time>2018-07-07T14:50:19.000Z</time>
      </trkpt>
      <trkpt lat="46.17838" lon="2.55783">
        <ele>384.39</ele>
        <time>2018-07-07T14:50:21.000Z</time>
      </trkpt>
      <trkpt lat="46.17844" lon="2.55761">
        <ele>384.07</ele>
        <time>2018-07-07T14:50:23.000Z</time>
      </trkpt>
      <trkpt lat="46.17849" lon="2.55739">
        <ele>383.18</ele>
        <time>2018-07-07T14:50:25.000Z</time>
      </trkpt>
      <trkpt lat="46.17854" lon="2.55715">
        <ele>382.13</ele>
        <time>2018-07-07T14:50:27.000Z</time>
      </trkpt>
      <trkpt lat="46.17855" lon="2.55702">
        <ele>381.54</ele>
        <time>2018-07-07T14:50:28.000Z</time>
      </trkpt>
      <trkpt lat="46.17857" lon="2.55677">
        <ele>380.68</ele>
        <time>2018-07-07T14:50:30.000Z</time>
      </trkpt>
      <trkpt lat="46.17857" lon="2.55652">
        <ele>379.96</ele>
        <time>2018-07-07T14:50:32.000Z</time>
      </trkpt>
      <trkpt lat="46.17858" lon="2.55629">
        <ele>379.46</ele>
        <time>2018-07-07T14:50:34.000Z</time>
      </trkpt>
      <trkpt lat="46.17859" lon="2.55604">
        <ele>379.25</ele>
        <time>2018-07-07T14:50:36.000Z</time>
      </trkpt>
      <trkpt lat="46.17859" lon="2.55581">
        <ele>379.25</ele>
        <time>2018-07-07T14:50:38.000Z</time>
      </trkpt>
      <trkpt lat="46.17859" lon="2.5556">
        <ele>379.21</ele>
        <time>2018-07-07T14:50:40.000Z</time>
      </trkpt>
      <trkpt lat="46.17857" lon="2.55537">
        <ele>378.9</ele>
        <time>2018-07-07T14:50:42.000Z</time>
      </trkpt>
      <trkpt lat="46.17856" lon="2.55515">
        <ele>378.73</ele>
        <time>2018-07-07T14:50:44.000Z</time>
      </trkpt>
      <trkpt lat="46.17853" lon="2.55493">
        <ele>378.83</ele>
        <time>2018-07-07T14:50:46.000Z</time>
      </trkpt>
      <trkpt lat="46.1785" lon="2.5547">
        <ele>379</ele>
        <time>2018-07-07T14:50:48.000Z</time>
      </trkpt>
      <trkpt lat="46.17847" lon="2.55448">
        <ele>379.02</ele>
        <time>2018-07-07T14:50:50.000Z</time>
      </trkpt>
      <trkpt lat="46.17844" lon="2.55425">
        <ele>379.03</ele>
        <time>2018-07-07T14:50:52.000Z</time>
      </trkpt>
      <trkpt lat="46.17841" lon="2.55403">
        <ele>379.02</ele>
        <time>2018-07-07T14:50:54.000Z</time>
      </trkpt>
      <trkpt lat="46.17837" lon="2.5538">
        <ele>378.68</ele>
        <time>2018-07-07T14:50:56.000Z</time>
      </trkpt>
      <trkpt lat="46.17833" lon="2.55356">
        <ele>378.21</ele>
        <time>2018-07-07T14:50:58.000Z</time>
      </trkpt>
      <trkpt lat="46.1783" lon="2.55332">
        <ele>377.39</ele>
        <time>2018-07-07T14:51:00.000Z</time>
      </trkpt>
      <trkpt lat="46.17827" lon="2.55308">
        <ele>376.7</ele>
        <time>2018-07-07T14:51:02.000Z</time>
      </trkpt>
      <trkpt lat="46.17824" lon="2.55285">
        <ele>376.47</ele>
        <time>2018-07-07T14:51:04.000Z</time>
      </trkpt>
      <trkpt lat="46.17822" lon="2.55262">
        <ele>376.13</ele>
        <time>2018-07-07T14:51:06.000Z</time>
      </trkpt>
      <trkpt lat="46.17819" lon="2.55239">
        <ele>376.19</ele>
        <time>2018-07-07T14:51:08.000Z</time>
      </trkpt>
      <trkpt lat="46.17817" lon="2.55217">
        <ele>376.57</ele>
        <time>2018-07-07T14:51:10.000Z</time>
      </trkpt>
      <trkpt lat="46.17815" lon="2.55195">
        <ele>376.94</ele>
        <time>2018-07-07T14:51:12.000Z</time>
      </trkpt>
      <trkpt lat="46.17814" lon="2.55173">
        <ele>377.6</ele>
        <time>2018-07-07T14:51:14.000Z</time>
      </trkpt>
      <trkpt lat="46.1781" lon="2.55152">
        <ele>378.03</ele>
        <time>2018-07-07T14:51:16.000Z</time>
      </trkpt>
      <trkpt lat="46.17807" lon="2.55131">
        <ele>378.08</ele>
        <time>2018-07-07T14:51:18.000Z</time>
      </trkpt>
      <trkpt lat="46.17804" lon="2.55111">
        <ele>377.88</ele>
        <time>2018-07-07T14:51:20.000Z</time>
      </trkpt>
      <trkpt lat="46.17801" lon="2.55091">
        <ele>377.95</ele>
        <time>2018-07-07T14:51:22.000Z</time>
      </trkpt>
      <trkpt lat="46.17796" lon="2.55072">
        <ele>378</ele>
        <time>2018-07-07T14:51:24.000Z</time>
      </trkpt>
      <trkpt lat="46.1779" lon="2.55053">
        <ele>377.86</ele>
        <time>2018-07-07T14:51:26.000Z</time>
      </trkpt>
      <trkpt lat="46.17781" lon="2.55038">
        <ele>377.1</ele>
        <time>2018-07-07T14:51:28.000Z</time>
      </trkpt>
      <trkpt lat="46.17768" lon="2.55028">
        <ele>376.1</ele>
        <time>2018-07-07T14:51:30.000Z</time>
      </trkpt>
      <trkpt lat="46.17755" lon="2.55026">
        <ele>374.93</ele>
        <time>2018-07-07T14:51:32.000Z</time>
      </trkpt>
      <trkpt lat="46.17742" lon="2.55033">
        <ele>375.1</ele>
        <time>2018-07-07T14:51:34.000Z</time>
      </trkpt>
      <trkpt lat="46.17728" lon="2.55041">
        <ele>375.63</ele>
        <time>2018-07-07T14:51:36.000Z</time>
      </trkpt>
      <trkpt lat="46.17715" lon="2.55048">
        <ele>376.19</ele>
        <time>2018-07-07T14:51:38.000Z</time>
      </trkpt>
      <trkpt lat="46.17701" lon="2.55053">
        <ele>376.48</ele>
        <time>2018-07-07T14:51:40.000Z</time>
      </trkpt>
      <trkpt lat="46.17687" lon="2.55057">
        <ele>376.23</ele>
        <time>2018-07-07T14:51:42.000Z</time>
      </trkpt>
      <trkpt lat="46.17672" lon="2.55059">
        <ele>375.75</ele>
        <time>2018-07-07T14:51:44.000Z</time>
      </trkpt>
      <trkpt lat="46.17658" lon="2.5506">
        <ele>375.29</ele>
        <time>2018-07-07T14:51:46.000Z</time>
      </trkpt>
      <trkpt lat="46.17641" lon="2.55056">
        <ele>374.61</ele>
        <time>2018-07-07T14:51:48.000Z</time>
      </trkpt>
      <trkpt lat="46.17632" lon="2.55052">
        <ele>374.14</ele>
        <time>2018-07-07T14:51:49.000Z</time>
      </trkpt>
      <trkpt lat="46.17616" lon="2.5504">
        <ele>374</ele>
        <time>2018-07-07T14:51:51.000Z</time>
      </trkpt>
      <trkpt lat="46.17608" lon="2.55031">
        <ele>373.83</ele>
        <time>2018-07-07T14:51:52.000Z</time>
      </trkpt>
      <trkpt lat="46.17602" lon="2.55021">
        <ele>373.6</ele>
        <time>2018-07-07T14:51:53.000Z</time>
      </trkpt>
      <trkpt lat="46.17597" lon="2.5501">
        <ele>373.22</ele>
        <time>2018-07-07T14:51:54.000Z</time>
      </trkpt>
      <trkpt lat="46.17593" lon="2.54997">
        <ele>372.96</ele>
        <time>2018-07-07T14:51:55.000Z</time>
      </trkpt>
      <trkpt lat="46.17591" lon="2.54984">
        <ele>372.78</ele>
        <time>2018-07-07T14:51:56.000Z</time>
      </trkpt>
      <trkpt lat="46.1759" lon="2.54971">
        <ele>372.58</ele>
        <time>2018-07-07T14:51:57.000Z</time>
      </trkpt>
      <trkpt lat="46.1759" lon="2.54958">
        <ele>372.31</ele>
        <time>2018-07-07T14:51:58.000Z</time>
      </trkpt>
      <trkpt lat="46.17589" lon="2.54945">
        <ele>371.93</ele>
        <time>2018-07-07T14:51:59.000Z</time>
      </trkpt>
      <trkpt lat="46.17587" lon="2.54919">
        <ele>372</ele>
        <time>2018-07-07T14:52:01.000Z</time>
      </trkpt>
      <trkpt lat="46.17585" lon="2.54895">
        <ele>372.24</ele>
        <time>2018-07-07T14:52:03.000Z</time>
      </trkpt>
      <trkpt lat="46.17583" lon="2.54882">
        <ele>372.22</ele>
        <time>2018-07-07T14:52:04.000Z</time>
      </trkpt>
      <trkpt lat="46.17582" lon="2.54869">
        <ele>372.21</ele>
        <time>2018-07-07T14:52:05.000Z</time>
      </trkpt>
      <trkpt lat="46.17579" lon="2.54843">
        <ele>372.13</ele>
        <time>2018-07-07T14:52:07.000Z</time>
      </trkpt>
      <trkpt lat="46.17575" lon="2.54819">
        <ele>371.67</ele>
        <time>2018-07-07T14:52:09.000Z</time>
      </trkpt>
      <trkpt lat="46.17572" lon="2.54794">
        <ele>371.86</ele>
        <time>2018-07-07T14:52:11.000Z</time>
      </trkpt>
      <trkpt lat="46.1757" lon="2.5477">
        <ele>371.8</ele>
        <time>2018-07-07T14:52:13.000Z</time>
      </trkpt>
      <trkpt lat="46.17567" lon="2.54746">
        <ele>372.39</ele>
        <time>2018-07-07T14:52:15.000Z</time>
      </trkpt>
      <trkpt lat="46.17564" lon="2.54722">
        <ele>372.99</ele>
        <time>2018-07-07T14:52:17.000Z</time>
      </trkpt>
      <trkpt lat="46.17562" lon="2.54697">
        <ele>373.07</ele>
        <time>2018-07-07T14:52:19.000Z</time>
      </trkpt>
      <trkpt lat="46.17559" lon="2.54672">
        <ele>372.51</ele>
        <time>2018-07-07T14:52:21.000Z</time>
      </trkpt>
      <trkpt lat="46.17557" lon="2.54647">
        <ele>371.41</ele>
        <time>2018-07-07T14:52:23.000Z</time>
      </trkpt>
      <trkpt lat="46.17555" lon="2.54623">
        <ele>370.63</ele>
        <time>2018-07-07T14:52:25.000Z</time>
      </trkpt>
      <trkpt lat="46.17551" lon="2.54598">
        <ele>369.81</ele>
        <time>2018-07-07T14:52:27.000Z</time>
      </trkpt>
      <trkpt lat="46.17548" lon="2.54573">
        <ele>368.7</ele>
        <time>2018-07-07T14:52:29.000Z</time>
      </trkpt>
      <trkpt lat="46.17544" lon="2.54549">
        <ele>367.68</ele>
        <time>2018-07-07T14:52:31.000Z</time>
      </trkpt>
      <trkpt lat="46.17541" lon="2.54525">
        <ele>366.97</ele>
        <time>2018-07-07T14:52:33.000Z</time>
      </trkpt>
      <trkpt lat="46.17539" lon="2.545">
        <ele>366.1</ele>
        <time>2018-07-07T14:52:35.000Z</time>
      </trkpt>
      <trkpt lat="46.17538" lon="2.54476">
        <ele>365.28</ele>
        <time>2018-07-07T14:52:37.000Z</time>
      </trkpt>
      <trkpt lat="46.17537" lon="2.54451">
        <ele>365.3</ele>
        <time>2018-07-07T14:52:39.000Z</time>
      </trkpt>
      <trkpt lat="46.17538" lon="2.54427">
        <ele>365.61</ele>
        <time>2018-07-07T14:52:41.000Z</time>
      </trkpt>
      <trkpt lat="46.1754" lon="2.54403">
        <ele>365.73</ele>
        <time>2018-07-07T14:52:43.000Z</time>
      </trkpt>
      <trkpt lat="46.17542" lon="2.5438">
        <ele>366.4</ele>
        <time>2018-07-07T14:52:45.000Z</time>
      </trkpt>
      <trkpt lat="46.17546" lon="2.54358">
        <ele>366.96</ele>
        <time>2018-07-07T14:52:47.000Z</time>
      </trkpt>
      <trkpt lat="46.17551" lon="2.54335">
        <ele>367.3</ele>
        <time>2018-07-07T14:52:49.000Z</time>
      </trkpt>
      <trkpt lat="46.17555" lon="2.54313">
        <ele>367.87</ele>
        <time>2018-07-07T14:52:51.000Z</time>
      </trkpt>
      <trkpt lat="46.17559" lon="2.54292">
        <ele>368.61</ele>
        <time>2018-07-07T14:52:53.000Z</time>
      </trkpt>
      <trkpt lat="46.17563" lon="2.54273">
        <ele>368.67</ele>
        <time>2018-07-07T14:52:55.000Z</time>
      </trkpt>
      <trkpt lat="46.17567" lon="2.54252">
        <ele>368.59</ele>
        <time>2018-07-07T14:52:57.000Z</time>
      </trkpt>
      <trkpt lat="46.17572" lon="2.54232">
        <ele>368.78</ele>
        <time>2018-07-07T14:52:59.000Z</time>
      </trkpt>
      <trkpt lat="46.17578" lon="2.54212">
        <ele>369.38</ele>
        <time>2018-07-07T14:53:01.000Z</time>
      </trkpt>
      <trkpt lat="46.17585" lon="2.54191">
        <ele>369.69</ele>
        <time>2018-07-07T14:53:03.000Z</time>
      </trkpt>
      <trkpt lat="46.17593" lon="2.54171">
        <ele>369.78</ele>
        <time>2018-07-07T14:53:05.000Z</time>
      </trkpt>
      <trkpt lat="46.17601" lon="2.54153">
        <ele>370.18</ele>
        <time>2018-07-07T14:53:07.000Z</time>
      </trkpt>
      <trkpt lat="46.17611" lon="2.54135">
        <ele>370.43</ele>
        <time>2018-07-07T14:53:09.000Z</time>
      </trkpt>
      <trkpt lat="46.17621" lon="2.54117">
        <ele>370.33</ele>
        <time>2018-07-07T14:53:11.000Z</time>
      </trkpt>
      <trkpt lat="46.1763" lon="2.54099">
        <ele>370.06</ele>
        <time>2018-07-07T14:53:13.000Z</time>
      </trkpt>
      <trkpt lat="46.1764" lon="2.5408">
        <ele>369.95</ele>
        <time>2018-07-07T14:53:15.000Z</time>
      </trkpt>
      <trkpt lat="46.17649" lon="2.54061">
        <ele>370.75</ele>
        <time>2018-07-07T14:53:17.000Z</time>
      </trkpt>
      <trkpt lat="46.17659" lon="2.54043">
        <ele>371.39</ele>
        <time>2018-07-07T14:53:19.000Z</time>
      </trkpt>
      <trkpt lat="46.17669" lon="2.54024">
        <ele>371.52</ele>
        <time>2018-07-07T14:53:21.000Z</time>
      </trkpt>
      <trkpt lat="46.17679" lon="2.54006">
        <ele>371.16</ele>
        <time>2018-07-07T14:53:23.000Z</time>
      </trkpt>
      <trkpt lat="46.17687" lon="2.53987">
        <ele>371.1</ele>
        <time>2018-07-07T14:53:25.000Z</time>
      </trkpt>
      <trkpt lat="46.17697" lon="2.53969">
        <ele>370.89</ele>
        <time>2018-07-07T14:53:27.000Z</time>
      </trkpt>
      <trkpt lat="46.17707" lon="2.5395">
        <ele>370.85</ele>
        <time>2018-07-07T14:53:29.000Z</time>
      </trkpt>
      <trkpt lat="46.17718" lon="2.53932">
        <ele>370.2</ele>
        <time>2018-07-07T14:53:31.000Z</time>
      </trkpt>
      <trkpt lat="46.17729" lon="2.53913">
        <ele>369.67</ele>
        <time>2018-07-07T14:53:33.000Z</time>
      </trkpt>
      <trkpt lat="46.1774" lon="2.53893">
        <ele>370.05</ele>
        <time>2018-07-07T14:53:35.000Z</time>
      </trkpt>
      <trkpt lat="46.17751" lon="2.53873">
        <ele>370.56</ele>
        <time>2018-07-07T14:53:37.000Z</time>
      </trkpt>
      <trkpt lat="46.17762" lon="2.53854">
        <ele>370.19</ele>
        <time>2018-07-07T14:53:39.000Z</time>
      </trkpt>
      <trkpt lat="46.17774" lon="2.53835">
        <ele>369.33</ele>
        <time>2018-07-07T14:53:41.000Z</time>
      </trkpt>
      <trkpt lat="46.17785" lon="2.53815">
        <ele>367.96</ele>
        <time>2018-07-07T14:53:43.000Z</time>
      </trkpt>
      <trkpt lat="46.17795" lon="2.53796">
        <ele>366.92</ele>
        <time>2018-07-07T14:53:45.000Z</time>
      </trkpt>
      <trkpt lat="46.17806" lon="2.53776">
        <ele>366.36</ele>
        <time>2018-07-07T14:53:47.000Z</time>
      </trkpt>
      <trkpt lat="46.17816" lon="2.53756">
        <ele>365.72</ele>
        <time>2018-07-07T14:53:49.000Z</time>
      </trkpt>
      <trkpt lat="46.17822" lon="2.53746">
        <ele>365.4</ele>
        <time>2018-07-07T14:53:50.000Z</time>
      </trkpt>
      <trkpt lat="46.17828" lon="2.53735">
        <ele>365.39</ele>
        <time>2018-07-07T14:53:51.000Z</time>
      </trkpt>
      <trkpt lat="46.17833" lon="2.53725">
        <ele>365.2</ele>
        <time>2018-07-07T14:53:52.000Z</time>
      </trkpt>
      <trkpt lat="46.17839" lon="2.53715">
        <ele>365.01</ele>
        <time>2018-07-07T14:53:53.000Z</time>
      </trkpt>
      <trkpt lat="46.17849" lon="2.53694">
        <ele>364.96</ele>
        <time>2018-07-07T14:53:55.000Z</time>
      </trkpt>
      <trkpt lat="46.1786" lon="2.53676">
        <ele>365.13</ele>
        <time>2018-07-07T14:53:57.000Z</time>
      </trkpt>
      <trkpt lat="46.1787" lon="2.53657">
        <ele>365.08</ele>
        <time>2018-07-07T14:53:59.000Z</time>
      </trkpt>
      <trkpt lat="46.1788" lon="2.53639">
        <ele>365.03</ele>
        <time>2018-07-07T14:54:01.000Z</time>
      </trkpt>
      <trkpt lat="46.1789" lon="2.53619">
        <ele>365.1</ele>
        <time>2018-07-07T14:54:03.000Z</time>
      </trkpt>
      <trkpt lat="46.17895" lon="2.53608">
        <ele>365.25</ele>
        <time>2018-07-07T14:54:04.000Z</time>
      </trkpt>
      <trkpt lat="46.179" lon="2.53597">
        <ele>365.26</ele>
        <time>2018-07-07T14:54:05.000Z</time>
      </trkpt>
      <trkpt lat="46.17911" lon="2.53577">
        <ele>365.29</ele>
        <time>2018-07-07T14:54:07.000Z</time>
      </trkpt>
      <trkpt lat="46.17921" lon="2.53558">
        <ele>365.58</ele>
        <time>2018-07-07T14:54:09.000Z</time>
      </trkpt>
      <trkpt lat="46.17931" lon="2.53539">
        <ele>366</ele>
        <time>2018-07-07T14:54:11.000Z</time>
      </trkpt>
      <trkpt lat="46.17941" lon="2.5352">
        <ele>366.27</ele>
        <time>2018-07-07T14:54:13.000Z</time>
      </trkpt>
      <trkpt lat="46.17952" lon="2.53502">
        <ele>366.71</ele>
        <time>2018-07-07T14:54:15.000Z</time>
      </trkpt>
      <trkpt lat="46.17961" lon="2.53485">
        <ele>367.26</ele>
        <time>2018-07-07T14:54:17.000Z</time>
      </trkpt>
      <trkpt lat="46.1797" lon="2.53468">
        <ele>367.4</ele>
        <time>2018-07-07T14:54:19.000Z</time>
      </trkpt>
      <trkpt lat="46.17979" lon="2.5345">
        <ele>367.54</ele>
        <time>2018-07-07T14:54:21.000Z</time>
      </trkpt>
      <trkpt lat="46.17989" lon="2.53433">
        <ele>367.61</ele>
        <time>2018-07-07T14:54:23.000Z</time>
      </trkpt>
      <trkpt lat="46.17998" lon="2.53415">
        <ele>367.43</ele>
        <time>2018-07-07T14:54:25.000Z</time>
      </trkpt>
      <trkpt lat="46.18008" lon="2.53397">
        <ele>366.91</ele>
        <time>2018-07-07T14:54:27.000Z</time>
      </trkpt>
      <trkpt lat="46.18018" lon="2.5338">
        <ele>366.61</ele>
        <time>2018-07-07T14:54:29.000Z</time>
      </trkpt>
      <trkpt lat="46.18028" lon="2.53362">
        <ele>366.08</ele>
        <time>2018-07-07T14:54:31.000Z</time>
      </trkpt>
      <trkpt lat="46.18038" lon="2.53345">
        <ele>365.7</ele>
        <time>2018-07-07T14:54:33.000Z</time>
      </trkpt>
      <trkpt lat="46.18048" lon="2.53327">
        <ele>365.68</ele>
        <time>2018-07-07T14:54:35.000Z</time>
      </trkpt>
      <trkpt lat="46.18057" lon="2.5331">
        <ele>365.8</ele>
        <time>2018-07-07T14:54:37.000Z</time>
      </trkpt>
      <trkpt lat="46.18064" lon="2.53295">
        <ele>366.08</ele>
        <time>2018-07-07T14:54:39.000Z</time>
      </trkpt>
      <trkpt lat="46.18072" lon="2.5328">
        <ele>366.2</ele>
        <time>2018-07-07T14:54:41.000Z</time>
      </trkpt>
      <trkpt lat="46.18081" lon="2.53266">
        <ele>365.89</ele>
        <time>2018-07-07T14:54:43.000Z</time>
      </trkpt>
      <trkpt lat="46.1809" lon="2.53251">
        <ele>365.79</ele>
        <time>2018-07-07T14:54:45.000Z</time>
      </trkpt>
      <trkpt lat="46.181" lon="2.53236">
        <ele>365.59</ele>
        <time>2018-07-07T14:54:47.000Z</time>
      </trkpt>
      <trkpt lat="46.18109" lon="2.53222">
        <ele>365.48</ele>
        <time>2018-07-07T14:54:49.000Z</time>
      </trkpt>
      <trkpt lat="46.18119" lon="2.53208">
        <ele>365.55</ele>
        <time>2018-07-07T14:54:51.000Z</time>
      </trkpt>
      <trkpt lat="46.18129" lon="2.53194">
        <ele>365.36</ele>
        <time>2018-07-07T14:54:53.000Z</time>
      </trkpt>
      <trkpt lat="46.18139" lon="2.53179">
        <ele>365.28</ele>
        <time>2018-07-07T14:54:55.000Z</time>
      </trkpt>
      <trkpt lat="46.18148" lon="2.53165">
        <ele>365.23</ele>
        <time>2018-07-07T14:54:57.000Z</time>
      </trkpt>
      <trkpt lat="46.18158" lon="2.5315">
        <ele>365.25</ele>
        <time>2018-07-07T14:54:59.000Z</time>
      </trkpt>
      <trkpt lat="46.18168" lon="2.53135">
        <ele>365</ele>
        <time>2018-07-07T14:55:01.000Z</time>
      </trkpt>
      <trkpt lat="46.18178" lon="2.53121">
        <ele>364.88</ele>
        <time>2018-07-07T14:55:03.000Z</time>
      </trkpt>
      <trkpt lat="46.18187" lon="2.53108">
        <ele>364.76</ele>
        <time>2018-07-07T14:55:05.000Z</time>
      </trkpt>
      <trkpt lat="46.18196" lon="2.53095">
        <ele>364.7</ele>
        <time>2018-07-07T14:55:07.000Z</time>
      </trkpt>
      <trkpt lat="46.18205" lon="2.53081">
        <ele>364.47</ele>
        <time>2018-07-07T14:55:09.000Z</time>
      </trkpt>
      <trkpt lat="46.18213" lon="2.53066">
        <ele>364.33</ele>
        <time>2018-07-07T14:55:11.000Z</time>
      </trkpt>
      <trkpt lat="46.18222" lon="2.5305">
        <ele>363.71</ele>
        <time>2018-07-07T14:55:13.000Z</time>
      </trkpt>
      <trkpt lat="46.18229" lon="2.53032">
        <ele>362.76</ele>
        <time>2018-07-07T14:55:15.000Z</time>
      </trkpt>
      <trkpt lat="46.18237" lon="2.53013">
        <ele>362.28</ele>
        <time>2018-07-07T14:55:17.000Z</time>
      </trkpt>
      <trkpt lat="46.18243" lon="2.52994">
        <ele>362.23</ele>
        <time>2018-07-07T14:55:19.000Z</time>
      </trkpt>
      <trkpt lat="46.1825" lon="2.52975">
        <ele>362.22</ele>
        <time>2018-07-07T14:55:21.000Z</time>
      </trkpt>
      <trkpt lat="46.18256" lon="2.52955">
        <ele>362.29</ele>
        <time>2018-07-07T14:55:23.000Z</time>
      </trkpt>
      <trkpt lat="46.18263" lon="2.52935">
        <ele>362.72</ele>
        <time>2018-07-07T14:55:25.000Z</time>
      </trkpt>
      <trkpt lat="46.18271" lon="2.52916">
        <ele>363.04</ele>
        <time>2018-07-07T14:55:27.000Z</time>
      </trkpt>
      <trkpt lat="46.1828" lon="2.52899">
        <ele>363.06</ele>
        <time>2018-07-07T14:55:29.000Z</time>
      </trkpt>
      <trkpt lat="46.18292" lon="2.52886">
        <ele>363.16</ele>
        <time>2018-07-07T14:55:31.000Z</time>
      </trkpt>
      <trkpt lat="46.18304" lon="2.52874">
        <ele>362.58</ele>
        <time>2018-07-07T14:55:33.000Z</time>
      </trkpt>
      <trkpt lat="46.18317" lon="2.52864">
        <ele>362.52</ele>
        <time>2018-07-07T14:55:35.000Z</time>
      </trkpt>
      <trkpt lat="46.1833" lon="2.52855">
        <ele>362.74</ele>
        <time>2018-07-07T14:55:37.000Z</time>
      </trkpt>
      <trkpt lat="46.18341" lon="2.52845">
        <ele>363.08</ele>
        <time>2018-07-07T14:55:39.000Z</time>
      </trkpt>
      <trkpt lat="46.18352" lon="2.52833">
        <ele>363.62</ele>
        <time>2018-07-07T14:55:41.000Z</time>
      </trkpt>
      <trkpt lat="46.1836" lon="2.52818">
        <ele>364.06</ele>
        <time>2018-07-07T14:55:43.000Z</time>
      </trkpt>
      <trkpt lat="46.18366" lon="2.52801">
        <ele>364.59</ele>
        <time>2018-07-07T14:55:45.000Z</time>
      </trkpt>
      <trkpt lat="46.18371" lon="2.52782">
        <ele>365.03</ele>
        <time>2018-07-07T14:55:47.000Z</time>
      </trkpt>
      <trkpt lat="46.18374" lon="2.52764">
        <ele>365.59</ele>
        <time>2018-07-07T14:55:49.000Z</time>
      </trkpt>
      <trkpt lat="46.18376" lon="2.52746">
        <ele>366.37</ele>
        <time>2018-07-07T14:55:51.000Z</time>
      </trkpt>
      <trkpt lat="46.18377" lon="2.52729">
        <ele>366.87</ele>
        <time>2018-07-07T14:55:53.000Z</time>
      </trkpt>
      <trkpt lat="46.18377" lon="2.52712">
        <ele>367.16</ele>
        <time>2018-07-07T14:55:55.000Z</time>
      </trkpt>
      <trkpt lat="46.18375" lon="2.52694">
        <ele>367.62</ele>
        <time>2018-07-07T14:55:57.000Z</time>
      </trkpt>
      <trkpt lat="46.18373" lon="2.52677">
        <ele>368.08</ele>
        <time>2018-07-07T14:55:59.000Z</time>
      </trkpt>
      <trkpt lat="46.18371" lon="2.5266">
        <ele>368.41</ele>
        <time>2018-07-07T14:56:01.000Z</time>
      </trkpt>
      <trkpt lat="46.18369" lon="2.52643">
        <ele>368.63</ele>
        <time>2018-07-07T14:56:03.000Z</time>
      </trkpt>
      <trkpt lat="46.18365" lon="2.52626">
        <ele>368.7</ele>
        <time>2018-07-07T14:56:05.000Z</time>
      </trkpt>
      <trkpt lat="46.1836" lon="2.52609">
        <ele>369</ele>
        <time>2018-07-07T14:56:07.000Z</time>
      </trkpt>
      <trkpt lat="46.18355" lon="2.52594">
        <ele>369.49</ele>
        <time>2018-07-07T14:56:09.000Z</time>
      </trkpt>
      <trkpt lat="46.18349" lon="2.52577">
        <ele>369.92</ele>
        <time>2018-07-07T14:56:11.000Z</time>
      </trkpt>
      <trkpt lat="46.18344" lon="2.52562">
        <ele>370.56</ele>
        <time>2018-07-07T14:56:13.000Z</time>
      </trkpt>
      <trkpt lat="46.18341" lon="2.52547">
        <ele>371.34</ele>
        <time>2018-07-07T14:56:15.000Z</time>
      </trkpt>
      <trkpt lat="46.18338" lon="2.52532">
        <ele>372.03</ele>
        <time>2018-07-07T14:56:17.000Z</time>
      </trkpt>
      <trkpt lat="46.18334" lon="2.52516">
        <ele>372.37</ele>
        <time>2018-07-07T14:56:19.000Z</time>
      </trkpt>
      <trkpt lat="46.18331" lon="2.52501">
        <ele>372.88</ele>
        <time>2018-07-07T14:56:21.000Z</time>
      </trkpt>
      <trkpt lat="46.18329" lon="2.52486">
        <ele>373.29</ele>
        <time>2018-07-07T14:56:23.000Z</time>
      </trkpt>
      <trkpt lat="46.18328" lon="2.5247">
        <ele>373.68</ele>
        <time>2018-07-07T14:56:25.000Z</time>
      </trkpt>
      <trkpt lat="46.18325" lon="2.52455">
        <ele>374.3</ele>
        <time>2018-07-07T14:56:27.000Z</time>
      </trkpt>
      <trkpt lat="46.18322" lon="2.5244">
        <ele>374.89</ele>
        <time>2018-07-07T14:56:29.000Z</time>
      </trkpt>
      <trkpt lat="46.1832" lon="2.52424">
        <ele>375.06</ele>
        <time>2018-07-07T14:56:31.000Z</time>
      </trkpt>
      <trkpt lat="46.18317" lon="2.52408">
        <ele>375.01</ele>
        <time>2018-07-07T14:56:33.000Z</time>
      </trkpt>
      <trkpt lat="46.18314" lon="2.52392">
        <ele>374.55</ele>
        <time>2018-07-07T14:56:35.000Z</time>
      </trkpt>
      <trkpt lat="46.18311" lon="2.52375">
        <ele>374.32</ele>
        <time>2018-07-07T14:56:37.000Z</time>
      </trkpt>
      <trkpt lat="46.1831" lon="2.52359">
        <ele>374.66</ele>
        <time>2018-07-07T14:56:39.000Z</time>
      </trkpt>
      <trkpt lat="46.18309" lon="2.52343">
        <ele>375.26</ele>
        <time>2018-07-07T14:56:41.000Z</time>
      </trkpt>
      <trkpt lat="46.18309" lon="2.52327">
        <ele>376.21</ele>
        <time>2018-07-07T14:56:43.000Z</time>
      </trkpt>
      <trkpt lat="46.18309" lon="2.52312">
        <ele>377.17</ele>
        <time>2018-07-07T14:56:45.000Z</time>
      </trkpt>
      <trkpt lat="46.18308" lon="2.52296">
        <ele>377.5</ele>
        <time>2018-07-07T14:56:47.000Z</time>
      </trkpt>
      <trkpt lat="46.18306" lon="2.5228">
        <ele>377.93</ele>
        <time>2018-07-07T14:56:49.000Z</time>
      </trkpt>
      <trkpt lat="46.18306" lon="2.52264">
        <ele>378.65</ele>
        <time>2018-07-07T14:56:51.000Z</time>
      </trkpt>
      <trkpt lat="46.18304" lon="2.52247">
        <ele>378.84</ele>
        <time>2018-07-07T14:56:53.000Z</time>
      </trkpt>
      <trkpt lat="46.183" lon="2.52231">
        <ele>378.44</ele>
        <time>2018-07-07T14:56:55.000Z</time>
      </trkpt>
      <trkpt lat="46.18295" lon="2.52217">
        <ele>378.24</ele>
        <time>2018-07-07T14:56:57.000Z</time>
      </trkpt>
      <trkpt lat="46.18289" lon="2.52206">
        <ele>378.78</ele>
        <time>2018-07-07T14:56:59.000Z</time>
      </trkpt>
      <trkpt lat="46.18283" lon="2.52194">
        <ele>379.25</ele>
        <time>2018-07-07T14:57:01.000Z</time>
      </trkpt>
      <trkpt lat="46.18276" lon="2.52184">
        <ele>379.77</ele>
        <time>2018-07-07T14:57:03.000Z</time>
      </trkpt>
      <trkpt lat="46.18268" lon="2.52175">
        <ele>380.44</ele>
        <time>2018-07-07T14:57:05.000Z</time>
      </trkpt>
      <trkpt lat="46.18262" lon="2.52164">
        <ele>381.1</ele>
        <time>2018-07-07T14:57:07.000Z</time>
      </trkpt>
      <trkpt lat="46.18257" lon="2.52152">
        <ele>381.64</ele>
        <time>2018-07-07T14:57:09.000Z</time>
      </trkpt>
      <trkpt lat="46.18253" lon="2.52139">
        <ele>382.04</ele>
        <time>2018-07-07T14:57:11.000Z</time>
      </trkpt>
      <trkpt lat="46.1825" lon="2.52125">
        <ele>382.59</ele>
        <time>2018-07-07T14:57:13.000Z</time>
      </trkpt>
      <trkpt lat="46.18247" lon="2.52109">
        <ele>383</ele>
        <time>2018-07-07T14:57:15.000Z</time>
      </trkpt>
      <trkpt lat="46.18244" lon="2.52094">
        <ele>383.58</ele>
        <time>2018-07-07T14:57:17.000Z</time>
      </trkpt>
      <trkpt lat="46.18241" lon="2.52081">
        <ele>383.93</ele>
        <time>2018-07-07T14:57:19.000Z</time>
      </trkpt>
      <trkpt lat="46.18235" lon="2.52068">
        <ele>384.04</ele>
        <time>2018-07-07T14:57:21.000Z</time>
      </trkpt>
      <trkpt lat="46.18229" lon="2.52055">
        <ele>384.37</ele>
        <time>2018-07-07T14:57:23.000Z</time>
      </trkpt>
      <trkpt lat="46.18222" lon="2.52042">
        <ele>384.55</ele>
        <time>2018-07-07T14:57:25.000Z</time>
      </trkpt>
      <trkpt lat="46.18213" lon="2.52031">
        <ele>384.82</ele>
        <time>2018-07-07T14:57:27.000Z</time>
      </trkpt>
      <trkpt lat="46.18206" lon="2.52016">
        <ele>384.78</ele>
        <time>2018-07-07T14:57:29.000Z</time>
      </trkpt>
      <trkpt lat="46.18201" lon="2.52002">
        <ele>384.95</ele>
        <time>2018-07-07T14:57:31.000Z</time>
      </trkpt>
      <trkpt lat="46.18198" lon="2.51986">
        <ele>385.46</ele>
        <time>2018-07-07T14:57:34.000Z</time>
      </trkpt>
      <trkpt lat="46.18202" lon="2.51968">
        <ele>386.47</ele>
        <time>2018-07-07T14:57:36.000Z</time>
      </trkpt>
      <trkpt lat="46.18204" lon="2.51949">
        <ele>387.47</ele>
        <time>2018-07-07T14:57:38.000Z</time>
      </trkpt>
      <trkpt lat="46.18203" lon="2.51933">
        <ele>388.29</ele>
        <time>2018-07-07T14:57:40.000Z</time>
      </trkpt>
      <trkpt lat="46.18203" lon="2.51918">
        <ele>389.09</ele>
        <time>2018-07-07T14:57:42.000Z</time>
      </trkpt>
      <trkpt lat="46.182" lon="2.51905">
        <ele>389.72</ele>
        <time>2018-07-07T14:57:44.000Z</time>
      </trkpt>
      <trkpt lat="46.18192" lon="2.51894">
        <ele>390.34</ele>
        <time>2018-07-07T14:57:46.000Z</time>
      </trkpt>
      <trkpt lat="46.18181" lon="2.51885">
        <ele>390.23</ele>
        <time>2018-07-07T14:57:48.000Z</time>
      </trkpt>
      <trkpt lat="46.18171" lon="2.51877">
        <ele>389.65</ele>
        <time>2018-07-07T14:57:50.000Z</time>
      </trkpt>
      <trkpt lat="46.18165" lon="2.51867">
        <ele>389.8</ele>
        <time>2018-07-07T14:57:52.000Z</time>
      </trkpt>
      <trkpt lat="46.18157" lon="2.51858">
        <ele>389.68</ele>
        <time>2018-07-07T14:57:54.000Z</time>
      </trkpt>
      <trkpt lat="46.18152" lon="2.51846">
        <ele>389.39</ele>
        <time>2018-07-07T14:57:56.000Z</time>
      </trkpt>
      <trkpt lat="46.18146" lon="2.51834">
        <ele>389.28</ele>
        <time>2018-07-07T14:57:58.000Z</time>
      </trkpt>
      <trkpt lat="46.1814" lon="2.51822">
        <ele>389.29</ele>
        <time>2018-07-07T14:58:00.000Z</time>
      </trkpt>
      <trkpt lat="46.18134" lon="2.51808">
        <ele>389.19</ele>
        <time>2018-07-07T14:58:02.000Z</time>
      </trkpt>
      <trkpt lat="46.18126" lon="2.51796">
        <ele>389.26</ele>
        <time>2018-07-07T14:58:04.000Z</time>
      </trkpt>
      <trkpt lat="46.18115" lon="2.51785">
        <ele>389.22</ele>
        <time>2018-07-07T14:58:06.000Z</time>
      </trkpt>
      <trkpt lat="46.18109" lon="2.51773">
        <ele>389.26</ele>
        <time>2018-07-07T14:58:09.000Z</time>
      </trkpt>
      <trkpt lat="46.18114" lon="2.51761">
        <ele>390.35</ele>
        <time>2018-07-07T14:58:12.000Z</time>
      </trkpt>
      <trkpt lat="46.18126" lon="2.51752">
        <ele>391.75</ele>
        <time>2018-07-07T14:58:14.000Z</time>
      </trkpt>
      <trkpt lat="46.18137" lon="2.51745">
        <ele>392.58</ele>
        <time>2018-07-07T14:58:16.000Z</time>
      </trkpt>
      <trkpt lat="46.18148" lon="2.51747">
        <ele>392.67</ele>
        <time>2018-07-07T14:58:18.000Z</time>
      </trkpt>
      <trkpt lat="46.18154" lon="2.51758">
        <ele>392.79</ele>
        <time>2018-07-07T14:58:21.000Z</time>
      </trkpt>
      <trkpt lat="46.18164" lon="2.51769">
        <ele>393.36</ele>
        <time>2018-07-07T14:58:23.000Z</time>
      </trkpt>
      <trkpt lat="46.18174" lon="2.51776">
        <ele>393.85</ele>
        <time>2018-07-07T14:58:24.000Z</time>
      </trkpt>
      <trkpt lat="46.18182" lon="2.51783">
        <ele>394.47</ele>
        <time>2018-07-07T14:58:25.000Z</time>
      </trkpt>
      <trkpt lat="46.18191" lon="2.51789">
        <ele>394.97</ele>
        <time>2018-07-07T14:58:26.000Z</time>
      </trkpt>
      <trkpt lat="46.18204" lon="2.51796">
        <ele>395.66</ele>
        <time>2018-07-07T14:58:28.000Z</time>
      </trkpt>
      <trkpt lat="46.18216" lon="2.51801">
        <ele>396.06</ele>
        <time>2018-07-07T14:58:30.000Z</time>
      </trkpt>
      <trkpt lat="46.18224" lon="2.51811">
        <ele>396.83</ele>
        <time>2018-07-07T14:58:34.000Z</time>
      </trkpt>
      <trkpt lat="46.18236" lon="2.5182">
        <ele>397.39</ele>
        <time>2018-07-07T14:58:38.000Z</time>
      </trkpt>
      <trkpt lat="46.18248" lon="2.51821">
        <ele>397.66</ele>
        <time>2018-07-07T14:58:40.000Z</time>
      </trkpt>
      <trkpt lat="46.18259" lon="2.5182">
        <ele>398.07</ele>
        <time>2018-07-07T14:58:42.000Z</time>
      </trkpt>
      <trkpt lat="46.18271" lon="2.51816">
        <ele>399.2</ele>
        <time>2018-07-07T14:58:44.000Z</time>
      </trkpt>
      <trkpt lat="46.18281" lon="2.51804">
        <ele>400.04</ele>
        <time>2018-07-07T14:58:46.000Z</time>
      </trkpt>
      <trkpt lat="46.1829" lon="2.51791">
        <ele>400.42</ele>
        <time>2018-07-07T14:58:48.000Z</time>
      </trkpt>
      <trkpt lat="46.183" lon="2.51782">
        <ele>399.82</ele>
        <time>2018-07-07T14:58:50.000Z</time>
      </trkpt>
      <trkpt lat="46.18308" lon="2.5177">
        <ele>400.08</ele>
        <time>2018-07-07T14:58:53.000Z</time>
      </trkpt>
      <trkpt lat="46.1831" lon="2.51753">
        <ele>401.61</ele>
        <time>2018-07-07T14:58:57.000Z</time>
      </trkpt>
      <trkpt lat="46.1831" lon="2.51734">
        <ele>404.07</ele>
        <time>2018-07-07T14:59:00.000Z</time>
      </trkpt>
      <trkpt lat="46.18312" lon="2.51716">
        <ele>405.25</ele>
        <time>2018-07-07T14:59:02.000Z</time>
      </trkpt>
      <trkpt lat="46.18312" lon="2.51693">
        <ele>406.39</ele>
        <time>2018-07-07T14:59:04.000Z</time>
      </trkpt>
      <trkpt lat="46.18315" lon="2.51675">
        <ele>407.01</ele>
        <time>2018-07-07T14:59:06.000Z</time>
      </trkpt>
      <trkpt lat="46.18312" lon="2.51658">
        <ele>407.35</ele>
        <time>2018-07-07T14:59:08.000Z</time>
      </trkpt>
      <trkpt lat="46.18314" lon="2.51639">
        <ele>408.27</ele>
        <time>2018-07-07T14:59:10.000Z</time>
      </trkpt>
      <trkpt lat="46.18321" lon="2.51623">
        <ele>409.48</ele>
        <time>2018-07-07T14:59:12.000Z</time>
      </trkpt>
      <trkpt lat="46.18326" lon="2.51609">
        <ele>409.91</ele>
        <time>2018-07-07T14:59:14.000Z</time>
      </trkpt>
      <trkpt lat="46.18331" lon="2.51594">
        <ele>410.38</ele>
        <time>2018-07-07T14:59:16.000Z</time>
      </trkpt>
      <trkpt lat="46.18334" lon="2.51577">
        <ele>411.37</ele>
        <time>2018-07-07T14:59:18.000Z</time>
      </trkpt>
      <trkpt lat="46.1834" lon="2.5156">
        <ele>412.35</ele>
        <time>2018-07-07T14:59:20.000Z</time>
      </trkpt>
      <trkpt lat="46.18342" lon="2.51545">
        <ele>413.39</ele>
        <time>2018-07-07T14:59:22.000Z</time>
      </trkpt>
      <trkpt lat="46.18347" lon="2.51532">
        <ele>414.11</ele>
        <time>2018-07-07T14:59:24.000Z</time>
      </trkpt>
      <trkpt lat="46.18353" lon="2.51521">
        <ele>416.21</ele>
        <time>2018-07-07T14:59:27.000Z</time>
      </trkpt>
      <trkpt lat="46.18359" lon="2.51508">
        <ele>417.04</ele>
        <time>2018-07-07T14:59:30.000Z</time>
      </trkpt>
      <trkpt lat="46.18364" lon="2.51497">
        <ele>418.12</ele>
        <time>2018-07-07T14:59:32.000Z</time>
      </trkpt>
      <trkpt lat="46.1837" lon="2.51479">
        <ele>418.75</ele>
        <time>2018-07-07T14:59:35.000Z</time>
      </trkpt>
      <trkpt lat="46.18375" lon="2.51463">
        <ele>420.32</ele>
        <time>2018-07-07T14:59:38.000Z</time>
      </trkpt>
      <trkpt lat="46.18373" lon="2.51446">
        <ele>421.1</ele>
        <time>2018-07-07T14:59:40.000Z</time>
      </trkpt>
      <trkpt lat="46.18375" lon="2.51427">
        <ele>422.71</ele>
        <time>2018-07-07T14:59:43.000Z</time>
      </trkpt>
      <trkpt lat="46.18378" lon="2.51414">
        <ele>423.13</ele>
        <time>2018-07-07T14:59:45.000Z</time>
      </trkpt>
      <trkpt lat="46.18385" lon="2.51397">
        <ele>424.29</ele>
        <time>2018-07-07T14:59:48.000Z</time>
      </trkpt>
      <trkpt lat="46.18391" lon="2.5138">
        <ele>425.58</ele>
        <time>2018-07-07T14:59:50.000Z</time>
      </trkpt>
      <trkpt lat="46.18391" lon="2.51365">
        <ele>426.85</ele>
        <time>2018-07-07T14:59:52.000Z</time>
      </trkpt>
      <trkpt lat="46.18388" lon="2.51346">
        <ele>428.18</ele>
        <time>2018-07-07T14:59:54.000Z</time>
      </trkpt>
      <trkpt lat="46.18385" lon="2.5133">
        <ele>429.04</ele>
        <time>2018-07-07T14:59:56.000Z</time>
      </trkpt>
      <trkpt lat="46.18382" lon="2.51316">
        <ele>429.8</ele>
        <time>2018-07-07T14:59:58.000Z</time>
      </trkpt>
      <trkpt lat="46.18378" lon="2.51301">
        <ele>430.69</ele>
        <time>2018-07-07T15:00:01.000Z</time>
      </trkpt>
      <trkpt lat="46.18381" lon="2.51285">
        <ele>431.64</ele>
        <time>2018-07-07T15:00:04.000Z</time>
      </trkpt>
      <trkpt lat="46.18386" lon="2.51272">
        <ele>432.52</ele>
        <time>2018-07-07T15:00:06.000Z</time>
      </trkpt>
      <trkpt lat="46.18389" lon="2.51259">
        <ele>433.43</ele>
        <time>2018-07-07T15:00:08.000Z</time>
      </trkpt>
      <trkpt lat="46.18388" lon="2.51246">
        <ele>433.54</ele>
        <time>2018-07-07T15:00:10.000Z</time>
      </trkpt>
      <trkpt lat="46.18388" lon="2.51227">
        <ele>434.21</ele>
        <time>2018-07-07T15:00:14.000Z</time>
      </trkpt>
      <trkpt lat="46.18387" lon="2.5121">
        <ele>433.92</ele>
        <time>2018-07-07T15:00:16.000Z</time>
      </trkpt>
      <trkpt lat="46.18387" lon="2.5119">
        <ele>432.72</ele>
        <time>2018-07-07T15:00:18.000Z</time>
      </trkpt>
      <trkpt lat="46.18382" lon="2.51176">
        <ele>432.62</ele>
        <time>2018-07-07T15:00:20.000Z</time>
      </trkpt>
      <trkpt lat="46.18377" lon="2.51162">
        <ele>432.82</ele>
        <time>2018-07-07T15:00:22.000Z</time>
      </trkpt>
      <trkpt lat="46.18372" lon="2.51151">
        <ele>433.4</ele>
        <time>2018-07-07T15:00:24.000Z</time>
      </trkpt>
      <trkpt lat="46.18365" lon="2.51137">
        <ele>433.29</ele>
        <time>2018-07-07T15:00:26.000Z</time>
      </trkpt>
      <trkpt lat="46.18359" lon="2.51127">
        <ele>433.11</ele>
        <time>2018-07-07T15:00:28.000Z</time>
      </trkpt>
      <trkpt lat="46.18351" lon="2.51112">
        <ele>433.44</ele>
        <time>2018-07-07T15:00:31.000Z</time>
      </trkpt>
      <trkpt lat="46.18345" lon="2.51098">
        <ele>425.33</ele>
        <time>2018-07-07T15:00:34.000Z</time>
      </trkpt>
      <trkpt lat="46.18347" lon="2.51079">
        <ele>423.3</ele>
        <time>2018-07-07T15:00:37.000Z</time>
      </trkpt>
      <trkpt lat="46.1835" lon="2.51065">
        <ele>423.71</ele>
        <time>2018-07-07T15:00:40.000Z</time>
      </trkpt>
      <trkpt lat="46.18361" lon="2.51054">
        <ele>427.24</ele>
        <time>2018-07-07T15:00:44.999Z</time>
      </trkpt>
      <trkpt lat="46.18373" lon="2.5106">
        <ele>430.17</ele>
        <time>2018-07-07T15:00:48.000Z</time>
      </trkpt>
      <trkpt lat="46.18382" lon="2.51065">
        <ele>430.44</ele>
        <time>2018-07-07T15:00:50.000Z</time>
      </trkpt>
      <trkpt lat="46.18392" lon="2.51076">
        <ele>431.49</ele>
        <time>2018-07-07T15:00:52.000Z</time>
      </trkpt>
      <trkpt lat="46.18396" lon="2.51096">
        <ele>432.92</ele>
        <time>2018-07-07T15:00:54.000Z</time>
      </trkpt>
      <trkpt lat="46.18402" lon="2.51116">
        <ele>434.39</ele>
        <time>2018-07-07T15:00:56.000Z</time>
      </trkpt>
      <trkpt lat="46.18407" lon="2.51132">
        <ele>434.54</ele>
        <time>2018-07-07T15:00:58.000Z</time>
      </trkpt>
      <trkpt lat="46.18416" lon="2.51145">
        <ele>435.44</ele>
        <time>2018-07-07T15:01:01.000Z</time>
      </trkpt>
      <trkpt lat="46.18426" lon="2.51156">
        <ele>436.07</ele>
        <time>2018-07-07T15:01:04.000Z</time>
      </trkpt>
      <trkpt lat="46.18433" lon="2.51167">
        <ele>436.13</ele>
        <time>2018-07-07T15:01:07.000Z</time>
      </trkpt>
      <trkpt lat="46.18443" lon="2.51179">
        <ele>437.58</ele>
        <time>2018-07-07T15:01:10.000Z</time>
      </trkpt>
      <trkpt lat="46.18454" lon="2.51186">
        <ele>439.06</ele>
        <time>2018-07-07T15:01:12.000Z</time>
      </trkpt>
      <trkpt lat="46.18465" lon="2.51188">
        <ele>440.39</ele>
        <time>2018-07-07T15:01:14.000Z</time>
      </trkpt>
      <trkpt lat="46.18476" lon="2.51188">
        <ele>441.22</ele>
        <time>2018-07-07T15:01:16.000Z</time>
      </trkpt>
      <trkpt lat="46.18487" lon="2.51186">
        <ele>441.03</ele>
        <time>2018-07-07T15:01:18.000Z</time>
      </trkpt>
      <trkpt lat="46.18499" lon="2.51182">
        <ele>440.66</ele>
        <time>2018-07-07T15:01:20.000Z</time>
      </trkpt>
      <trkpt lat="46.18508" lon="2.51175">
        <ele>441.64</ele>
        <time>2018-07-07T15:01:22.000Z</time>
      </trkpt>
      <trkpt lat="46.18518" lon="2.51165">
        <ele>442.06</ele>
        <time>2018-07-07T15:01:25.000Z</time>
      </trkpt>
      <trkpt lat="46.18527" lon="2.51157">
        <ele>442.7</ele>
        <time>2018-07-07T15:01:27.000Z</time>
      </trkpt>
      <trkpt lat="46.18536" lon="2.51146">
        <ele>443.68</ele>
        <time>2018-07-07T15:01:29.000Z</time>
      </trkpt>
      <trkpt lat="46.18544" lon="2.51135">
        <ele>444.22</ele>
        <time>2018-07-07T15:01:31.000Z</time>
      </trkpt>
      <trkpt lat="46.18554" lon="2.5112">
        <ele>444.2</ele>
        <time>2018-07-07T15:01:33.000Z</time>
      </trkpt>
      <trkpt lat="46.18564" lon="2.51106">
        <ele>443.85</ele>
        <time>2018-07-07T15:01:35.000Z</time>
      </trkpt>
      <trkpt lat="46.18566" lon="2.51091">
        <ele>445.14</ele>
        <time>2018-07-07T15:01:37.000Z</time>
      </trkpt>
      <trkpt lat="46.18559" lon="2.5108">
        <ele>447.87</ele>
        <time>2018-07-07T15:01:40.000Z</time>
      </trkpt>
      <trkpt lat="46.18548" lon="2.51084">
        <ele>449.09</ele>
        <time>2018-07-07T15:01:43.000Z</time>
      </trkpt>
      <trkpt lat="46.18538" lon="2.51084">
        <ele>450.62</ele>
        <time>2018-07-07T15:01:46.000Z</time>
      </trkpt>
      <trkpt lat="46.18527" lon="2.5108">
        <ele>451.58</ele>
        <time>2018-07-07T15:01:49.000Z</time>
      </trkpt>
      <trkpt lat="46.18518" lon="2.51079">
        <ele>453.16</ele>
        <time>2018-07-07T15:01:53.000Z</time>
      </trkpt>
      <trkpt lat="46.1851" lon="2.51086">
        <ele>455</ele>
        <time>2018-07-07T15:01:56.000Z</time>
      </trkpt>
      <trkpt lat="46.18499" lon="2.51092">
        <ele>455.98</ele>
        <time>2018-07-07T15:01:58.000Z</time>
      </trkpt>
      <trkpt lat="46.18486" lon="2.51099">
        <ele>457.3</ele>
        <time>2018-07-07T15:02:00.000Z</time>
      </trkpt>
      <trkpt lat="46.18477" lon="2.51103">
        <ele>458.6</ele>
        <time>2018-07-07T15:02:02.000Z</time>
      </trkpt>
      <trkpt lat="46.18465" lon="2.51105">
        <ele>459.81</ele>
        <time>2018-07-07T15:02:04.000Z</time>
      </trkpt>
      <trkpt lat="46.18449" lon="2.51107">
        <ele>461.19</ele>
        <time>2018-07-07T15:02:06.000Z</time>
      </trkpt>
      <trkpt lat="46.18439" lon="2.51104">
        <ele>460.64</ele>
        <time>2018-07-07T15:02:08.000Z</time>
      </trkpt>
      <trkpt lat="46.1843" lon="2.51092">
        <ele>461.13</ele>
        <time>2018-07-07T15:02:11.000Z</time>
      </trkpt>
      <trkpt lat="46.18431" lon="2.51075">
        <ele>460.76</ele>
        <time>2018-07-07T15:02:14.000Z</time>
      </trkpt>
      <trkpt lat="46.18427" lon="2.51063">
        <ele>449.9</ele>
        <time>2018-07-07T15:02:17.000Z</time>
      </trkpt>
      <trkpt lat="46.18429" lon="2.51045">
        <ele>448.46</ele>
        <time>2018-07-07T15:02:20.000Z</time>
      </trkpt>
      <trkpt lat="46.18431" lon="2.51028">
        <ele>446.24</ele>
        <time>2018-07-07T15:02:23.000Z</time>
      </trkpt>
      <trkpt lat="46.18435" lon="2.51012">
        <ele>445.52</ele>
        <time>2018-07-07T15:02:26.000Z</time>
      </trkpt>
      <trkpt lat="46.18438" lon="2.50997">
        <ele>445.08</ele>
        <time>2018-07-07T15:02:29.000Z</time>
      </trkpt>
      <trkpt lat="46.18441" lon="2.50984">
        <ele>444.5</ele>
        <time>2018-07-07T15:02:32.000Z</time>
      </trkpt>
      <trkpt lat="46.18447" lon="2.50969">
        <ele>444.55</ele>
        <time>2018-07-07T15:02:35.000Z</time>
      </trkpt>
      <trkpt lat="46.18448" lon="2.50951">
        <ele>446.09</ele>
        <time>2018-07-07T15:02:38.000Z</time>
      </trkpt>
      <trkpt lat="46.18451" lon="2.50935">
        <ele>447.77</ele>
        <time>2018-07-07T15:02:40.000Z</time>
      </trkpt>
      <trkpt lat="46.18455" lon="2.50921">
        <ele>449.14</ele>
        <time>2018-07-07T15:02:42.000Z</time>
      </trkpt>
      <trkpt lat="46.18457" lon="2.50907">
        <ele>449.8</ele>
        <time>2018-07-07T15:02:44.000Z</time>
      </trkpt>
      <trkpt lat="46.1846" lon="2.50889">
        <ele>450.36</ele>
        <time>2018-07-07T15:02:47.000Z</time>
      </trkpt>
      <trkpt lat="46.18456" lon="2.50878">
        <ele>450.55</ele>
        <time>2018-07-07T15:02:49.000Z</time>
      </trkpt>
      <trkpt lat="46.18445" lon="2.50866">
        <ele>452.07</ele>
        <time>2018-07-07T15:02:51.000Z</time>
      </trkpt>
      <trkpt lat="46.18435" lon="2.50857">
        <ele>453.5</ele>
        <time>2018-07-07T15:02:53.000Z</time>
      </trkpt>
      <trkpt lat="46.18426" lon="2.50852">
        <ele>454.21</ele>
        <time>2018-07-07T15:02:55.000Z</time>
      </trkpt>
      <trkpt lat="46.18414" lon="2.50847">
        <ele>455.23</ele>
        <time>2018-07-07T15:02:58.000Z</time>
      </trkpt>
      <trkpt lat="46.18404" lon="2.50854">
        <ele>456.8</ele>
        <time>2018-07-07T15:03:01.000Z</time>
      </trkpt>
      <trkpt lat="46.18397" lon="2.50864">
        <ele>457.85</ele>
        <time>2018-07-07T15:03:04.000Z</time>
      </trkpt>
      <trkpt lat="46.18388" lon="2.50878">
        <ele>460.29</ele>
        <time>2018-07-07T15:03:07.000Z</time>
      </trkpt>
      <trkpt lat="46.18381" lon="2.50891">
        <ele>462.27</ele>
        <time>2018-07-07T15:03:09.000Z</time>
      </trkpt>
      <trkpt lat="46.18371" lon="2.50901">
        <ele>463.36</ele>
        <time>2018-07-07T15:03:11.000Z</time>
      </trkpt>
      <trkpt lat="46.18363" lon="2.50911">
        <ele>464.68</ele>
        <time>2018-07-07T15:03:13.000Z</time>
      </trkpt>
      <trkpt lat="46.18351" lon="2.50915">
        <ele>467.29</ele>
        <time>2018-07-07T15:03:17.000Z</time>
      </trkpt>
      <trkpt lat="46.18338" lon="2.50915">
        <ele>468.15</ele>
        <time>2018-07-07T15:03:20.000Z</time>
      </trkpt>
      <trkpt lat="46.18327" lon="2.50915">
        <ele>468.6</ele>
        <time>2018-07-07T15:03:22.000Z</time>
      </trkpt>
      <trkpt lat="46.18317" lon="2.50908">
        <ele>469.36</ele>
        <time>2018-07-07T15:03:25.000Z</time>
      </trkpt>
      <trkpt lat="46.18311" lon="2.50896">
        <ele>470.58</ele>
        <time>2018-07-07T15:03:28.000Z</time>
      </trkpt>
      <trkpt lat="46.18306" lon="2.50881">
        <ele>471.61</ele>
        <time>2018-07-07T15:03:32.000Z</time>
      </trkpt>
      <trkpt lat="46.18298" lon="2.50869">
        <ele>472.21</ele>
        <time>2018-07-07T15:03:36.000Z</time>
      </trkpt>
      <trkpt lat="46.1829" lon="2.50858">
        <ele>471.86</ele>
        <time>2018-07-07T15:03:39.000Z</time>
      </trkpt>
      <trkpt lat="46.1828" lon="2.50846">
        <ele>468.42</ele>
        <time>2018-07-07T15:03:42.000Z</time>
      </trkpt>
      <trkpt lat="46.18276" lon="2.50833">
        <ele>465.62</ele>
        <time>2018-07-07T15:03:45.000Z</time>
      </trkpt>
      <trkpt lat="46.18273" lon="2.50818">
        <ele>464.78</ele>
        <time>2018-07-07T15:03:48.000Z</time>
      </trkpt>
      <trkpt lat="46.18271" lon="2.50798">
        <ele>463.95</ele>
        <time>2018-07-07T15:03:51.000Z</time>
      </trkpt>
      <trkpt lat="46.18266" lon="2.50785">
        <ele>462.99</ele>
        <time>2018-07-07T15:03:53.000Z</time>
      </trkpt>
      <trkpt lat="46.1826" lon="2.50773">
        <ele>463</ele>
        <time>2018-07-07T15:03:55.000Z</time>
      </trkpt>
      <trkpt lat="46.18254" lon="2.50763">
        <ele>462.25</ele>
        <time>2018-07-07T15:03:57.000Z</time>
      </trkpt>
      <trkpt lat="46.18243" lon="2.50762">
        <ele>461.72</ele>
        <time>2018-07-07T15:04:01.000Z</time>
      </trkpt>
      <trkpt lat="46.18232" lon="2.50765">
        <ele>462.52</ele>
        <time>2018-07-07T15:04:05.000Z</time>
      </trkpt>
      <trkpt lat="46.18221" lon="2.50762">
        <ele>462.64</ele>
        <time>2018-07-07T15:04:08.000Z</time>
      </trkpt>
      <trkpt lat="46.18212" lon="2.50758">
        <ele>462.94</ele>
        <time>2018-07-07T15:04:10.000Z</time>
      </trkpt>
      <trkpt lat="46.18202" lon="2.50755">
        <ele>463.38</ele>
        <time>2018-07-07T15:04:12.000Z</time>
      </trkpt>
      <trkpt lat="46.18193" lon="2.50749">
        <ele>463.51</ele>
        <time>2018-07-07T15:04:14.000Z</time>
      </trkpt>
      <trkpt lat="46.18181" lon="2.50742">
        <ele>464.1</ele>
        <time>2018-07-07T15:04:17.000Z</time>
      </trkpt>
      <trkpt lat="46.18173" lon="2.50734">
        <ele>464.41</ele>
        <time>2018-07-07T15:04:19.000Z</time>
      </trkpt>
      <trkpt lat="46.18161" lon="2.5073">
        <ele>465.75</ele>
        <time>2018-07-07T15:04:24.000Z</time>
      </trkpt>
      <trkpt lat="46.18151" lon="2.50731">
        <ele>466.67</ele>
        <time>2018-07-07T15:04:26.000Z</time>
      </trkpt>
      <trkpt lat="46.18142" lon="2.50732">
        <ele>467.23</ele>
        <time>2018-07-07T15:04:28.000Z</time>
      </trkpt>
      <trkpt lat="46.18132" lon="2.5073">
        <ele>467.73</ele>
        <time>2018-07-07T15:04:30.000Z</time>
      </trkpt>
      <trkpt lat="46.1812" lon="2.50725">
        <ele>468.25</ele>
        <time>2018-07-07T15:04:33.000Z</time>
      </trkpt>
      <trkpt lat="46.18108" lon="2.50719">
        <ele>468.3</ele>
        <time>2018-07-07T15:04:36.000Z</time>
      </trkpt>
      <trkpt lat="46.18097" lon="2.50719">
        <ele>469.91</ele>
        <time>2018-07-07T15:04:39.000Z</time>
      </trkpt>
      <trkpt lat="46.18089" lon="2.5073">
        <ele>475.88</ele>
        <time>2018-07-07T15:04:42.000Z</time>
      </trkpt>
      <trkpt lat="46.18078" lon="2.50741">
        <ele>475.98</ele>
        <time>2018-07-07T15:04:45.000Z</time>
      </trkpt>
      <trkpt lat="46.18069" lon="2.50752">
        <ele>476.68</ele>
        <time>2018-07-07T15:04:47.000Z</time>
      </trkpt>
      <trkpt lat="46.18062" lon="2.50764">
        <ele>478.01</ele>
        <time>2018-07-07T15:04:49.000Z</time>
      </trkpt>
      <trkpt lat="46.18057" lon="2.50776">
        <ele>479.53</ele>
        <time>2018-07-07T15:04:51.000Z</time>
      </trkpt>
      <trkpt lat="46.1805" lon="2.50787">
        <ele>480.67</ele>
        <time>2018-07-07T15:04:53.000Z</time>
      </trkpt>
      <trkpt lat="46.18044" lon="2.50803">
        <ele>481.55</ele>
        <time>2018-07-07T15:04:56.000Z</time>
      </trkpt>
      <trkpt lat="46.18035" lon="2.50815">
        <ele>482.46</ele>
        <time>2018-07-07T15:04:59.000Z</time>
      </trkpt>
      <trkpt lat="46.18025" lon="2.5082">
        <ele>482.59</ele>
        <time>2018-07-07T15:05:02.000Z</time>
      </trkpt>
      <trkpt lat="46.18014" lon="2.5082">
        <ele>483.11</ele>
        <time>2018-07-07T15:05:05.000Z</time>
      </trkpt>
      <trkpt lat="46.18" lon="2.5082">
        <ele>483.02</ele>
        <time>2018-07-07T15:05:08.000Z</time>
      </trkpt>
      <trkpt lat="46.1799" lon="2.50819">
        <ele>482.91</ele>
        <time>2018-07-07T15:05:10.000Z</time>
      </trkpt>
      <trkpt lat="46.17979" lon="2.50819">
        <ele>481.8</ele>
        <time>2018-07-07T15:05:12.000Z</time>
      </trkpt>
      <trkpt lat="46.17968" lon="2.50818">
        <ele>481.09</ele>
        <time>2018-07-07T15:05:15.000Z</time>
      </trkpt>
      <trkpt lat="46.17956" lon="2.50815">
        <ele>481.26</ele>
        <time>2018-07-07T15:05:18.000Z</time>
      </trkpt>
      <trkpt lat="46.17946" lon="2.50809">
        <ele>482.17</ele>
        <time>2018-07-07T15:05:21.000Z</time>
      </trkpt>
      <trkpt lat="46.17935" lon="2.50804">
        <ele>482.55</ele>
        <time>2018-07-07T15:05:24.000Z</time>
      </trkpt>
      <trkpt lat="46.17924" lon="2.50798">
        <ele>483.58</ele>
        <time>2018-07-07T15:05:27.000Z</time>
      </trkpt>
      <trkpt lat="46.17913" lon="2.5079">
        <ele>484.47</ele>
        <time>2018-07-07T15:05:30.000Z</time>
      </trkpt>
      <trkpt lat="46.17903" lon="2.50782">
        <ele>485.25</ele>
        <time>2018-07-07T15:05:33.000Z</time>
      </trkpt>
      <trkpt lat="46.17894" lon="2.5077">
        <ele>485.47</ele>
        <time>2018-07-07T15:05:36.000Z</time>
      </trkpt>
      <trkpt lat="46.17886" lon="2.50757">
        <ele>485.41</ele>
        <time>2018-07-07T15:05:39.000Z</time>
      </trkpt>
      <trkpt lat="46.17879" lon="2.50743">
        <ele>485.83</ele>
        <time>2018-07-07T15:05:42.000Z</time>
      </trkpt>
      <trkpt lat="46.17872" lon="2.50731">
        <ele>486.1</ele>
        <time>2018-07-07T15:05:45.000Z</time>
      </trkpt>
      <trkpt lat="46.17867" lon="2.50714">
        <ele>487.14</ele>
        <time>2018-07-07T15:05:48.000Z</time>
      </trkpt>
      <trkpt lat="46.17862" lon="2.50698">
        <ele>488.05</ele>
        <time>2018-07-07T15:05:51.000Z</time>
      </trkpt>
      <trkpt lat="46.17859" lon="2.50684">
        <ele>489.11</ele>
        <time>2018-07-07T15:05:54.000Z</time>
      </trkpt>
      <trkpt lat="46.17856" lon="2.50667">
        <ele>490.09</ele>
        <time>2018-07-07T15:05:57.000Z</time>
      </trkpt>
      <trkpt lat="46.17852" lon="2.50651">
        <ele>491.53</ele>
        <time>2018-07-07T15:06:00.000Z</time>
      </trkpt>
      <trkpt lat="46.17846" lon="2.50634">
        <ele>492.09</ele>
        <time>2018-07-07T15:06:03.000Z</time>
      </trkpt>
      <trkpt lat="46.17841" lon="2.50616">
        <ele>492.79</ele>
        <time>2018-07-07T15:06:06.000Z</time>
      </trkpt>
      <trkpt lat="46.17838" lon="2.50604">
        <ele>493.23</ele>
        <time>2018-07-07T15:06:08.000Z</time>
      </trkpt>
      <trkpt lat="46.17833" lon="2.50586">
        <ele>493.93</ele>
        <time>2018-07-07T15:06:11.000Z</time>
      </trkpt>
      <trkpt lat="46.17829" lon="2.50573">
        <ele>494.38</ele>
        <time>2018-07-07T15:06:13.000Z</time>
      </trkpt>
      <trkpt lat="46.17824" lon="2.5056">
        <ele>494.32</ele>
        <time>2018-07-07T15:06:15.000Z</time>
      </trkpt>
      <trkpt lat="46.17819" lon="2.50546">
        <ele>493.23</ele>
        <time>2018-07-07T15:06:17.000Z</time>
      </trkpt>
      <trkpt lat="46.17815" lon="2.50533">
        <ele>492.54</ele>
        <time>2018-07-07T15:06:19.000Z</time>
      </trkpt>
      <trkpt lat="46.17811" lon="2.50519">
        <ele>491.99</ele>
        <time>2018-07-07T15:06:21.000Z</time>
      </trkpt>
      <trkpt lat="46.17806" lon="2.50504">
        <ele>491.99</ele>
        <time>2018-07-07T15:06:23.000Z</time>
      </trkpt>
      <trkpt lat="46.17802" lon="2.50488">
        <ele>491.89</ele>
        <time>2018-07-07T15:06:25.000Z</time>
      </trkpt>
      <trkpt lat="46.17798" lon="2.50472">
        <ele>491.62</ele>
        <time>2018-07-07T15:06:27.000Z</time>
      </trkpt>
      <trkpt lat="46.17794" lon="2.50454">
        <ele>491.29</ele>
        <time>2018-07-07T15:06:29.000Z</time>
      </trkpt>
      <trkpt lat="46.17791" lon="2.50434">
        <ele>491.02</ele>
        <time>2018-07-07T15:06:31.000Z</time>
      </trkpt>
      <trkpt lat="46.17789" lon="2.50413">
        <ele>490.89</ele>
        <time>2018-07-07T15:06:33.000Z</time>
      </trkpt>
      <trkpt lat="46.17786" lon="2.50389">
        <ele>490.31</ele>
        <time>2018-07-07T15:06:35.000Z</time>
      </trkpt>
      <trkpt lat="46.17781" lon="2.50365">
        <ele>489.73</ele>
        <time>2018-07-07T15:06:37.000Z</time>
      </trkpt>
      <trkpt lat="46.17778" lon="2.50341">
        <ele>488.96</ele>
        <time>2018-07-07T15:06:39.000Z</time>
      </trkpt>
      <trkpt lat="46.17775" lon="2.50319">
        <ele>488.95</ele>
        <time>2018-07-07T15:06:41.000Z</time>
      </trkpt>
      <trkpt lat="46.17773" lon="2.50298">
        <ele>488.85</ele>
        <time>2018-07-07T15:06:43.000Z</time>
      </trkpt>
      <trkpt lat="46.17769" lon="2.50277">
        <ele>488.89</ele>
        <time>2018-07-07T15:06:45.000Z</time>
      </trkpt>
      <trkpt lat="46.17765" lon="2.50256">
        <ele>488.5</ele>
        <time>2018-07-07T15:06:47.000Z</time>
      </trkpt>
      <trkpt lat="46.17764" lon="2.50234">
        <ele>488.33</ele>
        <time>2018-07-07T15:06:49.000Z</time>
      </trkpt>
      <trkpt lat="46.17762" lon="2.50212">
        <ele>488.14</ele>
        <time>2018-07-07T15:06:51.000Z</time>
      </trkpt>
      <trkpt lat="46.17761" lon="2.5019">
        <ele>488.34</ele>
        <time>2018-07-07T15:06:53.000Z</time>
      </trkpt>
      <trkpt lat="46.17761" lon="2.50168">
        <ele>488.68</ele>
        <time>2018-07-07T15:06:55.000Z</time>
      </trkpt>
      <trkpt lat="46.1776" lon="2.50144">
        <ele>488.77</ele>
        <time>2018-07-07T15:06:57.000Z</time>
      </trkpt>
      <trkpt lat="46.17758" lon="2.50121">
        <ele>489.24</ele>
        <time>2018-07-07T15:06:59.000Z</time>
      </trkpt>
      <trkpt lat="46.17757" lon="2.50095">
        <ele>489.35</ele>
        <time>2018-07-07T15:07:01.000Z</time>
      </trkpt>
      <trkpt lat="46.17756" lon="2.5008">
        <ele>489.34</ele>
        <time>2018-07-07T15:07:02.000Z</time>
      </trkpt>
      <trkpt lat="46.17756" lon="2.50064">
        <ele>489.12</ele>
        <time>2018-07-07T15:07:03.000Z</time>
      </trkpt>
      <trkpt lat="46.17753" lon="2.50048">
        <ele>488.86</ele>
        <time>2018-07-07T15:07:04.000Z</time>
      </trkpt>
      <trkpt lat="46.1775" lon="2.50031">
        <ele>488.52</ele>
        <time>2018-07-07T15:07:05.000Z</time>
      </trkpt>
      <trkpt lat="46.17746" lon="2.50014">
        <ele>488.22</ele>
        <time>2018-07-07T15:07:06.000Z</time>
      </trkpt>
      <trkpt lat="46.17741" lon="2.49997">
        <ele>488.02</ele>
        <time>2018-07-07T15:07:07.000Z</time>
      </trkpt>
      <trkpt lat="46.17735" lon="2.49982">
        <ele>487.76</ele>
        <time>2018-07-07T15:07:08.000Z</time>
      </trkpt>
      <trkpt lat="46.17728" lon="2.49967">
        <ele>487.46</ele>
        <time>2018-07-07T15:07:09.000Z</time>
      </trkpt>
      <trkpt lat="46.1772" lon="2.49953">
        <ele>487.06</ele>
        <time>2018-07-07T15:07:10.000Z</time>
      </trkpt>
      <trkpt lat="46.17712" lon="2.4994">
        <ele>486.61</ele>
        <time>2018-07-07T15:07:11.000Z</time>
      </trkpt>
      <trkpt lat="46.17703" lon="2.49928">
        <ele>486.23</ele>
        <time>2018-07-07T15:07:12.000Z</time>
      </trkpt>
      <trkpt lat="46.17693" lon="2.49918">
        <ele>485.67</ele>
        <time>2018-07-07T15:07:13.000Z</time>
      </trkpt>
      <trkpt lat="46.17684" lon="2.49909">
        <ele>485.31</ele>
        <time>2018-07-07T15:07:14.000Z</time>
      </trkpt>
      <trkpt lat="46.17674" lon="2.49901">
        <ele>484.96</ele>
        <time>2018-07-07T15:07:15.000Z</time>
      </trkpt>
      <trkpt lat="46.17664" lon="2.49892">
        <ele>484.5</ele>
        <time>2018-07-07T15:07:16.000Z</time>
      </trkpt>
      <trkpt lat="46.17654" lon="2.49882">
        <ele>483.97</ele>
        <time>2018-07-07T15:07:17.000Z</time>
      </trkpt>
      <trkpt lat="46.17645" lon="2.49873">
        <ele>483.63</ele>
        <time>2018-07-07T15:07:18.000Z</time>
      </trkpt>
      <trkpt lat="46.17636" lon="2.49862">
        <ele>483.42</ele>
        <time>2018-07-07T15:07:19.000Z</time>
      </trkpt>
      <trkpt lat="46.17627" lon="2.49851">
        <ele>483.11</ele>
        <time>2018-07-07T15:07:20.000Z</time>
      </trkpt>
      <trkpt lat="46.17619" lon="2.49839">
        <ele>482.91</ele>
        <time>2018-07-07T15:07:21.000Z</time>
      </trkpt>
      <trkpt lat="46.17612" lon="2.49826">
        <ele>482.71</ele>
        <time>2018-07-07T15:07:22.000Z</time>
      </trkpt>
      <trkpt lat="46.17604" lon="2.49813">
        <ele>482.51</ele>
        <time>2018-07-07T15:07:23.000Z</time>
      </trkpt>
      <trkpt lat="46.17597" lon="2.498">
        <ele>482.47</ele>
        <time>2018-07-07T15:07:24.000Z</time>
      </trkpt>
      <trkpt lat="46.17589" lon="2.49787">
        <ele>482.21</ele>
        <time>2018-07-07T15:07:25.000Z</time>
      </trkpt>
      <trkpt lat="46.17581" lon="2.49775">
        <ele>481.38</ele>
        <time>2018-07-07T15:07:26.000Z</time>
      </trkpt>
      <trkpt lat="46.17574" lon="2.49763">
        <ele>480.9</ele>
        <time>2018-07-07T15:07:27.000Z</time>
      </trkpt>
      <trkpt lat="46.17566" lon="2.49752">
        <ele>480.46</ele>
        <time>2018-07-07T15:07:28.000Z</time>
      </trkpt>
      <trkpt lat="46.17558" lon="2.49741">
        <ele>479.94</ele>
        <time>2018-07-07T15:07:29.000Z</time>
      </trkpt>
      <trkpt lat="46.17549" lon="2.49733">
        <ele>479.37</ele>
        <time>2018-07-07T15:07:30.000Z</time>
      </trkpt>
      <trkpt lat="46.1754" lon="2.49725">
        <ele>478.95</ele>
        <time>2018-07-07T15:07:31.000Z</time>
      </trkpt>
      <trkpt lat="46.1753" lon="2.49719">
        <ele>478.71</ele>
        <time>2018-07-07T15:07:32.000Z</time>
      </trkpt>
      <trkpt lat="46.17519" lon="2.49712">
        <ele>478.15</ele>
        <time>2018-07-07T15:07:33.000Z</time>
      </trkpt>
      <trkpt lat="46.17508" lon="2.49706">
        <ele>477.82</ele>
        <time>2018-07-07T15:07:34.000Z</time>
      </trkpt>
      <trkpt lat="46.17498" lon="2.49699">
        <ele>477.69</ele>
        <time>2018-07-07T15:07:35.000Z</time>
      </trkpt>
      <trkpt lat="46.17487" lon="2.49694">
        <ele>477.43</ele>
        <time>2018-07-07T15:07:36.000Z</time>
      </trkpt>
      <trkpt lat="46.17476" lon="2.49687">
        <ele>477.05</ele>
        <time>2018-07-07T15:07:37.000Z</time>
      </trkpt>
      <trkpt lat="46.17464" lon="2.49681">
        <ele>476.92</ele>
        <time>2018-07-07T15:07:38.000Z</time>
      </trkpt>
      <trkpt lat="46.17452" lon="2.49674">
        <ele>476.77</ele>
        <time>2018-07-07T15:07:39.000Z</time>
      </trkpt>
      <trkpt lat="46.1744" lon="2.49667">
        <ele>476.56</ele>
        <time>2018-07-07T15:07:40.000Z</time>
      </trkpt>
      <trkpt lat="46.17428" lon="2.4966">
        <ele>476.44</ele>
        <time>2018-07-07T15:07:41.000Z</time>
      </trkpt>
      <trkpt lat="46.17416" lon="2.49653">
        <ele>476.42</ele>
        <time>2018-07-07T15:07:42.000Z</time>
      </trkpt>
      <trkpt lat="46.17405" lon="2.49645">
        <ele>476.17</ele>
        <time>2018-07-07T15:07:43.000Z</time>
      </trkpt>
      <trkpt lat="46.17394" lon="2.49638">
        <ele>475.91</ele>
        <time>2018-07-07T15:07:44.000Z</time>
      </trkpt>
      <trkpt lat="46.17383" lon="2.49631">
        <ele>475.53</ele>
        <time>2018-07-07T15:07:45.000Z</time>
      </trkpt>
      <trkpt lat="46.17373" lon="2.49622">
        <ele>475.17</ele>
        <time>2018-07-07T15:07:46.000Z</time>
      </trkpt>
      <trkpt lat="46.17363" lon="2.4961">
        <ele>474.81</ele>
        <time>2018-07-07T15:07:47.000Z</time>
      </trkpt>
      <trkpt lat="46.17357" lon="2.49598">
        <ele>473.45</ele>
        <time>2018-07-07T15:07:48.000Z</time>
      </trkpt>
      <trkpt lat="46.17351" lon="2.49585">
        <ele>472.11</ele>
        <time>2018-07-07T15:07:49.000Z</time>
      </trkpt>
      <trkpt lat="46.17349" lon="2.4957">
        <ele>471.15</ele>
        <time>2018-07-07T15:07:50.000Z</time>
      </trkpt>
      <trkpt lat="46.17349" lon="2.49555">
        <ele>470.79</ele>
        <time>2018-07-07T15:07:51.000Z</time>
      </trkpt>
      <trkpt lat="46.1735" lon="2.4954">
        <ele>470.78</ele>
        <time>2018-07-07T15:07:52.000Z</time>
      </trkpt>
      <trkpt lat="46.1735" lon="2.49526">
        <ele>470.53</ele>
        <time>2018-07-07T15:07:53.000Z</time>
      </trkpt>
      <trkpt lat="46.1735" lon="2.49512">
        <ele>470.22</ele>
        <time>2018-07-07T15:07:54.000Z</time>
      </trkpt>
      <trkpt lat="46.17351" lon="2.49498">
        <ele>469.81</ele>
        <time>2018-07-07T15:07:55.000Z</time>
      </trkpt>
      <trkpt lat="46.17352" lon="2.49474">
        <ele>469.33</ele>
        <time>2018-07-07T15:07:57.000Z</time>
      </trkpt>
      <trkpt lat="46.17356" lon="2.49454">
        <ele>469.12</ele>
        <time>2018-07-07T15:07:59.000Z</time>
      </trkpt>
      <trkpt lat="46.17361" lon="2.49439">
        <ele>469.3</ele>
        <time>2018-07-07T15:08:01.000Z</time>
      </trkpt>
      <trkpt lat="46.17365" lon="2.49426">
        <ele>469.72</ele>
        <time>2018-07-07T15:08:03.000Z</time>
      </trkpt>
      <trkpt lat="46.1737" lon="2.49414">
        <ele>470.06</ele>
        <time>2018-07-07T15:08:05.000Z</time>
      </trkpt>
      <trkpt lat="46.17374" lon="2.49402">
        <ele>470.1</ele>
        <time>2018-07-07T15:08:07.000Z</time>
      </trkpt>
      <trkpt lat="46.17379" lon="2.4939">
        <ele>469.99</ele>
        <time>2018-07-07T15:08:09.000Z</time>
      </trkpt>
      <trkpt lat="46.17386" lon="2.49373">
        <ele>469.68</ele>
        <time>2018-07-07T15:08:12.000Z</time>
      </trkpt>
      <trkpt lat="46.17393" lon="2.49358">
        <ele>469.22</ele>
        <time>2018-07-07T15:08:15.000Z</time>
      </trkpt>
      <trkpt lat="46.17399" lon="2.49343">
        <ele>468.71</ele>
        <time>2018-07-07T15:08:18.000Z</time>
      </trkpt>
      <trkpt lat="46.17403" lon="2.49331">
        <ele>468.59</ele>
        <time>2018-07-07T15:08:20.000Z</time>
      </trkpt>
      <trkpt lat="46.1741" lon="2.49316">
        <ele>468.65</ele>
        <time>2018-07-07T15:08:23.000Z</time>
      </trkpt>
      <trkpt lat="46.17414" lon="2.49302">
        <ele>469.08</ele>
        <time>2018-07-07T15:08:26.000Z</time>
      </trkpt>
      <trkpt lat="46.17417" lon="2.49288">
        <ele>469.34</ele>
        <time>2018-07-07T15:08:29.000Z</time>
      </trkpt>
      <trkpt lat="46.1742" lon="2.49272">
        <ele>469.18</ele>
        <time>2018-07-07T15:08:32.000Z</time>
      </trkpt>
      <trkpt lat="46.17423" lon="2.49253">
        <ele>468.9</ele>
        <time>2018-07-07T15:08:35.000Z</time>
      </trkpt>
      <trkpt lat="46.17424" lon="2.49239">
        <ele>468.85</ele>
        <time>2018-07-07T15:08:37.000Z</time>
      </trkpt>
      <trkpt lat="46.17424" lon="2.49225">
        <ele>469.02</ele>
        <time>2018-07-07T15:08:39.000Z</time>
      </trkpt>
      <trkpt lat="46.17426" lon="2.4921">
        <ele>469.25</ele>
        <time>2018-07-07T15:08:42.000Z</time>
      </trkpt>
      <trkpt lat="46.17429" lon="2.49198">
        <ele>469.99</ele>
        <time>2018-07-07T15:08:45.000Z</time>
      </trkpt>
      <trkpt lat="46.1743" lon="2.49185">
        <ele>472.01</ele>
        <time>2018-07-07T15:08:48.000Z</time>
      </trkpt>
      <trkpt lat="46.17427" lon="2.49169">
        <ele>475.37</ele>
        <time>2018-07-07T15:08:51.000Z</time>
      </trkpt>
      <trkpt lat="46.17428" lon="2.49153">
        <ele>477.95</ele>
        <time>2018-07-07T15:08:54.000Z</time>
      </trkpt>
      <trkpt lat="46.1743" lon="2.49138">
        <ele>479.15</ele>
        <time>2018-07-07T15:08:57.000Z</time>
      </trkpt>
      <trkpt lat="46.17432" lon="2.49123">
        <ele>480.07</ele>
        <time>2018-07-07T15:09:00.000Z</time>
      </trkpt>
      <trkpt lat="46.17434" lon="2.49109">
        <ele>480.62</ele>
        <time>2018-07-07T15:09:03.000Z</time>
      </trkpt>
      <trkpt lat="46.17433" lon="2.49094">
        <ele>482.12</ele>
        <time>2018-07-07T15:09:07.000Z</time>
      </trkpt>
      <trkpt lat="46.17436" lon="2.49077">
        <ele>482.76</ele>
        <time>2018-07-07T15:09:10.000Z</time>
      </trkpt>
      <trkpt lat="46.17435" lon="2.49061">
        <ele>483.96</ele>
        <time>2018-07-07T15:09:13.000Z</time>
      </trkpt>
      <trkpt lat="46.17437" lon="2.49047">
        <ele>484.79</ele>
        <time>2018-07-07T15:09:16.000Z</time>
      </trkpt>
      <trkpt lat="46.17442" lon="2.4903">
        <ele>484.22</ele>
        <time>2018-07-07T15:09:19.000Z</time>
      </trkpt>
      <trkpt lat="46.17453" lon="2.49022">
        <ele>484.48</ele>
        <time>2018-07-07T15:09:22.000Z</time>
      </trkpt>
      <trkpt lat="46.17464" lon="2.49019">
        <ele>484.84</ele>
        <time>2018-07-07T15:09:24.000Z</time>
      </trkpt>
      <trkpt lat="46.17476" lon="2.49017">
        <ele>485.47</ele>
        <time>2018-07-07T15:09:26.000Z</time>
      </trkpt>
      <trkpt lat="46.17486" lon="2.49013">
        <ele>485.45</ele>
        <time>2018-07-07T15:09:28.000Z</time>
      </trkpt>
      <trkpt lat="46.17499" lon="2.49011">
        <ele>485.45</ele>
        <time>2018-07-07T15:09:31.000Z</time>
      </trkpt>
      <trkpt lat="46.17509" lon="2.4901">
        <ele>485.87</ele>
        <time>2018-07-07T15:09:34.000Z</time>
      </trkpt>
      <trkpt lat="46.17521" lon="2.49004">
        <ele>486.98</ele>
        <time>2018-07-07T15:09:37.000Z</time>
      </trkpt>
      <trkpt lat="46.17529" lon="2.48991">
        <ele>487.77</ele>
        <time>2018-07-07T15:09:39.000Z</time>
      </trkpt>
      <trkpt lat="46.17537" lon="2.48981">
        <ele>488.08</ele>
        <time>2018-07-07T15:09:41.000Z</time>
      </trkpt>
      <trkpt lat="46.17543" lon="2.48969">
        <ele>489.28</ele>
        <time>2018-07-07T15:09:43.000Z</time>
      </trkpt>
      <trkpt lat="46.17548" lon="2.48957">
        <ele>490.67</ele>
        <time>2018-07-07T15:09:45.000Z</time>
      </trkpt>
      <trkpt lat="46.17556" lon="2.48941">
        <ele>491.77</ele>
        <time>2018-07-07T15:09:48.000Z</time>
      </trkpt>
      <trkpt lat="46.17562" lon="2.48931">
        <ele>491.6</ele>
        <time>2018-07-07T15:09:50.000Z</time>
      </trkpt>
      <trkpt lat="46.17568" lon="2.48919">
        <ele>491.35</ele>
        <time>2018-07-07T15:09:52.000Z</time>
      </trkpt>
      <trkpt lat="46.17574" lon="2.48906">
        <ele>491.8</ele>
        <time>2018-07-07T15:09:54.000Z</time>
      </trkpt>
      <trkpt lat="46.17579" lon="2.48895">
        <ele>492.22</ele>
        <time>2018-07-07T15:09:56.000Z</time>
      </trkpt>
      <trkpt lat="46.17586" lon="2.4888">
        <ele>493.14</ele>
        <time>2018-07-07T15:09:59.000Z</time>
      </trkpt>
      <trkpt lat="46.17593" lon="2.48864">
        <ele>493.91</ele>
        <time>2018-07-07T15:10:02.000Z</time>
      </trkpt>
      <trkpt lat="46.17599" lon="2.4885">
        <ele>494.28</ele>
        <time>2018-07-07T15:10:05.000Z</time>
      </trkpt>
      <trkpt lat="46.17603" lon="2.48838">
        <ele>494.84</ele>
        <time>2018-07-07T15:10:07.000Z</time>
      </trkpt>
      <trkpt lat="46.17603" lon="2.48825">
        <ele>496.71</ele>
        <time>2018-07-07T15:10:10.000Z</time>
      </trkpt>
      <trkpt lat="46.17601" lon="2.4881">
        <ele>498.29</ele>
        <time>2018-07-07T15:10:13.000Z</time>
      </trkpt>
      <trkpt lat="46.17598" lon="2.48794">
        <ele>498.86</ele>
        <time>2018-07-07T15:10:16.000Z</time>
      </trkpt>
      <trkpt lat="46.17596" lon="2.48779">
        <ele>499.44</ele>
        <time>2018-07-07T15:10:18.000Z</time>
      </trkpt>
      <trkpt lat="46.17598" lon="2.48762">
        <ele>500.38</ele>
        <time>2018-07-07T15:10:21.000Z</time>
      </trkpt>
      <trkpt lat="46.176" lon="2.48749">
        <ele>501.48</ele>
        <time>2018-07-07T15:10:24.000Z</time>
      </trkpt>
      <trkpt lat="46.176" lon="2.48736">
        <ele>503.06</ele>
        <time>2018-07-07T15:10:27.000Z</time>
      </trkpt>
      <trkpt lat="46.17598" lon="2.4872">
        <ele>504.86</ele>
        <time>2018-07-07T15:10:30.000Z</time>
      </trkpt>
      <trkpt lat="46.17596" lon="2.48703">
        <ele>506.56</ele>
        <time>2018-07-07T15:10:33.000Z</time>
      </trkpt>
      <trkpt lat="46.17596" lon="2.48685">
        <ele>508.06</ele>
        <time>2018-07-07T15:10:36.000Z</time>
      </trkpt>
      <trkpt lat="46.17598" lon="2.48671">
        <ele>508.6</ele>
        <time>2018-07-07T15:10:38.000Z</time>
      </trkpt>
      <trkpt lat="46.17601" lon="2.48656">
        <ele>509.17</ele>
        <time>2018-07-07T15:10:40.000Z</time>
      </trkpt>
      <trkpt lat="46.17607" lon="2.48642">
        <ele>509.56</ele>
        <time>2018-07-07T15:10:42.000Z</time>
      </trkpt>
      <trkpt lat="46.17615" lon="2.48636">
        <ele>509.6</ele>
        <time>2018-07-07T15:10:44.000Z</time>
      </trkpt>
      <trkpt lat="46.17624" lon="2.4863">
        <ele>509.74</ele>
        <time>2018-07-07T15:10:46.000Z</time>
      </trkpt>
      <trkpt lat="46.17632" lon="2.48617">
        <ele>510.03</ele>
        <time>2018-07-07T15:10:49.000Z</time>
      </trkpt>
      <trkpt lat="46.17634" lon="2.48604">
        <ele>511.55</ele>
        <time>2018-07-07T15:10:51.000Z</time>
      </trkpt>
      <trkpt lat="46.17641" lon="2.48587">
        <ele>512.98</ele>
        <time>2018-07-07T15:10:54.000Z</time>
      </trkpt>
      <trkpt lat="46.17646" lon="2.48575">
        <ele>513.33</ele>
        <time>2018-07-07T15:10:56.000Z</time>
      </trkpt>
      <trkpt lat="46.17651" lon="2.48563">
        <ele>514.2</ele>
        <time>2018-07-07T15:10:58.000Z</time>
      </trkpt>
      <trkpt lat="46.17659" lon="2.48556">
        <ele>514.95</ele>
        <time>2018-07-07T15:11:00.000Z</time>
      </trkpt>
      <trkpt lat="46.17667" lon="2.48549">
        <ele>515.23</ele>
        <time>2018-07-07T15:11:02.000Z</time>
      </trkpt>
      <trkpt lat="46.17676" lon="2.48538">
        <ele>515.54</ele>
        <time>2018-07-07T15:11:04.000Z</time>
      </trkpt>
      <trkpt lat="46.17684" lon="2.48527">
        <ele>515.61</ele>
        <time>2018-07-07T15:11:06.000Z</time>
      </trkpt>
      <trkpt lat="46.17692" lon="2.48518">
        <ele>515.94</ele>
        <time>2018-07-07T15:11:08.000Z</time>
      </trkpt>
      <trkpt lat="46.17699" lon="2.48506">
        <ele>516.31</ele>
        <time>2018-07-07T15:11:10.000Z</time>
      </trkpt>
      <trkpt lat="46.17704" lon="2.48487">
        <ele>516.97</ele>
        <time>2018-07-07T15:11:12.000Z</time>
      </trkpt>
      <trkpt lat="46.17701" lon="2.48473">
        <ele>517.24</ele>
        <time>2018-07-07T15:11:13.000Z</time>
      </trkpt>
      <trkpt lat="46.17699" lon="2.48459">
        <ele>517.33</ele>
        <time>2018-07-07T15:11:14.000Z</time>
      </trkpt>
      <trkpt lat="46.17701" lon="2.48438">
        <ele>517.19</ele>
        <time>2018-07-07T15:11:16.000Z</time>
      </trkpt>
      <trkpt lat="46.17704" lon="2.48421">
        <ele>517.34</ele>
        <time>2018-07-07T15:11:18.000Z</time>
      </trkpt>
      <trkpt lat="46.17708" lon="2.48403">
        <ele>517.33</ele>
        <time>2018-07-07T15:11:20.000Z</time>
      </trkpt>
      <trkpt lat="46.17716" lon="2.48387">
        <ele>518.47</ele>
        <time>2018-07-07T15:11:22.000Z</time>
      </trkpt>
      <trkpt lat="46.17719" lon="2.48375">
        <ele>518.44</ele>
        <time>2018-07-07T15:11:23.000Z</time>
      </trkpt>
      <trkpt lat="46.17728" lon="2.48354">
        <ele>517.65</ele>
        <time>2018-07-07T15:11:25.000Z</time>
      </trkpt>
      <trkpt lat="46.17734" lon="2.48344">
        <ele>517.12</ele>
        <time>2018-07-07T15:11:26.000Z</time>
      </trkpt>
      <trkpt lat="46.17748" lon="2.48328">
        <ele>516.49</ele>
        <time>2018-07-07T15:11:28.000Z</time>
      </trkpt>
      <trkpt lat="46.17756" lon="2.4832">
        <ele>516.71</ele>
        <time>2018-07-07T15:11:29.000Z</time>
      </trkpt>
      <trkpt lat="46.17768" lon="2.48304">
        <ele>516.84</ele>
        <time>2018-07-07T15:11:31.000Z</time>
      </trkpt>
      <trkpt lat="46.17782" lon="2.48285">
        <ele>515.37</ele>
        <time>2018-07-07T15:11:33.000Z</time>
      </trkpt>
      <trkpt lat="46.17797" lon="2.48272">
        <ele>513.99</ele>
        <time>2018-07-07T15:11:35.000Z</time>
      </trkpt>
      <trkpt lat="46.1781" lon="2.48261">
        <ele>513.96</ele>
        <time>2018-07-07T15:11:37.000Z</time>
      </trkpt>
      <trkpt lat="46.17823" lon="2.4825">
        <ele>513.95</ele>
        <time>2018-07-07T15:11:39.000Z</time>
      </trkpt>
      <trkpt lat="46.17834" lon="2.4824">
        <ele>514.77</ele>
        <time>2018-07-07T15:11:41.000Z</time>
      </trkpt>
      <trkpt lat="46.17846" lon="2.48229">
        <ele>514.61</ele>
        <time>2018-07-07T15:11:43.000Z</time>
      </trkpt>
      <trkpt lat="46.17859" lon="2.48218">
        <ele>514.2</ele>
        <time>2018-07-07T15:11:45.000Z</time>
      </trkpt>
      <trkpt lat="46.17872" lon="2.48209">
        <ele>513.71</ele>
        <time>2018-07-07T15:11:47.000Z</time>
      </trkpt>
      <trkpt lat="46.17887" lon="2.48201">
        <ele>513.74</ele>
        <time>2018-07-07T15:11:49.000Z</time>
      </trkpt>
      <trkpt lat="46.17903" lon="2.48193">
        <ele>513.25</ele>
        <time>2018-07-07T15:11:51.000Z</time>
      </trkpt>
      <trkpt lat="46.17919" lon="2.48185">
        <ele>512.11</ele>
        <time>2018-07-07T15:11:53.000Z</time>
      </trkpt>
      <trkpt lat="46.17935" lon="2.48178">
        <ele>510.21</ele>
        <time>2018-07-07T15:11:55.000Z</time>
      </trkpt>
      <trkpt lat="46.1795" lon="2.48169">
        <ele>509.22</ele>
        <time>2018-07-07T15:11:57.000Z</time>
      </trkpt>
      <trkpt lat="46.17966" lon="2.4816">
        <ele>508.57</ele>
        <time>2018-07-07T15:11:59.000Z</time>
      </trkpt>
      <trkpt lat="46.17983" lon="2.48152">
        <ele>507.27</ele>
        <time>2018-07-07T15:12:01.000Z</time>
      </trkpt>
      <trkpt lat="46.17999" lon="2.48144">
        <ele>506.58</ele>
        <time>2018-07-07T15:12:03.000Z</time>
      </trkpt>
      <trkpt lat="46.18016" lon="2.48136">
        <ele>505.45</ele>
        <time>2018-07-07T15:12:05.000Z</time>
      </trkpt>
      <trkpt lat="46.18032" lon="2.4813">
        <ele>505.01</ele>
        <time>2018-07-07T15:12:07.000Z</time>
      </trkpt>
      <trkpt lat="46.18049" lon="2.48125">
        <ele>504.56</ele>
        <time>2018-07-07T15:12:09.000Z</time>
      </trkpt>
      <trkpt lat="46.18065" lon="2.48117">
        <ele>504.16</ele>
        <time>2018-07-07T15:12:11.000Z</time>
      </trkpt>
      <trkpt lat="46.18073" lon="2.48113">
        <ele>503.98</ele>
        <time>2018-07-07T15:12:12.000Z</time>
      </trkpt>
      <trkpt lat="46.18082" lon="2.48109">
        <ele>503.71</ele>
        <time>2018-07-07T15:12:13.000Z</time>
      </trkpt>
      <trkpt lat="46.18099" lon="2.48101">
        <ele>502.92</ele>
        <time>2018-07-07T15:12:15.000Z</time>
      </trkpt>
      <trkpt lat="46.18108" lon="2.48096">
        <ele>502.37</ele>
        <time>2018-07-07T15:12:16.000Z</time>
      </trkpt>
      <trkpt lat="46.18116" lon="2.48092">
        <ele>501.75</ele>
        <time>2018-07-07T15:12:17.000Z</time>
      </trkpt>
      <trkpt lat="46.18125" lon="2.48087">
        <ele>501.16</ele>
        <time>2018-07-07T15:12:18.000Z</time>
      </trkpt>
      <trkpt lat="46.18134" lon="2.48083">
        <ele>500.4</ele>
        <time>2018-07-07T15:12:19.000Z</time>
      </trkpt>
      <trkpt lat="46.18143" lon="2.48079">
        <ele>499.76</ele>
        <time>2018-07-07T15:12:20.000Z</time>
      </trkpt>
      <trkpt lat="46.18153" lon="2.48074">
        <ele>499.21</ele>
        <time>2018-07-07T15:12:21.000Z</time>
      </trkpt>
      <trkpt lat="46.18162" lon="2.48069">
        <ele>498.55</ele>
        <time>2018-07-07T15:12:22.000Z</time>
      </trkpt>
      <trkpt lat="46.18173" lon="2.48064">
        <ele>497.66</ele>
        <time>2018-07-07T15:12:23.000Z</time>
      </trkpt>
      <trkpt lat="46.18182" lon="2.48059">
        <ele>496.91</ele>
        <time>2018-07-07T15:12:24.000Z</time>
      </trkpt>
      <trkpt lat="46.18193" lon="2.48054">
        <ele>496.24</ele>
        <time>2018-07-07T15:12:25.000Z</time>
      </trkpt>
      <trkpt lat="46.18203" lon="2.4805">
        <ele>495.42</ele>
        <time>2018-07-07T15:12:26.000Z</time>
      </trkpt>
      <trkpt lat="46.18215" lon="2.48045">
        <ele>494.44</ele>
        <time>2018-07-07T15:12:27.000Z</time>
      </trkpt>
      <trkpt lat="46.18226" lon="2.4804">
        <ele>493.36</ele>
        <time>2018-07-07T15:12:28.000Z</time>
      </trkpt>
      <trkpt lat="46.18238" lon="2.48035">
        <ele>492.49</ele>
        <time>2018-07-07T15:12:29.000Z</time>
      </trkpt>
      <trkpt lat="46.1825" lon="2.4803">
        <ele>491.69</ele>
        <time>2018-07-07T15:12:30.000Z</time>
      </trkpt>
      <trkpt lat="46.18262" lon="2.48023">
        <ele>490.63</ele>
        <time>2018-07-07T15:12:31.000Z</time>
      </trkpt>
      <trkpt lat="46.18273" lon="2.48014">
        <ele>489.68</ele>
        <time>2018-07-07T15:12:32.000Z</time>
      </trkpt>
      <trkpt lat="46.18284" lon="2.48004">
        <ele>488.81</ele>
        <time>2018-07-07T15:12:33.000Z</time>
      </trkpt>
      <trkpt lat="46.18293" lon="2.47989">
        <ele>487.92</ele>
        <time>2018-07-07T15:12:34.000Z</time>
      </trkpt>
      <trkpt lat="46.18301" lon="2.47973">
        <ele>487.15</ele>
        <time>2018-07-07T15:12:35.000Z</time>
      </trkpt>
      <trkpt lat="46.18308" lon="2.47954">
        <ele>486.35</ele>
        <time>2018-07-07T15:12:36.000Z</time>
      </trkpt>
      <trkpt lat="46.18314" lon="2.47933">
        <ele>485.36</ele>
        <time>2018-07-07T15:12:37.000Z</time>
      </trkpt>
      <trkpt lat="46.18318" lon="2.47913">
        <ele>484.41</ele>
        <time>2018-07-07T15:12:38.000Z</time>
      </trkpt>
      <trkpt lat="46.18322" lon="2.47892">
        <ele>483.32</ele>
        <time>2018-07-07T15:12:39.000Z</time>
      </trkpt>
      <trkpt lat="46.18326" lon="2.47872">
        <ele>482.21</ele>
        <time>2018-07-07T15:12:40.000Z</time>
      </trkpt>
      <trkpt lat="46.1833" lon="2.47852">
        <ele>481.33</ele>
        <time>2018-07-07T15:12:41.000Z</time>
      </trkpt>
      <trkpt lat="46.18334" lon="2.47833">
        <ele>480.49</ele>
        <time>2018-07-07T15:12:42.000Z</time>
      </trkpt>
      <trkpt lat="46.18338" lon="2.47814">
        <ele>479.67</ele>
        <time>2018-07-07T15:12:43.000Z</time>
      </trkpt>
      <trkpt lat="46.18343" lon="2.47795">
        <ele>478.81</ele>
        <time>2018-07-07T15:12:44.000Z</time>
      </trkpt>
      <trkpt lat="46.18348" lon="2.47775">
        <ele>478.02</ele>
        <time>2018-07-07T15:12:45.000Z</time>
      </trkpt>
      <trkpt lat="46.18352" lon="2.47756">
        <ele>477.3</ele>
        <time>2018-07-07T15:12:46.000Z</time>
      </trkpt>
      <trkpt lat="46.18356" lon="2.47736">
        <ele>476.54</ele>
        <time>2018-07-07T15:12:47.000Z</time>
      </trkpt>
      <trkpt lat="46.1836" lon="2.47716">
        <ele>475.75</ele>
        <time>2018-07-07T15:12:48.000Z</time>
      </trkpt>
      <trkpt lat="46.18364" lon="2.47696">
        <ele>474.79</ele>
        <time>2018-07-07T15:12:49.000Z</time>
      </trkpt>
      <trkpt lat="46.18366" lon="2.47675">
        <ele>473.76</ele>
        <time>2018-07-07T15:12:50.000Z</time>
      </trkpt>
      <trkpt lat="46.18369" lon="2.47655">
        <ele>472.61</ele>
        <time>2018-07-07T15:12:51.000Z</time>
      </trkpt>
      <trkpt lat="46.18371" lon="2.47633">
        <ele>471.41</ele>
        <time>2018-07-07T15:12:52.000Z</time>
      </trkpt>
      <trkpt lat="46.18372" lon="2.47611">
        <ele>470.11</ele>
        <time>2018-07-07T15:12:53.000Z</time>
      </trkpt>
      <trkpt lat="46.18372" lon="2.47588">
        <ele>468.66</ele>
        <time>2018-07-07T15:12:54.000Z</time>
      </trkpt>
      <trkpt lat="46.18372" lon="2.47565">
        <ele>467.32</ele>
        <time>2018-07-07T15:12:55.000Z</time>
      </trkpt>
      <trkpt lat="46.18371" lon="2.47541">
        <ele>466.11</ele>
        <time>2018-07-07T15:12:56.000Z</time>
      </trkpt>
      <trkpt lat="46.18371" lon="2.47517">
        <ele>464.59</ele>
        <time>2018-07-07T15:12:57.000Z</time>
      </trkpt>
      <trkpt lat="46.18372" lon="2.47492">
        <ele>463.27</ele>
        <time>2018-07-07T15:12:58.000Z</time>
      </trkpt>
      <trkpt lat="46.18374" lon="2.47468">
        <ele>461.62</ele>
        <time>2018-07-07T15:12:59.000Z</time>
      </trkpt>
      <trkpt lat="46.18377" lon="2.47443">
        <ele>459.98</ele>
        <time>2018-07-07T15:13:00.000Z</time>
      </trkpt>
      <trkpt lat="46.18381" lon="2.47419">
        <ele>458.32</ele>
        <time>2018-07-07T15:13:01.000Z</time>
      </trkpt>
      <trkpt lat="46.18385" lon="2.47394">
        <ele>456.71</ele>
        <time>2018-07-07T15:13:02.000Z</time>
      </trkpt>
      <trkpt lat="46.18389" lon="2.47369">
        <ele>455.23</ele>
        <time>2018-07-07T15:13:03.000Z</time>
      </trkpt>
      <trkpt lat="46.18393" lon="2.47344">
        <ele>453.91</ele>
        <time>2018-07-07T15:13:04.000Z</time>
      </trkpt>
      <trkpt lat="46.18395" lon="2.47319">
        <ele>452.51</ele>
        <time>2018-07-07T15:13:05.000Z</time>
      </trkpt>
      <trkpt lat="46.18398" lon="2.47294">
        <ele>451.2</ele>
        <time>2018-07-07T15:13:06.000Z</time>
      </trkpt>
      <trkpt lat="46.184" lon="2.47269">
        <ele>449.75</ele>
        <time>2018-07-07T15:13:07.000Z</time>
      </trkpt>
      <trkpt lat="46.18402" lon="2.47244">
        <ele>448.51</ele>
        <time>2018-07-07T15:13:08.000Z</time>
      </trkpt>
      <trkpt lat="46.18403" lon="2.47219">
        <ele>447.14</ele>
        <time>2018-07-07T15:13:09.000Z</time>
      </trkpt>
      <trkpt lat="46.18404" lon="2.47194">
        <ele>445.68</ele>
        <time>2018-07-07T15:13:10.000Z</time>
      </trkpt>
      <trkpt lat="46.18404" lon="2.4717">
        <ele>444.27</ele>
        <time>2018-07-07T15:13:11.000Z</time>
      </trkpt>
      <trkpt lat="46.18404" lon="2.47145">
        <ele>443.1</ele>
        <time>2018-07-07T15:13:12.000Z</time>
      </trkpt>
      <trkpt lat="46.18406" lon="2.47121">
        <ele>442.08</ele>
        <time>2018-07-07T15:13:13.000Z</time>
      </trkpt>
      <trkpt lat="46.18407" lon="2.47097">
        <ele>441.24</ele>
        <time>2018-07-07T15:13:14.000Z</time>
      </trkpt>
      <trkpt lat="46.18409" lon="2.47073">
        <ele>440.21</ele>
        <time>2018-07-07T15:13:15.000Z</time>
      </trkpt>
      <trkpt lat="46.18413" lon="2.4705">
        <ele>438.96</ele>
        <time>2018-07-07T15:13:16.000Z</time>
      </trkpt>
      <trkpt lat="46.18416" lon="2.47026">
        <ele>437.51</ele>
        <time>2018-07-07T15:13:17.000Z</time>
      </trkpt>
      <trkpt lat="46.18418" lon="2.47002">
        <ele>436.31</ele>
        <time>2018-07-07T15:13:18.000Z</time>
      </trkpt>
      <trkpt lat="46.18418" lon="2.46978">
        <ele>435.05</ele>
        <time>2018-07-07T15:13:19.000Z</time>
      </trkpt>
      <trkpt lat="46.18416" lon="2.46955">
        <ele>433.71</ele>
        <time>2018-07-07T15:13:20.000Z</time>
      </trkpt>
      <trkpt lat="46.18412" lon="2.46932">
        <ele>432.42</ele>
        <time>2018-07-07T15:13:21.000Z</time>
      </trkpt>
      <trkpt lat="46.18409" lon="2.46908">
        <ele>431.08</ele>
        <time>2018-07-07T15:13:22.000Z</time>
      </trkpt>
      <trkpt lat="46.18406" lon="2.46885">
        <ele>429.54</ele>
        <time>2018-07-07T15:13:23.000Z</time>
      </trkpt>
      <trkpt lat="46.18405" lon="2.46862">
        <ele>427.84</ele>
        <time>2018-07-07T15:13:24.000Z</time>
      </trkpt>
      <trkpt lat="46.18405" lon="2.46839">
        <ele>426.21</ele>
        <time>2018-07-07T15:13:25.000Z</time>
      </trkpt>
      <trkpt lat="46.18406" lon="2.46816">
        <ele>424.67</ele>
        <time>2018-07-07T15:13:26.000Z</time>
      </trkpt>
      <trkpt lat="46.18407" lon="2.46793">
        <ele>423.31</ele>
        <time>2018-07-07T15:13:27.000Z</time>
      </trkpt>
      <trkpt lat="46.18408" lon="2.4677">
        <ele>421.85</ele>
        <time>2018-07-07T15:13:28.000Z</time>
      </trkpt>
      <trkpt lat="46.18409" lon="2.46748">
        <ele>420.41</ele>
        <time>2018-07-07T15:13:29.000Z</time>
      </trkpt>
      <trkpt lat="46.18412" lon="2.46725">
        <ele>418.96</ele>
        <time>2018-07-07T15:13:30.000Z</time>
      </trkpt>
      <trkpt lat="46.18417" lon="2.46704">
        <ele>417.71</ele>
        <time>2018-07-07T15:13:31.000Z</time>
      </trkpt>
      <trkpt lat="46.18424" lon="2.46684">
        <ele>416.4</ele>
        <time>2018-07-07T15:13:32.000Z</time>
      </trkpt>
      <trkpt lat="46.18434" lon="2.46666">
        <ele>415.12</ele>
        <time>2018-07-07T15:13:33.000Z</time>
      </trkpt>
      <trkpt lat="46.18444" lon="2.46648">
        <ele>413.78</ele>
        <time>2018-07-07T15:13:34.000Z</time>
      </trkpt>
      <trkpt lat="46.18455" lon="2.46631">
        <ele>412.34</ele>
        <time>2018-07-07T15:13:35.000Z</time>
      </trkpt>
      <trkpt lat="46.18465" lon="2.46613">
        <ele>410.77</ele>
        <time>2018-07-07T15:13:36.000Z</time>
      </trkpt>
      <trkpt lat="46.18473" lon="2.46593">
        <ele>409.33</ele>
        <time>2018-07-07T15:13:37.000Z</time>
      </trkpt>
      <trkpt lat="46.18478" lon="2.46572">
        <ele>407.92</ele>
        <time>2018-07-07T15:13:38.000Z</time>
      </trkpt>
      <trkpt lat="46.18481" lon="2.46549">
        <ele>406.75</ele>
        <time>2018-07-07T15:13:39.000Z</time>
      </trkpt>
      <trkpt lat="46.18483" lon="2.46526">
        <ele>405.52</ele>
        <time>2018-07-07T15:13:40.000Z</time>
      </trkpt>
      <trkpt lat="46.18485" lon="2.46503">
        <ele>404.21</ele>
        <time>2018-07-07T15:13:41.000Z</time>
      </trkpt>
      <trkpt lat="46.18486" lon="2.4648">
        <ele>403.03</ele>
        <time>2018-07-07T15:13:42.000Z</time>
      </trkpt>
      <trkpt lat="46.18488" lon="2.46457">
        <ele>401.88</ele>
        <time>2018-07-07T15:13:43.000Z</time>
      </trkpt>
      <trkpt lat="46.18488" lon="2.46434">
        <ele>400.68</ele>
        <time>2018-07-07T15:13:44.000Z</time>
      </trkpt>
      <trkpt lat="46.18488" lon="2.46412">
        <ele>399.49</ele>
        <time>2018-07-07T15:13:45.000Z</time>
      </trkpt>
      <trkpt lat="46.18486" lon="2.46389">
        <ele>398.28</ele>
        <time>2018-07-07T15:13:46.000Z</time>
      </trkpt>
      <trkpt lat="46.18486" lon="2.46367">
        <ele>397.02</ele>
        <time>2018-07-07T15:13:47.000Z</time>
      </trkpt>
      <trkpt lat="46.18486" lon="2.46345">
        <ele>395.78</ele>
        <time>2018-07-07T15:13:48.000Z</time>
      </trkpt>
      <trkpt lat="46.18486" lon="2.46323">
        <ele>394.31</ele>
        <time>2018-07-07T15:13:49.000Z</time>
      </trkpt>
      <trkpt lat="46.18488" lon="2.46301">
        <ele>392.96</ele>
        <time>2018-07-07T15:13:50.000Z</time>
      </trkpt>
      <trkpt lat="46.1849" lon="2.46279">
        <ele>391.7</ele>
        <time>2018-07-07T15:13:51.000Z</time>
      </trkpt>
      <trkpt lat="46.18492" lon="2.46257">
        <ele>390.39</ele>
        <time>2018-07-07T15:13:52.000Z</time>
      </trkpt>
      <trkpt lat="46.18494" lon="2.46235">
        <ele>389.15</ele>
        <time>2018-07-07T15:13:53.000Z</time>
      </trkpt>
      <trkpt lat="46.18498" lon="2.46214">
        <ele>387.91</ele>
        <time>2018-07-07T15:13:54.000Z</time>
      </trkpt>
      <trkpt lat="46.18502" lon="2.46194">
        <ele>386.62</ele>
        <time>2018-07-07T15:13:55.000Z</time>
      </trkpt>
      <trkpt lat="46.18507" lon="2.46174">
        <ele>385.34</ele>
        <time>2018-07-07T15:13:56.000Z</time>
      </trkpt>
      <trkpt lat="46.18513" lon="2.46155">
        <ele>384.07</ele>
        <time>2018-07-07T15:13:57.000Z</time>
      </trkpt>
      <trkpt lat="46.1852" lon="2.46136">
        <ele>382.84</ele>
        <time>2018-07-07T15:13:58.000Z</time>
      </trkpt>
      <trkpt lat="46.18525" lon="2.46116">
        <ele>381.84</ele>
        <time>2018-07-07T15:13:59.000Z</time>
      </trkpt>
      <trkpt lat="46.18526" lon="2.46096">
        <ele>380.95</ele>
        <time>2018-07-07T15:14:00.000Z</time>
      </trkpt>
      <trkpt lat="46.18524" lon="2.46075">
        <ele>380.21</ele>
        <time>2018-07-07T15:14:01.000Z</time>
      </trkpt>
      <trkpt lat="46.18519" lon="2.46057">
        <ele>379.52</ele>
        <time>2018-07-07T15:14:02.000Z</time>
      </trkpt>
      <trkpt lat="46.18513" lon="2.4604">
        <ele>378.75</ele>
        <time>2018-07-07T15:14:03.000Z</time>
      </trkpt>
      <trkpt lat="46.18507" lon="2.46023">
        <ele>377.99</ele>
        <time>2018-07-07T15:14:04.000Z</time>
      </trkpt>
      <trkpt lat="46.18501" lon="2.46006">
        <ele>377.22</ele>
        <time>2018-07-07T15:14:05.000Z</time>
      </trkpt>
      <trkpt lat="46.18496" lon="2.45991">
        <ele>376.51</ele>
        <time>2018-07-07T15:14:06.000Z</time>
      </trkpt>
      <trkpt lat="46.18491" lon="2.45975">
        <ele>375.91</ele>
        <time>2018-07-07T15:14:07.000Z</time>
      </trkpt>
      <trkpt lat="46.18486" lon="2.4596">
        <ele>375.11</ele>
        <time>2018-07-07T15:14:08.000Z</time>
      </trkpt>
      <trkpt lat="46.18482" lon="2.45946">
        <ele>374.3</ele>
        <time>2018-07-07T15:14:09.000Z</time>
      </trkpt>
      <trkpt lat="46.18478" lon="2.45932">
        <ele>373.46</ele>
        <time>2018-07-07T15:14:10.000Z</time>
      </trkpt>
      <trkpt lat="46.18474" lon="2.45918">
        <ele>372.52</ele>
        <time>2018-07-07T15:14:11.000Z</time>
      </trkpt>
      <trkpt lat="46.1847" lon="2.45906">
        <ele>371.64</ele>
        <time>2018-07-07T15:14:12.000Z</time>
      </trkpt>
      <trkpt lat="46.18467" lon="2.45894">
        <ele>370.78</ele>
        <time>2018-07-07T15:14:13.000Z</time>
      </trkpt>
      <trkpt lat="46.1846" lon="2.4587">
        <ele>368.93</ele>
        <time>2018-07-07T15:14:15.000Z</time>
      </trkpt>
      <trkpt lat="46.18453" lon="2.45847">
        <ele>367.3</ele>
        <time>2018-07-07T15:14:17.000Z</time>
      </trkpt>
      <trkpt lat="46.18445" lon="2.45827">
        <ele>365.68</ele>
        <time>2018-07-07T15:14:19.000Z</time>
      </trkpt>
      <trkpt lat="46.18438" lon="2.45807">
        <ele>364.13</ele>
        <time>2018-07-07T15:14:21.000Z</time>
      </trkpt>
      <trkpt lat="46.1843" lon="2.45788">
        <ele>362.77</ele>
        <time>2018-07-07T15:14:23.000Z</time>
      </trkpt>
      <trkpt lat="46.18423" lon="2.4577">
        <ele>361.25</ele>
        <time>2018-07-07T15:14:25.000Z</time>
      </trkpt>
      <trkpt lat="46.18416" lon="2.45751">
        <ele>359.64</ele>
        <time>2018-07-07T15:14:27.000Z</time>
      </trkpt>
      <trkpt lat="46.18411" lon="2.45733">
        <ele>358.12</ele>
        <time>2018-07-07T15:14:29.000Z</time>
      </trkpt>
      <trkpt lat="46.18406" lon="2.45716">
        <ele>356.87</ele>
        <time>2018-07-07T15:14:31.000Z</time>
      </trkpt>
      <trkpt lat="46.18403" lon="2.45698">
        <ele>355.79</ele>
        <time>2018-07-07T15:14:33.000Z</time>
      </trkpt>
      <trkpt lat="46.18401" lon="2.45678">
        <ele>354.95</ele>
        <time>2018-07-07T15:14:35.000Z</time>
      </trkpt>
      <trkpt lat="46.18399" lon="2.45659">
        <ele>354.62</ele>
        <time>2018-07-07T15:14:37.000Z</time>
      </trkpt>
      <trkpt lat="46.18399" lon="2.4564">
        <ele>354.76</ele>
        <time>2018-07-07T15:14:39.000Z</time>
      </trkpt>
      <trkpt lat="46.184" lon="2.45617">
        <ele>355.03</ele>
        <time>2018-07-07T15:14:41.000Z</time>
      </trkpt>
      <trkpt lat="46.18402" lon="2.45591">
        <ele>354.29</ele>
        <time>2018-07-07T15:14:43.000Z</time>
      </trkpt>
      <trkpt lat="46.18403" lon="2.45577">
        <ele>354.14</ele>
        <time>2018-07-07T15:14:44.000Z</time>
      </trkpt>
      <trkpt lat="46.18404" lon="2.45563">
        <ele>354.11</ele>
        <time>2018-07-07T15:14:45.000Z</time>
      </trkpt>
      <trkpt lat="46.18406" lon="2.45549">
        <ele>354.06</ele>
        <time>2018-07-07T15:14:46.000Z</time>
      </trkpt>
      <trkpt lat="46.18407" lon="2.45535">
        <ele>354.13</ele>
        <time>2018-07-07T15:14:47.000Z</time>
      </trkpt>
      <trkpt lat="46.18407" lon="2.45521">
        <ele>353.92</ele>
        <time>2018-07-07T15:14:48.000Z</time>
      </trkpt>
      <trkpt lat="46.18409" lon="2.45508">
        <ele>353.57</ele>
        <time>2018-07-07T15:14:49.000Z</time>
      </trkpt>
      <trkpt lat="46.1841" lon="2.45495">
        <ele>353.27</ele>
        <time>2018-07-07T15:14:50.000Z</time>
      </trkpt>
      <trkpt lat="46.18411" lon="2.45482">
        <ele>352.95</ele>
        <time>2018-07-07T15:14:51.000Z</time>
      </trkpt>
      <trkpt lat="46.18412" lon="2.45468">
        <ele>352.83</ele>
        <time>2018-07-07T15:14:52.000Z</time>
      </trkpt>
      <trkpt lat="46.18413" lon="2.45455">
        <ele>352.82</ele>
        <time>2018-07-07T15:14:53.000Z</time>
      </trkpt>
      <trkpt lat="46.18414" lon="2.45441">
        <ele>352.9</ele>
        <time>2018-07-07T15:14:54.000Z</time>
      </trkpt>
      <trkpt lat="46.18415" lon="2.45427">
        <ele>352.95</ele>
        <time>2018-07-07T15:14:55.000Z</time>
      </trkpt>
      <trkpt lat="46.18416" lon="2.45413">
        <ele>353.09</ele>
        <time>2018-07-07T15:14:56.000Z</time>
      </trkpt>
      <trkpt lat="46.18417" lon="2.454">
        <ele>353.22</ele>
        <time>2018-07-07T15:14:57.000Z</time>
      </trkpt>
      <trkpt lat="46.18418" lon="2.45386">
        <ele>353.31</ele>
        <time>2018-07-07T15:14:58.000Z</time>
      </trkpt>
      <trkpt lat="46.18419" lon="2.45372">
        <ele>353.44</ele>
        <time>2018-07-07T15:14:59.000Z</time>
      </trkpt>
      <trkpt lat="46.18419" lon="2.45358">
        <ele>353.57</ele>
        <time>2018-07-07T15:15:00.000Z</time>
      </trkpt>
      <trkpt lat="46.1842" lon="2.45345">
        <ele>353.4</ele>
        <time>2018-07-07T15:15:01.000Z</time>
      </trkpt>
      <trkpt lat="46.18421" lon="2.45331">
        <ele>353.32</ele>
        <time>2018-07-07T15:15:02.000Z</time>
      </trkpt>
      <trkpt lat="46.18422" lon="2.45318">
        <ele>353.3</ele>
        <time>2018-07-07T15:15:03.000Z</time>
      </trkpt>
      <trkpt lat="46.18422" lon="2.45305">
        <ele>353.26</ele>
        <time>2018-07-07T15:15:04.000Z</time>
      </trkpt>
      <trkpt lat="46.18423" lon="2.45292">
        <ele>353.17</ele>
        <time>2018-07-07T15:15:05.000Z</time>
      </trkpt>
      <trkpt lat="46.18424" lon="2.45278">
        <ele>352.99</ele>
        <time>2018-07-07T15:15:06.000Z</time>
      </trkpt>
      <trkpt lat="46.18424" lon="2.45264">
        <ele>352.79</ele>
        <time>2018-07-07T15:15:07.000Z</time>
      </trkpt>
      <trkpt lat="46.18425" lon="2.45251">
        <ele>352.6</ele>
        <time>2018-07-07T15:15:08.000Z</time>
      </trkpt>
      <trkpt lat="46.18425" lon="2.45238">
        <ele>352.39</ele>
        <time>2018-07-07T15:15:09.000Z</time>
      </trkpt>
      <trkpt lat="46.18425" lon="2.45225">
        <ele>352.17</ele>
        <time>2018-07-07T15:15:10.000Z</time>
      </trkpt>
      <trkpt lat="46.18425" lon="2.45211">
        <ele>351.99</ele>
        <time>2018-07-07T15:15:11.000Z</time>
      </trkpt>
      <trkpt lat="46.18425" lon="2.45197">
        <ele>351.78</ele>
        <time>2018-07-07T15:15:12.000Z</time>
      </trkpt>
      <trkpt lat="46.18425" lon="2.45184">
        <ele>351.71</ele>
        <time>2018-07-07T15:15:13.000Z</time>
      </trkpt>
      <trkpt lat="46.18423" lon="2.45171">
        <ele>351.65</ele>
        <time>2018-07-07T15:15:14.000Z</time>
      </trkpt>
      <trkpt lat="46.18421" lon="2.45157">
        <ele>351.63</ele>
        <time>2018-07-07T15:15:15.000Z</time>
      </trkpt>
      <trkpt lat="46.18419" lon="2.45145">
        <ele>351.58</ele>
        <time>2018-07-07T15:15:16.000Z</time>
      </trkpt>
      <trkpt lat="46.18416" lon="2.45132">
        <ele>351.42</ele>
        <time>2018-07-07T15:15:17.000Z</time>
      </trkpt>
      <trkpt lat="46.18413" lon="2.45119">
        <ele>351.27</ele>
        <time>2018-07-07T15:15:18.000Z</time>
      </trkpt>
      <trkpt lat="46.18407" lon="2.45096">
        <ele>351.77</ele>
        <time>2018-07-07T15:15:20.000Z</time>
      </trkpt>
      <trkpt lat="46.18401" lon="2.45072">
        <ele>352.13</ele>
        <time>2018-07-07T15:15:22.000Z</time>
      </trkpt>
      <trkpt lat="46.18397" lon="2.45049">
        <ele>354.3</ele>
        <time>2018-07-07T15:15:24.000Z</time>
      </trkpt>
      <trkpt lat="46.18393" lon="2.45025">
        <ele>355.86</ele>
        <time>2018-07-07T15:15:26.000Z</time>
      </trkpt>
      <trkpt lat="46.18391" lon="2.45">
        <ele>357.99</ele>
        <time>2018-07-07T15:15:28.000Z</time>
      </trkpt>
      <trkpt lat="46.18389" lon="2.44976">
        <ele>359.77</ele>
        <time>2018-07-07T15:15:30.000Z</time>
      </trkpt>
      <trkpt lat="46.18387" lon="2.44951">
        <ele>360.92</ele>
        <time>2018-07-07T15:15:32.000Z</time>
      </trkpt>
      <trkpt lat="46.18386" lon="2.44927">
        <ele>363.51</ele>
        <time>2018-07-07T15:15:34.000Z</time>
      </trkpt>
      <trkpt lat="46.18383" lon="2.44904">
        <ele>364.37</ele>
        <time>2018-07-07T15:15:36.000Z</time>
      </trkpt>
      <trkpt lat="46.18379" lon="2.44882">
        <ele>366.11</ele>
        <time>2018-07-07T15:15:38.000Z</time>
      </trkpt>
      <trkpt lat="46.18377" lon="2.44861">
        <ele>367.55</ele>
        <time>2018-07-07T15:15:40.000Z</time>
      </trkpt>
      <trkpt lat="46.18375" lon="2.44839">
        <ele>368.46</ele>
        <time>2018-07-07T15:15:42.000Z</time>
      </trkpt>
      <trkpt lat="46.18372" lon="2.44818">
        <ele>369.55</ele>
        <time>2018-07-07T15:15:44.000Z</time>
      </trkpt>
      <trkpt lat="46.18371" lon="2.44796">
        <ele>369.94</ele>
        <time>2018-07-07T15:15:46.000Z</time>
      </trkpt>
      <trkpt lat="46.18371" lon="2.44775">
        <ele>370.25</ele>
        <time>2018-07-07T15:15:48.000Z</time>
      </trkpt>
      <trkpt lat="46.18373" lon="2.44753">
        <ele>370.19</ele>
        <time>2018-07-07T15:15:50.000Z</time>
      </trkpt>
      <trkpt lat="46.18376" lon="2.44731">
        <ele>370.39</ele>
        <time>2018-07-07T15:15:52.000Z</time>
      </trkpt>
      <trkpt lat="46.18379" lon="2.4471">
        <ele>370.37</ele>
        <time>2018-07-07T15:15:54.000Z</time>
      </trkpt>
      <trkpt lat="46.18381" lon="2.44691">
        <ele>370.52</ele>
        <time>2018-07-07T15:15:56.000Z</time>
      </trkpt>
      <trkpt lat="46.18383" lon="2.44672">
        <ele>371.29</ele>
        <time>2018-07-07T15:15:58.000Z</time>
      </trkpt>
      <trkpt lat="46.18385" lon="2.44654">
        <ele>371.62</ele>
        <time>2018-07-07T15:16:00.000Z</time>
      </trkpt>
      <trkpt lat="46.18388" lon="2.44636">
        <ele>372.17</ele>
        <time>2018-07-07T15:16:02.000Z</time>
      </trkpt>
      <trkpt lat="46.1839" lon="2.4462">
        <ele>372.97</ele>
        <time>2018-07-07T15:16:04.000Z</time>
      </trkpt>
      <trkpt lat="46.18392" lon="2.44601">
        <ele>373.9</ele>
        <time>2018-07-07T15:16:06.000Z</time>
      </trkpt>
      <trkpt lat="46.18395" lon="2.44584">
        <ele>374.69</ele>
        <time>2018-07-07T15:16:08.000Z</time>
      </trkpt>
      <trkpt lat="46.18398" lon="2.44565">
        <ele>375.09</ele>
        <time>2018-07-07T15:16:10.000Z</time>
      </trkpt>
      <trkpt lat="46.18402" lon="2.44544">
        <ele>375.6</ele>
        <time>2018-07-07T15:16:12.000Z</time>
      </trkpt>
      <trkpt lat="46.18406" lon="2.44524">
        <ele>376.18</ele>
        <time>2018-07-07T15:16:14.000Z</time>
      </trkpt>
      <trkpt lat="46.18409" lon="2.44503">
        <ele>376.32</ele>
        <time>2018-07-07T15:16:16.000Z</time>
      </trkpt>
      <trkpt lat="46.18413" lon="2.44484">
        <ele>376.62</ele>
        <time>2018-07-07T15:16:18.000Z</time>
      </trkpt>
      <trkpt lat="46.18418" lon="2.44462">
        <ele>376.77</ele>
        <time>2018-07-07T15:16:20.000Z</time>
      </trkpt>
      <trkpt lat="46.18423" lon="2.44441">
        <ele>377</ele>
        <time>2018-07-07T15:16:22.000Z</time>
      </trkpt>
      <trkpt lat="46.18428" lon="2.44419">
        <ele>377.14</ele>
        <time>2018-07-07T15:16:24.000Z</time>
      </trkpt>
      <trkpt lat="46.18432" lon="2.44398">
        <ele>377.45</ele>
        <time>2018-07-07T15:16:26.000Z</time>
      </trkpt>
      <trkpt lat="46.18437" lon="2.44376">
        <ele>377.63</ele>
        <time>2018-07-07T15:16:28.000Z</time>
      </trkpt>
      <trkpt lat="46.18441" lon="2.44355">
        <ele>377.86</ele>
        <time>2018-07-07T15:16:30.000Z</time>
      </trkpt>
      <trkpt lat="46.18446" lon="2.44336">
        <ele>378.08</ele>
        <time>2018-07-07T15:16:32.000Z</time>
      </trkpt>
      <trkpt lat="46.18452" lon="2.44317">
        <ele>378.99</ele>
        <time>2018-07-07T15:16:34.000Z</time>
      </trkpt>
      <trkpt lat="46.18457" lon="2.443">
        <ele>379.18</ele>
        <time>2018-07-07T15:16:36.000Z</time>
      </trkpt>
      <trkpt lat="46.18463" lon="2.44282">
        <ele>379.11</ele>
        <time>2018-07-07T15:16:38.000Z</time>
      </trkpt>
      <trkpt lat="46.18467" lon="2.4426">
        <ele>379.06</ele>
        <time>2018-07-07T15:16:40.000Z</time>
      </trkpt>
      <trkpt lat="46.18472" lon="2.44238">
        <ele>378.75</ele>
        <time>2018-07-07T15:16:42.000Z</time>
      </trkpt>
      <trkpt lat="46.18477" lon="2.44217">
        <ele>378.75</ele>
        <time>2018-07-07T15:16:44.000Z</time>
      </trkpt>
      <trkpt lat="46.18481" lon="2.44195">
        <ele>378.64</ele>
        <time>2018-07-07T15:16:46.000Z</time>
      </trkpt>
      <trkpt lat="46.18486" lon="2.44173">
        <ele>378.42</ele>
        <time>2018-07-07T15:16:48.000Z</time>
      </trkpt>
      <trkpt lat="46.18491" lon="2.44152">
        <ele>378.4</ele>
        <time>2018-07-07T15:16:50.000Z</time>
      </trkpt>
      <trkpt lat="46.18498" lon="2.44129">
        <ele>378.73</ele>
        <time>2018-07-07T15:16:52.000Z</time>
      </trkpt>
      <trkpt lat="46.18502" lon="2.44107">
        <ele>378.99</ele>
        <time>2018-07-07T15:16:54.000Z</time>
      </trkpt>
      <trkpt lat="46.18506" lon="2.44086">
        <ele>379.34</ele>
        <time>2018-07-07T15:16:56.000Z</time>
      </trkpt>
      <trkpt lat="46.1851" lon="2.44066">
        <ele>380.31</ele>
        <time>2018-07-07T15:16:58.000Z</time>
      </trkpt>
      <trkpt lat="46.18515" lon="2.44046">
        <ele>381.04</ele>
        <time>2018-07-07T15:17:00.000Z</time>
      </trkpt>
      <trkpt lat="46.18519" lon="2.44026">
        <ele>381.51</ele>
        <time>2018-07-07T15:17:02.000Z</time>
      </trkpt>
      <trkpt lat="46.18523" lon="2.44007">
        <ele>381.95</ele>
        <time>2018-07-07T15:17:04.000Z</time>
      </trkpt>
      <trkpt lat="46.18527" lon="2.43989">
        <ele>382.35</ele>
        <time>2018-07-07T15:17:06.000Z</time>
      </trkpt>
      <trkpt lat="46.1853" lon="2.43971">
        <ele>382.75</ele>
        <time>2018-07-07T15:17:08.000Z</time>
      </trkpt>
      <trkpt lat="46.18533" lon="2.43952">
        <ele>382.63</ele>
        <time>2018-07-07T15:17:10.000Z</time>
      </trkpt>
      <trkpt lat="46.18535" lon="2.43933">
        <ele>382</ele>
        <time>2018-07-07T15:17:12.000Z</time>
      </trkpt>
      <trkpt lat="46.18536" lon="2.43913">
        <ele>381.16</ele>
        <time>2018-07-07T15:17:14.000Z</time>
      </trkpt>
      <trkpt lat="46.18535" lon="2.43893">
        <ele>380.35</ele>
        <time>2018-07-07T15:17:16.000Z</time>
      </trkpt>
      <trkpt lat="46.18534" lon="2.43875">
        <ele>379.58</ele>
        <time>2018-07-07T15:17:18.000Z</time>
      </trkpt>
      <trkpt lat="46.18531" lon="2.43856">
        <ele>379.06</ele>
        <time>2018-07-07T15:17:20.000Z</time>
      </trkpt>
      <trkpt lat="46.18527" lon="2.43834">
        <ele>377.63</ele>
        <time>2018-07-07T15:17:22.000Z</time>
      </trkpt>
      <trkpt lat="46.18521" lon="2.43812">
        <ele>376.83</ele>
        <time>2018-07-07T15:17:24.000Z</time>
      </trkpt>
      <trkpt lat="46.18518" lon="2.43792">
        <ele>377.27</ele>
        <time>2018-07-07T15:17:26.000Z</time>
      </trkpt>
      <trkpt lat="46.18515" lon="2.43773">
        <ele>377.58</ele>
        <time>2018-07-07T15:17:28.000Z</time>
      </trkpt>
      <trkpt lat="46.18514" lon="2.43753">
        <ele>378</ele>
        <time>2018-07-07T15:17:30.000Z</time>
      </trkpt>
      <trkpt lat="46.18513" lon="2.43735">
        <ele>378.54</ele>
        <time>2018-07-07T15:17:32.000Z</time>
      </trkpt>
      <trkpt lat="46.18513" lon="2.43715">
        <ele>378.86</ele>
        <time>2018-07-07T15:17:34.000Z</time>
      </trkpt>
      <trkpt lat="46.18514" lon="2.43696">
        <ele>378.91</ele>
        <time>2018-07-07T15:17:36.000Z</time>
      </trkpt>
      <trkpt lat="46.18513" lon="2.43678">
        <ele>379</ele>
        <time>2018-07-07T15:17:38.000Z</time>
      </trkpt>
      <trkpt lat="46.18513" lon="2.43661">
        <ele>379.01</ele>
        <time>2018-07-07T15:17:40.000Z</time>
      </trkpt>
      <trkpt lat="46.18514" lon="2.43645">
        <ele>379.57</ele>
        <time>2018-07-07T15:17:42.000Z</time>
      </trkpt>
      <trkpt lat="46.18514" lon="2.43629">
        <ele>380.16</ele>
        <time>2018-07-07T15:17:44.000Z</time>
      </trkpt>
      <trkpt lat="46.18514" lon="2.4361">
        <ele>381.3</ele>
        <time>2018-07-07T15:17:46.000Z</time>
      </trkpt>
      <trkpt lat="46.18514" lon="2.43593">
        <ele>382.05</ele>
        <time>2018-07-07T15:17:48.000Z</time>
      </trkpt>
      <trkpt lat="46.18514" lon="2.43577">
        <ele>382.6</ele>
        <time>2018-07-07T15:17:50.000Z</time>
      </trkpt>
      <trkpt lat="46.18515" lon="2.4356">
        <ele>383.02</ele>
        <time>2018-07-07T15:17:52.000Z</time>
      </trkpt>
      <trkpt lat="46.18515" lon="2.43542">
        <ele>383.44</ele>
        <time>2018-07-07T15:17:54.000Z</time>
      </trkpt>
      <trkpt lat="46.18514" lon="2.43522">
        <ele>383.78</ele>
        <time>2018-07-07T15:17:56.000Z</time>
      </trkpt>
      <trkpt lat="46.18513" lon="2.43504">
        <ele>384.33</ele>
        <time>2018-07-07T15:17:58.000Z</time>
      </trkpt>
      <trkpt lat="46.18513" lon="2.43483">
        <ele>385.46</ele>
        <time>2018-07-07T15:18:00.000Z</time>
      </trkpt>
      <trkpt lat="46.18514" lon="2.43458">
        <ele>387.05</ele>
        <time>2018-07-07T15:18:02.000Z</time>
      </trkpt>
      <trkpt lat="46.18512" lon="2.43444">
        <ele>388.03</ele>
        <time>2018-07-07T15:18:03.000Z</time>
      </trkpt>
      <trkpt lat="46.18512" lon="2.43421">
        <ele>389.52</ele>
        <time>2018-07-07T15:18:05.000Z</time>
      </trkpt>
      <trkpt lat="46.18512" lon="2.434">
        <ele>390.72</ele>
        <time>2018-07-07T15:18:07.000Z</time>
      </trkpt>
      <trkpt lat="46.18512" lon="2.43379">
        <ele>392.03</ele>
        <time>2018-07-07T15:18:09.000Z</time>
      </trkpt>
      <trkpt lat="46.18514" lon="2.43359">
        <ele>392.78</ele>
        <time>2018-07-07T15:18:11.000Z</time>
      </trkpt>
      <trkpt lat="46.18514" lon="2.4334">
        <ele>393.74</ele>
        <time>2018-07-07T15:18:13.000Z</time>
      </trkpt>
      <trkpt lat="46.18514" lon="2.43322">
        <ele>394.65</ele>
        <time>2018-07-07T15:18:15.000Z</time>
      </trkpt>
      <trkpt lat="46.18515" lon="2.43304">
        <ele>395.32</ele>
        <time>2018-07-07T15:18:17.000Z</time>
      </trkpt>
      <trkpt lat="46.18514" lon="2.43286">
        <ele>396.36</ele>
        <time>2018-07-07T15:18:19.000Z</time>
      </trkpt>
      <trkpt lat="46.18515" lon="2.43265">
        <ele>396.9</ele>
        <time>2018-07-07T15:18:21.000Z</time>
      </trkpt>
      <trkpt lat="46.18514" lon="2.43245">
        <ele>397.7</ele>
        <time>2018-07-07T15:18:23.000Z</time>
      </trkpt>
      <trkpt lat="46.18513" lon="2.43225">
        <ele>398.38</ele>
        <time>2018-07-07T15:18:25.000Z</time>
      </trkpt>
      <trkpt lat="46.18513" lon="2.43204">
        <ele>398.94</ele>
        <time>2018-07-07T15:18:27.000Z</time>
      </trkpt>
      <trkpt lat="46.18513" lon="2.43183">
        <ele>399.29</ele>
        <time>2018-07-07T15:18:29.000Z</time>
      </trkpt>
      <trkpt lat="46.18512" lon="2.43162">
        <ele>399.82</ele>
        <time>2018-07-07T15:18:31.000Z</time>
      </trkpt>
      <trkpt lat="46.1851" lon="2.43139">
        <ele>400.27</ele>
        <time>2018-07-07T15:18:33.000Z</time>
      </trkpt>
      <trkpt lat="46.18511" lon="2.43117">
        <ele>400.66</ele>
        <time>2018-07-07T15:18:35.000Z</time>
      </trkpt>
      <trkpt lat="46.18514" lon="2.43095">
        <ele>400.88</ele>
        <time>2018-07-07T15:18:37.000Z</time>
      </trkpt>
      <trkpt lat="46.18522" lon="2.43073">
        <ele>400.59</ele>
        <time>2018-07-07T15:18:39.000Z</time>
      </trkpt>
      <trkpt lat="46.18528" lon="2.43063">
        <ele>400.48</ele>
        <time>2018-07-07T15:18:40.000Z</time>
      </trkpt>
      <trkpt lat="46.18542" lon="2.43048">
        <ele>400.62</ele>
        <time>2018-07-07T15:18:42.000Z</time>
      </trkpt>
      <trkpt lat="46.18558" lon="2.43033">
        <ele>400.26</ele>
        <time>2018-07-07T15:18:44.000Z</time>
      </trkpt>
      <trkpt lat="46.18566" lon="2.43026">
        <ele>399.53</ele>
        <time>2018-07-07T15:18:45.000Z</time>
      </trkpt>
      <trkpt lat="46.18574" lon="2.43018">
        <ele>398.92</ele>
        <time>2018-07-07T15:18:46.000Z</time>
      </trkpt>
      <trkpt lat="46.18588" lon="2.43008">
        <ele>397.62</ele>
        <time>2018-07-07T15:18:48.000Z</time>
      </trkpt>
      <trkpt lat="46.18601" lon="2.42998">
        <ele>396.56</ele>
        <time>2018-07-07T15:18:50.000Z</time>
      </trkpt>
      <trkpt lat="46.18614" lon="2.42987">
        <ele>395.3</ele>
        <time>2018-07-07T15:18:52.000Z</time>
      </trkpt>
      <trkpt lat="46.18628" lon="2.42977">
        <ele>394.94</ele>
        <time>2018-07-07T15:18:54.000Z</time>
      </trkpt>
      <trkpt lat="46.18641" lon="2.42965">
        <ele>394.64</ele>
        <time>2018-07-07T15:18:56.000Z</time>
      </trkpt>
      <trkpt lat="46.18653" lon="2.42955">
        <ele>394.35</ele>
        <time>2018-07-07T15:18:58.000Z</time>
      </trkpt>
      <trkpt lat="46.18665" lon="2.42944">
        <ele>393.73</ele>
        <time>2018-07-07T15:19:00.000Z</time>
      </trkpt>
      <trkpt lat="46.18678" lon="2.42932">
        <ele>392.64</ele>
        <time>2018-07-07T15:19:02.000Z</time>
      </trkpt>
      <trkpt lat="46.1869" lon="2.4292">
        <ele>391.77</ele>
        <time>2018-07-07T15:19:04.000Z</time>
      </trkpt>
      <trkpt lat="46.18702" lon="2.42909">
        <ele>390.87</ele>
        <time>2018-07-07T15:19:06.000Z</time>
      </trkpt>
      <trkpt lat="46.18713" lon="2.42899">
        <ele>390.29</ele>
        <time>2018-07-07T15:19:08.000Z</time>
      </trkpt>
      <trkpt lat="46.18723" lon="2.4289">
        <ele>389.69</ele>
        <time>2018-07-07T15:19:10.000Z</time>
      </trkpt>
      <trkpt lat="46.18734" lon="2.42882">
        <ele>388.73</ele>
        <time>2018-07-07T15:19:12.000Z</time>
      </trkpt>
      <trkpt lat="46.18745" lon="2.42872">
        <ele>387.98</ele>
        <time>2018-07-07T15:19:14.000Z</time>
      </trkpt>
      <trkpt lat="46.18757" lon="2.42863">
        <ele>387.78</ele>
        <time>2018-07-07T15:19:16.000Z</time>
      </trkpt>
      <trkpt lat="46.18768" lon="2.42854">
        <ele>387.68</ele>
        <time>2018-07-07T15:19:18.000Z</time>
      </trkpt>
      <trkpt lat="46.18779" lon="2.42843">
        <ele>387.61</ele>
        <time>2018-07-07T15:19:20.000Z</time>
      </trkpt>
      <trkpt lat="46.1879" lon="2.42831">
        <ele>387.28</ele>
        <time>2018-07-07T15:19:22.000Z</time>
      </trkpt>
      <trkpt lat="46.18802" lon="2.42817">
        <ele>386.9</ele>
        <time>2018-07-07T15:19:24.000Z</time>
      </trkpt>
      <trkpt lat="46.18812" lon="2.42797">
        <ele>386.21</ele>
        <time>2018-07-07T15:19:26.000Z</time>
      </trkpt>
      <trkpt lat="46.18817" lon="2.42774">
        <ele>385.95</ele>
        <time>2018-07-07T15:19:28.000Z</time>
      </trkpt>
      <trkpt lat="46.18819" lon="2.42749">
        <ele>385.31</ele>
        <time>2018-07-07T15:19:30.000Z</time>
      </trkpt>
      <trkpt lat="46.18823" lon="2.42726">
        <ele>384.21</ele>
        <time>2018-07-07T15:19:32.000Z</time>
      </trkpt>
      <trkpt lat="46.18825" lon="2.42704">
        <ele>383.59</ele>
        <time>2018-07-07T15:19:34.000Z</time>
      </trkpt>
      <trkpt lat="46.18827" lon="2.42682">
        <ele>383.35</ele>
        <time>2018-07-07T15:19:36.000Z</time>
      </trkpt>
      <trkpt lat="46.18829" lon="2.42661">
        <ele>383.27</ele>
        <time>2018-07-07T15:19:38.000Z</time>
      </trkpt>
      <trkpt lat="46.18832" lon="2.4264">
        <ele>383.02</ele>
        <time>2018-07-07T15:19:40.000Z</time>
      </trkpt>
      <trkpt lat="46.18834" lon="2.4262">
        <ele>382.69</ele>
        <time>2018-07-07T15:19:42.000Z</time>
      </trkpt>
      <trkpt lat="46.18835" lon="2.426">
        <ele>382.49</ele>
        <time>2018-07-07T15:19:44.000Z</time>
      </trkpt>
      <trkpt lat="46.1884" lon="2.42581">
        <ele>381.62</ele>
        <time>2018-07-07T15:19:46.000Z</time>
      </trkpt>
      <trkpt lat="46.18845" lon="2.42561">
        <ele>381.79</ele>
        <time>2018-07-07T15:19:48.000Z</time>
      </trkpt>
      <trkpt lat="46.18847" lon="2.42541">
        <ele>382.56</ele>
        <time>2018-07-07T15:19:50.000Z</time>
      </trkpt>
      <trkpt lat="46.1885" lon="2.42522">
        <ele>383.17</ele>
        <time>2018-07-07T15:19:52.000Z</time>
      </trkpt>
      <trkpt lat="46.18854" lon="2.42496">
        <ele>384.41</ele>
        <time>2018-07-07T15:19:55.000Z</time>
      </trkpt>
      <trkpt lat="46.18856" lon="2.42481">
        <ele>384.76</ele>
        <time>2018-07-07T15:19:57.000Z</time>
      </trkpt>
      <trkpt lat="46.18858" lon="2.42464">
        <ele>384.44</ele>
        <time>2018-07-07T15:19:59.000Z</time>
      </trkpt>
      <trkpt lat="46.18859" lon="2.42448">
        <ele>383.98</ele>
        <time>2018-07-07T15:20:01.000Z</time>
      </trkpt>
      <trkpt lat="46.1886" lon="2.42428">
        <ele>383.15</ele>
        <time>2018-07-07T15:20:03.000Z</time>
      </trkpt>
      <trkpt lat="46.18861" lon="2.42407">
        <ele>382.66</ele>
        <time>2018-07-07T15:20:05.000Z</time>
      </trkpt>
      <trkpt lat="46.18861" lon="2.42384">
        <ele>382.61</ele>
        <time>2018-07-07T15:20:07.000Z</time>
      </trkpt>
      <trkpt lat="46.18864" lon="2.42363">
        <ele>382.4</ele>
        <time>2018-07-07T15:20:09.000Z</time>
      </trkpt>
      <trkpt lat="46.18869" lon="2.42337">
        <ele>382.4</ele>
        <time>2018-07-07T15:20:12.000Z</time>
      </trkpt>
      <trkpt lat="46.18871" lon="2.4232">
        <ele>382.78</ele>
        <time>2018-07-07T15:20:14.000Z</time>
      </trkpt>
      <trkpt lat="46.18873" lon="2.42291">
        <ele>383.05</ele>
        <time>2018-07-07T15:20:17.000Z</time>
      </trkpt>
      <trkpt lat="46.18875" lon="2.42272">
        <ele>383.28</ele>
        <time>2018-07-07T15:20:19.000Z</time>
      </trkpt>
      <trkpt lat="46.18876" lon="2.42254">
        <ele>383.43</ele>
        <time>2018-07-07T15:20:21.000Z</time>
      </trkpt>
      <trkpt lat="46.18877" lon="2.42235">
        <ele>384.15</ele>
        <time>2018-07-07T15:20:23.000Z</time>
      </trkpt>
      <trkpt lat="46.18877" lon="2.42209">
        <ele>384.36</ele>
        <time>2018-07-07T15:20:26.000Z</time>
      </trkpt>
      <trkpt lat="46.18878" lon="2.4219">
        <ele>384.31</ele>
        <time>2018-07-07T15:20:28.000Z</time>
      </trkpt>
      <trkpt lat="46.18881" lon="2.42174">
        <ele>384.25</ele>
        <time>2018-07-07T15:20:30.000Z</time>
      </trkpt>
      <trkpt lat="46.18887" lon="2.42164">
        <ele>384.11</ele>
        <time>2018-07-07T15:20:32.000Z</time>
      </trkpt>
      <trkpt lat="46.189" lon="2.42158">
        <ele>383.6</ele>
        <time>2018-07-07T15:20:34.000Z</time>
      </trkpt>
      <trkpt lat="46.18915" lon="2.42154">
        <ele>382.35</ele>
        <time>2018-07-07T15:20:36.000Z</time>
      </trkpt>
      <trkpt lat="46.18932" lon="2.42155">
        <ele>381.94</ele>
        <time>2018-07-07T15:20:38.000Z</time>
      </trkpt>
      <trkpt lat="46.1895" lon="2.42158">
        <ele>381.54</ele>
        <time>2018-07-07T15:20:40.000Z</time>
      </trkpt>
      <trkpt lat="46.18966" lon="2.42163">
        <ele>381.53</ele>
        <time>2018-07-07T15:20:42.000Z</time>
      </trkpt>
      <trkpt lat="46.18982" lon="2.42167">
        <ele>380.96</ele>
        <time>2018-07-07T15:20:44.000Z</time>
      </trkpt>
      <trkpt lat="46.18997" lon="2.42173">
        <ele>380.59</ele>
        <time>2018-07-07T15:20:46.000Z</time>
      </trkpt>
      <trkpt lat="46.19011" lon="2.42184">
        <ele>380.13</ele>
        <time>2018-07-07T15:20:48.000Z</time>
      </trkpt>
      <trkpt lat="46.19022" lon="2.42199">
        <ele>379.67</ele>
        <time>2018-07-07T15:20:50.000Z</time>
      </trkpt>
      <trkpt lat="46.19029" lon="2.4222">
        <ele>379.43</ele>
        <time>2018-07-07T15:20:52.000Z</time>
      </trkpt>
      <trkpt lat="46.19034" lon="2.42241">
        <ele>379.4</ele>
        <time>2018-07-07T15:20:54.000Z</time>
      </trkpt>
      <trkpt lat="46.19038" lon="2.42261">
        <ele>379.31</ele>
        <time>2018-07-07T15:20:56.000Z</time>
      </trkpt>
      <trkpt lat="46.19043" lon="2.42278">
        <ele>379.14</ele>
        <time>2018-07-07T15:20:58.000Z</time>
      </trkpt>
      <trkpt lat="46.19058" lon="2.4228">
        <ele>379.25</ele>
        <time>2018-07-07T15:20:59.000Z</time>
      </trkpt>
      <trkpt lat="46.19065" lon="2.42288">
        <ele>378.45</ele>
        <time>2018-07-07T15:21:00.000Z</time>
      </trkpt>
      <trkpt lat="46.19075" lon="2.42288">
        <ele>378.44</ele>
        <time>2018-07-07T15:21:02.000Z</time>
      </trkpt>
      <trkpt lat="46.19088" lon="2.42287">
        <ele>377.93</ele>
        <time>2018-07-07T15:21:05.000Z</time>
      </trkpt>
      <trkpt lat="46.19101" lon="2.42281">
        <ele>376.88</ele>
        <time>2018-07-07T15:21:08.000Z</time>
      </trkpt>
      <trkpt lat="46.19112" lon="2.42278">
        <ele>374.91</ele>
        <time>2018-07-07T15:21:11.000Z</time>
      </trkpt>
      <trkpt lat="46.19125" lon="2.42275">
        <ele>375.03</ele>
        <time>2018-07-07T15:21:14.000Z</time>
      </trkpt>
      <trkpt lat="46.19134" lon="2.42273">
        <ele>375.44</ele>
        <time>2018-07-07T15:21:16.000Z</time>
      </trkpt>
      <trkpt lat="46.19143" lon="2.42266">
        <ele>375.05</ele>
        <time>2018-07-07T15:21:18.000Z</time>
      </trkpt>
      <trkpt lat="46.19154" lon="2.42261">
        <ele>374.58</ele>
        <time>2018-07-07T15:21:20.000Z</time>
      </trkpt>
      <trkpt lat="46.19164" lon="2.42261">
        <ele>374.42</ele>
        <time>2018-07-07T15:21:22.000Z</time>
      </trkpt>
      <trkpt lat="46.19175" lon="2.4226">
        <ele>374.11</ele>
        <time>2018-07-07T15:21:24.000Z</time>
      </trkpt>
      <trkpt lat="46.19186" lon="2.42259">
        <ele>373.7</ele>
        <time>2018-07-07T15:21:26.000Z</time>
      </trkpt>
      <trkpt lat="46.19196" lon="2.42257">
        <ele>373.27</ele>
        <time>2018-07-07T15:21:28.000Z</time>
      </trkpt>
      <trkpt lat="46.19208" lon="2.42252">
        <ele>372.64</ele>
        <time>2018-07-07T15:21:30.000Z</time>
      </trkpt>
      <trkpt lat="46.1922" lon="2.42248">
        <ele>371.74</ele>
        <time>2018-07-07T15:21:32.000Z</time>
      </trkpt>
      <trkpt lat="46.1923" lon="2.4225">
        <ele>370.65</ele>
        <time>2018-07-07T15:21:34.000Z</time>
      </trkpt>
      <trkpt lat="46.1924" lon="2.42253">
        <ele>369.74</ele>
        <time>2018-07-07T15:21:36.000Z</time>
      </trkpt>
      <trkpt lat="46.19251" lon="2.42257">
        <ele>369.16</ele>
        <time>2018-07-07T15:21:38.000Z</time>
      </trkpt>
      <trkpt lat="46.1926" lon="2.4226">
        <ele>368.29</ele>
        <time>2018-07-07T15:21:40.000Z</time>
      </trkpt>
      <trkpt lat="46.1927" lon="2.42263">
        <ele>367.48</ele>
        <time>2018-07-07T15:21:42.000Z</time>
      </trkpt>
      <trkpt lat="46.19284" lon="2.42265">
        <ele>366.6</ele>
        <time>2018-07-07T15:21:45.000Z</time>
      </trkpt>
      <trkpt lat="46.19294" lon="2.42268">
        <ele>366.4</ele>
        <time>2018-07-07T15:21:47.000Z</time>
      </trkpt>
      <trkpt lat="46.19304" lon="2.42271">
        <ele>366.1</ele>
        <time>2018-07-07T15:21:49.000Z</time>
      </trkpt>
      <trkpt lat="46.19313" lon="2.42275">
        <ele>365.34</ele>
        <time>2018-07-07T15:21:51.000Z</time>
      </trkpt>
      <trkpt lat="46.19323" lon="2.42278">
        <ele>365.08</ele>
        <time>2018-07-07T15:21:53.000Z</time>
      </trkpt>
      <trkpt lat="46.19333" lon="2.42281">
        <ele>364.53</ele>
        <time>2018-07-07T15:21:55.000Z</time>
      </trkpt>
      <trkpt lat="46.19343" lon="2.42283">
        <ele>363.84</ele>
        <time>2018-07-07T15:21:57.000Z</time>
      </trkpt>
      <trkpt lat="46.19353" lon="2.42285">
        <ele>363.47</ele>
        <time>2018-07-07T15:21:59.000Z</time>
      </trkpt>
      <trkpt lat="46.19363" lon="2.42287">
        <ele>363.02</ele>
        <time>2018-07-07T15:22:01.000Z</time>
      </trkpt>
      <trkpt lat="46.19373" lon="2.4229">
        <ele>362.59</ele>
        <time>2018-07-07T15:22:03.000Z</time>
      </trkpt>
      <trkpt lat="46.19381" lon="2.42294">
        <ele>362.19</ele>
        <time>2018-07-07T15:22:05.000Z</time>
      </trkpt>
      <trkpt lat="46.19394" lon="2.423">
        <ele>362.26</ele>
        <time>2018-07-07T15:22:08.000Z</time>
      </trkpt>
      <trkpt lat="46.19403" lon="2.42305">
        <ele>362.32</ele>
        <time>2018-07-07T15:22:10.000Z</time>
      </trkpt>
      <trkpt lat="46.19412" lon="2.42309">
        <ele>362.63</ele>
        <time>2018-07-07T15:22:12.000Z</time>
      </trkpt>
      <trkpt lat="46.19424" lon="2.42315">
        <ele>363.24</ele>
        <time>2018-07-07T15:22:15.000Z</time>
      </trkpt>
      <trkpt lat="46.19434" lon="2.42321">
        <ele>364.17</ele>
        <time>2018-07-07T15:22:18.000Z</time>
      </trkpt>
      <trkpt lat="46.19445" lon="2.42324">
        <ele>364.49</ele>
        <time>2018-07-07T15:22:21.000Z</time>
      </trkpt>
      <trkpt lat="46.19455" lon="2.42328">
        <ele>365.73</ele>
        <time>2018-07-07T15:22:24.000Z</time>
      </trkpt>
      <trkpt lat="46.19463" lon="2.42338">
        <ele>367.4</ele>
        <time>2018-07-07T15:22:27.000Z</time>
      </trkpt>
      <trkpt lat="46.19467" lon="2.4235">
        <ele>370.28</ele>
        <time>2018-07-07T15:22:30.000Z</time>
      </trkpt>
      <trkpt lat="46.19474" lon="2.42364">
        <ele>373.36</ele>
        <time>2018-07-07T15:22:33.000Z</time>
      </trkpt>
      <trkpt lat="46.19482" lon="2.42371">
        <ele>374.8</ele>
        <time>2018-07-07T15:22:35.000Z</time>
      </trkpt>
      <trkpt lat="46.19491" lon="2.42377">
        <ele>375.57</ele>
        <time>2018-07-07T15:22:37.000Z</time>
      </trkpt>
      <trkpt lat="46.19501" lon="2.42381">
        <ele>375.82</ele>
        <time>2018-07-07T15:22:39.000Z</time>
      </trkpt>
      <trkpt lat="46.19511" lon="2.4238">
        <ele>376.38</ele>
        <time>2018-07-07T15:22:42.000Z</time>
      </trkpt>
      <trkpt lat="46.19519" lon="2.42372">
        <ele>377.28</ele>
        <time>2018-07-07T15:22:45.000Z</time>
      </trkpt>
      <trkpt lat="46.19527" lon="2.42364">
        <ele>378.09</ele>
        <time>2018-07-07T15:22:47.000Z</time>
      </trkpt>
      <trkpt lat="46.1954" lon="2.42356">
        <ele>379.03</ele>
        <time>2018-07-07T15:22:49.000Z</time>
      </trkpt>
      <trkpt lat="46.19552" lon="2.4235">
        <ele>379.44</ele>
        <time>2018-07-07T15:22:51.000Z</time>
      </trkpt>
      <trkpt lat="46.19566" lon="2.42348">
        <ele>378.69</ele>
        <time>2018-07-07T15:22:54.000Z</time>
      </trkpt>
      <trkpt lat="46.19578" lon="2.42343">
        <ele>378.05</ele>
        <time>2018-07-07T15:22:57.000Z</time>
      </trkpt>
      <trkpt lat="46.1959" lon="2.42336">
        <ele>377.7</ele>
        <time>2018-07-07T15:23:00.000Z</time>
      </trkpt>
      <trkpt lat="46.19601" lon="2.42329">
        <ele>376.86</ele>
        <time>2018-07-07T15:23:03.000Z</time>
      </trkpt>
      <trkpt lat="46.1961" lon="2.42322">
        <ele>376.12</ele>
        <time>2018-07-07T15:23:06.000Z</time>
      </trkpt>
      <trkpt lat="46.1962" lon="2.42312">
        <ele>374.89</ele>
        <time>2018-07-07T15:23:09.000Z</time>
      </trkpt>
      <trkpt lat="46.19631" lon="2.42303">
        <ele>374.38</ele>
        <time>2018-07-07T15:23:12.000Z</time>
      </trkpt>
      <trkpt lat="46.19641" lon="2.42294">
        <ele>375.19</ele>
        <time>2018-07-07T15:23:15.000Z</time>
      </trkpt>
      <trkpt lat="46.1965" lon="2.42281">
        <ele>378.35</ele>
        <time>2018-07-07T15:23:18.000Z</time>
      </trkpt>
      <trkpt lat="46.19661" lon="2.42271">
        <ele>379.74</ele>
        <time>2018-07-07T15:23:21.000Z</time>
      </trkpt>
      <trkpt lat="46.19666" lon="2.4226">
        <ele>380.65</ele>
        <time>2018-07-07T15:23:23.000Z</time>
      </trkpt>
      <trkpt lat="46.19671" lon="2.42248">
        <ele>381.77</ele>
        <time>2018-07-07T15:23:25.000Z</time>
      </trkpt>
      <trkpt lat="46.19675" lon="2.42235">
        <ele>382.83</ele>
        <time>2018-07-07T15:23:27.000Z</time>
      </trkpt>
      <trkpt lat="46.19679" lon="2.42223">
        <ele>384.63</ele>
        <time>2018-07-07T15:23:29.000Z</time>
      </trkpt>
      <trkpt lat="46.19684" lon="2.42212">
        <ele>386.51</ele>
        <time>2018-07-07T15:23:31.000Z</time>
      </trkpt>
      <trkpt lat="46.19692" lon="2.42199">
        <ele>387.76</ele>
        <time>2018-07-07T15:23:33.000Z</time>
      </trkpt>
      <trkpt lat="46.19698" lon="2.42185">
        <ele>390.29</ele>
        <time>2018-07-07T15:23:35.000Z</time>
      </trkpt>
      <trkpt lat="46.19705" lon="2.42173">
        <ele>392.87</ele>
        <time>2018-07-07T15:23:37.000Z</time>
      </trkpt>
      <trkpt lat="46.19712" lon="2.4216">
        <ele>396.51</ele>
        <time>2018-07-07T15:23:40.000Z</time>
      </trkpt>
      <trkpt lat="46.19721" lon="2.42148">
        <ele>398.67</ele>
        <time>2018-07-07T15:23:43.000Z</time>
      </trkpt>
      <trkpt lat="46.19729" lon="2.42141">
        <ele>399.02</ele>
        <time>2018-07-07T15:23:45.000Z</time>
      </trkpt>
      <trkpt lat="46.19739" lon="2.42131">
        <ele>400.03</ele>
        <time>2018-07-07T15:23:48.000Z</time>
      </trkpt>
      <trkpt lat="46.19745" lon="2.4212">
        <ele>402.12</ele>
        <time>2018-07-07T15:23:51.000Z</time>
      </trkpt>
      <trkpt lat="46.19756" lon="2.42111">
        <ele>402.83</ele>
        <time>2018-07-07T15:23:54.000Z</time>
      </trkpt>
      <trkpt lat="46.19766" lon="2.42102">
        <ele>403.25</ele>
        <time>2018-07-07T15:23:57.000Z</time>
      </trkpt>
      <trkpt lat="46.19777" lon="2.42098">
        <ele>402.57</ele>
        <time>2018-07-07T15:24:00.000Z</time>
      </trkpt>
      <trkpt lat="46.19785" lon="2.42103">
        <ele>403.86</ele>
        <time>2018-07-07T15:24:03.000Z</time>
      </trkpt>
      <trkpt lat="46.19791" lon="2.42116">
        <ele>406.55</ele>
        <time>2018-07-07T15:24:06.000Z</time>
      </trkpt>
      <trkpt lat="46.19796" lon="2.42133">
        <ele>409.64</ele>
        <time>2018-07-07T15:24:09.000Z</time>
      </trkpt>
      <trkpt lat="46.19801" lon="2.42144">
        <ele>410.32</ele>
        <time>2018-07-07T15:24:11.000Z</time>
      </trkpt>
      <trkpt lat="46.19806" lon="2.42156">
        <ele>411.03</ele>
        <time>2018-07-07T15:24:13.000Z</time>
      </trkpt>
      <trkpt lat="46.19812" lon="2.42168">
        <ele>411.62</ele>
        <time>2018-07-07T15:24:15.000Z</time>
      </trkpt>
      <trkpt lat="46.19821" lon="2.42183">
        <ele>412.15</ele>
        <time>2018-07-07T15:24:18.000Z</time>
      </trkpt>
      <trkpt lat="46.1983" lon="2.42191">
        <ele>413.61</ele>
        <time>2018-07-07T15:24:21.000Z</time>
      </trkpt>
      <trkpt lat="46.19833" lon="2.42204">
        <ele>417.37</ele>
        <time>2018-07-07T15:24:27.000Z</time>
      </trkpt>
      <trkpt lat="46.19845" lon="2.42208">
        <ele>419.61</ele>
        <time>2018-07-07T15:24:30.000Z</time>
      </trkpt>
      <trkpt lat="46.19854" lon="2.42212">
        <ele>420.69</ele>
        <time>2018-07-07T15:24:32.000Z</time>
      </trkpt>
      <trkpt lat="46.19865" lon="2.42213">
        <ele>421.92</ele>
        <time>2018-07-07T15:24:34.000Z</time>
      </trkpt>
      <trkpt lat="46.19879" lon="2.4221">
        <ele>423.67</ele>
        <time>2018-07-07T15:24:37.000Z</time>
      </trkpt>
      <trkpt lat="46.19891" lon="2.42212">
        <ele>424.3</ele>
        <time>2018-07-07T15:24:39.000Z</time>
      </trkpt>
      <trkpt lat="46.199" lon="2.42215">
        <ele>424.08</ele>
        <time>2018-07-07T15:24:41.000Z</time>
      </trkpt>
      <trkpt lat="46.19909" lon="2.42218">
        <ele>423.32</ele>
        <time>2018-07-07T15:24:43.000Z</time>
      </trkpt>
      <trkpt lat="46.1992" lon="2.42222">
        <ele>422.22</ele>
        <time>2018-07-07T15:24:46.000Z</time>
      </trkpt>
      <trkpt lat="46.19931" lon="2.42223">
        <ele>422.2</ele>
        <time>2018-07-07T15:24:49.000Z</time>
      </trkpt>
      <trkpt lat="46.19941" lon="2.42224">
        <ele>422.26</ele>
        <time>2018-07-07T15:24:52.000Z</time>
      </trkpt>
      <trkpt lat="46.19951" lon="2.4222">
        <ele>422.48</ele>
        <time>2018-07-07T15:24:55.000Z</time>
      </trkpt>
      <trkpt lat="46.19962" lon="2.42216">
        <ele>423.47</ele>
        <time>2018-07-07T15:24:58.000Z</time>
      </trkpt>
      <trkpt lat="46.19974" lon="2.42212">
        <ele>424.43</ele>
        <time>2018-07-07T15:25:01.000Z</time>
      </trkpt>
      <trkpt lat="46.19983" lon="2.4221">
        <ele>425.56</ele>
        <time>2018-07-07T15:25:03.000Z</time>
      </trkpt>
      <trkpt lat="46.19995" lon="2.42203">
        <ele>427.7</ele>
        <time>2018-07-07T15:25:06.000Z</time>
      </trkpt>
      <trkpt lat="46.20005" lon="2.42195">
        <ele>429.89</ele>
        <time>2018-07-07T15:25:09.000Z</time>
      </trkpt>
      <trkpt lat="46.20015" lon="2.42189">
        <ele>431.36</ele>
        <time>2018-07-07T15:25:12.000Z</time>
      </trkpt>
      <trkpt lat="46.20023" lon="2.42182">
        <ele>432.92</ele>
        <time>2018-07-07T15:25:15.000Z</time>
      </trkpt>
      <trkpt lat="46.20032" lon="2.42176">
        <ele>433.37</ele>
        <time>2018-07-07T15:25:18.000Z</time>
      </trkpt>
      <trkpt lat="46.20042" lon="2.42173">
        <ele>433.29</ele>
        <time>2018-07-07T15:25:21.000Z</time>
      </trkpt>
      <trkpt lat="46.20054" lon="2.42171">
        <ele>434.57</ele>
        <time>2018-07-07T15:25:24.000Z</time>
      </trkpt>
      <trkpt lat="46.20067" lon="2.42182">
        <ele>435.34</ele>
        <time>2018-07-07T15:25:27.000Z</time>
      </trkpt>
      <trkpt lat="46.20073" lon="2.42194">
        <ele>437.69</ele>
        <time>2018-07-07T15:25:30.000Z</time>
      </trkpt>
      <trkpt lat="46.20074" lon="2.4221">
        <ele>441.01</ele>
        <time>2018-07-07T15:25:33.000Z</time>
      </trkpt>
      <trkpt lat="46.20074" lon="2.42223">
        <ele>444.29</ele>
        <time>2018-07-07T15:25:36.000Z</time>
      </trkpt>
      <trkpt lat="46.2007" lon="2.42238">
        <ele>447.09</ele>
        <time>2018-07-07T15:25:40.000Z</time>
      </trkpt>
      <trkpt lat="46.20069" lon="2.42253">
        <ele>447.66</ele>
        <time>2018-07-07T15:25:43.000Z</time>
      </trkpt>
      <trkpt lat="46.20067" lon="2.42269">
        <ele>447.75</ele>
        <time>2018-07-07T15:25:46.000Z</time>
      </trkpt>
      <trkpt lat="46.20065" lon="2.42287">
        <ele>446.59</ele>
        <time>2018-07-07T15:25:49.000Z</time>
      </trkpt>
      <trkpt lat="46.20063" lon="2.42302">
        <ele>446.69</ele>
        <time>2018-07-07T15:25:52.000Z</time>
      </trkpt>
      <trkpt lat="46.20061" lon="2.42317">
        <ele>447.58</ele>
        <time>2018-07-07T15:25:55.000Z</time>
      </trkpt>
      <trkpt lat="46.20058" lon="2.42334">
        <ele>448.56</ele>
        <time>2018-07-07T15:25:58.000Z</time>
      </trkpt>
      <trkpt lat="46.20057" lon="2.4235">
        <ele>449.86</ele>
        <time>2018-07-07T15:26:01.000Z</time>
      </trkpt>
      <trkpt lat="46.20059" lon="2.42364">
        <ele>449.55</ele>
        <time>2018-07-07T15:26:04.000Z</time>
      </trkpt>
      <trkpt lat="46.20059" lon="2.42377">
        <ele>449.52</ele>
        <time>2018-07-07T15:26:07.000Z</time>
      </trkpt>
      <trkpt lat="46.20067" lon="2.42388">
        <ele>450.92</ele>
        <time>2018-07-07T15:26:12.000Z</time>
      </trkpt>
      <trkpt lat="46.20075" lon="2.42396">
        <ele>452.96</ele>
        <time>2018-07-07T15:26:16.000Z</time>
      </trkpt>
      <trkpt lat="46.20085" lon="2.42402">
        <ele>455.2</ele>
        <time>2018-07-07T15:26:19.000Z</time>
      </trkpt>
      <trkpt lat="46.20095" lon="2.42403">
        <ele>456.64</ele>
        <time>2018-07-07T15:26:21.000Z</time>
      </trkpt>
      <trkpt lat="46.20106" lon="2.42402">
        <ele>457.85</ele>
        <time>2018-07-07T15:26:23.000Z</time>
      </trkpt>
      <trkpt lat="46.20119" lon="2.424">
        <ele>458.66</ele>
        <time>2018-07-07T15:26:25.000Z</time>
      </trkpt>
      <trkpt lat="46.20131" lon="2.42397">
        <ele>459.32</ele>
        <time>2018-07-07T15:26:27.000Z</time>
      </trkpt>
      <trkpt lat="46.20142" lon="2.42391">
        <ele>459.59</ele>
        <time>2018-07-07T15:26:29.000Z</time>
      </trkpt>
      <trkpt lat="46.20152" lon="2.42384">
        <ele>459.79</ele>
        <time>2018-07-07T15:26:31.000Z</time>
      </trkpt>
      <trkpt lat="46.2016" lon="2.42374">
        <ele>460.75</ele>
        <time>2018-07-07T15:26:33.000Z</time>
      </trkpt>
      <trkpt lat="46.20169" lon="2.42359">
        <ele>461.71</ele>
        <time>2018-07-07T15:26:35.000Z</time>
      </trkpt>
      <trkpt lat="46.20178" lon="2.42344">
        <ele>462.56</ele>
        <time>2018-07-07T15:26:37.000Z</time>
      </trkpt>
      <trkpt lat="46.20186" lon="2.42332">
        <ele>462.18</ele>
        <time>2018-07-07T15:26:39.000Z</time>
      </trkpt>
      <trkpt lat="46.20193" lon="2.4232">
        <ele>461.48</ele>
        <time>2018-07-07T15:26:41.000Z</time>
      </trkpt>
      <trkpt lat="46.20201" lon="2.42308">
        <ele>461.18</ele>
        <time>2018-07-07T15:26:43.000Z</time>
      </trkpt>
      <trkpt lat="46.20209" lon="2.42295">
        <ele>460.37</ele>
        <time>2018-07-07T15:26:45.000Z</time>
      </trkpt>
      <trkpt lat="46.20219" lon="2.42281">
        <ele>459.34</ele>
        <time>2018-07-07T15:26:47.000Z</time>
      </trkpt>
      <trkpt lat="46.20229" lon="2.42268">
        <ele>458.58</ele>
        <time>2018-07-07T15:26:49.000Z</time>
      </trkpt>
      <trkpt lat="46.2024" lon="2.42259">
        <ele>456.85</ele>
        <time>2018-07-07T15:26:51.000Z</time>
      </trkpt>
      <trkpt lat="46.2025" lon="2.42257">
        <ele>457.1</ele>
        <time>2018-07-07T15:26:53.000Z</time>
      </trkpt>
      <trkpt lat="46.20262" lon="2.42255">
        <ele>456.25</ele>
        <time>2018-07-07T15:26:56.000Z</time>
      </trkpt>
      <trkpt lat="46.20272" lon="2.42253">
        <ele>455.48</ele>
        <time>2018-07-07T15:26:58.000Z</time>
      </trkpt>
      <trkpt lat="46.20282" lon="2.42253">
        <ele>454.88</ele>
        <time>2018-07-07T15:27:00.000Z</time>
      </trkpt>
      <trkpt lat="46.20292" lon="2.42254">
        <ele>454.73</ele>
        <time>2018-07-07T15:27:02.000Z</time>
      </trkpt>
      <trkpt lat="46.20303" lon="2.42255">
        <ele>454.31</ele>
        <time>2018-07-07T15:27:04.000Z</time>
      </trkpt>
      <trkpt lat="46.20313" lon="2.42254">
        <ele>454.73</ele>
        <time>2018-07-07T15:27:06.000Z</time>
      </trkpt>
      <trkpt lat="46.20324" lon="2.42254">
        <ele>455.6</ele>
        <time>2018-07-07T15:27:08.000Z</time>
      </trkpt>
      <trkpt lat="46.20336" lon="2.42255">
        <ele>456.3</ele>
        <time>2018-07-07T15:27:10.000Z</time>
      </trkpt>
      <trkpt lat="46.20347" lon="2.42256">
        <ele>456.64</ele>
        <time>2018-07-07T15:27:12.000Z</time>
      </trkpt>
      <trkpt lat="46.20358" lon="2.4226">
        <ele>456.97</ele>
        <time>2018-07-07T15:27:14.000Z</time>
      </trkpt>
      <trkpt lat="46.20369" lon="2.42262">
        <ele>456.97</ele>
        <time>2018-07-07T15:27:16.000Z</time>
      </trkpt>
      <trkpt lat="46.20382" lon="2.42263">
        <ele>457.38</ele>
        <time>2018-07-07T15:27:18.000Z</time>
      </trkpt>
      <trkpt lat="46.20394" lon="2.42267">
        <ele>457.73</ele>
        <time>2018-07-07T15:27:20.000Z</time>
      </trkpt>
      <trkpt lat="46.20406" lon="2.4227">
        <ele>457.91</ele>
        <time>2018-07-07T15:27:22.000Z</time>
      </trkpt>
      <trkpt lat="46.20419" lon="2.42273">
        <ele>458.19</ele>
        <time>2018-07-07T15:27:24.000Z</time>
      </trkpt>
      <trkpt lat="46.20431" lon="2.42275">
        <ele>458.87</ele>
        <time>2018-07-07T15:27:26.000Z</time>
      </trkpt>
      <trkpt lat="46.20444" lon="2.42275">
        <ele>458.97</ele>
        <time>2018-07-07T15:27:28.000Z</time>
      </trkpt>
      <trkpt lat="46.20456" lon="2.42275">
        <ele>458.63</ele>
        <time>2018-07-07T15:27:30.000Z</time>
      </trkpt>
      <trkpt lat="46.20466" lon="2.42277">
        <ele>458.73</ele>
        <time>2018-07-07T15:27:32.000Z</time>
      </trkpt>
      <trkpt lat="46.20478" lon="2.42278">
        <ele>458.73</ele>
        <time>2018-07-07T15:27:34.000Z</time>
      </trkpt>
      <trkpt lat="46.2049" lon="2.4228">
        <ele>459.01</ele>
        <time>2018-07-07T15:27:36.000Z</time>
      </trkpt>
      <trkpt lat="46.20504" lon="2.42283">
        <ele>458.68</ele>
        <time>2018-07-07T15:27:38.000Z</time>
      </trkpt>
      <trkpt lat="46.20516" lon="2.42285">
        <ele>458.59</ele>
        <time>2018-07-07T15:27:40.000Z</time>
      </trkpt>
      <trkpt lat="46.20528" lon="2.42284">
        <ele>458.36</ele>
        <time>2018-07-07T15:27:42.000Z</time>
      </trkpt>
      <trkpt lat="46.2054" lon="2.42282">
        <ele>458.33</ele>
        <time>2018-07-07T15:27:44.000Z</time>
      </trkpt>
      <trkpt lat="46.20552" lon="2.42282">
        <ele>458.31</ele>
        <time>2018-07-07T15:27:46.000Z</time>
      </trkpt>
      <trkpt lat="46.20563" lon="2.4228">
        <ele>458.17</ele>
        <time>2018-07-07T15:27:48.000Z</time>
      </trkpt>
      <trkpt lat="46.20573" lon="2.42278">
        <ele>458.27</ele>
        <time>2018-07-07T15:27:50.000Z</time>
      </trkpt>
      <trkpt lat="46.20585" lon="2.42278">
        <ele>458.5</ele>
        <time>2018-07-07T15:27:52.000Z</time>
      </trkpt>
      <trkpt lat="46.20595" lon="2.42279">
        <ele>458.96</ele>
        <time>2018-07-07T15:27:54.000Z</time>
      </trkpt>
      <trkpt lat="46.20607" lon="2.42279">
        <ele>459.58</ele>
        <time>2018-07-07T15:27:56.000Z</time>
      </trkpt>
      <trkpt lat="46.20619" lon="2.42277">
        <ele>459.98</ele>
        <time>2018-07-07T15:27:58.000Z</time>
      </trkpt>
      <trkpt lat="46.2063" lon="2.42277">
        <ele>460.22</ele>
        <time>2018-07-07T15:28:00.000Z</time>
      </trkpt>
      <trkpt lat="46.2064" lon="2.42276">
        <ele>460.74</ele>
        <time>2018-07-07T15:28:02.000Z</time>
      </trkpt>
      <trkpt lat="46.2065" lon="2.42273">
        <ele>460.84</ele>
        <time>2018-07-07T15:28:04.000Z</time>
      </trkpt>
      <trkpt lat="46.20661" lon="2.42271">
        <ele>460.44</ele>
        <time>2018-07-07T15:28:06.000Z</time>
      </trkpt>
      <trkpt lat="46.20672" lon="2.42269">
        <ele>459.91</ele>
        <time>2018-07-07T15:28:08.000Z</time>
      </trkpt>
      <trkpt lat="46.20683" lon="2.42268">
        <ele>459.55</ele>
        <time>2018-07-07T15:28:10.000Z</time>
      </trkpt>
      <trkpt lat="46.20694" lon="2.42268">
        <ele>459.34</ele>
        <time>2018-07-07T15:28:12.000Z</time>
      </trkpt>
      <trkpt lat="46.20705" lon="2.42266">
        <ele>458.94</ele>
        <time>2018-07-07T15:28:14.000Z</time>
      </trkpt>
      <trkpt lat="46.20715" lon="2.42265">
        <ele>458.43</ele>
        <time>2018-07-07T15:28:16.000Z</time>
      </trkpt>
      <trkpt lat="46.20724" lon="2.42265">
        <ele>458.12</ele>
        <time>2018-07-07T15:28:18.000Z</time>
      </trkpt>
      <trkpt lat="46.20734" lon="2.42265">
        <ele>458.32</ele>
        <time>2018-07-07T15:28:20.000Z</time>
      </trkpt>
      <trkpt lat="46.20747" lon="2.42265">
        <ele>459.53</ele>
        <time>2018-07-07T15:28:23.000Z</time>
      </trkpt>
      <trkpt lat="46.20757" lon="2.42266">
        <ele>460.12</ele>
        <time>2018-07-07T15:28:25.000Z</time>
      </trkpt>
      <trkpt lat="46.20766" lon="2.42266">
        <ele>460.2</ele>
        <time>2018-07-07T15:28:27.000Z</time>
      </trkpt>
      <trkpt lat="46.20776" lon="2.42265">
        <ele>460.01</ele>
        <time>2018-07-07T15:28:29.000Z</time>
      </trkpt>
      <trkpt lat="46.20785" lon="2.42264">
        <ele>460.59</ele>
        <time>2018-07-07T15:28:31.000Z</time>
      </trkpt>
      <trkpt lat="46.20797" lon="2.42262">
        <ele>461.25</ele>
        <time>2018-07-07T15:28:33.000Z</time>
      </trkpt>
      <trkpt lat="46.20809" lon="2.42256">
        <ele>462.02</ele>
        <time>2018-07-07T15:28:35.000Z</time>
      </trkpt>
      <trkpt lat="46.20822" lon="2.42248">
        <ele>462.24</ele>
        <time>2018-07-07T15:28:37.000Z</time>
      </trkpt>
      <trkpt lat="46.20833" lon="2.4224">
        <ele>462.6</ele>
        <time>2018-07-07T15:28:39.000Z</time>
      </trkpt>
      <trkpt lat="46.20845" lon="2.4223">
        <ele>462.72</ele>
        <time>2018-07-07T15:28:41.000Z</time>
      </trkpt>
      <trkpt lat="46.20858" lon="2.4222">
        <ele>462.95</ele>
        <time>2018-07-07T15:28:43.000Z</time>
      </trkpt>
      <trkpt lat="46.20873" lon="2.4221">
        <ele>463.62</ele>
        <time>2018-07-07T15:28:45.000Z</time>
      </trkpt>
      <trkpt lat="46.20889" lon="2.42201">
        <ele>463.77</ele>
        <time>2018-07-07T15:28:47.000Z</time>
      </trkpt>
      <trkpt lat="46.20905" lon="2.42191">
        <ele>463.54</ele>
        <time>2018-07-07T15:28:49.000Z</time>
      </trkpt>
      <trkpt lat="46.2092" lon="2.42184">
        <ele>462.82</ele>
        <time>2018-07-07T15:28:51.000Z</time>
      </trkpt>
      <trkpt lat="46.20935" lon="2.42177">
        <ele>461.87</ele>
        <time>2018-07-07T15:28:53.000Z</time>
      </trkpt>
      <trkpt lat="46.20948" lon="2.4217">
        <ele>460.98</ele>
        <time>2018-07-07T15:28:55.000Z</time>
      </trkpt>
      <trkpt lat="46.20961" lon="2.42166">
        <ele>460.29</ele>
        <time>2018-07-07T15:28:57.000Z</time>
      </trkpt>
      <trkpt lat="46.20976" lon="2.4216">
        <ele>459.73</ele>
        <time>2018-07-07T15:28:59.000Z</time>
      </trkpt>
      <trkpt lat="46.20992" lon="2.42154">
        <ele>459.34</ele>
        <time>2018-07-07T15:29:01.000Z</time>
      </trkpt>
      <trkpt lat="46.21009" lon="2.42146">
        <ele>458.97</ele>
        <time>2018-07-07T15:29:03.000Z</time>
      </trkpt>
      <trkpt lat="46.21025" lon="2.4214">
        <ele>458.56</ele>
        <time>2018-07-07T15:29:05.000Z</time>
      </trkpt>
      <trkpt lat="46.21039" lon="2.42131">
        <ele>458.28</ele>
        <time>2018-07-07T15:29:07.000Z</time>
      </trkpt>
      <trkpt lat="46.21054" lon="2.42122">
        <ele>458.63</ele>
        <time>2018-07-07T15:29:09.000Z</time>
      </trkpt>
      <trkpt lat="46.21069" lon="2.42115">
        <ele>457.89</ele>
        <time>2018-07-07T15:29:11.000Z</time>
      </trkpt>
      <trkpt lat="46.21082" lon="2.42108">
        <ele>457.18</ele>
        <time>2018-07-07T15:29:13.000Z</time>
      </trkpt>
      <trkpt lat="46.21095" lon="2.42103">
        <ele>457.11</ele>
        <time>2018-07-07T15:29:15.000Z</time>
      </trkpt>
      <trkpt lat="46.21108" lon="2.42096">
        <ele>457.38</ele>
        <time>2018-07-07T15:29:17.000Z</time>
      </trkpt>
      <trkpt lat="46.21118" lon="2.42088">
        <ele>457.93</ele>
        <time>2018-07-07T15:29:19.000Z</time>
      </trkpt>
      <trkpt lat="46.21128" lon="2.4208">
        <ele>458.76</ele>
        <time>2018-07-07T15:29:21.000Z</time>
      </trkpt>
      <trkpt lat="46.21137" lon="2.42073">
        <ele>459.59</ele>
        <time>2018-07-07T15:29:23.000Z</time>
      </trkpt>
      <trkpt lat="46.21147" lon="2.42066">
        <ele>460.68</ele>
        <time>2018-07-07T15:29:25.000Z</time>
      </trkpt>
      <trkpt lat="46.21155" lon="2.4206">
        <ele>461.28</ele>
        <time>2018-07-07T15:29:27.000Z</time>
      </trkpt>
      <trkpt lat="46.21164" lon="2.42052">
        <ele>461.78</ele>
        <time>2018-07-07T15:29:29.000Z</time>
      </trkpt>
      <trkpt lat="46.21175" lon="2.42044">
        <ele>462.93</ele>
        <time>2018-07-07T15:29:32.000Z</time>
      </trkpt>
      <trkpt lat="46.21184" lon="2.42038">
        <ele>463.54</ele>
        <time>2018-07-07T15:29:34.000Z</time>
      </trkpt>
      <trkpt lat="46.21193" lon="2.42032">
        <ele>463.88</ele>
        <time>2018-07-07T15:29:36.000Z</time>
      </trkpt>
      <trkpt lat="46.21201" lon="2.42026">
        <ele>464.04</ele>
        <time>2018-07-07T15:29:38.000Z</time>
      </trkpt>
      <trkpt lat="46.2121" lon="2.42019">
        <ele>464.38</ele>
        <time>2018-07-07T15:29:40.000Z</time>
      </trkpt>
      <trkpt lat="46.21218" lon="2.42013">
        <ele>464.74</ele>
        <time>2018-07-07T15:29:42.000Z</time>
      </trkpt>
      <trkpt lat="46.21227" lon="2.42006">
        <ele>464.65</ele>
        <time>2018-07-07T15:29:44.000Z</time>
      </trkpt>
      <trkpt lat="46.21236" lon="2.41998">
        <ele>464.86</ele>
        <time>2018-07-07T15:29:46.000Z</time>
      </trkpt>
      <trkpt lat="46.21246" lon="2.4199">
        <ele>465.24</ele>
        <time>2018-07-07T15:29:48.000Z</time>
      </trkpt>
      <trkpt lat="46.21257" lon="2.41982">
        <ele>465.66</ele>
        <time>2018-07-07T15:29:50.000Z</time>
      </trkpt>
      <trkpt lat="46.21267" lon="2.41974">
        <ele>465.83</ele>
        <time>2018-07-07T15:29:52.000Z</time>
      </trkpt>
      <trkpt lat="46.21277" lon="2.41965">
        <ele>465.85</ele>
        <time>2018-07-07T15:29:54.000Z</time>
      </trkpt>
      <trkpt lat="46.21288" lon="2.41956">
        <ele>465.53</ele>
        <time>2018-07-07T15:29:56.000Z</time>
      </trkpt>
      <trkpt lat="46.21298" lon="2.41949">
        <ele>465.4</ele>
        <time>2018-07-07T15:29:58.000Z</time>
      </trkpt>
      <trkpt lat="46.21307" lon="2.41942">
        <ele>465.45</ele>
        <time>2018-07-07T15:30:00.000Z</time>
      </trkpt>
      <trkpt lat="46.21317" lon="2.41934">
        <ele>465.43</ele>
        <time>2018-07-07T15:30:02.000Z</time>
      </trkpt>
      <trkpt lat="46.21326" lon="2.41927">
        <ele>465.77</ele>
        <time>2018-07-07T15:30:04.000Z</time>
      </trkpt>
      <trkpt lat="46.21337" lon="2.41919">
        <ele>466.15</ele>
        <time>2018-07-07T15:30:06.000Z</time>
      </trkpt>
      <trkpt lat="46.21347" lon="2.4191">
        <ele>466.57</ele>
        <time>2018-07-07T15:30:08.000Z</time>
      </trkpt>
      <trkpt lat="46.21357" lon="2.41901">
        <ele>466.79</ele>
        <time>2018-07-07T15:30:10.000Z</time>
      </trkpt>
      <trkpt lat="46.21367" lon="2.41892">
        <ele>466.9</ele>
        <time>2018-07-07T15:30:12.000Z</time>
      </trkpt>
      <trkpt lat="46.21378" lon="2.41885">
        <ele>467</ele>
        <time>2018-07-07T15:30:14.000Z</time>
      </trkpt>
      <trkpt lat="46.21388" lon="2.41877">
        <ele>467.05</ele>
        <time>2018-07-07T15:30:16.000Z</time>
      </trkpt>
      <trkpt lat="46.21401" lon="2.41871">
        <ele>466.87</ele>
        <time>2018-07-07T15:30:18.000Z</time>
      </trkpt>
      <trkpt lat="46.21414" lon="2.41863">
        <ele>466.86</ele>
        <time>2018-07-07T15:30:20.000Z</time>
      </trkpt>
      <trkpt lat="46.21428" lon="2.41852">
        <ele>466.77</ele>
        <time>2018-07-07T15:30:22.000Z</time>
      </trkpt>
      <trkpt lat="46.21442" lon="2.41841">
        <ele>466.64</ele>
        <time>2018-07-07T15:30:24.000Z</time>
      </trkpt>
      <trkpt lat="46.21456" lon="2.4183">
        <ele>466.35</ele>
        <time>2018-07-07T15:30:26.000Z</time>
      </trkpt>
      <trkpt lat="46.21471" lon="2.41817">
        <ele>466.28</ele>
        <time>2018-07-07T15:30:28.000Z</time>
      </trkpt>
      <trkpt lat="46.21485" lon="2.41805">
        <ele>466.25</ele>
        <time>2018-07-07T15:30:30.000Z</time>
      </trkpt>
      <trkpt lat="46.215" lon="2.41794">
        <ele>466.2</ele>
        <time>2018-07-07T15:30:32.000Z</time>
      </trkpt>
      <trkpt lat="46.21513" lon="2.41783">
        <ele>466.1</ele>
        <time>2018-07-07T15:30:34.000Z</time>
      </trkpt>
      <trkpt lat="46.21527" lon="2.41773">
        <ele>465.99</ele>
        <time>2018-07-07T15:30:36.000Z</time>
      </trkpt>
      <trkpt lat="46.21541" lon="2.4176">
        <ele>465.77</ele>
        <time>2018-07-07T15:30:38.000Z</time>
      </trkpt>
      <trkpt lat="46.21556" lon="2.41749">
        <ele>465.45</ele>
        <time>2018-07-07T15:30:40.000Z</time>
      </trkpt>
      <trkpt lat="46.21571" lon="2.41739">
        <ele>465.13</ele>
        <time>2018-07-07T15:30:42.000Z</time>
      </trkpt>
      <trkpt lat="46.21585" lon="2.41728">
        <ele>465.28</ele>
        <time>2018-07-07T15:30:44.000Z</time>
      </trkpt>
      <trkpt lat="46.21599" lon="2.41719">
        <ele>465.69</ele>
        <time>2018-07-07T15:30:46.000Z</time>
      </trkpt>
      <trkpt lat="46.21613" lon="2.41709">
        <ele>465.93</ele>
        <time>2018-07-07T15:30:48.000Z</time>
      </trkpt>
      <trkpt lat="46.21626" lon="2.41698">
        <ele>466.14</ele>
        <time>2018-07-07T15:30:50.000Z</time>
      </trkpt>
      <trkpt lat="46.2164" lon="2.41687">
        <ele>466.48</ele>
        <time>2018-07-07T15:30:52.000Z</time>
      </trkpt>
      <trkpt lat="46.21655" lon="2.41676">
        <ele>466.66</ele>
        <time>2018-07-07T15:30:54.000Z</time>
      </trkpt>
      <trkpt lat="46.21668" lon="2.41665">
        <ele>466.82</ele>
        <time>2018-07-07T15:30:56.000Z</time>
      </trkpt>
      <trkpt lat="46.21682" lon="2.41655">
        <ele>466.78</ele>
        <time>2018-07-07T15:30:58.000Z</time>
      </trkpt>
      <trkpt lat="46.21695" lon="2.41643">
        <ele>466.58</ele>
        <time>2018-07-07T15:31:00.000Z</time>
      </trkpt>
      <trkpt lat="46.21708" lon="2.41632">
        <ele>466.6</ele>
        <time>2018-07-07T15:31:02.000Z</time>
      </trkpt>
      <trkpt lat="46.21722" lon="2.4162">
        <ele>466.44</ele>
        <time>2018-07-07T15:31:04.000Z</time>
      </trkpt>
      <trkpt lat="46.21738" lon="2.41608">
        <ele>466.43</ele>
        <time>2018-07-07T15:31:06.000Z</time>
      </trkpt>
      <trkpt lat="46.21755" lon="2.41597">
        <ele>466.16</ele>
        <time>2018-07-07T15:31:08.000Z</time>
      </trkpt>
      <trkpt lat="46.21763" lon="2.41591">
        <ele>466.13</ele>
        <time>2018-07-07T15:31:09.000Z</time>
      </trkpt>
      <trkpt lat="46.21772" lon="2.41585">
        <ele>466</ele>
        <time>2018-07-07T15:31:10.000Z</time>
      </trkpt>
      <trkpt lat="46.2178" lon="2.41579">
        <ele>465.98</ele>
        <time>2018-07-07T15:31:11.000Z</time>
      </trkpt>
      <trkpt lat="46.21788" lon="2.41573">
        <ele>465.96</ele>
        <time>2018-07-07T15:31:12.000Z</time>
      </trkpt>
      <trkpt lat="46.21795" lon="2.41566">
        <ele>465.98</ele>
        <time>2018-07-07T15:31:13.000Z</time>
      </trkpt>
      <trkpt lat="46.21803" lon="2.41558">
        <ele>465.88</ele>
        <time>2018-07-07T15:31:14.000Z</time>
      </trkpt>
      <trkpt lat="46.21811" lon="2.41549">
        <ele>465.6</ele>
        <time>2018-07-07T15:31:15.000Z</time>
      </trkpt>
      <trkpt lat="46.21818" lon="2.41541">
        <ele>465.59</ele>
        <time>2018-07-07T15:31:16.000Z</time>
      </trkpt>
      <trkpt lat="46.21825" lon="2.4153">
        <ele>465.69</ele>
        <time>2018-07-07T15:31:17.000Z</time>
      </trkpt>
      <trkpt lat="46.21831" lon="2.41517">
        <ele>465.68</ele>
        <time>2018-07-07T15:31:18.000Z</time>
      </trkpt>
      <trkpt lat="46.21838" lon="2.41505">
        <ele>465.72</ele>
        <time>2018-07-07T15:31:19.000Z</time>
      </trkpt>
      <trkpt lat="46.21844" lon="2.41493">
        <ele>465.75</ele>
        <time>2018-07-07T15:31:20.000Z</time>
      </trkpt>
      <trkpt lat="46.21848" lon="2.41478">
        <ele>465.72</ele>
        <time>2018-07-07T15:31:21.000Z</time>
      </trkpt>
      <trkpt lat="46.21852" lon="2.41464">
        <ele>465.54</ele>
        <time>2018-07-07T15:31:22.000Z</time>
      </trkpt>
      <trkpt lat="46.21857" lon="2.41451">
        <ele>465.22</ele>
        <time>2018-07-07T15:31:23.000Z</time>
      </trkpt>
      <trkpt lat="46.21864" lon="2.41439">
        <ele>464.51</ele>
        <time>2018-07-07T15:31:24.000Z</time>
      </trkpt>
      <trkpt lat="46.21869" lon="2.41428">
        <ele>464.06</ele>
        <time>2018-07-07T15:31:25.000Z</time>
      </trkpt>
      <trkpt lat="46.21877" lon="2.41416">
        <ele>463.24</ele>
        <time>2018-07-07T15:31:26.000Z</time>
      </trkpt>
      <trkpt lat="46.21886" lon="2.41402">
        <ele>462.4</ele>
        <time>2018-07-07T15:31:27.000Z</time>
      </trkpt>
      <trkpt lat="46.21896" lon="2.4139">
        <ele>461.71</ele>
        <time>2018-07-07T15:31:28.000Z</time>
      </trkpt>
      <trkpt lat="46.21906" lon="2.4138">
        <ele>460.93</ele>
        <time>2018-07-07T15:31:29.000Z</time>
      </trkpt>
      <trkpt lat="46.21914" lon="2.41368">
        <ele>460.63</ele>
        <time>2018-07-07T15:31:30.000Z</time>
      </trkpt>
      <trkpt lat="46.21923" lon="2.4136">
        <ele>460.53</ele>
        <time>2018-07-07T15:31:31.000Z</time>
      </trkpt>
      <trkpt lat="46.21931" lon="2.41353">
        <ele>460.35</ele>
        <time>2018-07-07T15:31:32.000Z</time>
      </trkpt>
      <trkpt lat="46.21939" lon="2.41346">
        <ele>459.95</ele>
        <time>2018-07-07T15:31:33.000Z</time>
      </trkpt>
      <trkpt lat="46.21953" lon="2.41334">
        <ele>459.49</ele>
        <time>2018-07-07T15:31:35.000Z</time>
      </trkpt>
      <trkpt lat="46.21966" lon="2.41324">
        <ele>458.85</ele>
        <time>2018-07-07T15:31:37.000Z</time>
      </trkpt>
      <trkpt lat="46.21978" lon="2.41313">
        <ele>458.45</ele>
        <time>2018-07-07T15:31:39.000Z</time>
      </trkpt>
      <trkpt lat="46.2199" lon="2.41303">
        <ele>457.95</ele>
        <time>2018-07-07T15:31:41.000Z</time>
      </trkpt>
      <trkpt lat="46.22002" lon="2.41291">
        <ele>457.66</ele>
        <time>2018-07-07T15:31:43.000Z</time>
      </trkpt>
      <trkpt lat="46.22012" lon="2.4128">
        <ele>457.52</ele>
        <time>2018-07-07T15:31:45.000Z</time>
      </trkpt>
      <trkpt lat="46.22022" lon="2.4127">
        <ele>457.71</ele>
        <time>2018-07-07T15:31:47.000Z</time>
      </trkpt>
      <trkpt lat="46.22031" lon="2.41259">
        <ele>458.24</ele>
        <time>2018-07-07T15:31:49.000Z</time>
      </trkpt>
      <trkpt lat="46.22041" lon="2.41249">
        <ele>458.71</ele>
        <time>2018-07-07T15:31:51.000Z</time>
      </trkpt>
      <trkpt lat="46.22049" lon="2.41238">
        <ele>458.74</ele>
        <time>2018-07-07T15:31:53.000Z</time>
      </trkpt>
      <trkpt lat="46.22057" lon="2.41228">
        <ele>458.66</ele>
        <time>2018-07-07T15:31:55.000Z</time>
      </trkpt>
      <trkpt lat="46.22065" lon="2.41218">
        <ele>458.4</ele>
        <time>2018-07-07T15:31:57.000Z</time>
      </trkpt>
      <trkpt lat="46.22073" lon="2.41211">
        <ele>457.91</ele>
        <time>2018-07-07T15:31:59.000Z</time>
      </trkpt>
      <trkpt lat="46.22081" lon="2.41203">
        <ele>457.38</ele>
        <time>2018-07-07T15:32:01.000Z</time>
      </trkpt>
      <trkpt lat="46.2209" lon="2.41194">
        <ele>457.13</ele>
        <time>2018-07-07T15:32:03.000Z</time>
      </trkpt>
      <trkpt lat="46.221" lon="2.41184">
        <ele>457.01</ele>
        <time>2018-07-07T15:32:05.000Z</time>
      </trkpt>
      <trkpt lat="46.22108" lon="2.41178">
        <ele>457.07</ele>
        <time>2018-07-07T15:32:07.000Z</time>
      </trkpt>
      <trkpt lat="46.22119" lon="2.41169">
        <ele>457.57</ele>
        <time>2018-07-07T15:32:10.000Z</time>
      </trkpt>
      <trkpt lat="46.22128" lon="2.4116">
        <ele>457.55</ele>
        <time>2018-07-07T15:32:13.000Z</time>
      </trkpt>
      <trkpt lat="46.22136" lon="2.41153">
        <ele>457.24</ele>
        <time>2018-07-07T15:32:15.000Z</time>
      </trkpt>
      <trkpt lat="46.22147" lon="2.41143">
        <ele>456.78</ele>
        <time>2018-07-07T15:32:18.000Z</time>
      </trkpt>
      <trkpt lat="46.22157" lon="2.41131">
        <ele>456.84</ele>
        <time>2018-07-07T15:32:21.000Z</time>
      </trkpt>
      <trkpt lat="46.22166" lon="2.41119">
        <ele>457.2</ele>
        <time>2018-07-07T15:32:24.000Z</time>
      </trkpt>
      <trkpt lat="46.22176" lon="2.41108">
        <ele>457.54</ele>
        <time>2018-07-07T15:32:27.000Z</time>
      </trkpt>
      <trkpt lat="46.22184" lon="2.411">
        <ele>457.59</ele>
        <time>2018-07-07T15:32:29.000Z</time>
      </trkpt>
      <trkpt lat="46.22192" lon="2.41092">
        <ele>457.76</ele>
        <time>2018-07-07T15:32:31.000Z</time>
      </trkpt>
      <trkpt lat="46.22202" lon="2.41085">
        <ele>458.57</ele>
        <time>2018-07-07T15:32:34.000Z</time>
      </trkpt>
      <trkpt lat="46.22211" lon="2.41079">
        <ele>459.44</ele>
        <time>2018-07-07T15:32:37.000Z</time>
      </trkpt>
      <trkpt lat="46.2222" lon="2.41073">
        <ele>460.75</ele>
        <time>2018-07-07T15:32:40.000Z</time>
      </trkpt>
      <trkpt lat="46.22231" lon="2.41062">
        <ele>461.93</ele>
        <time>2018-07-07T15:32:43.000Z</time>
      </trkpt>
      <trkpt lat="46.22238" lon="2.41054">
        <ele>462.69</ele>
        <time>2018-07-07T15:32:45.000Z</time>
      </trkpt>
      <trkpt lat="46.22245" lon="2.41046">
        <ele>463.19</ele>
        <time>2018-07-07T15:32:47.000Z</time>
      </trkpt>
      <trkpt lat="46.22253" lon="2.41033">
        <ele>464.32</ele>
        <time>2018-07-07T15:32:50.000Z</time>
      </trkpt>
      <trkpt lat="46.22263" lon="2.41019">
        <ele>465.05</ele>
        <time>2018-07-07T15:32:53.000Z</time>
      </trkpt>
      <trkpt lat="46.22271" lon="2.41009">
        <ele>466.44</ele>
        <time>2018-07-07T15:32:56.000Z</time>
      </trkpt>
      <trkpt lat="46.22281" lon="2.41001">
        <ele>467.22</ele>
        <time>2018-07-07T15:32:59.000Z</time>
      </trkpt>
      <trkpt lat="46.2229" lon="2.40988">
        <ele>467.8</ele>
        <time>2018-07-07T15:33:02.000Z</time>
      </trkpt>
      <trkpt lat="46.22301" lon="2.40976">
        <ele>468.53</ele>
        <time>2018-07-07T15:33:05.000Z</time>
      </trkpt>
      <trkpt lat="46.22309" lon="2.40968">
        <ele>469.71</ele>
        <time>2018-07-07T15:33:07.000Z</time>
      </trkpt>
      <trkpt lat="46.22317" lon="2.40961">
        <ele>470.81</ele>
        <time>2018-07-07T15:33:09.000Z</time>
      </trkpt>
      <trkpt lat="46.22326" lon="2.40954">
        <ele>471.55</ele>
        <time>2018-07-07T15:33:11.000Z</time>
      </trkpt>
      <trkpt lat="46.22335" lon="2.40948">
        <ele>472.16</ele>
        <time>2018-07-07T15:33:13.000Z</time>
      </trkpt>
      <trkpt lat="46.22345" lon="2.40938">
        <ele>472.96</ele>
        <time>2018-07-07T15:33:15.000Z</time>
      </trkpt>
      <trkpt lat="46.22353" lon="2.40929">
        <ele>473.52</ele>
        <time>2018-07-07T15:33:17.000Z</time>
      </trkpt>
      <trkpt lat="46.22361" lon="2.40918">
        <ele>473.9</ele>
        <time>2018-07-07T15:33:19.000Z</time>
      </trkpt>
      <trkpt lat="46.22369" lon="2.40908">
        <ele>474.86</ele>
        <time>2018-07-07T15:33:21.000Z</time>
      </trkpt>
      <trkpt lat="46.22379" lon="2.40896">
        <ele>476.67</ele>
        <time>2018-07-07T15:33:24.000Z</time>
      </trkpt>
      <trkpt lat="46.22389" lon="2.40886">
        <ele>477.82</ele>
        <time>2018-07-07T15:33:27.000Z</time>
      </trkpt>
      <trkpt lat="46.224" lon="2.40877">
        <ele>478.91</ele>
        <time>2018-07-07T15:33:30.000Z</time>
      </trkpt>
      <trkpt lat="46.22407" lon="2.40868">
        <ele>479.55</ele>
        <time>2018-07-07T15:33:32.000Z</time>
      </trkpt>
      <trkpt lat="46.22414" lon="2.4086">
        <ele>480.17</ele>
        <time>2018-07-07T15:33:34.000Z</time>
      </trkpt>
      <trkpt lat="46.22422" lon="2.40851">
        <ele>480.71</ele>
        <time>2018-07-07T15:33:36.000Z</time>
      </trkpt>
      <trkpt lat="46.2243" lon="2.40843">
        <ele>481.37</ele>
        <time>2018-07-07T15:33:38.000Z</time>
      </trkpt>
      <trkpt lat="46.22439" lon="2.40834">
        <ele>481.89</ele>
        <time>2018-07-07T15:33:40.000Z</time>
      </trkpt>
      <trkpt lat="46.22449" lon="2.40824">
        <ele>482.16</ele>
        <time>2018-07-07T15:33:42.000Z</time>
      </trkpt>
      <trkpt lat="46.22459" lon="2.40814">
        <ele>482.29</ele>
        <time>2018-07-07T15:33:44.000Z</time>
      </trkpt>
      <trkpt lat="46.22469" lon="2.40804">
        <ele>482.41</ele>
        <time>2018-07-07T15:33:46.000Z</time>
      </trkpt>
      <trkpt lat="46.22478" lon="2.40793">
        <ele>483</ele>
        <time>2018-07-07T15:33:48.000Z</time>
      </trkpt>
      <trkpt lat="46.22487" lon="2.40779">
        <ele>482.55</ele>
        <time>2018-07-07T15:33:50.000Z</time>
      </trkpt>
      <trkpt lat="46.22498" lon="2.40764">
        <ele>481.98</ele>
        <time>2018-07-07T15:33:52.000Z</time>
      </trkpt>
      <trkpt lat="46.22509" lon="2.40748">
        <ele>481.53</ele>
        <time>2018-07-07T15:33:54.000Z</time>
      </trkpt>
      <trkpt lat="46.2252" lon="2.40733">
        <ele>480.94</ele>
        <time>2018-07-07T15:33:56.000Z</time>
      </trkpt>
      <trkpt lat="46.22532" lon="2.40718">
        <ele>480.48</ele>
        <time>2018-07-07T15:33:58.000Z</time>
      </trkpt>
      <trkpt lat="46.22545" lon="2.40702">
        <ele>479.95</ele>
        <time>2018-07-07T15:34:00.000Z</time>
      </trkpt>
      <trkpt lat="46.22558" lon="2.40685">
        <ele>479.34</ele>
        <time>2018-07-07T15:34:02.000Z</time>
      </trkpt>
      <trkpt lat="46.22565" lon="2.40676">
        <ele>479.03</ele>
        <time>2018-07-07T15:34:03.000Z</time>
      </trkpt>
      <trkpt lat="46.22572" lon="2.40666">
        <ele>478.65</ele>
        <time>2018-07-07T15:34:04.000Z</time>
      </trkpt>
      <trkpt lat="46.22578" lon="2.40656">
        <ele>478.29</ele>
        <time>2018-07-07T15:34:05.000Z</time>
      </trkpt>
      <trkpt lat="46.22585" lon="2.40646">
        <ele>478.1</ele>
        <time>2018-07-07T15:34:06.000Z</time>
      </trkpt>
      <trkpt lat="46.22592" lon="2.40636">
        <ele>477.96</ele>
        <time>2018-07-07T15:34:07.000Z</time>
      </trkpt>
      <trkpt lat="46.22599" lon="2.40626">
        <ele>477.77</ele>
        <time>2018-07-07T15:34:08.000Z</time>
      </trkpt>
      <trkpt lat="46.22606" lon="2.40616">
        <ele>477.63</ele>
        <time>2018-07-07T15:34:09.000Z</time>
      </trkpt>
      <trkpt lat="46.22613" lon="2.40605">
        <ele>477.38</ele>
        <time>2018-07-07T15:34:10.000Z</time>
      </trkpt>
      <trkpt lat="46.2262" lon="2.40595">
        <ele>477.07</ele>
        <time>2018-07-07T15:34:11.000Z</time>
      </trkpt>
      <trkpt lat="46.22626" lon="2.40585">
        <ele>476.83</ele>
        <time>2018-07-07T15:34:12.000Z</time>
      </trkpt>
      <trkpt lat="46.22633" lon="2.40575">
        <ele>476.62</ele>
        <time>2018-07-07T15:34:13.000Z</time>
      </trkpt>
      <trkpt lat="46.2264" lon="2.40565">
        <ele>476.5</ele>
        <time>2018-07-07T15:34:14.000Z</time>
      </trkpt>
      <trkpt lat="46.22647" lon="2.40555">
        <ele>476.48</ele>
        <time>2018-07-07T15:34:15.000Z</time>
      </trkpt>
      <trkpt lat="46.22654" lon="2.40545">
        <ele>476.37</ele>
        <time>2018-07-07T15:34:16.000Z</time>
      </trkpt>
      <trkpt lat="46.22661" lon="2.40535">
        <ele>476.21</ele>
        <time>2018-07-07T15:34:17.000Z</time>
      </trkpt>
      <trkpt lat="46.22668" lon="2.40526">
        <ele>475.9</ele>
        <time>2018-07-07T15:34:18.000Z</time>
      </trkpt>
      <trkpt lat="46.22675" lon="2.40517">
        <ele>475.49</ele>
        <time>2018-07-07T15:34:19.000Z</time>
      </trkpt>
      <trkpt lat="46.22683" lon="2.40508">
        <ele>475.07</ele>
        <time>2018-07-07T15:34:20.000Z</time>
      </trkpt>
      <trkpt lat="46.22691" lon="2.405">
        <ele>474.55</ele>
        <time>2018-07-07T15:34:21.000Z</time>
      </trkpt>
      <trkpt lat="46.22698" lon="2.4049">
        <ele>473.9</ele>
        <time>2018-07-07T15:34:22.000Z</time>
      </trkpt>
      <trkpt lat="46.22706" lon="2.40481">
        <ele>473.4</ele>
        <time>2018-07-07T15:34:23.000Z</time>
      </trkpt>
      <trkpt lat="46.22714" lon="2.40471">
        <ele>472.91</ele>
        <time>2018-07-07T15:34:24.000Z</time>
      </trkpt>
      <trkpt lat="46.22723" lon="2.40461">
        <ele>472.44</ele>
        <time>2018-07-07T15:34:25.000Z</time>
      </trkpt>
      <trkpt lat="46.22733" lon="2.40452">
        <ele>472.05</ele>
        <time>2018-07-07T15:34:26.000Z</time>
      </trkpt>
      <trkpt lat="46.22743" lon="2.40444">
        <ele>471.63</ele>
        <time>2018-07-07T15:34:27.000Z</time>
      </trkpt>
      <trkpt lat="46.22752" lon="2.40436">
        <ele>471.36</ele>
        <time>2018-07-07T15:34:28.000Z</time>
      </trkpt>
      <trkpt lat="46.22763" lon="2.40428">
        <ele>470.96</ele>
        <time>2018-07-07T15:34:29.000Z</time>
      </trkpt>
      <trkpt lat="46.22773" lon="2.4042">
        <ele>470.67</ele>
        <time>2018-07-07T15:34:30.000Z</time>
      </trkpt>
      <trkpt lat="46.22783" lon="2.40412">
        <ele>470.49</ele>
        <time>2018-07-07T15:34:31.000Z</time>
      </trkpt>
      <trkpt lat="46.22793" lon="2.40404">
        <ele>470.01</ele>
        <time>2018-07-07T15:34:32.000Z</time>
      </trkpt>
      <trkpt lat="46.22802" lon="2.40395">
        <ele>469.21</ele>
        <time>2018-07-07T15:34:33.000Z</time>
      </trkpt>
      <trkpt lat="46.22812" lon="2.40387">
        <ele>468.37</ele>
        <time>2018-07-07T15:34:34.000Z</time>
      </trkpt>
      <trkpt lat="46.22821" lon="2.40379">
        <ele>467.72</ele>
        <time>2018-07-07T15:34:35.000Z</time>
      </trkpt>
      <trkpt lat="46.22831" lon="2.4037">
        <ele>467.21</ele>
        <time>2018-07-07T15:34:36.000Z</time>
      </trkpt>
      <trkpt lat="46.22841" lon="2.40361">
        <ele>466.79</ele>
        <time>2018-07-07T15:34:37.000Z</time>
      </trkpt>
      <trkpt lat="46.22851" lon="2.40353">
        <ele>466.48</ele>
        <time>2018-07-07T15:34:38.000Z</time>
      </trkpt>
      <trkpt lat="46.22861" lon="2.40345">
        <ele>466.19</ele>
        <time>2018-07-07T15:34:39.000Z</time>
      </trkpt>
      <trkpt lat="46.22871" lon="2.40335">
        <ele>465.82</ele>
        <time>2018-07-07T15:34:40.000Z</time>
      </trkpt>
      <trkpt lat="46.2288" lon="2.40324">
        <ele>465.17</ele>
        <time>2018-07-07T15:34:41.000Z</time>
      </trkpt>
      <trkpt lat="46.22889" lon="2.40314">
        <ele>464.48</ele>
        <time>2018-07-07T15:34:42.000Z</time>
      </trkpt>
      <trkpt lat="46.22898" lon="2.40302">
        <ele>463.89</ele>
        <time>2018-07-07T15:34:43.000Z</time>
      </trkpt>
      <trkpt lat="46.22906" lon="2.40291">
        <ele>463.13</ele>
        <time>2018-07-07T15:34:44.000Z</time>
      </trkpt>
      <trkpt lat="46.22915" lon="2.40278">
        <ele>462.28</ele>
        <time>2018-07-07T15:34:45.000Z</time>
      </trkpt>
      <trkpt lat="46.22923" lon="2.40266">
        <ele>461.72</ele>
        <time>2018-07-07T15:34:46.000Z</time>
      </trkpt>
      <trkpt lat="46.22931" lon="2.40253">
        <ele>461.14</ele>
        <time>2018-07-07T15:34:47.000Z</time>
      </trkpt>
      <trkpt lat="46.22939" lon="2.4024">
        <ele>460.65</ele>
        <time>2018-07-07T15:34:48.000Z</time>
      </trkpt>
      <trkpt lat="46.22946" lon="2.40228">
        <ele>460.17</ele>
        <time>2018-07-07T15:34:49.000Z</time>
      </trkpt>
      <trkpt lat="46.22953" lon="2.40216">
        <ele>459.7</ele>
        <time>2018-07-07T15:34:50.000Z</time>
      </trkpt>
      <trkpt lat="46.22961" lon="2.40204">
        <ele>459.19</ele>
        <time>2018-07-07T15:34:51.000Z</time>
      </trkpt>
      <trkpt lat="46.22969" lon="2.40193">
        <ele>458.67</ele>
        <time>2018-07-07T15:34:52.000Z</time>
      </trkpt>
      <trkpt lat="46.22976" lon="2.40182">
        <ele>458.15</ele>
        <time>2018-07-07T15:34:53.000Z</time>
      </trkpt>
      <trkpt lat="46.22982" lon="2.40173">
        <ele>457.5</ele>
        <time>2018-07-07T15:34:54.000Z</time>
      </trkpt>
      <trkpt lat="46.22989" lon="2.40164">
        <ele>456.81</ele>
        <time>2018-07-07T15:34:55.000Z</time>
      </trkpt>
      <trkpt lat="46.22996" lon="2.40155">
        <ele>456.18</ele>
        <time>2018-07-07T15:34:56.000Z</time>
      </trkpt>
      <trkpt lat="46.23009" lon="2.40141">
        <ele>455.06</ele>
        <time>2018-07-07T15:34:58.000Z</time>
      </trkpt>
      <trkpt lat="46.23021" lon="2.40129">
        <ele>454.55</ele>
        <time>2018-07-07T15:35:00.000Z</time>
      </trkpt>
      <trkpt lat="46.23032" lon="2.40112">
        <ele>454.22</ele>
        <time>2018-07-07T15:35:02.000Z</time>
      </trkpt>
      <trkpt lat="46.23043" lon="2.40095">
        <ele>453.56</ele>
        <time>2018-07-07T15:35:04.000Z</time>
      </trkpt>
      <trkpt lat="46.23055" lon="2.40079">
        <ele>452.85</ele>
        <time>2018-07-07T15:35:06.000Z</time>
      </trkpt>
      <trkpt lat="46.23066" lon="2.40063">
        <ele>452.16</ele>
        <time>2018-07-07T15:35:08.000Z</time>
      </trkpt>
      <trkpt lat="46.23076" lon="2.40045">
        <ele>451.57</ele>
        <time>2018-07-07T15:35:10.000Z</time>
      </trkpt>
      <trkpt lat="46.23086" lon="2.40029">
        <ele>451.14</ele>
        <time>2018-07-07T15:35:12.000Z</time>
      </trkpt>
      <trkpt lat="46.23095" lon="2.40013">
        <ele>451.07</ele>
        <time>2018-07-07T15:35:14.000Z</time>
      </trkpt>
      <trkpt lat="46.23103" lon="2.39999">
        <ele>450.98</ele>
        <time>2018-07-07T15:35:16.000Z</time>
      </trkpt>
      <trkpt lat="46.23111" lon="2.39984">
        <ele>450.76</ele>
        <time>2018-07-07T15:35:18.000Z</time>
      </trkpt>
      <trkpt lat="46.23119" lon="2.39966">
        <ele>450.26</ele>
        <time>2018-07-07T15:35:20.000Z</time>
      </trkpt>
      <trkpt lat="46.23126" lon="2.3995">
        <ele>449.74</ele>
        <time>2018-07-07T15:35:22.000Z</time>
      </trkpt>
      <trkpt lat="46.23135" lon="2.39937">
        <ele>449.57</ele>
        <time>2018-07-07T15:35:24.000Z</time>
      </trkpt>
      <trkpt lat="46.23143" lon="2.39926">
        <ele>449.64</ele>
        <time>2018-07-07T15:35:26.000Z</time>
      </trkpt>
      <trkpt lat="46.23152" lon="2.39914">
        <ele>449.65</ele>
        <time>2018-07-07T15:35:28.000Z</time>
      </trkpt>
      <trkpt lat="46.2316" lon="2.39903">
        <ele>449.88</ele>
        <time>2018-07-07T15:35:30.000Z</time>
      </trkpt>
      <trkpt lat="46.23168" lon="2.39891">
        <ele>450.3</ele>
        <time>2018-07-07T15:35:32.000Z</time>
      </trkpt>
      <trkpt lat="46.23175" lon="2.39877">
        <ele>450.67</ele>
        <time>2018-07-07T15:35:34.000Z</time>
      </trkpt>
      <trkpt lat="46.23183" lon="2.39865">
        <ele>450.83</ele>
        <time>2018-07-07T15:35:36.000Z</time>
      </trkpt>
      <trkpt lat="46.2319" lon="2.39853">
        <ele>450.72</ele>
        <time>2018-07-07T15:35:38.000Z</time>
      </trkpt>
      <trkpt lat="46.23198" lon="2.3984">
        <ele>450.8</ele>
        <time>2018-07-07T15:35:40.000Z</time>
      </trkpt>
      <trkpt lat="46.23206" lon="2.39827">
        <ele>451.28</ele>
        <time>2018-07-07T15:35:42.000Z</time>
      </trkpt>
      <trkpt lat="46.23212" lon="2.39814">
        <ele>452.15</ele>
        <time>2018-07-07T15:35:44.000Z</time>
      </trkpt>
      <trkpt lat="46.23219" lon="2.39803">
        <ele>452.65</ele>
        <time>2018-07-07T15:35:46.000Z</time>
      </trkpt>
      <trkpt lat="46.23225" lon="2.39791">
        <ele>452.87</ele>
        <time>2018-07-07T15:35:48.000Z</time>
      </trkpt>
      <trkpt lat="46.23232" lon="2.3978">
        <ele>452.96</ele>
        <time>2018-07-07T15:35:50.000Z</time>
      </trkpt>
      <trkpt lat="46.23238" lon="2.39767">
        <ele>452.99</ele>
        <time>2018-07-07T15:35:52.000Z</time>
      </trkpt>
      <trkpt lat="46.23246" lon="2.39753">
        <ele>453.27</ele>
        <time>2018-07-07T15:35:54.000Z</time>
      </trkpt>
      <trkpt lat="46.23253" lon="2.39741">
        <ele>453.37</ele>
        <time>2018-07-07T15:35:56.000Z</time>
      </trkpt>
      <trkpt lat="46.23261" lon="2.3973">
        <ele>453.4</ele>
        <time>2018-07-07T15:35:58.000Z</time>
      </trkpt>
      <trkpt lat="46.23269" lon="2.39719">
        <ele>452.96</ele>
        <time>2018-07-07T15:36:00.000Z</time>
      </trkpt>
      <trkpt lat="46.23276" lon="2.39709">
        <ele>452.84</ele>
        <time>2018-07-07T15:36:02.000Z</time>
      </trkpt>
      <trkpt lat="46.23284" lon="2.39697">
        <ele>452.67</ele>
        <time>2018-07-07T15:36:05.000Z</time>
      </trkpt>
      <trkpt lat="46.23291" lon="2.39684">
        <ele>452.46</ele>
        <time>2018-07-07T15:36:08.000Z</time>
      </trkpt>
      <trkpt lat="46.23299" lon="2.39674">
        <ele>452.42</ele>
        <time>2018-07-07T15:36:10.000Z</time>
      </trkpt>
      <trkpt lat="46.23307" lon="2.39663">
        <ele>452.49</ele>
        <time>2018-07-07T15:36:12.000Z</time>
      </trkpt>
      <trkpt lat="46.23315" lon="2.3965">
        <ele>452.6</ele>
        <time>2018-07-07T15:36:14.000Z</time>
      </trkpt>
      <trkpt lat="46.23322" lon="2.39636">
        <ele>452.72</ele>
        <time>2018-07-07T15:36:16.000Z</time>
      </trkpt>
      <trkpt lat="46.23328" lon="2.39621">
        <ele>452.74</ele>
        <time>2018-07-07T15:36:18.000Z</time>
      </trkpt>
      <trkpt lat="46.23334" lon="2.39608">
        <ele>452.97</ele>
        <time>2018-07-07T15:36:20.000Z</time>
      </trkpt>
      <trkpt lat="46.23339" lon="2.39594">
        <ele>453.2</ele>
        <time>2018-07-07T15:36:22.000Z</time>
      </trkpt>
      <trkpt lat="46.23343" lon="2.39581">
        <ele>453.65</ele>
        <time>2018-07-07T15:36:24.000Z</time>
      </trkpt>
      <trkpt lat="46.23348" lon="2.39569">
        <ele>454.07</ele>
        <time>2018-07-07T15:36:26.000Z</time>
      </trkpt>
      <trkpt lat="46.23353" lon="2.39556">
        <ele>454.53</ele>
        <time>2018-07-07T15:36:28.000Z</time>
      </trkpt>
      <trkpt lat="46.23359" lon="2.39538">
        <ele>454.45</ele>
        <time>2018-07-07T15:36:30.000Z</time>
      </trkpt>
      <trkpt lat="46.23365" lon="2.39525">
        <ele>454.12</ele>
        <time>2018-07-07T15:36:32.000Z</time>
      </trkpt>
      <trkpt lat="46.23373" lon="2.39515">
        <ele>454.22</ele>
        <time>2018-07-07T15:36:34.000Z</time>
      </trkpt>
      <trkpt lat="46.2338" lon="2.39507">
        <ele>454.5</ele>
        <time>2018-07-07T15:36:36.000Z</time>
      </trkpt>
      <trkpt lat="46.23387" lon="2.39499">
        <ele>455.39</ele>
        <time>2018-07-07T15:36:38.000Z</time>
      </trkpt>
      <trkpt lat="46.23396" lon="2.39486">
        <ele>456.62</ele>
        <time>2018-07-07T15:36:41.000Z</time>
      </trkpt>
      <trkpt lat="46.23405" lon="2.39475">
        <ele>456.91</ele>
        <time>2018-07-07T15:36:43.000Z</time>
      </trkpt>
      <trkpt lat="46.23412" lon="2.39464">
        <ele>457.49</ele>
        <time>2018-07-07T15:36:45.000Z</time>
      </trkpt>
      <trkpt lat="46.23422" lon="2.39452">
        <ele>458.52</ele>
        <time>2018-07-07T15:36:48.000Z</time>
      </trkpt>
      <trkpt lat="46.2343" lon="2.39438">
        <ele>459.45</ele>
        <time>2018-07-07T15:36:51.000Z</time>
      </trkpt>
      <trkpt lat="46.23439" lon="2.39424">
        <ele>461.18</ele>
        <time>2018-07-07T15:36:54.000Z</time>
      </trkpt>
      <trkpt lat="46.23446" lon="2.39412">
        <ele>461.88</ele>
        <time>2018-07-07T15:36:56.000Z</time>
      </trkpt>
      <trkpt lat="46.23452" lon="2.39401">
        <ele>462.77</ele>
        <time>2018-07-07T15:36:58.000Z</time>
      </trkpt>
      <trkpt lat="46.23457" lon="2.39389">
        <ele>463.2</ele>
        <time>2018-07-07T15:37:00.000Z</time>
      </trkpt>
      <trkpt lat="46.23463" lon="2.39377">
        <ele>464.14</ele>
        <time>2018-07-07T15:37:02.000Z</time>
      </trkpt>
      <trkpt lat="46.23467" lon="2.39365">
        <ele>464.51</ele>
        <time>2018-07-07T15:37:04.000Z</time>
      </trkpt>
      <trkpt lat="46.23472" lon="2.39351">
        <ele>465.15</ele>
        <time>2018-07-07T15:37:06.000Z</time>
      </trkpt>
      <trkpt lat="46.23476" lon="2.39338">
        <ele>465.46</ele>
        <time>2018-07-07T15:37:08.000Z</time>
      </trkpt>
      <trkpt lat="46.2348" lon="2.39324">
        <ele>465.55</ele>
        <time>2018-07-07T15:37:10.000Z</time>
      </trkpt>
      <trkpt lat="46.23484" lon="2.39312">
        <ele>465.58</ele>
        <time>2018-07-07T15:37:12.000Z</time>
      </trkpt>
      <trkpt lat="46.23489" lon="2.39298">
        <ele>466.21</ele>
        <time>2018-07-07T15:37:14.000Z</time>
      </trkpt>
      <trkpt lat="46.23494" lon="2.39286">
        <ele>466.98</ele>
        <time>2018-07-07T15:37:16.000Z</time>
      </trkpt>
      <trkpt lat="46.235" lon="2.39275">
        <ele>467.9</ele>
        <time>2018-07-07T15:37:18.000Z</time>
      </trkpt>
      <trkpt lat="46.23505" lon="2.39263">
        <ele>468.84</ele>
        <time>2018-07-07T15:37:20.000Z</time>
      </trkpt>
      <trkpt lat="46.23509" lon="2.3925">
        <ele>469.35</ele>
        <time>2018-07-07T15:37:22.000Z</time>
      </trkpt>
      <trkpt lat="46.23515" lon="2.39236">
        <ele>469.44</ele>
        <time>2018-07-07T15:37:24.000Z</time>
      </trkpt>
      <trkpt lat="46.23522" lon="2.39223">
        <ele>469.74</ele>
        <time>2018-07-07T15:37:26.000Z</time>
      </trkpt>
      <trkpt lat="46.2353" lon="2.3921">
        <ele>469.86</ele>
        <time>2018-07-07T15:37:28.000Z</time>
      </trkpt>
      <trkpt lat="46.23537" lon="2.39198">
        <ele>470.69</ele>
        <time>2018-07-07T15:37:30.000Z</time>
      </trkpt>
      <trkpt lat="46.23543" lon="2.39185">
        <ele>471.53</ele>
        <time>2018-07-07T15:37:32.000Z</time>
      </trkpt>
      <trkpt lat="46.2355" lon="2.39172">
        <ele>472.26</ele>
        <time>2018-07-07T15:37:34.000Z</time>
      </trkpt>
      <trkpt lat="46.23555" lon="2.39161">
        <ele>472.82</ele>
        <time>2018-07-07T15:37:36.000Z</time>
      </trkpt>
      <trkpt lat="46.23562" lon="2.39144">
        <ele>472.9</ele>
        <time>2018-07-07T15:37:39.000Z</time>
      </trkpt>
      <trkpt lat="46.23567" lon="2.39131">
        <ele>472.74</ele>
        <time>2018-07-07T15:37:41.000Z</time>
      </trkpt>
      <trkpt lat="46.23574" lon="2.39114">
        <ele>473.33</ele>
        <time>2018-07-07T15:37:43.000Z</time>
      </trkpt>
      <trkpt lat="46.2358" lon="2.39098">
        <ele>474.04</ele>
        <time>2018-07-07T15:37:45.000Z</time>
      </trkpt>
      <trkpt lat="46.23587" lon="2.39081">
        <ele>474.87</ele>
        <time>2018-07-07T15:37:47.000Z</time>
      </trkpt>
      <trkpt lat="46.23593" lon="2.39063">
        <ele>475.79</ele>
        <time>2018-07-07T15:37:49.000Z</time>
      </trkpt>
      <trkpt lat="46.236" lon="2.39047">
        <ele>477.24</ele>
        <time>2018-07-07T15:37:51.000Z</time>
      </trkpt>
      <trkpt lat="46.23606" lon="2.39032">
        <ele>478.63</ele>
        <time>2018-07-07T15:37:53.000Z</time>
      </trkpt>
      <trkpt lat="46.23614" lon="2.39016">
        <ele>479.68</ele>
        <time>2018-07-07T15:37:55.000Z</time>
      </trkpt>
      <trkpt lat="46.2362" lon="2.39001">
        <ele>480.71</ele>
        <time>2018-07-07T15:37:57.000Z</time>
      </trkpt>
      <trkpt lat="46.23624" lon="2.38987">
        <ele>481.55</ele>
        <time>2018-07-07T15:37:59.000Z</time>
      </trkpt>
      <trkpt lat="46.23629" lon="2.38975">
        <ele>482.1</ele>
        <time>2018-07-07T15:38:01.000Z</time>
      </trkpt>
      <trkpt lat="46.23633" lon="2.38957">
        <ele>482.82</ele>
        <time>2018-07-07T15:38:04.000Z</time>
      </trkpt>
      <trkpt lat="46.23639" lon="2.38944">
        <ele>483.61</ele>
        <time>2018-07-07T15:38:07.000Z</time>
      </trkpt>
      <trkpt lat="46.23644" lon="2.38932">
        <ele>483.57</ele>
        <time>2018-07-07T15:38:09.000Z</time>
      </trkpt>
      <trkpt lat="46.23649" lon="2.38921">
        <ele>483.32</ele>
        <time>2018-07-07T15:38:11.000Z</time>
      </trkpt>
      <trkpt lat="46.23654" lon="2.3891">
        <ele>483.43</ele>
        <time>2018-07-07T15:38:13.000Z</time>
      </trkpt>
      <trkpt lat="46.23661" lon="2.38895">
        <ele>483.07</ele>
        <time>2018-07-07T15:38:16.000Z</time>
      </trkpt>
      <trkpt lat="46.23667" lon="2.38878">
        <ele>482.66</ele>
        <time>2018-07-07T15:38:19.000Z</time>
      </trkpt>
      <trkpt lat="46.23671" lon="2.38866">
        <ele>482.05</ele>
        <time>2018-07-07T15:38:21.000Z</time>
      </trkpt>
      <trkpt lat="46.23676" lon="2.38855">
        <ele>481.06</ele>
        <time>2018-07-07T15:38:23.000Z</time>
      </trkpt>
      <trkpt lat="46.23681" lon="2.38842">
        <ele>480.21</ele>
        <time>2018-07-07T15:38:25.000Z</time>
      </trkpt>
      <trkpt lat="46.23687" lon="2.38827">
        <ele>479.56</ele>
        <time>2018-07-07T15:38:28.000Z</time>
      </trkpt>
      <trkpt lat="46.2369" lon="2.38813">
        <ele>480.37</ele>
        <time>2018-07-07T15:38:31.000Z</time>
      </trkpt>
      <trkpt lat="46.23694" lon="2.38798">
        <ele>481.24</ele>
        <time>2018-07-07T15:38:34.000Z</time>
      </trkpt>
      <trkpt lat="46.23698" lon="2.38786">
        <ele>481.72</ele>
        <time>2018-07-07T15:38:37.000Z</time>
      </trkpt>
      <trkpt lat="46.23705" lon="2.38772">
        <ele>482.37</ele>
        <time>2018-07-07T15:38:40.000Z</time>
      </trkpt>
      <trkpt lat="46.23712" lon="2.3876">
        <ele>483.41</ele>
        <time>2018-07-07T15:38:43.000Z</time>
      </trkpt>
      <trkpt lat="46.2372" lon="2.38746">
        <ele>484.37</ele>
        <time>2018-07-07T15:38:46.000Z</time>
      </trkpt>
      <trkpt lat="46.23726" lon="2.38735">
        <ele>485.55</ele>
        <time>2018-07-07T15:38:49.000Z</time>
      </trkpt>
      <trkpt lat="46.23732" lon="2.38723">
        <ele>486.64</ele>
        <time>2018-07-07T15:38:52.000Z</time>
      </trkpt>
      <trkpt lat="46.23737" lon="2.38709">
        <ele>487.89</ele>
        <time>2018-07-07T15:38:55.000Z</time>
      </trkpt>
      <trkpt lat="46.23743" lon="2.38693">
        <ele>488.88</ele>
        <time>2018-07-07T15:38:58.000Z</time>
      </trkpt>
      <trkpt lat="46.2375" lon="2.38677">
        <ele>489.33</ele>
        <time>2018-07-07T15:39:01.000Z</time>
      </trkpt>
      <trkpt lat="46.23756" lon="2.38667">
        <ele>489.78</ele>
        <time>2018-07-07T15:39:03.000Z</time>
      </trkpt>
      <trkpt lat="46.23764" lon="2.38657">
        <ele>489.98</ele>
        <time>2018-07-07T15:39:06.000Z</time>
      </trkpt>
      <trkpt lat="46.23774" lon="2.38648">
        <ele>490.68</ele>
        <time>2018-07-07T15:39:09.000Z</time>
      </trkpt>
      <trkpt lat="46.23784" lon="2.38645">
        <ele>491.44</ele>
        <time>2018-07-07T15:39:11.000Z</time>
      </trkpt>
      <trkpt lat="46.23794" lon="2.38646">
        <ele>492.58</ele>
        <time>2018-07-07T15:39:13.000Z</time>
      </trkpt>
      <trkpt lat="46.23804" lon="2.38645">
        <ele>492.81</ele>
        <time>2018-07-07T15:39:15.000Z</time>
      </trkpt>
      <trkpt lat="46.23813" lon="2.38643">
        <ele>492.3</ele>
        <time>2018-07-07T15:39:17.000Z</time>
      </trkpt>
      <trkpt lat="46.23826" lon="2.38644">
        <ele>491.75</ele>
        <time>2018-07-07T15:39:20.000Z</time>
      </trkpt>
      <trkpt lat="46.23835" lon="2.38644">
        <ele>491.49</ele>
        <time>2018-07-07T15:39:23.000Z</time>
      </trkpt>
      <trkpt lat="46.23846" lon="2.38644">
        <ele>491.18</ele>
        <time>2018-07-07T15:39:26.000Z</time>
      </trkpt>
      <trkpt lat="46.23858" lon="2.38647">
        <ele>491.11</ele>
        <time>2018-07-07T15:39:29.000Z</time>
      </trkpt>
      <trkpt lat="46.23868" lon="2.3865">
        <ele>491.48</ele>
        <time>2018-07-07T15:39:32.000Z</time>
      </trkpt>
      <trkpt lat="46.2388" lon="2.38653">
        <ele>491.74</ele>
        <time>2018-07-07T15:39:35.000Z</time>
      </trkpt>
      <trkpt lat="46.23889" lon="2.38654">
        <ele>491.82</ele>
        <time>2018-07-07T15:39:38.000Z</time>
      </trkpt>
      <trkpt lat="46.23898" lon="2.38656">
        <ele>491.01</ele>
        <time>2018-07-07T15:39:40.000Z</time>
      </trkpt>
      <trkpt lat="46.23906" lon="2.38663">
        <ele>489.59</ele>
        <time>2018-07-07T15:39:42.000Z</time>
      </trkpt>
      <trkpt lat="46.23918" lon="2.38668">
        <ele>489.5</ele>
        <time>2018-07-07T15:39:45.000Z</time>
      </trkpt>
      <trkpt lat="46.23928" lon="2.38669">
        <ele>489.09</ele>
        <time>2018-07-07T15:39:47.000Z</time>
      </trkpt>
      <trkpt lat="46.23937" lon="2.3867">
        <ele>488.31</ele>
        <time>2018-07-07T15:39:49.000Z</time>
      </trkpt>
      <trkpt lat="46.23949" lon="2.38669">
        <ele>487.14</ele>
        <time>2018-07-07T15:39:52.000Z</time>
      </trkpt>
      <trkpt lat="46.23961" lon="2.38668">
        <ele>485.31</ele>
        <time>2018-07-07T15:39:55.000Z</time>
      </trkpt>
      <trkpt lat="46.23972" lon="2.38667">
        <ele>484.47</ele>
        <time>2018-07-07T15:39:58.000Z</time>
      </trkpt>
      <trkpt lat="46.23984" lon="2.38665">
        <ele>483.54</ele>
        <time>2018-07-07T15:40:01.000Z</time>
      </trkpt>
      <trkpt lat="46.23996" lon="2.38668">
        <ele>483.17</ele>
        <time>2018-07-07T15:40:04.000Z</time>
      </trkpt>
      <trkpt lat="46.24009" lon="2.38672">
        <ele>484.03</ele>
        <time>2018-07-07T15:40:07.000Z</time>
      </trkpt>
      <trkpt lat="46.24018" lon="2.38673">
        <ele>483.86</ele>
        <time>2018-07-07T15:40:09.000Z</time>
      </trkpt>
      <trkpt lat="46.24028" lon="2.38681">
        <ele>484.1</ele>
        <time>2018-07-07T15:40:12.000Z</time>
      </trkpt>
      <trkpt lat="46.24036" lon="2.38688">
        <ele>483.77</ele>
        <time>2018-07-07T15:40:14.000Z</time>
      </trkpt>
      <trkpt lat="46.24045" lon="2.38693">
        <ele>483.59</ele>
        <time>2018-07-07T15:40:16.000Z</time>
      </trkpt>
      <trkpt lat="46.24054" lon="2.387">
        <ele>482.77</ele>
        <time>2018-07-07T15:40:18.000Z</time>
      </trkpt>
      <trkpt lat="46.24064" lon="2.3871">
        <ele>482.45</ele>
        <time>2018-07-07T15:40:21.000Z</time>
      </trkpt>
      <trkpt lat="46.24071" lon="2.38722">
        <ele>482.4</ele>
        <time>2018-07-07T15:40:23.000Z</time>
      </trkpt>
      <trkpt lat="46.24079" lon="2.38737">
        <ele>482.5</ele>
        <time>2018-07-07T15:40:25.000Z</time>
      </trkpt>
      <trkpt lat="46.24089" lon="2.38752">
        <ele>481.88</ele>
        <time>2018-07-07T15:40:27.000Z</time>
      </trkpt>
      <trkpt lat="46.24099" lon="2.38762">
        <ele>482.38</ele>
        <time>2018-07-07T15:40:29.000Z</time>
      </trkpt>
      <trkpt lat="46.24117" lon="2.38766">
        <ele>482.18</ele>
        <time>2018-07-07T15:40:31.000Z</time>
      </trkpt>
      <trkpt lat="46.24126" lon="2.3877">
        <ele>482.34</ele>
        <time>2018-07-07T15:40:32.000Z</time>
      </trkpt>
      <trkpt lat="46.24135" lon="2.38774">
        <ele>482.55</ele>
        <time>2018-07-07T15:40:33.000Z</time>
      </trkpt>
      <trkpt lat="46.24145" lon="2.38777">
        <ele>482.83</ele>
        <time>2018-07-07T15:40:34.000Z</time>
      </trkpt>
      <trkpt lat="46.24155" lon="2.3878">
        <ele>483.18</ele>
        <time>2018-07-07T15:40:35.000Z</time>
      </trkpt>
      <trkpt lat="46.24166" lon="2.38782">
        <ele>482.88</ele>
        <time>2018-07-07T15:40:36.000Z</time>
      </trkpt>
      <trkpt lat="46.24175" lon="2.38783">
        <ele>482.67</ele>
        <time>2018-07-07T15:40:37.000Z</time>
      </trkpt>
      <trkpt lat="46.24184" lon="2.38779">
        <ele>482.49</ele>
        <time>2018-07-07T15:40:38.000Z</time>
      </trkpt>
      <trkpt lat="46.24198" lon="2.38765">
        <ele>483.72</ele>
        <time>2018-07-07T15:40:40.000Z</time>
      </trkpt>
      <trkpt lat="46.24212" lon="2.38758">
        <ele>484.5</ele>
        <time>2018-07-07T15:40:42.000Z</time>
      </trkpt>
      <trkpt lat="46.24229" lon="2.38762">
        <ele>483.41</ele>
        <time>2018-07-07T15:40:44.000Z</time>
      </trkpt>
      <trkpt lat="46.24238" lon="2.38768">
        <ele>482.67</ele>
        <time>2018-07-07T15:40:45.000Z</time>
      </trkpt>
      <trkpt lat="46.24247" lon="2.38776">
        <ele>482.43</ele>
        <time>2018-07-07T15:40:46.000Z</time>
      </trkpt>
      <trkpt lat="46.24255" lon="2.38785">
        <ele>481.73</ele>
        <time>2018-07-07T15:40:47.000Z</time>
      </trkpt>
      <trkpt lat="46.24264" lon="2.38796">
        <ele>481.06</ele>
        <time>2018-07-07T15:40:48.000Z</time>
      </trkpt>
      <trkpt lat="46.24272" lon="2.38805">
        <ele>480.89</ele>
        <time>2018-07-07T15:40:49.000Z</time>
      </trkpt>
      <trkpt lat="46.24281" lon="2.38813">
        <ele>480.17</ele>
        <time>2018-07-07T15:40:50.000Z</time>
      </trkpt>
      <trkpt lat="46.24289" lon="2.38819">
        <ele>479.81</ele>
        <time>2018-07-07T15:40:51.000Z</time>
      </trkpt>
      <trkpt lat="46.24299" lon="2.38824">
        <ele>479.22</ele>
        <time>2018-07-07T15:40:52.000Z</time>
      </trkpt>
      <trkpt lat="46.24308" lon="2.38825">
        <ele>478.7</ele>
        <time>2018-07-07T15:40:53.000Z</time>
      </trkpt>
      <trkpt lat="46.24318" lon="2.38826">
        <ele>478.24</ele>
        <time>2018-07-07T15:40:54.000Z</time>
      </trkpt>
      <trkpt lat="46.24328" lon="2.38827">
        <ele>477.81</ele>
        <time>2018-07-07T15:40:55.000Z</time>
      </trkpt>
      <trkpt lat="46.24337" lon="2.38828">
        <ele>477.51</ele>
        <time>2018-07-07T15:40:56.000Z</time>
      </trkpt>
      <trkpt lat="46.24353" lon="2.38834">
        <ele>477.48</ele>
        <time>2018-07-07T15:40:58.000Z</time>
      </trkpt>
      <trkpt lat="46.24368" lon="2.38844">
        <ele>477.2</ele>
        <time>2018-07-07T15:41:00.000Z</time>
      </trkpt>
      <trkpt lat="46.24382" lon="2.38859">
        <ele>477.08</ele>
        <time>2018-07-07T15:41:02.000Z</time>
      </trkpt>
      <trkpt lat="46.24389" lon="2.38868">
        <ele>476.64</ele>
        <time>2018-07-07T15:41:03.000Z</time>
      </trkpt>
      <trkpt lat="46.24402" lon="2.38884">
        <ele>476.1</ele>
        <time>2018-07-07T15:41:05.000Z</time>
      </trkpt>
      <trkpt lat="46.24413" lon="2.38897">
        <ele>475.8</ele>
        <time>2018-07-07T15:41:07.000Z</time>
      </trkpt>
      <trkpt lat="46.24422" lon="2.38911">
        <ele>475.86</ele>
        <time>2018-07-07T15:41:09.000Z</time>
      </trkpt>
      <trkpt lat="46.24432" lon="2.38922">
        <ele>475.86</ele>
        <time>2018-07-07T15:41:11.000Z</time>
      </trkpt>
      <trkpt lat="46.24446" lon="2.38933">
        <ele>475.79</ele>
        <time>2018-07-07T15:41:13.000Z</time>
      </trkpt>
      <trkpt lat="46.24455" lon="2.38939">
        <ele>475.9</ele>
        <time>2018-07-07T15:41:14.000Z</time>
      </trkpt>
      <trkpt lat="46.24469" lon="2.38948">
        <ele>476.62</ele>
        <time>2018-07-07T15:41:15.999Z</time>
      </trkpt>
      <trkpt lat="46.2448" lon="2.38957">
        <ele>477.69</ele>
        <time>2018-07-07T15:41:18.000Z</time>
      </trkpt>
      <trkpt lat="46.24495" lon="2.38966">
        <ele>478.85</ele>
        <time>2018-07-07T15:41:20.000Z</time>
      </trkpt>
      <trkpt lat="46.24509" lon="2.38975">
        <ele>480.3</ele>
        <time>2018-07-07T15:41:22.000Z</time>
      </trkpt>
      <trkpt lat="46.24522" lon="2.38985">
        <ele>481.53</ele>
        <time>2018-07-07T15:41:24.000Z</time>
      </trkpt>
      <trkpt lat="46.24534" lon="2.38996">
        <ele>482.14</ele>
        <time>2018-07-07T15:41:26.000Z</time>
      </trkpt>
      <trkpt lat="46.24546" lon="2.39005">
        <ele>482.05</ele>
        <time>2018-07-07T15:41:28.000Z</time>
      </trkpt>
      <trkpt lat="46.24557" lon="2.39014">
        <ele>481.49</ele>
        <time>2018-07-07T15:41:30.000Z</time>
      </trkpt>
      <trkpt lat="46.24569" lon="2.39023">
        <ele>480.98</ele>
        <time>2018-07-07T15:41:32.000Z</time>
      </trkpt>
      <trkpt lat="46.24582" lon="2.3903">
        <ele>480.09</ele>
        <time>2018-07-07T15:41:34.000Z</time>
      </trkpt>
      <trkpt lat="46.24594" lon="2.39037">
        <ele>479.52</ele>
        <time>2018-07-07T15:41:36.000Z</time>
      </trkpt>
      <trkpt lat="46.24607" lon="2.39044">
        <ele>479.39</ele>
        <time>2018-07-07T15:41:38.000Z</time>
      </trkpt>
      <trkpt lat="46.24619" lon="2.39052">
        <ele>479.3</ele>
        <time>2018-07-07T15:41:40.000Z</time>
      </trkpt>
      <trkpt lat="46.24632" lon="2.3906">
        <ele>479.22</ele>
        <time>2018-07-07T15:41:42.000Z</time>
      </trkpt>
      <trkpt lat="46.24643" lon="2.39067">
        <ele>478.96</ele>
        <time>2018-07-07T15:41:44.000Z</time>
      </trkpt>
      <trkpt lat="46.24655" lon="2.39074">
        <ele>479.05</ele>
        <time>2018-07-07T15:41:46.000Z</time>
      </trkpt>
      <trkpt lat="46.24667" lon="2.39081">
        <ele>479.2</ele>
        <time>2018-07-07T15:41:48.000Z</time>
      </trkpt>
      <trkpt lat="46.24678" lon="2.39087">
        <ele>479.5</ele>
        <time>2018-07-07T15:41:50.000Z</time>
      </trkpt>
      <trkpt lat="46.24689" lon="2.39095">
        <ele>479.38</ele>
        <time>2018-07-07T15:41:52.000Z</time>
      </trkpt>
      <trkpt lat="46.247" lon="2.39104">
        <ele>478.61</ele>
        <time>2018-07-07T15:41:54.000Z</time>
      </trkpt>
      <trkpt lat="46.24712" lon="2.39113">
        <ele>477.78</ele>
        <time>2018-07-07T15:41:56.000Z</time>
      </trkpt>
      <trkpt lat="46.24723" lon="2.39122">
        <ele>476.98</ele>
        <time>2018-07-07T15:41:58.000Z</time>
      </trkpt>
      <trkpt lat="46.24734" lon="2.39129">
        <ele>476.6</ele>
        <time>2018-07-07T15:42:00.000Z</time>
      </trkpt>
      <trkpt lat="46.24746" lon="2.39139">
        <ele>476.32</ele>
        <time>2018-07-07T15:42:02.000Z</time>
      </trkpt>
      <trkpt lat="46.24759" lon="2.39148">
        <ele>475.1</ele>
        <time>2018-07-07T15:42:04.000Z</time>
      </trkpt>
      <trkpt lat="46.24769" lon="2.39156">
        <ele>474.19</ele>
        <time>2018-07-07T15:42:06.000Z</time>
      </trkpt>
      <trkpt lat="46.24779" lon="2.39164">
        <ele>473.25</ele>
        <time>2018-07-07T15:42:08.000Z</time>
      </trkpt>
      <trkpt lat="46.2479" lon="2.3917">
        <ele>472.66</ele>
        <time>2018-07-07T15:42:10.000Z</time>
      </trkpt>
      <trkpt lat="46.24802" lon="2.39173">
        <ele>473.86</ele>
        <time>2018-07-07T15:42:12.000Z</time>
      </trkpt>
      <trkpt lat="46.24815" lon="2.39175">
        <ele>473.81</ele>
        <time>2018-07-07T15:42:14.000Z</time>
      </trkpt>
      <trkpt lat="46.24827" lon="2.39175">
        <ele>474.71</ele>
        <time>2018-07-07T15:42:16.000Z</time>
      </trkpt>
      <trkpt lat="46.24839" lon="2.39176">
        <ele>475.63</ele>
        <time>2018-07-07T15:42:18.000Z</time>
      </trkpt>
      <trkpt lat="46.24851" lon="2.39179">
        <ele>475.95</ele>
        <time>2018-07-07T15:42:20.000Z</time>
      </trkpt>
      <trkpt lat="46.24862" lon="2.39184">
        <ele>475.69</ele>
        <time>2018-07-07T15:42:22.000Z</time>
      </trkpt>
      <trkpt lat="46.24875" lon="2.39192">
        <ele>474.96</ele>
        <time>2018-07-07T15:42:24.000Z</time>
      </trkpt>
      <trkpt lat="46.24889" lon="2.39205">
        <ele>474.23</ele>
        <time>2018-07-07T15:42:26.000Z</time>
      </trkpt>
      <trkpt lat="46.24901" lon="2.39221">
        <ele>473.96</ele>
        <time>2018-07-07T15:42:28.000Z</time>
      </trkpt>
      <trkpt lat="46.24912" lon="2.39237">
        <ele>473.54</ele>
        <time>2018-07-07T15:42:30.000Z</time>
      </trkpt>
      <trkpt lat="46.24924" lon="2.39253">
        <ele>473.22</ele>
        <time>2018-07-07T15:42:32.000Z</time>
      </trkpt>
      <trkpt lat="46.24936" lon="2.39265">
        <ele>473.25</ele>
        <time>2018-07-07T15:42:34.000Z</time>
      </trkpt>
      <trkpt lat="46.24947" lon="2.39278">
        <ele>473.93</ele>
        <time>2018-07-07T15:42:36.000Z</time>
      </trkpt>
      <trkpt lat="46.2496" lon="2.39291">
        <ele>474.13</ele>
        <time>2018-07-07T15:42:38.000Z</time>
      </trkpt>
      <trkpt lat="46.24972" lon="2.39303">
        <ele>474.54</ele>
        <time>2018-07-07T15:42:40.000Z</time>
      </trkpt>
      <trkpt lat="46.24984" lon="2.39314">
        <ele>474.91</ele>
        <time>2018-07-07T15:42:42.000Z</time>
      </trkpt>
      <trkpt lat="46.24998" lon="2.39325">
        <ele>474.63</ele>
        <time>2018-07-07T15:42:44.000Z</time>
      </trkpt>
      <trkpt lat="46.25011" lon="2.39335">
        <ele>474.96</ele>
        <time>2018-07-07T15:42:46.000Z</time>
      </trkpt>
      <trkpt lat="46.25024" lon="2.39345">
        <ele>474.6</ele>
        <time>2018-07-07T15:42:48.000Z</time>
      </trkpt>
      <trkpt lat="46.25036" lon="2.39356">
        <ele>474.13</ele>
        <time>2018-07-07T15:42:50.000Z</time>
      </trkpt>
      <trkpt lat="46.25047" lon="2.3937">
        <ele>473.86</ele>
        <time>2018-07-07T15:42:52.000Z</time>
      </trkpt>
      <trkpt lat="46.25058" lon="2.39383">
        <ele>473.63</ele>
        <time>2018-07-07T15:42:54.000Z</time>
      </trkpt>
      <trkpt lat="46.25069" lon="2.39397">
        <ele>473.77</ele>
        <time>2018-07-07T15:42:56.000Z</time>
      </trkpt>
      <trkpt lat="46.25079" lon="2.3941">
        <ele>473.64</ele>
        <time>2018-07-07T15:42:58.000Z</time>
      </trkpt>
      <trkpt lat="46.25089" lon="2.39424">
        <ele>473.55</ele>
        <time>2018-07-07T15:43:00.000Z</time>
      </trkpt>
      <trkpt lat="46.25097" lon="2.3944">
        <ele>472.46</ele>
        <time>2018-07-07T15:43:02.000Z</time>
      </trkpt>
      <trkpt lat="46.25103" lon="2.39456">
        <ele>472.02</ele>
        <time>2018-07-07T15:43:04.000Z</time>
      </trkpt>
      <trkpt lat="46.25107" lon="2.39471">
        <ele>471.2</ele>
        <time>2018-07-07T15:43:06.000Z</time>
      </trkpt>
      <trkpt lat="46.25111" lon="2.39486">
        <ele>471.01</ele>
        <time>2018-07-07T15:43:08.000Z</time>
      </trkpt>
      <trkpt lat="46.25116" lon="2.39501">
        <ele>470.77</ele>
        <time>2018-07-07T15:43:10.000Z</time>
      </trkpt>
      <trkpt lat="46.25121" lon="2.39518">
        <ele>470.72</ele>
        <time>2018-07-07T15:43:12.000Z</time>
      </trkpt>
      <trkpt lat="46.25126" lon="2.39536">
        <ele>470.32</ele>
        <time>2018-07-07T15:43:14.000Z</time>
      </trkpt>
      <trkpt lat="46.25131" lon="2.39552">
        <ele>469.93</ele>
        <time>2018-07-07T15:43:16.000Z</time>
      </trkpt>
      <trkpt lat="46.25136" lon="2.3957">
        <ele>469.88</ele>
        <time>2018-07-07T15:43:18.000Z</time>
      </trkpt>
      <trkpt lat="46.25141" lon="2.39587">
        <ele>469.7</ele>
        <time>2018-07-07T15:43:20.000Z</time>
      </trkpt>
      <trkpt lat="46.25146" lon="2.39606">
        <ele>469.83</ele>
        <time>2018-07-07T15:43:22.000Z</time>
      </trkpt>
      <trkpt lat="46.25151" lon="2.39624">
        <ele>469.62</ele>
        <time>2018-07-07T15:43:24.000Z</time>
      </trkpt>
      <trkpt lat="46.25157" lon="2.39642">
        <ele>469.92</ele>
        <time>2018-07-07T15:43:26.000Z</time>
      </trkpt>
      <trkpt lat="46.25163" lon="2.3966">
        <ele>470.07</ele>
        <time>2018-07-07T15:43:28.000Z</time>
      </trkpt>
      <trkpt lat="46.25169" lon="2.39676">
        <ele>470.39</ele>
        <time>2018-07-07T15:43:30.000Z</time>
      </trkpt>
      <trkpt lat="46.25177" lon="2.39695">
        <ele>470.17</ele>
        <time>2018-07-07T15:43:32.000Z</time>
      </trkpt>
      <trkpt lat="46.25186" lon="2.39712">
        <ele>469.96</ele>
        <time>2018-07-07T15:43:34.000Z</time>
      </trkpt>
      <trkpt lat="46.25196" lon="2.3973">
        <ele>469.51</ele>
        <time>2018-07-07T15:43:36.000Z</time>
      </trkpt>
      <trkpt lat="46.25207" lon="2.39747">
        <ele>469.08</ele>
        <time>2018-07-07T15:43:38.000Z</time>
      </trkpt>
      <trkpt lat="46.25218" lon="2.39764">
        <ele>468.96</ele>
        <time>2018-07-07T15:43:40.000Z</time>
      </trkpt>
      <trkpt lat="46.2523" lon="2.3978">
        <ele>469.01</ele>
        <time>2018-07-07T15:43:42.000Z</time>
      </trkpt>
      <trkpt lat="46.25242" lon="2.39795">
        <ele>469.35</ele>
        <time>2018-07-07T15:43:44.000Z</time>
      </trkpt>
      <trkpt lat="46.25254" lon="2.39807">
        <ele>469.88</ele>
        <time>2018-07-07T15:43:46.000Z</time>
      </trkpt>
      <trkpt lat="46.25267" lon="2.39819">
        <ele>469.9</ele>
        <time>2018-07-07T15:43:48.000Z</time>
      </trkpt>
      <trkpt lat="46.25279" lon="2.3983">
        <ele>469.44</ele>
        <time>2018-07-07T15:43:50.000Z</time>
      </trkpt>
      <trkpt lat="46.25291" lon="2.39839">
        <ele>469.05</ele>
        <time>2018-07-07T15:43:52.000Z</time>
      </trkpt>
      <trkpt lat="46.25304" lon="2.39847">
        <ele>468.57</ele>
        <time>2018-07-07T15:43:54.000Z</time>
      </trkpt>
      <trkpt lat="46.25317" lon="2.39855">
        <ele>468.3</ele>
        <time>2018-07-07T15:43:56.000Z</time>
      </trkpt>
      <trkpt lat="46.25329" lon="2.39864">
        <ele>467.91</ele>
        <time>2018-07-07T15:43:58.000Z</time>
      </trkpt>
      <trkpt lat="46.25341" lon="2.39874">
        <ele>467.58</ele>
        <time>2018-07-07T15:44:00.000Z</time>
      </trkpt>
      <trkpt lat="46.25354" lon="2.39884">
        <ele>467.51</ele>
        <time>2018-07-07T15:44:02.000Z</time>
      </trkpt>
      <trkpt lat="46.25366" lon="2.39896">
        <ele>467.42</ele>
        <time>2018-07-07T15:44:04.000Z</time>
      </trkpt>
      <trkpt lat="46.25377" lon="2.39907">
        <ele>467.14</ele>
        <time>2018-07-07T15:44:06.000Z</time>
      </trkpt>
      <trkpt lat="46.25387" lon="2.3992">
        <ele>466.97</ele>
        <time>2018-07-07T15:44:08.000Z</time>
      </trkpt>
      <trkpt lat="46.25396" lon="2.39933">
        <ele>466.71</ele>
        <time>2018-07-07T15:44:10.000Z</time>
      </trkpt>
      <trkpt lat="46.25404" lon="2.39946">
        <ele>466.69</ele>
        <time>2018-07-07T15:44:12.000Z</time>
      </trkpt>
      <trkpt lat="46.25409" lon="2.39959">
        <ele>467.03</ele>
        <time>2018-07-07T15:44:14.000Z</time>
      </trkpt>
      <trkpt lat="46.25415" lon="2.39975">
        <ele>468</ele>
        <time>2018-07-07T15:44:16.000Z</time>
      </trkpt>
      <trkpt lat="46.25422" lon="2.39992">
        <ele>468.58</ele>
        <time>2018-07-07T15:44:18.000Z</time>
      </trkpt>
      <trkpt lat="46.25429" lon="2.40006">
        <ele>469.1</ele>
        <time>2018-07-07T15:44:20.000Z</time>
      </trkpt>
      <trkpt lat="46.25437" lon="2.4002">
        <ele>469.79</ele>
        <time>2018-07-07T15:44:22.000Z</time>
      </trkpt>
      <trkpt lat="46.25446" lon="2.40035">
        <ele>470.42</ele>
        <time>2018-07-07T15:44:24.000Z</time>
      </trkpt>
      <trkpt lat="46.25454" lon="2.40048">
        <ele>471.37</ele>
        <time>2018-07-07T15:44:26.000Z</time>
      </trkpt>
      <trkpt lat="46.25462" lon="2.40062">
        <ele>472.08</ele>
        <time>2018-07-07T15:44:28.000Z</time>
      </trkpt>
      <trkpt lat="46.2547" lon="2.40076">
        <ele>472.55</ele>
        <time>2018-07-07T15:44:30.000Z</time>
      </trkpt>
      <trkpt lat="46.25478" lon="2.40091">
        <ele>472.19</ele>
        <time>2018-07-07T15:44:32.000Z</time>
      </trkpt>
      <trkpt lat="46.25486" lon="2.40105">
        <ele>472.75</ele>
        <time>2018-07-07T15:44:34.000Z</time>
      </trkpt>
      <trkpt lat="46.25493" lon="2.40118">
        <ele>473.3</ele>
        <time>2018-07-07T15:44:36.000Z</time>
      </trkpt>
      <trkpt lat="46.25499" lon="2.40131">
        <ele>474.13</ele>
        <time>2018-07-07T15:44:38.000Z</time>
      </trkpt>
      <trkpt lat="46.25506" lon="2.40143">
        <ele>474.31</ele>
        <time>2018-07-07T15:44:40.000Z</time>
      </trkpt>
      <trkpt lat="46.25513" lon="2.40157">
        <ele>475.06</ele>
        <time>2018-07-07T15:44:42.000Z</time>
      </trkpt>
      <trkpt lat="46.25519" lon="2.4017">
        <ele>475.83</ele>
        <time>2018-07-07T15:44:44.000Z</time>
      </trkpt>
      <trkpt lat="46.25525" lon="2.40182">
        <ele>476.12</ele>
        <time>2018-07-07T15:44:46.000Z</time>
      </trkpt>
      <trkpt lat="46.25531" lon="2.40194">
        <ele>476.13</ele>
        <time>2018-07-07T15:44:48.000Z</time>
      </trkpt>
      <trkpt lat="46.25538" lon="2.40206">
        <ele>476.08</ele>
        <time>2018-07-07T15:44:50.000Z</time>
      </trkpt>
      <trkpt lat="46.25546" lon="2.40216">
        <ele>476.48</ele>
        <time>2018-07-07T15:44:52.000Z</time>
      </trkpt>
      <trkpt lat="46.25553" lon="2.40226">
        <ele>476.95</ele>
        <time>2018-07-07T15:44:54.000Z</time>
      </trkpt>
      <trkpt lat="46.2556" lon="2.40236">
        <ele>477.37</ele>
        <time>2018-07-07T15:44:56.000Z</time>
      </trkpt>
      <trkpt lat="46.25568" lon="2.40245">
        <ele>477.88</ele>
        <time>2018-07-07T15:44:58.000Z</time>
      </trkpt>
      <trkpt lat="46.25576" lon="2.40255">
        <ele>477.76</ele>
        <time>2018-07-07T15:45:00.000Z</time>
      </trkpt>
      <trkpt lat="46.25585" lon="2.40266">
        <ele>477.49</ele>
        <time>2018-07-07T15:45:02.000Z</time>
      </trkpt>
      <trkpt lat="46.25593" lon="2.40275">
        <ele>477.5</ele>
        <time>2018-07-07T15:45:04.000Z</time>
      </trkpt>
      <trkpt lat="46.256" lon="2.40285">
        <ele>477.47</ele>
        <time>2018-07-07T15:45:06.000Z</time>
      </trkpt>
      <trkpt lat="46.25607" lon="2.40294">
        <ele>477.54</ele>
        <time>2018-07-07T15:45:08.000Z</time>
      </trkpt>
      <trkpt lat="46.25615" lon="2.40304">
        <ele>477.62</ele>
        <time>2018-07-07T15:45:10.000Z</time>
      </trkpt>
      <trkpt lat="46.25622" lon="2.40313">
        <ele>477.59</ele>
        <time>2018-07-07T15:45:12.000Z</time>
      </trkpt>
      <trkpt lat="46.2563" lon="2.40322">
        <ele>477.49</ele>
        <time>2018-07-07T15:45:14.000Z</time>
      </trkpt>
      <trkpt lat="46.25638" lon="2.40331">
        <ele>477.55</ele>
        <time>2018-07-07T15:45:16.000Z</time>
      </trkpt>
      <trkpt lat="46.25646" lon="2.4034">
        <ele>477.49</ele>
        <time>2018-07-07T15:45:18.000Z</time>
      </trkpt>
      <trkpt lat="46.25654" lon="2.4035">
        <ele>477.31</ele>
        <time>2018-07-07T15:45:20.000Z</time>
      </trkpt>
      <trkpt lat="46.25662" lon="2.40359">
        <ele>477.2</ele>
        <time>2018-07-07T15:45:22.000Z</time>
      </trkpt>
      <trkpt lat="46.25669" lon="2.40368">
        <ele>477.82</ele>
        <time>2018-07-07T15:45:24.000Z</time>
      </trkpt>
      <trkpt lat="46.25677" lon="2.40378">
        <ele>478.21</ele>
        <time>2018-07-07T15:45:26.000Z</time>
      </trkpt>
      <trkpt lat="46.25685" lon="2.40388">
        <ele>478.36</ele>
        <time>2018-07-07T15:45:28.000Z</time>
      </trkpt>
      <trkpt lat="46.25692" lon="2.40397">
        <ele>478.88</ele>
        <time>2018-07-07T15:45:30.000Z</time>
      </trkpt>
      <trkpt lat="46.25701" lon="2.40409">
        <ele>479.03</ele>
        <time>2018-07-07T15:45:33.000Z</time>
      </trkpt>
      <trkpt lat="46.25708" lon="2.40418">
        <ele>478.71</ele>
        <time>2018-07-07T15:45:35.000Z</time>
      </trkpt>
      <trkpt lat="46.25716" lon="2.40428">
        <ele>478.58</ele>
        <time>2018-07-07T15:45:37.000Z</time>
      </trkpt>
      <trkpt lat="46.25723" lon="2.40438">
        <ele>478.84</ele>
        <time>2018-07-07T15:45:39.000Z</time>
      </trkpt>
      <trkpt lat="46.25731" lon="2.40448">
        <ele>479.18</ele>
        <time>2018-07-07T15:45:41.000Z</time>
      </trkpt>
      <trkpt lat="46.25738" lon="2.40458">
        <ele>480.03</ele>
        <time>2018-07-07T15:45:43.000Z</time>
      </trkpt>
      <trkpt lat="46.25744" lon="2.40467">
        <ele>480.93</ele>
        <time>2018-07-07T15:45:45.000Z</time>
      </trkpt>
      <trkpt lat="46.25752" lon="2.40477">
        <ele>481.66</ele>
        <time>2018-07-07T15:45:47.000Z</time>
      </trkpt>
      <trkpt lat="46.25759" lon="2.40486">
        <ele>482.44</ele>
        <time>2018-07-07T15:45:49.000Z</time>
      </trkpt>
      <trkpt lat="46.25766" lon="2.40495">
        <ele>483.21</ele>
        <time>2018-07-07T15:45:51.000Z</time>
      </trkpt>
      <trkpt lat="46.25774" lon="2.40505">
        <ele>483.58</ele>
        <time>2018-07-07T15:45:53.000Z</time>
      </trkpt>
      <trkpt lat="46.25781" lon="2.40514">
        <ele>483.84</ele>
        <time>2018-07-07T15:45:55.000Z</time>
      </trkpt>
      <trkpt lat="46.25789" lon="2.40522">
        <ele>484.2</ele>
        <time>2018-07-07T15:45:57.000Z</time>
      </trkpt>
      <trkpt lat="46.25796" lon="2.40532">
        <ele>484.38</ele>
        <time>2018-07-07T15:45:59.000Z</time>
      </trkpt>
      <trkpt lat="46.25803" lon="2.40542">
        <ele>484.46</ele>
        <time>2018-07-07T15:46:01.000Z</time>
      </trkpt>
      <trkpt lat="46.2581" lon="2.40551">
        <ele>485.11</ele>
        <time>2018-07-07T15:46:03.000Z</time>
      </trkpt>
      <trkpt lat="46.2582" lon="2.40564">
        <ele>486.22</ele>
        <time>2018-07-07T15:46:06.000Z</time>
      </trkpt>
      <trkpt lat="46.25829" lon="2.40576">
        <ele>486.51</ele>
        <time>2018-07-07T15:46:09.000Z</time>
      </trkpt>
      <trkpt lat="46.25837" lon="2.40586">
        <ele>487.08</ele>
        <time>2018-07-07T15:46:11.000Z</time>
      </trkpt>
      <trkpt lat="46.25845" lon="2.40597">
        <ele>487.27</ele>
        <time>2018-07-07T15:46:13.000Z</time>
      </trkpt>
      <trkpt lat="46.25854" lon="2.4061">
        <ele>487.31</ele>
        <time>2018-07-07T15:46:15.000Z</time>
      </trkpt>
      <trkpt lat="46.25863" lon="2.40626">
        <ele>487.34</ele>
        <time>2018-07-07T15:46:17.000Z</time>
      </trkpt>
      <trkpt lat="46.25871" lon="2.40642">
        <ele>487.93</ele>
        <time>2018-07-07T15:46:19.000Z</time>
      </trkpt>
      <trkpt lat="46.25878" lon="2.4066">
        <ele>488.02</ele>
        <time>2018-07-07T15:46:21.000Z</time>
      </trkpt>
      <trkpt lat="46.25885" lon="2.40681">
        <ele>487.6</ele>
        <time>2018-07-07T15:46:23.000Z</time>
      </trkpt>
      <trkpt lat="46.25893" lon="2.40705">
        <ele>487.29</ele>
        <time>2018-07-07T15:46:25.000Z</time>
      </trkpt>
      <trkpt lat="46.25898" lon="2.40717">
        <ele>486.97</ele>
        <time>2018-07-07T15:46:26.000Z</time>
      </trkpt>
      <trkpt lat="46.25903" lon="2.40729">
        <ele>486.78</ele>
        <time>2018-07-07T15:46:27.000Z</time>
      </trkpt>
      <trkpt lat="46.25911" lon="2.40751">
        <ele>486.29</ele>
        <time>2018-07-07T15:46:29.000Z</time>
      </trkpt>
      <trkpt lat="46.25916" lon="2.40762">
        <ele>486.03</ele>
        <time>2018-07-07T15:46:30.000Z</time>
      </trkpt>
      <trkpt lat="46.25921" lon="2.40773">
        <ele>485.8</ele>
        <time>2018-07-07T15:46:31.000Z</time>
      </trkpt>
      <trkpt lat="46.25926" lon="2.40784">
        <ele>485.55</ele>
        <time>2018-07-07T15:46:32.000Z</time>
      </trkpt>
      <trkpt lat="46.25937" lon="2.40805">
        <ele>484.88</ele>
        <time>2018-07-07T15:46:34.000Z</time>
      </trkpt>
      <trkpt lat="46.25947" lon="2.40825">
        <ele>483.92</ele>
        <time>2018-07-07T15:46:36.000Z</time>
      </trkpt>
      <trkpt lat="46.25958" lon="2.40842">
        <ele>483.3</ele>
        <time>2018-07-07T15:46:38.000Z</time>
      </trkpt>
      <trkpt lat="46.25969" lon="2.40859">
        <ele>483.06</ele>
        <time>2018-07-07T15:46:40.000Z</time>
      </trkpt>
      <trkpt lat="46.25979" lon="2.40875">
        <ele>483.02</ele>
        <time>2018-07-07T15:46:42.000Z</time>
      </trkpt>
      <trkpt lat="46.25989" lon="2.40892">
        <ele>482.46</ele>
        <time>2018-07-07T15:46:44.000Z</time>
      </trkpt>
      <trkpt lat="46.25998" lon="2.40909">
        <ele>481.99</ele>
        <time>2018-07-07T15:46:46.000Z</time>
      </trkpt>
      <trkpt lat="46.26008" lon="2.40924">
        <ele>481.21</ele>
        <time>2018-07-07T15:46:48.000Z</time>
      </trkpt>
      <trkpt lat="46.26017" lon="2.40939">
        <ele>480.84</ele>
        <time>2018-07-07T15:46:50.000Z</time>
      </trkpt>
      <trkpt lat="46.26027" lon="2.40956">
        <ele>480.52</ele>
        <time>2018-07-07T15:46:52.000Z</time>
      </trkpt>
      <trkpt lat="46.26037" lon="2.40973">
        <ele>480.39</ele>
        <time>2018-07-07T15:46:54.000Z</time>
      </trkpt>
      <trkpt lat="46.26046" lon="2.4099">
        <ele>480.09</ele>
        <time>2018-07-07T15:46:56.000Z</time>
      </trkpt>
      <trkpt lat="46.26054" lon="2.41008">
        <ele>479.97</ele>
        <time>2018-07-07T15:46:58.000Z</time>
      </trkpt>
      <trkpt lat="46.26061" lon="2.41029">
        <ele>479.81</ele>
        <time>2018-07-07T15:47:00.000Z</time>
      </trkpt>
      <trkpt lat="46.26069" lon="2.41051">
        <ele>479.56</ele>
        <time>2018-07-07T15:47:02.000Z</time>
      </trkpt>
      <trkpt lat="46.26075" lon="2.41075">
        <ele>479.45</ele>
        <time>2018-07-07T15:47:04.000Z</time>
      </trkpt>
      <trkpt lat="46.26079" lon="2.41098">
        <ele>479.57</ele>
        <time>2018-07-07T15:47:06.000Z</time>
      </trkpt>
      <trkpt lat="46.26083" lon="2.41123">
        <ele>479.43</ele>
        <time>2018-07-07T15:47:08.000Z</time>
      </trkpt>
      <trkpt lat="46.26085" lon="2.41148">
        <ele>479.51</ele>
        <time>2018-07-07T15:47:10.000Z</time>
      </trkpt>
      <trkpt lat="46.26085" lon="2.41171">
        <ele>480.13</ele>
        <time>2018-07-07T15:47:12.000Z</time>
      </trkpt>
      <trkpt lat="46.26087" lon="2.41195">
        <ele>480.24</ele>
        <time>2018-07-07T15:47:14.000Z</time>
      </trkpt>
      <trkpt lat="46.26088" lon="2.41214">
        <ele>480.44</ele>
        <time>2018-07-07T15:47:16.000Z</time>
      </trkpt>
      <trkpt lat="46.26089" lon="2.41229">
        <ele>481.03</ele>
        <time>2018-07-07T15:47:18.000Z</time>
      </trkpt>
      <trkpt lat="46.2609" lon="2.41244">
        <ele>481.35</ele>
        <time>2018-07-07T15:47:20.000Z</time>
      </trkpt>
      <trkpt lat="46.2609" lon="2.4126">
        <ele>482</ele>
        <time>2018-07-07T15:47:22.000Z</time>
      </trkpt>
      <trkpt lat="46.2609" lon="2.41278">
        <ele>482.02</ele>
        <time>2018-07-07T15:47:24.000Z</time>
      </trkpt>
      <trkpt lat="46.26091" lon="2.41296">
        <ele>481.94</ele>
        <time>2018-07-07T15:47:26.000Z</time>
      </trkpt>
      <trkpt lat="46.26092" lon="2.41314">
        <ele>481.33</ele>
        <time>2018-07-07T15:47:28.000Z</time>
      </trkpt>
      <trkpt lat="46.26093" lon="2.41332">
        <ele>480.88</ele>
        <time>2018-07-07T15:47:30.000Z</time>
      </trkpt>
      <trkpt lat="46.26094" lon="2.41349">
        <ele>480.9</ele>
        <time>2018-07-07T15:47:32.000Z</time>
      </trkpt>
      <trkpt lat="46.26094" lon="2.41365">
        <ele>481.15</ele>
        <time>2018-07-07T15:47:34.000Z</time>
      </trkpt>
      <trkpt lat="46.26096" lon="2.41383">
        <ele>481.38</ele>
        <time>2018-07-07T15:47:36.000Z</time>
      </trkpt>
      <trkpt lat="46.26098" lon="2.41403">
        <ele>481.44</ele>
        <time>2018-07-07T15:47:38.000Z</time>
      </trkpt>
      <trkpt lat="46.261" lon="2.4142">
        <ele>481.33</ele>
        <time>2018-07-07T15:47:40.000Z</time>
      </trkpt>
      <trkpt lat="46.26102" lon="2.41437">
        <ele>481.18</ele>
        <time>2018-07-07T15:47:42.000Z</time>
      </trkpt>
      <trkpt lat="46.26105" lon="2.41451">
        <ele>480.89</ele>
        <time>2018-07-07T15:47:44.000Z</time>
      </trkpt>
      <trkpt lat="46.26109" lon="2.41465">
        <ele>480.55</ele>
        <time>2018-07-07T15:47:46.000Z</time>
      </trkpt>
      <trkpt lat="46.26114" lon="2.4148">
        <ele>480.12</ele>
        <time>2018-07-07T15:47:48.000Z</time>
      </trkpt>
      <trkpt lat="46.26119" lon="2.41495">
        <ele>480.4</ele>
        <time>2018-07-07T15:47:50.000Z</time>
      </trkpt>
      <trkpt lat="46.26123" lon="2.4151">
        <ele>480.93</ele>
        <time>2018-07-07T15:47:52.000Z</time>
      </trkpt>
      <trkpt lat="46.26128" lon="2.41524">
        <ele>481.33</ele>
        <time>2018-07-07T15:47:54.000Z</time>
      </trkpt>
      <trkpt lat="46.26132" lon="2.41538">
        <ele>482.02</ele>
        <time>2018-07-07T15:47:56.000Z</time>
      </trkpt>
      <trkpt lat="46.26136" lon="2.41552">
        <ele>482.71</ele>
        <time>2018-07-07T15:47:58.000Z</time>
      </trkpt>
      <trkpt lat="46.2614" lon="2.41566">
        <ele>483</ele>
        <time>2018-07-07T15:48:00.000Z</time>
      </trkpt>
      <trkpt lat="46.26144" lon="2.4158">
        <ele>483.47</ele>
        <time>2018-07-07T15:48:02.000Z</time>
      </trkpt>
      <trkpt lat="46.26148" lon="2.41593">
        <ele>484.1</ele>
        <time>2018-07-07T15:48:04.000Z</time>
      </trkpt>
      <trkpt lat="46.26152" lon="2.41606">
        <ele>484.86</ele>
        <time>2018-07-07T15:48:06.000Z</time>
      </trkpt>
      <trkpt lat="46.26157" lon="2.41619">
        <ele>485.53</ele>
        <time>2018-07-07T15:48:08.000Z</time>
      </trkpt>
      <trkpt lat="46.26161" lon="2.41632">
        <ele>485.97</ele>
        <time>2018-07-07T15:48:10.000Z</time>
      </trkpt>
      <trkpt lat="46.26165" lon="2.41646">
        <ele>486.35</ele>
        <time>2018-07-07T15:48:12.000Z</time>
      </trkpt>
      <trkpt lat="46.2617" lon="2.41659">
        <ele>486.55</ele>
        <time>2018-07-07T15:48:14.000Z</time>
      </trkpt>
      <trkpt lat="46.26176" lon="2.41671">
        <ele>486.75</ele>
        <time>2018-07-07T15:48:16.000Z</time>
      </trkpt>
      <trkpt lat="46.26182" lon="2.41683">
        <ele>486.92</ele>
        <time>2018-07-07T15:48:18.000Z</time>
      </trkpt>
      <trkpt lat="46.26188" lon="2.41696">
        <ele>487</ele>
        <time>2018-07-07T15:48:20.000Z</time>
      </trkpt>
      <trkpt lat="46.26194" lon="2.41709">
        <ele>486.9</ele>
        <time>2018-07-07T15:48:22.000Z</time>
      </trkpt>
      <trkpt lat="46.262" lon="2.41722">
        <ele>486.95</ele>
        <time>2018-07-07T15:48:24.000Z</time>
      </trkpt>
      <trkpt lat="46.26206" lon="2.41734">
        <ele>487.02</ele>
        <time>2018-07-07T15:48:26.000Z</time>
      </trkpt>
      <trkpt lat="46.26212" lon="2.41748">
        <ele>487.05</ele>
        <time>2018-07-07T15:48:28.000Z</time>
      </trkpt>
      <trkpt lat="46.26218" lon="2.4176">
        <ele>487.25</ele>
        <time>2018-07-07T15:48:30.000Z</time>
      </trkpt>
      <trkpt lat="46.26224" lon="2.41772">
        <ele>487.53</ele>
        <time>2018-07-07T15:48:32.000Z</time>
      </trkpt>
      <trkpt lat="46.2623" lon="2.41784">
        <ele>487.92</ele>
        <time>2018-07-07T15:48:34.000Z</time>
      </trkpt>
      <trkpt lat="46.26235" lon="2.41795">
        <ele>488.3</ele>
        <time>2018-07-07T15:48:36.000Z</time>
      </trkpt>
      <trkpt lat="46.2624" lon="2.41806">
        <ele>488.89</ele>
        <time>2018-07-07T15:48:38.000Z</time>
      </trkpt>
      <trkpt lat="46.26247" lon="2.41821">
        <ele>489.66</ele>
        <time>2018-07-07T15:48:41.000Z</time>
      </trkpt>
      <trkpt lat="46.26252" lon="2.41833">
        <ele>489.72</ele>
        <time>2018-07-07T15:48:43.000Z</time>
      </trkpt>
      <trkpt lat="46.26258" lon="2.41845">
        <ele>490.38</ele>
        <time>2018-07-07T15:48:45.000Z</time>
      </trkpt>
      <trkpt lat="46.26263" lon="2.41857">
        <ele>490.92</ele>
        <time>2018-07-07T15:48:47.000Z</time>
      </trkpt>
      <trkpt lat="46.26269" lon="2.41868">
        <ele>491.19</ele>
        <time>2018-07-07T15:48:49.000Z</time>
      </trkpt>
      <trkpt lat="46.26274" lon="2.41881">
        <ele>491.47</ele>
        <time>2018-07-07T15:48:51.000Z</time>
      </trkpt>
      <trkpt lat="46.26279" lon="2.41893">
        <ele>491.62</ele>
        <time>2018-07-07T15:48:53.000Z</time>
      </trkpt>
      <trkpt lat="46.26283" lon="2.41904">
        <ele>492.15</ele>
        <time>2018-07-07T15:48:55.000Z</time>
      </trkpt>
      <trkpt lat="46.2629" lon="2.41921">
        <ele>492.83</ele>
        <time>2018-07-07T15:48:58.000Z</time>
      </trkpt>
      <trkpt lat="46.26296" lon="2.41937">
        <ele>493.18</ele>
        <time>2018-07-07T15:49:01.000Z</time>
      </trkpt>
      <trkpt lat="46.26303" lon="2.41953">
        <ele>493.41</ele>
        <time>2018-07-07T15:49:04.000Z</time>
      </trkpt>
      <trkpt lat="46.26312" lon="2.41967">
        <ele>493.68</ele>
        <time>2018-07-07T15:49:07.000Z</time>
      </trkpt>
      <trkpt lat="46.26318" lon="2.41978">
        <ele>493.86</ele>
        <time>2018-07-07T15:49:09.000Z</time>
      </trkpt>
      <trkpt lat="46.26326" lon="2.41991">
        <ele>494.06</ele>
        <time>2018-07-07T15:49:11.000Z</time>
      </trkpt>
      <trkpt lat="46.26333" lon="2.42002">
        <ele>494.68</ele>
        <time>2018-07-07T15:49:13.000Z</time>
      </trkpt>
      <trkpt lat="46.26341" lon="2.42011">
        <ele>495.56</ele>
        <time>2018-07-07T15:49:15.000Z</time>
      </trkpt>
      <trkpt lat="46.26348" lon="2.4202">
        <ele>496.04</ele>
        <time>2018-07-07T15:49:17.000Z</time>
      </trkpt>
      <trkpt lat="46.26356" lon="2.42031">
        <ele>496.58</ele>
        <time>2018-07-07T15:49:19.000Z</time>
      </trkpt>
      <trkpt lat="46.26363" lon="2.42041">
        <ele>497.06</ele>
        <time>2018-07-07T15:49:21.000Z</time>
      </trkpt>
      <trkpt lat="46.26371" lon="2.42051">
        <ele>497.56</ele>
        <time>2018-07-07T15:49:23.000Z</time>
      </trkpt>
      <trkpt lat="46.26378" lon="2.42062">
        <ele>498.6</ele>
        <time>2018-07-07T15:49:25.000Z</time>
      </trkpt>
      <trkpt lat="46.26386" lon="2.42072">
        <ele>499.5</ele>
        <time>2018-07-07T15:49:27.000Z</time>
      </trkpt>
      <trkpt lat="46.26393" lon="2.42083">
        <ele>500.34</ele>
        <time>2018-07-07T15:49:29.000Z</time>
      </trkpt>
      <trkpt lat="46.26401" lon="2.42095">
        <ele>501.03</ele>
        <time>2018-07-07T15:49:31.000Z</time>
      </trkpt>
      <trkpt lat="46.26409" lon="2.42107">
        <ele>501.68</ele>
        <time>2018-07-07T15:49:33.000Z</time>
      </trkpt>
      <trkpt lat="46.26418" lon="2.42119">
        <ele>502.11</ele>
        <time>2018-07-07T15:49:35.000Z</time>
      </trkpt>
      <trkpt lat="46.26425" lon="2.42131">
        <ele>502.76</ele>
        <time>2018-07-07T15:49:37.000Z</time>
      </trkpt>
      <trkpt lat="46.26432" lon="2.42141">
        <ele>503.41</ele>
        <time>2018-07-07T15:49:39.000Z</time>
      </trkpt>
      <trkpt lat="46.2644" lon="2.4215">
        <ele>503.97</ele>
        <time>2018-07-07T15:49:41.000Z</time>
      </trkpt>
      <trkpt lat="46.26448" lon="2.42161">
        <ele>504.47</ele>
        <time>2018-07-07T15:49:43.000Z</time>
      </trkpt>
      <trkpt lat="46.26457" lon="2.42173">
        <ele>504.54</ele>
        <time>2018-07-07T15:49:45.000Z</time>
      </trkpt>
      <trkpt lat="46.26465" lon="2.42186">
        <ele>504.48</ele>
        <time>2018-07-07T15:49:47.000Z</time>
      </trkpt>
      <trkpt lat="46.26474" lon="2.422">
        <ele>504.53</ele>
        <time>2018-07-07T15:49:49.000Z</time>
      </trkpt>
      <trkpt lat="46.26482" lon="2.42212">
        <ele>504.74</ele>
        <time>2018-07-07T15:49:51.000Z</time>
      </trkpt>
      <trkpt lat="46.2649" lon="2.42224">
        <ele>504.72</ele>
        <time>2018-07-07T15:49:53.000Z</time>
      </trkpt>
      <trkpt lat="46.26498" lon="2.42235">
        <ele>504.31</ele>
        <time>2018-07-07T15:49:55.000Z</time>
      </trkpt>
      <trkpt lat="46.26506" lon="2.42247">
        <ele>503.45</ele>
        <time>2018-07-07T15:49:57.000Z</time>
      </trkpt>
      <trkpt lat="46.26514" lon="2.42259">
        <ele>502.7</ele>
        <time>2018-07-07T15:49:59.000Z</time>
      </trkpt>
      <trkpt lat="46.26523" lon="2.42271">
        <ele>502.58</ele>
        <time>2018-07-07T15:50:01.000Z</time>
      </trkpt>
      <trkpt lat="46.26532" lon="2.42283">
        <ele>502.67</ele>
        <time>2018-07-07T15:50:03.000Z</time>
      </trkpt>
      <trkpt lat="46.26539" lon="2.42294">
        <ele>502.19</ele>
        <time>2018-07-07T15:50:05.000Z</time>
      </trkpt>
      <trkpt lat="46.26547" lon="2.42305">
        <ele>501.76</ele>
        <time>2018-07-07T15:50:07.000Z</time>
      </trkpt>
      <trkpt lat="46.26555" lon="2.42316">
        <ele>500.96</ele>
        <time>2018-07-07T15:50:09.000Z</time>
      </trkpt>
      <trkpt lat="46.26563" lon="2.42326">
        <ele>500.51</ele>
        <time>2018-07-07T15:50:11.000Z</time>
      </trkpt>
      <trkpt lat="46.2657" lon="2.42337">
        <ele>500.34</ele>
        <time>2018-07-07T15:50:13.000Z</time>
      </trkpt>
      <trkpt lat="46.26577" lon="2.42348">
        <ele>500.55</ele>
        <time>2018-07-07T15:50:15.000Z</time>
      </trkpt>
      <trkpt lat="46.26584" lon="2.42359">
        <ele>500.64</ele>
        <time>2018-07-07T15:50:17.000Z</time>
      </trkpt>
      <trkpt lat="46.2659" lon="2.42369">
        <ele>501.05</ele>
        <time>2018-07-07T15:50:19.000Z</time>
      </trkpt>
      <trkpt lat="46.26597" lon="2.42379">
        <ele>501.65</ele>
        <time>2018-07-07T15:50:21.000Z</time>
      </trkpt>
      <trkpt lat="46.26603" lon="2.42389">
        <ele>502.4</ele>
        <time>2018-07-07T15:50:23.000Z</time>
      </trkpt>
      <trkpt lat="46.26611" lon="2.42399">
        <ele>503.08</ele>
        <time>2018-07-07T15:50:25.000Z</time>
      </trkpt>
      <trkpt lat="46.26618" lon="2.42409">
        <ele>503.63</ele>
        <time>2018-07-07T15:50:27.000Z</time>
      </trkpt>
      <trkpt lat="46.26625" lon="2.42421">
        <ele>504.15</ele>
        <time>2018-07-07T15:50:29.000Z</time>
      </trkpt>
      <trkpt lat="46.26633" lon="2.42431">
        <ele>504.63</ele>
        <time>2018-07-07T15:50:31.000Z</time>
      </trkpt>
      <trkpt lat="46.2664" lon="2.42441">
        <ele>504.97</ele>
        <time>2018-07-07T15:50:33.000Z</time>
      </trkpt>
      <trkpt lat="46.26648" lon="2.42451">
        <ele>505.26</ele>
        <time>2018-07-07T15:50:35.000Z</time>
      </trkpt>
      <trkpt lat="46.26654" lon="2.42461">
        <ele>505.57</ele>
        <time>2018-07-07T15:50:37.000Z</time>
      </trkpt>
      <trkpt lat="46.26662" lon="2.42474">
        <ele>506.64</ele>
        <time>2018-07-07T15:50:40.000Z</time>
      </trkpt>
      <trkpt lat="46.2667" lon="2.42487">
        <ele>507.52</ele>
        <time>2018-07-07T15:50:43.000Z</time>
      </trkpt>
      <trkpt lat="46.26677" lon="2.42496">
        <ele>507.99</ele>
        <time>2018-07-07T15:50:45.000Z</time>
      </trkpt>
      <trkpt lat="46.26683" lon="2.42507">
        <ele>508.37</ele>
        <time>2018-07-07T15:50:47.000Z</time>
      </trkpt>
      <trkpt lat="46.2669" lon="2.42517">
        <ele>508.68</ele>
        <time>2018-07-07T15:50:49.000Z</time>
      </trkpt>
      <trkpt lat="46.26699" lon="2.4253">
        <ele>509.24</ele>
        <time>2018-07-07T15:50:52.000Z</time>
      </trkpt>
      <trkpt lat="46.26707" lon="2.42545">
        <ele>509.97</ele>
        <time>2018-07-07T15:50:55.000Z</time>
      </trkpt>
      <trkpt lat="46.26715" lon="2.42557">
        <ele>511.03</ele>
        <time>2018-07-07T15:50:58.000Z</time>
      </trkpt>
      <trkpt lat="46.26721" lon="2.42569">
        <ele>511.5</ele>
        <time>2018-07-07T15:51:01.000Z</time>
      </trkpt>
      <trkpt lat="46.26727" lon="2.42581">
        <ele>512.34</ele>
        <time>2018-07-07T15:51:04.000Z</time>
      </trkpt>
      <trkpt lat="46.26734" lon="2.42597">
        <ele>513.33</ele>
        <time>2018-07-07T15:51:07.000Z</time>
      </trkpt>
      <trkpt lat="46.2674" lon="2.42614">
        <ele>513.87</ele>
        <time>2018-07-07T15:51:10.000Z</time>
      </trkpt>
      <trkpt lat="46.26745" lon="2.42627">
        <ele>513.96</ele>
        <time>2018-07-07T15:51:12.000Z</time>
      </trkpt>
      <trkpt lat="46.26749" lon="2.4264">
        <ele>513.99</ele>
        <time>2018-07-07T15:51:14.000Z</time>
      </trkpt>
      <trkpt lat="46.26754" lon="2.42655">
        <ele>514.07</ele>
        <time>2018-07-07T15:51:16.000Z</time>
      </trkpt>
      <trkpt lat="46.26759" lon="2.42669">
        <ele>514.06</ele>
        <time>2018-07-07T15:51:18.000Z</time>
      </trkpt>
      <trkpt lat="46.26764" lon="2.42682">
        <ele>513.86</ele>
        <time>2018-07-07T15:51:20.000Z</time>
      </trkpt>
      <trkpt lat="46.26769" lon="2.42694">
        <ele>513.61</ele>
        <time>2018-07-07T15:51:22.000Z</time>
      </trkpt>
      <trkpt lat="46.26773" lon="2.42707">
        <ele>513.35</ele>
        <time>2018-07-07T15:51:24.000Z</time>
      </trkpt>
      <trkpt lat="46.26777" lon="2.42721">
        <ele>512.9</ele>
        <time>2018-07-07T15:51:26.000Z</time>
      </trkpt>
      <trkpt lat="46.26781" lon="2.42735">
        <ele>513.01</ele>
        <time>2018-07-07T15:51:28.000Z</time>
      </trkpt>
      <trkpt lat="46.26785" lon="2.4275">
        <ele>512.95</ele>
        <time>2018-07-07T15:51:30.000Z</time>
      </trkpt>
      <trkpt lat="46.26789" lon="2.42768">
        <ele>512.9</ele>
        <time>2018-07-07T15:51:32.000Z</time>
      </trkpt>
      <trkpt lat="46.26793" lon="2.42787">
        <ele>512.7</ele>
        <time>2018-07-07T15:51:34.000Z</time>
      </trkpt>
      <trkpt lat="46.26796" lon="2.42807">
        <ele>512.57</ele>
        <time>2018-07-07T15:51:36.000Z</time>
      </trkpt>
      <trkpt lat="46.268" lon="2.42825">
        <ele>512.34</ele>
        <time>2018-07-07T15:51:38.000Z</time>
      </trkpt>
      <trkpt lat="46.26803" lon="2.42844">
        <ele>511.61</ele>
        <time>2018-07-07T15:51:40.000Z</time>
      </trkpt>
      <trkpt lat="46.26807" lon="2.42866">
        <ele>510.78</ele>
        <time>2018-07-07T15:51:42.000Z</time>
      </trkpt>
      <trkpt lat="46.26812" lon="2.42891">
        <ele>509.84</ele>
        <time>2018-07-07T15:51:44.000Z</time>
      </trkpt>
      <trkpt lat="46.26819" lon="2.42914">
        <ele>509.19</ele>
        <time>2018-07-07T15:51:46.000Z</time>
      </trkpt>
      <trkpt lat="46.26825" lon="2.42925">
        <ele>508.81</ele>
        <time>2018-07-07T15:51:47.000Z</time>
      </trkpt>
      <trkpt lat="46.26833" lon="2.42933">
        <ele>508.19</ele>
        <time>2018-07-07T15:51:48.000Z</time>
      </trkpt>
      <trkpt lat="46.26843" lon="2.4294">
        <ele>507.71</ele>
        <time>2018-07-07T15:51:49.000Z</time>
      </trkpt>
      <trkpt lat="46.26853" lon="2.42942">
        <ele>507.17</ele>
        <time>2018-07-07T15:51:50.000Z</time>
      </trkpt>
      <trkpt lat="46.26864" lon="2.4294">
        <ele>506.66</ele>
        <time>2018-07-07T15:51:51.000Z</time>
      </trkpt>
      <trkpt lat="46.26874" lon="2.42936">
        <ele>506.25</ele>
        <time>2018-07-07T15:51:52.000Z</time>
      </trkpt>
      <trkpt lat="46.26885" lon="2.4293">
        <ele>505.55</ele>
        <time>2018-07-07T15:51:53.000Z</time>
      </trkpt>
      <trkpt lat="46.26895" lon="2.42922">
        <ele>505.34</ele>
        <time>2018-07-07T15:51:54.000Z</time>
      </trkpt>
      <trkpt lat="46.26905" lon="2.42916">
        <ele>505.11</ele>
        <time>2018-07-07T15:51:55.000Z</time>
      </trkpt>
      <trkpt lat="46.26916" lon="2.42911">
        <ele>505.46</ele>
        <time>2018-07-07T15:51:56.000Z</time>
      </trkpt>
      <trkpt lat="46.26926" lon="2.42908">
        <ele>505.43</ele>
        <time>2018-07-07T15:51:57.000Z</time>
      </trkpt>
      <trkpt lat="46.26938" lon="2.42908">
        <ele>505.33</ele>
        <time>2018-07-07T15:51:58.000Z</time>
      </trkpt>
      <trkpt lat="46.26949" lon="2.4291">
        <ele>505.11</ele>
        <time>2018-07-07T15:51:59.000Z</time>
      </trkpt>
      <trkpt lat="46.26959" lon="2.42914">
        <ele>505.09</ele>
        <time>2018-07-07T15:52:00.000Z</time>
      </trkpt>
      <trkpt lat="46.26968" lon="2.42921">
        <ele>504.96</ele>
        <time>2018-07-07T15:52:01.000Z</time>
      </trkpt>
      <trkpt lat="46.26977" lon="2.42928">
        <ele>504.38</ele>
        <time>2018-07-07T15:52:02.000Z</time>
      </trkpt>
      <trkpt lat="46.26985" lon="2.42938">
        <ele>504.01</ele>
        <time>2018-07-07T15:52:03.000Z</time>
      </trkpt>
      <trkpt lat="46.26992" lon="2.42948">
        <ele>503.75</ele>
        <time>2018-07-07T15:52:04.000Z</time>
      </trkpt>
      <trkpt lat="46.26999" lon="2.42959">
        <ele>503.2</ele>
        <time>2018-07-07T15:52:05.000Z</time>
      </trkpt>
      <trkpt lat="46.27004" lon="2.42971">
        <ele>502.88</ele>
        <time>2018-07-07T15:52:06.000Z</time>
      </trkpt>
      <trkpt lat="46.27008" lon="2.42983">
        <ele>502.86</ele>
        <time>2018-07-07T15:52:07.000Z</time>
      </trkpt>
      <trkpt lat="46.27012" lon="2.42997">
        <ele>502.58</ele>
        <time>2018-07-07T15:52:08.000Z</time>
      </trkpt>
      <trkpt lat="46.27015" lon="2.4301">
        <ele>502.36</ele>
        <time>2018-07-07T15:52:09.000Z</time>
      </trkpt>
      <trkpt lat="46.27017" lon="2.43024">
        <ele>502.77</ele>
        <time>2018-07-07T15:52:10.000Z</time>
      </trkpt>
      <trkpt lat="46.27017" lon="2.43048">
        <ele>503.29</ele>
        <time>2018-07-07T15:52:12.000Z</time>
      </trkpt>
      <trkpt lat="46.27016" lon="2.4307">
        <ele>503.54</ele>
        <time>2018-07-07T15:52:14.000Z</time>
      </trkpt>
      <trkpt lat="46.27011" lon="2.43091">
        <ele>502.76</ele>
        <time>2018-07-07T15:52:16.000Z</time>
      </trkpt>
      <trkpt lat="46.27003" lon="2.43112">
        <ele>499.21</ele>
        <time>2018-07-07T15:52:18.000Z</time>
      </trkpt>
      <trkpt lat="46.26992" lon="2.43132">
        <ele>497.3</ele>
        <time>2018-07-07T15:52:20.000Z</time>
      </trkpt>
      <trkpt lat="46.26981" lon="2.43146">
        <ele>496.1</ele>
        <time>2018-07-07T15:52:22.000Z</time>
      </trkpt>
      <trkpt lat="46.26972" lon="2.43156">
        <ele>495.27</ele>
        <time>2018-07-07T15:52:25.000Z</time>
      </trkpt>
      <trkpt lat="46.26971" lon="2.4317">
        <ele>493.48</ele>
        <time>2018-07-07T15:52:30.000Z</time>
      </trkpt>
      <trkpt lat="46.26979" lon="2.4316">
        <ele>489.78</ele>
        <time>2018-07-07T15:52:39.000Z</time>
      </trkpt>
      <trkpt lat="46.26985" lon="2.43145">
        <ele>489.75</ele>
        <time>2018-07-07T15:52:42.000Z</time>
      </trkpt>
      <trkpt lat="46.26989" lon="2.43131">
        <ele>490.58</ele>
        <time>2018-07-07T15:52:45.000Z</time>
      </trkpt>
      <trkpt lat="46.26982" lon="2.43123">
        <ele>492.33</ele>
        <time>2018-07-07T15:52:49.000Z</time>
      </trkpt>
      <trkpt lat="46.26972" lon="2.43127">
        <ele>490.79</ele>
        <time>2018-07-07T15:52:54.000Z</time>
      </trkpt>
      <trkpt lat="46.26981" lon="2.43123">
        <ele>489.74</ele>
        <time>2018-07-07T15:53:21.000Z</time>
      </trkpt>
      <trkpt lat="46.2699" lon="2.4312">
        <ele>494.17</ele>
        <time>2018-07-07T15:53:48.000Z</time>
      </trkpt>
      <trkpt lat="46.26994" lon="2.43133">
        <ele>494.06</ele>
        <time>2018-07-07T15:54:01.000Z</time>
      </trkpt>
      <trkpt lat="46.26987" lon="2.43147">
        <ele>495.71</ele>
        <time>2018-07-07T15:54:15.000Z</time>
      </trkpt>
      <trkpt lat="46.26981" lon="2.43158">
        <ele>495.71</ele>
        <time>2018-07-07T15:54:17.000Z</time>
      </trkpt>
      <trkpt lat="46.26973" lon="2.4317">
        <ele>495.47</ele>
        <time>2018-07-07T15:54:19.000Z</time>
      </trkpt>
      <trkpt lat="46.26966" lon="2.43182">
        <ele>494.8</ele>
        <time>2018-07-07T15:54:21.000Z</time>
      </trkpt>
      <trkpt lat="46.26959" lon="2.43195">
        <ele>493.5</ele>
        <time>2018-07-07T15:54:23.000Z</time>
      </trkpt>
      <trkpt lat="46.26951" lon="2.43208">
        <ele>492.2</ele>
        <time>2018-07-07T15:54:25.000Z</time>
      </trkpt>
      <trkpt lat="46.26942" lon="2.43224">
        <ele>490.65</ele>
        <time>2018-07-07T15:54:27.000Z</time>
      </trkpt>
      <trkpt lat="46.26933" lon="2.43241">
        <ele>490.37</ele>
        <time>2018-07-07T15:54:29.000Z</time>
      </trkpt>
      <trkpt lat="46.26922" lon="2.43256">
        <ele>489.78</ele>
        <time>2018-07-07T15:54:31.000Z</time>
      </trkpt>
      <trkpt lat="46.2691" lon="2.4327">
        <ele>488.86</ele>
        <time>2018-07-07T15:54:33.000Z</time>
      </trkpt>
      <trkpt lat="46.26897" lon="2.43285">
        <ele>486.89</ele>
        <time>2018-07-07T15:54:35.000Z</time>
      </trkpt>
      <trkpt lat="46.26883" lon="2.433">
        <ele>485.4</ele>
        <time>2018-07-07T15:54:37.000Z</time>
      </trkpt>
      <trkpt lat="46.2687" lon="2.43317">
        <ele>483.58</ele>
        <time>2018-07-07T15:54:39.000Z</time>
      </trkpt>
      <trkpt lat="46.26859" lon="2.43336">
        <ele>481.71</ele>
        <time>2018-07-07T15:54:41.000Z</time>
      </trkpt>
      <trkpt lat="46.26848" lon="2.43356">
        <ele>480.08</ele>
        <time>2018-07-07T15:54:43.000Z</time>
      </trkpt>
      <trkpt lat="46.26838" lon="2.43374">
        <ele>479.28</ele>
        <time>2018-07-07T15:54:45.000Z</time>
      </trkpt>
      <trkpt lat="46.26828" lon="2.43391">
        <ele>478.64</ele>
        <time>2018-07-07T15:54:47.000Z</time>
      </trkpt>
      <trkpt lat="46.26819" lon="2.43408">
        <ele>478.72</ele>
        <time>2018-07-07T15:54:49.000Z</time>
      </trkpt>
      <trkpt lat="46.26811" lon="2.43424">
        <ele>479.02</ele>
        <time>2018-07-07T15:54:51.000Z</time>
      </trkpt>
      <trkpt lat="46.26804" lon="2.4344">
        <ele>479.72</ele>
        <time>2018-07-07T15:54:53.000Z</time>
      </trkpt>
      <trkpt lat="46.268" lon="2.43457">
        <ele>480.77</ele>
        <time>2018-07-07T15:54:55.000Z</time>
      </trkpt>
      <trkpt lat="46.268" lon="2.43476">
        <ele>480.94</ele>
        <time>2018-07-07T15:54:57.000Z</time>
      </trkpt>
      <trkpt lat="46.26802" lon="2.43494">
        <ele>481.19</ele>
        <time>2018-07-07T15:54:59.000Z</time>
      </trkpt>
      <trkpt lat="46.26804" lon="2.43513">
        <ele>481.6</ele>
        <time>2018-07-07T15:55:01.000Z</time>
      </trkpt>
      <trkpt lat="46.26805" lon="2.43533">
        <ele>482.09</ele>
        <time>2018-07-07T15:55:03.000Z</time>
      </trkpt>
      <trkpt lat="46.26805" lon="2.43554">
        <ele>482.46</ele>
        <time>2018-07-07T15:55:05.000Z</time>
      </trkpt>
      <trkpt lat="46.26806" lon="2.43576">
        <ele>482.79</ele>
        <time>2018-07-07T15:55:07.000Z</time>
      </trkpt>
      <trkpt lat="46.26805" lon="2.43599">
        <ele>482.64</ele>
        <time>2018-07-07T15:55:09.000Z</time>
      </trkpt>
      <trkpt lat="46.26806" lon="2.43623">
        <ele>481.74</ele>
        <time>2018-07-07T15:55:11.000Z</time>
      </trkpt>
      <trkpt lat="46.26806" lon="2.43647">
        <ele>481.06</ele>
        <time>2018-07-07T15:55:13.000Z</time>
      </trkpt>
      <trkpt lat="46.26806" lon="2.43672">
        <ele>480.56</ele>
        <time>2018-07-07T15:55:15.000Z</time>
      </trkpt>
      <trkpt lat="46.26807" lon="2.43697">
        <ele>480.04</ele>
        <time>2018-07-07T15:55:17.000Z</time>
      </trkpt>
      <trkpt lat="46.26808" lon="2.43721">
        <ele>479.6</ele>
        <time>2018-07-07T15:55:19.000Z</time>
      </trkpt>
      <trkpt lat="46.26808" lon="2.43746">
        <ele>478.93</ele>
        <time>2018-07-07T15:55:21.000Z</time>
      </trkpt>
      <trkpt lat="46.26809" lon="2.43771">
        <ele>478.67</ele>
        <time>2018-07-07T15:55:23.000Z</time>
      </trkpt>
      <trkpt lat="46.2681" lon="2.43796">
        <ele>478.66</ele>
        <time>2018-07-07T15:55:25.000Z</time>
      </trkpt>
      <trkpt lat="46.26811" lon="2.43821">
        <ele>478.34</ele>
        <time>2018-07-07T15:55:27.000Z</time>
      </trkpt>
      <trkpt lat="46.26812" lon="2.43846">
        <ele>478.22</ele>
        <time>2018-07-07T15:55:29.000Z</time>
      </trkpt>
      <trkpt lat="46.26812" lon="2.4387">
        <ele>478.43</ele>
        <time>2018-07-07T15:55:31.000Z</time>
      </trkpt>
      <trkpt lat="46.26813" lon="2.43895">
        <ele>478.83</ele>
        <time>2018-07-07T15:55:33.000Z</time>
      </trkpt>
      <trkpt lat="46.26813" lon="2.43918">
        <ele>479.26</ele>
        <time>2018-07-07T15:55:35.000Z</time>
      </trkpt>
      <trkpt lat="46.26814" lon="2.43941">
        <ele>479.59</ele>
        <time>2018-07-07T15:55:37.000Z</time>
      </trkpt>
      <trkpt lat="46.26814" lon="2.43962">
        <ele>479.86</ele>
        <time>2018-07-07T15:55:39.000Z</time>
      </trkpt>
      <trkpt lat="46.26815" lon="2.43985">
        <ele>479.66</ele>
        <time>2018-07-07T15:55:41.000Z</time>
      </trkpt>
      <trkpt lat="46.26815" lon="2.44007">
        <ele>479.73</ele>
        <time>2018-07-07T15:55:43.000Z</time>
      </trkpt>
      <trkpt lat="46.26816" lon="2.44029">
        <ele>479.95</ele>
        <time>2018-07-07T15:55:45.000Z</time>
      </trkpt>
      <trkpt lat="46.26816" lon="2.44051">
        <ele>480.14</ele>
        <time>2018-07-07T15:55:47.000Z</time>
      </trkpt>
      <trkpt lat="46.26817" lon="2.44073">
        <ele>480.18</ele>
        <time>2018-07-07T15:55:49.000Z</time>
      </trkpt>
      <trkpt lat="46.26817" lon="2.44095">
        <ele>480.12</ele>
        <time>2018-07-07T15:55:51.000Z</time>
      </trkpt>
      <trkpt lat="46.26817" lon="2.44116">
        <ele>480.57</ele>
        <time>2018-07-07T15:55:53.000Z</time>
      </trkpt>
      <trkpt lat="46.26818" lon="2.44137">
        <ele>480.52</ele>
        <time>2018-07-07T15:55:55.000Z</time>
      </trkpt>
      <trkpt lat="46.26821" lon="2.44155">
        <ele>480.53</ele>
        <time>2018-07-07T15:55:57.000Z</time>
      </trkpt>
      <trkpt lat="46.26825" lon="2.44175">
        <ele>480.49</ele>
        <time>2018-07-07T15:55:59.000Z</time>
      </trkpt>
      <trkpt lat="46.26829" lon="2.44194">
        <ele>480.51</ele>
        <time>2018-07-07T15:56:01.000Z</time>
      </trkpt>
      <trkpt lat="46.26834" lon="2.44214">
        <ele>480.62</ele>
        <time>2018-07-07T15:56:03.000Z</time>
      </trkpt>
      <trkpt lat="46.26839" lon="2.44235">
        <ele>480.35</ele>
        <time>2018-07-07T15:56:05.000Z</time>
      </trkpt>
      <trkpt lat="46.26843" lon="2.44257">
        <ele>479.99</ele>
        <time>2018-07-07T15:56:07.000Z</time>
      </trkpt>
      <trkpt lat="46.26846" lon="2.44279">
        <ele>479.55</ele>
        <time>2018-07-07T15:56:09.000Z</time>
      </trkpt>
      <trkpt lat="46.26848" lon="2.44301">
        <ele>479.35</ele>
        <time>2018-07-07T15:56:11.000Z</time>
      </trkpt>
      <trkpt lat="46.26847" lon="2.44324">
        <ele>479.28</ele>
        <time>2018-07-07T15:56:13.000Z</time>
      </trkpt>
      <trkpt lat="46.26846" lon="2.44347">
        <ele>479.13</ele>
        <time>2018-07-07T15:56:15.000Z</time>
      </trkpt>
      <trkpt lat="46.26845" lon="2.4437">
        <ele>479.24</ele>
        <time>2018-07-07T15:56:17.000Z</time>
      </trkpt>
      <trkpt lat="46.26845" lon="2.44395">
        <ele>479.2</ele>
        <time>2018-07-07T15:56:19.000Z</time>
      </trkpt>
      <trkpt lat="46.26845" lon="2.44421">
        <ele>479.03</ele>
        <time>2018-07-07T15:56:21.000Z</time>
      </trkpt>
      <trkpt lat="46.26845" lon="2.44447">
        <ele>479.18</ele>
        <time>2018-07-07T15:56:23.000Z</time>
      </trkpt>
      <trkpt lat="46.26844" lon="2.44472">
        <ele>479.37</ele>
        <time>2018-07-07T15:56:25.000Z</time>
      </trkpt>
      <trkpt lat="46.26844" lon="2.44498">
        <ele>479.38</ele>
        <time>2018-07-07T15:56:27.000Z</time>
      </trkpt>
      <trkpt lat="46.26843" lon="2.44512">
        <ele>479.05</ele>
        <time>2018-07-07T15:56:28.000Z</time>
      </trkpt>
      <trkpt lat="46.26843" lon="2.44526">
        <ele>478.64</ele>
        <time>2018-07-07T15:56:29.000Z</time>
      </trkpt>
      <trkpt lat="46.26843" lon="2.4454">
        <ele>478.56</ele>
        <time>2018-07-07T15:56:30.000Z</time>
      </trkpt>
      <trkpt lat="46.26842" lon="2.44554">
        <ele>478.38</ele>
        <time>2018-07-07T15:56:31.000Z</time>
      </trkpt>
      <trkpt lat="46.26841" lon="2.44567">
        <ele>478.04</ele>
        <time>2018-07-07T15:56:32.000Z</time>
      </trkpt>
      <trkpt lat="46.26841" lon="2.44581">
        <ele>477.62</ele>
        <time>2018-07-07T15:56:33.000Z</time>
      </trkpt>
      <trkpt lat="46.26841" lon="2.44595">
        <ele>477.22</ele>
        <time>2018-07-07T15:56:34.000Z</time>
      </trkpt>
      <trkpt lat="46.26841" lon="2.4461">
        <ele>476.65</ele>
        <time>2018-07-07T15:56:35.000Z</time>
      </trkpt>
      <trkpt lat="46.2684" lon="2.44624">
        <ele>476.38</ele>
        <time>2018-07-07T15:56:36.000Z</time>
      </trkpt>
      <trkpt lat="46.26839" lon="2.44638">
        <ele>476.02</ele>
        <time>2018-07-07T15:56:37.000Z</time>
      </trkpt>
      <trkpt lat="46.26838" lon="2.44652">
        <ele>475.51</ele>
        <time>2018-07-07T15:56:38.000Z</time>
      </trkpt>
      <trkpt lat="46.26838" lon="2.44668">
        <ele>474.77</ele>
        <time>2018-07-07T15:56:39.000Z</time>
      </trkpt>
      <trkpt lat="46.26837" lon="2.44682">
        <ele>474.47</ele>
        <time>2018-07-07T15:56:40.000Z</time>
      </trkpt>
      <trkpt lat="46.26837" lon="2.44697">
        <ele>474.26</ele>
        <time>2018-07-07T15:56:41.000Z</time>
      </trkpt>
      <trkpt lat="46.26836" lon="2.44712">
        <ele>474</ele>
        <time>2018-07-07T15:56:42.000Z</time>
      </trkpt>
      <trkpt lat="46.26836" lon="2.44727">
        <ele>473.62</ele>
        <time>2018-07-07T15:56:43.000Z</time>
      </trkpt>
      <trkpt lat="46.26835" lon="2.44742">
        <ele>473.34</ele>
        <time>2018-07-07T15:56:44.000Z</time>
      </trkpt>
      <trkpt lat="46.26834" lon="2.44757">
        <ele>472.92</ele>
        <time>2018-07-07T15:56:45.000Z</time>
      </trkpt>
      <trkpt lat="46.26833" lon="2.44773">
        <ele>472.34</ele>
        <time>2018-07-07T15:56:46.000Z</time>
      </trkpt>
      <trkpt lat="46.26832" lon="2.44788">
        <ele>471.77</ele>
        <time>2018-07-07T15:56:47.000Z</time>
      </trkpt>
      <trkpt lat="46.26831" lon="2.44804">
        <ele>471.16</ele>
        <time>2018-07-07T15:56:48.000Z</time>
      </trkpt>
      <trkpt lat="46.2683" lon="2.4482">
        <ele>470.78</ele>
        <time>2018-07-07T15:56:49.000Z</time>
      </trkpt>
      <trkpt lat="46.26829" lon="2.44836">
        <ele>470.35</ele>
        <time>2018-07-07T15:56:50.000Z</time>
      </trkpt>
      <trkpt lat="46.2683" lon="2.44852">
        <ele>469.78</ele>
        <time>2018-07-07T15:56:51.000Z</time>
      </trkpt>
      <trkpt lat="46.26832" lon="2.44869">
        <ele>469.34</ele>
        <time>2018-07-07T15:56:52.000Z</time>
      </trkpt>
      <trkpt lat="46.26836" lon="2.44885">
        <ele>469.12</ele>
        <time>2018-07-07T15:56:53.000Z</time>
      </trkpt>
      <trkpt lat="46.26842" lon="2.44901">
        <ele>468.93</ele>
        <time>2018-07-07T15:56:54.000Z</time>
      </trkpt>
      <trkpt lat="46.26847" lon="2.44917">
        <ele>468.6</ele>
        <time>2018-07-07T15:56:55.000Z</time>
      </trkpt>
      <trkpt lat="46.2685" lon="2.44935">
        <ele>468.13</ele>
        <time>2018-07-07T15:56:56.000Z</time>
      </trkpt>
      <trkpt lat="46.26852" lon="2.44954">
        <ele>467.68</ele>
        <time>2018-07-07T15:56:57.000Z</time>
      </trkpt>
      <trkpt lat="46.26851" lon="2.44971">
        <ele>467.38</ele>
        <time>2018-07-07T15:56:58.000Z</time>
      </trkpt>
      <trkpt lat="46.26848" lon="2.44989">
        <ele>466.84</ele>
        <time>2018-07-07T15:56:59.000Z</time>
      </trkpt>
      <trkpt lat="46.26845" lon="2.45006">
        <ele>466.43</ele>
        <time>2018-07-07T15:57:00.000Z</time>
      </trkpt>
      <trkpt lat="46.26843" lon="2.45024">
        <ele>466.15</ele>
        <time>2018-07-07T15:57:01.000Z</time>
      </trkpt>
      <trkpt lat="46.26841" lon="2.45041">
        <ele>465.89</ele>
        <time>2018-07-07T15:57:02.000Z</time>
      </trkpt>
      <trkpt lat="46.26839" lon="2.45058">
        <ele>465.64</ele>
        <time>2018-07-07T15:57:03.000Z</time>
      </trkpt>
      <trkpt lat="46.26839" lon="2.45073">
        <ele>465.27</ele>
        <time>2018-07-07T15:57:04.000Z</time>
      </trkpt>
      <trkpt lat="46.2684" lon="2.45089">
        <ele>465.03</ele>
        <time>2018-07-07T15:57:05.000Z</time>
      </trkpt>
      <trkpt lat="46.26841" lon="2.45103">
        <ele>464.67</ele>
        <time>2018-07-07T15:57:06.000Z</time>
      </trkpt>
      <trkpt lat="46.26843" lon="2.45116">
        <ele>464.27</ele>
        <time>2018-07-07T15:57:07.000Z</time>
      </trkpt>
      <trkpt lat="46.26847" lon="2.45139">
        <ele>463.82</ele>
        <time>2018-07-07T15:57:09.000Z</time>
      </trkpt>
      <trkpt lat="46.26851" lon="2.45158">
        <ele>463.35</ele>
        <time>2018-07-07T15:57:11.000Z</time>
      </trkpt>
      <trkpt lat="46.26856" lon="2.45177">
        <ele>462.74</ele>
        <time>2018-07-07T15:57:13.000Z</time>
      </trkpt>
      <trkpt lat="46.26861" lon="2.45194">
        <ele>462.18</ele>
        <time>2018-07-07T15:57:15.000Z</time>
      </trkpt>
      <trkpt lat="46.26867" lon="2.45209">
        <ele>461.39</ele>
        <time>2018-07-07T15:57:17.000Z</time>
      </trkpt>
      <trkpt lat="46.26873" lon="2.45224">
        <ele>460.79</ele>
        <time>2018-07-07T15:57:19.000Z</time>
      </trkpt>
      <trkpt lat="46.2688" lon="2.45238">
        <ele>460.5</ele>
        <time>2018-07-07T15:57:21.000Z</time>
      </trkpt>
      <trkpt lat="46.26886" lon="2.45252">
        <ele>459.95</ele>
        <time>2018-07-07T15:57:23.000Z</time>
      </trkpt>
      <trkpt lat="46.26893" lon="2.45265">
        <ele>459.36</ele>
        <time>2018-07-07T15:57:25.000Z</time>
      </trkpt>
      <trkpt lat="46.26901" lon="2.45277">
        <ele>458.85</ele>
        <time>2018-07-07T15:57:27.000Z</time>
      </trkpt>
      <trkpt lat="46.26908" lon="2.45287">
        <ele>458.28</ele>
        <time>2018-07-07T15:57:29.000Z</time>
      </trkpt>
      <trkpt lat="46.26916" lon="2.45297">
        <ele>457.24</ele>
        <time>2018-07-07T15:57:31.000Z</time>
      </trkpt>
      <trkpt lat="46.26924" lon="2.45308">
        <ele>456.25</ele>
        <time>2018-07-07T15:57:33.000Z</time>
      </trkpt>
      <trkpt lat="46.26932" lon="2.45318">
        <ele>455</ele>
        <time>2018-07-07T15:57:35.000Z</time>
      </trkpt>
      <trkpt lat="46.2694" lon="2.45325">
        <ele>454.72</ele>
        <time>2018-07-07T15:57:37.000Z</time>
      </trkpt>
      <trkpt lat="46.26948" lon="2.45331">
        <ele>454.52</ele>
        <time>2018-07-07T15:57:39.000Z</time>
      </trkpt>
      <trkpt lat="46.26957" lon="2.45338">
        <ele>454.25</ele>
        <time>2018-07-07T15:57:41.000Z</time>
      </trkpt>
      <trkpt lat="46.26967" lon="2.45351">
        <ele>453.64</ele>
        <time>2018-07-07T15:57:44.000Z</time>
      </trkpt>
      <trkpt lat="46.26975" lon="2.45365">
        <ele>453.14</ele>
        <time>2018-07-07T15:57:47.000Z</time>
      </trkpt>
      <trkpt lat="46.26979" lon="2.45377">
        <ele>452.91</ele>
        <time>2018-07-07T15:57:49.000Z</time>
      </trkpt>
      <trkpt lat="46.26985" lon="2.45395">
        <ele>452.54</ele>
        <time>2018-07-07T15:57:52.000Z</time>
      </trkpt>
      <trkpt lat="46.26988" lon="2.45409">
        <ele>452.45</ele>
        <time>2018-07-07T15:57:54.000Z</time>
      </trkpt>
      <trkpt lat="46.26991" lon="2.45422">
        <ele>452.29</ele>
        <time>2018-07-07T15:57:56.000Z</time>
      </trkpt>
      <trkpt lat="46.26992" lon="2.45436">
        <ele>451.78</ele>
        <time>2018-07-07T15:57:58.000Z</time>
      </trkpt>
      <trkpt lat="46.26994" lon="2.45451">
        <ele>451.93</ele>
        <time>2018-07-07T15:58:00.000Z</time>
      </trkpt>
      <trkpt lat="46.26995" lon="2.45465">
        <ele>452.38</ele>
        <time>2018-07-07T15:58:02.000Z</time>
      </trkpt>
      <trkpt lat="46.26994" lon="2.45482">
        <ele>454.33</ele>
        <time>2018-07-07T15:58:05.000Z</time>
      </trkpt>
      <trkpt lat="46.26994" lon="2.45502">
        <ele>456.53</ele>
        <time>2018-07-07T15:58:08.000Z</time>
      </trkpt>
      <trkpt lat="46.26998" lon="2.45516">
        <ele>457.04</ele>
        <time>2018-07-07T15:58:10.000Z</time>
      </trkpt>
      <trkpt lat="46.27005" lon="2.45526">
        <ele>457.83</ele>
        <time>2018-07-07T15:58:12.000Z</time>
      </trkpt>
      <trkpt lat="46.27013" lon="2.45536">
        <ele>458.06</ele>
        <time>2018-07-07T15:58:14.000Z</time>
      </trkpt>
      <trkpt lat="46.2702" lon="2.45544">
        <ele>458.64</ele>
        <time>2018-07-07T15:58:16.000Z</time>
      </trkpt>
      <trkpt lat="46.27031" lon="2.45556">
        <ele>459.4</ele>
        <time>2018-07-07T15:58:19.000Z</time>
      </trkpt>
      <trkpt lat="46.27037" lon="2.45574">
        <ele>459.88</ele>
        <time>2018-07-07T15:58:22.000Z</time>
      </trkpt>
      <trkpt lat="46.27037" lon="2.45588">
        <ele>461.5</ele>
        <time>2018-07-07T15:58:24.000Z</time>
      </trkpt>
      <trkpt lat="46.27035" lon="2.456">
        <ele>462.81</ele>
        <time>2018-07-07T15:58:26.000Z</time>
      </trkpt>
      <trkpt lat="46.27031" lon="2.45619">
        <ele>463.16</ele>
        <time>2018-07-07T15:58:29.000Z</time>
      </trkpt>
      <trkpt lat="46.27028" lon="2.45637">
        <ele>463.77</ele>
        <time>2018-07-07T15:58:32.000Z</time>
      </trkpt>
      <trkpt lat="46.27032" lon="2.45654">
        <ele>464.18</ele>
        <time>2018-07-07T15:58:35.000Z</time>
      </trkpt>
      <trkpt lat="46.27042" lon="2.45666">
        <ele>465.22</ele>
        <time>2018-07-07T15:58:38.000Z</time>
      </trkpt>
      <trkpt lat="46.2705" lon="2.45671">
        <ele>465.7</ele>
        <time>2018-07-07T15:58:40.000Z</time>
      </trkpt>
      <trkpt lat="46.27059" lon="2.45674">
        <ele>465.99</ele>
        <time>2018-07-07T15:58:42.000Z</time>
      </trkpt>
      <trkpt lat="46.27068" lon="2.45676">
        <ele>466.23</ele>
        <time>2018-07-07T15:58:44.000Z</time>
      </trkpt>
      <trkpt lat="46.27078" lon="2.45675">
        <ele>467.12</ele>
        <time>2018-07-07T15:58:46.000Z</time>
      </trkpt>
      <trkpt lat="46.27087" lon="2.45674">
        <ele>467.95</ele>
        <time>2018-07-07T15:58:48.000Z</time>
      </trkpt>
      <trkpt lat="46.27099" lon="2.45677">
        <ele>468.73</ele>
        <time>2018-07-07T15:58:51.000Z</time>
      </trkpt>
      <trkpt lat="46.2711" lon="2.45688">
        <ele>469.49</ele>
        <time>2018-07-07T15:58:54.000Z</time>
      </trkpt>
      <trkpt lat="46.27117" lon="2.45704">
        <ele>470.08</ele>
        <time>2018-07-07T15:58:57.000Z</time>
      </trkpt>
      <trkpt lat="46.27122" lon="2.45717">
        <ele>470.84</ele>
        <time>2018-07-07T15:58:59.000Z</time>
      </trkpt>
      <trkpt lat="46.27127" lon="2.4573">
        <ele>471.21</ele>
        <time>2018-07-07T15:59:01.000Z</time>
      </trkpt>
      <trkpt lat="46.27134" lon="2.45739">
        <ele>471.88</ele>
        <time>2018-07-07T15:59:03.000Z</time>
      </trkpt>
      <trkpt lat="46.2714" lon="2.4575">
        <ele>472.61</ele>
        <time>2018-07-07T15:59:05.000Z</time>
      </trkpt>
      <trkpt lat="46.27149" lon="2.4576">
        <ele>472.66</ele>
        <time>2018-07-07T15:59:07.000Z</time>
      </trkpt>
      <trkpt lat="46.27159" lon="2.45769">
        <ele>472.41</ele>
        <time>2018-07-07T15:59:09.000Z</time>
      </trkpt>
      <trkpt lat="46.27169" lon="2.45776">
        <ele>471.71</ele>
        <time>2018-07-07T15:59:11.000Z</time>
      </trkpt>
      <trkpt lat="46.27179" lon="2.45783">
        <ele>471.34</ele>
        <time>2018-07-07T15:59:13.000Z</time>
      </trkpt>
      <trkpt lat="46.27189" lon="2.45789">
        <ele>471.39</ele>
        <time>2018-07-07T15:59:15.000Z</time>
      </trkpt>
      <trkpt lat="46.27198" lon="2.45794">
        <ele>471.95</ele>
        <time>2018-07-07T15:59:17.000Z</time>
      </trkpt>
      <trkpt lat="46.27208" lon="2.45799">
        <ele>472.52</ele>
        <time>2018-07-07T15:59:19.000Z</time>
      </trkpt>
      <trkpt lat="46.27217" lon="2.45803">
        <ele>473.05</ele>
        <time>2018-07-07T15:59:21.000Z</time>
      </trkpt>
      <trkpt lat="46.27226" lon="2.45808">
        <ele>473.66</ele>
        <time>2018-07-07T15:59:23.000Z</time>
      </trkpt>
      <trkpt lat="46.27235" lon="2.45814">
        <ele>474.06</ele>
        <time>2018-07-07T15:59:25.000Z</time>
      </trkpt>
      <trkpt lat="46.27245" lon="2.4582">
        <ele>474.63</ele>
        <time>2018-07-07T15:59:27.000Z</time>
      </trkpt>
      <trkpt lat="46.27254" lon="2.45826">
        <ele>475.52</ele>
        <time>2018-07-07T15:59:29.000Z</time>
      </trkpt>
      <trkpt lat="46.27262" lon="2.45834">
        <ele>476.63</ele>
        <time>2018-07-07T15:59:31.000Z</time>
      </trkpt>
      <trkpt lat="46.2727" lon="2.45841">
        <ele>477.4</ele>
        <time>2018-07-07T15:59:33.000Z</time>
      </trkpt>
      <trkpt lat="46.27278" lon="2.45848">
        <ele>478.31</ele>
        <time>2018-07-07T15:59:35.000Z</time>
      </trkpt>
      <trkpt lat="46.27287" lon="2.45855">
        <ele>479.35</ele>
        <time>2018-07-07T15:59:37.000Z</time>
      </trkpt>
      <trkpt lat="46.27295" lon="2.45861">
        <ele>480.16</ele>
        <time>2018-07-07T15:59:39.000Z</time>
      </trkpt>
      <trkpt lat="46.27303" lon="2.45869">
        <ele>480.62</ele>
        <time>2018-07-07T15:59:41.000Z</time>
      </trkpt>
      <trkpt lat="46.27311" lon="2.45878">
        <ele>480.62</ele>
        <time>2018-07-07T15:59:43.000Z</time>
      </trkpt>
      <trkpt lat="46.27318" lon="2.45885">
        <ele>480.89</ele>
        <time>2018-07-07T15:59:45.000Z</time>
      </trkpt>
      <trkpt lat="46.27327" lon="2.45894">
        <ele>481.42</ele>
        <time>2018-07-07T15:59:47.000Z</time>
      </trkpt>
      <trkpt lat="46.27334" lon="2.45902">
        <ele>482.01</ele>
        <time>2018-07-07T15:59:49.000Z</time>
      </trkpt>
      <trkpt lat="46.27342" lon="2.45911">
        <ele>482.53</ele>
        <time>2018-07-07T15:59:51.000Z</time>
      </trkpt>
      <trkpt lat="46.27348" lon="2.45919">
        <ele>483.02</ele>
        <time>2018-07-07T15:59:53.000Z</time>
      </trkpt>
      <trkpt lat="46.27356" lon="2.45928">
        <ele>483.13</ele>
        <time>2018-07-07T15:59:55.000Z</time>
      </trkpt>
      <trkpt lat="46.27364" lon="2.45937">
        <ele>483.05</ele>
        <time>2018-07-07T15:59:57.000Z</time>
      </trkpt>
      <trkpt lat="46.27372" lon="2.45947">
        <ele>483.36</ele>
        <time>2018-07-07T15:59:59.000Z</time>
      </trkpt>
      <trkpt lat="46.2738" lon="2.45957">
        <ele>483.87</ele>
        <time>2018-07-07T16:00:01.000Z</time>
      </trkpt>
      <trkpt lat="46.27389" lon="2.45965">
        <ele>484.61</ele>
        <time>2018-07-07T16:00:03.000Z</time>
      </trkpt>
      <trkpt lat="46.27398" lon="2.45974">
        <ele>485.46</ele>
        <time>2018-07-07T16:00:05.000Z</time>
      </trkpt>
      <trkpt lat="46.27407" lon="2.45982">
        <ele>486.26</ele>
        <time>2018-07-07T16:00:07.000Z</time>
      </trkpt>
      <trkpt lat="46.27417" lon="2.45989">
        <ele>486.91</ele>
        <time>2018-07-07T16:00:09.000Z</time>
      </trkpt>
      <trkpt lat="46.27426" lon="2.45995">
        <ele>487.45</ele>
        <time>2018-07-07T16:00:11.000Z</time>
      </trkpt>
      <trkpt lat="46.27436" lon="2.46002">
        <ele>487.9</ele>
        <time>2018-07-07T16:00:13.000Z</time>
      </trkpt>
      <trkpt lat="46.27447" lon="2.46008">
        <ele>488.19</ele>
        <time>2018-07-07T16:00:15.000Z</time>
      </trkpt>
      <trkpt lat="46.27457" lon="2.46014">
        <ele>488.38</ele>
        <time>2018-07-07T16:00:17.000Z</time>
      </trkpt>
      <trkpt lat="46.27467" lon="2.4602">
        <ele>488.29</ele>
        <time>2018-07-07T16:00:19.000Z</time>
      </trkpt>
      <trkpt lat="46.27478" lon="2.46026">
        <ele>487.93</ele>
        <time>2018-07-07T16:00:21.000Z</time>
      </trkpt>
      <trkpt lat="46.27487" lon="2.46034">
        <ele>487.79</ele>
        <time>2018-07-07T16:00:23.000Z</time>
      </trkpt>
      <trkpt lat="46.27496" lon="2.46042">
        <ele>488.2</ele>
        <time>2018-07-07T16:00:25.000Z</time>
      </trkpt>
      <trkpt lat="46.27505" lon="2.46049">
        <ele>488.35</ele>
        <time>2018-07-07T16:00:27.000Z</time>
      </trkpt>
      <trkpt lat="46.27515" lon="2.46057">
        <ele>488.77</ele>
        <time>2018-07-07T16:00:29.000Z</time>
      </trkpt>
      <trkpt lat="46.27524" lon="2.46066">
        <ele>488.6</ele>
        <time>2018-07-07T16:00:31.000Z</time>
      </trkpt>
      <trkpt lat="46.27534" lon="2.46074">
        <ele>488.39</ele>
        <time>2018-07-07T16:00:33.000Z</time>
      </trkpt>
      <trkpt lat="46.27544" lon="2.46083">
        <ele>488.17</ele>
        <time>2018-07-07T16:00:35.000Z</time>
      </trkpt>
      <trkpt lat="46.27555" lon="2.46092">
        <ele>488.05</ele>
        <time>2018-07-07T16:00:37.000Z</time>
      </trkpt>
      <trkpt lat="46.27565" lon="2.46101">
        <ele>488.44</ele>
        <time>2018-07-07T16:00:39.000Z</time>
      </trkpt>
      <trkpt lat="46.27575" lon="2.4611">
        <ele>488.69</ele>
        <time>2018-07-07T16:00:41.000Z</time>
      </trkpt>
      <trkpt lat="46.27587" lon="2.46119">
        <ele>488.67</ele>
        <time>2018-07-07T16:00:43.000Z</time>
      </trkpt>
      <trkpt lat="46.27599" lon="2.4613">
        <ele>488.19</ele>
        <time>2018-07-07T16:00:45.000Z</time>
      </trkpt>
      <trkpt lat="46.27612" lon="2.46141">
        <ele>488.01</ele>
        <time>2018-07-07T16:00:47.000Z</time>
      </trkpt>
      <trkpt lat="46.27623" lon="2.46157">
        <ele>488.12</ele>
        <time>2018-07-07T16:00:49.000Z</time>
      </trkpt>
      <trkpt lat="46.27633" lon="2.46175">
        <ele>487.91</ele>
        <time>2018-07-07T16:00:51.000Z</time>
      </trkpt>
      <trkpt lat="46.27643" lon="2.46194">
        <ele>487.69</ele>
        <time>2018-07-07T16:00:53.000Z</time>
      </trkpt>
      <trkpt lat="46.27652" lon="2.46215">
        <ele>487.15</ele>
        <time>2018-07-07T16:00:55.000Z</time>
      </trkpt>
      <trkpt lat="46.27662" lon="2.46237">
        <ele>487.05</ele>
        <time>2018-07-07T16:00:57.000Z</time>
      </trkpt>
      <trkpt lat="46.27667" lon="2.46248">
        <ele>487</ele>
        <time>2018-07-07T16:00:58.000Z</time>
      </trkpt>
      <trkpt lat="46.27673" lon="2.46259">
        <ele>486.84</ele>
        <time>2018-07-07T16:00:59.000Z</time>
      </trkpt>
      <trkpt lat="46.27678" lon="2.46271">
        <ele>486.44</ele>
        <time>2018-07-07T16:01:00.000Z</time>
      </trkpt>
      <trkpt lat="46.27684" lon="2.46282">
        <ele>486</ele>
        <time>2018-07-07T16:01:01.000Z</time>
      </trkpt>
      <trkpt lat="46.27691" lon="2.46294">
        <ele>485.5</ele>
        <time>2018-07-07T16:01:02.000Z</time>
      </trkpt>
      <trkpt lat="46.27697" lon="2.46304">
        <ele>485.33</ele>
        <time>2018-07-07T16:01:03.000Z</time>
      </trkpt>
      <trkpt lat="46.27705" lon="2.46313">
        <ele>484.99</ele>
        <time>2018-07-07T16:01:04.000Z</time>
      </trkpt>
      <trkpt lat="46.27715" lon="2.4632">
        <ele>484.57</ele>
        <time>2018-07-07T16:01:05.000Z</time>
      </trkpt>
      <trkpt lat="46.27725" lon="2.46325">
        <ele>484.18</ele>
        <time>2018-07-07T16:01:06.000Z</time>
      </trkpt>
      <trkpt lat="46.27737" lon="2.46329">
        <ele>483.55</ele>
        <time>2018-07-07T16:01:07.000Z</time>
      </trkpt>
      <trkpt lat="46.27747" lon="2.46332">
        <ele>482.94</ele>
        <time>2018-07-07T16:01:07.999Z</time>
      </trkpt>
      <trkpt lat="46.27758" lon="2.46334">
        <ele>482.4</ele>
        <time>2018-07-07T16:01:08.999Z</time>
      </trkpt>
      <trkpt lat="46.27768" lon="2.46333">
        <ele>481.61</ele>
        <time>2018-07-07T16:01:10.000Z</time>
      </trkpt>
      <trkpt lat="46.27776" lon="2.46329">
        <ele>481.12</ele>
        <time>2018-07-07T16:01:11.000Z</time>
      </trkpt>
      <trkpt lat="46.27789" lon="2.46318">
        <ele>480.71</ele>
        <time>2018-07-07T16:01:13.000Z</time>
      </trkpt>
      <trkpt lat="46.278" lon="2.46309">
        <ele>480</ele>
        <time>2018-07-07T16:01:15.000Z</time>
      </trkpt>
      <trkpt lat="46.27812" lon="2.46305">
        <ele>479.24</ele>
        <time>2018-07-07T16:01:17.000Z</time>
      </trkpt>
      <trkpt lat="46.27823" lon="2.46306">
        <ele>478.91</ele>
        <time>2018-07-07T16:01:19.000Z</time>
      </trkpt>
      <trkpt lat="46.27836" lon="2.46312">
        <ele>479.12</ele>
        <time>2018-07-07T16:01:21.000Z</time>
      </trkpt>
      <trkpt lat="46.27848" lon="2.46321">
        <ele>478.89</ele>
        <time>2018-07-07T16:01:23.000Z</time>
      </trkpt>
      <trkpt lat="46.27859" lon="2.46332">
        <ele>478.53</ele>
        <time>2018-07-07T16:01:25.000Z</time>
      </trkpt>
      <trkpt lat="46.27869" lon="2.46345">
        <ele>478.13</ele>
        <time>2018-07-07T16:01:27.000Z</time>
      </trkpt>
      <trkpt lat="46.27879" lon="2.46358">
        <ele>478.09</ele>
        <time>2018-07-07T16:01:29.000Z</time>
      </trkpt>
      <trkpt lat="46.27889" lon="2.46371">
        <ele>477.99</ele>
        <time>2018-07-07T16:01:31.000Z</time>
      </trkpt>
      <trkpt lat="46.27899" lon="2.46382">
        <ele>477.78</ele>
        <time>2018-07-07T16:01:33.000Z</time>
      </trkpt>
      <trkpt lat="46.27911" lon="2.46394">
        <ele>476.75</ele>
        <time>2018-07-07T16:01:35.000Z</time>
      </trkpt>
      <trkpt lat="46.27922" lon="2.46404">
        <ele>476.53</ele>
        <time>2018-07-07T16:01:37.000Z</time>
      </trkpt>
      <trkpt lat="46.27934" lon="2.46415">
        <ele>476.14</ele>
        <time>2018-07-07T16:01:39.000Z</time>
      </trkpt>
      <trkpt lat="46.27946" lon="2.46426">
        <ele>475.86</ele>
        <time>2018-07-07T16:01:41.000Z</time>
      </trkpt>
      <trkpt lat="46.27958" lon="2.46437">
        <ele>475.36</ele>
        <time>2018-07-07T16:01:43.000Z</time>
      </trkpt>
      <trkpt lat="46.27971" lon="2.46448">
        <ele>475.28</ele>
        <time>2018-07-07T16:01:45.000Z</time>
      </trkpt>
      <trkpt lat="46.27982" lon="2.46462">
        <ele>475.29</ele>
        <time>2018-07-07T16:01:47.000Z</time>
      </trkpt>
      <trkpt lat="46.27993" lon="2.46476">
        <ele>475.17</ele>
        <time>2018-07-07T16:01:49.000Z</time>
      </trkpt>
      <trkpt lat="46.28005" lon="2.4649">
        <ele>475.11</ele>
        <time>2018-07-07T16:01:51.000Z</time>
      </trkpt>
      <trkpt lat="46.28021" lon="2.46508">
        <ele>474.61</ele>
        <time>2018-07-07T16:01:54.000Z</time>
      </trkpt>
      <trkpt lat="46.28034" lon="2.46519">
        <ele>474.28</ele>
        <time>2018-07-07T16:01:56.000Z</time>
      </trkpt>
      <trkpt lat="46.28047" lon="2.46526">
        <ele>474.04</ele>
        <time>2018-07-07T16:01:58.000Z</time>
      </trkpt>
      <trkpt lat="46.28059" lon="2.46533">
        <ele>473.59</ele>
        <time>2018-07-07T16:02:00.000Z</time>
      </trkpt>
      <trkpt lat="46.28072" lon="2.4654">
        <ele>472.86</ele>
        <time>2018-07-07T16:02:02.000Z</time>
      </trkpt>
      <trkpt lat="46.28083" lon="2.46547">
        <ele>471.96</ele>
        <time>2018-07-07T16:02:04.000Z</time>
      </trkpt>
      <trkpt lat="46.281" lon="2.46556">
        <ele>471.17</ele>
        <time>2018-07-07T16:02:07.000Z</time>
      </trkpt>
      <trkpt lat="46.2811" lon="2.46562">
        <ele>470.35</ele>
        <time>2018-07-07T16:02:09.000Z</time>
      </trkpt>
      <trkpt lat="46.28126" lon="2.4657">
        <ele>469.75</ele>
        <time>2018-07-07T16:02:13.000Z</time>
      </trkpt>
      <trkpt lat="46.28138" lon="2.46577">
        <ele>469.75</ele>
        <time>2018-07-07T16:02:16.000Z</time>
      </trkpt>
      <trkpt lat="46.28148" lon="2.46588">
        <ele>469.81</ele>
        <time>2018-07-07T16:02:19.000Z</time>
      </trkpt>
      <trkpt lat="46.28158" lon="2.46603">
        <ele>470.29</ele>
        <time>2018-07-07T16:02:22.000Z</time>
      </trkpt>
      <trkpt lat="46.28164" lon="2.46618">
        <ele>471.51</ele>
        <time>2018-07-07T16:02:25.000Z</time>
      </trkpt>
      <trkpt lat="46.28165" lon="2.46637">
        <ele>473.94</ele>
        <time>2018-07-07T16:02:28.000Z</time>
      </trkpt>
      <trkpt lat="46.28159" lon="2.46659">
        <ele>477.73</ele>
        <time>2018-07-07T16:02:32.000Z</time>
      </trkpt>
      <trkpt lat="46.28151" lon="2.46675">
        <ele>480.57</ele>
        <time>2018-07-07T16:02:35.000Z</time>
      </trkpt>
      <trkpt lat="46.2814" lon="2.46692">
        <ele>480.28</ele>
        <time>2018-07-07T16:02:39.000Z</time>
      </trkpt>
      <trkpt lat="46.28132" lon="2.46704">
        <ele>480</ele>
        <time>2018-07-07T16:02:42.000Z</time>
      </trkpt>
      <trkpt lat="46.28124" lon="2.46715">
        <ele>479.55</ele>
        <time>2018-07-07T16:02:45.000Z</time>
      </trkpt>
      <trkpt lat="46.28118" lon="2.46731">
        <ele>481.37</ele>
        <time>2018-07-07T16:02:49.000Z</time>
      </trkpt>
      <trkpt lat="46.28117" lon="2.46744">
        <ele>483.29</ele>
        <time>2018-07-07T16:02:52.000Z</time>
      </trkpt>
      <trkpt lat="46.2812" lon="2.46757">
        <ele>484.63</ele>
        <time>2018-07-07T16:02:55.000Z</time>
      </trkpt>
      <trkpt lat="46.28125" lon="2.46768">
        <ele>485.55</ele>
        <time>2018-07-07T16:02:58.000Z</time>
      </trkpt>
      <trkpt lat="46.28132" lon="2.46779">
        <ele>486.29</ele>
        <time>2018-07-07T16:03:01.000Z</time>
      </trkpt>
      <trkpt lat="46.2814" lon="2.46788">
        <ele>487.08</ele>
        <time>2018-07-07T16:03:04.000Z</time>
      </trkpt>
      <trkpt lat="46.28148" lon="2.46794">
        <ele>487.75</ele>
        <time>2018-07-07T16:03:07.000Z</time>
      </trkpt>
      <trkpt lat="46.28159" lon="2.46799">
        <ele>488.05</ele>
        <time>2018-07-07T16:03:10.000Z</time>
      </trkpt>
      <trkpt lat="46.28169" lon="2.46801">
        <ele>488.57</ele>
        <time>2018-07-07T16:03:13.000Z</time>
      </trkpt>
      <trkpt lat="46.2818" lon="2.46807">
        <ele>489.29</ele>
        <time>2018-07-07T16:03:16.000Z</time>
      </trkpt>
      <trkpt lat="46.28191" lon="2.4681">
        <ele>490.21</ele>
        <time>2018-07-07T16:03:19.000Z</time>
      </trkpt>
      <trkpt lat="46.28203" lon="2.46815">
        <ele>490.87</ele>
        <time>2018-07-07T16:03:22.000Z</time>
      </trkpt>
      <trkpt lat="46.28214" lon="2.46824">
        <ele>491.34</ele>
        <time>2018-07-07T16:03:25.000Z</time>
      </trkpt>
      <trkpt lat="46.28223" lon="2.46831">
        <ele>491.79</ele>
        <time>2018-07-07T16:03:28.000Z</time>
      </trkpt>
      <trkpt lat="46.28232" lon="2.4684">
        <ele>492.05</ele>
        <time>2018-07-07T16:03:31.000Z</time>
      </trkpt>
      <trkpt lat="46.28241" lon="2.46849">
        <ele>492.11</ele>
        <time>2018-07-07T16:03:34.000Z</time>
      </trkpt>
      <trkpt lat="46.28249" lon="2.46864">
        <ele>493.31</ele>
        <time>2018-07-07T16:03:37.000Z</time>
      </trkpt>
      <trkpt lat="46.28258" lon="2.46878">
        <ele>493.64</ele>
        <time>2018-07-07T16:03:40.000Z</time>
      </trkpt>
      <trkpt lat="46.28264" lon="2.46887">
        <ele>494.67</ele>
        <time>2018-07-07T16:03:42.000Z</time>
      </trkpt>
      <trkpt lat="46.28271" lon="2.46897">
        <ele>495.78</ele>
        <time>2018-07-07T16:03:44.000Z</time>
      </trkpt>
      <trkpt lat="46.28277" lon="2.46907">
        <ele>496.38</ele>
        <time>2018-07-07T16:03:46.000Z</time>
      </trkpt>
      <trkpt lat="46.28284" lon="2.46917">
        <ele>496.9</ele>
        <time>2018-07-07T16:03:48.000Z</time>
      </trkpt>
      <trkpt lat="46.28293" lon="2.46928">
        <ele>497.19</ele>
        <time>2018-07-07T16:03:50.000Z</time>
      </trkpt>
      <trkpt lat="46.28301" lon="2.46938">
        <ele>497.61</ele>
        <time>2018-07-07T16:03:52.000Z</time>
      </trkpt>
      <trkpt lat="46.28309" lon="2.46952">
        <ele>498.22</ele>
        <time>2018-07-07T16:03:55.000Z</time>
      </trkpt>
      <trkpt lat="46.28317" lon="2.46964">
        <ele>498.38</ele>
        <time>2018-07-07T16:03:57.000Z</time>
      </trkpt>
      <trkpt lat="46.28324" lon="2.46975">
        <ele>498.71</ele>
        <time>2018-07-07T16:03:59.000Z</time>
      </trkpt>
      <trkpt lat="46.28331" lon="2.46987">
        <ele>499.52</ele>
        <time>2018-07-07T16:04:01.000Z</time>
      </trkpt>
      <trkpt lat="46.28338" lon="2.46999">
        <ele>499.8</ele>
        <time>2018-07-07T16:04:03.000Z</time>
      </trkpt>
      <trkpt lat="46.28345" lon="2.47011">
        <ele>499.39</ele>
        <time>2018-07-07T16:04:05.000Z</time>
      </trkpt>
      <trkpt lat="46.28352" lon="2.47023">
        <ele>498.89</ele>
        <time>2018-07-07T16:04:07.000Z</time>
      </trkpt>
      <trkpt lat="46.28359" lon="2.47034">
        <ele>498.61</ele>
        <time>2018-07-07T16:04:09.000Z</time>
      </trkpt>
      <trkpt lat="46.28366" lon="2.47047">
        <ele>498.64</ele>
        <time>2018-07-07T16:04:11.000Z</time>
      </trkpt>
      <trkpt lat="46.28373" lon="2.47059">
        <ele>498.96</ele>
        <time>2018-07-07T16:04:13.000Z</time>
      </trkpt>
      <trkpt lat="46.28379" lon="2.47071">
        <ele>498.92</ele>
        <time>2018-07-07T16:04:15.000Z</time>
      </trkpt>
      <trkpt lat="46.28386" lon="2.47082">
        <ele>498.65</ele>
        <time>2018-07-07T16:04:17.000Z</time>
      </trkpt>
      <trkpt lat="46.28394" lon="2.47092">
        <ele>498.8</ele>
        <time>2018-07-07T16:04:19.000Z</time>
      </trkpt>
      <trkpt lat="46.28404" lon="2.47101">
        <ele>498.96</ele>
        <time>2018-07-07T16:04:21.000Z</time>
      </trkpt>
      <trkpt lat="46.28413" lon="2.47111">
        <ele>499.24</ele>
        <time>2018-07-07T16:04:23.000Z</time>
      </trkpt>
      <trkpt lat="46.28423" lon="2.47121">
        <ele>499.2</ele>
        <time>2018-07-07T16:04:25.000Z</time>
      </trkpt>
      <trkpt lat="46.28432" lon="2.47129">
        <ele>499.03</ele>
        <time>2018-07-07T16:04:27.000Z</time>
      </trkpt>
      <trkpt lat="46.28441" lon="2.47137">
        <ele>499.06</ele>
        <time>2018-07-07T16:04:29.000Z</time>
      </trkpt>
      <trkpt lat="46.2845" lon="2.47144">
        <ele>499.22</ele>
        <time>2018-07-07T16:04:31.000Z</time>
      </trkpt>
      <trkpt lat="46.2846" lon="2.47152">
        <ele>499.41</ele>
        <time>2018-07-07T16:04:33.000Z</time>
      </trkpt>
      <trkpt lat="46.2847" lon="2.47159">
        <ele>499.66</ele>
        <time>2018-07-07T16:04:35.000Z</time>
      </trkpt>
      <trkpt lat="46.28481" lon="2.47169">
        <ele>499.67</ele>
        <time>2018-07-07T16:04:37.000Z</time>
      </trkpt>
      <trkpt lat="46.28493" lon="2.4718">
        <ele>499.72</ele>
        <time>2018-07-07T16:04:39.000Z</time>
      </trkpt>
      <trkpt lat="46.28505" lon="2.47189">
        <ele>499.51</ele>
        <time>2018-07-07T16:04:41.000Z</time>
      </trkpt>
      <trkpt lat="46.28516" lon="2.47199">
        <ele>499.56</ele>
        <time>2018-07-07T16:04:43.000Z</time>
      </trkpt>
      <trkpt lat="46.28527" lon="2.47209">
        <ele>499.85</ele>
        <time>2018-07-07T16:04:45.000Z</time>
      </trkpt>
      <trkpt lat="46.28539" lon="2.47221">
        <ele>499.94</ele>
        <time>2018-07-07T16:04:47.000Z</time>
      </trkpt>
      <trkpt lat="46.2855" lon="2.47233">
        <ele>500.12</ele>
        <time>2018-07-07T16:04:49.000Z</time>
      </trkpt>
      <trkpt lat="46.28563" lon="2.47247">
        <ele>500.28</ele>
        <time>2018-07-07T16:04:51.000Z</time>
      </trkpt>
      <trkpt lat="46.28569" lon="2.47256">
        <ele>500.36</ele>
        <time>2018-07-07T16:04:52.000Z</time>
      </trkpt>
      <trkpt lat="46.28577" lon="2.47273">
        <ele>500.43</ele>
        <time>2018-07-07T16:04:54.000Z</time>
      </trkpt>
      <trkpt lat="46.28584" lon="2.4729">
        <ele>500.83</ele>
        <time>2018-07-07T16:04:56.000Z</time>
      </trkpt>
      <trkpt lat="46.2859" lon="2.47308">
        <ele>501.12</ele>
        <time>2018-07-07T16:04:58.000Z</time>
      </trkpt>
      <trkpt lat="46.28597" lon="2.47326">
        <ele>500.89</ele>
        <time>2018-07-07T16:05:00.000Z</time>
      </trkpt>
      <trkpt lat="46.28604" lon="2.47344">
        <ele>500.06</ele>
        <time>2018-07-07T16:05:02.000Z</time>
      </trkpt>
      <trkpt lat="46.28611" lon="2.47361">
        <ele>499.14</ele>
        <time>2018-07-07T16:05:04.000Z</time>
      </trkpt>
      <trkpt lat="46.28618" lon="2.47379">
        <ele>498.59</ele>
        <time>2018-07-07T16:05:06.000Z</time>
      </trkpt>
      <trkpt lat="46.28624" lon="2.47398">
        <ele>498.15</ele>
        <time>2018-07-07T16:05:08.000Z</time>
      </trkpt>
      <trkpt lat="46.28629" lon="2.47417">
        <ele>497.83</ele>
        <time>2018-07-07T16:05:10.000Z</time>
      </trkpt>
      <trkpt lat="46.28634" lon="2.47437">
        <ele>497.63</ele>
        <time>2018-07-07T16:05:12.000Z</time>
      </trkpt>
      <trkpt lat="46.28639" lon="2.47457">
        <ele>497.22</ele>
        <time>2018-07-07T16:05:14.000Z</time>
      </trkpt>
      <trkpt lat="46.28642" lon="2.47478">
        <ele>496.96</ele>
        <time>2018-07-07T16:05:16.000Z</time>
      </trkpt>
      <trkpt lat="46.28642" lon="2.475">
        <ele>496.94</ele>
        <time>2018-07-07T16:05:18.000Z</time>
      </trkpt>
      <trkpt lat="46.28642" lon="2.47522">
        <ele>497.17</ele>
        <time>2018-07-07T16:05:20.000Z</time>
      </trkpt>
      <trkpt lat="46.28642" lon="2.47543">
        <ele>497.81</ele>
        <time>2018-07-07T16:05:22.000Z</time>
      </trkpt>
      <trkpt lat="46.28642" lon="2.47564">
        <ele>498.37</ele>
        <time>2018-07-07T16:05:24.000Z</time>
      </trkpt>
      <trkpt lat="46.2864" lon="2.47583">
        <ele>499.25</ele>
        <time>2018-07-07T16:05:26.000Z</time>
      </trkpt>
      <trkpt lat="46.28639" lon="2.47601">
        <ele>499.74</ele>
        <time>2018-07-07T16:05:28.000Z</time>
      </trkpt>
      <trkpt lat="46.28641" lon="2.4762">
        <ele>500.32</ele>
        <time>2018-07-07T16:05:30.000Z</time>
      </trkpt>
      <trkpt lat="46.28643" lon="2.47637">
        <ele>500.8</ele>
        <time>2018-07-07T16:05:32.000Z</time>
      </trkpt>
      <trkpt lat="46.28647" lon="2.47658">
        <ele>501.21</ele>
        <time>2018-07-07T16:05:34.000Z</time>
      </trkpt>
      <trkpt lat="46.28649" lon="2.4768">
        <ele>500.92</ele>
        <time>2018-07-07T16:05:36.000Z</time>
      </trkpt>
      <trkpt lat="46.28652" lon="2.47703">
        <ele>501.18</ele>
        <time>2018-07-07T16:05:38.000Z</time>
      </trkpt>
      <trkpt lat="46.28656" lon="2.47726">
        <ele>501.87</ele>
        <time>2018-07-07T16:05:40.000Z</time>
      </trkpt>
      <trkpt lat="46.2866" lon="2.4775">
        <ele>502.81</ele>
        <time>2018-07-07T16:05:42.000Z</time>
      </trkpt>
      <trkpt lat="46.28663" lon="2.47771">
        <ele>503.23</ele>
        <time>2018-07-07T16:05:44.000Z</time>
      </trkpt>
      <trkpt lat="46.28666" lon="2.47792">
        <ele>503.06</ele>
        <time>2018-07-07T16:05:46.000Z</time>
      </trkpt>
      <trkpt lat="46.2867" lon="2.4781">
        <ele>502.41</ele>
        <time>2018-07-07T16:05:48.000Z</time>
      </trkpt>
      <trkpt lat="46.28675" lon="2.47829">
        <ele>502.14</ele>
        <time>2018-07-07T16:05:50.000Z</time>
      </trkpt>
      <trkpt lat="46.28679" lon="2.47848">
        <ele>501.83</ele>
        <time>2018-07-07T16:05:52.000Z</time>
      </trkpt>
      <trkpt lat="46.28684" lon="2.47867">
        <ele>501.05</ele>
        <time>2018-07-07T16:05:54.000Z</time>
      </trkpt>
      <trkpt lat="46.28688" lon="2.47886">
        <ele>500.1</ele>
        <time>2018-07-07T16:05:56.000Z</time>
      </trkpt>
      <trkpt lat="46.28693" lon="2.47904">
        <ele>499.15</ele>
        <time>2018-07-07T16:05:58.000Z</time>
      </trkpt>
      <trkpt lat="46.28697" lon="2.47922">
        <ele>498.17</ele>
        <time>2018-07-07T16:06:00.000Z</time>
      </trkpt>
      <trkpt lat="46.28701" lon="2.47939">
        <ele>497.46</ele>
        <time>2018-07-07T16:06:02.000Z</time>
      </trkpt>
      <trkpt lat="46.28706" lon="2.47956">
        <ele>496.87</ele>
        <time>2018-07-07T16:06:04.000Z</time>
      </trkpt>
      <trkpt lat="46.28709" lon="2.47972">
        <ele>496.59</ele>
        <time>2018-07-07T16:06:06.000Z</time>
      </trkpt>
      <trkpt lat="46.28713" lon="2.47989">
        <ele>496.43</ele>
        <time>2018-07-07T16:06:08.000Z</time>
      </trkpt>
      <trkpt lat="46.28717" lon="2.48004">
        <ele>496.51</ele>
        <time>2018-07-07T16:06:10.000Z</time>
      </trkpt>
      <trkpt lat="46.28721" lon="2.48022">
        <ele>496.39</ele>
        <time>2018-07-07T16:06:12.000Z</time>
      </trkpt>
      <trkpt lat="46.28724" lon="2.48039">
        <ele>496.2</ele>
        <time>2018-07-07T16:06:14.000Z</time>
      </trkpt>
      <trkpt lat="46.28728" lon="2.48058">
        <ele>496.16</ele>
        <time>2018-07-07T16:06:16.000Z</time>
      </trkpt>
      <trkpt lat="46.28731" lon="2.48075">
        <ele>496.1</ele>
        <time>2018-07-07T16:06:18.000Z</time>
      </trkpt>
      <trkpt lat="46.28733" lon="2.48093">
        <ele>495.7</ele>
        <time>2018-07-07T16:06:20.000Z</time>
      </trkpt>
      <trkpt lat="46.28735" lon="2.48112">
        <ele>496.29</ele>
        <time>2018-07-07T16:06:22.000Z</time>
      </trkpt>
      <trkpt lat="46.28738" lon="2.4813">
        <ele>496.93</ele>
        <time>2018-07-07T16:06:24.000Z</time>
      </trkpt>
      <trkpt lat="46.2874" lon="2.48148">
        <ele>497.68</ele>
        <time>2018-07-07T16:06:26.000Z</time>
      </trkpt>
      <trkpt lat="46.28743" lon="2.48165">
        <ele>498.59</ele>
        <time>2018-07-07T16:06:28.000Z</time>
      </trkpt>
      <trkpt lat="46.28745" lon="2.48183">
        <ele>499.03</ele>
        <time>2018-07-07T16:06:30.000Z</time>
      </trkpt>
      <trkpt lat="46.28747" lon="2.482">
        <ele>499.5</ele>
        <time>2018-07-07T16:06:32.000Z</time>
      </trkpt>
      <trkpt lat="46.28749" lon="2.48218">
        <ele>499.84</ele>
        <time>2018-07-07T16:06:34.000Z</time>
      </trkpt>
      <trkpt lat="46.2875" lon="2.48233">
        <ele>500.8</ele>
        <time>2018-07-07T16:06:36.000Z</time>
      </trkpt>
      <trkpt lat="46.28751" lon="2.48246">
        <ele>501.62</ele>
        <time>2018-07-07T16:06:38.000Z</time>
      </trkpt>
      <trkpt lat="46.28754" lon="2.48261">
        <ele>502.21</ele>
        <time>2018-07-07T16:06:40.000Z</time>
      </trkpt>
      <trkpt lat="46.28756" lon="2.48275">
        <ele>502.54</ele>
        <time>2018-07-07T16:06:42.000Z</time>
      </trkpt>
      <trkpt lat="46.28758" lon="2.48289">
        <ele>502.63</ele>
        <time>2018-07-07T16:06:44.000Z</time>
      </trkpt>
      <trkpt lat="46.2876" lon="2.48304">
        <ele>502.42</ele>
        <time>2018-07-07T16:06:46.000Z</time>
      </trkpt>
      <trkpt lat="46.28762" lon="2.48319">
        <ele>502.64</ele>
        <time>2018-07-07T16:06:48.000Z</time>
      </trkpt>
      <trkpt lat="46.28764" lon="2.48333">
        <ele>503.03</ele>
        <time>2018-07-07T16:06:50.000Z</time>
      </trkpt>
      <trkpt lat="46.28764" lon="2.48348">
        <ele>503.37</ele>
        <time>2018-07-07T16:06:52.000Z</time>
      </trkpt>
      <trkpt lat="46.28764" lon="2.48362">
        <ele>503.31</ele>
        <time>2018-07-07T16:06:54.000Z</time>
      </trkpt>
      <trkpt lat="46.28763" lon="2.48375">
        <ele>503.5</ele>
        <time>2018-07-07T16:06:56.000Z</time>
      </trkpt>
      <trkpt lat="46.28764" lon="2.48395">
        <ele>503.17</ele>
        <time>2018-07-07T16:06:58.000Z</time>
      </trkpt>
      <trkpt lat="46.28767" lon="2.48415">
        <ele>502.78</ele>
        <time>2018-07-07T16:07:00.000Z</time>
      </trkpt>
      <trkpt lat="46.28773" lon="2.48435">
        <ele>502.14</ele>
        <time>2018-07-07T16:07:02.000Z</time>
      </trkpt>
      <trkpt lat="46.28781" lon="2.48458">
        <ele>501.41</ele>
        <time>2018-07-07T16:07:04.000Z</time>
      </trkpt>
      <trkpt lat="46.2879" lon="2.4848">
        <ele>500.82</ele>
        <time>2018-07-07T16:07:06.000Z</time>
      </trkpt>
      <trkpt lat="46.28798" lon="2.48502">
        <ele>500.57</ele>
        <time>2018-07-07T16:07:08.000Z</time>
      </trkpt>
      <trkpt lat="46.28806" lon="2.48523">
        <ele>500.32</ele>
        <time>2018-07-07T16:07:10.000Z</time>
      </trkpt>
      <trkpt lat="46.28813" lon="2.48544">
        <ele>500.23</ele>
        <time>2018-07-07T16:07:12.000Z</time>
      </trkpt>
      <trkpt lat="46.28821" lon="2.48566">
        <ele>499.94</ele>
        <time>2018-07-07T16:07:14.000Z</time>
      </trkpt>
      <trkpt lat="46.28829" lon="2.48587">
        <ele>499.55</ele>
        <time>2018-07-07T16:07:16.000Z</time>
      </trkpt>
      <trkpt lat="46.28836" lon="2.48607">
        <ele>499.34</ele>
        <time>2018-07-07T16:07:18.000Z</time>
      </trkpt>
      <trkpt lat="46.28844" lon="2.48628">
        <ele>499.34</ele>
        <time>2018-07-07T16:07:20.000Z</time>
      </trkpt>
      <trkpt lat="46.28849" lon="2.48649">
        <ele>499.48</ele>
        <time>2018-07-07T16:07:22.000Z</time>
      </trkpt>
      <trkpt lat="46.28853" lon="2.48669">
        <ele>499.68</ele>
        <time>2018-07-07T16:07:24.000Z</time>
      </trkpt>
      <trkpt lat="46.28856" lon="2.4869">
        <ele>499.75</ele>
        <time>2018-07-07T16:07:26.000Z</time>
      </trkpt>
      <trkpt lat="46.28859" lon="2.48711">
        <ele>499.49</ele>
        <time>2018-07-07T16:07:28.000Z</time>
      </trkpt>
      <trkpt lat="46.28862" lon="2.48734">
        <ele>499.14</ele>
        <time>2018-07-07T16:07:30.000Z</time>
      </trkpt>
      <trkpt lat="46.28864" lon="2.48756">
        <ele>499.01</ele>
        <time>2018-07-07T16:07:32.000Z</time>
      </trkpt>
      <trkpt lat="46.28867" lon="2.48778">
        <ele>499.1</ele>
        <time>2018-07-07T16:07:34.000Z</time>
      </trkpt>
      <trkpt lat="46.2887" lon="2.48801">
        <ele>499.25</ele>
        <time>2018-07-07T16:07:36.000Z</time>
      </trkpt>
      <trkpt lat="46.28873" lon="2.48824">
        <ele>499.38</ele>
        <time>2018-07-07T16:07:38.000Z</time>
      </trkpt>
      <trkpt lat="46.28876" lon="2.48846">
        <ele>499.67</ele>
        <time>2018-07-07T16:07:40.000Z</time>
      </trkpt>
      <trkpt lat="46.28878" lon="2.48869">
        <ele>499.8</ele>
        <time>2018-07-07T16:07:42.000Z</time>
      </trkpt>
      <trkpt lat="46.28881" lon="2.48892">
        <ele>499.4</ele>
        <time>2018-07-07T16:07:44.000Z</time>
      </trkpt>
      <trkpt lat="46.28884" lon="2.48915">
        <ele>498.82</ele>
        <time>2018-07-07T16:07:46.000Z</time>
      </trkpt>
      <trkpt lat="46.28887" lon="2.48938">
        <ele>497.9</ele>
        <time>2018-07-07T16:07:48.000Z</time>
      </trkpt>
      <trkpt lat="46.28891" lon="2.48961">
        <ele>496.72</ele>
        <time>2018-07-07T16:07:50.000Z</time>
      </trkpt>
      <trkpt lat="46.28893" lon="2.48982">
        <ele>496.38</ele>
        <time>2018-07-07T16:07:52.000Z</time>
      </trkpt>
      <trkpt lat="46.28895" lon="2.49003">
        <ele>496.38</ele>
        <time>2018-07-07T16:07:54.000Z</time>
      </trkpt>
      <trkpt lat="46.28898" lon="2.49023">
        <ele>496.59</ele>
        <time>2018-07-07T16:07:56.000Z</time>
      </trkpt>
      <trkpt lat="46.28901" lon="2.49043">
        <ele>496.14</ele>
        <time>2018-07-07T16:07:58.000Z</time>
      </trkpt>
      <trkpt lat="46.28904" lon="2.49064">
        <ele>495.91</ele>
        <time>2018-07-07T16:08:00.000Z</time>
      </trkpt>
      <trkpt lat="46.28906" lon="2.49085">
        <ele>495.37</ele>
        <time>2018-07-07T16:08:02.000Z</time>
      </trkpt>
      <trkpt lat="46.28909" lon="2.49105">
        <ele>494.62</ele>
        <time>2018-07-07T16:08:04.000Z</time>
      </trkpt>
      <trkpt lat="46.28911" lon="2.49124">
        <ele>493.86</ele>
        <time>2018-07-07T16:08:06.000Z</time>
      </trkpt>
      <trkpt lat="46.28914" lon="2.49141">
        <ele>493.85</ele>
        <time>2018-07-07T16:08:08.000Z</time>
      </trkpt>
      <trkpt lat="46.28918" lon="2.49156">
        <ele>493.99</ele>
        <time>2018-07-07T16:08:10.000Z</time>
      </trkpt>
      <trkpt lat="46.28922" lon="2.49171">
        <ele>493.94</ele>
        <time>2018-07-07T16:08:12.000Z</time>
      </trkpt>
      <trkpt lat="46.28927" lon="2.49187">
        <ele>493.86</ele>
        <time>2018-07-07T16:08:14.000Z</time>
      </trkpt>
      <trkpt lat="46.28932" lon="2.49204">
        <ele>493.94</ele>
        <time>2018-07-07T16:08:16.000Z</time>
      </trkpt>
      <trkpt lat="46.28936" lon="2.49221">
        <ele>493.95</ele>
        <time>2018-07-07T16:08:18.000Z</time>
      </trkpt>
      <trkpt lat="46.28942" lon="2.49236">
        <ele>493.93</ele>
        <time>2018-07-07T16:08:20.000Z</time>
      </trkpt>
      <trkpt lat="46.28948" lon="2.4925">
        <ele>493.99</ele>
        <time>2018-07-07T16:08:22.000Z</time>
      </trkpt>
      <trkpt lat="46.28953" lon="2.49262">
        <ele>494</ele>
        <time>2018-07-07T16:08:24.000Z</time>
      </trkpt>
      <trkpt lat="46.28957" lon="2.49273">
        <ele>494.14</ele>
        <time>2018-07-07T16:08:26.000Z</time>
      </trkpt>
      <trkpt lat="46.28963" lon="2.49289">
        <ele>494.7</ele>
        <time>2018-07-07T16:08:29.000Z</time>
      </trkpt>
      <trkpt lat="46.28967" lon="2.49301">
        <ele>494.95</ele>
        <time>2018-07-07T16:08:31.000Z</time>
      </trkpt>
      <trkpt lat="46.28973" lon="2.49313">
        <ele>495.28</ele>
        <time>2018-07-07T16:08:33.000Z</time>
      </trkpt>
      <trkpt lat="46.2898" lon="2.49328">
        <ele>495.84</ele>
        <time>2018-07-07T16:08:35.000Z</time>
      </trkpt>
      <trkpt lat="46.28988" lon="2.49343">
        <ele>496.41</ele>
        <time>2018-07-07T16:08:37.000Z</time>
      </trkpt>
      <trkpt lat="46.28997" lon="2.49355">
        <ele>497.27</ele>
        <time>2018-07-07T16:08:39.000Z</time>
      </trkpt>
      <trkpt lat="46.29005" lon="2.49367">
        <ele>497.78</ele>
        <time>2018-07-07T16:08:41.000Z</time>
      </trkpt>
      <trkpt lat="46.29013" lon="2.49379">
        <ele>498.27</ele>
        <time>2018-07-07T16:08:43.000Z</time>
      </trkpt>
      <trkpt lat="46.29019" lon="2.49391">
        <ele>499.09</ele>
        <time>2018-07-07T16:08:45.000Z</time>
      </trkpt>
      <trkpt lat="46.29026" lon="2.49404">
        <ele>498.99</ele>
        <time>2018-07-07T16:08:47.000Z</time>
      </trkpt>
      <trkpt lat="46.29033" lon="2.49418">
        <ele>499.3</ele>
        <time>2018-07-07T16:08:49.000Z</time>
      </trkpt>
      <trkpt lat="46.29038" lon="2.49433">
        <ele>499.8</ele>
        <time>2018-07-07T16:08:51.000Z</time>
      </trkpt>
      <trkpt lat="46.29044" lon="2.49447">
        <ele>499.96</ele>
        <time>2018-07-07T16:08:53.000Z</time>
      </trkpt>
      <trkpt lat="46.29049" lon="2.49461">
        <ele>499.52</ele>
        <time>2018-07-07T16:08:55.000Z</time>
      </trkpt>
      <trkpt lat="46.29054" lon="2.49474">
        <ele>499.68</ele>
        <time>2018-07-07T16:08:57.000Z</time>
      </trkpt>
      <trkpt lat="46.29059" lon="2.49488">
        <ele>499.93</ele>
        <time>2018-07-07T16:08:59.000Z</time>
      </trkpt>
      <trkpt lat="46.29064" lon="2.49503">
        <ele>499.65</ele>
        <time>2018-07-07T16:09:01.000Z</time>
      </trkpt>
      <trkpt lat="46.2907" lon="2.49518">
        <ele>499.6</ele>
        <time>2018-07-07T16:09:03.000Z</time>
      </trkpt>
      <trkpt lat="46.29076" lon="2.49535">
        <ele>499.79</ele>
        <time>2018-07-07T16:09:05.000Z</time>
      </trkpt>
      <trkpt lat="46.29082" lon="2.49552">
        <ele>499.87</ele>
        <time>2018-07-07T16:09:07.000Z</time>
      </trkpt>
      <trkpt lat="46.29088" lon="2.49569">
        <ele>499.66</ele>
        <time>2018-07-07T16:09:09.000Z</time>
      </trkpt>
      <trkpt lat="46.29094" lon="2.49588">
        <ele>499.55</ele>
        <time>2018-07-07T16:09:11.000Z</time>
      </trkpt>
      <trkpt lat="46.29102" lon="2.49606">
        <ele>499.3</ele>
        <time>2018-07-07T16:09:13.000Z</time>
      </trkpt>
      <trkpt lat="46.29111" lon="2.49623">
        <ele>499.24</ele>
        <time>2018-07-07T16:09:15.000Z</time>
      </trkpt>
      <trkpt lat="46.29119" lon="2.49639">
        <ele>499.48</ele>
        <time>2018-07-07T16:09:17.000Z</time>
      </trkpt>
      <trkpt lat="46.29127" lon="2.49655">
        <ele>499.91</ele>
        <time>2018-07-07T16:09:19.000Z</time>
      </trkpt>
      <trkpt lat="46.29136" lon="2.49671">
        <ele>500.23</ele>
        <time>2018-07-07T16:09:21.000Z</time>
      </trkpt>
      <trkpt lat="46.29144" lon="2.49687">
        <ele>500.63</ele>
        <time>2018-07-07T16:09:23.000Z</time>
      </trkpt>
      <trkpt lat="46.29152" lon="2.49703">
        <ele>500.65</ele>
        <time>2018-07-07T16:09:25.000Z</time>
      </trkpt>
      <trkpt lat="46.2916" lon="2.49719">
        <ele>500.32</ele>
        <time>2018-07-07T16:09:27.000Z</time>
      </trkpt>
      <trkpt lat="46.29169" lon="2.49736">
        <ele>499.99</ele>
        <time>2018-07-07T16:09:29.000Z</time>
      </trkpt>
      <trkpt lat="46.29177" lon="2.49752">
        <ele>500.09</ele>
        <time>2018-07-07T16:09:31.000Z</time>
      </trkpt>
      <trkpt lat="46.29186" lon="2.49766">
        <ele>500.29</ele>
        <time>2018-07-07T16:09:33.000Z</time>
      </trkpt>
      <trkpt lat="46.29196" lon="2.49783">
        <ele>500.13</ele>
        <time>2018-07-07T16:09:35.000Z</time>
      </trkpt>
      <trkpt lat="46.29206" lon="2.49799">
        <ele>500.18</ele>
        <time>2018-07-07T16:09:37.000Z</time>
      </trkpt>
      <trkpt lat="46.29216" lon="2.49813">
        <ele>500.14</ele>
        <time>2018-07-07T16:09:39.000Z</time>
      </trkpt>
      <trkpt lat="46.29226" lon="2.49826">
        <ele>499.88</ele>
        <time>2018-07-07T16:09:41.000Z</time>
      </trkpt>
      <trkpt lat="46.29238" lon="2.49837">
        <ele>499.15</ele>
        <time>2018-07-07T16:09:43.000Z</time>
      </trkpt>
      <trkpt lat="46.2925" lon="2.49849">
        <ele>498.43</ele>
        <time>2018-07-07T16:09:45.000Z</time>
      </trkpt>
      <trkpt lat="46.29263" lon="2.49863">
        <ele>497.15</ele>
        <time>2018-07-07T16:09:47.000Z</time>
      </trkpt>
      <trkpt lat="46.29277" lon="2.49878">
        <ele>495.57</ele>
        <time>2018-07-07T16:09:49.000Z</time>
      </trkpt>
      <trkpt lat="46.29292" lon="2.49893">
        <ele>494.43</ele>
        <time>2018-07-07T16:09:51.000Z</time>
      </trkpt>
      <trkpt lat="46.29306" lon="2.49909">
        <ele>493.15</ele>
        <time>2018-07-07T16:09:53.000Z</time>
      </trkpt>
      <trkpt lat="46.29313" lon="2.49918">
        <ele>492.48</ele>
        <time>2018-07-07T16:09:54.000Z</time>
      </trkpt>
      <trkpt lat="46.2932" lon="2.49928">
        <ele>491.84</ele>
        <time>2018-07-07T16:09:55.000Z</time>
      </trkpt>
      <trkpt lat="46.29327" lon="2.49939">
        <ele>491.07</ele>
        <time>2018-07-07T16:09:56.000Z</time>
      </trkpt>
      <trkpt lat="46.29334" lon="2.4995">
        <ele>490.5</ele>
        <time>2018-07-07T16:09:57.000Z</time>
      </trkpt>
      <trkpt lat="46.2934" lon="2.4996">
        <ele>489.98</ele>
        <time>2018-07-07T16:09:58.000Z</time>
      </trkpt>
      <trkpt lat="46.29347" lon="2.49971">
        <ele>489.66</ele>
        <time>2018-07-07T16:09:59.000Z</time>
      </trkpt>
      <trkpt lat="46.29353" lon="2.49982">
        <ele>489.45</ele>
        <time>2018-07-07T16:10:00.000Z</time>
      </trkpt>
      <trkpt lat="46.29359" lon="2.49993">
        <ele>489.48</ele>
        <time>2018-07-07T16:10:01.000Z</time>
      </trkpt>
      <trkpt lat="46.29366" lon="2.50004">
        <ele>489.42</ele>
        <time>2018-07-07T16:10:02.000Z</time>
      </trkpt>
      <trkpt lat="46.29372" lon="2.50015">
        <ele>489.35</ele>
        <time>2018-07-07T16:10:03.000Z</time>
      </trkpt>
      <trkpt lat="46.29378" lon="2.50027">
        <ele>489.34</ele>
        <time>2018-07-07T16:10:04.000Z</time>
      </trkpt>
      <trkpt lat="46.29384" lon="2.50038">
        <ele>489.36</ele>
        <time>2018-07-07T16:10:05.000Z</time>
      </trkpt>
      <trkpt lat="46.2939" lon="2.50049">
        <ele>489.07</ele>
        <time>2018-07-07T16:10:06.000Z</time>
      </trkpt>
      <trkpt lat="46.29396" lon="2.50061">
        <ele>488.81</ele>
        <time>2018-07-07T16:10:07.000Z</time>
      </trkpt>
      <trkpt lat="46.29403" lon="2.50073">
        <ele>488.76</ele>
        <time>2018-07-07T16:10:08.000Z</time>
      </trkpt>
      <trkpt lat="46.29409" lon="2.50085">
        <ele>488.62</ele>
        <time>2018-07-07T16:10:09.000Z</time>
      </trkpt>
      <trkpt lat="46.29415" lon="2.50096">
        <ele>488.59</ele>
        <time>2018-07-07T16:10:10.000Z</time>
      </trkpt>
      <trkpt lat="46.29421" lon="2.50108">
        <ele>488.44</ele>
        <time>2018-07-07T16:10:11.000Z</time>
      </trkpt>
      <trkpt lat="46.29427" lon="2.50119">
        <ele>488.31</ele>
        <time>2018-07-07T16:10:12.000Z</time>
      </trkpt>
      <trkpt lat="46.29434" lon="2.50131">
        <ele>487.93</ele>
        <time>2018-07-07T16:10:13.000Z</time>
      </trkpt>
      <trkpt lat="46.29441" lon="2.50143">
        <ele>487.44</ele>
        <time>2018-07-07T16:10:14.000Z</time>
      </trkpt>
      <trkpt lat="46.29448" lon="2.50156">
        <ele>486.84</ele>
        <time>2018-07-07T16:10:15.000Z</time>
      </trkpt>
      <trkpt lat="46.29454" lon="2.50169">
        <ele>486.27</ele>
        <time>2018-07-07T16:10:16.000Z</time>
      </trkpt>
      <trkpt lat="46.2946" lon="2.50181">
        <ele>485.59</ele>
        <time>2018-07-07T16:10:17.000Z</time>
      </trkpt>
      <trkpt lat="46.29466" lon="2.50193">
        <ele>484.77</ele>
        <time>2018-07-07T16:10:18.000Z</time>
      </trkpt>
      <trkpt lat="46.29472" lon="2.50204">
        <ele>484.08</ele>
        <time>2018-07-07T16:10:19.000Z</time>
      </trkpt>
      <trkpt lat="46.29478" lon="2.50216">
        <ele>483.36</ele>
        <time>2018-07-07T16:10:20.000Z</time>
      </trkpt>
      <trkpt lat="46.29484" lon="2.50227">
        <ele>482.64</ele>
        <time>2018-07-07T16:10:21.000Z</time>
      </trkpt>
      <trkpt lat="46.2949" lon="2.50238">
        <ele>482.16</ele>
        <time>2018-07-07T16:10:22.000Z</time>
      </trkpt>
      <trkpt lat="46.29496" lon="2.50248">
        <ele>481.84</ele>
        <time>2018-07-07T16:10:23.000Z</time>
      </trkpt>
      <trkpt lat="46.29506" lon="2.50268">
        <ele>481.07</ele>
        <time>2018-07-07T16:10:25.000Z</time>
      </trkpt>
      <trkpt lat="46.29517" lon="2.50287">
        <ele>480.1</ele>
        <time>2018-07-07T16:10:27.000Z</time>
      </trkpt>
      <trkpt lat="46.29527" lon="2.50307">
        <ele>479.12</ele>
        <time>2018-07-07T16:10:29.000Z</time>
      </trkpt>
      <trkpt lat="46.29537" lon="2.50328">
        <ele>478.33</ele>
        <time>2018-07-07T16:10:31.000Z</time>
      </trkpt>
      <trkpt lat="46.29543" lon="2.50338">
        <ele>477.67</ele>
        <time>2018-07-07T16:10:32.000Z</time>
      </trkpt>
      <trkpt lat="46.29548" lon="2.50349">
        <ele>477.29</ele>
        <time>2018-07-07T16:10:33.000Z</time>
      </trkpt>
      <trkpt lat="46.2956" lon="2.50368">
        <ele>476.72</ele>
        <time>2018-07-07T16:10:35.000Z</time>
      </trkpt>
      <trkpt lat="46.29566" lon="2.50378">
        <ele>476.37</ele>
        <time>2018-07-07T16:10:36.000Z</time>
      </trkpt>
      <trkpt lat="46.29577" lon="2.50395">
        <ele>475.76</ele>
        <time>2018-07-07T16:10:38.000Z</time>
      </trkpt>
      <trkpt lat="46.29588" lon="2.50414">
        <ele>474.99</ele>
        <time>2018-07-07T16:10:40.000Z</time>
      </trkpt>
      <trkpt lat="46.296" lon="2.50433">
        <ele>473.76</ele>
        <time>2018-07-07T16:10:42.000Z</time>
      </trkpt>
      <trkpt lat="46.29611" lon="2.50453">
        <ele>472.42</ele>
        <time>2018-07-07T16:10:44.000Z</time>
      </trkpt>
      <trkpt lat="46.29617" lon="2.50463">
        <ele>472.03</ele>
        <time>2018-07-07T16:10:45.000Z</time>
      </trkpt>
      <trkpt lat="46.29623" lon="2.50474">
        <ele>471.5</ele>
        <time>2018-07-07T16:10:46.000Z</time>
      </trkpt>
      <trkpt lat="46.29628" lon="2.50484">
        <ele>471.13</ele>
        <time>2018-07-07T16:10:47.000Z</time>
      </trkpt>
      <trkpt lat="46.29633" lon="2.50496">
        <ele>471.02</ele>
        <time>2018-07-07T16:10:48.000Z</time>
      </trkpt>
      <trkpt lat="46.29636" lon="2.50509">
        <ele>471.01</ele>
        <time>2018-07-07T16:10:49.000Z</time>
      </trkpt>
      <trkpt lat="46.29639" lon="2.50524">
        <ele>471.43</ele>
        <time>2018-07-07T16:10:50.000Z</time>
      </trkpt>
      <trkpt lat="46.29642" lon="2.5054">
        <ele>472.43</ele>
        <time>2018-07-07T16:10:51.000Z</time>
      </trkpt>
      <trkpt lat="46.29645" lon="2.50556">
        <ele>472.7</ele>
        <time>2018-07-07T16:10:52.000Z</time>
      </trkpt>
      <trkpt lat="46.29649" lon="2.5057">
        <ele>472.82</ele>
        <time>2018-07-07T16:10:53.000Z</time>
      </trkpt>
      <trkpt lat="46.29654" lon="2.50583">
        <ele>472.89</ele>
        <time>2018-07-07T16:10:54.000Z</time>
      </trkpt>
      <trkpt lat="46.29661" lon="2.50594">
        <ele>472.61</ele>
        <time>2018-07-07T16:10:55.000Z</time>
      </trkpt>
      <trkpt lat="46.29668" lon="2.50605">
        <ele>472.19</ele>
        <time>2018-07-07T16:10:56.000Z</time>
      </trkpt>
      <trkpt lat="46.29675" lon="2.50615">
        <ele>471.63</ele>
        <time>2018-07-07T16:10:57.000Z</time>
      </trkpt>
      <trkpt lat="46.29683" lon="2.50625">
        <ele>471.33</ele>
        <time>2018-07-07T16:10:58.000Z</time>
      </trkpt>
      <trkpt lat="46.29689" lon="2.50636">
        <ele>471.15</ele>
        <time>2018-07-07T16:10:59.000Z</time>
      </trkpt>
      <trkpt lat="46.29696" lon="2.50646">
        <ele>471.04</ele>
        <time>2018-07-07T16:11:00.000Z</time>
      </trkpt>
      <trkpt lat="46.29702" lon="2.50656">
        <ele>470.8</ele>
        <time>2018-07-07T16:11:01.000Z</time>
      </trkpt>
      <trkpt lat="46.29709" lon="2.50667">
        <ele>470.62</ele>
        <time>2018-07-07T16:11:02.000Z</time>
      </trkpt>
      <trkpt lat="46.29715" lon="2.50678">
        <ele>470.25</ele>
        <time>2018-07-07T16:11:03.000Z</time>
      </trkpt>
      <trkpt lat="46.29721" lon="2.50689">
        <ele>469.47</ele>
        <time>2018-07-07T16:11:04.000Z</time>
      </trkpt>
      <trkpt lat="46.29727" lon="2.507">
        <ele>468.67</ele>
        <time>2018-07-07T16:11:05.000Z</time>
      </trkpt>
      <trkpt lat="46.29733" lon="2.50711">
        <ele>467.76</ele>
        <time>2018-07-07T16:11:06.000Z</time>
      </trkpt>
      <trkpt lat="46.29739" lon="2.50722">
        <ele>466.58</ele>
        <time>2018-07-07T16:11:07.000Z</time>
      </trkpt>
      <trkpt lat="46.29746" lon="2.50733">
        <ele>465.34</ele>
        <time>2018-07-07T16:11:08.000Z</time>
      </trkpt>
      <trkpt lat="46.29753" lon="2.50743">
        <ele>464.34</ele>
        <time>2018-07-07T16:11:09.000Z</time>
      </trkpt>
      <trkpt lat="46.29759" lon="2.50753">
        <ele>463.68</ele>
        <time>2018-07-07T16:11:10.000Z</time>
      </trkpt>
      <trkpt lat="46.29766" lon="2.50764">
        <ele>463.12</ele>
        <time>2018-07-07T16:11:11.000Z</time>
      </trkpt>
      <trkpt lat="46.29773" lon="2.50775">
        <ele>462.67</ele>
        <time>2018-07-07T16:11:12.000Z</time>
      </trkpt>
      <trkpt lat="46.29779" lon="2.50787">
        <ele>462.15</ele>
        <time>2018-07-07T16:11:13.000Z</time>
      </trkpt>
      <trkpt lat="46.29785" lon="2.50799">
        <ele>461.72</ele>
        <time>2018-07-07T16:11:14.000Z</time>
      </trkpt>
      <trkpt lat="46.2979" lon="2.50811">
        <ele>461.43</ele>
        <time>2018-07-07T16:11:15.000Z</time>
      </trkpt>
      <trkpt lat="46.29796" lon="2.50823">
        <ele>460.88</ele>
        <time>2018-07-07T16:11:16.000Z</time>
      </trkpt>
      <trkpt lat="46.298" lon="2.50836">
        <ele>460.4</ele>
        <time>2018-07-07T16:11:17.000Z</time>
      </trkpt>
      <trkpt lat="46.29806" lon="2.50848">
        <ele>460.14</ele>
        <time>2018-07-07T16:11:18.000Z</time>
      </trkpt>
      <trkpt lat="46.29812" lon="2.50859">
        <ele>459.79</ele>
        <time>2018-07-07T16:11:19.000Z</time>
      </trkpt>
      <trkpt lat="46.29818" lon="2.5087">
        <ele>459.23</ele>
        <time>2018-07-07T16:11:20.000Z</time>
      </trkpt>
      <trkpt lat="46.29823" lon="2.50881">
        <ele>458.71</ele>
        <time>2018-07-07T16:11:21.000Z</time>
      </trkpt>
      <trkpt lat="46.29829" lon="2.50892">
        <ele>458.22</ele>
        <time>2018-07-07T16:11:22.000Z</time>
      </trkpt>
      <trkpt lat="46.29836" lon="2.50901">
        <ele>457.7</ele>
        <time>2018-07-07T16:11:23.000Z</time>
      </trkpt>
      <trkpt lat="46.29849" lon="2.5092">
        <ele>456.93</ele>
        <time>2018-07-07T16:11:25.000Z</time>
      </trkpt>
      <trkpt lat="46.29856" lon="2.5093">
        <ele>456.45</ele>
        <time>2018-07-07T16:11:26.000Z</time>
      </trkpt>
      <trkpt lat="46.29863" lon="2.50939">
        <ele>456.09</ele>
        <time>2018-07-07T16:11:27.000Z</time>
      </trkpt>
      <trkpt lat="46.2987" lon="2.50947">
        <ele>455.72</ele>
        <time>2018-07-07T16:11:28.000Z</time>
      </trkpt>
      <trkpt lat="46.29878" lon="2.50956">
        <ele>455.23</ele>
        <time>2018-07-07T16:11:29.000Z</time>
      </trkpt>
      <trkpt lat="46.29885" lon="2.50964">
        <ele>454.84</ele>
        <time>2018-07-07T16:11:30.000Z</time>
      </trkpt>
      <trkpt lat="46.29892" lon="2.50973">
        <ele>454.62</ele>
        <time>2018-07-07T16:11:31.000Z</time>
      </trkpt>
      <trkpt lat="46.299" lon="2.5098">
        <ele>454.35</ele>
        <time>2018-07-07T16:11:32.000Z</time>
      </trkpt>
      <trkpt lat="46.29908" lon="2.50988">
        <ele>453.86</ele>
        <time>2018-07-07T16:11:33.000Z</time>
      </trkpt>
      <trkpt lat="46.29916" lon="2.50995">
        <ele>453.41</ele>
        <time>2018-07-07T16:11:34.000Z</time>
      </trkpt>
      <trkpt lat="46.29923" lon="2.51003">
        <ele>452.82</ele>
        <time>2018-07-07T16:11:35.000Z</time>
      </trkpt>
      <trkpt lat="46.29931" lon="2.51011">
        <ele>452.31</ele>
        <time>2018-07-07T16:11:36.000Z</time>
      </trkpt>
      <trkpt lat="46.29939" lon="2.51018">
        <ele>451.79</ele>
        <time>2018-07-07T16:11:37.000Z</time>
      </trkpt>
      <trkpt lat="46.29947" lon="2.51026">
        <ele>451.08</ele>
        <time>2018-07-07T16:11:38.000Z</time>
      </trkpt>
      <trkpt lat="46.29955" lon="2.51034">
        <ele>450.43</ele>
        <time>2018-07-07T16:11:39.000Z</time>
      </trkpt>
      <trkpt lat="46.29963" lon="2.51042">
        <ele>450.08</ele>
        <time>2018-07-07T16:11:40.000Z</time>
      </trkpt>
      <trkpt lat="46.29971" lon="2.51049">
        <ele>449.72</ele>
        <time>2018-07-07T16:11:41.000Z</time>
      </trkpt>
      <trkpt lat="46.29978" lon="2.51056">
        <ele>449.33</ele>
        <time>2018-07-07T16:11:42.000Z</time>
      </trkpt>
      <trkpt lat="46.29994" lon="2.51068">
        <ele>449</ele>
        <time>2018-07-07T16:11:44.000Z</time>
      </trkpt>
      <trkpt lat="46.30009" lon="2.51081">
        <ele>448.51</ele>
        <time>2018-07-07T16:11:46.000Z</time>
      </trkpt>
      <trkpt lat="46.30025" lon="2.51092">
        <ele>448.22</ele>
        <time>2018-07-07T16:11:48.000Z</time>
      </trkpt>
      <trkpt lat="46.30041" lon="2.51104">
        <ele>447.87</ele>
        <time>2018-07-07T16:11:50.000Z</time>
      </trkpt>
      <trkpt lat="46.30049" lon="2.5111">
        <ele>447.59</ele>
        <time>2018-07-07T16:11:51.000Z</time>
      </trkpt>
      <trkpt lat="46.30057" lon="2.51116">
        <ele>447.26</ele>
        <time>2018-07-07T16:11:52.000Z</time>
      </trkpt>
      <trkpt lat="46.30065" lon="2.51122">
        <ele>446.8</ele>
        <time>2018-07-07T16:11:53.000Z</time>
      </trkpt>
      <trkpt lat="46.3008" lon="2.51135">
        <ele>445.95</ele>
        <time>2018-07-07T16:11:55.000Z</time>
      </trkpt>
      <trkpt lat="46.30095" lon="2.51148">
        <ele>444.93</ele>
        <time>2018-07-07T16:11:57.000Z</time>
      </trkpt>
      <trkpt lat="46.30109" lon="2.51162">
        <ele>444.53</ele>
        <time>2018-07-07T16:11:59.000Z</time>
      </trkpt>
      <trkpt lat="46.30122" lon="2.51179">
        <ele>444.15</ele>
        <time>2018-07-07T16:12:01.000Z</time>
      </trkpt>
      <trkpt lat="46.30134" lon="2.51195">
        <ele>443.71</ele>
        <time>2018-07-07T16:12:03.000Z</time>
      </trkpt>
      <trkpt lat="46.30146" lon="2.51212">
        <ele>443.37</ele>
        <time>2018-07-07T16:12:05.000Z</time>
      </trkpt>
      <trkpt lat="46.30158" lon="2.51228">
        <ele>443.05</ele>
        <time>2018-07-07T16:12:07.000Z</time>
      </trkpt>
      <trkpt lat="46.3017" lon="2.51244">
        <ele>442.69</ele>
        <time>2018-07-07T16:12:09.000Z</time>
      </trkpt>
      <trkpt lat="46.30182" lon="2.51261">
        <ele>442.24</ele>
        <time>2018-07-07T16:12:11.000Z</time>
      </trkpt>
      <trkpt lat="46.30194" lon="2.51279">
        <ele>441.9</ele>
        <time>2018-07-07T16:12:13.000Z</time>
      </trkpt>
      <trkpt lat="46.30206" lon="2.51296">
        <ele>441.55</ele>
        <time>2018-07-07T16:12:15.000Z</time>
      </trkpt>
      <trkpt lat="46.30218" lon="2.51312">
        <ele>441.61</ele>
        <time>2018-07-07T16:12:17.000Z</time>
      </trkpt>
      <trkpt lat="46.3023" lon="2.5133">
        <ele>441.64</ele>
        <time>2018-07-07T16:12:19.000Z</time>
      </trkpt>
      <trkpt lat="46.30242" lon="2.51347">
        <ele>441.63</ele>
        <time>2018-07-07T16:12:21.000Z</time>
      </trkpt>
      <trkpt lat="46.30254" lon="2.51363">
        <ele>441.05</ele>
        <time>2018-07-07T16:12:23.000Z</time>
      </trkpt>
      <trkpt lat="46.30267" lon="2.51379">
        <ele>440.52</ele>
        <time>2018-07-07T16:12:25.000Z</time>
      </trkpt>
      <trkpt lat="46.3028" lon="2.51396">
        <ele>439.99</ele>
        <time>2018-07-07T16:12:27.000Z</time>
      </trkpt>
      <trkpt lat="46.30293" lon="2.51412">
        <ele>439.62</ele>
        <time>2018-07-07T16:12:29.000Z</time>
      </trkpt>
      <trkpt lat="46.30305" lon="2.5143">
        <ele>439.06</ele>
        <time>2018-07-07T16:12:31.000Z</time>
      </trkpt>
      <trkpt lat="46.30316" lon="2.51448">
        <ele>438.49</ele>
        <time>2018-07-07T16:12:33.000Z</time>
      </trkpt>
      <trkpt lat="46.30328" lon="2.51467">
        <ele>438.09</ele>
        <time>2018-07-07T16:12:35.000Z</time>
      </trkpt>
      <trkpt lat="46.3034" lon="2.51485">
        <ele>437.74</ele>
        <time>2018-07-07T16:12:37.000Z</time>
      </trkpt>
      <trkpt lat="46.30351" lon="2.51502">
        <ele>437.46</ele>
        <time>2018-07-07T16:12:39.000Z</time>
      </trkpt>
      <trkpt lat="46.30362" lon="2.51521">
        <ele>437.04</ele>
        <time>2018-07-07T16:12:41.000Z</time>
      </trkpt>
      <trkpt lat="46.30374" lon="2.51539">
        <ele>436.49</ele>
        <time>2018-07-07T16:12:43.000Z</time>
      </trkpt>
      <trkpt lat="46.30387" lon="2.51556">
        <ele>435.95</ele>
        <time>2018-07-07T16:12:45.000Z</time>
      </trkpt>
      <trkpt lat="46.304" lon="2.51573">
        <ele>435.5</ele>
        <time>2018-07-07T16:12:47.000Z</time>
      </trkpt>
      <trkpt lat="46.30407" lon="2.51582">
        <ele>435.36</ele>
        <time>2018-07-07T16:12:48.000Z</time>
      </trkpt>
      <trkpt lat="46.30414" lon="2.51591">
        <ele>435.24</ele>
        <time>2018-07-07T16:12:49.000Z</time>
      </trkpt>
      <trkpt lat="46.30421" lon="2.516">
        <ele>434.95</ele>
        <time>2018-07-07T16:12:50.000Z</time>
      </trkpt>
      <trkpt lat="46.30428" lon="2.5161">
        <ele>434.67</ele>
        <time>2018-07-07T16:12:51.000Z</time>
      </trkpt>
      <trkpt lat="46.30434" lon="2.5162">
        <ele>434.43</ele>
        <time>2018-07-07T16:12:52.000Z</time>
      </trkpt>
      <trkpt lat="46.30441" lon="2.5163">
        <ele>434.18</ele>
        <time>2018-07-07T16:12:53.000Z</time>
      </trkpt>
      <trkpt lat="46.30447" lon="2.5164">
        <ele>434.03</ele>
        <time>2018-07-07T16:12:54.000Z</time>
      </trkpt>
      <trkpt lat="46.30453" lon="2.51651">
        <ele>433.86</ele>
        <time>2018-07-07T16:12:55.000Z</time>
      </trkpt>
      <trkpt lat="46.30459" lon="2.51661">
        <ele>433.69</ele>
        <time>2018-07-07T16:12:56.000Z</time>
      </trkpt>
      <trkpt lat="46.30465" lon="2.51672">
        <ele>433.53</ele>
        <time>2018-07-07T16:12:57.000Z</time>
      </trkpt>
      <trkpt lat="46.30471" lon="2.51682">
        <ele>433.51</ele>
        <time>2018-07-07T16:12:58.000Z</time>
      </trkpt>
      <trkpt lat="46.30477" lon="2.51692">
        <ele>433.33</ele>
        <time>2018-07-07T16:12:59.000Z</time>
      </trkpt>
      <trkpt lat="46.30489" lon="2.51712">
        <ele>433.15</ele>
        <time>2018-07-07T16:13:01.000Z</time>
      </trkpt>
      <trkpt lat="46.305" lon="2.5173">
        <ele>433.01</ele>
        <time>2018-07-07T16:13:03.000Z</time>
      </trkpt>
      <trkpt lat="46.3051" lon="2.51748">
        <ele>432.97</ele>
        <time>2018-07-07T16:13:05.000Z</time>
      </trkpt>
      <trkpt lat="46.30522" lon="2.51765">
        <ele>433.32</ele>
        <time>2018-07-07T16:13:07.000Z</time>
      </trkpt>
      <trkpt lat="46.30534" lon="2.51783">
        <ele>433.2</ele>
        <time>2018-07-07T16:13:09.000Z</time>
      </trkpt>
      <trkpt lat="46.30544" lon="2.518">
        <ele>432.83</ele>
        <time>2018-07-07T16:13:11.000Z</time>
      </trkpt>
      <trkpt lat="46.30553" lon="2.51818">
        <ele>432.51</ele>
        <time>2018-07-07T16:13:13.000Z</time>
      </trkpt>
      <trkpt lat="46.3056" lon="2.51836">
        <ele>432.27</ele>
        <time>2018-07-07T16:13:15.000Z</time>
      </trkpt>
      <trkpt lat="46.30568" lon="2.51856">
        <ele>432.01</ele>
        <time>2018-07-07T16:13:17.000Z</time>
      </trkpt>
      <trkpt lat="46.30578" lon="2.51877">
        <ele>431.66</ele>
        <time>2018-07-07T16:13:19.000Z</time>
      </trkpt>
      <trkpt lat="46.30588" lon="2.51899">
        <ele>431.2</ele>
        <time>2018-07-07T16:13:21.000Z</time>
      </trkpt>
      <trkpt lat="46.30593" lon="2.5191">
        <ele>431</ele>
        <time>2018-07-07T16:13:22.000Z</time>
      </trkpt>
      <trkpt lat="46.30597" lon="2.51922">
        <ele>430.77</ele>
        <time>2018-07-07T16:13:23.000Z</time>
      </trkpt>
      <trkpt lat="46.30607" lon="2.51943">
        <ele>430.4</ele>
        <time>2018-07-07T16:13:25.000Z</time>
      </trkpt>
      <trkpt lat="46.30616" lon="2.51963">
        <ele>430.16</ele>
        <time>2018-07-07T16:13:27.000Z</time>
      </trkpt>
      <trkpt lat="46.30626" lon="2.51983">
        <ele>429.85</ele>
        <time>2018-07-07T16:13:29.000Z</time>
      </trkpt>
      <trkpt lat="46.30636" lon="2.52001">
        <ele>429.77</ele>
        <time>2018-07-07T16:13:31.000Z</time>
      </trkpt>
      <trkpt lat="46.30646" lon="2.5202">
        <ele>429.73</ele>
        <time>2018-07-07T16:13:33.000Z</time>
      </trkpt>
      <trkpt lat="46.30656" lon="2.52037">
        <ele>429.49</ele>
        <time>2018-07-07T16:13:35.000Z</time>
      </trkpt>
      <trkpt lat="46.30666" lon="2.52054">
        <ele>429.58</ele>
        <time>2018-07-07T16:13:37.000Z</time>
      </trkpt>
      <trkpt lat="46.30676" lon="2.52071">
        <ele>429.61</ele>
        <time>2018-07-07T16:13:39.000Z</time>
      </trkpt>
      <trkpt lat="46.30685" lon="2.52088">
        <ele>429.3</ele>
        <time>2018-07-07T16:13:41.000Z</time>
      </trkpt>
      <trkpt lat="46.30695" lon="2.52107">
        <ele>429.1</ele>
        <time>2018-07-07T16:13:43.000Z</time>
      </trkpt>
      <trkpt lat="46.30703" lon="2.52125">
        <ele>429.14</ele>
        <time>2018-07-07T16:13:45.000Z</time>
      </trkpt>
      <trkpt lat="46.30712" lon="2.52142">
        <ele>429.1</ele>
        <time>2018-07-07T16:13:47.000Z</time>
      </trkpt>
      <trkpt lat="46.30721" lon="2.52158">
        <ele>429.14</ele>
        <time>2018-07-07T16:13:49.000Z</time>
      </trkpt>
      <trkpt lat="46.3073" lon="2.52174">
        <ele>429.11</ele>
        <time>2018-07-07T16:13:51.000Z</time>
      </trkpt>
      <trkpt lat="46.3074" lon="2.52189">
        <ele>429.21</ele>
        <time>2018-07-07T16:13:53.000Z</time>
      </trkpt>
      <trkpt lat="46.30748" lon="2.52203">
        <ele>429.87</ele>
        <time>2018-07-07T16:13:55.000Z</time>
      </trkpt>
      <trkpt lat="46.30757" lon="2.52218">
        <ele>430.14</ele>
        <time>2018-07-07T16:13:57.000Z</time>
      </trkpt>
      <trkpt lat="46.30765" lon="2.52233">
        <ele>430.66</ele>
        <time>2018-07-07T16:13:59.000Z</time>
      </trkpt>
      <trkpt lat="46.30773" lon="2.52249">
        <ele>431.08</ele>
        <time>2018-07-07T16:14:01.000Z</time>
      </trkpt>
      <trkpt lat="46.30782" lon="2.52265">
        <ele>431.09</ele>
        <time>2018-07-07T16:14:03.000Z</time>
      </trkpt>
      <trkpt lat="46.30792" lon="2.52281">
        <ele>430.99</ele>
        <time>2018-07-07T16:14:05.000Z</time>
      </trkpt>
      <trkpt lat="46.30801" lon="2.52297">
        <ele>430.22</ele>
        <time>2018-07-07T16:14:07.000Z</time>
      </trkpt>
      <trkpt lat="46.30811" lon="2.52313">
        <ele>429.82</ele>
        <time>2018-07-07T16:14:09.000Z</time>
      </trkpt>
      <trkpt lat="46.3082" lon="2.5233">
        <ele>429.57</ele>
        <time>2018-07-07T16:14:11.000Z</time>
      </trkpt>
      <trkpt lat="46.30829" lon="2.52347">
        <ele>429.48</ele>
        <time>2018-07-07T16:14:13.000Z</time>
      </trkpt>
      <trkpt lat="46.30839" lon="2.52362">
        <ele>429.3</ele>
        <time>2018-07-07T16:14:15.000Z</time>
      </trkpt>
      <trkpt lat="46.30848" lon="2.52378">
        <ele>429.01</ele>
        <time>2018-07-07T16:14:17.000Z</time>
      </trkpt>
      <trkpt lat="46.30859" lon="2.52394">
        <ele>429.02</ele>
        <time>2018-07-07T16:14:19.000Z</time>
      </trkpt>
      <trkpt lat="46.3087" lon="2.52411">
        <ele>429.02</ele>
        <time>2018-07-07T16:14:21.000Z</time>
      </trkpt>
      <trkpt lat="46.30881" lon="2.52428">
        <ele>428.66</ele>
        <time>2018-07-07T16:14:23.000Z</time>
      </trkpt>
      <trkpt lat="46.30891" lon="2.52445">
        <ele>428.32</ele>
        <time>2018-07-07T16:14:25.000Z</time>
      </trkpt>
      <trkpt lat="46.30901" lon="2.52462">
        <ele>427.97</ele>
        <time>2018-07-07T16:14:27.000Z</time>
      </trkpt>
      <trkpt lat="46.30911" lon="2.52478">
        <ele>427.74</ele>
        <time>2018-07-07T16:14:29.000Z</time>
      </trkpt>
      <trkpt lat="46.3092" lon="2.52495">
        <ele>427.24</ele>
        <time>2018-07-07T16:14:31.000Z</time>
      </trkpt>
      <trkpt lat="46.30932" lon="2.52513">
        <ele>426.47</ele>
        <time>2018-07-07T16:14:33.000Z</time>
      </trkpt>
      <trkpt lat="46.30942" lon="2.52531">
        <ele>425.8</ele>
        <time>2018-07-07T16:14:35.000Z</time>
      </trkpt>
      <trkpt lat="46.30953" lon="2.5255">
        <ele>425.24</ele>
        <time>2018-07-07T16:14:37.000Z</time>
      </trkpt>
      <trkpt lat="46.30964" lon="2.52568">
        <ele>424.63</ele>
        <time>2018-07-07T16:14:39.000Z</time>
      </trkpt>
      <trkpt lat="46.30975" lon="2.52585">
        <ele>423.67</ele>
        <time>2018-07-07T16:14:41.000Z</time>
      </trkpt>
      <trkpt lat="46.30986" lon="2.52602">
        <ele>422.69</ele>
        <time>2018-07-07T16:14:43.000Z</time>
      </trkpt>
      <trkpt lat="46.30996" lon="2.52618">
        <ele>421.96</ele>
        <time>2018-07-07T16:14:45.000Z</time>
      </trkpt>
      <trkpt lat="46.31008" lon="2.52635">
        <ele>420.99</ele>
        <time>2018-07-07T16:14:47.000Z</time>
      </trkpt>
      <trkpt lat="46.3102" lon="2.52653">
        <ele>419.99</ele>
        <time>2018-07-07T16:14:49.000Z</time>
      </trkpt>
      <trkpt lat="46.31032" lon="2.52672">
        <ele>419.04</ele>
        <time>2018-07-07T16:14:51.000Z</time>
      </trkpt>
      <trkpt lat="46.31043" lon="2.5269">
        <ele>418.33</ele>
        <time>2018-07-07T16:14:53.000Z</time>
      </trkpt>
      <trkpt lat="46.31055" lon="2.52708">
        <ele>417.39</ele>
        <time>2018-07-07T16:14:55.000Z</time>
      </trkpt>
      <trkpt lat="46.31066" lon="2.52726">
        <ele>416.19</ele>
        <time>2018-07-07T16:14:57.000Z</time>
      </trkpt>
      <trkpt lat="46.31077" lon="2.52744">
        <ele>414.97</ele>
        <time>2018-07-07T16:14:59.000Z</time>
      </trkpt>
      <trkpt lat="46.31088" lon="2.52762">
        <ele>413.68</ele>
        <time>2018-07-07T16:15:01.000Z</time>
      </trkpt>
      <trkpt lat="46.31099" lon="2.5278">
        <ele>412.4</ele>
        <time>2018-07-07T16:15:03.000Z</time>
      </trkpt>
      <trkpt lat="46.3111" lon="2.52799">
        <ele>410.87</ele>
        <time>2018-07-07T16:15:05.000Z</time>
      </trkpt>
      <trkpt lat="46.3112" lon="2.52819">
        <ele>409.48</ele>
        <time>2018-07-07T16:15:07.000Z</time>
      </trkpt>
      <trkpt lat="46.31125" lon="2.5283">
        <ele>408.86</ele>
        <time>2018-07-07T16:15:08.000Z</time>
      </trkpt>
      <trkpt lat="46.3113" lon="2.52841">
        <ele>408.23</ele>
        <time>2018-07-07T16:15:09.000Z</time>
      </trkpt>
      <trkpt lat="46.31136" lon="2.52852">
        <ele>407.61</ele>
        <time>2018-07-07T16:15:10.000Z</time>
      </trkpt>
      <trkpt lat="46.31141" lon="2.52864">
        <ele>406.99</ele>
        <time>2018-07-07T16:15:11.000Z</time>
      </trkpt>
      <trkpt lat="46.31147" lon="2.52875">
        <ele>406.4</ele>
        <time>2018-07-07T16:15:12.000Z</time>
      </trkpt>
      <trkpt lat="46.31153" lon="2.52886">
        <ele>405.86</ele>
        <time>2018-07-07T16:15:13.000Z</time>
      </trkpt>
      <trkpt lat="46.31158" lon="2.52897">
        <ele>405.17</ele>
        <time>2018-07-07T16:15:14.000Z</time>
      </trkpt>
      <trkpt lat="46.31164" lon="2.52908">
        <ele>404.59</ele>
        <time>2018-07-07T16:15:15.000Z</time>
      </trkpt>
      <trkpt lat="46.3117" lon="2.52919">
        <ele>404.01</ele>
        <time>2018-07-07T16:15:16.000Z</time>
      </trkpt>
      <trkpt lat="46.31176" lon="2.5293">
        <ele>403.64</ele>
        <time>2018-07-07T16:15:17.000Z</time>
      </trkpt>
      <trkpt lat="46.31183" lon="2.52941">
        <ele>403.26</ele>
        <time>2018-07-07T16:15:18.000Z</time>
      </trkpt>
      <trkpt lat="46.31189" lon="2.52952">
        <ele>402.74</ele>
        <time>2018-07-07T16:15:19.000Z</time>
      </trkpt>
      <trkpt lat="46.31195" lon="2.52963">
        <ele>402.06</ele>
        <time>2018-07-07T16:15:20.000Z</time>
      </trkpt>
      <trkpt lat="46.31202" lon="2.52974">
        <ele>401.48</ele>
        <time>2018-07-07T16:15:21.000Z</time>
      </trkpt>
      <trkpt lat="46.31208" lon="2.52985">
        <ele>400.83</ele>
        <time>2018-07-07T16:15:22.000Z</time>
      </trkpt>
      <trkpt lat="46.31215" lon="2.52996">
        <ele>400.32</ele>
        <time>2018-07-07T16:15:23.000Z</time>
      </trkpt>
      <trkpt lat="46.31222" lon="2.53008">
        <ele>399.82</ele>
        <time>2018-07-07T16:15:24.000Z</time>
      </trkpt>
      <trkpt lat="46.31229" lon="2.53019">
        <ele>399.3</ele>
        <time>2018-07-07T16:15:25.000Z</time>
      </trkpt>
      <trkpt lat="46.31236" lon="2.53031">
        <ele>398.84</ele>
        <time>2018-07-07T16:15:26.000Z</time>
      </trkpt>
      <trkpt lat="46.31243" lon="2.53042">
        <ele>398.44</ele>
        <time>2018-07-07T16:15:27.000Z</time>
      </trkpt>
      <trkpt lat="46.3125" lon="2.53054">
        <ele>397.93</ele>
        <time>2018-07-07T16:15:28.000Z</time>
      </trkpt>
      <trkpt lat="46.31256" lon="2.53067">
        <ele>397.32</ele>
        <time>2018-07-07T16:15:29.000Z</time>
      </trkpt>
      <trkpt lat="46.31262" lon="2.53078">
        <ele>397.01</ele>
        <time>2018-07-07T16:15:30.000Z</time>
      </trkpt>
      <trkpt lat="46.31268" lon="2.5309">
        <ele>396.68</ele>
        <time>2018-07-07T16:15:31.000Z</time>
      </trkpt>
      <trkpt lat="46.31274" lon="2.53103">
        <ele>396.52</ele>
        <time>2018-07-07T16:15:32.000Z</time>
      </trkpt>
      <trkpt lat="46.31279" lon="2.53117">
        <ele>396.13</ele>
        <time>2018-07-07T16:15:33.000Z</time>
      </trkpt>
      <trkpt lat="46.31282" lon="2.53131">
        <ele>395.74</ele>
        <time>2018-07-07T16:15:34.000Z</time>
      </trkpt>
      <trkpt lat="46.31286" lon="2.53145">
        <ele>395.28</ele>
        <time>2018-07-07T16:15:35.000Z</time>
      </trkpt>
      <trkpt lat="46.31289" lon="2.5316">
        <ele>394.72</ele>
        <time>2018-07-07T16:15:36.000Z</time>
      </trkpt>
      <trkpt lat="46.31293" lon="2.53176">
        <ele>394.28</ele>
        <time>2018-07-07T16:15:37.000Z</time>
      </trkpt>
      <trkpt lat="46.31297" lon="2.53191">
        <ele>393.72</ele>
        <time>2018-07-07T16:15:38.000Z</time>
      </trkpt>
      <trkpt lat="46.313" lon="2.53207">
        <ele>392.96</ele>
        <time>2018-07-07T16:15:39.000Z</time>
      </trkpt>
      <trkpt lat="46.31304" lon="2.53221">
        <ele>392.09</ele>
        <time>2018-07-07T16:15:40.000Z</time>
      </trkpt>
      <trkpt lat="46.31307" lon="2.53235">
        <ele>391.54</ele>
        <time>2018-07-07T16:15:41.000Z</time>
      </trkpt>
      <trkpt lat="46.31311" lon="2.53248">
        <ele>390.95</ele>
        <time>2018-07-07T16:15:42.000Z</time>
      </trkpt>
      <trkpt lat="46.31316" lon="2.53271">
        <ele>389.75</ele>
        <time>2018-07-07T16:15:44.000Z</time>
      </trkpt>
      <trkpt lat="46.31317" lon="2.53296">
        <ele>388.74</ele>
        <time>2018-07-07T16:15:46.000Z</time>
      </trkpt>
      <trkpt lat="46.31314" lon="2.53309">
        <ele>388.48</ele>
        <time>2018-07-07T16:15:47.000Z</time>
      </trkpt>
      <trkpt lat="46.31309" lon="2.53321">
        <ele>388.11</ele>
        <time>2018-07-07T16:15:48.000Z</time>
      </trkpt>
      <trkpt lat="46.31303" lon="2.53331">
        <ele>387.62</ele>
        <time>2018-07-07T16:15:49.000Z</time>
      </trkpt>
      <trkpt lat="46.31297" lon="2.53342">
        <ele>387.13</ele>
        <time>2018-07-07T16:15:50.000Z</time>
      </trkpt>
      <trkpt lat="46.3129" lon="2.53362">
        <ele>386.23</ele>
        <time>2018-07-07T16:15:52.000Z</time>
      </trkpt>
      <trkpt lat="46.31296" lon="2.53384">
        <ele>385.24</ele>
        <time>2018-07-07T16:15:54.000Z</time>
      </trkpt>
      <trkpt lat="46.31301" lon="2.53395">
        <ele>384.63</ele>
        <time>2018-07-07T16:15:55.000Z</time>
      </trkpt>
      <trkpt lat="46.31306" lon="2.53406">
        <ele>383.95</ele>
        <time>2018-07-07T16:15:56.000Z</time>
      </trkpt>
      <trkpt lat="46.31313" lon="2.5343">
        <ele>382.51</ele>
        <time>2018-07-07T16:15:58.000Z</time>
      </trkpt>
      <trkpt lat="46.31319" lon="2.53454">
        <ele>381.28</ele>
        <time>2018-07-07T16:16:00.000Z</time>
      </trkpt>
      <trkpt lat="46.31322" lon="2.53467">
        <ele>380.74</ele>
        <time>2018-07-07T16:16:01.000Z</time>
      </trkpt>
      <trkpt lat="46.31326" lon="2.5348">
        <ele>380.08</ele>
        <time>2018-07-07T16:16:02.000Z</time>
      </trkpt>
      <trkpt lat="46.31328" lon="2.53493">
        <ele>379.5</ele>
        <time>2018-07-07T16:16:03.000Z</time>
      </trkpt>
      <trkpt lat="46.31332" lon="2.53507">
        <ele>379.02</ele>
        <time>2018-07-07T16:16:04.000Z</time>
      </trkpt>
      <trkpt lat="46.31335" lon="2.5352">
        <ele>378.54</ele>
        <time>2018-07-07T16:16:05.000Z</time>
      </trkpt>
      <trkpt lat="46.3134" lon="2.53532">
        <ele>378.25</ele>
        <time>2018-07-07T16:16:06.000Z</time>
      </trkpt>
      <trkpt lat="46.31345" lon="2.53544">
        <ele>377.98</ele>
        <time>2018-07-07T16:16:07.000Z</time>
      </trkpt>
      <trkpt lat="46.31352" lon="2.53555">
        <ele>377.56</ele>
        <time>2018-07-07T16:16:08.000Z</time>
      </trkpt>
      <trkpt lat="46.3136" lon="2.53566">
        <ele>377.14</ele>
        <time>2018-07-07T16:16:09.000Z</time>
      </trkpt>
      <trkpt lat="46.31368" lon="2.53576">
        <ele>376.9</ele>
        <time>2018-07-07T16:16:10.000Z</time>
      </trkpt>
      <trkpt lat="46.31376" lon="2.53585">
        <ele>376.35</ele>
        <time>2018-07-07T16:16:11.000Z</time>
      </trkpt>
      <trkpt lat="46.31384" lon="2.53595">
        <ele>375.72</ele>
        <time>2018-07-07T16:16:12.000Z</time>
      </trkpt>
      <trkpt lat="46.31392" lon="2.53604">
        <ele>375.15</ele>
        <time>2018-07-07T16:16:13.000Z</time>
      </trkpt>
      <trkpt lat="46.31399" lon="2.53613">
        <ele>374.53</ele>
        <time>2018-07-07T16:16:14.000Z</time>
      </trkpt>
      <trkpt lat="46.31406" lon="2.53621">
        <ele>374.09</ele>
        <time>2018-07-07T16:16:15.000Z</time>
      </trkpt>
      <trkpt lat="46.31414" lon="2.5363">
        <ele>373.67</ele>
        <time>2018-07-07T16:16:16.000Z</time>
      </trkpt>
      <trkpt lat="46.31421" lon="2.53638">
        <ele>373.3</ele>
        <time>2018-07-07T16:16:17.000Z</time>
      </trkpt>
      <trkpt lat="46.31427" lon="2.53647">
        <ele>372.82</ele>
        <time>2018-07-07T16:16:18.000Z</time>
      </trkpt>
      <trkpt lat="46.31434" lon="2.53656">
        <ele>372.24</ele>
        <time>2018-07-07T16:16:19.000Z</time>
      </trkpt>
      <trkpt lat="46.31448" lon="2.53672">
        <ele>371.08</ele>
        <time>2018-07-07T16:16:21.000Z</time>
      </trkpt>
      <trkpt lat="46.31461" lon="2.53686">
        <ele>370.71</ele>
        <time>2018-07-07T16:16:23.000Z</time>
      </trkpt>
      <trkpt lat="46.31473" lon="2.53699">
        <ele>370.78</ele>
        <time>2018-07-07T16:16:25.000Z</time>
      </trkpt>
      <trkpt lat="46.31485" lon="2.53713">
        <ele>370.53</ele>
        <time>2018-07-07T16:16:27.000Z</time>
      </trkpt>
      <trkpt lat="46.31496" lon="2.53726">
        <ele>370.88</ele>
        <time>2018-07-07T16:16:29.000Z</time>
      </trkpt>
      <trkpt lat="46.31508" lon="2.5374">
        <ele>370.79</ele>
        <time>2018-07-07T16:16:31.000Z</time>
      </trkpt>
      <trkpt lat="46.3152" lon="2.53753">
        <ele>370.66</ele>
        <time>2018-07-07T16:16:33.000Z</time>
      </trkpt>
      <trkpt lat="46.31532" lon="2.53766">
        <ele>370.39</ele>
        <time>2018-07-07T16:16:35.000Z</time>
      </trkpt>
      <trkpt lat="46.31544" lon="2.5378">
        <ele>370.07</ele>
        <time>2018-07-07T16:16:37.000Z</time>
      </trkpt>
      <trkpt lat="46.31556" lon="2.53791">
        <ele>369.41</ele>
        <time>2018-07-07T16:16:39.000Z</time>
      </trkpt>
      <trkpt lat="46.31569" lon="2.53801">
        <ele>368.92</ele>
        <time>2018-07-07T16:16:41.000Z</time>
      </trkpt>
      <trkpt lat="46.31582" lon="2.53811">
        <ele>367.88</ele>
        <time>2018-07-07T16:16:43.000Z</time>
      </trkpt>
      <trkpt lat="46.31596" lon="2.5382">
        <ele>366.96</ele>
        <time>2018-07-07T16:16:45.000Z</time>
      </trkpt>
      <trkpt lat="46.31611" lon="2.53831">
        <ele>366.16</ele>
        <time>2018-07-07T16:16:47.000Z</time>
      </trkpt>
      <trkpt lat="46.31625" lon="2.53842">
        <ele>365.36</ele>
        <time>2018-07-07T16:16:49.000Z</time>
      </trkpt>
      <trkpt lat="46.31641" lon="2.53854">
        <ele>364.48</ele>
        <time>2018-07-07T16:16:51.000Z</time>
      </trkpt>
      <trkpt lat="46.31656" lon="2.53866">
        <ele>363.71</ele>
        <time>2018-07-07T16:16:53.000Z</time>
      </trkpt>
      <trkpt lat="46.31664" lon="2.53874">
        <ele>363.34</ele>
        <time>2018-07-07T16:16:54.000Z</time>
      </trkpt>
      <trkpt lat="46.31671" lon="2.53882">
        <ele>363.13</ele>
        <time>2018-07-07T16:16:55.000Z</time>
      </trkpt>
      <trkpt lat="46.31678" lon="2.5389">
        <ele>363.09</ele>
        <time>2018-07-07T16:16:56.000Z</time>
      </trkpt>
      <trkpt lat="46.31685" lon="2.539">
        <ele>363.04</ele>
        <time>2018-07-07T16:16:57.000Z</time>
      </trkpt>
      <trkpt lat="46.31691" lon="2.5391">
        <ele>363.08</ele>
        <time>2018-07-07T16:16:58.000Z</time>
      </trkpt>
      <trkpt lat="46.31697" lon="2.53922">
        <ele>362.97</ele>
        <time>2018-07-07T16:16:59.000Z</time>
      </trkpt>
      <trkpt lat="46.31702" lon="2.53933">
        <ele>362.77</ele>
        <time>2018-07-07T16:17:00.000Z</time>
      </trkpt>
      <trkpt lat="46.31707" lon="2.53944">
        <ele>362.62</ele>
        <time>2018-07-07T16:17:01.000Z</time>
      </trkpt>
      <trkpt lat="46.31717" lon="2.53965">
        <ele>362.3</ele>
        <time>2018-07-07T16:17:03.000Z</time>
      </trkpt>
      <trkpt lat="46.31725" lon="2.53988">
        <ele>361.8</ele>
        <time>2018-07-07T16:17:05.000Z</time>
      </trkpt>
      <trkpt lat="46.31729" lon="2.54">
        <ele>361.56</ele>
        <time>2018-07-07T16:17:06.000Z</time>
      </trkpt>
      <trkpt lat="46.31733" lon="2.54012">
        <ele>361.47</ele>
        <time>2018-07-07T16:17:07.000Z</time>
      </trkpt>
      <trkpt lat="46.31736" lon="2.54025">
        <ele>361.46</ele>
        <time>2018-07-07T16:17:08.000Z</time>
      </trkpt>
      <trkpt lat="46.31739" lon="2.54039">
        <ele>361.41</ele>
        <time>2018-07-07T16:17:09.000Z</time>
      </trkpt>
      <trkpt lat="46.31741" lon="2.54053">
        <ele>361.13</ele>
        <time>2018-07-07T16:17:10.000Z</time>
      </trkpt>
      <trkpt lat="46.31744" lon="2.54066">
        <ele>360.96</ele>
        <time>2018-07-07T16:17:11.000Z</time>
      </trkpt>
      <trkpt lat="46.31747" lon="2.5408">
        <ele>360.97</ele>
        <time>2018-07-07T16:17:12.000Z</time>
      </trkpt>
      <trkpt lat="46.3175" lon="2.54094">
        <ele>360.84</ele>
        <time>2018-07-07T16:17:13.000Z</time>
      </trkpt>
      <trkpt lat="46.31753" lon="2.54108">
        <ele>360.65</ele>
        <time>2018-07-07T16:17:14.000Z</time>
      </trkpt>
      <trkpt lat="46.31757" lon="2.54123">
        <ele>360.37</ele>
        <time>2018-07-07T16:17:15.000Z</time>
      </trkpt>
      <trkpt lat="46.31761" lon="2.54137">
        <ele>360.06</ele>
        <time>2018-07-07T16:17:16.000Z</time>
      </trkpt>
      <trkpt lat="46.31765" lon="2.5415">
        <ele>359.64</ele>
        <time>2018-07-07T16:17:17.000Z</time>
      </trkpt>
      <trkpt lat="46.31769" lon="2.54164">
        <ele>359.3</ele>
        <time>2018-07-07T16:17:18.000Z</time>
      </trkpt>
      <trkpt lat="46.31773" lon="2.54177">
        <ele>358.86</ele>
        <time>2018-07-07T16:17:19.000Z</time>
      </trkpt>
      <trkpt lat="46.31776" lon="2.5419">
        <ele>358.63</ele>
        <time>2018-07-07T16:17:20.000Z</time>
      </trkpt>
      <trkpt lat="46.31781" lon="2.54204">
        <ele>358.17</ele>
        <time>2018-07-07T16:17:21.000Z</time>
      </trkpt>
      <trkpt lat="46.31786" lon="2.54218">
        <ele>357.83</ele>
        <time>2018-07-07T16:17:22.000Z</time>
      </trkpt>
      <trkpt lat="46.31791" lon="2.54232">
        <ele>357.25</ele>
        <time>2018-07-07T16:17:23.000Z</time>
      </trkpt>
      <trkpt lat="46.31796" lon="2.54246">
        <ele>356.6</ele>
        <time>2018-07-07T16:17:24.000Z</time>
      </trkpt>
      <trkpt lat="46.318" lon="2.54261">
        <ele>355.94</ele>
        <time>2018-07-07T16:17:25.000Z</time>
      </trkpt>
      <trkpt lat="46.31805" lon="2.54275">
        <ele>355.28</ele>
        <time>2018-07-07T16:17:26.000Z</time>
      </trkpt>
      <trkpt lat="46.3181" lon="2.5429">
        <ele>354.71</ele>
        <time>2018-07-07T16:17:27.000Z</time>
      </trkpt>
      <trkpt lat="46.31815" lon="2.54304">
        <ele>353.98</ele>
        <time>2018-07-07T16:17:28.000Z</time>
      </trkpt>
      <trkpt lat="46.3182" lon="2.54319">
        <ele>353.52</ele>
        <time>2018-07-07T16:17:29.000Z</time>
      </trkpt>
      <trkpt lat="46.31824" lon="2.54334">
        <ele>353</ele>
        <time>2018-07-07T16:17:30.000Z</time>
      </trkpt>
      <trkpt lat="46.31829" lon="2.54349">
        <ele>352.54</ele>
        <time>2018-07-07T16:17:31.000Z</time>
      </trkpt>
      <trkpt lat="46.31833" lon="2.54365">
        <ele>352.09</ele>
        <time>2018-07-07T16:17:32.000Z</time>
      </trkpt>
      <trkpt lat="46.31838" lon="2.5438">
        <ele>351.49</ele>
        <time>2018-07-07T16:17:33.000Z</time>
      </trkpt>
      <trkpt lat="46.31842" lon="2.54396">
        <ele>350.92</ele>
        <time>2018-07-07T16:17:34.000Z</time>
      </trkpt>
      <trkpt lat="46.31846" lon="2.54411">
        <ele>350.42</ele>
        <time>2018-07-07T16:17:35.000Z</time>
      </trkpt>
      <trkpt lat="46.31851" lon="2.54427">
        <ele>349.94</ele>
        <time>2018-07-07T16:17:36.000Z</time>
      </trkpt>
      <trkpt lat="46.31856" lon="2.54442">
        <ele>349.37</ele>
        <time>2018-07-07T16:17:37.000Z</time>
      </trkpt>
      <trkpt lat="46.31861" lon="2.54458">
        <ele>348.71</ele>
        <time>2018-07-07T16:17:38.000Z</time>
      </trkpt>
      <trkpt lat="46.31866" lon="2.54473">
        <ele>348.27</ele>
        <time>2018-07-07T16:17:39.000Z</time>
      </trkpt>
      <trkpt lat="46.31871" lon="2.54488">
        <ele>347.95</ele>
        <time>2018-07-07T16:17:40.000Z</time>
      </trkpt>
      <trkpt lat="46.31877" lon="2.54502">
        <ele>347.63</ele>
        <time>2018-07-07T16:17:41.000Z</time>
      </trkpt>
      <trkpt lat="46.31884" lon="2.54515">
        <ele>347.01</ele>
        <time>2018-07-07T16:17:42.000Z</time>
      </trkpt>
      <trkpt lat="46.31891" lon="2.54528">
        <ele>346.41</ele>
        <time>2018-07-07T16:17:43.000Z</time>
      </trkpt>
      <trkpt lat="46.31899" lon="2.54539">
        <ele>345.82</ele>
        <time>2018-07-07T16:17:44.000Z</time>
      </trkpt>
      <trkpt lat="46.31907" lon="2.54551">
        <ele>345.11</ele>
        <time>2018-07-07T16:17:45.000Z</time>
      </trkpt>
      <trkpt lat="46.31915" lon="2.54562">
        <ele>344.54</ele>
        <time>2018-07-07T16:17:46.000Z</time>
      </trkpt>
      <trkpt lat="46.31924" lon="2.54573">
        <ele>343.89</ele>
        <time>2018-07-07T16:17:47.000Z</time>
      </trkpt>
      <trkpt lat="46.31932" lon="2.54585">
        <ele>343.13</ele>
        <time>2018-07-07T16:17:48.000Z</time>
      </trkpt>
      <trkpt lat="46.3194" lon="2.54597">
        <ele>342.32</ele>
        <time>2018-07-07T16:17:49.000Z</time>
      </trkpt>
      <trkpt lat="46.31949" lon="2.54609">
        <ele>341.42</ele>
        <time>2018-07-07T16:17:50.000Z</time>
      </trkpt>
      <trkpt lat="46.31957" lon="2.54621">
        <ele>340.56</ele>
        <time>2018-07-07T16:17:51.000Z</time>
      </trkpt>
      <trkpt lat="46.31965" lon="2.54633">
        <ele>339.72</ele>
        <time>2018-07-07T16:17:52.000Z</time>
      </trkpt>
      <trkpt lat="46.31973" lon="2.54645">
        <ele>338.97</ele>
        <time>2018-07-07T16:17:53.000Z</time>
      </trkpt>
      <trkpt lat="46.31981" lon="2.54657">
        <ele>338.23</ele>
        <time>2018-07-07T16:17:54.000Z</time>
      </trkpt>
      <trkpt lat="46.31989" lon="2.54669">
        <ele>337.4</ele>
        <time>2018-07-07T16:17:55.000Z</time>
      </trkpt>
      <trkpt lat="46.31997" lon="2.54681">
        <ele>336.43</ele>
        <time>2018-07-07T16:17:56.000Z</time>
      </trkpt>
      <trkpt lat="46.32005" lon="2.54693">
        <ele>335.45</ele>
        <time>2018-07-07T16:17:57.000Z</time>
      </trkpt>
      <trkpt lat="46.32013" lon="2.54705">
        <ele>334.35</ele>
        <time>2018-07-07T16:17:58.000Z</time>
      </trkpt>
      <trkpt lat="46.32021" lon="2.54718">
        <ele>333.26</ele>
        <time>2018-07-07T16:17:59.000Z</time>
      </trkpt>
      <trkpt lat="46.32029" lon="2.5473">
        <ele>332.05</ele>
        <time>2018-07-07T16:18:00.000Z</time>
      </trkpt>
      <trkpt lat="46.32037" lon="2.54743">
        <ele>330.84</ele>
        <time>2018-07-07T16:18:01.000Z</time>
      </trkpt>
      <trkpt lat="46.32045" lon="2.54756">
        <ele>329.57</ele>
        <time>2018-07-07T16:18:02.000Z</time>
      </trkpt>
      <trkpt lat="46.32053" lon="2.5477">
        <ele>328.24</ele>
        <time>2018-07-07T16:18:03.000Z</time>
      </trkpt>
      <trkpt lat="46.3206" lon="2.54785">
        <ele>327.13</ele>
        <time>2018-07-07T16:18:04.000Z</time>
      </trkpt>
      <trkpt lat="46.32066" lon="2.548">
        <ele>325.98</ele>
        <time>2018-07-07T16:18:05.000Z</time>
      </trkpt>
      <trkpt lat="46.32071" lon="2.54816">
        <ele>324.88</ele>
        <time>2018-07-07T16:18:06.000Z</time>
      </trkpt>
      <trkpt lat="46.32077" lon="2.54831">
        <ele>323.77</ele>
        <time>2018-07-07T16:18:07.000Z</time>
      </trkpt>
      <trkpt lat="46.32082" lon="2.54847">
        <ele>322.95</ele>
        <time>2018-07-07T16:18:08.000Z</time>
      </trkpt>
      <trkpt lat="46.32088" lon="2.54862">
        <ele>322.05</ele>
        <time>2018-07-07T16:18:09.000Z</time>
      </trkpt>
      <trkpt lat="46.32093" lon="2.54878">
        <ele>321.31</ele>
        <time>2018-07-07T16:18:10.000Z</time>
      </trkpt>
      <trkpt lat="46.32099" lon="2.54894">
        <ele>320.72</ele>
        <time>2018-07-07T16:18:11.000Z</time>
      </trkpt>
      <trkpt lat="46.32104" lon="2.54909">
        <ele>320.4</ele>
        <time>2018-07-07T16:18:12.000Z</time>
      </trkpt>
      <trkpt lat="46.32108" lon="2.54923">
        <ele>320.09</ele>
        <time>2018-07-07T16:18:13.000Z</time>
      </trkpt>
      <trkpt lat="46.32113" lon="2.54937">
        <ele>319.66</ele>
        <time>2018-07-07T16:18:14.000Z</time>
      </trkpt>
      <trkpt lat="46.32117" lon="2.5495">
        <ele>319.2</ele>
        <time>2018-07-07T16:18:15.000Z</time>
      </trkpt>
      <trkpt lat="46.32121" lon="2.54962">
        <ele>318.8</ele>
        <time>2018-07-07T16:18:16.000Z</time>
      </trkpt>
      <trkpt lat="46.32129" lon="2.54984">
        <ele>317.9</ele>
        <time>2018-07-07T16:18:18.000Z</time>
      </trkpt>
      <trkpt lat="46.32135" lon="2.55005">
        <ele>317.24</ele>
        <time>2018-07-07T16:18:20.000Z</time>
      </trkpt>
      <trkpt lat="46.32141" lon="2.55025">
        <ele>316.22</ele>
        <time>2018-07-07T16:18:22.000Z</time>
      </trkpt>
      <trkpt lat="46.32147" lon="2.55045">
        <ele>315.8</ele>
        <time>2018-07-07T16:18:24.000Z</time>
      </trkpt>
      <trkpt lat="46.32153" lon="2.55063">
        <ele>315.31</ele>
        <time>2018-07-07T16:18:26.000Z</time>
      </trkpt>
      <trkpt lat="46.32158" lon="2.55081">
        <ele>314.98</ele>
        <time>2018-07-07T16:18:28.000Z</time>
      </trkpt>
      <trkpt lat="46.32164" lon="2.55099">
        <ele>314.8</ele>
        <time>2018-07-07T16:18:30.000Z</time>
      </trkpt>
      <trkpt lat="46.3217" lon="2.55118">
        <ele>314.62</ele>
        <time>2018-07-07T16:18:32.000Z</time>
      </trkpt>
      <trkpt lat="46.32177" lon="2.55136">
        <ele>314.42</ele>
        <time>2018-07-07T16:18:34.000Z</time>
      </trkpt>
      <trkpt lat="46.32184" lon="2.55155">
        <ele>314.54</ele>
        <time>2018-07-07T16:18:36.000Z</time>
      </trkpt>
      <trkpt lat="46.3219" lon="2.55173">
        <ele>314.57</ele>
        <time>2018-07-07T16:18:38.000Z</time>
      </trkpt>
      <trkpt lat="46.32198" lon="2.5519">
        <ele>314.83</ele>
        <time>2018-07-07T16:18:40.000Z</time>
      </trkpt>
      <trkpt lat="46.32204" lon="2.55206">
        <ele>315.29</ele>
        <time>2018-07-07T16:18:42.000Z</time>
      </trkpt>
      <trkpt lat="46.32211" lon="2.55222">
        <ele>315.79</ele>
        <time>2018-07-07T16:18:44.000Z</time>
      </trkpt>
      <trkpt lat="46.32216" lon="2.55237">
        <ele>315.72</ele>
        <time>2018-07-07T16:18:46.000Z</time>
      </trkpt>
      <trkpt lat="46.32221" lon="2.55252">
        <ele>315.92</ele>
        <time>2018-07-07T16:18:48.000Z</time>
      </trkpt>
      <trkpt lat="46.32225" lon="2.55268">
        <ele>315.84</ele>
        <time>2018-07-07T16:18:50.000Z</time>
      </trkpt>
      <trkpt lat="46.32227" lon="2.55285">
        <ele>315.5</ele>
        <time>2018-07-07T16:18:52.000Z</time>
      </trkpt>
      <trkpt lat="46.32229" lon="2.55304">
        <ele>315.25</ele>
        <time>2018-07-07T16:18:54.000Z</time>
      </trkpt>
      <trkpt lat="46.3223" lon="2.55324">
        <ele>315.24</ele>
        <time>2018-07-07T16:18:56.000Z</time>
      </trkpt>
      <trkpt lat="46.32231" lon="2.55345">
        <ele>315.19</ele>
        <time>2018-07-07T16:18:58.000Z</time>
      </trkpt>
      <trkpt lat="46.32232" lon="2.55368">
        <ele>315.23</ele>
        <time>2018-07-07T16:19:00.000Z</time>
      </trkpt>
      <trkpt lat="46.32231" lon="2.5539">
        <ele>315.74</ele>
        <time>2018-07-07T16:19:02.000Z</time>
      </trkpt>
      <trkpt lat="46.3223" lon="2.55411">
        <ele>315.97</ele>
        <time>2018-07-07T16:19:04.000Z</time>
      </trkpt>
      <trkpt lat="46.3223" lon="2.55432">
        <ele>316.54</ele>
        <time>2018-07-07T16:19:06.000Z</time>
      </trkpt>
      <trkpt lat="46.32232" lon="2.55452">
        <ele>316.5</ele>
        <time>2018-07-07T16:19:08.000Z</time>
      </trkpt>
      <trkpt lat="46.32237" lon="2.55469">
        <ele>316.45</ele>
        <time>2018-07-07T16:19:10.000Z</time>
      </trkpt>
      <trkpt lat="46.32245" lon="2.55486">
        <ele>315.75</ele>
        <time>2018-07-07T16:19:12.000Z</time>
      </trkpt>
      <trkpt lat="46.32253" lon="2.55501">
        <ele>314.65</ele>
        <time>2018-07-07T16:19:14.000Z</time>
      </trkpt>
      <trkpt lat="46.32262" lon="2.55515">
        <ele>314.12</ele>
        <time>2018-07-07T16:19:16.000Z</time>
      </trkpt>
      <trkpt lat="46.32269" lon="2.55531">
        <ele>313.67</ele>
        <time>2018-07-07T16:19:18.000Z</time>
      </trkpt>
      <trkpt lat="46.32273" lon="2.55548">
        <ele>313.49</ele>
        <time>2018-07-07T16:19:20.000Z</time>
      </trkpt>
      <trkpt lat="46.32272" lon="2.55565">
        <ele>314.01</ele>
        <time>2018-07-07T16:19:22.000Z</time>
      </trkpt>
      <trkpt lat="46.3227" lon="2.55582">
        <ele>314.58</ele>
        <time>2018-07-07T16:19:24.000Z</time>
      </trkpt>
      <trkpt lat="46.32272" lon="2.55596">
        <ele>316.13</ele>
        <time>2018-07-07T16:19:26.000Z</time>
      </trkpt>
      <trkpt lat="46.32281" lon="2.55603">
        <ele>317.23</ele>
        <time>2018-07-07T16:19:28.000Z</time>
      </trkpt>
      <trkpt lat="46.32295" lon="2.55604">
        <ele>317.57</ele>
        <time>2018-07-07T16:19:30.000Z</time>
      </trkpt>
      <trkpt lat="46.32309" lon="2.55607">
        <ele>317.82</ele>
        <time>2018-07-07T16:19:32.000Z</time>
      </trkpt>
      <trkpt lat="46.32324" lon="2.55616">
        <ele>317.98</ele>
        <time>2018-07-07T16:19:34.000Z</time>
      </trkpt>
      <trkpt lat="46.32332" lon="2.55623">
        <ele>317.93</ele>
        <time>2018-07-07T16:19:35.000Z</time>
      </trkpt>
      <trkpt lat="46.3234" lon="2.5563">
        <ele>317.89</ele>
        <time>2018-07-07T16:19:36.000Z</time>
      </trkpt>
      <trkpt lat="46.32349" lon="2.55637">
        <ele>317.91</ele>
        <time>2018-07-07T16:19:37.000Z</time>
      </trkpt>
      <trkpt lat="46.32356" lon="2.55645">
        <ele>317.76</ele>
        <time>2018-07-07T16:19:38.000Z</time>
      </trkpt>
      <trkpt lat="46.32369" lon="2.5566">
        <ele>317.54</ele>
        <time>2018-07-07T16:19:40.000Z</time>
      </trkpt>
      <trkpt lat="46.32381" lon="2.55675">
        <ele>317.61</ele>
        <time>2018-07-07T16:19:42.000Z</time>
      </trkpt>
      <trkpt lat="46.32392" lon="2.55694">
        <ele>317.44</ele>
        <time>2018-07-07T16:19:44.000Z</time>
      </trkpt>
      <trkpt lat="46.32397" lon="2.55705">
        <ele>317.3</ele>
        <time>2018-07-07T16:19:45.000Z</time>
      </trkpt>
      <trkpt lat="46.32402" lon="2.55717">
        <ele>316.97</ele>
        <time>2018-07-07T16:19:46.000Z</time>
      </trkpt>
      <trkpt lat="46.32406" lon="2.55729">
        <ele>316.57</ele>
        <time>2018-07-07T16:19:47.000Z</time>
      </trkpt>
      <trkpt lat="46.3241" lon="2.55741">
        <ele>315.88</ele>
        <time>2018-07-07T16:19:48.000Z</time>
      </trkpt>
      <trkpt lat="46.32414" lon="2.55754">
        <ele>315.06</ele>
        <time>2018-07-07T16:19:49.000Z</time>
      </trkpt>
      <trkpt lat="46.32418" lon="2.55766">
        <ele>314.31</ele>
        <time>2018-07-07T16:19:50.000Z</time>
      </trkpt>
      <trkpt lat="46.32423" lon="2.55778">
        <ele>313.52</ele>
        <time>2018-07-07T16:19:51.000Z</time>
      </trkpt>
      <trkpt lat="46.32427" lon="2.5579">
        <ele>312.99</ele>
        <time>2018-07-07T16:19:52.000Z</time>
      </trkpt>
      <trkpt lat="46.32432" lon="2.55802">
        <ele>312.23</ele>
        <time>2018-07-07T16:19:53.000Z</time>
      </trkpt>
      <trkpt lat="46.32438" lon="2.55813">
        <ele>311.29</ele>
        <time>2018-07-07T16:19:54.000Z</time>
      </trkpt>
      <trkpt lat="46.32443" lon="2.55825">
        <ele>310.58</ele>
        <time>2018-07-07T16:19:55.000Z</time>
      </trkpt>
      <trkpt lat="46.32448" lon="2.55836">
        <ele>309.93</ele>
        <time>2018-07-07T16:19:56.000Z</time>
      </trkpt>
      <trkpt lat="46.32454" lon="2.55846">
        <ele>309.39</ele>
        <time>2018-07-07T16:19:57.000Z</time>
      </trkpt>
      <trkpt lat="46.32464" lon="2.55867">
        <ele>308.48</ele>
        <time>2018-07-07T16:19:59.000Z</time>
      </trkpt>
      <trkpt lat="46.3247" lon="2.55878">
        <ele>307.76</ele>
        <time>2018-07-07T16:20:00.000Z</time>
      </trkpt>
      <trkpt lat="46.32478" lon="2.55899">
        <ele>306.36</ele>
        <time>2018-07-07T16:20:02.000Z</time>
      </trkpt>
      <trkpt lat="46.32486" lon="2.55916">
        <ele>305.34</ele>
        <time>2018-07-07T16:20:04.000Z</time>
      </trkpt>
      <trkpt lat="46.32496" lon="2.55916">
        <ele>304.13</ele>
        <time>2018-07-07T16:20:06.000Z</time>
      </trkpt>
      <trkpt lat="46.32506" lon="2.55904">
        <ele>303.56</ele>
        <time>2018-07-07T16:20:08.000Z</time>
      </trkpt>
      <trkpt lat="46.32517" lon="2.55897">
        <ele>302.89</ele>
        <time>2018-07-07T16:20:10.000Z</time>
      </trkpt>
      <trkpt lat="46.3253" lon="2.55892">
        <ele>302.22</ele>
        <time>2018-07-07T16:20:12.000Z</time>
      </trkpt>
      <trkpt lat="46.32544" lon="2.55888">
        <ele>301.65</ele>
        <time>2018-07-07T16:20:14.000Z</time>
      </trkpt>
      <trkpt lat="46.32559" lon="2.55888">
        <ele>301.08</ele>
        <time>2018-07-07T16:20:16.000Z</time>
      </trkpt>
      <trkpt lat="46.32573" lon="2.55892">
        <ele>300.79</ele>
        <time>2018-07-07T16:20:18.000Z</time>
      </trkpt>
      <trkpt lat="46.32587" lon="2.55898">
        <ele>300.79</ele>
        <time>2018-07-07T16:20:20.000Z</time>
      </trkpt>
      <trkpt lat="46.326" lon="2.55905">
        <ele>301</ele>
        <time>2018-07-07T16:20:22.000Z</time>
      </trkpt>
      <trkpt lat="46.3261" lon="2.55914">
        <ele>301.42</ele>
        <time>2018-07-07T16:20:24.000Z</time>
      </trkpt>
      <trkpt lat="46.32619" lon="2.55917">
        <ele>301.36</ele>
        <time>2018-07-07T16:20:32.000Z</time>
      </trkpt>
      <trkpt lat="46.32627" lon="2.55901">
        <ele>300.56</ele>
        <time>2018-07-07T16:20:35.000Z</time>
      </trkpt>
      <trkpt lat="46.32634" lon="2.55887">
        <ele>300.28</ele>
        <time>2018-07-07T16:20:37.000Z</time>
      </trkpt>
      <trkpt lat="46.32641" lon="2.55872">
        <ele>300.18</ele>
        <time>2018-07-07T16:20:39.000Z</time>
      </trkpt>
      <trkpt lat="46.32648" lon="2.55857">
        <ele>300.23</ele>
        <time>2018-07-07T16:20:41.000Z</time>
      </trkpt>
      <trkpt lat="46.32655" lon="2.55841">
        <ele>300.25</ele>
        <time>2018-07-07T16:20:43.000Z</time>
      </trkpt>
      <trkpt lat="46.32661" lon="2.55826">
        <ele>300.36</ele>
        <time>2018-07-07T16:20:45.000Z</time>
      </trkpt>
      <trkpt lat="46.32669" lon="2.55809">
        <ele>300.7</ele>
        <time>2018-07-07T16:20:47.000Z</time>
      </trkpt>
      <trkpt lat="46.32677" lon="2.55791">
        <ele>301.1</ele>
        <time>2018-07-07T16:20:49.000Z</time>
      </trkpt>
      <trkpt lat="46.32684" lon="2.55772">
        <ele>300.79</ele>
        <time>2018-07-07T16:20:51.000Z</time>
      </trkpt>
      <trkpt lat="46.32693" lon="2.55752">
        <ele>300.18</ele>
        <time>2018-07-07T16:20:53.000Z</time>
      </trkpt>
      <trkpt lat="46.32702" lon="2.55731">
        <ele>299.81</ele>
        <time>2018-07-07T16:20:55.000Z</time>
      </trkpt>
      <trkpt lat="46.3271" lon="2.55709">
        <ele>299.68</ele>
        <time>2018-07-07T16:20:57.000Z</time>
      </trkpt>
      <trkpt lat="46.32718" lon="2.55688">
        <ele>299.66</ele>
        <time>2018-07-07T16:20:59.000Z</time>
      </trkpt>
      <trkpt lat="46.32726" lon="2.55666">
        <ele>299.46</ele>
        <time>2018-07-07T16:21:01.000Z</time>
      </trkpt>
      <trkpt lat="46.32734" lon="2.55644">
        <ele>299.17</ele>
        <time>2018-07-07T16:21:03.000Z</time>
      </trkpt>
      <trkpt lat="46.32743" lon="2.55622">
        <ele>299.33</ele>
        <time>2018-07-07T16:21:05.000Z</time>
      </trkpt>
      <trkpt lat="46.32751" lon="2.556">
        <ele>299.64</ele>
        <time>2018-07-07T16:21:07.000Z</time>
      </trkpt>
      <trkpt lat="46.32761" lon="2.55582">
        <ele>300.19</ele>
        <time>2018-07-07T16:21:09.000Z</time>
      </trkpt>
      <trkpt lat="46.32768" lon="2.55573">
        <ele>299.87</ele>
        <time>2018-07-07T16:21:10.000Z</time>
      </trkpt>
      <trkpt lat="46.32777" lon="2.55566">
        <ele>299.52</ele>
        <time>2018-07-07T16:21:11.000Z</time>
      </trkpt>
      <trkpt lat="46.32785" lon="2.55562">
        <ele>299.24</ele>
        <time>2018-07-07T16:21:12.000Z</time>
      </trkpt>
      <trkpt lat="46.32802" lon="2.55558">
        <ele>298.84</ele>
        <time>2018-07-07T16:21:13.999Z</time>
      </trkpt>
      <trkpt lat="46.32819" lon="2.55551">
        <ele>298.53</ele>
        <time>2018-07-07T16:21:16.000Z</time>
      </trkpt>
      <trkpt lat="46.32827" lon="2.55545">
        <ele>297.82</ele>
        <time>2018-07-07T16:21:17.000Z</time>
      </trkpt>
      <trkpt lat="46.32835" lon="2.5554">
        <ele>297.24</ele>
        <time>2018-07-07T16:21:18.000Z</time>
      </trkpt>
      <trkpt lat="46.3285" lon="2.55528">
        <ele>296.11</ele>
        <time>2018-07-07T16:21:20.000Z</time>
      </trkpt>
      <trkpt lat="46.32864" lon="2.55514">
        <ele>294.84</ele>
        <time>2018-07-07T16:21:22.000Z</time>
      </trkpt>
      <trkpt lat="46.32872" lon="2.55507">
        <ele>294.13</ele>
        <time>2018-07-07T16:21:23.000Z</time>
      </trkpt>
      <trkpt lat="46.32881" lon="2.555">
        <ele>293.41</ele>
        <time>2018-07-07T16:21:24.000Z</time>
      </trkpt>
      <trkpt lat="46.32896" lon="2.5549">
        <ele>292.39</ele>
        <time>2018-07-07T16:21:26.000Z</time>
      </trkpt>
      <trkpt lat="46.3291" lon="2.55478">
        <ele>291.63</ele>
        <time>2018-07-07T16:21:28.000Z</time>
      </trkpt>
      <trkpt lat="46.32923" lon="2.55464">
        <ele>291.14</ele>
        <time>2018-07-07T16:21:30.000Z</time>
      </trkpt>
      <trkpt lat="46.32936" lon="2.55452">
        <ele>291.27</ele>
        <time>2018-07-07T16:21:32.000Z</time>
      </trkpt>
      <trkpt lat="46.32949" lon="2.55442">
        <ele>290.93</ele>
        <time>2018-07-07T16:21:34.000Z</time>
      </trkpt>
      <trkpt lat="46.32958" lon="2.5544">
        <ele>290.04</ele>
        <time>2018-07-07T16:21:35.000Z</time>
      </trkpt>
      <trkpt lat="46.32974" lon="2.55444">
        <ele>289.26</ele>
        <time>2018-07-07T16:21:37.000Z</time>
      </trkpt>
      <trkpt lat="46.32986" lon="2.55457">
        <ele>288.73</ele>
        <time>2018-07-07T16:21:39.000Z</time>
      </trkpt>
      <trkpt lat="46.32994" lon="2.55473">
        <ele>288.79</ele>
        <time>2018-07-07T16:21:41.000Z</time>
      </trkpt>
      <trkpt lat="46.33002" lon="2.5549">
        <ele>288.47</ele>
        <time>2018-07-07T16:21:43.000Z</time>
      </trkpt>
      <trkpt lat="46.3301" lon="2.55505">
        <ele>288.31</ele>
        <time>2018-07-07T16:21:45.000Z</time>
      </trkpt>
      <trkpt lat="46.33018" lon="2.55519">
        <ele>287.64</ele>
        <time>2018-07-07T16:21:47.000Z</time>
      </trkpt>
      <trkpt lat="46.33028" lon="2.55534">
        <ele>286.96</ele>
        <time>2018-07-07T16:21:49.000Z</time>
      </trkpt>
      <trkpt lat="46.33036" lon="2.55549">
        <ele>286.26</ele>
        <time>2018-07-07T16:21:51.000Z</time>
      </trkpt>
      <trkpt lat="46.33045" lon="2.55562">
        <ele>285.65</ele>
        <time>2018-07-07T16:21:53.000Z</time>
      </trkpt>
      <trkpt lat="46.33054" lon="2.55576">
        <ele>285.41</ele>
        <time>2018-07-07T16:21:55.000Z</time>
      </trkpt>
      <trkpt lat="46.33062" lon="2.5559">
        <ele>284.91</ele>
        <time>2018-07-07T16:21:57.000Z</time>
      </trkpt>
      <trkpt lat="46.33069" lon="2.55603">
        <ele>285.31</ele>
        <time>2018-07-07T16:21:59.000Z</time>
      </trkpt>
      <trkpt lat="46.33077" lon="2.55617">
        <ele>285.7</ele>
        <time>2018-07-07T16:22:01.000Z</time>
      </trkpt>
      <trkpt lat="46.33086" lon="2.55631">
        <ele>285.88</ele>
        <time>2018-07-07T16:22:03.000Z</time>
      </trkpt>
      <trkpt lat="46.33098" lon="2.55643">
        <ele>286.13</ele>
        <time>2018-07-07T16:22:05.000Z</time>
      </trkpt>
      <trkpt lat="46.33109" lon="2.55653">
        <ele>286.35</ele>
        <time>2018-07-07T16:22:07.000Z</time>
      </trkpt>
      <trkpt lat="46.33122" lon="2.55662">
        <ele>286.23</ele>
        <time>2018-07-07T16:22:09.000Z</time>
      </trkpt>
      <trkpt lat="46.33135" lon="2.5567">
        <ele>286.34</ele>
        <time>2018-07-07T16:22:11.000Z</time>
      </trkpt>
      <trkpt lat="46.33146" lon="2.55678">
        <ele>286.63</ele>
        <time>2018-07-07T16:22:13.000Z</time>
      </trkpt>
      <trkpt lat="46.33158" lon="2.55686">
        <ele>286.89</ele>
        <time>2018-07-07T16:22:15.000Z</time>
      </trkpt>
      <trkpt lat="46.33169" lon="2.55696">
        <ele>286.91</ele>
        <time>2018-07-07T16:22:17.000Z</time>
      </trkpt>
      <trkpt lat="46.3318" lon="2.55704">
        <ele>287.24</ele>
        <time>2018-07-07T16:22:19.000Z</time>
      </trkpt>
      <trkpt lat="46.33191" lon="2.5571">
        <ele>287.29</ele>
        <time>2018-07-07T16:22:21.000Z</time>
      </trkpt>
      <trkpt lat="46.33202" lon="2.55718">
        <ele>287.3</ele>
        <time>2018-07-07T16:22:23.000Z</time>
      </trkpt>
      <trkpt lat="46.33212" lon="2.55727">
        <ele>286.98</ele>
        <time>2018-07-07T16:22:25.000Z</time>
      </trkpt>
      <trkpt lat="46.33224" lon="2.55735">
        <ele>286.99</ele>
        <time>2018-07-07T16:22:27.000Z</time>
      </trkpt>
      <trkpt lat="46.33235" lon="2.55743">
        <ele>287</ele>
        <time>2018-07-07T16:22:29.000Z</time>
      </trkpt>
      <trkpt lat="46.33247" lon="2.55752">
        <ele>287.09</ele>
        <time>2018-07-07T16:22:31.000Z</time>
      </trkpt>
      <trkpt lat="46.33259" lon="2.55761">
        <ele>287.7</ele>
        <time>2018-07-07T16:22:33.000Z</time>
      </trkpt>
      <trkpt lat="46.3327" lon="2.55767">
        <ele>288.05</ele>
        <time>2018-07-07T16:22:35.000Z</time>
      </trkpt>
      <trkpt lat="46.33283" lon="2.55771">
        <ele>288.17</ele>
        <time>2018-07-07T16:22:37.000Z</time>
      </trkpt>
      <trkpt lat="46.33298" lon="2.55774">
        <ele>288.5</ele>
        <time>2018-07-07T16:22:39.000Z</time>
      </trkpt>
      <trkpt lat="46.33314" lon="2.55779">
        <ele>288.43</ele>
        <time>2018-07-07T16:22:41.000Z</time>
      </trkpt>
      <trkpt lat="46.33328" lon="2.55785">
        <ele>288.19</ele>
        <time>2018-07-07T16:22:43.000Z</time>
      </trkpt>
      <trkpt lat="46.3334" lon="2.55789">
        <ele>287.84</ele>
        <time>2018-07-07T16:22:45.000Z</time>
      </trkpt>
      <trkpt lat="46.3335" lon="2.55796">
        <ele>287.6</ele>
        <time>2018-07-07T16:22:47.000Z</time>
      </trkpt>
      <trkpt lat="46.33361" lon="2.55801">
        <ele>287.11</ele>
        <time>2018-07-07T16:22:49.000Z</time>
      </trkpt>
      <trkpt lat="46.33374" lon="2.55808">
        <ele>286.63</ele>
        <time>2018-07-07T16:22:51.000Z</time>
      </trkpt>
      <trkpt lat="46.33386" lon="2.55814">
        <ele>285.55</ele>
        <time>2018-07-07T16:22:53.000Z</time>
      </trkpt>
      <trkpt lat="46.334" lon="2.55819">
        <ele>284.09</ele>
        <time>2018-07-07T16:22:55.000Z</time>
      </trkpt>
      <trkpt lat="46.33414" lon="2.55824">
        <ele>282.93</ele>
        <time>2018-07-07T16:22:57.000Z</time>
      </trkpt>
      <trkpt lat="46.33425" lon="2.55832">
        <ele>282.09</ele>
        <time>2018-07-07T16:22:59.000Z</time>
      </trkpt>
      <trkpt lat="46.33436" lon="2.55843">
        <ele>281.99</ele>
        <time>2018-07-07T16:23:01.000Z</time>
      </trkpt>
      <trkpt lat="46.33446" lon="2.55857">
        <ele>282.33</ele>
        <time>2018-07-07T16:23:03.000Z</time>
      </trkpt>
      <trkpt lat="46.33453" lon="2.55872">
        <ele>282.93</ele>
        <time>2018-07-07T16:23:05.000Z</time>
      </trkpt>
      <trkpt lat="46.33458" lon="2.55888">
        <ele>284.54</ele>
        <time>2018-07-07T16:23:07.000Z</time>
      </trkpt>
      <trkpt lat="46.33462" lon="2.55905">
        <ele>285.72</ele>
        <time>2018-07-07T16:23:09.000Z</time>
      </trkpt>
      <trkpt lat="46.33466" lon="2.55921">
        <ele>286.6</ele>
        <time>2018-07-07T16:23:11.000Z</time>
      </trkpt>
      <trkpt lat="46.33469" lon="2.55937">
        <ele>287.6</ele>
        <time>2018-07-07T16:23:13.000Z</time>
      </trkpt>
      <trkpt lat="46.33474" lon="2.55954">
        <ele>288.64</ele>
        <time>2018-07-07T16:23:15.000Z</time>
      </trkpt>
      <trkpt lat="46.33479" lon="2.5597">
        <ele>288.98</ele>
        <time>2018-07-07T16:23:17.000Z</time>
      </trkpt>
      <trkpt lat="46.33483" lon="2.55986">
        <ele>289.24</ele>
        <time>2018-07-07T16:23:19.000Z</time>
      </trkpt>
      <trkpt lat="46.33487" lon="2.56002">
        <ele>289.35</ele>
        <time>2018-07-07T16:23:21.000Z</time>
      </trkpt>
      <trkpt lat="46.33492" lon="2.56019">
        <ele>289.12</ele>
        <time>2018-07-07T16:23:23.000Z</time>
      </trkpt>
      <trkpt lat="46.33496" lon="2.56036">
        <ele>288.92</ele>
        <time>2018-07-07T16:23:25.000Z</time>
      </trkpt>
      <trkpt lat="46.33503" lon="2.56051">
        <ele>288.69</ele>
        <time>2018-07-07T16:23:27.000Z</time>
      </trkpt>
      <trkpt lat="46.33511" lon="2.56065">
        <ele>288.48</ele>
        <time>2018-07-07T16:23:29.000Z</time>
      </trkpt>
      <trkpt lat="46.33521" lon="2.56073">
        <ele>288.2</ele>
        <time>2018-07-07T16:23:31.000Z</time>
      </trkpt>
      <trkpt lat="46.33534" lon="2.56079">
        <ele>288.16</ele>
        <time>2018-07-07T16:23:33.000Z</time>
      </trkpt>
      <trkpt lat="46.33545" lon="2.56084">
        <ele>288.13</ele>
        <time>2018-07-07T16:23:35.000Z</time>
      </trkpt>
      <trkpt lat="46.33558" lon="2.56089">
        <ele>287.91</ele>
        <time>2018-07-07T16:23:37.000Z</time>
      </trkpt>
      <trkpt lat="46.33569" lon="2.56095">
        <ele>288.03</ele>
        <time>2018-07-07T16:23:39.000Z</time>
      </trkpt>
      <trkpt lat="46.33579" lon="2.56099">
        <ele>288.49</ele>
        <time>2018-07-07T16:23:41.000Z</time>
      </trkpt>
      <trkpt lat="46.33591" lon="2.56101">
        <ele>289.03</ele>
        <time>2018-07-07T16:23:43.000Z</time>
      </trkpt>
      <trkpt lat="46.33603" lon="2.56103">
        <ele>288.92</ele>
        <time>2018-07-07T16:23:45.000Z</time>
      </trkpt>
      <trkpt lat="46.33614" lon="2.56104">
        <ele>288.93</ele>
        <time>2018-07-07T16:23:47.000Z</time>
      </trkpt>
      <trkpt lat="46.33625" lon="2.56104">
        <ele>288.97</ele>
        <time>2018-07-07T16:23:49.000Z</time>
      </trkpt>
      <trkpt lat="46.33634" lon="2.56104">
        <ele>289.57</ele>
        <time>2018-07-07T16:23:51.000Z</time>
      </trkpt>
      <trkpt lat="46.33644" lon="2.56105">
        <ele>289.85</ele>
        <time>2018-07-07T16:23:53.000Z</time>
      </trkpt>
      <trkpt lat="46.33653" lon="2.56106">
        <ele>290.52</ele>
        <time>2018-07-07T16:23:55.000Z</time>
      </trkpt>
      <trkpt lat="46.33665" lon="2.56108">
        <ele>291.13</ele>
        <time>2018-07-07T16:23:57.000Z</time>
      </trkpt>
      <trkpt lat="46.33674" lon="2.56113">
        <ele>292.15</ele>
        <time>2018-07-07T16:23:59.000Z</time>
      </trkpt>
      <trkpt lat="46.33683" lon="2.56121">
        <ele>292.97</ele>
        <time>2018-07-07T16:24:01.000Z</time>
      </trkpt>
      <trkpt lat="46.33692" lon="2.56129">
        <ele>293.68</ele>
        <time>2018-07-07T16:24:03.000Z</time>
      </trkpt>
      <trkpt lat="46.33701" lon="2.56139">
        <ele>294.05</ele>
        <time>2018-07-07T16:24:05.000Z</time>
      </trkpt>
      <trkpt lat="46.33708" lon="2.5615">
        <ele>294.11</ele>
        <time>2018-07-07T16:24:07.000Z</time>
      </trkpt>
      <trkpt lat="46.33715" lon="2.56161">
        <ele>294</ele>
        <time>2018-07-07T16:24:09.000Z</time>
      </trkpt>
      <trkpt lat="46.33721" lon="2.56174">
        <ele>294.11</ele>
        <time>2018-07-07T16:24:11.000Z</time>
      </trkpt>
      <trkpt lat="46.33727" lon="2.56186">
        <ele>294.37</ele>
        <time>2018-07-07T16:24:13.000Z</time>
      </trkpt>
      <trkpt lat="46.33734" lon="2.56198">
        <ele>294.41</ele>
        <time>2018-07-07T16:24:15.000Z</time>
      </trkpt>
      <trkpt lat="46.33743" lon="2.56208">
        <ele>294.36</ele>
        <time>2018-07-07T16:24:17.000Z</time>
      </trkpt>
      <trkpt lat="46.33753" lon="2.56215">
        <ele>294.85</ele>
        <time>2018-07-07T16:24:19.000Z</time>
      </trkpt>
      <trkpt lat="46.33762" lon="2.56219">
        <ele>296.38</ele>
        <time>2018-07-07T16:24:21.000Z</time>
      </trkpt>
      <trkpt lat="46.3377" lon="2.56226">
        <ele>297.33</ele>
        <time>2018-07-07T16:24:23.000Z</time>
      </trkpt>
      <trkpt lat="46.33779" lon="2.56241">
        <ele>298.64</ele>
        <time>2018-07-07T16:24:26.000Z</time>
      </trkpt>
      <trkpt lat="46.33784" lon="2.56256">
        <ele>298.95</ele>
        <time>2018-07-07T16:24:28.000Z</time>
      </trkpt>
      <trkpt lat="46.33785" lon="2.56275">
        <ele>299.38</ele>
        <time>2018-07-07T16:24:30.000Z</time>
      </trkpt>
      <trkpt lat="46.33785" lon="2.56292">
        <ele>299.93</ele>
        <time>2018-07-07T16:24:32.000Z</time>
      </trkpt>
      <trkpt lat="46.33786" lon="2.5631">
        <ele>300.32</ele>
        <time>2018-07-07T16:24:34.000Z</time>
      </trkpt>
      <trkpt lat="46.33788" lon="2.56328">
        <ele>301.11</ele>
        <time>2018-07-07T16:24:36.000Z</time>
      </trkpt>
      <trkpt lat="46.33789" lon="2.56346">
        <ele>301.81</ele>
        <time>2018-07-07T16:24:38.000Z</time>
      </trkpt>
      <trkpt lat="46.33789" lon="2.56365">
        <ele>302.57</ele>
        <time>2018-07-07T16:24:40.000Z</time>
      </trkpt>
      <trkpt lat="46.33789" lon="2.56384">
        <ele>303.3</ele>
        <time>2018-07-07T16:24:42.000Z</time>
      </trkpt>
      <trkpt lat="46.3379" lon="2.56403">
        <ele>303.74</ele>
        <time>2018-07-07T16:24:44.000Z</time>
      </trkpt>
      <trkpt lat="46.33791" lon="2.56422">
        <ele>303.98</ele>
        <time>2018-07-07T16:24:46.000Z</time>
      </trkpt>
      <trkpt lat="46.33792" lon="2.56443">
        <ele>304.56</ele>
        <time>2018-07-07T16:24:48.000Z</time>
      </trkpt>
      <trkpt lat="46.33792" lon="2.56462">
        <ele>304.65</ele>
        <time>2018-07-07T16:24:50.000Z</time>
      </trkpt>
      <trkpt lat="46.33793" lon="2.56482">
        <ele>304.63</ele>
        <time>2018-07-07T16:24:52.000Z</time>
      </trkpt>
      <trkpt lat="46.33793" lon="2.56503">
        <ele>304.61</ele>
        <time>2018-07-07T16:24:54.000Z</time>
      </trkpt>
      <trkpt lat="46.33794" lon="2.56523">
        <ele>304.08</ele>
        <time>2018-07-07T16:24:56.000Z</time>
      </trkpt>
      <trkpt lat="46.33795" lon="2.56543">
        <ele>303.6</ele>
        <time>2018-07-07T16:24:58.000Z</time>
      </trkpt>
      <trkpt lat="46.33796" lon="2.56565">
        <ele>302.8</ele>
        <time>2018-07-07T16:25:00.000Z</time>
      </trkpt>
      <trkpt lat="46.33796" lon="2.56588">
        <ele>302.23</ele>
        <time>2018-07-07T16:25:02.000Z</time>
      </trkpt>
      <trkpt lat="46.33796" lon="2.56607">
        <ele>301.75</ele>
        <time>2018-07-07T16:25:04.000Z</time>
      </trkpt>
      <trkpt lat="46.33797" lon="2.56627">
        <ele>301.55</ele>
        <time>2018-07-07T16:25:06.000Z</time>
      </trkpt>
      <trkpt lat="46.33798" lon="2.5665">
        <ele>301.31</ele>
        <time>2018-07-07T16:25:08.000Z</time>
      </trkpt>
      <trkpt lat="46.338" lon="2.56671">
        <ele>301.64</ele>
        <time>2018-07-07T16:25:10.000Z</time>
      </trkpt>
      <trkpt lat="46.33801" lon="2.56696">
        <ele>301.72</ele>
        <time>2018-07-07T16:25:12.000Z</time>
      </trkpt>
      <trkpt lat="46.33803" lon="2.56723">
        <ele>301.61</ele>
        <time>2018-07-07T16:25:14.000Z</time>
      </trkpt>
      <trkpt lat="46.33804" lon="2.56738">
        <ele>300.98</ele>
        <time>2018-07-07T16:25:15.000Z</time>
      </trkpt>
      <trkpt lat="46.33804" lon="2.56753">
        <ele>300.51</ele>
        <time>2018-07-07T16:25:16.000Z</time>
      </trkpt>
      <trkpt lat="46.33804" lon="2.56767">
        <ele>300.12</ele>
        <time>2018-07-07T16:25:17.000Z</time>
      </trkpt>
      <trkpt lat="46.33805" lon="2.56781">
        <ele>299.77</ele>
        <time>2018-07-07T16:25:18.000Z</time>
      </trkpt>
      <trkpt lat="46.33804" lon="2.56801">
        <ele>299.26</ele>
        <time>2018-07-07T16:25:20.000Z</time>
      </trkpt>
      <trkpt lat="46.338" lon="2.56819">
        <ele>298.06</ele>
        <time>2018-07-07T16:25:22.000Z</time>
      </trkpt>
      <trkpt lat="46.33794" lon="2.56837">
        <ele>297.51</ele>
        <time>2018-07-07T16:25:24.000Z</time>
      </trkpt>
      <trkpt lat="46.33794" lon="2.56858">
        <ele>296.89</ele>
        <time>2018-07-07T16:25:26.000Z</time>
      </trkpt>
      <trkpt lat="46.33802" lon="2.56881">
        <ele>296.05</ele>
        <time>2018-07-07T16:25:28.000Z</time>
      </trkpt>
      <trkpt lat="46.33807" lon="2.56903">
        <ele>295.36</ele>
        <time>2018-07-07T16:25:30.000Z</time>
      </trkpt>
      <trkpt lat="46.33807" lon="2.56926">
        <ele>294.98</ele>
        <time>2018-07-07T16:25:32.000Z</time>
      </trkpt>
      <trkpt lat="46.33809" lon="2.56951">
        <ele>294.54</ele>
        <time>2018-07-07T16:25:34.000Z</time>
      </trkpt>
      <trkpt lat="46.3381" lon="2.56977">
        <ele>293.7</ele>
        <time>2018-07-07T16:25:36.000Z</time>
      </trkpt>
      <trkpt lat="46.33812" lon="2.57003">
        <ele>293.1</ele>
        <time>2018-07-07T16:25:38.000Z</time>
      </trkpt>
      <trkpt lat="46.33813" lon="2.57016">
        <ele>292.58</ele>
        <time>2018-07-07T16:25:39.000Z</time>
      </trkpt>
      <trkpt lat="46.33814" lon="2.5703">
        <ele>292.11</ele>
        <time>2018-07-07T16:25:40.000Z</time>
      </trkpt>
      <trkpt lat="46.33815" lon="2.57045">
        <ele>291.66</ele>
        <time>2018-07-07T16:25:41.000Z</time>
      </trkpt>
      <trkpt lat="46.33815" lon="2.5706">
        <ele>291.12</ele>
        <time>2018-07-07T16:25:42.000Z</time>
      </trkpt>
      <trkpt lat="46.33816" lon="2.57076">
        <ele>290.72</ele>
        <time>2018-07-07T16:25:43.000Z</time>
      </trkpt>
      <trkpt lat="46.33817" lon="2.57092">
        <ele>290.18</ele>
        <time>2018-07-07T16:25:44.000Z</time>
      </trkpt>
      <trkpt lat="46.33818" lon="2.57108">
        <ele>289.66</ele>
        <time>2018-07-07T16:25:45.000Z</time>
      </trkpt>
      <trkpt lat="46.33819" lon="2.57125">
        <ele>289.2</ele>
        <time>2018-07-07T16:25:46.000Z</time>
      </trkpt>
      <trkpt lat="46.3382" lon="2.57142">
        <ele>288.66</ele>
        <time>2018-07-07T16:25:47.000Z</time>
      </trkpt>
      <trkpt lat="46.3382" lon="2.57159">
        <ele>288.04</ele>
        <time>2018-07-07T16:25:48.000Z</time>
      </trkpt>
      <trkpt lat="46.33821" lon="2.57175">
        <ele>287.51</ele>
        <time>2018-07-07T16:25:49.000Z</time>
      </trkpt>
      <trkpt lat="46.33822" lon="2.57191">
        <ele>287.15</ele>
        <time>2018-07-07T16:25:50.000Z</time>
      </trkpt>
      <trkpt lat="46.33822" lon="2.57207">
        <ele>286.73</ele>
        <time>2018-07-07T16:25:51.000Z</time>
      </trkpt>
      <trkpt lat="46.33822" lon="2.57222">
        <ele>286.16</ele>
        <time>2018-07-07T16:25:52.000Z</time>
      </trkpt>
      <trkpt lat="46.33822" lon="2.57238">
        <ele>285.5</ele>
        <time>2018-07-07T16:25:53.000Z</time>
      </trkpt>
      <trkpt lat="46.33822" lon="2.57254">
        <ele>284.85</ele>
        <time>2018-07-07T16:25:54.000Z</time>
      </trkpt>
      <trkpt lat="46.33823" lon="2.57267">
        <ele>284.06</ele>
        <time>2018-07-07T16:25:55.000Z</time>
      </trkpt>
      <trkpt lat="46.33823" lon="2.57281">
        <ele>283.04</ele>
        <time>2018-07-07T16:25:56.000Z</time>
      </trkpt>
      <trkpt lat="46.33823" lon="2.57307">
        <ele>281.4</ele>
        <time>2018-07-07T16:25:58.000Z</time>
      </trkpt>
      <trkpt lat="46.33823" lon="2.57328">
        <ele>280.19</ele>
        <time>2018-07-07T16:26:00.000Z</time>
      </trkpt>
      <trkpt lat="46.33823" lon="2.57346">
        <ele>278.88</ele>
        <time>2018-07-07T16:26:02.000Z</time>
      </trkpt>
      <trkpt lat="46.33825" lon="2.57361">
        <ele>277.64</ele>
        <time>2018-07-07T16:26:04.000Z</time>
      </trkpt>
      <trkpt lat="46.33826" lon="2.57376">
        <ele>276.24</ele>
        <time>2018-07-07T16:26:07.000Z</time>
      </trkpt>
      <trkpt lat="46.33826" lon="2.57392">
        <ele>272.77</ele>
        <time>2018-07-07T16:26:52.000Z</time>
      </trkpt>
      <trkpt lat="46.33826" lon="2.57407">
        <ele>271.41</ele>
        <time>2018-07-07T16:26:55.000Z</time>
      </trkpt>
      <trkpt lat="46.33826" lon="2.57422">
        <ele>271.32</ele>
        <time>2018-07-07T16:26:57.000Z</time>
      </trkpt>
      <trkpt lat="46.33826" lon="2.57441">
        <ele>271.23</ele>
        <time>2018-07-07T16:26:59.000Z</time>
      </trkpt>
      <trkpt lat="46.33827" lon="2.57464">
        <ele>270.96</ele>
        <time>2018-07-07T16:27:01.000Z</time>
      </trkpt>
      <trkpt lat="46.33829" lon="2.57487">
        <ele>270.9</ele>
        <time>2018-07-07T16:27:03.000Z</time>
      </trkpt>
      <trkpt lat="46.3383" lon="2.5751">
        <ele>270.65</ele>
        <time>2018-07-07T16:27:05.000Z</time>
      </trkpt>
      <trkpt lat="46.33831" lon="2.57534">
        <ele>270.09</ele>
        <time>2018-07-07T16:27:07.000Z</time>
      </trkpt>
      <trkpt lat="46.33834" lon="2.57557">
        <ele>269.95</ele>
        <time>2018-07-07T16:27:09.000Z</time>
      </trkpt>
      <trkpt lat="46.33835" lon="2.57579">
        <ele>269.86</ele>
        <time>2018-07-07T16:27:11.000Z</time>
      </trkpt>
      <trkpt lat="46.33837" lon="2.57601">
        <ele>269.53</ele>
        <time>2018-07-07T16:27:13.000Z</time>
      </trkpt>
      <trkpt lat="46.33839" lon="2.57623">
        <ele>269.1</ele>
        <time>2018-07-07T16:27:15.000Z</time>
      </trkpt>
      <trkpt lat="46.33841" lon="2.57645">
        <ele>268.94</ele>
        <time>2018-07-07T16:27:17.000Z</time>
      </trkpt>
      <trkpt lat="46.33842" lon="2.57667">
        <ele>268.78</ele>
        <time>2018-07-07T16:27:19.000Z</time>
      </trkpt>
      <trkpt lat="46.33842" lon="2.57689">
        <ele>268.95</ele>
        <time>2018-07-07T16:27:21.000Z</time>
      </trkpt>
      <trkpt lat="46.33843" lon="2.5771">
        <ele>269.39</ele>
        <time>2018-07-07T16:27:23.000Z</time>
      </trkpt>
      <trkpt lat="46.33843" lon="2.5773">
        <ele>269.38</ele>
        <time>2018-07-07T16:27:25.000Z</time>
      </trkpt>
      <trkpt lat="46.33845" lon="2.57749">
        <ele>269.61</ele>
        <time>2018-07-07T16:27:27.000Z</time>
      </trkpt>
      <trkpt lat="46.33847" lon="2.57767">
        <ele>270.25</ele>
        <time>2018-07-07T16:27:29.000Z</time>
      </trkpt>
      <trkpt lat="46.33849" lon="2.57783">
        <ele>270.98</ele>
        <time>2018-07-07T16:27:31.000Z</time>
      </trkpt>
      <trkpt lat="46.33852" lon="2.57799">
        <ele>271.54</ele>
        <time>2018-07-07T16:27:33.000Z</time>
      </trkpt>
      <trkpt lat="46.33855" lon="2.57815">
        <ele>272.1</ele>
        <time>2018-07-07T16:27:35.000Z</time>
      </trkpt>
      <trkpt lat="46.33859" lon="2.57829">
        <ele>272.71</ele>
        <time>2018-07-07T16:27:37.000Z</time>
      </trkpt>
      <trkpt lat="46.33864" lon="2.57843">
        <ele>272.83</ele>
        <time>2018-07-07T16:27:39.000Z</time>
      </trkpt>
      <trkpt lat="46.33869" lon="2.57858">
        <ele>273.17</ele>
        <time>2018-07-07T16:27:41.000Z</time>
      </trkpt>
      <trkpt lat="46.33874" lon="2.57873">
        <ele>273.59</ele>
        <time>2018-07-07T16:27:43.000Z</time>
      </trkpt>
      <trkpt lat="46.33877" lon="2.57889">
        <ele>274.52</ele>
        <time>2018-07-07T16:27:45.000Z</time>
      </trkpt>
      <trkpt lat="46.3388" lon="2.57902">
        <ele>274.99</ele>
        <time>2018-07-07T16:27:47.000Z</time>
      </trkpt>
      <trkpt lat="46.33885" lon="2.57919">
        <ele>275.61</ele>
        <time>2018-07-07T16:27:50.000Z</time>
      </trkpt>
      <trkpt lat="46.33889" lon="2.57934">
        <ele>276.74</ele>
        <time>2018-07-07T16:27:52.000Z</time>
      </trkpt>
      <trkpt lat="46.33893" lon="2.57949">
        <ele>277.12</ele>
        <time>2018-07-07T16:27:54.000Z</time>
      </trkpt>
      <trkpt lat="46.33896" lon="2.57963">
        <ele>277.48</ele>
        <time>2018-07-07T16:27:56.000Z</time>
      </trkpt>
      <trkpt lat="46.33899" lon="2.57978">
        <ele>277.81</ele>
        <time>2018-07-07T16:27:58.000Z</time>
      </trkpt>
      <trkpt lat="46.33903" lon="2.57993">
        <ele>278.37</ele>
        <time>2018-07-07T16:28:00.000Z</time>
      </trkpt>
      <trkpt lat="46.33907" lon="2.58009">
        <ele>278.61</ele>
        <time>2018-07-07T16:28:02.000Z</time>
      </trkpt>
      <trkpt lat="46.33912" lon="2.58023">
        <ele>279.01</ele>
        <time>2018-07-07T16:28:04.000Z</time>
      </trkpt>
      <trkpt lat="46.33917" lon="2.58037">
        <ele>279.43</ele>
        <time>2018-07-07T16:28:06.000Z</time>
      </trkpt>
      <trkpt lat="46.33921" lon="2.58054">
        <ele>279.99</ele>
        <time>2018-07-07T16:28:08.000Z</time>
      </trkpt>
      <trkpt lat="46.33926" lon="2.58069">
        <ele>280.13</ele>
        <time>2018-07-07T16:28:10.000Z</time>
      </trkpt>
      <trkpt lat="46.33931" lon="2.58084">
        <ele>280.32</ele>
        <time>2018-07-07T16:28:12.000Z</time>
      </trkpt>
      <trkpt lat="46.33936" lon="2.58099">
        <ele>280.77</ele>
        <time>2018-07-07T16:28:14.000Z</time>
      </trkpt>
      <trkpt lat="46.33941" lon="2.58116">
        <ele>282.18</ele>
        <time>2018-07-07T16:28:16.000Z</time>
      </trkpt>
      <trkpt lat="46.33947" lon="2.58135">
        <ele>282.7</ele>
        <time>2018-07-07T16:28:18.000Z</time>
      </trkpt>
      <trkpt lat="46.33954" lon="2.58153">
        <ele>283.14</ele>
        <time>2018-07-07T16:28:20.000Z</time>
      </trkpt>
      <trkpt lat="46.33958" lon="2.58171">
        <ele>283.91</ele>
        <time>2018-07-07T16:28:22.000Z</time>
      </trkpt>
      <trkpt lat="46.33963" lon="2.58186">
        <ele>284.56</ele>
        <time>2018-07-07T16:28:24.000Z</time>
      </trkpt>
      <trkpt lat="46.33968" lon="2.58201">
        <ele>284.54</ele>
        <time>2018-07-07T16:28:26.000Z</time>
      </trkpt>
      <trkpt lat="46.33973" lon="2.58214">
        <ele>284.58</ele>
        <time>2018-07-07T16:28:28.000Z</time>
      </trkpt>
      <trkpt lat="46.33978" lon="2.58226">
        <ele>284.72</ele>
        <time>2018-07-07T16:28:30.000Z</time>
      </trkpt>
      <trkpt lat="46.33985" lon="2.58242">
        <ele>285.25</ele>
        <time>2018-07-07T16:28:33.000Z</time>
      </trkpt>
      <trkpt lat="46.33989" lon="2.58259">
        <ele>285.82</ele>
        <time>2018-07-07T16:28:36.000Z</time>
      </trkpt>
      <trkpt lat="46.33986" lon="2.58277">
        <ele>286.19</ele>
        <time>2018-07-07T16:28:39.000Z</time>
      </trkpt>
      <trkpt lat="46.33978" lon="2.58294">
        <ele>285.26</ele>
        <time>2018-07-07T16:28:41.000Z</time>
      </trkpt>
      <trkpt lat="46.33965" lon="2.58302">
        <ele>285.98</ele>
        <time>2018-07-07T16:28:43.000Z</time>
      </trkpt>
      <trkpt lat="46.33954" lon="2.5831">
        <ele>286.27</ele>
        <time>2018-07-07T16:28:45.000Z</time>
      </trkpt>
      <trkpt lat="46.33942" lon="2.5832">
        <ele>286.61</ele>
        <time>2018-07-07T16:28:47.000Z</time>
      </trkpt>
      <trkpt lat="46.33932" lon="2.58327">
        <ele>286.95</ele>
        <time>2018-07-07T16:28:49.000Z</time>
      </trkpt>
      <trkpt lat="46.33918" lon="2.58334">
        <ele>287.15</ele>
        <time>2018-07-07T16:28:51.000Z</time>
      </trkpt>
      <trkpt lat="46.33908" lon="2.58339">
        <ele>286.88</ele>
        <time>2018-07-07T16:28:53.000Z</time>
      </trkpt>
      <trkpt lat="46.33897" lon="2.58346">
        <ele>286.11</ele>
        <time>2018-07-07T16:28:55.000Z</time>
      </trkpt>
      <trkpt lat="46.33884" lon="2.58356">
        <ele>284.77</ele>
        <time>2018-07-07T16:28:57.000Z</time>
      </trkpt>
      <trkpt lat="46.33872" lon="2.58366">
        <ele>283.49</ele>
        <time>2018-07-07T16:28:59.000Z</time>
      </trkpt>
      <trkpt lat="46.3386" lon="2.58376">
        <ele>282.26</ele>
        <time>2018-07-07T16:29:01.000Z</time>
      </trkpt>
      <trkpt lat="46.33848" lon="2.58385">
        <ele>281.13</ele>
        <time>2018-07-07T16:29:03.000Z</time>
      </trkpt>
      <trkpt lat="46.33836" lon="2.58394">
        <ele>279.04</ele>
        <time>2018-07-07T16:29:05.000Z</time>
      </trkpt>
      <trkpt lat="46.33825" lon="2.58407">
        <ele>277.97</ele>
        <time>2018-07-07T16:29:07.000Z</time>
      </trkpt>
      <trkpt lat="46.33813" lon="2.58419">
        <ele>276.95</ele>
        <time>2018-07-07T16:29:09.000Z</time>
      </trkpt>
      <trkpt lat="46.33801" lon="2.58432">
        <ele>275.93</ele>
        <time>2018-07-07T16:29:11.000Z</time>
      </trkpt>
      <trkpt lat="46.33789" lon="2.58448">
        <ele>275.75</ele>
        <time>2018-07-07T16:29:13.000Z</time>
      </trkpt>
      <trkpt lat="46.33777" lon="2.58464">
        <ele>275.61</ele>
        <time>2018-07-07T16:29:15.000Z</time>
      </trkpt>
      <trkpt lat="46.33767" lon="2.58481">
        <ele>276.13</ele>
        <time>2018-07-07T16:29:17.000Z</time>
      </trkpt>
      <trkpt lat="46.33759" lon="2.58499">
        <ele>276.55</ele>
        <time>2018-07-07T16:29:19.000Z</time>
      </trkpt>
      <trkpt lat="46.33752" lon="2.58517">
        <ele>277.06</ele>
        <time>2018-07-07T16:29:21.000Z</time>
      </trkpt>
      <trkpt lat="46.33744" lon="2.58531">
        <ele>277.09</ele>
        <time>2018-07-07T16:29:23.000Z</time>
      </trkpt>
      <trkpt lat="46.33736" lon="2.58548">
        <ele>276.64</ele>
        <time>2018-07-07T16:29:25.000Z</time>
      </trkpt>
      <trkpt lat="46.3373" lon="2.58569">
        <ele>275.45</ele>
        <time>2018-07-07T16:29:27.000Z</time>
      </trkpt>
      <trkpt lat="46.33724" lon="2.5859">
        <ele>274.46</ele>
        <time>2018-07-07T16:29:29.000Z</time>
      </trkpt>
      <trkpt lat="46.33717" lon="2.58611">
        <ele>273.38</ele>
        <time>2018-07-07T16:29:31.000Z</time>
      </trkpt>
      <trkpt lat="46.33711" lon="2.58633">
        <ele>271.91</ele>
        <time>2018-07-07T16:29:33.000Z</time>
      </trkpt>
      <trkpt lat="46.33706" lon="2.58654">
        <ele>271.1</ele>
        <time>2018-07-07T16:29:35.000Z</time>
      </trkpt>
      <trkpt lat="46.33701" lon="2.58675">
        <ele>270.53</ele>
        <time>2018-07-07T16:29:37.000Z</time>
      </trkpt>
      <trkpt lat="46.33695" lon="2.58696">
        <ele>269.62</ele>
        <time>2018-07-07T16:29:39.000Z</time>
      </trkpt>
      <trkpt lat="46.33688" lon="2.58713">
        <ele>268.73</ele>
        <time>2018-07-07T16:29:41.000Z</time>
      </trkpt>
      <trkpt lat="46.33687" lon="2.58727">
        <ele>268.42</ele>
        <time>2018-07-07T16:29:43.000Z</time>
      </trkpt>
      <trkpt lat="46.33688" lon="2.58743">
        <ele>267.35</ele>
        <time>2018-07-07T16:29:45.000Z</time>
      </trkpt>
      <trkpt lat="46.33688" lon="2.58759">
        <ele>266.49</ele>
        <time>2018-07-07T16:29:47.000Z</time>
      </trkpt>
      <trkpt lat="46.33686" lon="2.58777">
        <ele>265.84</ele>
        <time>2018-07-07T16:29:49.000Z</time>
      </trkpt>
      <trkpt lat="46.33684" lon="2.58796">
        <ele>265.15</ele>
        <time>2018-07-07T16:29:51.000Z</time>
      </trkpt>
      <trkpt lat="46.33682" lon="2.58816">
        <ele>264.55</ele>
        <time>2018-07-07T16:29:53.000Z</time>
      </trkpt>
      <trkpt lat="46.33679" lon="2.58836">
        <ele>264.47</ele>
        <time>2018-07-07T16:29:55.000Z</time>
      </trkpt>
      <trkpt lat="46.33675" lon="2.58856">
        <ele>264.43</ele>
        <time>2018-07-07T16:29:57.000Z</time>
      </trkpt>
      <trkpt lat="46.3367" lon="2.58875">
        <ele>264.56</ele>
        <time>2018-07-07T16:29:59.000Z</time>
      </trkpt>
      <trkpt lat="46.33664" lon="2.58893">
        <ele>264.65</ele>
        <time>2018-07-07T16:30:01.000Z</time>
      </trkpt>
      <trkpt lat="46.33656" lon="2.58911">
        <ele>264.43</ele>
        <time>2018-07-07T16:30:03.000Z</time>
      </trkpt>
      <trkpt lat="46.33648" lon="2.58928">
        <ele>264.3</ele>
        <time>2018-07-07T16:30:05.000Z</time>
      </trkpt>
      <trkpt lat="46.33639" lon="2.58943">
        <ele>264.3</ele>
        <time>2018-07-07T16:30:07.000Z</time>
      </trkpt>
      <trkpt lat="46.33629" lon="2.58959">
        <ele>264.54</ele>
        <time>2018-07-07T16:30:09.000Z</time>
      </trkpt>
      <trkpt lat="46.33619" lon="2.58976">
        <ele>264.35</ele>
        <time>2018-07-07T16:30:11.000Z</time>
      </trkpt>
      <trkpt lat="46.33609" lon="2.58994">
        <ele>263.9</ele>
        <time>2018-07-07T16:30:13.000Z</time>
      </trkpt>
      <trkpt lat="46.336" lon="2.59013">
        <ele>263.52</ele>
        <time>2018-07-07T16:30:15.000Z</time>
      </trkpt>
      <trkpt lat="46.33591" lon="2.59033">
        <ele>263.15</ele>
        <time>2018-07-07T16:30:17.000Z</time>
      </trkpt>
      <trkpt lat="46.33579" lon="2.5905">
        <ele>262.08</ele>
        <time>2018-07-07T16:30:19.000Z</time>
      </trkpt>
      <trkpt lat="46.33569" lon="2.59069">
        <ele>261.41</ele>
        <time>2018-07-07T16:30:21.000Z</time>
      </trkpt>
      <trkpt lat="46.33558" lon="2.59087">
        <ele>260.94</ele>
        <time>2018-07-07T16:30:23.000Z</time>
      </trkpt>
      <trkpt lat="46.33547" lon="2.59104">
        <ele>260.86</ele>
        <time>2018-07-07T16:30:25.000Z</time>
      </trkpt>
      <trkpt lat="46.33538" lon="2.5912">
        <ele>260.9</ele>
        <time>2018-07-07T16:30:27.000Z</time>
      </trkpt>
      <trkpt lat="46.33527" lon="2.59134">
        <ele>260.76</ele>
        <time>2018-07-07T16:30:29.000Z</time>
      </trkpt>
      <trkpt lat="46.33516" lon="2.59146">
        <ele>260.26</ele>
        <time>2018-07-07T16:30:31.000Z</time>
      </trkpt>
      <trkpt lat="46.33505" lon="2.59158">
        <ele>259.89</ele>
        <time>2018-07-07T16:30:33.000Z</time>
      </trkpt>
      <trkpt lat="46.33493" lon="2.59169">
        <ele>259.63</ele>
        <time>2018-07-07T16:30:35.000Z</time>
      </trkpt>
      <trkpt lat="46.33481" lon="2.59178">
        <ele>259.28</ele>
        <time>2018-07-07T16:30:37.000Z</time>
      </trkpt>
      <trkpt lat="46.33469" lon="2.59188">
        <ele>258.8</ele>
        <time>2018-07-07T16:30:39.000Z</time>
      </trkpt>
      <trkpt lat="46.33456" lon="2.59198">
        <ele>258.41</ele>
        <time>2018-07-07T16:30:41.000Z</time>
      </trkpt>
      <trkpt lat="46.33442" lon="2.59207">
        <ele>257.85</ele>
        <time>2018-07-07T16:30:43.000Z</time>
      </trkpt>
      <trkpt lat="46.33427" lon="2.59214">
        <ele>257.68</ele>
        <time>2018-07-07T16:30:45.000Z</time>
      </trkpt>
      <trkpt lat="46.33413" lon="2.59222">
        <ele>257.48</ele>
        <time>2018-07-07T16:30:47.000Z</time>
      </trkpt>
      <trkpt lat="46.33398" lon="2.5923">
        <ele>257.36</ele>
        <time>2018-07-07T16:30:49.000Z</time>
      </trkpt>
      <trkpt lat="46.33382" lon="2.59239">
        <ele>257.26</ele>
        <time>2018-07-07T16:30:51.000Z</time>
      </trkpt>
      <trkpt lat="46.33367" lon="2.59245">
        <ele>257.31</ele>
        <time>2018-07-07T16:30:53.000Z</time>
      </trkpt>
      <trkpt lat="46.33351" lon="2.59252">
        <ele>257.75</ele>
        <time>2018-07-07T16:30:55.000Z</time>
      </trkpt>
      <trkpt lat="46.33335" lon="2.59259">
        <ele>257.53</ele>
        <time>2018-07-07T16:30:57.000Z</time>
      </trkpt>
      <trkpt lat="46.33319" lon="2.59267">
        <ele>257.59</ele>
        <time>2018-07-07T16:30:59.000Z</time>
      </trkpt>
      <trkpt lat="46.33303" lon="2.59273">
        <ele>257.41</ele>
        <time>2018-07-07T16:31:01.000Z</time>
      </trkpt>
      <trkpt lat="46.33289" lon="2.59279">
        <ele>257.45</ele>
        <time>2018-07-07T16:31:03.000Z</time>
      </trkpt>
      <trkpt lat="46.33274" lon="2.59286">
        <ele>257.56</ele>
        <time>2018-07-07T16:31:05.000Z</time>
      </trkpt>
      <trkpt lat="46.33259" lon="2.59291">
        <ele>257.32</ele>
        <time>2018-07-07T16:31:07.000Z</time>
      </trkpt>
      <trkpt lat="46.33244" lon="2.59297">
        <ele>256.75</ele>
        <time>2018-07-07T16:31:09.000Z</time>
      </trkpt>
      <trkpt lat="46.33229" lon="2.59302">
        <ele>256.66</ele>
        <time>2018-07-07T16:31:11.000Z</time>
      </trkpt>
      <trkpt lat="46.33214" lon="2.59307">
        <ele>256.22</ele>
        <time>2018-07-07T16:31:13.000Z</time>
      </trkpt>
      <trkpt lat="46.33198" lon="2.59314">
        <ele>255.4</ele>
        <time>2018-07-07T16:31:15.000Z</time>
      </trkpt>
      <trkpt lat="46.33182" lon="2.5932">
        <ele>254.62</ele>
        <time>2018-07-07T16:31:17.000Z</time>
      </trkpt>
      <trkpt lat="46.33165" lon="2.59325">
        <ele>253.69</ele>
        <time>2018-07-07T16:31:19.000Z</time>
      </trkpt>
      <trkpt lat="46.33149" lon="2.59331">
        <ele>252.66</ele>
        <time>2018-07-07T16:31:21.000Z</time>
      </trkpt>
      <trkpt lat="46.33133" lon="2.59338">
        <ele>252.46</ele>
        <time>2018-07-07T16:31:23.000Z</time>
      </trkpt>
      <trkpt lat="46.33117" lon="2.59345">
        <ele>252.26</ele>
        <time>2018-07-07T16:31:25.000Z</time>
      </trkpt>
      <trkpt lat="46.33101" lon="2.59351">
        <ele>251.73</ele>
        <time>2018-07-07T16:31:27.000Z</time>
      </trkpt>
      <trkpt lat="46.33085" lon="2.59358">
        <ele>251.67</ele>
        <time>2018-07-07T16:31:29.000Z</time>
      </trkpt>
      <trkpt lat="46.3307" lon="2.59367">
        <ele>251.24</ele>
        <time>2018-07-07T16:31:31.000Z</time>
      </trkpt>
      <trkpt lat="46.33058" lon="2.59377">
        <ele>251.51</ele>
        <time>2018-07-07T16:31:33.000Z</time>
      </trkpt>
      <trkpt lat="46.33046" lon="2.59388">
        <ele>251.23</ele>
        <time>2018-07-07T16:31:35.000Z</time>
      </trkpt>
      <trkpt lat="46.33035" lon="2.59399">
        <ele>250.36</ele>
        <time>2018-07-07T16:31:37.000Z</time>
      </trkpt>
      <trkpt lat="46.33023" lon="2.59412">
        <ele>249.66</ele>
        <time>2018-07-07T16:31:39.000Z</time>
      </trkpt>
      <trkpt lat="46.33009" lon="2.59425">
        <ele>249.37</ele>
        <time>2018-07-07T16:31:41.000Z</time>
      </trkpt>
      <trkpt lat="46.32998" lon="2.59442">
        <ele>250.26</ele>
        <time>2018-07-07T16:31:43.000Z</time>
      </trkpt>
      <trkpt lat="46.32989" lon="2.59458">
        <ele>251.36</ele>
        <time>2018-07-07T16:31:45.000Z</time>
      </trkpt>
      <trkpt lat="46.32979" lon="2.59473">
        <ele>252.03</ele>
        <time>2018-07-07T16:31:47.000Z</time>
      </trkpt>
      <trkpt lat="46.32969" lon="2.59487">
        <ele>253.07</ele>
        <time>2018-07-07T16:31:49.000Z</time>
      </trkpt>
      <trkpt lat="46.32959" lon="2.59502">
        <ele>253.96</ele>
        <time>2018-07-07T16:31:51.000Z</time>
      </trkpt>
      <trkpt lat="46.32948" lon="2.59516">
        <ele>254.58</ele>
        <time>2018-07-07T16:31:53.000Z</time>
      </trkpt>
      <trkpt lat="46.3294" lon="2.59531">
        <ele>255.42</ele>
        <time>2018-07-07T16:31:55.000Z</time>
      </trkpt>
      <trkpt lat="46.32932" lon="2.59545">
        <ele>256.17</ele>
        <time>2018-07-07T16:31:57.000Z</time>
      </trkpt>
      <trkpt lat="46.32924" lon="2.59559">
        <ele>256.75</ele>
        <time>2018-07-07T16:31:59.000Z</time>
      </trkpt>
      <trkpt lat="46.32917" lon="2.59572">
        <ele>257.56</ele>
        <time>2018-07-07T16:32:01.000Z</time>
      </trkpt>
      <trkpt lat="46.32912" lon="2.59586">
        <ele>258.98</ele>
        <time>2018-07-07T16:32:03.000Z</time>
      </trkpt>
      <trkpt lat="46.32906" lon="2.59599">
        <ele>260.55</ele>
        <time>2018-07-07T16:32:05.000Z</time>
      </trkpt>
      <trkpt lat="46.32899" lon="2.59612">
        <ele>261.07</ele>
        <time>2018-07-07T16:32:07.000Z</time>
      </trkpt>
      <trkpt lat="46.32888" lon="2.59614">
        <ele>261.4</ele>
        <time>2018-07-07T16:32:10.000Z</time>
      </trkpt>
      <trkpt lat="46.32882" lon="2.59597">
        <ele>261.49</ele>
        <time>2018-07-07T16:32:13.000Z</time>
      </trkpt>
      <trkpt lat="46.32879" lon="2.59582">
        <ele>261.05</ele>
        <time>2018-07-07T16:32:15.000Z</time>
      </trkpt>
      <trkpt lat="46.32876" lon="2.59569">
        <ele>260.53</ele>
        <time>2018-07-07T16:32:17.000Z</time>
      </trkpt>
      <trkpt lat="46.32871" lon="2.59555">
        <ele>260.46</ele>
        <time>2018-07-07T16:32:19.000Z</time>
      </trkpt>
      <trkpt lat="46.32867" lon="2.59541">
        <ele>260.79</ele>
        <time>2018-07-07T16:32:21.000Z</time>
      </trkpt>
      <trkpt lat="46.32863" lon="2.59529">
        <ele>261.02</ele>
        <time>2018-07-07T16:32:23.000Z</time>
      </trkpt>
      <trkpt lat="46.32859" lon="2.59517">
        <ele>261.08</ele>
        <time>2018-07-07T16:32:25.000Z</time>
      </trkpt>
      <trkpt lat="46.32855" lon="2.59504">
        <ele>261.2</ele>
        <time>2018-07-07T16:32:27.000Z</time>
      </trkpt>
      <trkpt lat="46.3285" lon="2.59488">
        <ele>261.72</ele>
        <time>2018-07-07T16:32:30.000Z</time>
      </trkpt>
      <trkpt lat="46.32845" lon="2.59472">
        <ele>262.31</ele>
        <time>2018-07-07T16:32:33.000Z</time>
      </trkpt>
      <trkpt lat="46.32839" lon="2.59457">
        <ele>263.15</ele>
        <time>2018-07-07T16:32:36.000Z</time>
      </trkpt>
      <trkpt lat="46.32835" lon="2.59442">
        <ele>263.63</ele>
        <time>2018-07-07T16:32:39.000Z</time>
      </trkpt>
      <trkpt lat="46.32831" lon="2.59426">
        <ele>264.34</ele>
        <time>2018-07-07T16:32:42.000Z</time>
      </trkpt>
      <trkpt lat="46.32829" lon="2.59408">
        <ele>264.78</ele>
        <time>2018-07-07T16:32:45.000Z</time>
      </trkpt>
      <trkpt lat="46.32829" lon="2.59392">
        <ele>265.35</ele>
        <time>2018-07-07T16:32:48.000Z</time>
      </trkpt>
      <trkpt lat="46.32828" lon="2.59378">
        <ele>266.3</ele>
        <time>2018-07-07T16:32:51.000Z</time>
      </trkpt>
      <trkpt lat="46.32826" lon="2.59364">
        <ele>267.43</ele>
        <time>2018-07-07T16:32:55.000Z</time>
      </trkpt>
      <trkpt lat="46.32821" lon="2.5935">
        <ele>269.27</ele>
        <time>2018-07-07T16:32:59.000Z</time>
      </trkpt>
      <trkpt lat="46.32817" lon="2.59337">
        <ele>270.19</ele>
        <time>2018-07-07T16:33:02.000Z</time>
      </trkpt>
      <trkpt lat="46.32814" lon="2.59324">
        <ele>270.62</ele>
        <time>2018-07-07T16:33:05.000Z</time>
      </trkpt>
      <trkpt lat="46.32811" lon="2.5931">
        <ele>272.04</ele>
        <time>2018-07-07T16:33:08.000Z</time>
      </trkpt>
      <trkpt lat="46.32808" lon="2.59296">
        <ele>272.82</ele>
        <time>2018-07-07T16:33:11.000Z</time>
      </trkpt>
      <trkpt lat="46.32805" lon="2.59283">
        <ele>272.76</ele>
        <time>2018-07-07T16:33:14.000Z</time>
      </trkpt>
      <trkpt lat="46.32801" lon="2.59269">
        <ele>273.53</ele>
        <time>2018-07-07T16:33:17.000Z</time>
      </trkpt>
      <trkpt lat="46.32799" lon="2.59254">
        <ele>274.19</ele>
        <time>2018-07-07T16:33:20.000Z</time>
      </trkpt>
      <trkpt lat="46.32797" lon="2.5924">
        <ele>275.63</ele>
        <time>2018-07-07T16:33:23.000Z</time>
      </trkpt>
      <trkpt lat="46.32792" lon="2.59228">
        <ele>277.81</ele>
        <time>2018-07-07T16:33:27.000Z</time>
      </trkpt>
      <trkpt lat="46.32785" lon="2.59218">
        <ele>279.53</ele>
        <time>2018-07-07T16:33:31.000Z</time>
      </trkpt>
      <trkpt lat="46.32776" lon="2.59207">
        <ele>282.36</ele>
        <time>2018-07-07T16:33:35.000Z</time>
      </trkpt>
      <trkpt lat="46.32771" lon="2.59195">
        <ele>283.19</ele>
        <time>2018-07-07T16:33:38.000Z</time>
      </trkpt>
      <trkpt lat="46.32766" lon="2.59183">
        <ele>284.44</ele>
        <time>2018-07-07T16:33:41.000Z</time>
      </trkpt>
      <trkpt lat="46.32762" lon="2.59171">
        <ele>284.81</ele>
        <time>2018-07-07T16:33:44.000Z</time>
      </trkpt>
      <trkpt lat="46.32758" lon="2.59158">
        <ele>285.06</ele>
        <time>2018-07-07T16:33:48.000Z</time>
      </trkpt>
      <trkpt lat="46.32754" lon="2.59145">
        <ele>285.46</ele>
        <time>2018-07-07T16:33:52.000Z</time>
      </trkpt>
      <trkpt lat="46.32749" lon="2.59133">
        <ele>287.4</ele>
        <time>2018-07-07T16:33:56.000Z</time>
      </trkpt>
      <trkpt lat="46.32743" lon="2.59119">
        <ele>290.51</ele>
        <time>2018-07-07T16:34:01.000Z</time>
      </trkpt>
      <trkpt lat="46.32741" lon="2.59106">
        <ele>291.86</ele>
        <time>2018-07-07T16:34:05.000Z</time>
      </trkpt>
      <trkpt lat="46.32734" lon="2.59093">
        <ele>292.18</ele>
        <time>2018-07-07T16:34:09.000Z</time>
      </trkpt>
      <trkpt lat="46.32725" lon="2.59083">
        <ele>292.72</ele>
        <time>2018-07-07T16:34:13.000Z</time>
      </trkpt>
      <trkpt lat="46.32719" lon="2.59073">
        <ele>292.14</ele>
        <time>2018-07-07T16:34:17.000Z</time>
      </trkpt>
      <trkpt lat="46.32713" lon="2.59062">
        <ele>292.88</ele>
        <time>2018-07-07T16:34:21.000Z</time>
      </trkpt>
      <trkpt lat="46.32706" lon="2.59053">
        <ele>293.87</ele>
        <time>2018-07-07T16:34:25.000Z</time>
      </trkpt>
      <trkpt lat="46.32699" lon="2.59041">
        <ele>294.71</ele>
        <time>2018-07-07T16:34:30.000Z</time>
      </trkpt>
      <trkpt lat="46.32695" lon="2.59028">
        <ele>295.63</ele>
        <time>2018-07-07T16:34:35.000Z</time>
      </trkpt>
      <trkpt lat="46.32692" lon="2.59015">
        <ele>296.86</ele>
        <time>2018-07-07T16:34:40.000Z</time>
      </trkpt>
      <trkpt lat="46.32687" lon="2.58999">
        <ele>297.71</ele>
        <time>2018-07-07T16:34:44.000Z</time>
      </trkpt>
      <trkpt lat="46.32682" lon="2.58986">
        <ele>298.89</ele>
        <time>2018-07-07T16:34:47.000Z</time>
      </trkpt>
      <trkpt lat="46.32678" lon="2.5897">
        <ele>299.51</ele>
        <time>2018-07-07T16:34:50.000Z</time>
      </trkpt>
      <trkpt lat="46.32673" lon="2.58956">
        <ele>300.4</ele>
        <time>2018-07-07T16:34:53.000Z</time>
      </trkpt>
      <trkpt lat="46.32669" lon="2.58941">
        <ele>301.43</ele>
        <time>2018-07-07T16:34:56.000Z</time>
      </trkpt>
      <trkpt lat="46.32664" lon="2.5893">
        <ele>302.19</ele>
        <time>2018-07-07T16:34:58.000Z</time>
      </trkpt>
      <trkpt lat="46.32657" lon="2.58921">
        <ele>302.35</ele>
        <time>2018-07-07T16:35:00.000Z</time>
      </trkpt>
      <trkpt lat="46.32649" lon="2.58911">
        <ele>303.03</ele>
        <time>2018-07-07T16:35:03.000Z</time>
      </trkpt>
      <trkpt lat="46.32644" lon="2.58901">
        <ele>304.69</ele>
        <time>2018-07-07T16:35:06.000Z</time>
      </trkpt>
      <trkpt lat="46.32633" lon="2.589">
        <ele>306.46</ele>
        <time>2018-07-07T16:35:10.000Z</time>
      </trkpt>
      <trkpt lat="46.32641" lon="2.5891">
        <ele>307.21</ele>
        <time>2018-07-07T16:35:14.000Z</time>
      </trkpt>
      <trkpt lat="46.32654" lon="2.58919">
        <ele>308.47</ele>
        <time>2018-07-07T16:35:16.000Z</time>
      </trkpt>
      <trkpt lat="46.32661" lon="2.58928">
        <ele>309.67</ele>
        <time>2018-07-07T16:35:17.000Z</time>
      </trkpt>
      <trkpt lat="46.32671" lon="2.58941">
        <ele>311.34</ele>
        <time>2018-07-07T16:35:19.000Z</time>
      </trkpt>
      <trkpt lat="46.32676" lon="2.58953">
        <ele>311.68</ele>
        <time>2018-07-07T16:35:21.000Z</time>
      </trkpt>
      <trkpt lat="46.32681" lon="2.58966">
        <ele>311.93</ele>
        <time>2018-07-07T16:35:23.000Z</time>
      </trkpt>
      <trkpt lat="46.32684" lon="2.58978">
        <ele>312.01</ele>
        <time>2018-07-07T16:35:25.000Z</time>
      </trkpt>
      <trkpt lat="46.32689" lon="2.58997">
        <ele>311.97</ele>
        <time>2018-07-07T16:35:27.000Z</time>
      </trkpt>
      <trkpt lat="46.32695" lon="2.59019">
        <ele>312.21</ele>
        <time>2018-07-07T16:35:29.000Z</time>
      </trkpt>
      <trkpt lat="46.327" lon="2.5903">
        <ele>312.26</ele>
        <time>2018-07-07T16:35:30.000Z</time>
      </trkpt>
      <trkpt lat="46.32707" lon="2.59043">
        <ele>312.05</ele>
        <time>2018-07-07T16:35:31.000Z</time>
      </trkpt>
      <trkpt lat="46.32715" lon="2.59056">
        <ele>311.89</ele>
        <time>2018-07-07T16:35:32.000Z</time>
      </trkpt>
      <trkpt lat="46.32723" lon="2.5907">
        <ele>311.51</ele>
        <time>2018-07-07T16:35:33.000Z</time>
      </trkpt>
      <trkpt lat="46.32732" lon="2.59085">
        <ele>311</ele>
        <time>2018-07-07T16:35:34.000Z</time>
      </trkpt>
      <trkpt lat="46.3274" lon="2.59101">
        <ele>310.42</ele>
        <time>2018-07-07T16:35:35.000Z</time>
      </trkpt>
      <trkpt lat="46.32747" lon="2.59119">
        <ele>309.53</ele>
        <time>2018-07-07T16:35:36.000Z</time>
      </trkpt>
      <trkpt lat="46.32753" lon="2.59137">
        <ele>309.09</ele>
        <time>2018-07-07T16:35:37.000Z</time>
      </trkpt>
      <trkpt lat="46.32761" lon="2.59156">
        <ele>308.73</ele>
        <time>2018-07-07T16:35:38.000Z</time>
      </trkpt>
      <trkpt lat="46.32769" lon="2.59175">
        <ele>307.89</ele>
        <time>2018-07-07T16:35:39.000Z</time>
      </trkpt>
      <trkpt lat="46.32777" lon="2.59195">
        <ele>306.85</ele>
        <time>2018-07-07T16:35:40.000Z</time>
      </trkpt>
      <trkpt lat="46.32784" lon="2.59213">
        <ele>305.94</ele>
        <time>2018-07-07T16:35:41.000Z</time>
      </trkpt>
      <trkpt lat="46.32791" lon="2.59232">
        <ele>304.85</ele>
        <time>2018-07-07T16:35:42.000Z</time>
      </trkpt>
      <trkpt lat="46.32797" lon="2.5925">
        <ele>304.33</ele>
        <time>2018-07-07T16:35:43.000Z</time>
      </trkpt>
      <trkpt lat="46.32803" lon="2.59269">
        <ele>303.77</ele>
        <time>2018-07-07T16:35:44.000Z</time>
      </trkpt>
      <trkpt lat="46.32808" lon="2.59289">
        <ele>302.85</ele>
        <time>2018-07-07T16:35:45.000Z</time>
      </trkpt>
      <trkpt lat="46.32814" lon="2.59308">
        <ele>301.99</ele>
        <time>2018-07-07T16:35:46.000Z</time>
      </trkpt>
      <trkpt lat="46.32818" lon="2.59328">
        <ele>301.26</ele>
        <time>2018-07-07T16:35:47.000Z</time>
      </trkpt>
      <trkpt lat="46.32821" lon="2.5935">
        <ele>300.31</ele>
        <time>2018-07-07T16:35:48.000Z</time>
      </trkpt>
      <trkpt lat="46.32823" lon="2.59371">
        <ele>298.72</ele>
        <time>2018-07-07T16:35:49.000Z</time>
      </trkpt>
      <trkpt lat="46.32826" lon="2.59392">
        <ele>297.55</ele>
        <time>2018-07-07T16:35:50.000Z</time>
      </trkpt>
      <trkpt lat="46.32829" lon="2.59413">
        <ele>297.04</ele>
        <time>2018-07-07T16:35:51.000Z</time>
      </trkpt>
      <trkpt lat="46.32835" lon="2.59434">
        <ele>295.95</ele>
        <time>2018-07-07T16:35:52.000Z</time>
      </trkpt>
      <trkpt lat="46.3284" lon="2.59454">
        <ele>295.09</ele>
        <time>2018-07-07T16:35:53.000Z</time>
      </trkpt>
      <trkpt lat="46.32846" lon="2.59475">
        <ele>294.42</ele>
        <time>2018-07-07T16:35:54.000Z</time>
      </trkpt>
      <trkpt lat="46.32851" lon="2.59495">
        <ele>293.68</ele>
        <time>2018-07-07T16:35:55.000Z</time>
      </trkpt>
      <trkpt lat="46.32856" lon="2.59515">
        <ele>292.82</ele>
        <time>2018-07-07T16:35:56.000Z</time>
      </trkpt>
      <trkpt lat="46.32861" lon="2.59534">
        <ele>291.86</ele>
        <time>2018-07-07T16:35:57.000Z</time>
      </trkpt>
      <trkpt lat="46.32865" lon="2.59551">
        <ele>291.33</ele>
        <time>2018-07-07T16:35:58.000Z</time>
      </trkpt>
      <trkpt lat="46.32869" lon="2.59567">
        <ele>290.77</ele>
        <time>2018-07-07T16:35:59.000Z</time>
      </trkpt>
      <trkpt lat="46.32874" lon="2.59579">
        <ele>290.12</ele>
        <time>2018-07-07T16:36:00.000Z</time>
      </trkpt>
      <trkpt lat="46.32877" lon="2.59592">
        <ele>289.65</ele>
        <time>2018-07-07T16:36:01.000Z</time>
      </trkpt>
      <trkpt lat="46.32881" lon="2.59605">
        <ele>288.98</ele>
        <time>2018-07-07T16:36:02.000Z</time>
      </trkpt>
      <trkpt lat="46.32887" lon="2.5963">
        <ele>287.31</ele>
        <time>2018-07-07T16:36:04.000Z</time>
      </trkpt>
      <trkpt lat="46.32888" lon="2.59653">
        <ele>284.61</ele>
        <time>2018-07-07T16:36:06.000Z</time>
      </trkpt>
      <trkpt lat="46.3288" lon="2.59671">
        <ele>282.56</ele>
        <time>2018-07-07T16:36:08.000Z</time>
      </trkpt>
      <trkpt lat="46.32869" lon="2.59681">
        <ele>280.98</ele>
        <time>2018-07-07T16:36:10.000Z</time>
      </trkpt>
      <trkpt lat="46.32861" lon="2.5969">
        <ele>278.7</ele>
        <time>2018-07-07T16:36:13.000Z</time>
      </trkpt>
      <trkpt lat="46.32858" lon="2.59703">
        <ele>276.84</ele>
        <time>2018-07-07T16:36:31.000Z</time>
      </trkpt>
      <trkpt lat="46.32864" lon="2.59716">
        <ele>276.28</ele>
        <time>2018-07-07T16:36:34.000Z</time>
      </trkpt>
      <trkpt lat="46.32874" lon="2.59727">
        <ele>274.38</ele>
        <time>2018-07-07T16:36:37.000Z</time>
      </trkpt>
      <trkpt lat="46.32884" lon="2.59738">
        <ele>273.5</ele>
        <time>2018-07-07T16:36:39.000Z</time>
      </trkpt>
      <trkpt lat="46.32892" lon="2.59749">
        <ele>273.25</ele>
        <time>2018-07-07T16:36:41.000Z</time>
      </trkpt>
      <trkpt lat="46.32901" lon="2.59761">
        <ele>273.13</ele>
        <time>2018-07-07T16:36:43.000Z</time>
      </trkpt>
      <trkpt lat="46.3291" lon="2.59774">
        <ele>272.49</ele>
        <time>2018-07-07T16:36:45.000Z</time>
      </trkpt>
      <trkpt lat="46.3292" lon="2.59787">
        <ele>271.21</ele>
        <time>2018-07-07T16:36:47.000Z</time>
      </trkpt>
      <trkpt lat="46.32929" lon="2.598">
        <ele>269.56</ele>
        <time>2018-07-07T16:36:49.000Z</time>
      </trkpt>
      <trkpt lat="46.32938" lon="2.59811">
        <ele>268.21</ele>
        <time>2018-07-07T16:36:51.000Z</time>
      </trkpt>
      <trkpt lat="46.32948" lon="2.59823">
        <ele>266.53</ele>
        <time>2018-07-07T16:36:53.000Z</time>
      </trkpt>
      <trkpt lat="46.32959" lon="2.59834">
        <ele>265.37</ele>
        <time>2018-07-07T16:36:55.000Z</time>
      </trkpt>
      <trkpt lat="46.32969" lon="2.59845">
        <ele>264.36</ele>
        <time>2018-07-07T16:36:57.000Z</time>
      </trkpt>
      <trkpt lat="46.3298" lon="2.59856">
        <ele>263.53</ele>
        <time>2018-07-07T16:36:59.000Z</time>
      </trkpt>
      <trkpt lat="46.32989" lon="2.59867">
        <ele>263.02</ele>
        <time>2018-07-07T16:37:01.000Z</time>
      </trkpt>
      <trkpt lat="46.32999" lon="2.59877">
        <ele>262.85</ele>
        <time>2018-07-07T16:37:03.000Z</time>
      </trkpt>
      <trkpt lat="46.33007" lon="2.59888">
        <ele>262.49</ele>
        <time>2018-07-07T16:37:05.000Z</time>
      </trkpt>
      <trkpt lat="46.33016" lon="2.59898">
        <ele>261.97</ele>
        <time>2018-07-07T16:37:07.000Z</time>
      </trkpt>
      <trkpt lat="46.33024" lon="2.59909">
        <ele>261.6</ele>
        <time>2018-07-07T16:37:09.000Z</time>
      </trkpt>
      <trkpt lat="46.33035" lon="2.59919">
        <ele>260.53</ele>
        <time>2018-07-07T16:37:11.000Z</time>
      </trkpt>
      <trkpt lat="46.33046" lon="2.59929">
        <ele>259.25</ele>
        <time>2018-07-07T16:37:13.000Z</time>
      </trkpt>
      <trkpt lat="46.33057" lon="2.5994">
        <ele>257.85</ele>
        <time>2018-07-07T16:37:15.000Z</time>
      </trkpt>
      <trkpt lat="46.33067" lon="2.59953">
        <ele>256.45</ele>
        <time>2018-07-07T16:37:17.000Z</time>
      </trkpt>
      <trkpt lat="46.33077" lon="2.59965">
        <ele>255.89</ele>
        <time>2018-07-07T16:37:19.000Z</time>
      </trkpt>
      <trkpt lat="46.33086" lon="2.59976">
        <ele>255.44</ele>
        <time>2018-07-07T16:37:21.000Z</time>
      </trkpt>
      <trkpt lat="46.33094" lon="2.59988">
        <ele>254.74</ele>
        <time>2018-07-07T16:37:23.000Z</time>
      </trkpt>
      <trkpt lat="46.33099" lon="2.60003">
        <ele>254.19</ele>
        <time>2018-07-07T16:37:25.000Z</time>
      </trkpt>
      <trkpt lat="46.33097" lon="2.60018">
        <ele>254.58</ele>
        <time>2018-07-07T16:37:27.000Z</time>
      </trkpt>
      <trkpt lat="46.33096" lon="2.60032">
        <ele>255.34</ele>
        <time>2018-07-07T16:37:29.000Z</time>
      </trkpt>
      <trkpt lat="46.33106" lon="2.60042">
        <ele>255.38</ele>
        <time>2018-07-07T16:37:31.000Z</time>
      </trkpt>
      <trkpt lat="46.33119" lon="2.60051">
        <ele>254.45</ele>
        <time>2018-07-07T16:37:33.000Z</time>
      </trkpt>
      <trkpt lat="46.33131" lon="2.6006">
        <ele>254.27</ele>
        <time>2018-07-07T16:37:35.000Z</time>
      </trkpt>
      <trkpt lat="46.33138" lon="2.60076">
        <ele>254.73</ele>
        <time>2018-07-07T16:37:37.000Z</time>
      </trkpt>
      <trkpt lat="46.33144" lon="2.60093">
        <ele>255.63</ele>
        <time>2018-07-07T16:37:39.000Z</time>
      </trkpt>
      <trkpt lat="46.33149" lon="2.60109">
        <ele>256.74</ele>
        <time>2018-07-07T16:37:41.000Z</time>
      </trkpt>
      <trkpt lat="46.33155" lon="2.60125">
        <ele>257.53</ele>
        <time>2018-07-07T16:37:43.000Z</time>
      </trkpt>
      <trkpt lat="46.33161" lon="2.60141">
        <ele>257.94</ele>
        <time>2018-07-07T16:37:45.000Z</time>
      </trkpt>
      <trkpt lat="46.33168" lon="2.60156">
        <ele>258.22</ele>
        <time>2018-07-07T16:37:47.000Z</time>
      </trkpt>
      <trkpt lat="46.33176" lon="2.60173">
        <ele>258.46</ele>
        <time>2018-07-07T16:37:49.000Z</time>
      </trkpt>
      <trkpt lat="46.33183" lon="2.60189">
        <ele>258.53</ele>
        <time>2018-07-07T16:37:51.000Z</time>
      </trkpt>
      <trkpt lat="46.33191" lon="2.60207">
        <ele>258.88</ele>
        <time>2018-07-07T16:37:53.000Z</time>
      </trkpt>
      <trkpt lat="46.33197" lon="2.60225">
        <ele>259.18</ele>
        <time>2018-07-07T16:37:55.000Z</time>
      </trkpt>
      <trkpt lat="46.33204" lon="2.6024">
        <ele>259.35</ele>
        <time>2018-07-07T16:37:57.000Z</time>
      </trkpt>
      <trkpt lat="46.33211" lon="2.60255">
        <ele>259.46</ele>
        <time>2018-07-07T16:37:59.000Z</time>
      </trkpt>
      <trkpt lat="46.33217" lon="2.6027">
        <ele>259.25</ele>
        <time>2018-07-07T16:38:01.000Z</time>
      </trkpt>
      <trkpt lat="46.33222" lon="2.60284">
        <ele>259.08</ele>
        <time>2018-07-07T16:38:03.000Z</time>
      </trkpt>
      <trkpt lat="46.33228" lon="2.60298">
        <ele>259.11</ele>
        <time>2018-07-07T16:38:05.000Z</time>
      </trkpt>
      <trkpt lat="46.33235" lon="2.60313">
        <ele>259.35</ele>
        <time>2018-07-07T16:38:07.000Z</time>
      </trkpt>
      <trkpt lat="46.33244" lon="2.6033">
        <ele>259.55</ele>
        <time>2018-07-07T16:38:09.000Z</time>
      </trkpt>
      <trkpt lat="46.33251" lon="2.60345">
        <ele>260.37</ele>
        <time>2018-07-07T16:38:11.000Z</time>
      </trkpt>
      <trkpt lat="46.3326" lon="2.6036">
        <ele>261.14</ele>
        <time>2018-07-07T16:38:13.000Z</time>
      </trkpt>
      <trkpt lat="46.33268" lon="2.60373">
        <ele>260.92</ele>
        <time>2018-07-07T16:38:15.000Z</time>
      </trkpt>
      <trkpt lat="46.33277" lon="2.60382">
        <ele>261.09</ele>
        <time>2018-07-07T16:38:17.000Z</time>
      </trkpt>
      <trkpt lat="46.33286" lon="2.60383">
        <ele>261.11</ele>
        <time>2018-07-07T16:38:19.000Z</time>
      </trkpt>
      <trkpt lat="46.33294" lon="2.60387">
        <ele>261.18</ele>
        <time>2018-07-07T16:38:21.000Z</time>
      </trkpt>
      <trkpt lat="46.33307" lon="2.60387">
        <ele>262.27</ele>
        <time>2018-07-07T16:38:24.000Z</time>
      </trkpt>
      <trkpt lat="46.33318" lon="2.6038">
        <ele>261.86</ele>
        <time>2018-07-07T16:38:26.000Z</time>
      </trkpt>
      <trkpt lat="46.33329" lon="2.60377">
        <ele>261.17</ele>
        <time>2018-07-07T16:38:28.000Z</time>
      </trkpt>
      <trkpt lat="46.3334" lon="2.60377">
        <ele>260.91</ele>
        <time>2018-07-07T16:38:30.000Z</time>
      </trkpt>
      <trkpt lat="46.33351" lon="2.60379">
        <ele>260.92</ele>
        <time>2018-07-07T16:38:32.000Z</time>
      </trkpt>
      <trkpt lat="46.33364" lon="2.60383">
        <ele>260.74</ele>
        <time>2018-07-07T16:38:34.000Z</time>
      </trkpt>
      <trkpt lat="46.33377" lon="2.60385">
        <ele>260.53</ele>
        <time>2018-07-07T16:38:36.000Z</time>
      </trkpt>
      <trkpt lat="46.33386" lon="2.60388">
        <ele>260.29</ele>
        <time>2018-07-07T16:38:38.000Z</time>
      </trkpt>
      <trkpt lat="46.33393" lon="2.60397">
        <ele>259.39</ele>
        <time>2018-07-07T16:38:43.000Z</time>
      </trkpt>
      <trkpt lat="46.33402" lon="2.60394">
        <ele>257.51</ele>
        <time>2018-07-07T16:38:47.000Z</time>
      </trkpt>
      <trkpt lat="46.33408" lon="2.60382">
        <ele>257.02</ele>
        <time>2018-07-07T16:38:49.000Z</time>
      </trkpt>
      <trkpt lat="46.33415" lon="2.6037">
        <ele>255.87</ele>
        <time>2018-07-07T16:38:51.000Z</time>
      </trkpt>
      <trkpt lat="46.33426" lon="2.60364">
        <ele>254.56</ele>
        <time>2018-07-07T16:38:53.000Z</time>
      </trkpt>
      <trkpt lat="46.33437" lon="2.6036">
        <ele>254.35</ele>
        <time>2018-07-07T16:38:55.000Z</time>
      </trkpt>
      <trkpt lat="46.33448" lon="2.60353">
        <ele>253.83</ele>
        <time>2018-07-07T16:38:57.000Z</time>
      </trkpt>
      <trkpt lat="46.33461" lon="2.60346">
        <ele>253.2</ele>
        <time>2018-07-07T16:38:59.000Z</time>
      </trkpt>
      <trkpt lat="46.33474" lon="2.6034">
        <ele>251.95</ele>
        <time>2018-07-07T16:39:01.000Z</time>
      </trkpt>
      <trkpt lat="46.33485" lon="2.60335">
        <ele>250.94</ele>
        <time>2018-07-07T16:39:03.000Z</time>
      </trkpt>
      <trkpt lat="46.33498" lon="2.60333">
        <ele>250.42</ele>
        <time>2018-07-07T16:39:05.000Z</time>
      </trkpt>
      <trkpt lat="46.3351" lon="2.60329">
        <ele>249.7</ele>
        <time>2018-07-07T16:39:07.000Z</time>
      </trkpt>
      <trkpt lat="46.3352" lon="2.60326">
        <ele>248.39</ele>
        <time>2018-07-07T16:39:09.000Z</time>
      </trkpt>
      <trkpt lat="46.3353" lon="2.60325">
        <ele>247.61</ele>
        <time>2018-07-07T16:39:11.000Z</time>
      </trkpt>
      <trkpt lat="46.33539" lon="2.6032">
        <ele>246.77</ele>
        <time>2018-07-07T16:39:13.000Z</time>
      </trkpt>
      <trkpt lat="46.33551" lon="2.60314">
        <ele>246.66</ele>
        <time>2018-07-07T16:39:16.000Z</time>
      </trkpt>
      <trkpt lat="46.3356" lon="2.6031">
        <ele>246.33</ele>
        <time>2018-07-07T16:39:18.000Z</time>
      </trkpt>
      <trkpt lat="46.33571" lon="2.60306">
        <ele>245.46</ele>
        <time>2018-07-07T16:39:20.000Z</time>
      </trkpt>
      <trkpt lat="46.33579" lon="2.60302">
        <ele>245.2</ele>
        <time>2018-07-07T16:39:22.000Z</time>
      </trkpt>
      <trkpt lat="46.33589" lon="2.60296">
        <ele>244.85</ele>
        <time>2018-07-07T16:39:25.000Z</time>
      </trkpt>
      <trkpt lat="46.33598" lon="2.60294">
        <ele>248.94</ele>
        <time>2018-07-07T16:39:42.000Z</time>
      </trkpt>
      <trkpt lat="46.33611" lon="2.60291">
        <ele>250.41</ele>
        <time>2018-07-07T16:39:44.000Z</time>
      </trkpt>
      <trkpt lat="46.33622" lon="2.60287">
        <ele>251.38</ele>
        <time>2018-07-07T16:39:46.000Z</time>
      </trkpt>
      <trkpt lat="46.33631" lon="2.6028">
        <ele>252.08</ele>
        <time>2018-07-07T16:39:48.000Z</time>
      </trkpt>
      <trkpt lat="46.3364" lon="2.60272">
        <ele>252.97</ele>
        <time>2018-07-07T16:39:50.000Z</time>
      </trkpt>
      <trkpt lat="46.33652" lon="2.60269">
        <ele>253.55</ele>
        <time>2018-07-07T16:39:52.000Z</time>
      </trkpt>
      <trkpt lat="46.33663" lon="2.60265">
        <ele>254.49</ele>
        <time>2018-07-07T16:39:54.000Z</time>
      </trkpt>
      <trkpt lat="46.33676" lon="2.6026">
        <ele>255.72</ele>
        <time>2018-07-07T16:39:56.000Z</time>
      </trkpt>
      <trkpt lat="46.33688" lon="2.60254">
        <ele>257.26</ele>
        <time>2018-07-07T16:39:58.000Z</time>
      </trkpt>
      <trkpt lat="46.33701" lon="2.60251">
        <ele>258.27</ele>
        <time>2018-07-07T16:40:00.000Z</time>
      </trkpt>
      <trkpt lat="46.33712" lon="2.60248">
        <ele>258.62</ele>
        <time>2018-07-07T16:40:02.000Z</time>
      </trkpt>
      <trkpt lat="46.33722" lon="2.60244">
        <ele>258.12</ele>
        <time>2018-07-07T16:40:04.000Z</time>
      </trkpt>
      <trkpt lat="46.33732" lon="2.60239">
        <ele>257.73</ele>
        <time>2018-07-07T16:40:06.000Z</time>
      </trkpt>
      <trkpt lat="46.33744" lon="2.60237">
        <ele>256.4</ele>
        <time>2018-07-07T16:40:08.000Z</time>
      </trkpt>
      <trkpt lat="46.33754" lon="2.60234">
        <ele>255.52</ele>
        <time>2018-07-07T16:40:10.000Z</time>
      </trkpt>
      <trkpt lat="46.33766" lon="2.6023">
        <ele>255.58</ele>
        <time>2018-07-07T16:40:12.000Z</time>
      </trkpt>
      <trkpt lat="46.33779" lon="2.60226">
        <ele>255.45</ele>
        <time>2018-07-07T16:40:14.000Z</time>
      </trkpt>
      <trkpt lat="46.33789" lon="2.60225">
        <ele>255.7</ele>
        <time>2018-07-07T16:40:16.000Z</time>
      </trkpt>
      <trkpt lat="46.33802" lon="2.60228">
        <ele>255.55</ele>
        <time>2018-07-07T16:40:18.000Z</time>
      </trkpt>
      <trkpt lat="46.33811" lon="2.60237">
        <ele>255.32</ele>
        <time>2018-07-07T16:40:20.000Z</time>
      </trkpt>
      <trkpt lat="46.33818" lon="2.60246">
        <ele>256</ele>
        <time>2018-07-07T16:40:22.000Z</time>
      </trkpt>
      <trkpt lat="46.33827" lon="2.60254">
        <ele>257.06</ele>
        <time>2018-07-07T16:40:25.000Z</time>
      </trkpt>
      <trkpt lat="46.33833" lon="2.60266">
        <ele>259.05</ele>
        <time>2018-07-07T16:40:49.000Z</time>
      </trkpt>
      <trkpt lat="46.33836" lon="2.60282">
        <ele>260.61</ele>
        <time>2018-07-07T16:40:52.000Z</time>
      </trkpt>
      <trkpt lat="46.33833" lon="2.60297">
        <ele>263.76</ele>
        <time>2018-07-07T16:40:56.000Z</time>
      </trkpt>
      <trkpt lat="46.33826" lon="2.60311">
        <ele>265.57</ele>
        <time>2018-07-07T16:40:59.000Z</time>
      </trkpt>
      <trkpt lat="46.33822" lon="2.60326">
        <ele>266.84</ele>
        <time>2018-07-07T16:41:03.000Z</time>
      </trkpt>
      <trkpt lat="46.33821" lon="2.60341">
        <ele>268.1</ele>
        <time>2018-07-07T16:41:06.000Z</time>
      </trkpt>
      <trkpt lat="46.33822" lon="2.60362">
        <ele>269.79</ele>
        <time>2018-07-07T16:41:09.000Z</time>
      </trkpt>
      <trkpt lat="46.33823" lon="2.6038">
        <ele>270.69</ele>
        <time>2018-07-07T16:41:11.000Z</time>
      </trkpt>
      <trkpt lat="46.33823" lon="2.60399">
        <ele>271.25</ele>
        <time>2018-07-07T16:41:13.000Z</time>
      </trkpt>
      <trkpt lat="46.33823" lon="2.60416">
        <ele>272.01</ele>
        <time>2018-07-07T16:41:15.000Z</time>
      </trkpt>
      <trkpt lat="46.33821" lon="2.6043">
        <ele>272.72</ele>
        <time>2018-07-07T16:41:17.000Z</time>
      </trkpt>
      <trkpt lat="46.33818" lon="2.60447">
        <ele>273.84</ele>
        <time>2018-07-07T16:41:20.000Z</time>
      </trkpt>
      <trkpt lat="46.33816" lon="2.6046">
        <ele>273.7</ele>
        <time>2018-07-07T16:41:23.000Z</time>
      </trkpt>
      <trkpt lat="46.33816" lon="2.60473">
        <ele>273.83</ele>
        <time>2018-07-07T16:41:28.000Z</time>
      </trkpt>
      <trkpt lat="46.33811" lon="2.60487">
        <ele>275.23</ele>
        <time>2018-07-07T16:41:32.000Z</time>
      </trkpt>
      <trkpt lat="46.33807" lon="2.60504">
        <ele>275.4</ele>
        <time>2018-07-07T16:41:35.000Z</time>
      </trkpt>
      <trkpt lat="46.33805" lon="2.60522">
        <ele>274.76</ele>
        <time>2018-07-07T16:41:37.000Z</time>
      </trkpt>
      <trkpt lat="46.33806" lon="2.60542">
        <ele>274.51</ele>
        <time>2018-07-07T16:41:39.000Z</time>
      </trkpt>
      <trkpt lat="46.33808" lon="2.60561">
        <ele>274.97</ele>
        <time>2018-07-07T16:41:41.000Z</time>
      </trkpt>
      <trkpt lat="46.33811" lon="2.6058">
        <ele>275.59</ele>
        <time>2018-07-07T16:41:43.000Z</time>
      </trkpt>
      <trkpt lat="46.33815" lon="2.60597">
        <ele>276.7</ele>
        <time>2018-07-07T16:41:45.000Z</time>
      </trkpt>
      <trkpt lat="46.33822" lon="2.60615">
        <ele>277.47</ele>
        <time>2018-07-07T16:41:47.000Z</time>
      </trkpt>
      <trkpt lat="46.3383" lon="2.60632">
        <ele>278.17</ele>
        <time>2018-07-07T16:41:49.000Z</time>
      </trkpt>
      <trkpt lat="46.33839" lon="2.6065">
        <ele>279.3</ele>
        <time>2018-07-07T16:41:51.000Z</time>
      </trkpt>
      <trkpt lat="46.33849" lon="2.60667">
        <ele>280.57</ele>
        <time>2018-07-07T16:41:53.000Z</time>
      </trkpt>
      <trkpt lat="46.3386" lon="2.60684">
        <ele>282.35</ele>
        <time>2018-07-07T16:41:55.000Z</time>
      </trkpt>
      <trkpt lat="46.33871" lon="2.60698">
        <ele>283.86</ele>
        <time>2018-07-07T16:41:57.000Z</time>
      </trkpt>
      <trkpt lat="46.33883" lon="2.6071">
        <ele>281.88</ele>
        <time>2018-07-07T16:41:59.000Z</time>
      </trkpt>
      <trkpt lat="46.33894" lon="2.60716">
        <ele>281.2</ele>
        <time>2018-07-07T16:42:01.000Z</time>
      </trkpt>
      <trkpt lat="46.33904" lon="2.60723">
        <ele>280.1</ele>
        <time>2018-07-07T16:42:03.000Z</time>
      </trkpt>
      <trkpt lat="46.33914" lon="2.60729">
        <ele>279.27</ele>
        <time>2018-07-07T16:42:05.000Z</time>
      </trkpt>
      <trkpt lat="46.33924" lon="2.60736">
        <ele>278.12</ele>
        <time>2018-07-07T16:42:07.000Z</time>
      </trkpt>
      <trkpt lat="46.33934" lon="2.60742">
        <ele>277.12</ele>
        <time>2018-07-07T16:42:09.000Z</time>
      </trkpt>
      <trkpt lat="46.33944" lon="2.60747">
        <ele>277.28</ele>
        <time>2018-07-07T16:42:11.000Z</time>
      </trkpt>
      <trkpt lat="46.33954" lon="2.60754">
        <ele>277.5</ele>
        <time>2018-07-07T16:42:13.000Z</time>
      </trkpt>
      <trkpt lat="46.33965" lon="2.6076">
        <ele>277.54</ele>
        <time>2018-07-07T16:42:15.000Z</time>
      </trkpt>
      <trkpt lat="46.33977" lon="2.60764">
        <ele>277.69</ele>
        <time>2018-07-07T16:42:17.000Z</time>
      </trkpt>
      <trkpt lat="46.33988" lon="2.60766">
        <ele>277.23</ele>
        <time>2018-07-07T16:42:19.000Z</time>
      </trkpt>
      <trkpt lat="46.33999" lon="2.60768">
        <ele>275.7</ele>
        <time>2018-07-07T16:42:21.000Z</time>
      </trkpt>
      <trkpt lat="46.34011" lon="2.60768">
        <ele>274.3</ele>
        <time>2018-07-07T16:42:23.000Z</time>
      </trkpt>
      <trkpt lat="46.34023" lon="2.60768">
        <ele>273.71</ele>
        <time>2018-07-07T16:42:25.000Z</time>
      </trkpt>
      <trkpt lat="46.34034" lon="2.60767">
        <ele>272.29</ele>
        <time>2018-07-07T16:42:27.000Z</time>
      </trkpt>
      <trkpt lat="46.34044" lon="2.60767">
        <ele>270.91</ele>
        <time>2018-07-07T16:42:29.000Z</time>
      </trkpt>
      <trkpt lat="46.34055" lon="2.60766">
        <ele>270.3</ele>
        <time>2018-07-07T16:42:31.000Z</time>
      </trkpt>
      <trkpt lat="46.34064" lon="2.60765">
        <ele>270.46</ele>
        <time>2018-07-07T16:42:33.000Z</time>
      </trkpt>
      <trkpt lat="46.34074" lon="2.60762">
        <ele>270.65</ele>
        <time>2018-07-07T16:42:36.000Z</time>
      </trkpt>
      <trkpt lat="46.34085" lon="2.60762">
        <ele>270.67</ele>
        <time>2018-07-07T16:42:39.000Z</time>
      </trkpt>
      <trkpt lat="46.34094" lon="2.6076">
        <ele>270.64</ele>
        <time>2018-07-07T16:42:41.000Z</time>
      </trkpt>
      <trkpt lat="46.34103" lon="2.60759">
        <ele>270.01</ele>
        <time>2018-07-07T16:42:43.000Z</time>
      </trkpt>
      <trkpt lat="46.34114" lon="2.60754">
        <ele>270.8</ele>
        <time>2018-07-07T16:42:45.000Z</time>
      </trkpt>
      <trkpt lat="46.34126" lon="2.60745">
        <ele>271.03</ele>
        <time>2018-07-07T16:42:47.000Z</time>
      </trkpt>
      <trkpt lat="46.34135" lon="2.60737">
        <ele>270.99</ele>
        <time>2018-07-07T16:42:49.000Z</time>
      </trkpt>
      <trkpt lat="46.34146" lon="2.60732">
        <ele>271.03</ele>
        <time>2018-07-07T16:42:51.000Z</time>
      </trkpt>
      <trkpt lat="46.34157" lon="2.60729">
        <ele>270.77</ele>
        <time>2018-07-07T16:42:54.000Z</time>
      </trkpt>
      <trkpt lat="46.34168" lon="2.60723">
        <ele>271.14</ele>
        <time>2018-07-07T16:42:58.000Z</time>
      </trkpt>
      <trkpt lat="46.34177" lon="2.6072">
        <ele>271.11</ele>
        <time>2018-07-07T16:43:01.000Z</time>
      </trkpt>
      <trkpt lat="46.34187" lon="2.60715">
        <ele>271.43</ele>
        <time>2018-07-07T16:43:06.000Z</time>
      </trkpt>
      <trkpt lat="46.34197" lon="2.60713">
        <ele>271.69</ele>
        <time>2018-07-07T16:43:10.000Z</time>
      </trkpt>
      <trkpt lat="46.34208" lon="2.60714">
        <ele>272.35</ele>
        <time>2018-07-07T16:43:14.000Z</time>
      </trkpt>
      <trkpt lat="46.34219" lon="2.60717">
        <ele>272.24</ele>
        <time>2018-07-07T16:43:16.000Z</time>
      </trkpt>
      <trkpt lat="46.34231" lon="2.60729">
        <ele>273.28</ele>
        <time>2018-07-07T16:43:18.000Z</time>
      </trkpt>
      <trkpt lat="46.34241" lon="2.60737">
        <ele>274.73</ele>
        <time>2018-07-07T16:43:21.000Z</time>
      </trkpt>
      <trkpt lat="46.34248" lon="2.60747">
        <ele>275.37</ele>
        <time>2018-07-07T16:43:25.000Z</time>
      </trkpt>
      <trkpt lat="46.34255" lon="2.60763">
        <ele>275.44</ele>
        <time>2018-07-07T16:43:28.000Z</time>
      </trkpt>
      <trkpt lat="46.34256" lon="2.60784">
        <ele>277.32</ele>
        <time>2018-07-07T16:43:31.000Z</time>
      </trkpt>
      <trkpt lat="46.34255" lon="2.608">
        <ele>279.77</ele>
        <time>2018-07-07T16:43:33.000Z</time>
      </trkpt>
      <trkpt lat="46.34259" lon="2.60815">
        <ele>282.24</ele>
        <time>2018-07-07T16:43:35.000Z</time>
      </trkpt>
      <trkpt lat="46.34266" lon="2.60827">
        <ele>284.37</ele>
        <time>2018-07-07T16:43:39.000Z</time>
      </trkpt>
      <trkpt lat="46.34272" lon="2.60842">
        <ele>285.59</ele>
        <time>2018-07-07T16:43:43.000Z</time>
      </trkpt>
      <trkpt lat="46.34277" lon="2.6086">
        <ele>286.74</ele>
        <time>2018-07-07T16:43:46.000Z</time>
      </trkpt>
      <trkpt lat="46.34283" lon="2.60875">
        <ele>287.98</ele>
        <time>2018-07-07T16:43:49.000Z</time>
      </trkpt>
      <trkpt lat="46.34287" lon="2.60892">
        <ele>290</ele>
        <time>2018-07-07T16:43:52.000Z</time>
      </trkpt>
      <trkpt lat="46.3429" lon="2.60905">
        <ele>290.29</ele>
        <time>2018-07-07T16:43:54.000Z</time>
      </trkpt>
      <trkpt lat="46.34295" lon="2.60917">
        <ele>289.5</ele>
        <time>2018-07-07T16:43:56.000Z</time>
      </trkpt>
      <trkpt lat="46.34299" lon="2.6093">
        <ele>288.79</ele>
        <time>2018-07-07T16:43:58.000Z</time>
      </trkpt>
      <trkpt lat="46.34303" lon="2.60942">
        <ele>289.05</ele>
        <time>2018-07-07T16:44:00.000Z</time>
      </trkpt>
      <trkpt lat="46.34306" lon="2.60955">
        <ele>289.46</ele>
        <time>2018-07-07T16:44:02.000Z</time>
      </trkpt>
      <trkpt lat="46.34311" lon="2.6097">
        <ele>291.34</ele>
        <time>2018-07-07T16:44:05.000Z</time>
      </trkpt>
      <trkpt lat="46.34314" lon="2.60986">
        <ele>292.53</ele>
        <time>2018-07-07T16:44:08.000Z</time>
      </trkpt>
      <trkpt lat="46.34319" lon="2.60999">
        <ele>293.07</ele>
        <time>2018-07-07T16:44:10.000Z</time>
      </trkpt>
      <trkpt lat="46.34323" lon="2.61012">
        <ele>293.34</ele>
        <time>2018-07-07T16:44:12.000Z</time>
      </trkpt>
      <trkpt lat="46.34327" lon="2.61025">
        <ele>294.01</ele>
        <time>2018-07-07T16:44:14.000Z</time>
      </trkpt>
      <trkpt lat="46.3433" lon="2.61037">
        <ele>293.7</ele>
        <time>2018-07-07T16:44:16.000Z</time>
      </trkpt>
      <trkpt lat="46.34335" lon="2.61054">
        <ele>292.98</ele>
        <time>2018-07-07T16:44:19.000Z</time>
      </trkpt>
      <trkpt lat="46.34337" lon="2.61073">
        <ele>292.43</ele>
        <time>2018-07-07T16:44:22.000Z</time>
      </trkpt>
      <trkpt lat="46.3434" lon="2.61087">
        <ele>290.9</ele>
        <time>2018-07-07T16:44:24.000Z</time>
      </trkpt>
      <trkpt lat="46.34342" lon="2.61101">
        <ele>291.1</ele>
        <time>2018-07-07T16:44:26.000Z</time>
      </trkpt>
      <trkpt lat="46.34346" lon="2.61114">
        <ele>291.19</ele>
        <time>2018-07-07T16:44:28.000Z</time>
      </trkpt>
      <trkpt lat="46.34349" lon="2.61126">
        <ele>291.28</ele>
        <time>2018-07-07T16:44:30.000Z</time>
      </trkpt>
      <trkpt lat="46.34354" lon="2.61144">
        <ele>291.66</ele>
        <time>2018-07-07T16:44:33.000Z</time>
      </trkpt>
      <trkpt lat="46.34359" lon="2.61159">
        <ele>291.71</ele>
        <time>2018-07-07T16:44:35.000Z</time>
      </trkpt>
      <trkpt lat="46.34364" lon="2.61174">
        <ele>291.78</ele>
        <time>2018-07-07T16:44:37.000Z</time>
      </trkpt>
      <trkpt lat="46.34369" lon="2.61187">
        <ele>292.51</ele>
        <time>2018-07-07T16:44:39.000Z</time>
      </trkpt>
      <trkpt lat="46.34372" lon="2.61199">
        <ele>293.13</ele>
        <time>2018-07-07T16:44:41.000Z</time>
      </trkpt>
      <trkpt lat="46.34377" lon="2.61216">
        <ele>294.02</ele>
        <time>2018-07-07T16:44:44.000Z</time>
      </trkpt>
      <trkpt lat="46.3438" lon="2.61233">
        <ele>294.15</ele>
        <time>2018-07-07T16:44:47.000Z</time>
      </trkpt>
      <trkpt lat="46.34383" lon="2.61247">
        <ele>294.4</ele>
        <time>2018-07-07T16:44:49.000Z</time>
      </trkpt>
      <trkpt lat="46.34386" lon="2.6126">
        <ele>293.93</ele>
        <time>2018-07-07T16:44:51.000Z</time>
      </trkpt>
      <trkpt lat="46.3439" lon="2.61273">
        <ele>293.75</ele>
        <time>2018-07-07T16:44:53.000Z</time>
      </trkpt>
      <trkpt lat="46.34394" lon="2.61285">
        <ele>293.98</ele>
        <time>2018-07-07T16:44:55.000Z</time>
      </trkpt>
      <trkpt lat="46.34399" lon="2.61303">
        <ele>294.75</ele>
        <time>2018-07-07T16:44:58.000Z</time>
      </trkpt>
      <trkpt lat="46.34403" lon="2.61315">
        <ele>295.27</ele>
        <time>2018-07-07T16:45:00.000Z</time>
      </trkpt>
      <trkpt lat="46.34407" lon="2.61329">
        <ele>295.72</ele>
        <time>2018-07-07T16:45:02.000Z</time>
      </trkpt>
      <trkpt lat="46.34411" lon="2.61342">
        <ele>296.56</ele>
        <time>2018-07-07T16:45:04.000Z</time>
      </trkpt>
      <trkpt lat="46.34415" lon="2.61356">
        <ele>297.71</ele>
        <time>2018-07-07T16:45:07.000Z</time>
      </trkpt>
      <trkpt lat="46.3442" lon="2.6137">
        <ele>299.1</ele>
        <time>2018-07-07T16:45:10.000Z</time>
      </trkpt>
      <trkpt lat="46.34426" lon="2.61386">
        <ele>300.36</ele>
        <time>2018-07-07T16:45:13.000Z</time>
      </trkpt>
      <trkpt lat="46.3443" lon="2.61399">
        <ele>300.71</ele>
        <time>2018-07-07T16:45:15.000Z</time>
      </trkpt>
      <trkpt lat="46.34435" lon="2.61411">
        <ele>301.3</ele>
        <time>2018-07-07T16:45:17.000Z</time>
      </trkpt>
      <trkpt lat="46.34441" lon="2.61429">
        <ele>302.13</ele>
        <time>2018-07-07T16:45:20.000Z</time>
      </trkpt>
      <trkpt lat="46.34445" lon="2.61445">
        <ele>302.99</ele>
        <time>2018-07-07T16:45:23.000Z</time>
      </trkpt>
      <trkpt lat="46.3445" lon="2.61457">
        <ele>302.77</ele>
        <time>2018-07-07T16:45:25.000Z</time>
      </trkpt>
      <trkpt lat="46.34456" lon="2.61473">
        <ele>302.77</ele>
        <time>2018-07-07T16:45:28.000Z</time>
      </trkpt>
      <trkpt lat="46.34459" lon="2.61485">
        <ele>302.34</ele>
        <time>2018-07-07T16:45:30.000Z</time>
      </trkpt>
      <trkpt lat="46.34463" lon="2.61502">
        <ele>302.27</ele>
        <time>2018-07-07T16:45:33.000Z</time>
      </trkpt>
      <trkpt lat="46.34467" lon="2.61516">
        <ele>302.51</ele>
        <time>2018-07-07T16:45:36.000Z</time>
      </trkpt>
      <trkpt lat="46.34469" lon="2.61529">
        <ele>303.79</ele>
        <time>2018-07-07T16:45:39.000Z</time>
      </trkpt>
      <trkpt lat="46.34473" lon="2.61545">
        <ele>304.62</ele>
        <time>2018-07-07T16:45:42.000Z</time>
      </trkpt>
      <trkpt lat="46.34478" lon="2.61558">
        <ele>304.79</ele>
        <time>2018-07-07T16:45:44.000Z</time>
      </trkpt>
      <trkpt lat="46.34481" lon="2.61572">
        <ele>305.18</ele>
        <time>2018-07-07T16:45:46.000Z</time>
      </trkpt>
      <trkpt lat="46.34485" lon="2.61585">
        <ele>305.65</ele>
        <time>2018-07-07T16:45:48.000Z</time>
      </trkpt>
      <trkpt lat="46.34488" lon="2.61603">
        <ele>306.87</ele>
        <time>2018-07-07T16:45:51.000Z</time>
      </trkpt>
      <trkpt lat="46.34491" lon="2.6162">
        <ele>308.75</ele>
        <time>2018-07-07T16:45:54.000Z</time>
      </trkpt>
      <trkpt lat="46.34492" lon="2.61638">
        <ele>310.29</ele>
        <time>2018-07-07T16:45:57.000Z</time>
      </trkpt>
      <trkpt lat="46.34493" lon="2.61653">
        <ele>311.53</ele>
        <time>2018-07-07T16:46:00.000Z</time>
      </trkpt>
      <trkpt lat="46.34495" lon="2.61669">
        <ele>312.51</ele>
        <time>2018-07-07T16:46:03.000Z</time>
      </trkpt>
      <trkpt lat="46.34496" lon="2.61687">
        <ele>312.57</ele>
        <time>2018-07-07T16:46:06.000Z</time>
      </trkpt>
      <trkpt lat="46.34498" lon="2.617">
        <ele>312.14</ele>
        <time>2018-07-07T16:46:08.000Z</time>
      </trkpt>
      <trkpt lat="46.345" lon="2.61715">
        <ele>311.84</ele>
        <time>2018-07-07T16:46:10.000Z</time>
      </trkpt>
      <trkpt lat="46.34502" lon="2.61729">
        <ele>312.01</ele>
        <time>2018-07-07T16:46:12.000Z</time>
      </trkpt>
      <trkpt lat="46.34504" lon="2.61744">
        <ele>312.05</ele>
        <time>2018-07-07T16:46:14.000Z</time>
      </trkpt>
      <trkpt lat="46.34505" lon="2.6176">
        <ele>312.12</ele>
        <time>2018-07-07T16:46:16.000Z</time>
      </trkpt>
      <trkpt lat="46.34506" lon="2.61775">
        <ele>311.6</ele>
        <time>2018-07-07T16:46:18.000Z</time>
      </trkpt>
      <trkpt lat="46.34508" lon="2.6179">
        <ele>310.86</ele>
        <time>2018-07-07T16:46:20.000Z</time>
      </trkpt>
      <trkpt lat="46.34509" lon="2.61804">
        <ele>309.98</ele>
        <time>2018-07-07T16:46:22.000Z</time>
      </trkpt>
      <trkpt lat="46.34511" lon="2.61818">
        <ele>309.69</ele>
        <time>2018-07-07T16:46:24.000Z</time>
      </trkpt>
      <trkpt lat="46.34513" lon="2.61832">
        <ele>309.75</ele>
        <time>2018-07-07T16:46:26.000Z</time>
      </trkpt>
      <trkpt lat="46.34514" lon="2.61846">
        <ele>309.75</ele>
        <time>2018-07-07T16:46:28.000Z</time>
      </trkpt>
      <trkpt lat="46.34515" lon="2.61861">
        <ele>309.57</ele>
        <time>2018-07-07T16:46:30.000Z</time>
      </trkpt>
      <trkpt lat="46.34516" lon="2.61875">
        <ele>308.7</ele>
        <time>2018-07-07T16:46:32.000Z</time>
      </trkpt>
      <trkpt lat="46.34518" lon="2.61889">
        <ele>308.38</ele>
        <time>2018-07-07T16:46:34.000Z</time>
      </trkpt>
      <trkpt lat="46.34519" lon="2.61903">
        <ele>308.74</ele>
        <time>2018-07-07T16:46:36.000Z</time>
      </trkpt>
      <trkpt lat="46.3452" lon="2.61919">
        <ele>307.96</ele>
        <time>2018-07-07T16:46:38.000Z</time>
      </trkpt>
      <trkpt lat="46.34522" lon="2.61934">
        <ele>308.3</ele>
        <time>2018-07-07T16:46:40.000Z</time>
      </trkpt>
      <trkpt lat="46.34524" lon="2.6195">
        <ele>308.38</ele>
        <time>2018-07-07T16:46:42.000Z</time>
      </trkpt>
      <trkpt lat="46.34526" lon="2.61966">
        <ele>308.65</ele>
        <time>2018-07-07T16:46:44.000Z</time>
      </trkpt>
      <trkpt lat="46.34528" lon="2.61983">
        <ele>308.98</ele>
        <time>2018-07-07T16:46:46.000Z</time>
      </trkpt>
      <trkpt lat="46.34529" lon="2.62">
        <ele>309.36</ele>
        <time>2018-07-07T16:46:48.000Z</time>
      </trkpt>
      <trkpt lat="46.3453" lon="2.62017">
        <ele>309.65</ele>
        <time>2018-07-07T16:46:50.000Z</time>
      </trkpt>
      <trkpt lat="46.34531" lon="2.62032">
        <ele>310.19</ele>
        <time>2018-07-07T16:46:52.000Z</time>
      </trkpt>
      <trkpt lat="46.34533" lon="2.62047">
        <ele>311.05</ele>
        <time>2018-07-07T16:46:54.000Z</time>
      </trkpt>
      <trkpt lat="46.34535" lon="2.62064">
        <ele>311.71</ele>
        <time>2018-07-07T16:46:56.000Z</time>
      </trkpt>
      <trkpt lat="46.34536" lon="2.6208">
        <ele>312.43</ele>
        <time>2018-07-07T16:46:58.000Z</time>
      </trkpt>
      <trkpt lat="46.34539" lon="2.62096">
        <ele>313.15</ele>
        <time>2018-07-07T16:47:00.000Z</time>
      </trkpt>
      <trkpt lat="46.34541" lon="2.62112">
        <ele>313.61</ele>
        <time>2018-07-07T16:47:02.000Z</time>
      </trkpt>
      <trkpt lat="46.34542" lon="2.62127">
        <ele>313.43</ele>
        <time>2018-07-07T16:47:04.000Z</time>
      </trkpt>
      <trkpt lat="46.34543" lon="2.62142">
        <ele>313.38</ele>
        <time>2018-07-07T16:47:06.000Z</time>
      </trkpt>
      <trkpt lat="46.34544" lon="2.62156">
        <ele>313.05</ele>
        <time>2018-07-07T16:47:08.000Z</time>
      </trkpt>
      <trkpt lat="46.34546" lon="2.62175">
        <ele>312.63</ele>
        <time>2018-07-07T16:47:11.000Z</time>
      </trkpt>
      <trkpt lat="46.34548" lon="2.62189">
        <ele>312.27</ele>
        <time>2018-07-07T16:47:13.000Z</time>
      </trkpt>
      <trkpt lat="46.3455" lon="2.62203">
        <ele>312.21</ele>
        <time>2018-07-07T16:47:15.000Z</time>
      </trkpt>
      <trkpt lat="46.34551" lon="2.62218">
        <ele>311.19</ele>
        <time>2018-07-07T16:47:17.000Z</time>
      </trkpt>
      <trkpt lat="46.34551" lon="2.62233">
        <ele>311.14</ele>
        <time>2018-07-07T16:47:19.000Z</time>
      </trkpt>
      <trkpt lat="46.34552" lon="2.62247">
        <ele>311.25</ele>
        <time>2018-07-07T16:47:21.000Z</time>
      </trkpt>
      <trkpt lat="46.34554" lon="2.62262">
        <ele>311.28</ele>
        <time>2018-07-07T16:47:23.000Z</time>
      </trkpt>
      <trkpt lat="46.34555" lon="2.62276">
        <ele>311.41</ele>
        <time>2018-07-07T16:47:25.000Z</time>
      </trkpt>
      <trkpt lat="46.34557" lon="2.62293">
        <ele>311.95</ele>
        <time>2018-07-07T16:47:28.000Z</time>
      </trkpt>
      <trkpt lat="46.34559" lon="2.62308">
        <ele>312.32</ele>
        <time>2018-07-07T16:47:32.000Z</time>
      </trkpt>
      <trkpt lat="46.34558" lon="2.62326">
        <ele>314.05</ele>
        <time>2018-07-07T16:47:38.000Z</time>
      </trkpt>
      <trkpt lat="46.3456" lon="2.62338">
        <ele>314.37</ele>
        <time>2018-07-07T16:47:40.000Z</time>
      </trkpt>
      <trkpt lat="46.34562" lon="2.62352">
        <ele>314.91</ele>
        <time>2018-07-07T16:47:42.000Z</time>
      </trkpt>
      <trkpt lat="46.34563" lon="2.62366">
        <ele>315.74</ele>
        <time>2018-07-07T16:47:44.000Z</time>
      </trkpt>
      <trkpt lat="46.34564" lon="2.62381">
        <ele>315.67</ele>
        <time>2018-07-07T16:47:46.000Z</time>
      </trkpt>
      <trkpt lat="46.34566" lon="2.62396">
        <ele>315.86</ele>
        <time>2018-07-07T16:47:48.000Z</time>
      </trkpt>
      <trkpt lat="46.34568" lon="2.62411">
        <ele>316.29</ele>
        <time>2018-07-07T16:47:50.000Z</time>
      </trkpt>
      <trkpt lat="46.34569" lon="2.62425">
        <ele>316.69</ele>
        <time>2018-07-07T16:47:52.000Z</time>
      </trkpt>
      <trkpt lat="46.34569" lon="2.62444">
        <ele>317.59</ele>
        <time>2018-07-07T16:47:55.000Z</time>
      </trkpt>
      <trkpt lat="46.34567" lon="2.62462">
        <ele>317.72</ele>
        <time>2018-07-07T16:47:58.000Z</time>
      </trkpt>
      <trkpt lat="46.34564" lon="2.62475">
        <ele>318.13</ele>
        <time>2018-07-07T16:48:00.000Z</time>
      </trkpt>
      <trkpt lat="46.3456" lon="2.62487">
        <ele>318.72</ele>
        <time>2018-07-07T16:48:02.000Z</time>
      </trkpt>
      <trkpt lat="46.34555" lon="2.62499">
        <ele>319.46</ele>
        <time>2018-07-07T16:48:04.000Z</time>
      </trkpt>
      <trkpt lat="46.34549" lon="2.6251">
        <ele>319.85</ele>
        <time>2018-07-07T16:48:06.000Z</time>
      </trkpt>
      <trkpt lat="46.34542" lon="2.62519">
        <ele>320.03</ele>
        <time>2018-07-07T16:48:08.000Z</time>
      </trkpt>
      <trkpt lat="46.34533" lon="2.62527">
        <ele>319.53</ele>
        <time>2018-07-07T16:48:10.000Z</time>
      </trkpt>
      <trkpt lat="46.34524" lon="2.62535">
        <ele>318.77</ele>
        <time>2018-07-07T16:48:12.000Z</time>
      </trkpt>
      <trkpt lat="46.34515" lon="2.62543">
        <ele>318.04</ele>
        <time>2018-07-07T16:48:14.000Z</time>
      </trkpt>
      <trkpt lat="46.34507" lon="2.62547">
        <ele>317.91</ele>
        <time>2018-07-07T16:48:16.000Z</time>
      </trkpt>
      <trkpt lat="46.34498" lon="2.6255">
        <ele>317.4</ele>
        <time>2018-07-07T16:48:18.000Z</time>
      </trkpt>
      <trkpt lat="46.34489" lon="2.62553">
        <ele>317.23</ele>
        <time>2018-07-07T16:48:20.000Z</time>
      </trkpt>
      <trkpt lat="46.34479" lon="2.62557">
        <ele>316.86</ele>
        <time>2018-07-07T16:48:22.000Z</time>
      </trkpt>
      <trkpt lat="46.34469" lon="2.62561">
        <ele>316.9</ele>
        <time>2018-07-07T16:48:24.000Z</time>
      </trkpt>
      <trkpt lat="46.34459" lon="2.62566">
        <ele>317.29</ele>
        <time>2018-07-07T16:48:26.000Z</time>
      </trkpt>
      <trkpt lat="46.34449" lon="2.6257">
        <ele>317.64</ele>
        <time>2018-07-07T16:48:28.000Z</time>
      </trkpt>
      <trkpt lat="46.34438" lon="2.62574">
        <ele>317.41</ele>
        <time>2018-07-07T16:48:30.000Z</time>
      </trkpt>
      <trkpt lat="46.34427" lon="2.62576">
        <ele>317.17</ele>
        <time>2018-07-07T16:48:32.000Z</time>
      </trkpt>
      <trkpt lat="46.34415" lon="2.62579">
        <ele>317.31</ele>
        <time>2018-07-07T16:48:34.000Z</time>
      </trkpt>
      <trkpt lat="46.34406" lon="2.62583">
        <ele>317.63</ele>
        <time>2018-07-07T16:48:36.000Z</time>
      </trkpt>
      <trkpt lat="46.34396" lon="2.62587">
        <ele>317.69</ele>
        <time>2018-07-07T16:48:38.000Z</time>
      </trkpt>
      <trkpt lat="46.34386" lon="2.62591">
        <ele>318.19</ele>
        <time>2018-07-07T16:48:40.000Z</time>
      </trkpt>
      <trkpt lat="46.34377" lon="2.62596">
        <ele>318.52</ele>
        <time>2018-07-07T16:48:42.000Z</time>
      </trkpt>
      <trkpt lat="46.34366" lon="2.62603">
        <ele>318.54</ele>
        <time>2018-07-07T16:48:44.000Z</time>
      </trkpt>
      <trkpt lat="46.34358" lon="2.6261">
        <ele>318.18</ele>
        <time>2018-07-07T16:48:46.000Z</time>
      </trkpt>
      <trkpt lat="46.34349" lon="2.62618">
        <ele>318.39</ele>
        <time>2018-07-07T16:48:48.000Z</time>
      </trkpt>
      <trkpt lat="46.34343" lon="2.6263">
        <ele>319.01</ele>
        <time>2018-07-07T16:48:50.000Z</time>
      </trkpt>
      <trkpt lat="46.34335" lon="2.6264">
        <ele>319.13</ele>
        <time>2018-07-07T16:48:52.000Z</time>
      </trkpt>
      <trkpt lat="46.34328" lon="2.6265">
        <ele>318.58</ele>
        <time>2018-07-07T16:48:54.000Z</time>
      </trkpt>
      <trkpt lat="46.34321" lon="2.62662">
        <ele>319</ele>
        <time>2018-07-07T16:48:56.000Z</time>
      </trkpt>
      <trkpt lat="46.34317" lon="2.62677">
        <ele>319.44</ele>
        <time>2018-07-07T16:48:58.000Z</time>
      </trkpt>
      <trkpt lat="46.34315" lon="2.62696">
        <ele>320.6</ele>
        <time>2018-07-07T16:49:00.000Z</time>
      </trkpt>
      <trkpt lat="46.34312" lon="2.62712">
        <ele>321.44</ele>
        <time>2018-07-07T16:49:02.000Z</time>
      </trkpt>
      <trkpt lat="46.34311" lon="2.62729">
        <ele>322.55</ele>
        <time>2018-07-07T16:49:04.000Z</time>
      </trkpt>
      <trkpt lat="46.34309" lon="2.62745">
        <ele>322.67</ele>
        <time>2018-07-07T16:49:06.000Z</time>
      </trkpt>
      <trkpt lat="46.34308" lon="2.62757">
        <ele>322.25</ele>
        <time>2018-07-07T16:49:08.000Z</time>
      </trkpt>
      <trkpt lat="46.34306" lon="2.62775">
        <ele>322.03</ele>
        <time>2018-07-07T16:49:11.000Z</time>
      </trkpt>
      <trkpt lat="46.34306" lon="2.6279">
        <ele>322.24</ele>
        <time>2018-07-07T16:49:13.000Z</time>
      </trkpt>
      <trkpt lat="46.34306" lon="2.62804">
        <ele>322.28</ele>
        <time>2018-07-07T16:49:15.000Z</time>
      </trkpt>
      <trkpt lat="46.34305" lon="2.62822">
        <ele>322.11</ele>
        <time>2018-07-07T16:49:18.000Z</time>
      </trkpt>
      <trkpt lat="46.34305" lon="2.62836">
        <ele>321.76</ele>
        <time>2018-07-07T16:49:20.000Z</time>
      </trkpt>
      <trkpt lat="46.34306" lon="2.62849">
        <ele>321.97</ele>
        <time>2018-07-07T16:49:22.000Z</time>
      </trkpt>
      <trkpt lat="46.34306" lon="2.62868">
        <ele>321.92</ele>
        <time>2018-07-07T16:49:25.000Z</time>
      </trkpt>
      <trkpt lat="46.34306" lon="2.62882">
        <ele>321.96</ele>
        <time>2018-07-07T16:49:27.000Z</time>
      </trkpt>
      <trkpt lat="46.34306" lon="2.62895">
        <ele>321.94</ele>
        <time>2018-07-07T16:49:29.000Z</time>
      </trkpt>
      <trkpt lat="46.34307" lon="2.62908">
        <ele>322.52</ele>
        <time>2018-07-07T16:49:31.000Z</time>
      </trkpt>
      <trkpt lat="46.34308" lon="2.62928">
        <ele>323.65</ele>
        <time>2018-07-07T16:49:34.000Z</time>
      </trkpt>
      <trkpt lat="46.34311" lon="2.62947">
        <ele>324.93</ele>
        <time>2018-07-07T16:49:37.000Z</time>
      </trkpt>
      <trkpt lat="46.34315" lon="2.62966">
        <ele>325.66</ele>
        <time>2018-07-07T16:49:40.000Z</time>
      </trkpt>
      <trkpt lat="46.34319" lon="2.62978">
        <ele>325.72</ele>
        <time>2018-07-07T16:49:42.000Z</time>
      </trkpt>
      <trkpt lat="46.34325" lon="2.62994">
        <ele>326.15</ele>
        <time>2018-07-07T16:49:45.000Z</time>
      </trkpt>
      <trkpt lat="46.3433" lon="2.63005">
        <ele>326.43</ele>
        <time>2018-07-07T16:49:47.000Z</time>
      </trkpt>
      <trkpt lat="46.34338" lon="2.6302">
        <ele>327.16</ele>
        <time>2018-07-07T16:49:50.000Z</time>
      </trkpt>
      <trkpt lat="46.34347" lon="2.63034">
        <ele>327.51</ele>
        <time>2018-07-07T16:49:53.000Z</time>
      </trkpt>
      <trkpt lat="46.34356" lon="2.63048">
        <ele>328.4</ele>
        <time>2018-07-07T16:49:56.000Z</time>
      </trkpt>
      <trkpt lat="46.34366" lon="2.63062">
        <ele>328.84</ele>
        <time>2018-07-07T16:49:59.000Z</time>
      </trkpt>
      <trkpt lat="46.34372" lon="2.63072">
        <ele>329.08</ele>
        <time>2018-07-07T16:50:01.000Z</time>
      </trkpt>
      <trkpt lat="46.3438" lon="2.63086">
        <ele>329.39</ele>
        <time>2018-07-07T16:50:04.000Z</time>
      </trkpt>
      <trkpt lat="46.34387" lon="2.63101">
        <ele>329.49</ele>
        <time>2018-07-07T16:50:07.000Z</time>
      </trkpt>
      <trkpt lat="46.34391" lon="2.63119">
        <ele>329.74</ele>
        <time>2018-07-07T16:50:10.000Z</time>
      </trkpt>
      <trkpt lat="46.34389" lon="2.63134">
        <ele>331.19</ele>
        <time>2018-07-07T16:50:13.000Z</time>
      </trkpt>
      <trkpt lat="46.34384" lon="2.6315">
        <ele>332.89</ele>
        <time>2018-07-07T16:50:16.000Z</time>
      </trkpt>
      <trkpt lat="46.34375" lon="2.63164">
        <ele>333.78</ele>
        <time>2018-07-07T16:50:19.000Z</time>
      </trkpt>
      <trkpt lat="46.34366" lon="2.63172">
        <ele>334.48</ele>
        <time>2018-07-07T16:50:22.000Z</time>
      </trkpt>
      <trkpt lat="46.34353" lon="2.63176">
        <ele>334.71</ele>
        <time>2018-07-07T16:50:25.000Z</time>
      </trkpt>
      <trkpt lat="46.3434" lon="2.63181">
        <ele>334.06</ele>
        <time>2018-07-07T16:50:28.000Z</time>
      </trkpt>
      <trkpt lat="46.34327" lon="2.63184">
        <ele>332.84</ele>
        <time>2018-07-07T16:50:31.000Z</time>
      </trkpt>
      <trkpt lat="46.34315" lon="2.63188">
        <ele>332.79</ele>
        <time>2018-07-07T16:50:34.000Z</time>
      </trkpt>
      <trkpt lat="46.34301" lon="2.63193">
        <ele>331.73</ele>
        <time>2018-07-07T16:50:37.000Z</time>
      </trkpt>
      <trkpt lat="46.34292" lon="2.63196">
        <ele>332</ele>
        <time>2018-07-07T16:50:39.000Z</time>
      </trkpt>
      <trkpt lat="46.34282" lon="2.63196">
        <ele>332.24</ele>
        <time>2018-07-07T16:50:41.000Z</time>
      </trkpt>
      <trkpt lat="46.34272" lon="2.63197">
        <ele>332.57</ele>
        <time>2018-07-07T16:50:43.000Z</time>
      </trkpt>
      <trkpt lat="46.34263" lon="2.63197">
        <ele>332.8</ele>
        <time>2018-07-07T16:50:45.000Z</time>
      </trkpt>
      <trkpt lat="46.34253" lon="2.63198">
        <ele>333.39</ele>
        <time>2018-07-07T16:50:47.000Z</time>
      </trkpt>
      <trkpt lat="46.34243" lon="2.63198">
        <ele>334.04</ele>
        <time>2018-07-07T16:50:49.000Z</time>
      </trkpt>
      <trkpt lat="46.34231" lon="2.63199">
        <ele>334.87</ele>
        <time>2018-07-07T16:50:52.000Z</time>
      </trkpt>
      <trkpt lat="46.3422" lon="2.63201">
        <ele>335.5</ele>
        <time>2018-07-07T16:50:54.000Z</time>
      </trkpt>
      <trkpt lat="46.34206" lon="2.63203">
        <ele>336</ele>
        <time>2018-07-07T16:50:56.000Z</time>
      </trkpt>
      <trkpt lat="46.34194" lon="2.63204">
        <ele>336.69</ele>
        <time>2018-07-07T16:50:58.000Z</time>
      </trkpt>
      <trkpt lat="46.34183" lon="2.63204">
        <ele>337.89</ele>
        <time>2018-07-07T16:51:00.000Z</time>
      </trkpt>
      <trkpt lat="46.34172" lon="2.63204">
        <ele>339.13</ele>
        <time>2018-07-07T16:51:02.000Z</time>
      </trkpt>
      <trkpt lat="46.34162" lon="2.63204">
        <ele>339.84</ele>
        <time>2018-07-07T16:51:04.000Z</time>
      </trkpt>
      <trkpt lat="46.34151" lon="2.63204">
        <ele>341.03</ele>
        <time>2018-07-07T16:51:07.000Z</time>
      </trkpt>
      <trkpt lat="46.3414" lon="2.63206">
        <ele>342.15</ele>
        <time>2018-07-07T16:51:10.000Z</time>
      </trkpt>
      <trkpt lat="46.34127" lon="2.63204">
        <ele>342.67</ele>
        <time>2018-07-07T16:51:13.000Z</time>
      </trkpt>
      <trkpt lat="46.34114" lon="2.63201">
        <ele>343.7</ele>
        <time>2018-07-07T16:51:16.000Z</time>
      </trkpt>
      <trkpt lat="46.34102" lon="2.63195">
        <ele>344.46</ele>
        <time>2018-07-07T16:51:19.000Z</time>
      </trkpt>
      <trkpt lat="46.3409" lon="2.6319">
        <ele>345.32</ele>
        <time>2018-07-07T16:51:22.000Z</time>
      </trkpt>
      <trkpt lat="46.34079" lon="2.63186">
        <ele>346.02</ele>
        <time>2018-07-07T16:51:25.000Z</time>
      </trkpt>
      <trkpt lat="46.34069" lon="2.63185">
        <ele>346.87</ele>
        <time>2018-07-07T16:51:28.000Z</time>
      </trkpt>
      <trkpt lat="46.34057" lon="2.63184">
        <ele>347.01</ele>
        <time>2018-07-07T16:51:31.000Z</time>
      </trkpt>
      <trkpt lat="46.34048" lon="2.63183">
        <ele>346.91</ele>
        <time>2018-07-07T16:51:33.000Z</time>
      </trkpt>
      <trkpt lat="46.34039" lon="2.63183">
        <ele>346.93</ele>
        <time>2018-07-07T16:51:35.000Z</time>
      </trkpt>
      <trkpt lat="46.34028" lon="2.63183">
        <ele>347</ele>
        <time>2018-07-07T16:51:37.000Z</time>
      </trkpt>
      <trkpt lat="46.34017" lon="2.63182">
        <ele>347.05</ele>
        <time>2018-07-07T16:51:39.000Z</time>
      </trkpt>
      <trkpt lat="46.34005" lon="2.63181">
        <ele>346.11</ele>
        <time>2018-07-07T16:51:41.000Z</time>
      </trkpt>
      <trkpt lat="46.33992" lon="2.63181">
        <ele>345.3</ele>
        <time>2018-07-07T16:51:43.000Z</time>
      </trkpt>
      <trkpt lat="46.3398" lon="2.63178">
        <ele>345.26</ele>
        <time>2018-07-07T16:51:45.000Z</time>
      </trkpt>
      <trkpt lat="46.33969" lon="2.63175">
        <ele>345.1</ele>
        <time>2018-07-07T16:51:47.000Z</time>
      </trkpt>
      <trkpt lat="46.33958" lon="2.6317">
        <ele>345.24</ele>
        <time>2018-07-07T16:51:49.000Z</time>
      </trkpt>
      <trkpt lat="46.33949" lon="2.63164">
        <ele>345.7</ele>
        <time>2018-07-07T16:51:51.000Z</time>
      </trkpt>
      <trkpt lat="46.33939" lon="2.63156">
        <ele>346.35</ele>
        <time>2018-07-07T16:51:54.000Z</time>
      </trkpt>
      <trkpt lat="46.33927" lon="2.6315">
        <ele>347.15</ele>
        <time>2018-07-07T16:51:57.000Z</time>
      </trkpt>
      <trkpt lat="46.33918" lon="2.63147">
        <ele>347</ele>
        <time>2018-07-07T16:51:59.000Z</time>
      </trkpt>
      <trkpt lat="46.33909" lon="2.63144">
        <ele>346.84</ele>
        <time>2018-07-07T16:52:01.000Z</time>
      </trkpt>
      <trkpt lat="46.339" lon="2.63141">
        <ele>346.73</ele>
        <time>2018-07-07T16:52:03.000Z</time>
      </trkpt>
      <trkpt lat="46.33891" lon="2.63139">
        <ele>347.2</ele>
        <time>2018-07-07T16:52:05.000Z</time>
      </trkpt>
      <trkpt lat="46.33877" lon="2.63138">
        <ele>347.52</ele>
        <time>2018-07-07T16:52:08.000Z</time>
      </trkpt>
      <trkpt lat="46.33864" lon="2.63139">
        <ele>348.37</ele>
        <time>2018-07-07T16:52:11.000Z</time>
      </trkpt>
      <trkpt lat="46.33851" lon="2.6314">
        <ele>349.82</ele>
        <time>2018-07-07T16:52:14.000Z</time>
      </trkpt>
      <trkpt lat="46.33838" lon="2.63144">
        <ele>351.71</ele>
        <time>2018-07-07T16:52:17.000Z</time>
      </trkpt>
      <trkpt lat="46.3383" lon="2.63149">
        <ele>352.67</ele>
        <time>2018-07-07T16:52:19.000Z</time>
      </trkpt>
      <trkpt lat="46.33817" lon="2.63157">
        <ele>353.6</ele>
        <time>2018-07-07T16:52:22.000Z</time>
      </trkpt>
      <trkpt lat="46.33808" lon="2.63163">
        <ele>353.16</ele>
        <time>2018-07-07T16:52:24.000Z</time>
      </trkpt>
      <trkpt lat="46.33799" lon="2.6317">
        <ele>352.57</ele>
        <time>2018-07-07T16:52:26.000Z</time>
      </trkpt>
      <trkpt lat="46.3379" lon="2.6318">
        <ele>352.06</ele>
        <time>2018-07-07T16:52:28.000Z</time>
      </trkpt>
      <trkpt lat="46.33782" lon="2.6319">
        <ele>351.69</ele>
        <time>2018-07-07T16:52:30.000Z</time>
      </trkpt>
      <trkpt lat="46.33776" lon="2.632">
        <ele>351.41</ele>
        <time>2018-07-07T16:52:32.000Z</time>
      </trkpt>
      <trkpt lat="46.3377" lon="2.6321">
        <ele>350.65</ele>
        <time>2018-07-07T16:52:34.000Z</time>
      </trkpt>
      <trkpt lat="46.33765" lon="2.63221">
        <ele>350.45</ele>
        <time>2018-07-07T16:52:36.000Z</time>
      </trkpt>
      <trkpt lat="46.33761" lon="2.63234">
        <ele>350.77</ele>
        <time>2018-07-07T16:52:38.000Z</time>
      </trkpt>
      <trkpt lat="46.33756" lon="2.63251">
        <ele>351.94</ele>
        <time>2018-07-07T16:52:41.000Z</time>
      </trkpt>
      <trkpt lat="46.33752" lon="2.63267">
        <ele>353.36</ele>
        <time>2018-07-07T16:52:44.000Z</time>
      </trkpt>
      <trkpt lat="46.33749" lon="2.63284">
        <ele>354.5</ele>
        <time>2018-07-07T16:52:47.000Z</time>
      </trkpt>
      <trkpt lat="46.33746" lon="2.633">
        <ele>355.91</ele>
        <time>2018-07-07T16:52:50.000Z</time>
      </trkpt>
      <trkpt lat="46.33743" lon="2.63316">
        <ele>357.57</ele>
        <time>2018-07-07T16:52:53.000Z</time>
      </trkpt>
      <trkpt lat="46.3374" lon="2.63332">
        <ele>359.04</ele>
        <time>2018-07-07T16:52:56.000Z</time>
      </trkpt>
      <trkpt lat="46.33736" lon="2.63349">
        <ele>360.12</ele>
        <time>2018-07-07T16:52:59.000Z</time>
      </trkpt>
      <trkpt lat="46.33732" lon="2.63365">
        <ele>361.97</ele>
        <time>2018-07-07T16:53:03.000Z</time>
      </trkpt>
      <trkpt lat="46.33727" lon="2.63378">
        <ele>363.26</ele>
        <time>2018-07-07T16:53:06.000Z</time>
      </trkpt>
      <trkpt lat="46.33723" lon="2.63394">
        <ele>364.24</ele>
        <time>2018-07-07T16:53:09.000Z</time>
      </trkpt>
      <trkpt lat="46.3372" lon="2.63408">
        <ele>364.92</ele>
        <time>2018-07-07T16:53:12.000Z</time>
      </trkpt>
      <trkpt lat="46.33715" lon="2.63423">
        <ele>365.74</ele>
        <time>2018-07-07T16:53:15.000Z</time>
      </trkpt>
      <trkpt lat="46.33712" lon="2.63437">
        <ele>367.13</ele>
        <time>2018-07-07T16:53:18.000Z</time>
      </trkpt>
      <trkpt lat="46.33709" lon="2.63452">
        <ele>368.17</ele>
        <time>2018-07-07T16:53:21.000Z</time>
      </trkpt>
      <trkpt lat="46.33706" lon="2.63469">
        <ele>369.12</ele>
        <time>2018-07-07T16:53:24.000Z</time>
      </trkpt>
      <trkpt lat="46.33704" lon="2.63482">
        <ele>369.72</ele>
        <time>2018-07-07T16:53:26.000Z</time>
      </trkpt>
      <trkpt lat="46.33703" lon="2.635">
        <ele>370.14</ele>
        <time>2018-07-07T16:53:29.000Z</time>
      </trkpt>
      <trkpt lat="46.33703" lon="2.63516">
        <ele>370.94</ele>
        <time>2018-07-07T16:53:32.000Z</time>
      </trkpt>
      <trkpt lat="46.33704" lon="2.63531">
        <ele>371.74</ele>
        <time>2018-07-07T16:53:35.000Z</time>
      </trkpt>
      <trkpt lat="46.33707" lon="2.63549">
        <ele>372.1</ele>
        <time>2018-07-07T16:53:38.000Z</time>
      </trkpt>
      <trkpt lat="46.3371" lon="2.63564">
        <ele>372.26</ele>
        <time>2018-07-07T16:53:40.000Z</time>
      </trkpt>
      <trkpt lat="46.33714" lon="2.63576">
        <ele>372.23</ele>
        <time>2018-07-07T16:53:42.000Z</time>
      </trkpt>
      <trkpt lat="46.3372" lon="2.63588">
        <ele>372.89</ele>
        <time>2018-07-07T16:53:45.000Z</time>
      </trkpt>
      <trkpt lat="46.33727" lon="2.636">
        <ele>373.33</ele>
        <time>2018-07-07T16:53:48.000Z</time>
      </trkpt>
      <trkpt lat="46.33733" lon="2.63615">
        <ele>373.55</ele>
        <time>2018-07-07T16:53:51.000Z</time>
      </trkpt>
      <trkpt lat="46.3374" lon="2.63627">
        <ele>374.33</ele>
        <time>2018-07-07T16:53:54.000Z</time>
      </trkpt>
      <trkpt lat="46.33748" lon="2.63643">
        <ele>374.38</ele>
        <time>2018-07-07T16:53:57.000Z</time>
      </trkpt>
      <trkpt lat="46.33754" lon="2.63654">
        <ele>374.67</ele>
        <time>2018-07-07T16:53:59.000Z</time>
      </trkpt>
      <trkpt lat="46.3376" lon="2.63665">
        <ele>375.19</ele>
        <time>2018-07-07T16:54:01.000Z</time>
      </trkpt>
      <trkpt lat="46.33765" lon="2.63676">
        <ele>375.7</ele>
        <time>2018-07-07T16:54:03.000Z</time>
      </trkpt>
      <trkpt lat="46.33772" lon="2.63685">
        <ele>376.16</ele>
        <time>2018-07-07T16:54:05.000Z</time>
      </trkpt>
      <trkpt lat="46.33778" lon="2.63695">
        <ele>376.76</ele>
        <time>2018-07-07T16:54:07.000Z</time>
      </trkpt>
      <trkpt lat="46.33783" lon="2.63706">
        <ele>376.79</ele>
        <time>2018-07-07T16:54:09.000Z</time>
      </trkpt>
      <trkpt lat="46.3379" lon="2.63721">
        <ele>377.48</ele>
        <time>2018-07-07T16:54:12.000Z</time>
      </trkpt>
      <trkpt lat="46.33798" lon="2.63735">
        <ele>378.54</ele>
        <time>2018-07-07T16:54:15.000Z</time>
      </trkpt>
      <trkpt lat="46.33808" lon="2.63754">
        <ele>379.75</ele>
        <time>2018-07-07T16:54:19.000Z</time>
      </trkpt>
      <trkpt lat="46.33816" lon="2.63767">
        <ele>380.91</ele>
        <time>2018-07-07T16:54:22.000Z</time>
      </trkpt>
      <trkpt lat="46.33823" lon="2.6378">
        <ele>382.6</ele>
        <time>2018-07-07T16:54:25.000Z</time>
      </trkpt>
      <trkpt lat="46.3383" lon="2.63794">
        <ele>383.42</ele>
        <time>2018-07-07T16:54:28.000Z</time>
      </trkpt>
      <trkpt lat="46.33838" lon="2.63808">
        <ele>383.88</ele>
        <time>2018-07-07T16:54:31.000Z</time>
      </trkpt>
      <trkpt lat="46.33847" lon="2.6382">
        <ele>383.88</ele>
        <time>2018-07-07T16:54:34.000Z</time>
      </trkpt>
      <trkpt lat="46.33855" lon="2.63833">
        <ele>383.94</ele>
        <time>2018-07-07T16:54:37.000Z</time>
      </trkpt>
      <trkpt lat="46.33862" lon="2.63847">
        <ele>384.75</ele>
        <time>2018-07-07T16:54:40.000Z</time>
      </trkpt>
      <trkpt lat="46.33868" lon="2.63863">
        <ele>385.49</ele>
        <time>2018-07-07T16:54:43.000Z</time>
      </trkpt>
      <trkpt lat="46.33873" lon="2.6388">
        <ele>385.56</ele>
        <time>2018-07-07T16:54:46.000Z</time>
      </trkpt>
      <trkpt lat="46.33875" lon="2.63896">
        <ele>386.45</ele>
        <time>2018-07-07T16:54:49.000Z</time>
      </trkpt>
      <trkpt lat="46.33875" lon="2.63913">
        <ele>386.75</ele>
        <time>2018-07-07T16:54:52.000Z</time>
      </trkpt>
      <trkpt lat="46.33872" lon="2.6393">
        <ele>387</ele>
        <time>2018-07-07T16:54:55.000Z</time>
      </trkpt>
      <trkpt lat="46.33867" lon="2.63946">
        <ele>386.35</ele>
        <time>2018-07-07T16:54:58.000Z</time>
      </trkpt>
      <trkpt lat="46.33859" lon="2.63959">
        <ele>385.98</ele>
        <time>2018-07-07T16:55:01.000Z</time>
      </trkpt>
      <trkpt lat="46.33846" lon="2.63971">
        <ele>386.79</ele>
        <time>2018-07-07T16:55:05.000Z</time>
      </trkpt>
      <trkpt lat="46.33836" lon="2.63978">
        <ele>386.9</ele>
        <time>2018-07-07T16:55:08.000Z</time>
      </trkpt>
      <trkpt lat="46.33827" lon="2.63984">
        <ele>387.06</ele>
        <time>2018-07-07T16:55:11.000Z</time>
      </trkpt>
      <trkpt lat="46.33817" lon="2.6399">
        <ele>387.71</ele>
        <time>2018-07-07T16:55:14.000Z</time>
      </trkpt>
      <trkpt lat="46.33807" lon="2.63998">
        <ele>388.06</ele>
        <time>2018-07-07T16:55:17.000Z</time>
      </trkpt>
      <trkpt lat="46.33797" lon="2.6401">
        <ele>388.54</ele>
        <time>2018-07-07T16:55:20.000Z</time>
      </trkpt>
      <trkpt lat="46.33789" lon="2.64024">
        <ele>390.2</ele>
        <time>2018-07-07T16:55:23.000Z</time>
      </trkpt>
      <trkpt lat="46.33783" lon="2.6404">
        <ele>391.65</ele>
        <time>2018-07-07T16:55:26.000Z</time>
      </trkpt>
      <trkpt lat="46.3378" lon="2.64056">
        <ele>392.85</ele>
        <time>2018-07-07T16:55:29.000Z</time>
      </trkpt>
      <trkpt lat="46.33778" lon="2.64069">
        <ele>393.73</ele>
        <time>2018-07-07T16:55:31.000Z</time>
      </trkpt>
      <trkpt lat="46.3378" lon="2.64083">
        <ele>394.33</ele>
        <time>2018-07-07T16:55:33.000Z</time>
      </trkpt>
      <trkpt lat="46.33781" lon="2.64097">
        <ele>394.38</ele>
        <time>2018-07-07T16:55:35.000Z</time>
      </trkpt>
      <trkpt lat="46.33782" lon="2.6411">
        <ele>394.49</ele>
        <time>2018-07-07T16:55:37.000Z</time>
      </trkpt>
      <trkpt lat="46.33785" lon="2.64129">
        <ele>394.54</ele>
        <time>2018-07-07T16:55:40.000Z</time>
      </trkpt>
      <trkpt lat="46.33789" lon="2.64141">
        <ele>394.8</ele>
        <time>2018-07-07T16:55:42.000Z</time>
      </trkpt>
      <trkpt lat="46.33794" lon="2.64159">
        <ele>394.89</ele>
        <time>2018-07-07T16:55:45.000Z</time>
      </trkpt>
      <trkpt lat="46.33798" lon="2.64177">
        <ele>395.56</ele>
        <time>2018-07-07T16:55:48.000Z</time>
      </trkpt>
      <trkpt lat="46.33801" lon="2.64189">
        <ele>396.14</ele>
        <time>2018-07-07T16:55:50.000Z</time>
      </trkpt>
      <trkpt lat="46.33804" lon="2.64202">
        <ele>396.83</ele>
        <time>2018-07-07T16:55:52.000Z</time>
      </trkpt>
      <trkpt lat="46.33804" lon="2.6422">
        <ele>397.97</ele>
        <time>2018-07-07T16:55:55.000Z</time>
      </trkpt>
      <trkpt lat="46.33801" lon="2.64238">
        <ele>398.76</ele>
        <time>2018-07-07T16:55:58.000Z</time>
      </trkpt>
      <trkpt lat="46.33797" lon="2.64256">
        <ele>399.92</ele>
        <time>2018-07-07T16:56:01.000Z</time>
      </trkpt>
      <trkpt lat="46.33792" lon="2.64273">
        <ele>400.91</ele>
        <time>2018-07-07T16:56:04.000Z</time>
      </trkpt>
      <trkpt lat="46.33785" lon="2.64287">
        <ele>400.98</ele>
        <time>2018-07-07T16:56:07.000Z</time>
      </trkpt>
      <trkpt lat="46.33775" lon="2.643">
        <ele>400.4</ele>
        <time>2018-07-07T16:56:10.000Z</time>
      </trkpt>
      <trkpt lat="46.33767" lon="2.64308">
        <ele>399.69</ele>
        <time>2018-07-07T16:56:12.000Z</time>
      </trkpt>
      <trkpt lat="46.33759" lon="2.64314">
        <ele>399.19</ele>
        <time>2018-07-07T16:56:14.000Z</time>
      </trkpt>
      <trkpt lat="46.33747" lon="2.64322">
        <ele>398.66</ele>
        <time>2018-07-07T16:56:17.000Z</time>
      </trkpt>
      <trkpt lat="46.33737" lon="2.64324">
        <ele>399.01</ele>
        <time>2018-07-07T16:56:19.000Z</time>
      </trkpt>
      <trkpt lat="46.33728" lon="2.64327">
        <ele>399.51</ele>
        <time>2018-07-07T16:56:21.000Z</time>
      </trkpt>
      <trkpt lat="46.33716" lon="2.64332">
        <ele>400.85</ele>
        <time>2018-07-07T16:56:24.000Z</time>
      </trkpt>
      <trkpt lat="46.33706" lon="2.64337">
        <ele>401.72</ele>
        <time>2018-07-07T16:56:27.000Z</time>
      </trkpt>
      <trkpt lat="46.33694" lon="2.64343">
        <ele>401.55</ele>
        <time>2018-07-07T16:56:30.000Z</time>
      </trkpt>
      <trkpt lat="46.33684" lon="2.6435">
        <ele>401.24</ele>
        <time>2018-07-07T16:56:33.000Z</time>
      </trkpt>
      <trkpt lat="46.33675" lon="2.6436">
        <ele>401.33</ele>
        <time>2018-07-07T16:56:36.000Z</time>
      </trkpt>
      <trkpt lat="46.33667" lon="2.64371">
        <ele>401.1</ele>
        <time>2018-07-07T16:56:39.000Z</time>
      </trkpt>
      <trkpt lat="46.33658" lon="2.64383">
        <ele>400.22</ele>
        <time>2018-07-07T16:56:42.000Z</time>
      </trkpt>
      <trkpt lat="46.3365" lon="2.64396">
        <ele>399.25</ele>
        <time>2018-07-07T16:56:45.000Z</time>
      </trkpt>
      <trkpt lat="46.33643" lon="2.64411">
        <ele>397.97</ele>
        <time>2018-07-07T16:56:48.000Z</time>
      </trkpt>
      <trkpt lat="46.33637" lon="2.64427">
        <ele>397.01</ele>
        <time>2018-07-07T16:56:51.000Z</time>
      </trkpt>
      <trkpt lat="46.33632" lon="2.64443">
        <ele>397</ele>
        <time>2018-07-07T16:56:54.000Z</time>
      </trkpt>
      <trkpt lat="46.33627" lon="2.6446">
        <ele>397.59</ele>
        <time>2018-07-07T16:56:57.000Z</time>
      </trkpt>
      <trkpt lat="46.33626" lon="2.64474">
        <ele>398.24</ele>
        <time>2018-07-07T16:56:59.000Z</time>
      </trkpt>
      <trkpt lat="46.33626" lon="2.64493">
        <ele>398.99</ele>
        <time>2018-07-07T16:57:02.000Z</time>
      </trkpt>
      <trkpt lat="46.33627" lon="2.64511">
        <ele>399.61</ele>
        <time>2018-07-07T16:57:05.000Z</time>
      </trkpt>
      <trkpt lat="46.33629" lon="2.64528">
        <ele>399.79</ele>
        <time>2018-07-07T16:57:08.000Z</time>
      </trkpt>
      <trkpt lat="46.33632" lon="2.64546">
        <ele>400.05</ele>
        <time>2018-07-07T16:57:11.000Z</time>
      </trkpt>
      <trkpt lat="46.33635" lon="2.64563">
        <ele>400.99</ele>
        <time>2018-07-07T16:57:14.000Z</time>
      </trkpt>
      <trkpt lat="46.33641" lon="2.64578">
        <ele>401.41</ele>
        <time>2018-07-07T16:57:17.000Z</time>
      </trkpt>
      <trkpt lat="46.33648" lon="2.64593">
        <ele>401.27</ele>
        <time>2018-07-07T16:57:20.000Z</time>
      </trkpt>
      <trkpt lat="46.33655" lon="2.64606">
        <ele>401.25</ele>
        <time>2018-07-07T16:57:23.000Z</time>
      </trkpt>
      <trkpt lat="46.33664" lon="2.64619">
        <ele>401.37</ele>
        <time>2018-07-07T16:57:26.000Z</time>
      </trkpt>
      <trkpt lat="46.33674" lon="2.6463">
        <ele>401.83</ele>
        <time>2018-07-07T16:57:29.000Z</time>
      </trkpt>
      <trkpt lat="46.33683" lon="2.64639">
        <ele>402.6</ele>
        <time>2018-07-07T16:57:32.000Z</time>
      </trkpt>
      <trkpt lat="46.33694" lon="2.64647">
        <ele>403.13</ele>
        <time>2018-07-07T16:57:35.000Z</time>
      </trkpt>
      <trkpt lat="46.33703" lon="2.64653">
        <ele>403.79</ele>
        <time>2018-07-07T16:57:38.000Z</time>
      </trkpt>
      <trkpt lat="46.33715" lon="2.6466">
        <ele>404.5</ele>
        <time>2018-07-07T16:57:41.000Z</time>
      </trkpt>
      <trkpt lat="46.33727" lon="2.64666">
        <ele>404.5</ele>
        <time>2018-07-07T16:57:44.000Z</time>
      </trkpt>
      <trkpt lat="46.3374" lon="2.64671">
        <ele>404.31</ele>
        <time>2018-07-07T16:57:47.000Z</time>
      </trkpt>
      <trkpt lat="46.33752" lon="2.64676">
        <ele>403.96</ele>
        <time>2018-07-07T16:57:50.000Z</time>
      </trkpt>
      <trkpt lat="46.33764" lon="2.6468">
        <ele>404.12</ele>
        <time>2018-07-07T16:57:53.000Z</time>
      </trkpt>
      <trkpt lat="46.33776" lon="2.64685">
        <ele>403.95</ele>
        <time>2018-07-07T16:57:56.000Z</time>
      </trkpt>
      <trkpt lat="46.33788" lon="2.6469">
        <ele>404.02</ele>
        <time>2018-07-07T16:57:59.000Z</time>
      </trkpt>
      <trkpt lat="46.338" lon="2.64698">
        <ele>403.91</ele>
        <time>2018-07-07T16:58:02.000Z</time>
      </trkpt>
      <trkpt lat="46.33809" lon="2.64702">
        <ele>403.62</ele>
        <time>2018-07-07T16:58:04.000Z</time>
      </trkpt>
      <trkpt lat="46.33817" lon="2.64711">
        <ele>402.1</ele>
        <time>2018-07-07T16:58:07.000Z</time>
      </trkpt>
      <trkpt lat="46.33827" lon="2.64717">
        <ele>401.58</ele>
        <time>2018-07-07T16:58:10.000Z</time>
      </trkpt>
      <trkpt lat="46.33838" lon="2.64722">
        <ele>401.58</ele>
        <time>2018-07-07T16:58:13.000Z</time>
      </trkpt>
      <trkpt lat="46.33851" lon="2.64726">
        <ele>402.77</ele>
        <time>2018-07-07T16:58:16.000Z</time>
      </trkpt>
      <trkpt lat="46.33864" lon="2.6473">
        <ele>403.97</ele>
        <time>2018-07-07T16:58:19.000Z</time>
      </trkpt>
      <trkpt lat="46.33876" lon="2.64735">
        <ele>404.99</ele>
        <time>2018-07-07T16:58:22.000Z</time>
      </trkpt>
      <trkpt lat="46.33889" lon="2.64739">
        <ele>405.92</ele>
        <time>2018-07-07T16:58:25.000Z</time>
      </trkpt>
      <trkpt lat="46.339" lon="2.64747">
        <ele>406.8</ele>
        <time>2018-07-07T16:58:28.000Z</time>
      </trkpt>
      <trkpt lat="46.33911" lon="2.64757">
        <ele>407.49</ele>
        <time>2018-07-07T16:58:31.000Z</time>
      </trkpt>
      <trkpt lat="46.33922" lon="2.64768">
        <ele>407.84</ele>
        <time>2018-07-07T16:58:34.000Z</time>
      </trkpt>
      <trkpt lat="46.33929" lon="2.64777">
        <ele>407.89</ele>
        <time>2018-07-07T16:58:36.000Z</time>
      </trkpt>
      <trkpt lat="46.33936" lon="2.64786">
        <ele>407.94</ele>
        <time>2018-07-07T16:58:38.000Z</time>
      </trkpt>
      <trkpt lat="46.33944" lon="2.648">
        <ele>408.47</ele>
        <time>2018-07-07T16:58:41.000Z</time>
      </trkpt>
      <trkpt lat="46.33949" lon="2.64812">
        <ele>409.01</ele>
        <time>2018-07-07T16:58:43.000Z</time>
      </trkpt>
      <trkpt lat="46.33954" lon="2.64824">
        <ele>409.79</ele>
        <time>2018-07-07T16:58:45.000Z</time>
      </trkpt>
      <trkpt lat="46.33959" lon="2.64843">
        <ele>411.39</ele>
        <time>2018-07-07T16:58:48.000Z</time>
      </trkpt>
      <trkpt lat="46.33963" lon="2.64857">
        <ele>412.71</ele>
        <time>2018-07-07T16:58:50.000Z</time>
      </trkpt>
      <trkpt lat="46.33967" lon="2.6487">
        <ele>414.1</ele>
        <time>2018-07-07T16:58:52.000Z</time>
      </trkpt>
      <trkpt lat="46.33972" lon="2.64888">
        <ele>415.79</ele>
        <time>2018-07-07T16:58:55.000Z</time>
      </trkpt>
      <trkpt lat="46.33976" lon="2.64905">
        <ele>416.7</ele>
        <time>2018-07-07T16:58:58.000Z</time>
      </trkpt>
      <trkpt lat="46.33979" lon="2.64918">
        <ele>416.99</ele>
        <time>2018-07-07T16:59:00.000Z</time>
      </trkpt>
      <trkpt lat="46.33982" lon="2.64932">
        <ele>417.33</ele>
        <time>2018-07-07T16:59:02.000Z</time>
      </trkpt>
      <trkpt lat="46.33985" lon="2.64945">
        <ele>417.53</ele>
        <time>2018-07-07T16:59:04.000Z</time>
      </trkpt>
      <trkpt lat="46.33989" lon="2.64958">
        <ele>417.73</ele>
        <time>2018-07-07T16:59:06.000Z</time>
      </trkpt>
      <trkpt lat="46.33992" lon="2.6497">
        <ele>417.92</ele>
        <time>2018-07-07T16:59:08.000Z</time>
      </trkpt>
      <trkpt lat="46.33994" lon="2.64983">
        <ele>417.76</ele>
        <time>2018-07-07T16:59:10.000Z</time>
      </trkpt>
      <trkpt lat="46.33997" lon="2.64997">
        <ele>417.55</ele>
        <time>2018-07-07T16:59:12.000Z</time>
      </trkpt>
      <trkpt lat="46.34001" lon="2.6501">
        <ele>416.62</ele>
        <time>2018-07-07T16:59:14.000Z</time>
      </trkpt>
      <trkpt lat="46.34004" lon="2.65023">
        <ele>416.2</ele>
        <time>2018-07-07T16:59:16.000Z</time>
      </trkpt>
      <trkpt lat="46.34007" lon="2.65037">
        <ele>416.46</ele>
        <time>2018-07-07T16:59:18.000Z</time>
      </trkpt>
      <trkpt lat="46.34011" lon="2.65051">
        <ele>416.96</ele>
        <time>2018-07-07T16:59:20.000Z</time>
      </trkpt>
      <trkpt lat="46.34013" lon="2.65064">
        <ele>417.18</ele>
        <time>2018-07-07T16:59:22.000Z</time>
      </trkpt>
      <trkpt lat="46.34016" lon="2.65078">
        <ele>417.31</ele>
        <time>2018-07-07T16:59:24.000Z</time>
      </trkpt>
      <trkpt lat="46.34019" lon="2.65092">
        <ele>417.98</ele>
        <time>2018-07-07T16:59:26.000Z</time>
      </trkpt>
      <trkpt lat="46.34022" lon="2.65106">
        <ele>418.23</ele>
        <time>2018-07-07T16:59:28.000Z</time>
      </trkpt>
      <trkpt lat="46.34025" lon="2.65121">
        <ele>418.53</ele>
        <time>2018-07-07T16:59:30.000Z</time>
      </trkpt>
      <trkpt lat="46.34028" lon="2.65138">
        <ele>418.62</ele>
        <time>2018-07-07T16:59:32.000Z</time>
      </trkpt>
      <trkpt lat="46.34031" lon="2.65154">
        <ele>419.04</ele>
        <time>2018-07-07T16:59:34.000Z</time>
      </trkpt>
      <trkpt lat="46.34035" lon="2.6517">
        <ele>419.59</ele>
        <time>2018-07-07T16:59:36.000Z</time>
      </trkpt>
      <trkpt lat="46.34039" lon="2.65187">
        <ele>419.84</ele>
        <time>2018-07-07T16:59:38.000Z</time>
      </trkpt>
      <trkpt lat="46.34042" lon="2.65202">
        <ele>420.28</ele>
        <time>2018-07-07T16:59:40.000Z</time>
      </trkpt>
      <trkpt lat="46.34046" lon="2.65216">
        <ele>420.69</ele>
        <time>2018-07-07T16:59:42.000Z</time>
      </trkpt>
      <trkpt lat="46.34049" lon="2.65232">
        <ele>420.97</ele>
        <time>2018-07-07T16:59:44.000Z</time>
      </trkpt>
      <trkpt lat="46.34053" lon="2.65249">
        <ele>421.22</ele>
        <time>2018-07-07T16:59:46.000Z</time>
      </trkpt>
      <trkpt lat="46.34056" lon="2.65265">
        <ele>421.46</ele>
        <time>2018-07-07T16:59:48.000Z</time>
      </trkpt>
      <trkpt lat="46.34059" lon="2.65282">
        <ele>421.76</ele>
        <time>2018-07-07T16:59:50.000Z</time>
      </trkpt>
      <trkpt lat="46.34063" lon="2.65301">
        <ele>422.05</ele>
        <time>2018-07-07T16:59:52.000Z</time>
      </trkpt>
      <trkpt lat="46.34066" lon="2.65319">
        <ele>422.41</ele>
        <time>2018-07-07T16:59:54.000Z</time>
      </trkpt>
      <trkpt lat="46.34069" lon="2.65336">
        <ele>422.73</ele>
        <time>2018-07-07T16:59:56.000Z</time>
      </trkpt>
      <trkpt lat="46.34073" lon="2.65355">
        <ele>423.49</ele>
        <time>2018-07-07T16:59:58.000Z</time>
      </trkpt>
      <trkpt lat="46.34074" lon="2.65372">
        <ele>424.51</ele>
        <time>2018-07-07T17:00:00.000Z</time>
      </trkpt>
      <trkpt lat="46.34076" lon="2.6539">
        <ele>425.23</ele>
        <time>2018-07-07T17:00:02.000Z</time>
      </trkpt>
      <trkpt lat="46.34076" lon="2.65408">
        <ele>426.1</ele>
        <time>2018-07-07T17:00:04.000Z</time>
      </trkpt>
      <trkpt lat="46.34074" lon="2.65427">
        <ele>426.99</ele>
        <time>2018-07-07T17:00:06.000Z</time>
      </trkpt>
      <trkpt lat="46.34073" lon="2.65444">
        <ele>428.05</ele>
        <time>2018-07-07T17:00:08.000Z</time>
      </trkpt>
      <trkpt lat="46.34071" lon="2.65461">
        <ele>429.04</ele>
        <time>2018-07-07T17:00:10.000Z</time>
      </trkpt>
      <trkpt lat="46.34068" lon="2.65478">
        <ele>429.83</ele>
        <time>2018-07-07T17:00:12.000Z</time>
      </trkpt>
      <trkpt lat="46.34063" lon="2.65494">
        <ele>430.84</ele>
        <time>2018-07-07T17:00:14.000Z</time>
      </trkpt>
      <trkpt lat="46.34058" lon="2.65509">
        <ele>431.56</ele>
        <time>2018-07-07T17:00:16.000Z</time>
      </trkpt>
      <trkpt lat="46.34053" lon="2.65524">
        <ele>432.11</ele>
        <time>2018-07-07T17:00:18.000Z</time>
      </trkpt>
      <trkpt lat="46.3405" lon="2.65539">
        <ele>432.38</ele>
        <time>2018-07-07T17:00:20.000Z</time>
      </trkpt>
      <trkpt lat="46.34046" lon="2.65556">
        <ele>432.49</ele>
        <time>2018-07-07T17:00:22.000Z</time>
      </trkpt>
      <trkpt lat="46.34042" lon="2.65571">
        <ele>432.73</ele>
        <time>2018-07-07T17:00:24.000Z</time>
      </trkpt>
      <trkpt lat="46.34039" lon="2.65586">
        <ele>433.29</ele>
        <time>2018-07-07T17:00:26.000Z</time>
      </trkpt>
      <trkpt lat="46.34035" lon="2.65602">
        <ele>433.24</ele>
        <time>2018-07-07T17:00:28.000Z</time>
      </trkpt>
      <trkpt lat="46.34031" lon="2.65617">
        <ele>433.26</ele>
        <time>2018-07-07T17:00:29.999Z</time>
      </trkpt>
      <trkpt lat="46.34026" lon="2.65632">
        <ele>433.45</ele>
        <time>2018-07-07T17:00:32.000Z</time>
      </trkpt>
      <trkpt lat="46.34021" lon="2.65647">
        <ele>434.13</ele>
        <time>2018-07-07T17:00:34.000Z</time>
      </trkpt>
      <trkpt lat="46.34016" lon="2.6566">
        <ele>435.43</ele>
        <time>2018-07-07T17:00:36.000Z</time>
      </trkpt>
      <trkpt lat="46.34012" lon="2.65675">
        <ele>436.33</ele>
        <time>2018-07-07T17:00:38.000Z</time>
      </trkpt>
      <trkpt lat="46.34007" lon="2.65689">
        <ele>436.75</ele>
        <time>2018-07-07T17:00:40.000Z</time>
      </trkpt>
      <trkpt lat="46.34002" lon="2.65706">
        <ele>436.67</ele>
        <time>2018-07-07T17:00:42.000Z</time>
      </trkpt>
      <trkpt lat="46.33998" lon="2.65722">
        <ele>436.64</ele>
        <time>2018-07-07T17:00:44.000Z</time>
      </trkpt>
      <trkpt lat="46.33994" lon="2.65738">
        <ele>436.97</ele>
        <time>2018-07-07T17:00:46.000Z</time>
      </trkpt>
      <trkpt lat="46.3399" lon="2.65755">
        <ele>437.36</ele>
        <time>2018-07-07T17:00:48.000Z</time>
      </trkpt>
      <trkpt lat="46.33985" lon="2.65775">
        <ele>436.77</ele>
        <time>2018-07-07T17:00:50.000Z</time>
      </trkpt>
      <trkpt lat="46.3398" lon="2.65795">
        <ele>436.3</ele>
        <time>2018-07-07T17:00:52.000Z</time>
      </trkpt>
      <trkpt lat="46.33974" lon="2.65816">
        <ele>435.28</ele>
        <time>2018-07-07T17:00:54.000Z</time>
      </trkpt>
      <trkpt lat="46.33967" lon="2.65838">
        <ele>434.15</ele>
        <time>2018-07-07T17:00:56.000Z</time>
      </trkpt>
      <trkpt lat="46.33961" lon="2.65858">
        <ele>433.67</ele>
        <time>2018-07-07T17:00:58.000Z</time>
      </trkpt>
      <trkpt lat="46.33955" lon="2.65878">
        <ele>432.83</ele>
        <time>2018-07-07T17:01:00.000Z</time>
      </trkpt>
      <trkpt lat="46.3395" lon="2.65898">
        <ele>431.92</ele>
        <time>2018-07-07T17:01:02.000Z</time>
      </trkpt>
      <trkpt lat="46.33944" lon="2.65918">
        <ele>431.18</ele>
        <time>2018-07-07T17:01:04.000Z</time>
      </trkpt>
      <trkpt lat="46.33939" lon="2.65939">
        <ele>430.31</ele>
        <time>2018-07-07T17:01:06.000Z</time>
      </trkpt>
      <trkpt lat="46.33934" lon="2.65958">
        <ele>429.65</ele>
        <time>2018-07-07T17:01:08.000Z</time>
      </trkpt>
      <trkpt lat="46.33928" lon="2.65975">
        <ele>429.34</ele>
        <time>2018-07-07T17:01:10.000Z</time>
      </trkpt>
      <trkpt lat="46.33923" lon="2.65994">
        <ele>428.93</ele>
        <time>2018-07-07T17:01:12.000Z</time>
      </trkpt>
      <trkpt lat="46.33918" lon="2.66011">
        <ele>428.24</ele>
        <time>2018-07-07T17:01:14.000Z</time>
      </trkpt>
      <trkpt lat="46.33912" lon="2.66028">
        <ele>427.71</ele>
        <time>2018-07-07T17:01:16.000Z</time>
      </trkpt>
      <trkpt lat="46.33909" lon="2.66045">
        <ele>427.69</ele>
        <time>2018-07-07T17:01:18.000Z</time>
      </trkpt>
      <trkpt lat="46.33905" lon="2.66063">
        <ele>427.71</ele>
        <time>2018-07-07T17:01:20.000Z</time>
      </trkpt>
      <trkpt lat="46.33901" lon="2.66079">
        <ele>427.86</ele>
        <time>2018-07-07T17:01:22.000Z</time>
      </trkpt>
      <trkpt lat="46.33897" lon="2.66094">
        <ele>427.97</ele>
        <time>2018-07-07T17:01:24.000Z</time>
      </trkpt>
      <trkpt lat="46.33893" lon="2.6611">
        <ele>428.26</ele>
        <time>2018-07-07T17:01:26.000Z</time>
      </trkpt>
      <trkpt lat="46.33891" lon="2.66127">
        <ele>428.6</ele>
        <time>2018-07-07T17:01:28.000Z</time>
      </trkpt>
      <trkpt lat="46.33888" lon="2.66143">
        <ele>429.18</ele>
        <time>2018-07-07T17:01:30.000Z</time>
      </trkpt>
      <trkpt lat="46.33886" lon="2.6616">
        <ele>429.59</ele>
        <time>2018-07-07T17:01:32.000Z</time>
      </trkpt>
      <trkpt lat="46.33884" lon="2.66177">
        <ele>429.41</ele>
        <time>2018-07-07T17:01:34.000Z</time>
      </trkpt>
      <trkpt lat="46.33881" lon="2.66193">
        <ele>429.1</ele>
        <time>2018-07-07T17:01:36.000Z</time>
      </trkpt>
      <trkpt lat="46.33878" lon="2.6621">
        <ele>429.17</ele>
        <time>2018-07-07T17:01:38.000Z</time>
      </trkpt>
      <trkpt lat="46.33876" lon="2.66226">
        <ele>428.99</ele>
        <time>2018-07-07T17:01:40.000Z</time>
      </trkpt>
      <trkpt lat="46.33874" lon="2.66243">
        <ele>429.07</ele>
        <time>2018-07-07T17:01:42.000Z</time>
      </trkpt>
      <trkpt lat="46.33872" lon="2.6626">
        <ele>429.15</ele>
        <time>2018-07-07T17:01:44.000Z</time>
      </trkpt>
      <trkpt lat="46.3387" lon="2.66277">
        <ele>429.2</ele>
        <time>2018-07-07T17:01:46.000Z</time>
      </trkpt>
      <trkpt lat="46.33868" lon="2.66293">
        <ele>429.15</ele>
        <time>2018-07-07T17:01:48.000Z</time>
      </trkpt>
      <trkpt lat="46.33865" lon="2.66311">
        <ele>429.01</ele>
        <time>2018-07-07T17:01:50.000Z</time>
      </trkpt>
      <trkpt lat="46.33863" lon="2.66328">
        <ele>429.06</ele>
        <time>2018-07-07T17:01:52.000Z</time>
      </trkpt>
      <trkpt lat="46.33862" lon="2.66347">
        <ele>429.24</ele>
        <time>2018-07-07T17:01:54.000Z</time>
      </trkpt>
      <trkpt lat="46.33859" lon="2.66364">
        <ele>429.61</ele>
        <time>2018-07-07T17:01:56.000Z</time>
      </trkpt>
      <trkpt lat="46.33856" lon="2.6638">
        <ele>430.15</ele>
        <time>2018-07-07T17:01:58.000Z</time>
      </trkpt>
      <trkpt lat="46.33853" lon="2.66397">
        <ele>430.54</ele>
        <time>2018-07-07T17:02:00.000Z</time>
      </trkpt>
      <trkpt lat="46.33851" lon="2.66414">
        <ele>430.67</ele>
        <time>2018-07-07T17:02:02.000Z</time>
      </trkpt>
      <trkpt lat="46.33848" lon="2.66432">
        <ele>430.97</ele>
        <time>2018-07-07T17:02:04.000Z</time>
      </trkpt>
      <trkpt lat="46.33846" lon="2.66449">
        <ele>431.29</ele>
        <time>2018-07-07T17:02:06.000Z</time>
      </trkpt>
      <trkpt lat="46.33844" lon="2.66467">
        <ele>431.25</ele>
        <time>2018-07-07T17:02:08.000Z</time>
      </trkpt>
      <trkpt lat="46.33842" lon="2.66484">
        <ele>430.75</ele>
        <time>2018-07-07T17:02:10.000Z</time>
      </trkpt>
      <trkpt lat="46.3384" lon="2.665">
        <ele>429.82</ele>
        <time>2018-07-07T17:02:12.000Z</time>
      </trkpt>
      <trkpt lat="46.33838" lon="2.66517">
        <ele>429.41</ele>
        <time>2018-07-07T17:02:14.000Z</time>
      </trkpt>
      <trkpt lat="46.33836" lon="2.66533">
        <ele>429.93</ele>
        <time>2018-07-07T17:02:16.000Z</time>
      </trkpt>
      <trkpt lat="46.33833" lon="2.6655">
        <ele>430.13</ele>
        <time>2018-07-07T17:02:18.000Z</time>
      </trkpt>
      <trkpt lat="46.3383" lon="2.66567">
        <ele>430.81</ele>
        <time>2018-07-07T17:02:20.000Z</time>
      </trkpt>
      <trkpt lat="46.33828" lon="2.66583">
        <ele>431.42</ele>
        <time>2018-07-07T17:02:22.000Z</time>
      </trkpt>
      <trkpt lat="46.33825" lon="2.666">
        <ele>431.83</ele>
        <time>2018-07-07T17:02:24.000Z</time>
      </trkpt>
      <trkpt lat="46.33823" lon="2.66615">
        <ele>432.57</ele>
        <time>2018-07-07T17:02:26.000Z</time>
      </trkpt>
      <trkpt lat="46.33821" lon="2.6663">
        <ele>432.84</ele>
        <time>2018-07-07T17:02:28.000Z</time>
      </trkpt>
      <trkpt lat="46.33819" lon="2.66645">
        <ele>432.85</ele>
        <time>2018-07-07T17:02:30.000Z</time>
      </trkpt>
      <trkpt lat="46.33817" lon="2.6666">
        <ele>432.92</ele>
        <time>2018-07-07T17:02:32.000Z</time>
      </trkpt>
      <trkpt lat="46.33815" lon="2.66676">
        <ele>432.89</ele>
        <time>2018-07-07T17:02:34.000Z</time>
      </trkpt>
      <trkpt lat="46.33813" lon="2.66691">
        <ele>432.96</ele>
        <time>2018-07-07T17:02:36.000Z</time>
      </trkpt>
      <trkpt lat="46.3381" lon="2.66705">
        <ele>433.22</ele>
        <time>2018-07-07T17:02:38.000Z</time>
      </trkpt>
      <trkpt lat="46.33807" lon="2.66719">
        <ele>433.66</ele>
        <time>2018-07-07T17:02:40.000Z</time>
      </trkpt>
      <trkpt lat="46.33806" lon="2.66735">
        <ele>433.93</ele>
        <time>2018-07-07T17:02:42.000Z</time>
      </trkpt>
      <trkpt lat="46.33804" lon="2.66751">
        <ele>434.73</ele>
        <time>2018-07-07T17:02:44.000Z</time>
      </trkpt>
      <trkpt lat="46.33802" lon="2.66766">
        <ele>435.68</ele>
        <time>2018-07-07T17:02:46.000Z</time>
      </trkpt>
      <trkpt lat="46.33799" lon="2.66781">
        <ele>436.36</ele>
        <time>2018-07-07T17:02:48.000Z</time>
      </trkpt>
      <trkpt lat="46.33797" lon="2.66795">
        <ele>437.43</ele>
        <time>2018-07-07T17:02:50.000Z</time>
      </trkpt>
      <trkpt lat="46.33794" lon="2.66811">
        <ele>437.9</ele>
        <time>2018-07-07T17:02:52.000Z</time>
      </trkpt>
      <trkpt lat="46.33791" lon="2.66828">
        <ele>438.12</ele>
        <time>2018-07-07T17:02:54.000Z</time>
      </trkpt>
      <trkpt lat="46.33789" lon="2.66844">
        <ele>438.35</ele>
        <time>2018-07-07T17:02:56.000Z</time>
      </trkpt>
      <trkpt lat="46.33786" lon="2.6686">
        <ele>438.83</ele>
        <time>2018-07-07T17:02:58.000Z</time>
      </trkpt>
      <trkpt lat="46.33784" lon="2.66876">
        <ele>439.9</ele>
        <time>2018-07-07T17:03:00.000Z</time>
      </trkpt>
      <trkpt lat="46.33781" lon="2.66891">
        <ele>440.93</ele>
        <time>2018-07-07T17:03:02.000Z</time>
      </trkpt>
      <trkpt lat="46.33779" lon="2.66908">
        <ele>442.02</ele>
        <time>2018-07-07T17:03:04.000Z</time>
      </trkpt>
      <trkpt lat="46.33776" lon="2.66925">
        <ele>443.26</ele>
        <time>2018-07-07T17:03:06.000Z</time>
      </trkpt>
      <trkpt lat="46.33773" lon="2.6694">
        <ele>444.71</ele>
        <time>2018-07-07T17:03:08.000Z</time>
      </trkpt>
      <trkpt lat="46.3377" lon="2.66955">
        <ele>445.56</ele>
        <time>2018-07-07T17:03:10.000Z</time>
      </trkpt>
      <trkpt lat="46.33767" lon="2.6697">
        <ele>446.33</ele>
        <time>2018-07-07T17:03:12.000Z</time>
      </trkpt>
      <trkpt lat="46.33764" lon="2.66986">
        <ele>447.12</ele>
        <time>2018-07-07T17:03:14.000Z</time>
      </trkpt>
      <trkpt lat="46.33761" lon="2.67002">
        <ele>447.91</ele>
        <time>2018-07-07T17:03:16.000Z</time>
      </trkpt>
      <trkpt lat="46.33759" lon="2.67019">
        <ele>448.38</ele>
        <time>2018-07-07T17:03:18.000Z</time>
      </trkpt>
      <trkpt lat="46.33756" lon="2.67036">
        <ele>448.78</ele>
        <time>2018-07-07T17:03:20.000Z</time>
      </trkpt>
      <trkpt lat="46.33753" lon="2.67052">
        <ele>449.24</ele>
        <time>2018-07-07T17:03:22.000Z</time>
      </trkpt>
      <trkpt lat="46.33751" lon="2.67069">
        <ele>449.46</ele>
        <time>2018-07-07T17:03:24.000Z</time>
      </trkpt>
      <trkpt lat="46.33749" lon="2.67085">
        <ele>449.21</ele>
        <time>2018-07-07T17:03:26.000Z</time>
      </trkpt>
      <trkpt lat="46.33747" lon="2.67102">
        <ele>448.91</ele>
        <time>2018-07-07T17:03:28.000Z</time>
      </trkpt>
      <trkpt lat="46.33744" lon="2.67118">
        <ele>448.76</ele>
        <time>2018-07-07T17:03:30.000Z</time>
      </trkpt>
      <trkpt lat="46.33741" lon="2.67134">
        <ele>448.89</ele>
        <time>2018-07-07T17:03:32.000Z</time>
      </trkpt>
      <trkpt lat="46.33739" lon="2.67151">
        <ele>448.73</ele>
        <time>2018-07-07T17:03:34.000Z</time>
      </trkpt>
      <trkpt lat="46.33738" lon="2.6717">
        <ele>448.19</ele>
        <time>2018-07-07T17:03:36.000Z</time>
      </trkpt>
      <trkpt lat="46.33736" lon="2.67188">
        <ele>447.25</ele>
        <time>2018-07-07T17:03:38.000Z</time>
      </trkpt>
      <trkpt lat="46.33734" lon="2.67205">
        <ele>446.76</ele>
        <time>2018-07-07T17:03:40.000Z</time>
      </trkpt>
      <trkpt lat="46.33732" lon="2.67222">
        <ele>445.88</ele>
        <time>2018-07-07T17:03:42.000Z</time>
      </trkpt>
      <trkpt lat="46.33731" lon="2.67239">
        <ele>444.68</ele>
        <time>2018-07-07T17:03:44.000Z</time>
      </trkpt>
      <trkpt lat="46.33729" lon="2.67257">
        <ele>443.65</ele>
        <time>2018-07-07T17:03:46.000Z</time>
      </trkpt>
      <trkpt lat="46.33727" lon="2.67275">
        <ele>443.15</ele>
        <time>2018-07-07T17:03:48.000Z</time>
      </trkpt>
      <trkpt lat="46.33725" lon="2.67292">
        <ele>443.02</ele>
        <time>2018-07-07T17:03:50.000Z</time>
      </trkpt>
      <trkpt lat="46.33723" lon="2.67311">
        <ele>443.08</ele>
        <time>2018-07-07T17:03:52.000Z</time>
      </trkpt>
      <trkpt lat="46.33721" lon="2.6733">
        <ele>443.26</ele>
        <time>2018-07-07T17:03:54.000Z</time>
      </trkpt>
      <trkpt lat="46.33719" lon="2.67346">
        <ele>443.51</ele>
        <time>2018-07-07T17:03:56.000Z</time>
      </trkpt>
      <trkpt lat="46.33715" lon="2.67362">
        <ele>444.05</ele>
        <time>2018-07-07T17:03:58.000Z</time>
      </trkpt>
      <trkpt lat="46.33712" lon="2.6738">
        <ele>444.91</ele>
        <time>2018-07-07T17:04:00.000Z</time>
      </trkpt>
      <trkpt lat="46.33711" lon="2.67397">
        <ele>445.94</ele>
        <time>2018-07-07T17:04:02.000Z</time>
      </trkpt>
      <trkpt lat="46.33709" lon="2.67414">
        <ele>446.8</ele>
        <time>2018-07-07T17:04:04.000Z</time>
      </trkpt>
      <trkpt lat="46.33706" lon="2.67432">
        <ele>447.43</ele>
        <time>2018-07-07T17:04:06.000Z</time>
      </trkpt>
      <trkpt lat="46.33703" lon="2.67449">
        <ele>448.01</ele>
        <time>2018-07-07T17:04:08.000Z</time>
      </trkpt>
      <trkpt lat="46.337" lon="2.67467">
        <ele>448.84</ele>
        <time>2018-07-07T17:04:10.000Z</time>
      </trkpt>
      <trkpt lat="46.33697" lon="2.67485">
        <ele>449.92</ele>
        <time>2018-07-07T17:04:12.000Z</time>
      </trkpt>
      <trkpt lat="46.33694" lon="2.67502">
        <ele>451.31</ele>
        <time>2018-07-07T17:04:14.000Z</time>
      </trkpt>
      <trkpt lat="46.33691" lon="2.67521">
        <ele>452.32</ele>
        <time>2018-07-07T17:04:16.000Z</time>
      </trkpt>
      <trkpt lat="46.33688" lon="2.67538">
        <ele>453.19</ele>
        <time>2018-07-07T17:04:18.000Z</time>
      </trkpt>
      <trkpt lat="46.33685" lon="2.67555">
        <ele>454.25</ele>
        <time>2018-07-07T17:04:20.000Z</time>
      </trkpt>
      <trkpt lat="46.33682" lon="2.67571">
        <ele>455.43</ele>
        <time>2018-07-07T17:04:22.000Z</time>
      </trkpt>
      <trkpt lat="46.33679" lon="2.67588">
        <ele>456.5</ele>
        <time>2018-07-07T17:04:24.000Z</time>
      </trkpt>
      <trkpt lat="46.33676" lon="2.67606">
        <ele>457.48</ele>
        <time>2018-07-07T17:04:26.000Z</time>
      </trkpt>
      <trkpt lat="46.33674" lon="2.67625">
        <ele>457.82</ele>
        <time>2018-07-07T17:04:28.000Z</time>
      </trkpt>
      <trkpt lat="46.33671" lon="2.67644">
        <ele>457.72</ele>
        <time>2018-07-07T17:04:30.000Z</time>
      </trkpt>
      <trkpt lat="46.33669" lon="2.67664">
        <ele>457.29</ele>
        <time>2018-07-07T17:04:32.000Z</time>
      </trkpt>
      <trkpt lat="46.33667" lon="2.67685">
        <ele>456.54</ele>
        <time>2018-07-07T17:04:34.000Z</time>
      </trkpt>
      <trkpt lat="46.33665" lon="2.67707">
        <ele>455.51</ele>
        <time>2018-07-07T17:04:36.000Z</time>
      </trkpt>
      <trkpt lat="46.33663" lon="2.67728">
        <ele>454.31</ele>
        <time>2018-07-07T17:04:38.000Z</time>
      </trkpt>
      <trkpt lat="46.33659" lon="2.67751">
        <ele>452.82</ele>
        <time>2018-07-07T17:04:40.000Z</time>
      </trkpt>
      <trkpt lat="46.33657" lon="2.67775">
        <ele>451.4</ele>
        <time>2018-07-07T17:04:42.000Z</time>
      </trkpt>
      <trkpt lat="46.33654" lon="2.67798">
        <ele>450.24</ele>
        <time>2018-07-07T17:04:44.000Z</time>
      </trkpt>
      <trkpt lat="46.33651" lon="2.67821">
        <ele>449.37</ele>
        <time>2018-07-07T17:04:46.000Z</time>
      </trkpt>
      <trkpt lat="46.33648" lon="2.67844">
        <ele>448.6</ele>
        <time>2018-07-07T17:04:48.000Z</time>
      </trkpt>
      <trkpt lat="46.33644" lon="2.67866">
        <ele>447.96</ele>
        <time>2018-07-07T17:04:50.000Z</time>
      </trkpt>
      <trkpt lat="46.33641" lon="2.67887">
        <ele>447.03</ele>
        <time>2018-07-07T17:04:52.000Z</time>
      </trkpt>
      <trkpt lat="46.33639" lon="2.67909">
        <ele>446.7</ele>
        <time>2018-07-07T17:04:54.000Z</time>
      </trkpt>
      <trkpt lat="46.33637" lon="2.67931">
        <ele>446</ele>
        <time>2018-07-07T17:04:56.000Z</time>
      </trkpt>
      <trkpt lat="46.33633" lon="2.67954">
        <ele>444.9</ele>
        <time>2018-07-07T17:04:58.000Z</time>
      </trkpt>
      <trkpt lat="46.3363" lon="2.67977">
        <ele>444.23</ele>
        <time>2018-07-07T17:05:00.000Z</time>
      </trkpt>
      <trkpt lat="46.33626" lon="2.68">
        <ele>443.78</ele>
        <time>2018-07-07T17:05:02.000Z</time>
      </trkpt>
      <trkpt lat="46.33624" lon="2.68023">
        <ele>443.32</ele>
        <time>2018-07-07T17:05:04.000Z</time>
      </trkpt>
      <trkpt lat="46.33622" lon="2.68036">
        <ele>442.98</ele>
        <time>2018-07-07T17:05:05.000Z</time>
      </trkpt>
      <trkpt lat="46.3362" lon="2.6805">
        <ele>442.61</ele>
        <time>2018-07-07T17:05:06.000Z</time>
      </trkpt>
      <trkpt lat="46.33618" lon="2.68063">
        <ele>442.27</ele>
        <time>2018-07-07T17:05:07.000Z</time>
      </trkpt>
      <trkpt lat="46.33617" lon="2.68077">
        <ele>441.95</ele>
        <time>2018-07-07T17:05:08.000Z</time>
      </trkpt>
      <trkpt lat="46.33615" lon="2.68091">
        <ele>441.74</ele>
        <time>2018-07-07T17:05:09.000Z</time>
      </trkpt>
      <trkpt lat="46.33613" lon="2.68106">
        <ele>441.39</ele>
        <time>2018-07-07T17:05:10.000Z</time>
      </trkpt>
      <trkpt lat="46.33611" lon="2.6812">
        <ele>441.13</ele>
        <time>2018-07-07T17:05:11.000Z</time>
      </trkpt>
      <trkpt lat="46.33609" lon="2.68134">
        <ele>440.79</ele>
        <time>2018-07-07T17:05:12.000Z</time>
      </trkpt>
      <trkpt lat="46.33606" lon="2.68148">
        <ele>440.43</ele>
        <time>2018-07-07T17:05:13.000Z</time>
      </trkpt>
      <trkpt lat="46.33604" lon="2.68163">
        <ele>440.15</ele>
        <time>2018-07-07T17:05:14.000Z</time>
      </trkpt>
      <trkpt lat="46.33602" lon="2.68177">
        <ele>439.96</ele>
        <time>2018-07-07T17:05:15.000Z</time>
      </trkpt>
      <trkpt lat="46.336" lon="2.68191">
        <ele>439.89</ele>
        <time>2018-07-07T17:05:16.000Z</time>
      </trkpt>
      <trkpt lat="46.33598" lon="2.68206">
        <ele>440.14</ele>
        <time>2018-07-07T17:05:17.000Z</time>
      </trkpt>
      <trkpt lat="46.33597" lon="2.6822">
        <ele>440.08</ele>
        <time>2018-07-07T17:05:18.000Z</time>
      </trkpt>
      <trkpt lat="46.33595" lon="2.68234">
        <ele>439.79</ele>
        <time>2018-07-07T17:05:19.000Z</time>
      </trkpt>
      <trkpt lat="46.33593" lon="2.68248">
        <ele>439.56</ele>
        <time>2018-07-07T17:05:20.000Z</time>
      </trkpt>
      <trkpt lat="46.33589" lon="2.68272">
        <ele>439.44</ele>
        <time>2018-07-07T17:05:22.000Z</time>
      </trkpt>
      <trkpt lat="46.33587" lon="2.68297">
        <ele>439.7</ele>
        <time>2018-07-07T17:05:24.000Z</time>
      </trkpt>
      <trkpt lat="46.33584" lon="2.68319">
        <ele>439.46</ele>
        <time>2018-07-07T17:05:26.000Z</time>
      </trkpt>
      <trkpt lat="46.3358" lon="2.68339">
        <ele>439.53</ele>
        <time>2018-07-07T17:05:28.000Z</time>
      </trkpt>
      <trkpt lat="46.33577" lon="2.68358">
        <ele>439.77</ele>
        <time>2018-07-07T17:05:30.000Z</time>
      </trkpt>
      <trkpt lat="46.33575" lon="2.68376">
        <ele>440.17</ele>
        <time>2018-07-07T17:05:32.000Z</time>
      </trkpt>
      <trkpt lat="46.33573" lon="2.68392">
        <ele>440.41</ele>
        <time>2018-07-07T17:05:34.000Z</time>
      </trkpt>
      <trkpt lat="46.33571" lon="2.68407">
        <ele>440.83</ele>
        <time>2018-07-07T17:05:36.000Z</time>
      </trkpt>
      <trkpt lat="46.33569" lon="2.68423">
        <ele>441.24</ele>
        <time>2018-07-07T17:05:38.000Z</time>
      </trkpt>
      <trkpt lat="46.33566" lon="2.68438">
        <ele>441.56</ele>
        <time>2018-07-07T17:05:40.000Z</time>
      </trkpt>
      <trkpt lat="46.33562" lon="2.68454">
        <ele>441.68</ele>
        <time>2018-07-07T17:05:42.000Z</time>
      </trkpt>
      <trkpt lat="46.33559" lon="2.68471">
        <ele>442.04</ele>
        <time>2018-07-07T17:05:44.000Z</time>
      </trkpt>
      <trkpt lat="46.33556" lon="2.68488">
        <ele>442.19</ele>
        <time>2018-07-07T17:05:46.000Z</time>
      </trkpt>
      <trkpt lat="46.33554" lon="2.68505">
        <ele>442.12</ele>
        <time>2018-07-07T17:05:48.000Z</time>
      </trkpt>
      <trkpt lat="46.33552" lon="2.68521">
        <ele>442.15</ele>
        <time>2018-07-07T17:05:50.000Z</time>
      </trkpt>
      <trkpt lat="46.3355" lon="2.68537">
        <ele>442.07</ele>
        <time>2018-07-07T17:05:52.000Z</time>
      </trkpt>
      <trkpt lat="46.33548" lon="2.68554">
        <ele>441.91</ele>
        <time>2018-07-07T17:05:54.000Z</time>
      </trkpt>
      <trkpt lat="46.33545" lon="2.68569">
        <ele>441.96</ele>
        <time>2018-07-07T17:05:56.000Z</time>
      </trkpt>
      <trkpt lat="46.33543" lon="2.68584">
        <ele>441.99</ele>
        <time>2018-07-07T17:05:58.000Z</time>
      </trkpt>
      <trkpt lat="46.33542" lon="2.686">
        <ele>442.35</ele>
        <time>2018-07-07T17:06:00.000Z</time>
      </trkpt>
      <trkpt lat="46.3354" lon="2.68617">
        <ele>442.48</ele>
        <time>2018-07-07T17:06:02.000Z</time>
      </trkpt>
      <trkpt lat="46.33537" lon="2.68633">
        <ele>442.69</ele>
        <time>2018-07-07T17:06:04.000Z</time>
      </trkpt>
      <trkpt lat="46.33535" lon="2.68648">
        <ele>442.62</ele>
        <time>2018-07-07T17:06:06.000Z</time>
      </trkpt>
      <trkpt lat="46.33532" lon="2.68663">
        <ele>442.85</ele>
        <time>2018-07-07T17:06:08.000Z</time>
      </trkpt>
      <trkpt lat="46.3353" lon="2.6868">
        <ele>442.35</ele>
        <time>2018-07-07T17:06:10.000Z</time>
      </trkpt>
      <trkpt lat="46.33527" lon="2.68696">
        <ele>441.76</ele>
        <time>2018-07-07T17:06:12.000Z</time>
      </trkpt>
      <trkpt lat="46.33525" lon="2.68712">
        <ele>441.22</ele>
        <time>2018-07-07T17:06:14.000Z</time>
      </trkpt>
      <trkpt lat="46.33523" lon="2.6873">
        <ele>440.68</ele>
        <time>2018-07-07T17:06:16.000Z</time>
      </trkpt>
      <trkpt lat="46.33521" lon="2.68749">
        <ele>440.27</ele>
        <time>2018-07-07T17:06:18.000Z</time>
      </trkpt>
      <trkpt lat="46.33518" lon="2.68768">
        <ele>440</ele>
        <time>2018-07-07T17:06:20.000Z</time>
      </trkpt>
      <trkpt lat="46.33515" lon="2.68785">
        <ele>439.71</ele>
        <time>2018-07-07T17:06:22.000Z</time>
      </trkpt>
      <trkpt lat="46.33514" lon="2.68803">
        <ele>439.33</ele>
        <time>2018-07-07T17:06:24.000Z</time>
      </trkpt>
      <trkpt lat="46.33512" lon="2.6882">
        <ele>439.05</ele>
        <time>2018-07-07T17:06:26.000Z</time>
      </trkpt>
      <trkpt lat="46.3351" lon="2.68837">
        <ele>438.62</ele>
        <time>2018-07-07T17:06:28.000Z</time>
      </trkpt>
      <trkpt lat="46.33508" lon="2.68855">
        <ele>438.43</ele>
        <time>2018-07-07T17:06:30.000Z</time>
      </trkpt>
      <trkpt lat="46.33506" lon="2.68873">
        <ele>438.24</ele>
        <time>2018-07-07T17:06:32.000Z</time>
      </trkpt>
      <trkpt lat="46.33503" lon="2.68892">
        <ele>437.83</ele>
        <time>2018-07-07T17:06:34.000Z</time>
      </trkpt>
      <trkpt lat="46.33501" lon="2.6891">
        <ele>437.2</ele>
        <time>2018-07-07T17:06:36.000Z</time>
      </trkpt>
      <trkpt lat="46.33498" lon="2.6893">
        <ele>436.36</ele>
        <time>2018-07-07T17:06:38.000Z</time>
      </trkpt>
      <trkpt lat="46.33495" lon="2.68952">
        <ele>435.59</ele>
        <time>2018-07-07T17:06:40.000Z</time>
      </trkpt>
      <trkpt lat="46.33492" lon="2.68975">
        <ele>434.92</ele>
        <time>2018-07-07T17:06:42.000Z</time>
      </trkpt>
      <trkpt lat="46.33488" lon="2.68999">
        <ele>433.71</ele>
        <time>2018-07-07T17:06:44.000Z</time>
      </trkpt>
      <trkpt lat="46.33484" lon="2.69025">
        <ele>432.65</ele>
        <time>2018-07-07T17:06:46.000Z</time>
      </trkpt>
      <trkpt lat="46.33482" lon="2.69038">
        <ele>432.17</ele>
        <time>2018-07-07T17:06:47.000Z</time>
      </trkpt>
      <trkpt lat="46.3348" lon="2.69053">
        <ele>431.59</ele>
        <time>2018-07-07T17:06:48.000Z</time>
      </trkpt>
      <trkpt lat="46.33477" lon="2.69067">
        <ele>431.19</ele>
        <time>2018-07-07T17:06:49.000Z</time>
      </trkpt>
      <trkpt lat="46.33476" lon="2.69081">
        <ele>430.64</ele>
        <time>2018-07-07T17:06:50.000Z</time>
      </trkpt>
      <trkpt lat="46.33474" lon="2.69095">
        <ele>430.27</ele>
        <time>2018-07-07T17:06:51.000Z</time>
      </trkpt>
      <trkpt lat="46.33472" lon="2.6911">
        <ele>430.04</ele>
        <time>2018-07-07T17:06:52.000Z</time>
      </trkpt>
      <trkpt lat="46.33469" lon="2.69125">
        <ele>430.13</ele>
        <time>2018-07-07T17:06:53.000Z</time>
      </trkpt>
      <trkpt lat="46.33467" lon="2.69139">
        <ele>430.12</ele>
        <time>2018-07-07T17:06:54.000Z</time>
      </trkpt>
      <trkpt lat="46.33464" lon="2.69154">
        <ele>429.97</ele>
        <time>2018-07-07T17:06:55.000Z</time>
      </trkpt>
      <trkpt lat="46.33463" lon="2.69169">
        <ele>429.71</ele>
        <time>2018-07-07T17:06:56.000Z</time>
      </trkpt>
      <trkpt lat="46.3346" lon="2.69183">
        <ele>429.47</ele>
        <time>2018-07-07T17:06:57.000Z</time>
      </trkpt>
      <trkpt lat="46.33458" lon="2.69198">
        <ele>429.15</ele>
        <time>2018-07-07T17:06:58.000Z</time>
      </trkpt>
      <trkpt lat="46.33455" lon="2.69212">
        <ele>429.07</ele>
        <time>2018-07-07T17:06:59.000Z</time>
      </trkpt>
      <trkpt lat="46.33453" lon="2.69226">
        <ele>428.92</ele>
        <time>2018-07-07T17:07:00.000Z</time>
      </trkpt>
      <trkpt lat="46.3345" lon="2.69239">
        <ele>429</ele>
        <time>2018-07-07T17:07:01.000Z</time>
      </trkpt>
      <trkpt lat="46.33448" lon="2.69252">
        <ele>428.99</ele>
        <time>2018-07-07T17:07:02.000Z</time>
      </trkpt>
      <trkpt lat="46.33446" lon="2.69267">
        <ele>428.89</ele>
        <time>2018-07-07T17:07:03.000Z</time>
      </trkpt>
      <trkpt lat="46.33444" lon="2.69281">
        <ele>428.89</ele>
        <time>2018-07-07T17:07:04.000Z</time>
      </trkpt>
      <trkpt lat="46.33442" lon="2.69296">
        <ele>428.88</ele>
        <time>2018-07-07T17:07:05.000Z</time>
      </trkpt>
      <trkpt lat="46.33439" lon="2.69311">
        <ele>428.86</ele>
        <time>2018-07-07T17:07:06.000Z</time>
      </trkpt>
      <trkpt lat="46.33437" lon="2.69326">
        <ele>428.62</ele>
        <time>2018-07-07T17:07:07.000Z</time>
      </trkpt>
      <trkpt lat="46.33435" lon="2.69341">
        <ele>428.57</ele>
        <time>2018-07-07T17:07:08.000Z</time>
      </trkpt>
      <trkpt lat="46.33433" lon="2.69357">
        <ele>428.35</ele>
        <time>2018-07-07T17:07:09.000Z</time>
      </trkpt>
      <trkpt lat="46.33431" lon="2.69372">
        <ele>428.25</ele>
        <time>2018-07-07T17:07:10.000Z</time>
      </trkpt>
      <trkpt lat="46.33429" lon="2.69388">
        <ele>428.1</ele>
        <time>2018-07-07T17:07:11.000Z</time>
      </trkpt>
      <trkpt lat="46.33427" lon="2.69404">
        <ele>427.63</ele>
        <time>2018-07-07T17:07:12.000Z</time>
      </trkpt>
      <trkpt lat="46.33424" lon="2.6942">
        <ele>427.19</ele>
        <time>2018-07-07T17:07:13.000Z</time>
      </trkpt>
      <trkpt lat="46.33422" lon="2.69437">
        <ele>426.66</ele>
        <time>2018-07-07T17:07:14.000Z</time>
      </trkpt>
      <trkpt lat="46.33419" lon="2.69454">
        <ele>426.14</ele>
        <time>2018-07-07T17:07:15.000Z</time>
      </trkpt>
      <trkpt lat="46.33417" lon="2.69471">
        <ele>425.38</ele>
        <time>2018-07-07T17:07:16.000Z</time>
      </trkpt>
      <trkpt lat="46.33415" lon="2.69489">
        <ele>424.72</ele>
        <time>2018-07-07T17:07:17.000Z</time>
      </trkpt>
      <trkpt lat="46.33413" lon="2.69506">
        <ele>424.05</ele>
        <time>2018-07-07T17:07:18.000Z</time>
      </trkpt>
      <trkpt lat="46.3341" lon="2.69524">
        <ele>423.54</ele>
        <time>2018-07-07T17:07:19.000Z</time>
      </trkpt>
      <trkpt lat="46.33408" lon="2.69541">
        <ele>422.65</ele>
        <time>2018-07-07T17:07:20.000Z</time>
      </trkpt>
      <trkpt lat="46.33406" lon="2.69559">
        <ele>421.87</ele>
        <time>2018-07-07T17:07:21.000Z</time>
      </trkpt>
      <trkpt lat="46.33405" lon="2.69576">
        <ele>421.28</ele>
        <time>2018-07-07T17:07:22.000Z</time>
      </trkpt>
      <trkpt lat="46.33402" lon="2.69593">
        <ele>420.99</ele>
        <time>2018-07-07T17:07:23.000Z</time>
      </trkpt>
      <trkpt lat="46.334" lon="2.6961">
        <ele>420.58</ele>
        <time>2018-07-07T17:07:24.000Z</time>
      </trkpt>
      <trkpt lat="46.33397" lon="2.69626">
        <ele>420.32</ele>
        <time>2018-07-07T17:07:25.000Z</time>
      </trkpt>
      <trkpt lat="46.33395" lon="2.69643">
        <ele>419.97</ele>
        <time>2018-07-07T17:07:26.000Z</time>
      </trkpt>
      <trkpt lat="46.33392" lon="2.6966">
        <ele>419.53</ele>
        <time>2018-07-07T17:07:27.000Z</time>
      </trkpt>
      <trkpt lat="46.3339" lon="2.69678">
        <ele>419.09</ele>
        <time>2018-07-07T17:07:28.000Z</time>
      </trkpt>
      <trkpt lat="46.33387" lon="2.69695">
        <ele>418.65</ele>
        <time>2018-07-07T17:07:29.000Z</time>
      </trkpt>
      <trkpt lat="46.33384" lon="2.69713">
        <ele>417.99</ele>
        <time>2018-07-07T17:07:30.000Z</time>
      </trkpt>
      <trkpt lat="46.33382" lon="2.6973">
        <ele>417.52</ele>
        <time>2018-07-07T17:07:31.000Z</time>
      </trkpt>
      <trkpt lat="46.33379" lon="2.69747">
        <ele>417.05</ele>
        <time>2018-07-07T17:07:32.000Z</time>
      </trkpt>
      <trkpt lat="46.33377" lon="2.69764">
        <ele>416.04</ele>
        <time>2018-07-07T17:07:33.000Z</time>
      </trkpt>
      <trkpt lat="46.33374" lon="2.69781">
        <ele>414.95</ele>
        <time>2018-07-07T17:07:34.000Z</time>
      </trkpt>
      <trkpt lat="46.33372" lon="2.69798">
        <ele>414.31</ele>
        <time>2018-07-07T17:07:35.000Z</time>
      </trkpt>
      <trkpt lat="46.3337" lon="2.69815">
        <ele>413.57</ele>
        <time>2018-07-07T17:07:36.000Z</time>
      </trkpt>
      <trkpt lat="46.33369" lon="2.69831">
        <ele>413.01</ele>
        <time>2018-07-07T17:07:37.000Z</time>
      </trkpt>
      <trkpt lat="46.33367" lon="2.69847">
        <ele>412.43</ele>
        <time>2018-07-07T17:07:38.000Z</time>
      </trkpt>
      <trkpt lat="46.33365" lon="2.69863">
        <ele>411.73</ele>
        <time>2018-07-07T17:07:39.000Z</time>
      </trkpt>
      <trkpt lat="46.33363" lon="2.69877">
        <ele>411.31</ele>
        <time>2018-07-07T17:07:40.000Z</time>
      </trkpt>
      <trkpt lat="46.3336" lon="2.69892">
        <ele>411.04</ele>
        <time>2018-07-07T17:07:41.000Z</time>
      </trkpt>
      <trkpt lat="46.33358" lon="2.69906">
        <ele>410.82</ele>
        <time>2018-07-07T17:07:42.000Z</time>
      </trkpt>
      <trkpt lat="46.33355" lon="2.6992">
        <ele>410.7</ele>
        <time>2018-07-07T17:07:43.000Z</time>
      </trkpt>
      <trkpt lat="46.33353" lon="2.69934">
        <ele>410.8</ele>
        <time>2018-07-07T17:07:44.000Z</time>
      </trkpt>
      <trkpt lat="46.33351" lon="2.69947">
        <ele>410.94</ele>
        <time>2018-07-07T17:07:45.000Z</time>
      </trkpt>
      <trkpt lat="46.33349" lon="2.69962">
        <ele>410.83</ele>
        <time>2018-07-07T17:07:46.000Z</time>
      </trkpt>
      <trkpt lat="46.33347" lon="2.69976">
        <ele>410.6</ele>
        <time>2018-07-07T17:07:47.000Z</time>
      </trkpt>
      <trkpt lat="46.33346" lon="2.6999">
        <ele>410.59</ele>
        <time>2018-07-07T17:07:48.000Z</time>
      </trkpt>
      <trkpt lat="46.33344" lon="2.70004">
        <ele>410.29</ele>
        <time>2018-07-07T17:07:49.000Z</time>
      </trkpt>
      <trkpt lat="46.33342" lon="2.70017">
        <ele>410.15</ele>
        <time>2018-07-07T17:07:50.000Z</time>
      </trkpt>
      <trkpt lat="46.3334" lon="2.7003">
        <ele>409.97</ele>
        <time>2018-07-07T17:07:51.000Z</time>
      </trkpt>
      <trkpt lat="46.33338" lon="2.70043">
        <ele>409.66</ele>
        <time>2018-07-07T17:07:52.000Z</time>
      </trkpt>
      <trkpt lat="46.33336" lon="2.70056">
        <ele>409.42</ele>
        <time>2018-07-07T17:07:53.000Z</time>
      </trkpt>
      <trkpt lat="46.33333" lon="2.7008">
        <ele>408.69</ele>
        <time>2018-07-07T17:07:55.000Z</time>
      </trkpt>
      <trkpt lat="46.33331" lon="2.70104">
        <ele>407.86</ele>
        <time>2018-07-07T17:07:57.000Z</time>
      </trkpt>
      <trkpt lat="46.33329" lon="2.70129">
        <ele>407.31</ele>
        <time>2018-07-07T17:07:59.000Z</time>
      </trkpt>
      <trkpt lat="46.33324" lon="2.70152">
        <ele>406.92</ele>
        <time>2018-07-07T17:08:01.000Z</time>
      </trkpt>
      <trkpt lat="46.33321" lon="2.70173">
        <ele>406.92</ele>
        <time>2018-07-07T17:08:03.000Z</time>
      </trkpt>
      <trkpt lat="46.33324" lon="2.70194">
        <ele>407.19</ele>
        <time>2018-07-07T17:08:05.000Z</time>
      </trkpt>
      <trkpt lat="46.33326" lon="2.70216">
        <ele>407.11</ele>
        <time>2018-07-07T17:08:07.000Z</time>
      </trkpt>
      <trkpt lat="46.33327" lon="2.70239">
        <ele>407.05</ele>
        <time>2018-07-07T17:08:09.000Z</time>
      </trkpt>
      <trkpt lat="46.33328" lon="2.70263">
        <ele>406.91</ele>
        <time>2018-07-07T17:08:11.000Z</time>
      </trkpt>
      <trkpt lat="46.33328" lon="2.70287">
        <ele>406.95</ele>
        <time>2018-07-07T17:08:13.000Z</time>
      </trkpt>
      <trkpt lat="46.3333" lon="2.70311">
        <ele>406.57</ele>
        <time>2018-07-07T17:08:15.000Z</time>
      </trkpt>
      <trkpt lat="46.33331" lon="2.70334">
        <ele>406.07</ele>
        <time>2018-07-07T17:08:17.000Z</time>
      </trkpt>
      <trkpt lat="46.33331" lon="2.70358">
        <ele>405.77</ele>
        <time>2018-07-07T17:08:19.000Z</time>
      </trkpt>
      <trkpt lat="46.33333" lon="2.7038">
        <ele>405.11</ele>
        <time>2018-07-07T17:08:21.000Z</time>
      </trkpt>
      <trkpt lat="46.33333" lon="2.70402">
        <ele>404.57</ele>
        <time>2018-07-07T17:08:23.000Z</time>
      </trkpt>
      <trkpt lat="46.33331" lon="2.70423">
        <ele>404.18</ele>
        <time>2018-07-07T17:08:25.000Z</time>
      </trkpt>
      <trkpt lat="46.33329" lon="2.70444">
        <ele>403.79</ele>
        <time>2018-07-07T17:08:27.000Z</time>
      </trkpt>
      <trkpt lat="46.33328" lon="2.70467">
        <ele>402.97</ele>
        <time>2018-07-07T17:08:29.000Z</time>
      </trkpt>
      <trkpt lat="46.33326" lon="2.70488">
        <ele>402.27</ele>
        <time>2018-07-07T17:08:31.000Z</time>
      </trkpt>
      <trkpt lat="46.33324" lon="2.7051">
        <ele>401.97</ele>
        <time>2018-07-07T17:08:33.000Z</time>
      </trkpt>
      <trkpt lat="46.33323" lon="2.70533">
        <ele>401.51</ele>
        <time>2018-07-07T17:08:35.000Z</time>
      </trkpt>
      <trkpt lat="46.33321" lon="2.70555">
        <ele>400.94</ele>
        <time>2018-07-07T17:08:37.000Z</time>
      </trkpt>
      <trkpt lat="46.33318" lon="2.70579">
        <ele>400.46</ele>
        <time>2018-07-07T17:08:39.000Z</time>
      </trkpt>
      <trkpt lat="46.33316" lon="2.70603">
        <ele>399.47</ele>
        <time>2018-07-07T17:08:41.000Z</time>
      </trkpt>
      <trkpt lat="46.33314" lon="2.70628">
        <ele>398.5</ele>
        <time>2018-07-07T17:08:43.000Z</time>
      </trkpt>
      <trkpt lat="46.33312" lon="2.70652">
        <ele>397.58</ele>
        <time>2018-07-07T17:08:45.000Z</time>
      </trkpt>
      <trkpt lat="46.33311" lon="2.70677">
        <ele>396.68</ele>
        <time>2018-07-07T17:08:47.000Z</time>
      </trkpt>
      <trkpt lat="46.33309" lon="2.70701">
        <ele>396.51</ele>
        <time>2018-07-07T17:08:49.000Z</time>
      </trkpt>
      <trkpt lat="46.33307" lon="2.70724">
        <ele>395.99</ele>
        <time>2018-07-07T17:08:51.000Z</time>
      </trkpt>
      <trkpt lat="46.33305" lon="2.70747">
        <ele>394.79</ele>
        <time>2018-07-07T17:08:53.000Z</time>
      </trkpt>
      <trkpt lat="46.33302" lon="2.70771">
        <ele>393.7</ele>
        <time>2018-07-07T17:08:55.000Z</time>
      </trkpt>
      <trkpt lat="46.33301" lon="2.70795">
        <ele>392.82</ele>
        <time>2018-07-07T17:08:57.000Z</time>
      </trkpt>
      <trkpt lat="46.33299" lon="2.70818">
        <ele>391.86</ele>
        <time>2018-07-07T17:08:59.000Z</time>
      </trkpt>
      <trkpt lat="46.33297" lon="2.70843">
        <ele>390.75</ele>
        <time>2018-07-07T17:09:01.000Z</time>
      </trkpt>
      <trkpt lat="46.33295" lon="2.70868">
        <ele>389.64</ele>
        <time>2018-07-07T17:09:03.000Z</time>
      </trkpt>
      <trkpt lat="46.33292" lon="2.70893">
        <ele>388.72</ele>
        <time>2018-07-07T17:09:05.000Z</time>
      </trkpt>
      <trkpt lat="46.3329" lon="2.70918">
        <ele>387.69</ele>
        <time>2018-07-07T17:09:07.000Z</time>
      </trkpt>
      <trkpt lat="46.33287" lon="2.70943">
        <ele>387.2</ele>
        <time>2018-07-07T17:09:09.000Z</time>
      </trkpt>
      <trkpt lat="46.33284" lon="2.70968">
        <ele>387.49</ele>
        <time>2018-07-07T17:09:11.000Z</time>
      </trkpt>
      <trkpt lat="46.33283" lon="2.70981">
        <ele>387.55</ele>
        <time>2018-07-07T17:09:12.000Z</time>
      </trkpt>
      <trkpt lat="46.33282" lon="2.70994">
        <ele>387.57</ele>
        <time>2018-07-07T17:09:13.000Z</time>
      </trkpt>
      <trkpt lat="46.33281" lon="2.71007">
        <ele>387.49</ele>
        <time>2018-07-07T17:09:14.000Z</time>
      </trkpt>
      <trkpt lat="46.33279" lon="2.71032">
        <ele>387.43</ele>
        <time>2018-07-07T17:09:16.000Z</time>
      </trkpt>
      <trkpt lat="46.33276" lon="2.71056">
        <ele>387.1</ele>
        <time>2018-07-07T17:09:18.000Z</time>
      </trkpt>
      <trkpt lat="46.33273" lon="2.7108">
        <ele>386.6</ele>
        <time>2018-07-07T17:09:20.000Z</time>
      </trkpt>
      <trkpt lat="46.33271" lon="2.71105">
        <ele>386.27</ele>
        <time>2018-07-07T17:09:22.000Z</time>
      </trkpt>
      <trkpt lat="46.3327" lon="2.71119">
        <ele>386.24</ele>
        <time>2018-07-07T17:09:23.000Z</time>
      </trkpt>
      <trkpt lat="46.33269" lon="2.71132">
        <ele>386.22</ele>
        <time>2018-07-07T17:09:24.000Z</time>
      </trkpt>
      <trkpt lat="46.33268" lon="2.71145">
        <ele>386.41</ele>
        <time>2018-07-07T17:09:25.000Z</time>
      </trkpt>
      <trkpt lat="46.33266" lon="2.71159">
        <ele>386.67</ele>
        <time>2018-07-07T17:09:26.000Z</time>
      </trkpt>
      <trkpt lat="46.33265" lon="2.71172">
        <ele>386.84</ele>
        <time>2018-07-07T17:09:27.000Z</time>
      </trkpt>
      <trkpt lat="46.33264" lon="2.71186">
        <ele>386.52</ele>
        <time>2018-07-07T17:09:28.000Z</time>
      </trkpt>
      <trkpt lat="46.33263" lon="2.71199">
        <ele>386.33</ele>
        <time>2018-07-07T17:09:29.000Z</time>
      </trkpt>
      <trkpt lat="46.33262" lon="2.71212">
        <ele>386.02</ele>
        <time>2018-07-07T17:09:30.000Z</time>
      </trkpt>
      <trkpt lat="46.33261" lon="2.71226">
        <ele>385.54</ele>
        <time>2018-07-07T17:09:31.000Z</time>
      </trkpt>
      <trkpt lat="46.3326" lon="2.71239">
        <ele>385.06</ele>
        <time>2018-07-07T17:09:32.000Z</time>
      </trkpt>
      <trkpt lat="46.33258" lon="2.71264">
        <ele>384.36</ele>
        <time>2018-07-07T17:09:34.000Z</time>
      </trkpt>
      <trkpt lat="46.33255" lon="2.71289">
        <ele>383.66</ele>
        <time>2018-07-07T17:09:36.000Z</time>
      </trkpt>
      <trkpt lat="46.33252" lon="2.71314">
        <ele>382.99</ele>
        <time>2018-07-07T17:09:38.000Z</time>
      </trkpt>
      <trkpt lat="46.33249" lon="2.71338">
        <ele>382.55</ele>
        <time>2018-07-07T17:09:40.000Z</time>
      </trkpt>
      <trkpt lat="46.33247" lon="2.71361">
        <ele>381.97</ele>
        <time>2018-07-07T17:09:42.000Z</time>
      </trkpt>
      <trkpt lat="46.33246" lon="2.71385">
        <ele>381.67</ele>
        <time>2018-07-07T17:09:44.000Z</time>
      </trkpt>
      <trkpt lat="46.33244" lon="2.71409">
        <ele>381.13</ele>
        <time>2018-07-07T17:09:46.000Z</time>
      </trkpt>
      <trkpt lat="46.33242" lon="2.71432">
        <ele>381</ele>
        <time>2018-07-07T17:09:48.000Z</time>
      </trkpt>
      <trkpt lat="46.33241" lon="2.71456">
        <ele>381.16</ele>
        <time>2018-07-07T17:09:50.000Z</time>
      </trkpt>
      <trkpt lat="46.33241" lon="2.71477">
        <ele>381.85</ele>
        <time>2018-07-07T17:09:52.000Z</time>
      </trkpt>
      <trkpt lat="46.33239" lon="2.71498">
        <ele>382.49</ele>
        <time>2018-07-07T17:09:54.000Z</time>
      </trkpt>
      <trkpt lat="46.33237" lon="2.71516">
        <ele>382.62</ele>
        <time>2018-07-07T17:09:56.000Z</time>
      </trkpt>
      <trkpt lat="46.33235" lon="2.71533">
        <ele>382.95</ele>
        <time>2018-07-07T17:09:58.000Z</time>
      </trkpt>
      <trkpt lat="46.33233" lon="2.7155">
        <ele>383.32</ele>
        <time>2018-07-07T17:10:00.000Z</time>
      </trkpt>
      <trkpt lat="46.33231" lon="2.71566">
        <ele>383.54</ele>
        <time>2018-07-07T17:10:02.000Z</time>
      </trkpt>
      <trkpt lat="46.33228" lon="2.71581">
        <ele>384.06</ele>
        <time>2018-07-07T17:10:04.000Z</time>
      </trkpt>
      <trkpt lat="46.33225" lon="2.71597">
        <ele>384.52</ele>
        <time>2018-07-07T17:10:06.000Z</time>
      </trkpt>
      <trkpt lat="46.3322" lon="2.71609">
        <ele>385.44</ele>
        <time>2018-07-07T17:10:08.000Z</time>
      </trkpt>
      <trkpt lat="46.33212" lon="2.71619">
        <ele>385.51</ele>
        <time>2018-07-07T17:10:10.000Z</time>
      </trkpt>
      <trkpt lat="46.33202" lon="2.71626">
        <ele>385.91</ele>
        <time>2018-07-07T17:10:12.000Z</time>
      </trkpt>
      <trkpt lat="46.33191" lon="2.7163">
        <ele>386.13</ele>
        <time>2018-07-07T17:10:14.000Z</time>
      </trkpt>
      <trkpt lat="46.3318" lon="2.7163">
        <ele>386.46</ele>
        <time>2018-07-07T17:10:16.000Z</time>
      </trkpt>
      <trkpt lat="46.33169" lon="2.7163">
        <ele>387</ele>
        <time>2018-07-07T17:10:18.000Z</time>
      </trkpt>
      <trkpt lat="46.33157" lon="2.7163">
        <ele>387.44</ele>
        <time>2018-07-07T17:10:20.000Z</time>
      </trkpt>
      <trkpt lat="46.33146" lon="2.71632">
        <ele>387.84</ele>
        <time>2018-07-07T17:10:22.000Z</time>
      </trkpt>
      <trkpt lat="46.33134" lon="2.71633">
        <ele>387.99</ele>
        <time>2018-07-07T17:10:24.000Z</time>
      </trkpt>
      <trkpt lat="46.33122" lon="2.71634">
        <ele>388.1</ele>
        <time>2018-07-07T17:10:26.000Z</time>
      </trkpt>
      <trkpt lat="46.33109" lon="2.71635">
        <ele>388.24</ele>
        <time>2018-07-07T17:10:28.000Z</time>
      </trkpt>
      <trkpt lat="46.33096" lon="2.71637">
        <ele>388.65</ele>
        <time>2018-07-07T17:10:30.000Z</time>
      </trkpt>
      <trkpt lat="46.33084" lon="2.71638">
        <ele>389.49</ele>
        <time>2018-07-07T17:10:32.000Z</time>
      </trkpt>
      <trkpt lat="46.33072" lon="2.71639">
        <ele>390.07</ele>
        <time>2018-07-07T17:10:34.000Z</time>
      </trkpt>
      <trkpt lat="46.33061" lon="2.7164">
        <ele>390.27</ele>
        <time>2018-07-07T17:10:36.000Z</time>
      </trkpt>
      <trkpt lat="46.33048" lon="2.71642">
        <ele>390.41</ele>
        <time>2018-07-07T17:10:38.000Z</time>
      </trkpt>
      <trkpt lat="46.33037" lon="2.71643">
        <ele>390.62</ele>
        <time>2018-07-07T17:10:40.000Z</time>
      </trkpt>
      <trkpt lat="46.33025" lon="2.71643">
        <ele>390.92</ele>
        <time>2018-07-07T17:10:42.000Z</time>
      </trkpt>
      <trkpt lat="46.33014" lon="2.71644">
        <ele>391.05</ele>
        <time>2018-07-07T17:10:44.000Z</time>
      </trkpt>
      <trkpt lat="46.33003" lon="2.71645">
        <ele>391.15</ele>
        <time>2018-07-07T17:10:46.000Z</time>
      </trkpt>
      <trkpt lat="46.32991" lon="2.71645">
        <ele>390.88</ele>
        <time>2018-07-07T17:10:48.000Z</time>
      </trkpt>
      <trkpt lat="46.3298" lon="2.71647">
        <ele>390.8</ele>
        <time>2018-07-07T17:10:50.000Z</time>
      </trkpt>
      <trkpt lat="46.32969" lon="2.71647">
        <ele>390.85</ele>
        <time>2018-07-07T17:10:52.000Z</time>
      </trkpt>
      <trkpt lat="46.32957" lon="2.71648">
        <ele>391.03</ele>
        <time>2018-07-07T17:10:54.000Z</time>
      </trkpt>
      <trkpt lat="46.32946" lon="2.71651">
        <ele>391.23</ele>
        <time>2018-07-07T17:10:56.000Z</time>
      </trkpt>
      <trkpt lat="46.32933" lon="2.71654">
        <ele>391.12</ele>
        <time>2018-07-07T17:10:58.000Z</time>
      </trkpt>
      <trkpt lat="46.3292" lon="2.71656">
        <ele>391.35</ele>
        <time>2018-07-07T17:11:00.000Z</time>
      </trkpt>
      <trkpt lat="46.32906" lon="2.71659">
        <ele>391.06</ele>
        <time>2018-07-07T17:11:02.000Z</time>
      </trkpt>
      <trkpt lat="46.32893" lon="2.71661">
        <ele>390.79</ele>
        <time>2018-07-07T17:11:04.000Z</time>
      </trkpt>
      <trkpt lat="46.3288" lon="2.71663">
        <ele>390.83</ele>
        <time>2018-07-07T17:11:06.000Z</time>
      </trkpt>
      <trkpt lat="46.32867" lon="2.71666">
        <ele>390.96</ele>
        <time>2018-07-07T17:11:08.000Z</time>
      </trkpt>
      <trkpt lat="46.32853" lon="2.7167">
        <ele>391.23</ele>
        <time>2018-07-07T17:11:10.000Z</time>
      </trkpt>
      <trkpt lat="46.3284" lon="2.71675">
        <ele>391.53</ele>
        <time>2018-07-07T17:11:12.000Z</time>
      </trkpt>
      <trkpt lat="46.32827" lon="2.7168">
        <ele>391.96</ele>
        <time>2018-07-07T17:11:14.000Z</time>
      </trkpt>
      <trkpt lat="46.32814" lon="2.71685">
        <ele>391.67</ele>
        <time>2018-07-07T17:11:16.000Z</time>
      </trkpt>
      <trkpt lat="46.328" lon="2.71691">
        <ele>391.52</ele>
        <time>2018-07-07T17:11:18.000Z</time>
      </trkpt>
      <trkpt lat="46.32784" lon="2.71697">
        <ele>391.29</ele>
        <time>2018-07-07T17:11:20.000Z</time>
      </trkpt>
      <trkpt lat="46.32769" lon="2.71703">
        <ele>391.22</ele>
        <time>2018-07-07T17:11:22.000Z</time>
      </trkpt>
      <trkpt lat="46.32756" lon="2.7171">
        <ele>391.61</ele>
        <time>2018-07-07T17:11:24.000Z</time>
      </trkpt>
      <trkpt lat="46.32741" lon="2.71718">
        <ele>392.08</ele>
        <time>2018-07-07T17:11:26.000Z</time>
      </trkpt>
      <trkpt lat="46.32726" lon="2.71726">
        <ele>392.66</ele>
        <time>2018-07-07T17:11:28.000Z</time>
      </trkpt>
      <trkpt lat="46.32711" lon="2.71734">
        <ele>393.21</ele>
        <time>2018-07-07T17:11:30.000Z</time>
      </trkpt>
      <trkpt lat="46.32697" lon="2.71744">
        <ele>393.33</ele>
        <time>2018-07-07T17:11:32.000Z</time>
      </trkpt>
      <trkpt lat="46.32681" lon="2.71754">
        <ele>393.34</ele>
        <time>2018-07-07T17:11:34.000Z</time>
      </trkpt>
      <trkpt lat="46.32666" lon="2.71764">
        <ele>393.38</ele>
        <time>2018-07-07T17:11:36.000Z</time>
      </trkpt>
      <trkpt lat="46.3265" lon="2.71775">
        <ele>393.49</ele>
        <time>2018-07-07T17:11:38.000Z</time>
      </trkpt>
      <trkpt lat="46.32634" lon="2.71785">
        <ele>393.5</ele>
        <time>2018-07-07T17:11:40.000Z</time>
      </trkpt>
      <trkpt lat="46.32619" lon="2.71796">
        <ele>393.52</ele>
        <time>2018-07-07T17:11:42.000Z</time>
      </trkpt>
      <trkpt lat="46.32603" lon="2.71808">
        <ele>393.48</ele>
        <time>2018-07-07T17:11:44.000Z</time>
      </trkpt>
      <trkpt lat="46.32587" lon="2.71821">
        <ele>393.59</ele>
        <time>2018-07-07T17:11:46.000Z</time>
      </trkpt>
      <trkpt lat="46.32579" lon="2.71827">
        <ele>393.47</ele>
        <time>2018-07-07T17:11:47.000Z</time>
      </trkpt>
      <trkpt lat="46.32563" lon="2.71839">
        <ele>392.91</ele>
        <time>2018-07-07T17:11:49.000Z</time>
      </trkpt>
      <trkpt lat="46.32555" lon="2.71846">
        <ele>392.47</ele>
        <time>2018-07-07T17:11:50.000Z</time>
      </trkpt>
      <trkpt lat="46.32547" lon="2.71852">
        <ele>392.25</ele>
        <time>2018-07-07T17:11:51.000Z</time>
      </trkpt>
      <trkpt lat="46.32539" lon="2.71859">
        <ele>392.01</ele>
        <time>2018-07-07T17:11:52.000Z</time>
      </trkpt>
      <trkpt lat="46.32531" lon="2.71866">
        <ele>391.74</ele>
        <time>2018-07-07T17:11:53.000Z</time>
      </trkpt>
      <trkpt lat="46.32522" lon="2.71873">
        <ele>391.42</ele>
        <time>2018-07-07T17:11:54.000Z</time>
      </trkpt>
      <trkpt lat="46.32514" lon="2.7188">
        <ele>391.19</ele>
        <time>2018-07-07T17:11:55.000Z</time>
      </trkpt>
      <trkpt lat="46.32506" lon="2.71887">
        <ele>391</ele>
        <time>2018-07-07T17:11:56.000Z</time>
      </trkpt>
      <trkpt lat="46.32499" lon="2.71893">
        <ele>390.85</ele>
        <time>2018-07-07T17:11:57.000Z</time>
      </trkpt>
      <trkpt lat="46.32491" lon="2.719">
        <ele>390.76</ele>
        <time>2018-07-07T17:11:58.000Z</time>
      </trkpt>
      <trkpt lat="46.32483" lon="2.71907">
        <ele>390.61</ele>
        <time>2018-07-07T17:11:59.000Z</time>
      </trkpt>
      <trkpt lat="46.32475" lon="2.71914">
        <ele>390.45</ele>
        <time>2018-07-07T17:12:00.000Z</time>
      </trkpt>
      <trkpt lat="46.32467" lon="2.71921">
        <ele>390.51</ele>
        <time>2018-07-07T17:12:01.000Z</time>
      </trkpt>
      <trkpt lat="46.32459" lon="2.71928">
        <ele>390.39</ele>
        <time>2018-07-07T17:12:02.000Z</time>
      </trkpt>
      <trkpt lat="46.32451" lon="2.71934">
        <ele>390.33</ele>
        <time>2018-07-07T17:12:03.000Z</time>
      </trkpt>
      <trkpt lat="46.32443" lon="2.71941">
        <ele>390.25</ele>
        <time>2018-07-07T17:12:04.000Z</time>
      </trkpt>
      <trkpt lat="46.32435" lon="2.71948">
        <ele>390.15</ele>
        <time>2018-07-07T17:12:05.000Z</time>
      </trkpt>
      <trkpt lat="46.32427" lon="2.71956">
        <ele>390.09</ele>
        <time>2018-07-07T17:12:06.000Z</time>
      </trkpt>
      <trkpt lat="46.32419" lon="2.71962">
        <ele>390.03</ele>
        <time>2018-07-07T17:12:07.000Z</time>
      </trkpt>
      <trkpt lat="46.32411" lon="2.71969">
        <ele>389.88</ele>
        <time>2018-07-07T17:12:08.000Z</time>
      </trkpt>
      <trkpt lat="46.32403" lon="2.71975">
        <ele>389.85</ele>
        <time>2018-07-07T17:12:09.000Z</time>
      </trkpt>
      <trkpt lat="46.32395" lon="2.71981">
        <ele>389.88</ele>
        <time>2018-07-07T17:12:10.000Z</time>
      </trkpt>
      <trkpt lat="46.32387" lon="2.71987">
        <ele>389.73</ele>
        <time>2018-07-07T17:12:11.000Z</time>
      </trkpt>
      <trkpt lat="46.32379" lon="2.71994">
        <ele>389.49</ele>
        <time>2018-07-07T17:12:12.000Z</time>
      </trkpt>
      <trkpt lat="46.32371" lon="2.72001">
        <ele>389.27</ele>
        <time>2018-07-07T17:12:13.000Z</time>
      </trkpt>
      <trkpt lat="46.32363" lon="2.72008">
        <ele>389</ele>
        <time>2018-07-07T17:12:14.000Z</time>
      </trkpt>
      <trkpt lat="46.32355" lon="2.72015">
        <ele>388.83</ele>
        <time>2018-07-07T17:12:15.000Z</time>
      </trkpt>
      <trkpt lat="46.32347" lon="2.72022">
        <ele>388.72</ele>
        <time>2018-07-07T17:12:16.000Z</time>
      </trkpt>
      <trkpt lat="46.3234" lon="2.7203">
        <ele>388.61</ele>
        <time>2018-07-07T17:12:17.000Z</time>
      </trkpt>
      <trkpt lat="46.32331" lon="2.72037">
        <ele>388.31</ele>
        <time>2018-07-07T17:12:18.000Z</time>
      </trkpt>
      <trkpt lat="46.32322" lon="2.72043">
        <ele>387.53</ele>
        <time>2018-07-07T17:12:19.000Z</time>
      </trkpt>
      <trkpt lat="46.32313" lon="2.7205">
        <ele>386.94</ele>
        <time>2018-07-07T17:12:20.000Z</time>
      </trkpt>
      <trkpt lat="46.32304" lon="2.72056">
        <ele>386.65</ele>
        <time>2018-07-07T17:12:21.000Z</time>
      </trkpt>
      <trkpt lat="46.32296" lon="2.72063">
        <ele>386.47</ele>
        <time>2018-07-07T17:12:22.000Z</time>
      </trkpt>
      <trkpt lat="46.32287" lon="2.7207">
        <ele>386.13</ele>
        <time>2018-07-07T17:12:23.000Z</time>
      </trkpt>
      <trkpt lat="46.32279" lon="2.72077">
        <ele>385.62</ele>
        <time>2018-07-07T17:12:24.000Z</time>
      </trkpt>
      <trkpt lat="46.3227" lon="2.72084">
        <ele>385.22</ele>
        <time>2018-07-07T17:12:25.000Z</time>
      </trkpt>
      <trkpt lat="46.32262" lon="2.7209">
        <ele>384.88</ele>
        <time>2018-07-07T17:12:26.000Z</time>
      </trkpt>
      <trkpt lat="46.32254" lon="2.72097">
        <ele>384.62</ele>
        <time>2018-07-07T17:12:27.000Z</time>
      </trkpt>
      <trkpt lat="46.32246" lon="2.72104">
        <ele>384.31</ele>
        <time>2018-07-07T17:12:28.000Z</time>
      </trkpt>
      <trkpt lat="46.32237" lon="2.7211">
        <ele>383.87</ele>
        <time>2018-07-07T17:12:29.000Z</time>
      </trkpt>
      <trkpt lat="46.3223" lon="2.72117">
        <ele>383.63</ele>
        <time>2018-07-07T17:12:30.000Z</time>
      </trkpt>
      <trkpt lat="46.32222" lon="2.72124">
        <ele>383.55</ele>
        <time>2018-07-07T17:12:31.000Z</time>
      </trkpt>
      <trkpt lat="46.32214" lon="2.72131">
        <ele>383.5</ele>
        <time>2018-07-07T17:12:32.000Z</time>
      </trkpt>
      <trkpt lat="46.32206" lon="2.72138">
        <ele>383.47</ele>
        <time>2018-07-07T17:12:33.000Z</time>
      </trkpt>
      <trkpt lat="46.32199" lon="2.72145">
        <ele>383.59</ele>
        <time>2018-07-07T17:12:34.000Z</time>
      </trkpt>
      <trkpt lat="46.32184" lon="2.72159">
        <ele>383.81</ele>
        <time>2018-07-07T17:12:36.000Z</time>
      </trkpt>
      <trkpt lat="46.32169" lon="2.72172">
        <ele>384.23</ele>
        <time>2018-07-07T17:12:38.000Z</time>
      </trkpt>
      <trkpt lat="46.32155" lon="2.72185">
        <ele>384.75</ele>
        <time>2018-07-07T17:12:40.000Z</time>
      </trkpt>
      <trkpt lat="46.3214" lon="2.72198">
        <ele>384.98</ele>
        <time>2018-07-07T17:12:42.000Z</time>
      </trkpt>
      <trkpt lat="46.32126" lon="2.72211">
        <ele>384.94</ele>
        <time>2018-07-07T17:12:44.000Z</time>
      </trkpt>
      <trkpt lat="46.32111" lon="2.72224">
        <ele>384.68</ele>
        <time>2018-07-07T17:12:46.000Z</time>
      </trkpt>
      <trkpt lat="46.32097" lon="2.72236">
        <ele>384.09</ele>
        <time>2018-07-07T17:12:48.000Z</time>
      </trkpt>
      <trkpt lat="46.32082" lon="2.72248">
        <ele>383.77</ele>
        <time>2018-07-07T17:12:50.000Z</time>
      </trkpt>
      <trkpt lat="46.32068" lon="2.72259">
        <ele>383.6</ele>
        <time>2018-07-07T17:12:52.000Z</time>
      </trkpt>
      <trkpt lat="46.32054" lon="2.72271">
        <ele>383.47</ele>
        <time>2018-07-07T17:12:54.000Z</time>
      </trkpt>
      <trkpt lat="46.32039" lon="2.72283">
        <ele>383.56</ele>
        <time>2018-07-07T17:12:56.000Z</time>
      </trkpt>
      <trkpt lat="46.32026" lon="2.72295">
        <ele>383.76</ele>
        <time>2018-07-07T17:12:58.000Z</time>
      </trkpt>
      <trkpt lat="46.32012" lon="2.72306">
        <ele>383.59</ele>
        <time>2018-07-07T17:13:00.000Z</time>
      </trkpt>
      <trkpt lat="46.31998" lon="2.72318">
        <ele>383.78</ele>
        <time>2018-07-07T17:13:02.000Z</time>
      </trkpt>
      <trkpt lat="46.31984" lon="2.72329">
        <ele>384.02</ele>
        <time>2018-07-07T17:13:04.000Z</time>
      </trkpt>
      <trkpt lat="46.3197" lon="2.7234">
        <ele>384.05</ele>
        <time>2018-07-07T17:13:06.000Z</time>
      </trkpt>
      <trkpt lat="46.31957" lon="2.72351">
        <ele>384.24</ele>
        <time>2018-07-07T17:13:08.000Z</time>
      </trkpt>
      <trkpt lat="46.31942" lon="2.72363">
        <ele>384.32</ele>
        <time>2018-07-07T17:13:10.000Z</time>
      </trkpt>
      <trkpt lat="46.31929" lon="2.72374">
        <ele>384.34</ele>
        <time>2018-07-07T17:13:12.000Z</time>
      </trkpt>
      <trkpt lat="46.31916" lon="2.72386">
        <ele>384.67</ele>
        <time>2018-07-07T17:13:14.000Z</time>
      </trkpt>
      <trkpt lat="46.31902" lon="2.72396">
        <ele>384.87</ele>
        <time>2018-07-07T17:13:16.000Z</time>
      </trkpt>
      <trkpt lat="46.31889" lon="2.72408">
        <ele>384.88</ele>
        <time>2018-07-07T17:13:18.000Z</time>
      </trkpt>
      <trkpt lat="46.31875" lon="2.72419">
        <ele>385.06</ele>
        <time>2018-07-07T17:13:20.000Z</time>
      </trkpt>
      <trkpt lat="46.31862" lon="2.7243">
        <ele>385.25</ele>
        <time>2018-07-07T17:13:22.000Z</time>
      </trkpt>
      <trkpt lat="46.31848" lon="2.72441">
        <ele>385.41</ele>
        <time>2018-07-07T17:13:24.000Z</time>
      </trkpt>
      <trkpt lat="46.31835" lon="2.72454">
        <ele>385.51</ele>
        <time>2018-07-07T17:13:26.000Z</time>
      </trkpt>
      <trkpt lat="46.31822" lon="2.72465">
        <ele>385.95</ele>
        <time>2018-07-07T17:13:28.000Z</time>
      </trkpt>
      <trkpt lat="46.31809" lon="2.72477">
        <ele>386.46</ele>
        <time>2018-07-07T17:13:30.000Z</time>
      </trkpt>
      <trkpt lat="46.31796" lon="2.72488">
        <ele>387.13</ele>
        <time>2018-07-07T17:13:32.000Z</time>
      </trkpt>
      <trkpt lat="46.31783" lon="2.72501">
        <ele>387.53</ele>
        <time>2018-07-07T17:13:34.000Z</time>
      </trkpt>
      <trkpt lat="46.3177" lon="2.72513">
        <ele>387.82</ele>
        <time>2018-07-07T17:13:36.000Z</time>
      </trkpt>
      <trkpt lat="46.31755" lon="2.72525">
        <ele>387.85</ele>
        <time>2018-07-07T17:13:38.000Z</time>
      </trkpt>
      <trkpt lat="46.31741" lon="2.72536">
        <ele>387.55</ele>
        <time>2018-07-07T17:13:40.000Z</time>
      </trkpt>
      <trkpt lat="46.31727" lon="2.72548">
        <ele>387.25</ele>
        <time>2018-07-07T17:13:42.000Z</time>
      </trkpt>
      <trkpt lat="46.31714" lon="2.7256">
        <ele>386.73</ele>
        <time>2018-07-07T17:13:44.000Z</time>
      </trkpt>
      <trkpt lat="46.31699" lon="2.72572">
        <ele>386.31</ele>
        <time>2018-07-07T17:13:46.000Z</time>
      </trkpt>
      <trkpt lat="46.31685" lon="2.72583">
        <ele>386.44</ele>
        <time>2018-07-07T17:13:48.000Z</time>
      </trkpt>
      <trkpt lat="46.3167" lon="2.72594">
        <ele>386.78</ele>
        <time>2018-07-07T17:13:50.000Z</time>
      </trkpt>
      <trkpt lat="46.31656" lon="2.72605">
        <ele>387.13</ele>
        <time>2018-07-07T17:13:52.000Z</time>
      </trkpt>
      <trkpt lat="46.31643" lon="2.72616">
        <ele>387.23</ele>
        <time>2018-07-07T17:13:54.000Z</time>
      </trkpt>
      <trkpt lat="46.3163" lon="2.72627">
        <ele>387.35</ele>
        <time>2018-07-07T17:13:56.000Z</time>
      </trkpt>
      <trkpt lat="46.31615" lon="2.7264">
        <ele>387.1</ele>
        <time>2018-07-07T17:13:58.000Z</time>
      </trkpt>
      <trkpt lat="46.31602" lon="2.72651">
        <ele>387.28</ele>
        <time>2018-07-07T17:14:00.000Z</time>
      </trkpt>
      <trkpt lat="46.31589" lon="2.72662">
        <ele>387.58</ele>
        <time>2018-07-07T17:14:02.000Z</time>
      </trkpt>
      <trkpt lat="46.31575" lon="2.72673">
        <ele>387.7</ele>
        <time>2018-07-07T17:14:04.000Z</time>
      </trkpt>
      <trkpt lat="46.31562" lon="2.72685">
        <ele>388.04</ele>
        <time>2018-07-07T17:14:06.000Z</time>
      </trkpt>
      <trkpt lat="46.31548" lon="2.72695">
        <ele>388.33</ele>
        <time>2018-07-07T17:14:08.000Z</time>
      </trkpt>
      <trkpt lat="46.31535" lon="2.72705">
        <ele>388.51</ele>
        <time>2018-07-07T17:14:10.000Z</time>
      </trkpt>
      <trkpt lat="46.31522" lon="2.72714">
        <ele>388.7</ele>
        <time>2018-07-07T17:14:12.000Z</time>
      </trkpt>
      <trkpt lat="46.31508" lon="2.72724">
        <ele>388.96</ele>
        <time>2018-07-07T17:14:14.000Z</time>
      </trkpt>
      <trkpt lat="46.31495" lon="2.72734">
        <ele>389.19</ele>
        <time>2018-07-07T17:14:16.000Z</time>
      </trkpt>
      <trkpt lat="46.31481" lon="2.72743">
        <ele>389.5</ele>
        <time>2018-07-07T17:14:18.000Z</time>
      </trkpt>
      <trkpt lat="46.31467" lon="2.72751">
        <ele>389.97</ele>
        <time>2018-07-07T17:14:20.000Z</time>
      </trkpt>
      <trkpt lat="46.31453" lon="2.72759">
        <ele>390.31</ele>
        <time>2018-07-07T17:14:22.000Z</time>
      </trkpt>
      <trkpt lat="46.31439" lon="2.72768">
        <ele>390.57</ele>
        <time>2018-07-07T17:14:24.000Z</time>
      </trkpt>
      <trkpt lat="46.31425" lon="2.72777">
        <ele>390.68</ele>
        <time>2018-07-07T17:14:26.000Z</time>
      </trkpt>
      <trkpt lat="46.31411" lon="2.72785">
        <ele>391</ele>
        <time>2018-07-07T17:14:28.000Z</time>
      </trkpt>
      <trkpt lat="46.31398" lon="2.72794">
        <ele>391.36</ele>
        <time>2018-07-07T17:14:30.000Z</time>
      </trkpt>
      <trkpt lat="46.31385" lon="2.72803">
        <ele>391.97</ele>
        <time>2018-07-07T17:14:32.000Z</time>
      </trkpt>
      <trkpt lat="46.31372" lon="2.7281">
        <ele>392.2</ele>
        <time>2018-07-07T17:14:34.000Z</time>
      </trkpt>
      <trkpt lat="46.31359" lon="2.72817">
        <ele>392.42</ele>
        <time>2018-07-07T17:14:36.000Z</time>
      </trkpt>
      <trkpt lat="46.31345" lon="2.72823">
        <ele>392.68</ele>
        <time>2018-07-07T17:14:38.000Z</time>
      </trkpt>
      <trkpt lat="46.31332" lon="2.7283">
        <ele>392.8</ele>
        <time>2018-07-07T17:14:40.000Z</time>
      </trkpt>
      <trkpt lat="46.31319" lon="2.72837">
        <ele>393.78</ele>
        <time>2018-07-07T17:14:42.000Z</time>
      </trkpt>
      <trkpt lat="46.31306" lon="2.72843">
        <ele>394.29</ele>
        <time>2018-07-07T17:14:44.000Z</time>
      </trkpt>
      <trkpt lat="46.31293" lon="2.7285">
        <ele>394.59</ele>
        <time>2018-07-07T17:14:46.000Z</time>
      </trkpt>
      <trkpt lat="46.3128" lon="2.72856">
        <ele>394.99</ele>
        <time>2018-07-07T17:14:48.000Z</time>
      </trkpt>
      <trkpt lat="46.31266" lon="2.72861">
        <ele>395.31</ele>
        <time>2018-07-07T17:14:50.000Z</time>
      </trkpt>
      <trkpt lat="46.31252" lon="2.72867">
        <ele>395.42</ele>
        <time>2018-07-07T17:14:52.000Z</time>
      </trkpt>
      <trkpt lat="46.31238" lon="2.72873">
        <ele>395.34</ele>
        <time>2018-07-07T17:14:54.000Z</time>
      </trkpt>
      <trkpt lat="46.31224" lon="2.72879">
        <ele>395.32</ele>
        <time>2018-07-07T17:14:56.000Z</time>
      </trkpt>
      <trkpt lat="46.3121" lon="2.72884">
        <ele>395.62</ele>
        <time>2018-07-07T17:14:58.000Z</time>
      </trkpt>
      <trkpt lat="46.31197" lon="2.72889">
        <ele>396.16</ele>
        <time>2018-07-07T17:15:00.000Z</time>
      </trkpt>
      <trkpt lat="46.31184" lon="2.72894">
        <ele>396.88</ele>
        <time>2018-07-07T17:15:02.000Z</time>
      </trkpt>
      <trkpt lat="46.31171" lon="2.72899">
        <ele>397.62</ele>
        <time>2018-07-07T17:15:04.000Z</time>
      </trkpt>
      <trkpt lat="46.31157" lon="2.72903">
        <ele>397.88</ele>
        <time>2018-07-07T17:15:06.000Z</time>
      </trkpt>
      <trkpt lat="46.31144" lon="2.72907">
        <ele>398.15</ele>
        <time>2018-07-07T17:15:08.000Z</time>
      </trkpt>
      <trkpt lat="46.31131" lon="2.72911">
        <ele>398.45</ele>
        <time>2018-07-07T17:15:10.000Z</time>
      </trkpt>
      <trkpt lat="46.31119" lon="2.72915">
        <ele>398.62</ele>
        <time>2018-07-07T17:15:12.000Z</time>
      </trkpt>
      <trkpt lat="46.31105" lon="2.72918">
        <ele>399.08</ele>
        <time>2018-07-07T17:15:14.000Z</time>
      </trkpt>
      <trkpt lat="46.3109" lon="2.72922">
        <ele>399.12</ele>
        <time>2018-07-07T17:15:16.000Z</time>
      </trkpt>
      <trkpt lat="46.31076" lon="2.72926">
        <ele>398.86</ele>
        <time>2018-07-07T17:15:18.000Z</time>
      </trkpt>
      <trkpt lat="46.31062" lon="2.7293">
        <ele>398.89</ele>
        <time>2018-07-07T17:15:20.000Z</time>
      </trkpt>
      <trkpt lat="46.31049" lon="2.72934">
        <ele>398.89</ele>
        <time>2018-07-07T17:15:22.000Z</time>
      </trkpt>
      <trkpt lat="46.31036" lon="2.72938">
        <ele>398.87</ele>
        <time>2018-07-07T17:15:24.000Z</time>
      </trkpt>
      <trkpt lat="46.31022" lon="2.72941">
        <ele>398.7</ele>
        <time>2018-07-07T17:15:26.000Z</time>
      </trkpt>
      <trkpt lat="46.31008" lon="2.72945">
        <ele>398.43</ele>
        <time>2018-07-07T17:15:28.000Z</time>
      </trkpt>
      <trkpt lat="46.30994" lon="2.7295">
        <ele>398.58</ele>
        <time>2018-07-07T17:15:30.000Z</time>
      </trkpt>
      <trkpt lat="46.30981" lon="2.72954">
        <ele>398.55</ele>
        <time>2018-07-07T17:15:32.000Z</time>
      </trkpt>
      <trkpt lat="46.30968" lon="2.72957">
        <ele>398.35</ele>
        <time>2018-07-07T17:15:34.000Z</time>
      </trkpt>
      <trkpt lat="46.30955" lon="2.72962">
        <ele>398.08</ele>
        <time>2018-07-07T17:15:36.000Z</time>
      </trkpt>
      <trkpt lat="46.30941" lon="2.72965">
        <ele>397.87</ele>
        <time>2018-07-07T17:15:38.000Z</time>
      </trkpt>
      <trkpt lat="46.30928" lon="2.72967">
        <ele>398.14</ele>
        <time>2018-07-07T17:15:40.000Z</time>
      </trkpt>
      <trkpt lat="46.30915" lon="2.72969">
        <ele>398.29</ele>
        <time>2018-07-07T17:15:42.000Z</time>
      </trkpt>
      <trkpt lat="46.30901" lon="2.72971">
        <ele>398.41</ele>
        <time>2018-07-07T17:15:44.000Z</time>
      </trkpt>
      <trkpt lat="46.30888" lon="2.72973">
        <ele>398.82</ele>
        <time>2018-07-07T17:15:46.000Z</time>
      </trkpt>
      <trkpt lat="46.30874" lon="2.72975">
        <ele>399.23</ele>
        <time>2018-07-07T17:15:48.000Z</time>
      </trkpt>
      <trkpt lat="46.30861" lon="2.72975">
        <ele>399.48</ele>
        <time>2018-07-07T17:15:50.000Z</time>
      </trkpt>
      <trkpt lat="46.30848" lon="2.72974">
        <ele>399.47</ele>
        <time>2018-07-07T17:15:52.000Z</time>
      </trkpt>
      <trkpt lat="46.30834" lon="2.72971">
        <ele>399.63</ele>
        <time>2018-07-07T17:15:54.000Z</time>
      </trkpt>
      <trkpt lat="46.3082" lon="2.72968">
        <ele>399.52</ele>
        <time>2018-07-07T17:15:56.000Z</time>
      </trkpt>
      <trkpt lat="46.30806" lon="2.72964">
        <ele>399.37</ele>
        <time>2018-07-07T17:15:58.000Z</time>
      </trkpt>
      <trkpt lat="46.30793" lon="2.72958">
        <ele>399.34</ele>
        <time>2018-07-07T17:16:00.000Z</time>
      </trkpt>
      <trkpt lat="46.30779" lon="2.72951">
        <ele>399.6</ele>
        <time>2018-07-07T17:16:02.000Z</time>
      </trkpt>
      <trkpt lat="46.30765" lon="2.72944">
        <ele>399.81</ele>
        <time>2018-07-07T17:16:04.000Z</time>
      </trkpt>
      <trkpt lat="46.30751" lon="2.72936">
        <ele>399.95</ele>
        <time>2018-07-07T17:16:06.000Z</time>
      </trkpt>
      <trkpt lat="46.30738" lon="2.72927">
        <ele>400.21</ele>
        <time>2018-07-07T17:16:08.000Z</time>
      </trkpt>
      <trkpt lat="46.30726" lon="2.7292">
        <ele>400.45</ele>
        <time>2018-07-07T17:16:10.000Z</time>
      </trkpt>
      <trkpt lat="46.30714" lon="2.72912">
        <ele>400.67</ele>
        <time>2018-07-07T17:16:12.000Z</time>
      </trkpt>
      <trkpt lat="46.30702" lon="2.72904">
        <ele>400.98</ele>
        <time>2018-07-07T17:16:14.000Z</time>
      </trkpt>
      <trkpt lat="46.3069" lon="2.72896">
        <ele>401.52</ele>
        <time>2018-07-07T17:16:16.000Z</time>
      </trkpt>
      <trkpt lat="46.30679" lon="2.72888">
        <ele>402</ele>
        <time>2018-07-07T17:16:18.000Z</time>
      </trkpt>
      <trkpt lat="46.30669" lon="2.7288">
        <ele>402.39</ele>
        <time>2018-07-07T17:16:20.000Z</time>
      </trkpt>
      <trkpt lat="46.30658" lon="2.72872">
        <ele>402.95</ele>
        <time>2018-07-07T17:16:22.000Z</time>
      </trkpt>
      <trkpt lat="46.30647" lon="2.72867">
        <ele>403.52</ele>
        <time>2018-07-07T17:16:24.000Z</time>
      </trkpt>
      <trkpt lat="46.30635" lon="2.72865">
        <ele>403.13</ele>
        <time>2018-07-07T17:16:26.000Z</time>
      </trkpt>
      <trkpt lat="46.30624" lon="2.72859">
        <ele>403.19</ele>
        <time>2018-07-07T17:16:28.000Z</time>
      </trkpt>
      <trkpt lat="46.30614" lon="2.72851">
        <ele>403.07</ele>
        <time>2018-07-07T17:16:30.000Z</time>
      </trkpt>
      <trkpt lat="46.30604" lon="2.7285">
        <ele>403.09</ele>
        <time>2018-07-07T17:16:32.000Z</time>
      </trkpt>
      <trkpt lat="46.30596" lon="2.72859">
        <ele>403.47</ele>
        <time>2018-07-07T17:16:34.000Z</time>
      </trkpt>
      <trkpt lat="46.30586" lon="2.7287">
        <ele>403.94</ele>
        <time>2018-07-07T17:16:36.000Z</time>
      </trkpt>
      <trkpt lat="46.30574" lon="2.72879">
        <ele>403.74</ele>
        <time>2018-07-07T17:16:38.000Z</time>
      </trkpt>
      <trkpt lat="46.30562" lon="2.72887">
        <ele>403.52</ele>
        <time>2018-07-07T17:16:40.000Z</time>
      </trkpt>
      <trkpt lat="46.30549" lon="2.72894">
        <ele>403.12</ele>
        <time>2018-07-07T17:16:42.000Z</time>
      </trkpt>
      <trkpt lat="46.30535" lon="2.72902">
        <ele>402.46</ele>
        <time>2018-07-07T17:16:44.000Z</time>
      </trkpt>
      <trkpt lat="46.30521" lon="2.72912">
        <ele>401.99</ele>
        <time>2018-07-07T17:16:46.000Z</time>
      </trkpt>
      <trkpt lat="46.3051" lon="2.72922">
        <ele>402.27</ele>
        <time>2018-07-07T17:16:48.000Z</time>
      </trkpt>
      <trkpt lat="46.30498" lon="2.72933">
        <ele>403.08</ele>
        <time>2018-07-07T17:16:50.000Z</time>
      </trkpt>
      <trkpt lat="46.30486" lon="2.72944">
        <ele>404.03</ele>
        <time>2018-07-07T17:16:52.000Z</time>
      </trkpt>
      <trkpt lat="46.30474" lon="2.72955">
        <ele>405</ele>
        <time>2018-07-07T17:16:54.000Z</time>
      </trkpt>
      <trkpt lat="46.30462" lon="2.72965">
        <ele>405.41</ele>
        <time>2018-07-07T17:16:56.000Z</time>
      </trkpt>
      <trkpt lat="46.30449" lon="2.72976">
        <ele>405.85</ele>
        <time>2018-07-07T17:16:58.000Z</time>
      </trkpt>
      <trkpt lat="46.30436" lon="2.72989">
        <ele>406.15</ele>
        <time>2018-07-07T17:17:00.000Z</time>
      </trkpt>
      <trkpt lat="46.30424" lon="2.73002">
        <ele>406.39</ele>
        <time>2018-07-07T17:17:02.000Z</time>
      </trkpt>
      <trkpt lat="46.30412" lon="2.73013">
        <ele>406.62</ele>
        <time>2018-07-07T17:17:04.000Z</time>
      </trkpt>
      <trkpt lat="46.304" lon="2.73025">
        <ele>406.76</ele>
        <time>2018-07-07T17:17:06.000Z</time>
      </trkpt>
      <trkpt lat="46.30388" lon="2.73036">
        <ele>406.88</ele>
        <time>2018-07-07T17:17:08.000Z</time>
      </trkpt>
      <trkpt lat="46.30375" lon="2.73048">
        <ele>407.26</ele>
        <time>2018-07-07T17:17:10.000Z</time>
      </trkpt>
      <trkpt lat="46.30363" lon="2.73058">
        <ele>407.78</ele>
        <time>2018-07-07T17:17:12.000Z</time>
      </trkpt>
      <trkpt lat="46.30351" lon="2.73069">
        <ele>407.9</ele>
        <time>2018-07-07T17:17:14.000Z</time>
      </trkpt>
      <trkpt lat="46.3034" lon="2.73079">
        <ele>408.11</ele>
        <time>2018-07-07T17:17:16.000Z</time>
      </trkpt>
      <trkpt lat="46.30328" lon="2.7309">
        <ele>408.5</ele>
        <time>2018-07-07T17:17:18.000Z</time>
      </trkpt>
      <trkpt lat="46.30317" lon="2.731">
        <ele>408.71</ele>
        <time>2018-07-07T17:17:20.000Z</time>
      </trkpt>
      <trkpt lat="46.30306" lon="2.73109">
        <ele>408.91</ele>
        <time>2018-07-07T17:17:22.000Z</time>
      </trkpt>
      <trkpt lat="46.30296" lon="2.73119">
        <ele>408.93</ele>
        <time>2018-07-07T17:17:24.000Z</time>
      </trkpt>
      <trkpt lat="46.30286" lon="2.73129">
        <ele>408.93</ele>
        <time>2018-07-07T17:17:26.000Z</time>
      </trkpt>
      <trkpt lat="46.30276" lon="2.73138">
        <ele>409.35</ele>
        <time>2018-07-07T17:17:28.000Z</time>
      </trkpt>
      <trkpt lat="46.30266" lon="2.73146">
        <ele>409.62</ele>
        <time>2018-07-07T17:17:30.000Z</time>
      </trkpt>
      <trkpt lat="46.30256" lon="2.73155">
        <ele>409.77</ele>
        <time>2018-07-07T17:17:32.000Z</time>
      </trkpt>
      <trkpt lat="46.30245" lon="2.73164">
        <ele>409.66</ele>
        <time>2018-07-07T17:17:34.000Z</time>
      </trkpt>
      <trkpt lat="46.30233" lon="2.73169">
        <ele>410.11</ele>
        <time>2018-07-07T17:17:36.000Z</time>
      </trkpt>
      <trkpt lat="46.30222" lon="2.73176">
        <ele>410.45</ele>
        <time>2018-07-07T17:17:38.000Z</time>
      </trkpt>
      <trkpt lat="46.30212" lon="2.73188">
        <ele>410.4</ele>
        <time>2018-07-07T17:17:40.000Z</time>
      </trkpt>
      <trkpt lat="46.30204" lon="2.732">
        <ele>410.48</ele>
        <time>2018-07-07T17:17:42.000Z</time>
      </trkpt>
      <trkpt lat="46.30195" lon="2.73211">
        <ele>410.66</ele>
        <time>2018-07-07T17:17:44.000Z</time>
      </trkpt>
      <trkpt lat="46.30185" lon="2.73219">
        <ele>410.64</ele>
        <time>2018-07-07T17:17:46.000Z</time>
      </trkpt>
      <trkpt lat="46.30176" lon="2.73229">
        <ele>410.24</ele>
        <time>2018-07-07T17:17:48.000Z</time>
      </trkpt>
      <trkpt lat="46.30166" lon="2.73237">
        <ele>410.17</ele>
        <time>2018-07-07T17:17:50.000Z</time>
      </trkpt>
      <trkpt lat="46.30156" lon="2.73246">
        <ele>410.02</ele>
        <time>2018-07-07T17:17:52.000Z</time>
      </trkpt>
      <trkpt lat="46.30145" lon="2.73255">
        <ele>410.05</ele>
        <time>2018-07-07T17:17:54.000Z</time>
      </trkpt>
      <trkpt lat="46.30133" lon="2.73266">
        <ele>409.96</ele>
        <time>2018-07-07T17:17:56.000Z</time>
      </trkpt>
      <trkpt lat="46.30122" lon="2.73277">
        <ele>410.16</ele>
        <time>2018-07-07T17:17:58.000Z</time>
      </trkpt>
      <trkpt lat="46.30111" lon="2.73288">
        <ele>410.24</ele>
        <time>2018-07-07T17:18:00.000Z</time>
      </trkpt>
      <trkpt lat="46.30099" lon="2.733">
        <ele>410.01</ele>
        <time>2018-07-07T17:18:02.000Z</time>
      </trkpt>
      <trkpt lat="46.30087" lon="2.73311">
        <ele>410.3</ele>
        <time>2018-07-07T17:18:04.000Z</time>
      </trkpt>
      <trkpt lat="46.30074" lon="2.73323">
        <ele>410.7</ele>
        <time>2018-07-07T17:18:06.000Z</time>
      </trkpt>
      <trkpt lat="46.30062" lon="2.73334">
        <ele>411.02</ele>
        <time>2018-07-07T17:18:08.000Z</time>
      </trkpt>
      <trkpt lat="46.30049" lon="2.73344">
        <ele>411.56</ele>
        <time>2018-07-07T17:18:10.000Z</time>
      </trkpt>
      <trkpt lat="46.30036" lon="2.73354">
        <ele>411.59</ele>
        <time>2018-07-07T17:18:12.000Z</time>
      </trkpt>
      <trkpt lat="46.30023" lon="2.73366">
        <ele>411.91</ele>
        <time>2018-07-07T17:18:14.000Z</time>
      </trkpt>
      <trkpt lat="46.30011" lon="2.73378">
        <ele>412.06</ele>
        <time>2018-07-07T17:18:16.000Z</time>
      </trkpt>
      <trkpt lat="46.3" lon="2.73389">
        <ele>412.21</ele>
        <time>2018-07-07T17:18:18.000Z</time>
      </trkpt>
      <trkpt lat="46.2999" lon="2.73403">
        <ele>412.26</ele>
        <time>2018-07-07T17:18:20.000Z</time>
      </trkpt>
      <trkpt lat="46.2999" lon="2.73424">
        <ele>412.3</ele>
        <time>2018-07-07T17:18:22.000Z</time>
      </trkpt>
      <trkpt lat="46.29994" lon="2.73449">
        <ele>412.2</ele>
        <time>2018-07-07T17:18:24.000Z</time>
      </trkpt>
      <trkpt lat="46.29997" lon="2.73461">
        <ele>412.22</ele>
        <time>2018-07-07T17:18:25.000Z</time>
      </trkpt>
      <trkpt lat="46.3" lon="2.73483">
        <ele>412.24</ele>
        <time>2018-07-07T17:18:27.000Z</time>
      </trkpt>
      <trkpt lat="46.3" lon="2.73502">
        <ele>412.52</ele>
        <time>2018-07-07T17:18:29.000Z</time>
      </trkpt>
      <trkpt lat="46.3" lon="2.73522">
        <ele>412.71</ele>
        <time>2018-07-07T17:18:31.000Z</time>
      </trkpt>
      <trkpt lat="46.3" lon="2.73543">
        <ele>413</ele>
        <time>2018-07-07T17:18:33.000Z</time>
      </trkpt>
      <trkpt lat="46.3" lon="2.73564">
        <ele>413.15</ele>
        <time>2018-07-07T17:18:35.000Z</time>
      </trkpt>
      <trkpt lat="46.30001" lon="2.73586">
        <ele>413.55</ele>
        <time>2018-07-07T17:18:37.000Z</time>
      </trkpt>
      <trkpt lat="46.30002" lon="2.73607">
        <ele>413.66</ele>
        <time>2018-07-07T17:18:39.000Z</time>
      </trkpt>
      <trkpt lat="46.30003" lon="2.73628">
        <ele>413.59</ele>
        <time>2018-07-07T17:18:41.000Z</time>
      </trkpt>
      <trkpt lat="46.30005" lon="2.73649">
        <ele>413.44</ele>
        <time>2018-07-07T17:18:43.000Z</time>
      </trkpt>
      <trkpt lat="46.30007" lon="2.73669">
        <ele>412.98</ele>
        <time>2018-07-07T17:18:45.000Z</time>
      </trkpt>
      <trkpt lat="46.30008" lon="2.73691">
        <ele>412.32</ele>
        <time>2018-07-07T17:18:47.000Z</time>
      </trkpt>
      <trkpt lat="46.3001" lon="2.73713">
        <ele>411.68</ele>
        <time>2018-07-07T17:18:49.000Z</time>
      </trkpt>
      <trkpt lat="46.30011" lon="2.73735">
        <ele>411.32</ele>
        <time>2018-07-07T17:18:51.000Z</time>
      </trkpt>
      <trkpt lat="46.30013" lon="2.73756">
        <ele>411.21</ele>
        <time>2018-07-07T17:18:53.000Z</time>
      </trkpt>
      <trkpt lat="46.30013" lon="2.73777">
        <ele>411.27</ele>
        <time>2018-07-07T17:18:55.000Z</time>
      </trkpt>
      <trkpt lat="46.30013" lon="2.73797">
        <ele>411.39</ele>
        <time>2018-07-07T17:18:57.000Z</time>
      </trkpt>
      <trkpt lat="46.30014" lon="2.73817">
        <ele>411.63</ele>
        <time>2018-07-07T17:18:59.000Z</time>
      </trkpt>
      <trkpt lat="46.30015" lon="2.73836">
        <ele>412.14</ele>
        <time>2018-07-07T17:19:01.000Z</time>
      </trkpt>
      <trkpt lat="46.30016" lon="2.73855">
        <ele>412.4</ele>
        <time>2018-07-07T17:19:03.000Z</time>
      </trkpt>
      <trkpt lat="46.30017" lon="2.73874">
        <ele>412.58</ele>
        <time>2018-07-07T17:19:05.000Z</time>
      </trkpt>
      <trkpt lat="46.30018" lon="2.73892">
        <ele>412.32</ele>
        <time>2018-07-07T17:19:07.000Z</time>
      </trkpt>
      <trkpt lat="46.30019" lon="2.73909">
        <ele>412.13</ele>
        <time>2018-07-07T17:19:09.000Z</time>
      </trkpt>
      <trkpt lat="46.30019" lon="2.73925">
        <ele>412.42</ele>
        <time>2018-07-07T17:19:11.000Z</time>
      </trkpt>
      <trkpt lat="46.3002" lon="2.73941">
        <ele>412.7</ele>
        <time>2018-07-07T17:19:13.000Z</time>
      </trkpt>
      <trkpt lat="46.30022" lon="2.73958">
        <ele>412.98</ele>
        <time>2018-07-07T17:19:15.000Z</time>
      </trkpt>
      <trkpt lat="46.30024" lon="2.73975">
        <ele>413.23</ele>
        <time>2018-07-07T17:19:17.000Z</time>
      </trkpt>
      <trkpt lat="46.30028" lon="2.73991">
        <ele>413.47</ele>
        <time>2018-07-07T17:19:19.000Z</time>
      </trkpt>
      <trkpt lat="46.30033" lon="2.74008">
        <ele>413.62</ele>
        <time>2018-07-07T17:19:21.000Z</time>
      </trkpt>
      <trkpt lat="46.30037" lon="2.74024">
        <ele>414.21</ele>
        <time>2018-07-07T17:19:23.000Z</time>
      </trkpt>
      <trkpt lat="46.3004" lon="2.7404">
        <ele>414.95</ele>
        <time>2018-07-07T17:19:25.000Z</time>
      </trkpt>
      <trkpt lat="46.30043" lon="2.74058">
        <ele>415.12</ele>
        <time>2018-07-07T17:19:27.000Z</time>
      </trkpt>
      <trkpt lat="46.30047" lon="2.74075">
        <ele>415.13</ele>
        <time>2018-07-07T17:19:29.000Z</time>
      </trkpt>
      <trkpt lat="46.30051" lon="2.74091">
        <ele>414.93</ele>
        <time>2018-07-07T17:19:31.000Z</time>
      </trkpt>
      <trkpt lat="46.30054" lon="2.74106">
        <ele>414.83</ele>
        <time>2018-07-07T17:19:33.000Z</time>
      </trkpt>
      <trkpt lat="46.30057" lon="2.74122">
        <ele>414.05</ele>
        <time>2018-07-07T17:19:35.000Z</time>
      </trkpt>
      <trkpt lat="46.30061" lon="2.74137">
        <ele>413.4</ele>
        <time>2018-07-07T17:19:37.000Z</time>
      </trkpt>
      <trkpt lat="46.30064" lon="2.74152">
        <ele>412.54</ele>
        <time>2018-07-07T17:19:39.000Z</time>
      </trkpt>
      <trkpt lat="46.30066" lon="2.74167">
        <ele>412.04</ele>
        <time>2018-07-07T17:19:41.000Z</time>
      </trkpt>
      <trkpt lat="46.30067" lon="2.74181">
        <ele>411.8</ele>
        <time>2018-07-07T17:19:43.000Z</time>
      </trkpt>
      <trkpt lat="46.30069" lon="2.74195">
        <ele>411.67</ele>
        <time>2018-07-07T17:19:45.000Z</time>
      </trkpt>
      <trkpt lat="46.30071" lon="2.74209">
        <ele>411.45</ele>
        <time>2018-07-07T17:19:47.000Z</time>
      </trkpt>
      <trkpt lat="46.30072" lon="2.74224">
        <ele>411.42</ele>
        <time>2018-07-07T17:19:49.000Z</time>
      </trkpt>
      <trkpt lat="46.30075" lon="2.74239">
        <ele>411.74</ele>
        <time>2018-07-07T17:19:51.000Z</time>
      </trkpt>
      <trkpt lat="46.30077" lon="2.74253">
        <ele>411.82</ele>
        <time>2018-07-07T17:19:53.000Z</time>
      </trkpt>
      <trkpt lat="46.3008" lon="2.74268">
        <ele>411.89</ele>
        <time>2018-07-07T17:19:55.000Z</time>
      </trkpt>
      <trkpt lat="46.30082" lon="2.74283">
        <ele>412.13</ele>
        <time>2018-07-07T17:19:57.000Z</time>
      </trkpt>
      <trkpt lat="46.30084" lon="2.74298">
        <ele>412.47</ele>
        <time>2018-07-07T17:19:59.000Z</time>
      </trkpt>
      <trkpt lat="46.30085" lon="2.74313">
        <ele>413.14</ele>
        <time>2018-07-07T17:20:01.000Z</time>
      </trkpt>
      <trkpt lat="46.30087" lon="2.74327">
        <ele>413.93</ele>
        <time>2018-07-07T17:20:03.000Z</time>
      </trkpt>
      <trkpt lat="46.30089" lon="2.74342">
        <ele>414.2</ele>
        <time>2018-07-07T17:20:05.000Z</time>
      </trkpt>
      <trkpt lat="46.30092" lon="2.74358">
        <ele>414.44</ele>
        <time>2018-07-07T17:20:07.000Z</time>
      </trkpt>
      <trkpt lat="46.30095" lon="2.74372">
        <ele>414.51</ele>
        <time>2018-07-07T17:20:09.000Z</time>
      </trkpt>
      <trkpt lat="46.30096" lon="2.74387">
        <ele>415.05</ele>
        <time>2018-07-07T17:20:11.000Z</time>
      </trkpt>
      <trkpt lat="46.30099" lon="2.74403">
        <ele>415.28</ele>
        <time>2018-07-07T17:20:13.000Z</time>
      </trkpt>
      <trkpt lat="46.30102" lon="2.74419">
        <ele>415.17</ele>
        <time>2018-07-07T17:20:15.000Z</time>
      </trkpt>
      <trkpt lat="46.30105" lon="2.74435">
        <ele>414.78</ele>
        <time>2018-07-07T17:20:17.000Z</time>
      </trkpt>
      <trkpt lat="46.30107" lon="2.7445">
        <ele>414.54</ele>
        <time>2018-07-07T17:20:19.000Z</time>
      </trkpt>
      <trkpt lat="46.30109" lon="2.74466">
        <ele>414.48</ele>
        <time>2018-07-07T17:20:21.000Z</time>
      </trkpt>
      <trkpt lat="46.30111" lon="2.74482">
        <ele>414.88</ele>
        <time>2018-07-07T17:20:23.000Z</time>
      </trkpt>
      <trkpt lat="46.30112" lon="2.74498">
        <ele>415.61</ele>
        <time>2018-07-07T17:20:25.000Z</time>
      </trkpt>
      <trkpt lat="46.30114" lon="2.74514">
        <ele>416.11</ele>
        <time>2018-07-07T17:20:27.000Z</time>
      </trkpt>
      <trkpt lat="46.30115" lon="2.7453">
        <ele>416.45</ele>
        <time>2018-07-07T17:20:29.000Z</time>
      </trkpt>
      <trkpt lat="46.30116" lon="2.74545">
        <ele>417.23</ele>
        <time>2018-07-07T17:20:31.000Z</time>
      </trkpt>
      <trkpt lat="46.30118" lon="2.7456">
        <ele>417.74</ele>
        <time>2018-07-07T17:20:33.000Z</time>
      </trkpt>
      <trkpt lat="46.30119" lon="2.74576">
        <ele>418.04</ele>
        <time>2018-07-07T17:20:34.999Z</time>
      </trkpt>
      <trkpt lat="46.30119" lon="2.74591">
        <ele>418.18</ele>
        <time>2018-07-07T17:20:37.000Z</time>
      </trkpt>
      <trkpt lat="46.30119" lon="2.74606">
        <ele>418.2</ele>
        <time>2018-07-07T17:20:39.000Z</time>
      </trkpt>
      <trkpt lat="46.3012" lon="2.74625">
        <ele>418.54</ele>
        <time>2018-07-07T17:20:42.000Z</time>
      </trkpt>
      <trkpt lat="46.30126" lon="2.74636">
        <ele>418.98</ele>
        <time>2018-07-07T17:20:45.000Z</time>
      </trkpt>
      <trkpt lat="46.30137" lon="2.74639">
        <ele>419.62</ele>
        <time>2018-07-07T17:20:47.000Z</time>
      </trkpt>
      <trkpt lat="46.3015" lon="2.74641">
        <ele>419.79</ele>
        <time>2018-07-07T17:20:49.000Z</time>
      </trkpt>
      <trkpt lat="46.30164" lon="2.74644">
        <ele>420.18</ele>
        <time>2018-07-07T17:20:51.000Z</time>
      </trkpt>
      <trkpt lat="46.30174" lon="2.74649">
        <ele>420.68</ele>
        <time>2018-07-07T17:20:53.000Z</time>
      </trkpt>
      <trkpt lat="46.30184" lon="2.74654">
        <ele>421.22</ele>
        <time>2018-07-07T17:20:55.000Z</time>
      </trkpt>
      <trkpt lat="46.30194" lon="2.74659">
        <ele>421.19</ele>
        <time>2018-07-07T17:20:57.000Z</time>
      </trkpt>
      <trkpt lat="46.30206" lon="2.74666">
        <ele>421.07</ele>
        <time>2018-07-07T17:20:59.000Z</time>
      </trkpt>
      <trkpt lat="46.30217" lon="2.74673">
        <ele>421.1</ele>
        <time>2018-07-07T17:21:01.000Z</time>
      </trkpt>
      <trkpt lat="46.30228" lon="2.74681">
        <ele>420.9</ele>
        <time>2018-07-07T17:21:03.000Z</time>
      </trkpt>
      <trkpt lat="46.3024" lon="2.74689">
        <ele>420.64</ele>
        <time>2018-07-07T17:21:05.000Z</time>
      </trkpt>
      <trkpt lat="46.30252" lon="2.74695">
        <ele>420.11</ele>
        <time>2018-07-07T17:21:07.000Z</time>
      </trkpt>
      <trkpt lat="46.30264" lon="2.74702">
        <ele>418.79</ele>
        <time>2018-07-07T17:21:09.000Z</time>
      </trkpt>
      <trkpt lat="46.30275" lon="2.7471">
        <ele>417.78</ele>
        <time>2018-07-07T17:21:11.000Z</time>
      </trkpt>
      <trkpt lat="46.30286" lon="2.74715">
        <ele>416.73</ele>
        <time>2018-07-07T17:21:13.000Z</time>
      </trkpt>
      <trkpt lat="46.30297" lon="2.74719">
        <ele>416.35</ele>
        <time>2018-07-07T17:21:15.000Z</time>
      </trkpt>
      <trkpt lat="46.30307" lon="2.74724">
        <ele>416.21</ele>
        <time>2018-07-07T17:21:17.000Z</time>
      </trkpt>
      <trkpt lat="46.30316" lon="2.74729">
        <ele>416.03</ele>
        <time>2018-07-07T17:21:19.000Z</time>
      </trkpt>
      <trkpt lat="46.30326" lon="2.74742">
        <ele>417.08</ele>
        <time>2018-07-07T17:21:22.000Z</time>
      </trkpt>
      <trkpt lat="46.30332" lon="2.74753">
        <ele>417.58</ele>
        <time>2018-07-07T17:21:24.000Z</time>
      </trkpt>
      <trkpt lat="46.30343" lon="2.74763">
        <ele>417.9</ele>
        <time>2018-07-07T17:21:27.000Z</time>
      </trkpt>
      <trkpt lat="46.30353" lon="2.74764">
        <ele>417.57</ele>
        <time>2018-07-07T17:21:29.000Z</time>
      </trkpt>
      <trkpt lat="46.30364" lon="2.74759">
        <ele>417.28</ele>
        <time>2018-07-07T17:21:31.000Z</time>
      </trkpt>
      <trkpt lat="46.30375" lon="2.74758">
        <ele>417</ele>
        <time>2018-07-07T17:21:33.000Z</time>
      </trkpt>
      <trkpt lat="46.30383" lon="2.74763">
        <ele>416.93</ele>
        <time>2018-07-07T17:21:35.000Z</time>
      </trkpt>
      <trkpt lat="46.30394" lon="2.74772">
        <ele>417.34</ele>
        <time>2018-07-07T17:21:38.000Z</time>
      </trkpt>
      <trkpt lat="46.30404" lon="2.74779">
        <ele>417.21</ele>
        <time>2018-07-07T17:21:41.000Z</time>
      </trkpt>
      <trkpt lat="46.30413" lon="2.74786">
        <ele>417.43</ele>
        <time>2018-07-07T17:21:44.000Z</time>
      </trkpt>
      <trkpt lat="46.30422" lon="2.74792">
        <ele>417.49</ele>
        <time>2018-07-07T17:21:47.000Z</time>
      </trkpt>
      <trkpt lat="46.3043" lon="2.74798">
        <ele>417.99</ele>
        <time>2018-07-07T17:21:50.000Z</time>
      </trkpt>
      <trkpt lat="46.30439" lon="2.74805">
        <ele>418.37</ele>
        <time>2018-07-07T17:21:53.000Z</time>
      </trkpt>
      <trkpt lat="46.3045" lon="2.74812">
        <ele>419.08</ele>
        <time>2018-07-07T17:21:56.000Z</time>
      </trkpt>
      <trkpt lat="46.30459" lon="2.7482">
        <ele>420.07</ele>
        <time>2018-07-07T17:21:59.000Z</time>
      </trkpt>
      <trkpt lat="46.30468" lon="2.74826">
        <ele>420.61</ele>
        <time>2018-07-07T17:22:02.000Z</time>
      </trkpt>
      <trkpt lat="46.30479" lon="2.74836">
        <ele>420.97</ele>
        <time>2018-07-07T17:22:05.000Z</time>
      </trkpt>
      <trkpt lat="46.3049" lon="2.74847">
        <ele>422.63</ele>
        <time>2018-07-07T17:22:08.000Z</time>
      </trkpt>
      <trkpt lat="46.30496" lon="2.74861">
        <ele>424.78</ele>
        <time>2018-07-07T17:22:11.000Z</time>
      </trkpt>
      <trkpt lat="46.305" lon="2.74876">
        <ele>426.71</ele>
        <time>2018-07-07T17:22:14.000Z</time>
      </trkpt>
      <trkpt lat="46.30505" lon="2.74892">
        <ele>428.29</ele>
        <time>2018-07-07T17:22:17.000Z</time>
      </trkpt>
      <trkpt lat="46.30511" lon="2.74906">
        <ele>428.86</ele>
        <time>2018-07-07T17:22:20.000Z</time>
      </trkpt>
      <trkpt lat="46.30517" lon="2.7492">
        <ele>429.5</ele>
        <time>2018-07-07T17:22:23.000Z</time>
      </trkpt>
      <trkpt lat="46.30524" lon="2.74934">
        <ele>430.04</ele>
        <time>2018-07-07T17:22:26.000Z</time>
      </trkpt>
      <trkpt lat="46.3053" lon="2.7495">
        <ele>430.81</ele>
        <time>2018-07-07T17:22:29.000Z</time>
      </trkpt>
      <trkpt lat="46.30537" lon="2.74964">
        <ele>432.19</ele>
        <time>2018-07-07T17:22:32.000Z</time>
      </trkpt>
      <trkpt lat="46.30543" lon="2.74975">
        <ele>433.26</ele>
        <time>2018-07-07T17:22:34.000Z</time>
      </trkpt>
      <trkpt lat="46.30549" lon="2.74989">
        <ele>434.42</ele>
        <time>2018-07-07T17:22:36.000Z</time>
      </trkpt>
      <trkpt lat="46.30555" lon="2.75002">
        <ele>435.7</ele>
        <time>2018-07-07T17:22:38.000Z</time>
      </trkpt>
      <trkpt lat="46.3056" lon="2.75017">
        <ele>436.76</ele>
        <time>2018-07-07T17:22:40.000Z</time>
      </trkpt>
      <trkpt lat="46.30566" lon="2.7503">
        <ele>437.59</ele>
        <time>2018-07-07T17:22:42.000Z</time>
      </trkpt>
      <trkpt lat="46.30571" lon="2.75042">
        <ele>438.21</ele>
        <time>2018-07-07T17:22:44.000Z</time>
      </trkpt>
      <trkpt lat="46.30577" lon="2.75053">
        <ele>438.71</ele>
        <time>2018-07-07T17:22:46.000Z</time>
      </trkpt>
      <trkpt lat="46.30583" lon="2.75066">
        <ele>438.04</ele>
        <time>2018-07-07T17:22:48.000Z</time>
      </trkpt>
      <trkpt lat="46.3059" lon="2.75078">
        <ele>437.36</ele>
        <time>2018-07-07T17:22:50.000Z</time>
      </trkpt>
      <trkpt lat="46.30598" lon="2.75091">
        <ele>436.92</ele>
        <time>2018-07-07T17:22:52.000Z</time>
      </trkpt>
      <trkpt lat="46.30607" lon="2.75104">
        <ele>437.05</ele>
        <time>2018-07-07T17:22:54.000Z</time>
      </trkpt>
      <trkpt lat="46.30615" lon="2.75119">
        <ele>437.23</ele>
        <time>2018-07-07T17:22:56.000Z</time>
      </trkpt>
      <trkpt lat="46.30622" lon="2.75135">
        <ele>437.88</ele>
        <time>2018-07-07T17:22:58.000Z</time>
      </trkpt>
      <trkpt lat="46.30627" lon="2.75154">
        <ele>438.72</ele>
        <time>2018-07-07T17:23:00.000Z</time>
      </trkpt>
      <trkpt lat="46.30632" lon="2.75174">
        <ele>438.9</ele>
        <time>2018-07-07T17:23:02.000Z</time>
      </trkpt>
      <trkpt lat="46.30636" lon="2.75194">
        <ele>439.15</ele>
        <time>2018-07-07T17:23:04.000Z</time>
      </trkpt>
      <trkpt lat="46.3064" lon="2.75214">
        <ele>438.96</ele>
        <time>2018-07-07T17:23:06.000Z</time>
      </trkpt>
      <trkpt lat="46.30645" lon="2.75235">
        <ele>438.73</ele>
        <time>2018-07-07T17:23:08.000Z</time>
      </trkpt>
      <trkpt lat="46.30655" lon="2.75256">
        <ele>438.25</ele>
        <time>2018-07-07T17:23:10.000Z</time>
      </trkpt>
      <trkpt lat="46.30668" lon="2.75272">
        <ele>437.85</ele>
        <time>2018-07-07T17:23:12.000Z</time>
      </trkpt>
      <trkpt lat="46.30676" lon="2.75279">
        <ele>437.67</ele>
        <time>2018-07-07T17:23:13.000Z</time>
      </trkpt>
      <trkpt lat="46.30692" lon="2.75289">
        <ele>437.52</ele>
        <time>2018-07-07T17:23:15.000Z</time>
      </trkpt>
      <trkpt lat="46.30709" lon="2.75295">
        <ele>436.33</ele>
        <time>2018-07-07T17:23:17.000Z</time>
      </trkpt>
      <trkpt lat="46.30718" lon="2.75299">
        <ele>435.97</ele>
        <time>2018-07-07T17:23:18.000Z</time>
      </trkpt>
      <trkpt lat="46.30726" lon="2.75303">
        <ele>435.54</ele>
        <time>2018-07-07T17:23:19.000Z</time>
      </trkpt>
      <trkpt lat="46.30735" lon="2.75307">
        <ele>434.93</ele>
        <time>2018-07-07T17:23:20.000Z</time>
      </trkpt>
      <trkpt lat="46.30744" lon="2.75311">
        <ele>434.43</ele>
        <time>2018-07-07T17:23:21.000Z</time>
      </trkpt>
      <trkpt lat="46.30753" lon="2.75316">
        <ele>433.76</ele>
        <time>2018-07-07T17:23:22.000Z</time>
      </trkpt>
      <trkpt lat="46.30763" lon="2.7532">
        <ele>433</ele>
        <time>2018-07-07T17:23:23.000Z</time>
      </trkpt>
      <trkpt lat="46.30772" lon="2.75324">
        <ele>432.34</ele>
        <time>2018-07-07T17:23:24.000Z</time>
      </trkpt>
      <trkpt lat="46.30781" lon="2.75328">
        <ele>431.74</ele>
        <time>2018-07-07T17:23:25.000Z</time>
      </trkpt>
      <trkpt lat="46.3079" lon="2.75333">
        <ele>431.12</ele>
        <time>2018-07-07T17:23:26.000Z</time>
      </trkpt>
      <trkpt lat="46.308" lon="2.75337">
        <ele>430.54</ele>
        <time>2018-07-07T17:23:27.000Z</time>
      </trkpt>
      <trkpt lat="46.30809" lon="2.75342">
        <ele>429.98</ele>
        <time>2018-07-07T17:23:28.000Z</time>
      </trkpt>
      <trkpt lat="46.30818" lon="2.75345">
        <ele>429.16</ele>
        <time>2018-07-07T17:23:29.000Z</time>
      </trkpt>
      <trkpt lat="46.30827" lon="2.75348">
        <ele>428.46</ele>
        <time>2018-07-07T17:23:30.000Z</time>
      </trkpt>
      <trkpt lat="46.30845" lon="2.75354">
        <ele>427.01</ele>
        <time>2018-07-07T17:23:32.000Z</time>
      </trkpt>
      <trkpt lat="46.30861" lon="2.75359">
        <ele>425.55</ele>
        <time>2018-07-07T17:23:34.000Z</time>
      </trkpt>
      <trkpt lat="46.30877" lon="2.75365">
        <ele>424.25</ele>
        <time>2018-07-07T17:23:36.000Z</time>
      </trkpt>
      <trkpt lat="46.30894" lon="2.75368">
        <ele>423.06</ele>
        <time>2018-07-07T17:23:38.000Z</time>
      </trkpt>
      <trkpt lat="46.30909" lon="2.7537">
        <ele>421.38</ele>
        <time>2018-07-07T17:23:40.000Z</time>
      </trkpt>
      <trkpt lat="46.30925" lon="2.75374">
        <ele>419.23</ele>
        <time>2018-07-07T17:23:42.000Z</time>
      </trkpt>
      <trkpt lat="46.3094" lon="2.75381">
        <ele>417.48</ele>
        <time>2018-07-07T17:23:44.000Z</time>
      </trkpt>
      <trkpt lat="46.30954" lon="2.7539">
        <ele>416.65</ele>
        <time>2018-07-07T17:23:46.000Z</time>
      </trkpt>
      <trkpt lat="46.30968" lon="2.754">
        <ele>416.07</ele>
        <time>2018-07-07T17:23:48.000Z</time>
      </trkpt>
      <trkpt lat="46.30983" lon="2.7541">
        <ele>415.41</ele>
        <time>2018-07-07T17:23:50.000Z</time>
      </trkpt>
      <trkpt lat="46.30999" lon="2.75417">
        <ele>414.46</ele>
        <time>2018-07-07T17:23:52.000Z</time>
      </trkpt>
      <trkpt lat="46.31015" lon="2.75418">
        <ele>413.21</ele>
        <time>2018-07-07T17:23:54.000Z</time>
      </trkpt>
      <trkpt lat="46.31025" lon="2.75415">
        <ele>412.55</ele>
        <time>2018-07-07T17:23:55.000Z</time>
      </trkpt>
      <trkpt lat="46.31034" lon="2.75411">
        <ele>411.76</ele>
        <time>2018-07-07T17:23:56.000Z</time>
      </trkpt>
      <trkpt lat="46.31042" lon="2.75405">
        <ele>411.19</ele>
        <time>2018-07-07T17:23:57.000Z</time>
      </trkpt>
      <trkpt lat="46.31057" lon="2.75394">
        <ele>409.87</ele>
        <time>2018-07-07T17:23:59.000Z</time>
      </trkpt>
      <trkpt lat="46.31072" lon="2.75387">
        <ele>408.77</ele>
        <time>2018-07-07T17:24:01.000Z</time>
      </trkpt>
      <trkpt lat="46.31084" lon="2.75385">
        <ele>407.78</ele>
        <time>2018-07-07T17:24:03.000Z</time>
      </trkpt>
      <trkpt lat="46.31094" lon="2.75381">
        <ele>405.93</ele>
        <time>2018-07-07T17:24:06.000Z</time>
      </trkpt>
      <trkpt lat="46.31103" lon="2.75379">
        <ele>402.5</ele>
        <time>2018-07-07T17:24:12.000Z</time>
      </trkpt>
      <trkpt lat="46.31115" lon="2.75379">
        <ele>401.1</ele>
        <time>2018-07-07T17:24:16.000Z</time>
      </trkpt>
      <trkpt lat="46.31124" lon="2.75373">
        <ele>400.19</ele>
        <time>2018-07-07T17:24:20.000Z</time>
      </trkpt>
    </trkseg>
  </trk>
</gpx>